<?xml version='1.0' encoding='UTF-8'?><gpx version="1.1" creator="JPX - https://github.com/jenetics/jpx" xmlns="http://www.topografix.com/GPX/1/1"><trk><trkseg><trkpt lat="46.0729823" lon="9.3040776"><ele>207.0</ele><time>2026-04-23T06:04:52.013Z</time></trkpt><trkpt lat="46.0729268" lon="9.3041251"><ele>207.0</ele><time>2026-04-23T06:05:36.123Z</time></trkpt><trkpt lat="46.0729483" lon="9.3040096"><ele>207.0</ele><time>2026-04-23T06:24:19.131Z</time></trkpt><trkpt lat="46.072949" lon="9.3039089"><ele>207.0</ele><time>2026-04-23T06:24:22.233Z</time></trkpt><trkpt lat="46.0729148" lon="9.3038128"><ele>207.0</ele><time>2026-04-23T06:24:24.959Z</time></trkpt><trkpt lat="46.072891" lon="9.3036966"><ele>207.0</ele><time>2026-04-23T06:24:28.208Z</time></trkpt><trkpt lat="46.072913" lon="9.3035537"><ele>207.0</ele><time>2026-04-23T06:24:30.666Z</time></trkpt><trkpt lat="46.0729252" lon="9.303416"><ele>207.0</ele><time>2026-04-23T06:24:33.218Z</time></trkpt><trkpt lat="46.0729514" lon="9.3032933"><ele>207.0</ele><time>2026-04-23T06:24:35.588Z</time></trkpt><trkpt lat="46.0729658" lon="9.30316"><ele>207.0</ele><time>2026-04-23T06:24:38.205Z</time></trkpt><trkpt lat="46.0729631" lon="9.3030526"><ele>207.0</ele><time>2026-04-23T06:24:40.233Z</time></trkpt><trkpt lat="46.0729589" lon="9.3029442"><ele>207.0</ele><time>2026-04-23T06:24:43.126Z</time></trkpt><trkpt lat="46.0730044" lon="9.3028787"><ele>207.0</ele><time>2026-04-23T06:24:45.126Z</time></trkpt><trkpt lat="46.0730802" lon="9.3028454"><ele>207.0</ele><time>2026-04-23T06:24:48.126Z</time></trkpt><trkpt lat="46.0731386" lon="9.3029538"><ele>207.0</ele><time>2026-04-23T06:24:51.125Z</time></trkpt><trkpt lat="46.073192" lon="9.3030343"><ele>207.0</ele><time>2026-04-23T06:24:53.126Z</time></trkpt><trkpt lat="46.0732325" lon="9.3031124"><ele>207.0</ele><time>2026-04-23T06:24:55.125Z</time></trkpt><trkpt lat="46.0732913" lon="9.3032189"><ele>207.0</ele><time>2026-04-23T06:24:58.127Z</time></trkpt><trkpt lat="46.0733325" lon="9.3032942"><ele>207.00000000000003</ele><time>2026-04-23T06:25:00.125Z</time></trkpt><trkpt lat="46.0733627" lon="9.3033818"><ele>207.0</ele><time>2026-04-23T06:25:02.126Z</time></trkpt><trkpt lat="46.0733799" lon="9.3034922"><ele>207.0</ele><time>2026-04-23T06:25:04.126Z</time></trkpt><trkpt lat="46.0733944" lon="9.3035965"><ele>207.0</ele><time>2026-04-23T06:25:06.126Z</time></trkpt><trkpt lat="46.0734288" lon="9.303696"><ele>207.0</ele><time>2026-04-23T06:25:08.126Z</time></trkpt><trkpt lat="46.0734747" lon="9.3037754"><ele>207.00000000000003</ele><time>2026-04-23T06:25:10.126Z</time></trkpt><trkpt lat="46.0735213" lon="9.3038563"><ele>207.0</ele><time>2026-04-23T06:25:12.127Z</time></trkpt><trkpt lat="46.0735752" lon="9.303935"><ele>207.2857142857143</ele><time>2026-04-23T06:25:14.125Z</time></trkpt><trkpt lat="46.0736221" lon="9.3040126"><ele>207.57142857142858</ele><time>2026-04-23T06:25:16.126Z</time></trkpt><trkpt lat="46.0736725" lon="9.3041021"><ele>207.85714285714286</ele><time>2026-04-23T06:25:18.126Z</time></trkpt><trkpt lat="46.073722" lon="9.304178"><ele>208.14285714285717</ele><time>2026-04-23T06:25:20.126Z</time></trkpt><trkpt lat="46.0737698" lon="9.3042606"><ele>208.42857142857142</ele><time>2026-04-23T06:25:22.126Z</time></trkpt><trkpt lat="46.073811" lon="9.3043608"><ele>208.71428571428572</ele><time>2026-04-23T06:25:24.127Z</time></trkpt><trkpt lat="46.0738532" lon="9.3044332"><ele>209.0</ele><time>2026-04-23T06:25:26.126Z</time></trkpt><trkpt lat="46.0739128" lon="9.3045332"><ele>209.00000000000003</ele><time>2026-04-23T06:25:29.127Z</time></trkpt><trkpt lat="46.0739621" lon="9.3046101"><ele>209.0</ele><time>2026-04-23T06:25:31.127Z</time></trkpt><trkpt lat="46.0740194" lon="9.3046856"><ele>209.0</ele><time>2026-04-23T06:25:33.125Z</time></trkpt><trkpt lat="46.0740798" lon="9.3047856"><ele>209.0</ele><time>2026-04-23T06:25:36.126Z</time></trkpt><trkpt lat="46.0741452" lon="9.3048555"><ele>209.00000000000003</ele><time>2026-04-23T06:25:40.125Z</time></trkpt><trkpt lat="46.074218" lon="9.3048829"><ele>209.0</ele><time>2026-04-23T06:25:43.126Z</time></trkpt><trkpt lat="46.0742874" lon="9.3048599"><ele>209.16666666666669</ele><time>2026-04-23T06:25:45.126Z</time></trkpt><trkpt lat="46.0743595" lon="9.3048253"><ele>209.33333333333334</ele><time>2026-04-23T06:25:47.126Z</time></trkpt><trkpt lat="46.0744653" lon="9.3047507"><ele>209.5</ele><time>2026-04-23T06:25:50.126Z</time></trkpt><trkpt lat="46.0745404" lon="9.3047114"><ele>209.66666666666669</ele><time>2026-04-23T06:25:52.125Z</time></trkpt><trkpt lat="46.0746147" lon="9.3046729"><ele>209.83333333333334</ele><time>2026-04-23T06:25:54.126Z</time></trkpt><trkpt lat="46.074691" lon="9.3046362"><ele>210.0</ele><time>2026-04-23T06:25:56.125Z</time></trkpt><trkpt lat="46.0747679" lon="9.3045958"><ele>209.83333333333334</ele><time>2026-04-23T06:25:58.127Z</time></trkpt><trkpt lat="46.0748472" lon="9.3045575"><ele>209.66666666666669</ele><time>2026-04-23T06:26:00.126Z</time></trkpt><trkpt lat="46.0749387" lon="9.304519"><ele>209.5</ele><time>2026-04-23T06:26:02.218Z</time></trkpt><trkpt lat="46.0750162" lon="9.3045074"><ele>209.33333333333334</ele><time>2026-04-23T06:26:04.125Z</time></trkpt><trkpt lat="46.0751058" lon="9.3044882"><ele>209.16666666666669</ele><time>2026-04-23T06:26:06.126Z</time></trkpt><trkpt lat="46.0751966" lon="9.304467"><ele>209.0</ele><time>2026-04-23T06:26:08.126Z</time></trkpt><trkpt lat="46.0752865" lon="9.3044444"><ele>209.0</ele><time>2026-04-23T06:26:10.126Z</time></trkpt><trkpt lat="46.0753807" lon="9.3044365"><ele>209.0</ele><time>2026-04-23T06:26:12.126Z</time></trkpt><trkpt lat="46.0754643" lon="9.3044294"><ele>209.0</ele><time>2026-04-23T06:26:14.126Z</time></trkpt><trkpt lat="46.0755623" lon="9.3044239"><ele>209.0</ele><time>2026-04-23T06:26:16.126Z</time></trkpt><trkpt lat="46.0756495" lon="9.3044267"><ele>209.0</ele><time>2026-04-23T06:26:18.126Z</time></trkpt><trkpt lat="46.0757478" lon="9.304422"><ele>209.39999999999998</ele><time>2026-04-23T06:26:20.125Z</time></trkpt><trkpt lat="46.0758398" lon="9.3044215"><ele>209.8</ele><time>2026-04-23T06:26:22.126Z</time></trkpt><trkpt lat="46.0759325" lon="9.304431"><ele>210.2</ele><time>2026-04-23T06:26:24.126Z</time></trkpt><trkpt lat="46.0760402" lon="9.3044395"><ele>210.60000000000002</ele><time>2026-04-23T06:26:26.126Z</time></trkpt><trkpt lat="46.0761243" lon="9.3044556"><ele>211.0</ele><time>2026-04-23T06:26:28.126Z</time></trkpt><trkpt lat="46.0762209" lon="9.3044657"><ele>211.0</ele><time>2026-04-23T06:26:30.126Z</time></trkpt><trkpt lat="46.0763303" lon="9.3044922"><ele>211.0</ele><time>2026-04-23T06:26:32.126Z</time></trkpt><trkpt lat="46.0764241" lon="9.3045177"><ele>211.0</ele><time>2026-04-23T06:26:34.126Z</time></trkpt><trkpt lat="46.076524" lon="9.3045431"><ele>211.0</ele><time>2026-04-23T06:26:36.127Z</time></trkpt><trkpt lat="46.0766271" lon="9.3045699"><ele>211.0</ele><time>2026-04-23T06:26:38.126Z</time></trkpt><trkpt lat="46.0767131" lon="9.304598"><ele>210.8</ele><time>2026-04-23T06:26:40.126Z</time></trkpt><trkpt lat="46.0767947" lon="9.3046117"><ele>210.60000000000002</ele><time>2026-04-23T06:26:42.127Z</time></trkpt><trkpt lat="46.0768945" lon="9.3046405"><ele>210.4</ele><time>2026-04-23T06:26:44.126Z</time></trkpt><trkpt lat="46.0769882" lon="9.3046673"><ele>210.2</ele><time>2026-04-23T06:26:46.125Z</time></trkpt><trkpt lat="46.0770801" lon="9.3046859"><ele>210.0</ele><time>2026-04-23T06:26:48.127Z</time></trkpt><trkpt lat="46.0771691" lon="9.3047094"><ele>210.0</ele><time>2026-04-23T06:26:50.125Z</time></trkpt><trkpt lat="46.0772695" lon="9.3047373"><ele>210.0</ele><time>2026-04-23T06:26:52.126Z</time></trkpt><trkpt lat="46.0773597" lon="9.304767"><ele>210.0</ele><time>2026-04-23T06:26:54.126Z</time></trkpt><trkpt lat="46.0774283" lon="9.3047941"><ele>210.0</ele><time>2026-04-23T06:26:56.125Z</time></trkpt><trkpt lat="46.077493" lon="9.3048237"><ele>210.0</ele><time>2026-04-23T06:26:58.126Z</time></trkpt><trkpt lat="46.0775845" lon="9.3048632"><ele>210.0</ele><time>2026-04-23T06:27:01.127Z</time></trkpt><trkpt lat="46.0776613" lon="9.304908"><ele>210.6</ele><time>2026-04-23T06:27:02.127Z</time></trkpt><trkpt lat="46.0777634" lon="9.3049704"><ele>211.2</ele><time>2026-04-23T06:27:04.127Z</time></trkpt><trkpt lat="46.0778705" lon="9.3050525"><ele>211.8</ele><time>2026-04-23T06:27:06.127Z</time></trkpt><trkpt lat="46.0779263" lon="9.3051"><ele>212.4</ele><time>2026-04-23T06:27:07.126Z</time></trkpt><trkpt lat="46.0780103" lon="9.3051659"><ele>213.0</ele><time>2026-04-23T06:27:09.126Z</time></trkpt><trkpt lat="46.0780857" lon="9.3052386"><ele>213.0</ele><time>2026-04-23T06:27:11.126Z</time></trkpt><trkpt lat="46.0781586" lon="9.3053135"><ele>213.0</ele><time>2026-04-23T06:27:13.127Z</time></trkpt><trkpt lat="46.0782483" lon="9.3054122"><ele>213.0</ele><time>2026-04-23T06:27:15.127Z</time></trkpt><trkpt lat="46.0783119" lon="9.3054917"><ele>213.0</ele><time>2026-04-23T06:27:17.127Z</time></trkpt><trkpt lat="46.0783853" lon="9.3055914"><ele>213.0</ele><time>2026-04-23T06:27:19.125Z</time></trkpt><trkpt lat="46.0784485" lon="9.3056891"><ele>213.4</ele><time>2026-04-23T06:27:21.125Z</time></trkpt><trkpt lat="46.0785202" lon="9.3057951"><ele>213.8</ele><time>2026-04-23T06:27:23.125Z</time></trkpt><trkpt lat="46.0785919" lon="9.3059078"><ele>214.2</ele><time>2026-04-23T06:27:25.127Z</time></trkpt><trkpt lat="46.0786553" lon="9.3060205"><ele>214.6</ele><time>2026-04-23T06:27:27.126Z</time></trkpt><trkpt lat="46.0787143" lon="9.3061354"><ele>215.0</ele><time>2026-04-23T06:27:29.126Z</time></trkpt><trkpt lat="46.0787717" lon="9.3062621"><ele>215.0</ele><time>2026-04-23T06:27:31.127Z</time></trkpt><trkpt lat="46.0788355" lon="9.3063912"><ele>215.0</ele><time>2026-04-23T06:27:33.126Z</time></trkpt><trkpt lat="46.0788905" lon="9.3064971"><ele>215.0</ele><time>2026-04-23T06:27:35.126Z</time></trkpt><trkpt lat="46.0789477" lon="9.3066173"><ele>215.0</ele><time>2026-04-23T06:27:37.125Z</time></trkpt><trkpt lat="46.0789913" lon="9.3067198"><ele>215.0</ele><time>2026-04-23T06:27:39.126Z</time></trkpt><trkpt lat="46.0790332" lon="9.3068285"><ele>214.6</ele><time>2026-04-23T06:27:41.126Z</time></trkpt><trkpt lat="46.0790923" lon="9.3069461"><ele>214.2</ele><time>2026-04-23T06:27:43.126Z</time></trkpt><trkpt lat="46.0791486" lon="9.3070646"><ele>213.8</ele><time>2026-04-23T06:27:45.127Z</time></trkpt><trkpt lat="46.0792119" lon="9.3071787"><ele>213.4</ele><time>2026-04-23T06:27:47.126Z</time></trkpt><trkpt lat="46.0792716" lon="9.307301"><ele>213.0</ele><time>2026-04-23T06:27:49.126Z</time></trkpt><trkpt lat="46.0793191" lon="9.3074119"><ele>212.8</ele><time>2026-04-23T06:27:51.126Z</time></trkpt><trkpt lat="46.0793786" lon="9.3075321"><ele>212.60000000000002</ele><time>2026-04-23T06:27:53.127Z</time></trkpt><trkpt lat="46.0794411" lon="9.3076459"><ele>212.39999999999998</ele><time>2026-04-23T06:27:55.127Z</time></trkpt><trkpt lat="46.0794952" lon="9.3077707"><ele>212.2</ele><time>2026-04-23T06:27:57.126Z</time></trkpt><trkpt lat="46.0795524" lon="9.3078708"><ele>212.0</ele><time>2026-04-23T06:27:59.127Z</time></trkpt><trkpt lat="46.0796157" lon="9.307993"><ele>213.0</ele><time>2026-04-23T06:28:01.126Z</time></trkpt><trkpt lat="46.0796763" lon="9.3081056"><ele>214.0</ele><time>2026-04-23T06:28:03.127Z</time></trkpt><trkpt lat="46.0797307" lon="9.308219"><ele>215.0</ele><time>2026-04-23T06:28:05.127Z</time></trkpt><trkpt lat="46.0797917" lon="9.3083519"><ele>216.0</ele><time>2026-04-23T06:28:07.126Z</time></trkpt><trkpt lat="46.0798311" lon="9.3084251"><ele>217.0</ele><time>2026-04-23T06:28:08.127Z</time></trkpt><trkpt lat="46.0798969" lon="9.3085513"><ele>216.39999999999998</ele><time>2026-04-23T06:28:10.127Z</time></trkpt><trkpt lat="46.0799517" lon="9.3086672"><ele>215.79999999999998</ele><time>2026-04-23T06:28:12.126Z</time></trkpt><trkpt lat="46.0800139" lon="9.3087796"><ele>215.2</ele><time>2026-04-23T06:28:14.126Z</time></trkpt><trkpt lat="46.0800733" lon="9.3088974"><ele>214.6</ele><time>2026-04-23T06:28:16.127Z</time></trkpt><trkpt lat="46.0801317" lon="9.3090112"><ele>214.0</ele><time>2026-04-23T06:28:18.127Z</time></trkpt><trkpt lat="46.0801914" lon="9.3091379"><ele>214.0</ele><time>2026-04-23T06:28:20.127Z</time></trkpt><trkpt lat="46.0802473" lon="9.3092642"><ele>213.99999999999997</ele><time>2026-04-23T06:28:22.127Z</time></trkpt><trkpt lat="46.0802998" lon="9.3093743"><ele>213.99999999999997</ele><time>2026-04-23T06:28:24.127Z</time></trkpt><trkpt lat="46.0803522" lon="9.3094895"><ele>214.0</ele><time>2026-04-23T06:28:26.127Z</time></trkpt><trkpt lat="46.0804001" lon="9.309607"><ele>214.0</ele><time>2026-04-23T06:28:28.126Z</time></trkpt><trkpt lat="46.0804506" lon="9.3097276"><ele>216.39999999999998</ele><time>2026-04-23T06:28:30.127Z</time></trkpt><trkpt lat="46.0805008" lon="9.3098481"><ele>218.79999999999998</ele><time>2026-04-23T06:28:32.127Z</time></trkpt><trkpt lat="46.0805583" lon="9.3099708"><ele>221.20000000000002</ele><time>2026-04-23T06:28:34.127Z</time></trkpt><trkpt lat="46.0806208" lon="9.3100953"><ele>223.60000000000002</ele><time>2026-04-23T06:28:36.127Z</time></trkpt><trkpt lat="46.0806825" lon="9.3102096"><ele>226.0</ele><time>2026-04-23T06:28:38.126Z</time></trkpt><trkpt lat="46.0807459" lon="9.310309"><ele>225.20000000000002</ele><time>2026-04-23T06:28:40.126Z</time></trkpt><trkpt lat="46.0808229" lon="9.3104041"><ele>224.40000000000003</ele><time>2026-04-23T06:28:42.125Z</time></trkpt><trkpt lat="46.0809087" lon="9.3104987"><ele>223.6</ele><time>2026-04-23T06:28:44.126Z</time></trkpt><trkpt lat="46.0809941" lon="9.3105861"><ele>222.8</ele><time>2026-04-23T06:28:46.127Z</time></trkpt><trkpt lat="46.0810822" lon="9.3106636"><ele>222.0</ele><time>2026-04-23T06:28:48.127Z</time></trkpt><trkpt lat="46.0811663" lon="9.310729"><ele>222.0</ele><time>2026-04-23T06:28:50.128Z</time></trkpt><trkpt lat="46.0812522" lon="9.310781"><ele>222.0</ele><time>2026-04-23T06:28:52.125Z</time></trkpt><trkpt lat="46.0813361" lon="9.3108195"><ele>222.0</ele><time>2026-04-23T06:28:54.126Z</time></trkpt><trkpt lat="46.0814491" lon="9.3108625"><ele>222.0</ele><time>2026-04-23T06:28:56.126Z</time></trkpt><trkpt lat="46.0815661" lon="9.3108955"><ele>222.0</ele><time>2026-04-23T06:28:58.126Z</time></trkpt><trkpt lat="46.0816822" lon="9.3109269"><ele>220.2</ele><time>2026-04-23T06:29:00.126Z</time></trkpt><trkpt lat="46.0818029" lon="9.3109467"><ele>218.39999999999998</ele><time>2026-04-23T06:29:02.126Z</time></trkpt><trkpt lat="46.0818673" lon="9.3109568"><ele>216.60000000000002</ele><time>2026-04-23T06:29:03.125Z</time></trkpt><trkpt lat="46.0819885" lon="9.3109748"><ele>214.8</ele><time>2026-04-23T06:29:05.126Z</time></trkpt><trkpt lat="46.0821032" lon="9.3109972"><ele>213.0</ele><time>2026-04-23T06:29:07.126Z</time></trkpt><trkpt lat="46.0822212" lon="9.3110459"><ele>213.0</ele><time>2026-04-23T06:29:09.126Z</time></trkpt><trkpt lat="46.0822813" lon="9.3110739"><ele>213.0</ele><time>2026-04-23T06:29:10.126Z</time></trkpt><trkpt lat="46.0823399" lon="9.3111207"><ele>213.0</ele><time>2026-04-23T06:29:11.127Z</time></trkpt><trkpt lat="46.0823978" lon="9.3111568"><ele>213.0</ele><time>2026-04-23T06:29:12.127Z</time></trkpt><trkpt lat="46.0824954" lon="9.3112448"><ele>213.0</ele><time>2026-04-23T06:29:14.126Z</time></trkpt><trkpt lat="46.0826075" lon="9.3113327"><ele>213.0</ele><time>2026-04-23T06:29:16.127Z</time></trkpt><trkpt lat="46.082725" lon="9.3113478"><ele>211.60000000000002</ele><time>2026-04-23T06:29:18.127Z</time></trkpt><trkpt lat="46.0827889" lon="9.3113417"><ele>210.20000000000002</ele><time>2026-04-23T06:29:19.126Z</time></trkpt><trkpt lat="46.0829042" lon="9.3113234"><ele>208.8</ele><time>2026-04-23T06:29:21.126Z</time></trkpt><trkpt lat="46.0830207" lon="9.3113075"><ele>207.4</ele><time>2026-04-23T06:29:23.127Z</time></trkpt><trkpt lat="46.0831346" lon="9.3112799"><ele>206.0</ele><time>2026-04-23T06:29:25.126Z</time></trkpt><trkpt lat="46.0832516" lon="9.311248"><ele>207.25</ele><time>2026-04-23T06:29:27.127Z</time></trkpt><trkpt lat="46.0833667" lon="9.3112116"><ele>208.5</ele><time>2026-04-23T06:29:29.127Z</time></trkpt><trkpt lat="46.083486" lon="9.311185"><ele>209.75</ele><time>2026-04-23T06:29:31.126Z</time></trkpt><trkpt lat="46.0836033" lon="9.3111756"><ele>211.0</ele><time>2026-04-23T06:29:33.127Z</time></trkpt><trkpt lat="46.0837123" lon="9.3111484"><ele>211.0</ele><time>2026-04-23T06:29:35.127Z</time></trkpt><trkpt lat="46.0838215" lon="9.3111188"><ele>211.0</ele><time>2026-04-23T06:29:37.127Z</time></trkpt><trkpt lat="46.0839387" lon="9.3110923"><ele>211.0</ele><time>2026-04-23T06:29:39.127Z</time></trkpt><trkpt lat="46.0840512" lon="9.3110616"><ele>211.0</ele><time>2026-04-23T06:29:41.126Z</time></trkpt><trkpt lat="46.0841616" lon="9.3110108"><ele>212.75</ele><time>2026-04-23T06:29:43.126Z</time></trkpt><trkpt lat="46.084277" lon="9.3110005"><ele>214.5</ele><time>2026-04-23T06:29:45.127Z</time></trkpt><trkpt lat="46.0843874" lon="9.3109796"><ele>216.25</ele><time>2026-04-23T06:29:47.126Z</time></trkpt><trkpt lat="46.0844974" lon="9.310922"><ele>218.0</ele><time>2026-04-23T06:29:49.127Z</time></trkpt><trkpt lat="46.0846089" lon="9.3108731"><ele>218.0</ele><time>2026-04-23T06:29:51.127Z</time></trkpt><trkpt lat="46.0847205" lon="9.3108266"><ele>218.0</ele><time>2026-04-23T06:29:53.126Z</time></trkpt><trkpt lat="46.0848298" lon="9.31077"><ele>218.0</ele><time>2026-04-23T06:29:55.128Z</time></trkpt><trkpt lat="46.0849384" lon="9.3107312"><ele>218.0</ele><time>2026-04-23T06:29:57.126Z</time></trkpt><trkpt lat="46.085048" lon="9.3106758"><ele>218.60000000000002</ele><time>2026-04-23T06:29:59.126Z</time></trkpt><trkpt lat="46.0851549" lon="9.3106221"><ele>219.20000000000002</ele><time>2026-04-23T06:30:01.126Z</time></trkpt><trkpt lat="46.0852578" lon="9.3105583"><ele>219.8</ele><time>2026-04-23T06:30:03.126Z</time></trkpt><trkpt lat="46.0853674" lon="9.3105146"><ele>220.4</ele><time>2026-04-23T06:30:05.127Z</time></trkpt><trkpt lat="46.0854726" lon="9.3104661"><ele>221.0</ele><time>2026-04-23T06:30:07.127Z</time></trkpt><trkpt lat="46.0855683" lon="9.3104264"><ele>218.0</ele><time>2026-04-23T06:30:09.127Z</time></trkpt><trkpt lat="46.0856562" lon="9.3103794"><ele>215.00000000000003</ele><time>2026-04-23T06:30:11.126Z</time></trkpt><trkpt lat="46.0857459" lon="9.3103428"><ele>212.0</ele><time>2026-04-23T06:30:13.126Z</time></trkpt><trkpt lat="46.0858373" lon="9.3103202"><ele>209.0</ele><time>2026-04-23T06:30:15.126Z</time></trkpt><trkpt lat="46.0859245" lon="9.3102889"><ele>206.0</ele><time>2026-04-23T06:30:17.127Z</time></trkpt><trkpt lat="46.0860103" lon="9.3102606"><ele>206.00000000000003</ele><time>2026-04-23T06:30:19.126Z</time></trkpt><trkpt lat="46.0860934" lon="9.3102399"><ele>206.0</ele><time>2026-04-23T06:30:21.127Z</time></trkpt><trkpt lat="46.0861755" lon="9.3102196"><ele>206.0</ele><time>2026-04-23T06:30:23.126Z</time></trkpt><trkpt lat="46.0862441" lon="9.3102016"><ele>206.0</ele><time>2026-04-23T06:30:25.127Z</time></trkpt><trkpt lat="46.0863358" lon="9.3101774"><ele>206.00000000000003</ele><time>2026-04-23T06:30:27.126Z</time></trkpt><trkpt lat="46.0864129" lon="9.3102047"><ele>206.0</ele><time>2026-04-23T06:30:28.073Z</time></trkpt><trkpt lat="46.0865524" lon="9.3101432"><ele>208.4</ele><time>2026-04-23T06:30:32.477Z</time></trkpt><trkpt lat="46.0866594" lon="9.3101257"><ele>210.8</ele><time>2026-04-23T06:30:34.773Z</time></trkpt><trkpt lat="46.0867641" lon="9.3101284"><ele>213.20000000000002</ele><time>2026-04-23T06:30:37.126Z</time></trkpt><trkpt lat="46.0868527" lon="9.3101131"><ele>215.60000000000002</ele><time>2026-04-23T06:30:39.126Z</time></trkpt><trkpt lat="46.086938" lon="9.3100835"><ele>218.0</ele><time>2026-04-23T06:30:41.127Z</time></trkpt><trkpt lat="46.0870163" lon="9.3100717"><ele>218.00000000000003</ele><time>2026-04-23T06:30:43.128Z</time></trkpt><trkpt lat="46.08712" lon="9.3100945"><ele>218.0</ele><time>2026-04-23T06:30:46.128Z</time></trkpt><trkpt lat="46.0872057" lon="9.3101238"><ele>218.0</ele><time>2026-04-23T06:30:48.127Z</time></trkpt><trkpt lat="46.0872754" lon="9.3101738"><ele>218.0</ele><time>2026-04-23T06:30:50.128Z</time></trkpt><trkpt lat="46.0873423" lon="9.3102308"><ele>218.00000000000003</ele><time>2026-04-23T06:30:52.126Z</time></trkpt><trkpt lat="46.087409" lon="9.3102844"><ele>218.0</ele><time>2026-04-23T06:30:54.126Z</time></trkpt><trkpt lat="46.0874768" lon="9.3103334"><ele>217.16666666666669</ele><time>2026-04-23T06:30:56.127Z</time></trkpt><trkpt lat="46.0875418" lon="9.3103827"><ele>216.33333333333334</ele><time>2026-04-23T06:30:58.106Z</time></trkpt><trkpt lat="46.0876055" lon="9.3104288"><ele>215.5</ele><time>2026-04-23T06:31:00.127Z</time></trkpt><trkpt lat="46.0876679" lon="9.3104833"><ele>214.66666666666669</ele><time>2026-04-23T06:31:02.126Z</time></trkpt><trkpt lat="46.0877545" lon="9.3105565"><ele>213.83333333333334</ele><time>2026-04-23T06:31:05.125Z</time></trkpt><trkpt lat="46.0878132" lon="9.3106121"><ele>213.0</ele><time>2026-04-23T06:31:07.126Z</time></trkpt><trkpt lat="46.0878755" lon="9.3106651"><ele>215.16666666666666</ele><time>2026-04-23T06:31:09.127Z</time></trkpt><trkpt lat="46.0879401" lon="9.3107296"><ele>217.33333333333331</ele><time>2026-04-23T06:31:11.231Z</time></trkpt><trkpt lat="46.0880235" lon="9.3108217"><ele>219.5</ele><time>2026-04-23T06:31:14.063Z</time></trkpt><trkpt lat="46.0880801" lon="9.31088"><ele>221.66666666666666</ele><time>2026-04-23T06:31:16.22Z</time></trkpt><trkpt lat="46.0881527" lon="9.3109567"><ele>223.83333333333331</ele><time>2026-04-23T06:31:19.225Z</time></trkpt><trkpt lat="46.0882419" lon="9.3110092"><ele>226.0</ele><time>2026-04-23T06:31:22.128Z</time></trkpt><trkpt lat="46.0883061" lon="9.311046"><ele>226.0</ele><time>2026-04-23T06:31:24.127Z</time></trkpt><trkpt lat="46.0883712" lon="9.3110897"><ele>226.0</ele><time>2026-04-23T06:31:26.065Z</time></trkpt><trkpt lat="46.0884318" lon="9.3111493"><ele>226.0</ele><time>2026-04-23T06:31:28.237Z</time></trkpt><trkpt lat="46.0884833" lon="9.3112044"><ele>226.0</ele><time>2026-04-23T06:31:30.213Z</time></trkpt><trkpt lat="46.0885391" lon="9.3112618"><ele>226.0</ele><time>2026-04-23T06:31:32.128Z</time></trkpt><trkpt lat="46.0886049" lon="9.3113187"><ele>226.0</ele><time>2026-04-23T06:31:34.125Z</time></trkpt><trkpt lat="46.0886674" lon="9.3113661"><ele>226.0</ele><time>2026-04-23T06:31:36.127Z</time></trkpt><trkpt lat="46.0887361" lon="9.3114131"><ele>228.14285714285717</ele><time>2026-04-23T06:31:38.212Z</time></trkpt><trkpt lat="46.0888" lon="9.3114261"><ele>230.28571428571428</ele><time>2026-04-23T06:31:40.127Z</time></trkpt><trkpt lat="46.0888653" lon="9.3114445"><ele>232.42857142857144</ele><time>2026-04-23T06:31:42.126Z</time></trkpt><trkpt lat="46.0889306" lon="9.3114645"><ele>234.57142857142858</ele><time>2026-04-23T06:31:44.147Z</time></trkpt><trkpt lat="46.0890185" lon="9.3114978"><ele>236.71428571428572</ele><time>2026-04-23T06:31:47.127Z</time></trkpt><trkpt lat="46.0890869" lon="9.311504"><ele>238.85714285714286</ele><time>2026-04-23T06:31:49.127Z</time></trkpt><trkpt lat="46.0891601" lon="9.3115056"><ele>241.0</ele><time>2026-04-23T06:31:51.127Z</time></trkpt><trkpt lat="46.0892406" lon="9.3114937"><ele>240.99999999999997</ele><time>2026-04-23T06:31:53.128Z</time></trkpt><trkpt lat="46.0893363" lon="9.3114654"><ele>241.0</ele><time>2026-04-23T06:31:56.127Z</time></trkpt><trkpt lat="46.0894207" lon="9.3114594"><ele>241.0</ele><time>2026-04-23T06:31:58.127Z</time></trkpt><trkpt lat="46.0894896" lon="9.3114494"><ele>241.0</ele><time>2026-04-23T06:32:00.127Z</time></trkpt><trkpt lat="46.0895727" lon="9.3114549"><ele>240.99999999999997</ele><time>2026-04-23T06:32:02.126Z</time></trkpt><trkpt lat="46.0896491" lon="9.3114847"><ele>241.0</ele><time>2026-04-23T06:32:04.127Z</time></trkpt><trkpt lat="46.0897604" lon="9.311511"><ele>240.99999999999997</ele><time>2026-04-23T06:32:06.128Z</time></trkpt><trkpt lat="46.0898706" lon="9.3115453"><ele>241.0</ele><time>2026-04-23T06:32:08.126Z</time></trkpt><trkpt lat="46.0899355" lon="9.3115679"><ele>241.0</ele><time>2026-04-23T06:32:09.127Z</time></trkpt><trkpt lat="46.0900523" lon="9.3115917"><ele>241.0</ele><time>2026-04-23T06:32:11.127Z</time></trkpt><trkpt lat="46.0901283" lon="9.3116094"><ele>240.99999999999997</ele><time>2026-04-23T06:32:12.127Z</time></trkpt><trkpt lat="46.0901971" lon="9.3116423"><ele>241.0</ele><time>2026-04-23T06:32:13.128Z</time></trkpt><trkpt lat="46.0902979" lon="9.3116608"><ele>241.16666666666666</ele><time>2026-04-23T06:32:15.127Z</time></trkpt><trkpt lat="46.0903999" lon="9.3117276"><ele>241.33333333333331</ele><time>2026-04-23T06:32:16.127Z</time></trkpt><trkpt lat="46.0904653" lon="9.3117449"><ele>241.5</ele><time>2026-04-23T06:32:17.127Z</time></trkpt><trkpt lat="46.09053" lon="9.3117709"><ele>241.66666666666669</ele><time>2026-04-23T06:32:18.127Z</time></trkpt><trkpt lat="46.0906254" lon="9.3118249"><ele>241.83333333333334</ele><time>2026-04-23T06:32:19.128Z</time></trkpt><trkpt lat="46.0907026" lon="9.3118547"><ele>242.0</ele><time>2026-04-23T06:32:20.127Z</time></trkpt><trkpt lat="46.0907612" lon="9.3119092"><ele>238.83333333333334</ele><time>2026-04-23T06:32:21.127Z</time></trkpt><trkpt lat="46.090811" lon="9.3119739"><ele>235.66666666666669</ele><time>2026-04-23T06:32:22.127Z</time></trkpt><trkpt lat="46.0908737" lon="9.3120419"><ele>232.5</ele><time>2026-04-23T06:32:23.127Z</time></trkpt><trkpt lat="46.0909317" lon="9.3121134"><ele>229.33333333333331</ele><time>2026-04-23T06:32:24.128Z</time></trkpt><trkpt lat="46.0909937" lon="9.3121828"><ele>226.16666666666666</ele><time>2026-04-23T06:32:25.126Z</time></trkpt><trkpt lat="46.0910505" lon="9.3122622"><ele>223.0</ele><time>2026-04-23T06:32:26.126Z</time></trkpt><trkpt lat="46.0911183" lon="9.3123303"><ele>229.99999999999997</ele><time>2026-04-23T06:32:27.126Z</time></trkpt><trkpt lat="46.0911946" lon="9.3123964"><ele>237.0</ele><time>2026-04-23T06:32:28.127Z</time></trkpt><trkpt lat="46.0912757" lon="9.3124895"><ele>244.0</ele><time>2026-04-23T06:32:29.126Z</time></trkpt><trkpt lat="46.0913497" lon="9.3125373"><ele>251.0</ele><time>2026-04-23T06:32:30.127Z</time></trkpt><trkpt lat="46.091425" lon="9.3125746"><ele>258.0</ele><time>2026-04-23T06:32:31.127Z</time></trkpt><trkpt lat="46.0915053" lon="9.3126102"><ele>265.0</ele><time>2026-04-23T06:32:32.127Z</time></trkpt><trkpt lat="46.0915804" lon="9.3126406"><ele>258.5</ele><time>2026-04-23T06:32:33.126Z</time></trkpt><trkpt lat="46.0916578" lon="9.3126731"><ele>252.0</ele><time>2026-04-23T06:32:34.128Z</time></trkpt><trkpt lat="46.0917373" lon="9.3127072"><ele>245.5</ele><time>2026-04-23T06:32:35.128Z</time></trkpt><trkpt lat="46.0918122" lon="9.3127443"><ele>239.0</ele><time>2026-04-23T06:32:36.126Z</time></trkpt><trkpt lat="46.0918829" lon="9.3127855"><ele>232.49999999999997</ele><time>2026-04-23T06:32:37.128Z</time></trkpt><trkpt lat="46.0919531" lon="9.31283"><ele>226.0</ele><time>2026-04-23T06:32:38.128Z</time></trkpt><trkpt lat="46.0920208" lon="9.3128751"><ele>225.99999999999997</ele><time>2026-04-23T06:32:39.127Z</time></trkpt><trkpt lat="46.0920925" lon="9.3129303"><ele>226.0</ele><time>2026-04-23T06:32:40.127Z</time></trkpt><trkpt lat="46.0921639" lon="9.3129899"><ele>226.0</ele><time>2026-04-23T06:32:41.127Z</time></trkpt><trkpt lat="46.0922388" lon="9.3130431"><ele>226.0</ele><time>2026-04-23T06:32:42.126Z</time></trkpt><trkpt lat="46.0923124" lon="9.3130953"><ele>225.99999999999997</ele><time>2026-04-23T06:32:43.127Z</time></trkpt><trkpt lat="46.0923822" lon="9.3131494"><ele>226.0</ele><time>2026-04-23T06:32:44.128Z</time></trkpt><trkpt lat="46.0924572" lon="9.3132056"><ele>226.33333333333331</ele><time>2026-04-23T06:32:45.127Z</time></trkpt><trkpt lat="46.0925358" lon="9.3132607"><ele>226.66666666666666</ele><time>2026-04-23T06:32:46.126Z</time></trkpt><trkpt lat="46.0926162" lon="9.3133147"><ele>227.0</ele><time>2026-04-23T06:32:47.127Z</time></trkpt><trkpt lat="46.0926934" lon="9.3133685"><ele>227.33333333333331</ele><time>2026-04-23T06:32:48.127Z</time></trkpt><trkpt lat="46.092766" lon="9.3134231"><ele>227.66666666666666</ele><time>2026-04-23T06:32:49.127Z</time></trkpt><trkpt lat="46.0928413" lon="9.3134741"><ele>228.0</ele><time>2026-04-23T06:32:50.128Z</time></trkpt><trkpt lat="46.092915" lon="9.3135253"><ele>228.0</ele><time>2026-04-23T06:32:51.128Z</time></trkpt><trkpt lat="46.0929896" lon="9.3135914"><ele>228.0</ele><time>2026-04-23T06:32:52.128Z</time></trkpt><trkpt lat="46.0930582" lon="9.3136534"><ele>228.0</ele><time>2026-04-23T06:32:53.126Z</time></trkpt><trkpt lat="46.0931299" lon="9.3137096"><ele>228.0</ele><time>2026-04-23T06:32:54.126Z</time></trkpt><trkpt lat="46.0931968" lon="9.3137751"><ele>228.0</ele><time>2026-04-23T06:32:55.126Z</time></trkpt><trkpt lat="46.0932624" lon="9.3138348"><ele>228.0</ele><time>2026-04-23T06:32:56.127Z</time></trkpt><trkpt lat="46.0933277" lon="9.3138957"><ele>228.83333333333334</ele><time>2026-04-23T06:32:57.129Z</time></trkpt><trkpt lat="46.0933915" lon="9.3139559"><ele>229.66666666666669</ele><time>2026-04-23T06:32:58.127Z</time></trkpt><trkpt lat="46.0934563" lon="9.3140114"><ele>230.5</ele><time>2026-04-23T06:32:59.128Z</time></trkpt><trkpt lat="46.0935175" lon="9.3140676"><ele>231.33333333333334</ele><time>2026-04-23T06:33:00.128Z</time></trkpt><trkpt lat="46.0935846" lon="9.314135"><ele>232.16666666666669</ele><time>2026-04-23T06:33:01.127Z</time></trkpt><trkpt lat="46.0936488" lon="9.3141967"><ele>233.0</ele><time>2026-04-23T06:33:02.127Z</time></trkpt><trkpt lat="46.09371" lon="9.3142598"><ele>233.0</ele><time>2026-04-23T06:33:03.126Z</time></trkpt><trkpt lat="46.093768" lon="9.3143242"><ele>233.0</ele><time>2026-04-23T06:33:04.127Z</time></trkpt><trkpt lat="46.0938239" lon="9.3143907"><ele>233.0</ele><time>2026-04-23T06:33:05.128Z</time></trkpt><trkpt lat="46.0938751" lon="9.3144624"><ele>233.0</ele><time>2026-04-23T06:33:06.127Z</time></trkpt><trkpt lat="46.0939238" lon="9.3145409"><ele>233.0</ele><time>2026-04-23T06:33:07.128Z</time></trkpt><trkpt lat="46.0939728" lon="9.3146189"><ele>233.0</ele><time>2026-04-23T06:33:08.128Z</time></trkpt><trkpt lat="46.0940246" lon="9.3147008"><ele>233.0</ele><time>2026-04-23T06:33:09.126Z</time></trkpt><trkpt lat="46.0940812" lon="9.3147811"><ele>231.66666666666669</ele><time>2026-04-23T06:33:10.129Z</time></trkpt><trkpt lat="46.0941366" lon="9.3148643"><ele>230.33333333333334</ele><time>2026-04-23T06:33:11.126Z</time></trkpt><trkpt lat="46.0941892" lon="9.314942"><ele>229.0</ele><time>2026-04-23T06:33:12.127Z</time></trkpt><trkpt lat="46.0942427" lon="9.3150249"><ele>227.66666666666669</ele><time>2026-04-23T06:33:13.128Z</time></trkpt><trkpt lat="46.0942985" lon="9.3151065"><ele>226.33333333333334</ele><time>2026-04-23T06:33:14.126Z</time></trkpt><trkpt lat="46.0943507" lon="9.3151899"><ele>225.0</ele><time>2026-04-23T06:33:15.126Z</time></trkpt><trkpt lat="46.0944065" lon="9.3152776"><ele>225.00000000000003</ele><time>2026-04-23T06:33:16.127Z</time></trkpt><trkpt lat="46.0944582" lon="9.3153556"><ele>225.0</ele><time>2026-04-23T06:33:17.127Z</time></trkpt><trkpt lat="46.0945058" lon="9.3154308"><ele>225.00000000000003</ele><time>2026-04-23T06:33:18.126Z</time></trkpt><trkpt lat="46.0945536" lon="9.3155053"><ele>225.00000000000003</ele><time>2026-04-23T06:33:19.127Z</time></trkpt><trkpt lat="46.0946052" lon="9.3155785"><ele>225.0</ele><time>2026-04-23T06:33:20.127Z</time></trkpt><trkpt lat="46.0946557" lon="9.3156487"><ele>225.00000000000003</ele><time>2026-04-23T06:33:21.127Z</time></trkpt><trkpt lat="46.0947044" lon="9.3157194"><ele>225.00000000000003</ele><time>2026-04-23T06:33:22.129Z</time></trkpt><trkpt lat="46.0947516" lon="9.315793"><ele>224.00000000000003</ele><time>2026-04-23T06:33:23.127Z</time></trkpt><trkpt lat="46.0947985" lon="9.3158683"><ele>223.0</ele><time>2026-04-23T06:33:24.127Z</time></trkpt><trkpt lat="46.094845" lon="9.3159408"><ele>222.0</ele><time>2026-04-23T06:33:25.127Z</time></trkpt><trkpt lat="46.0948912" lon="9.3160147"><ele>221.0</ele><time>2026-04-23T06:33:26.128Z</time></trkpt><trkpt lat="46.0949369" lon="9.3160812"><ele>220.0</ele><time>2026-04-23T06:33:27.127Z</time></trkpt><trkpt lat="46.0949829" lon="9.3161444"><ele>219.0</ele><time>2026-04-23T06:33:28.126Z</time></trkpt><trkpt lat="46.0950308" lon="9.3162047"><ele>218.0</ele><time>2026-04-23T06:33:29.126Z</time></trkpt><trkpt lat="46.0950873" lon="9.3162591"><ele>218.00000000000003</ele><time>2026-04-23T06:33:30.127Z</time></trkpt><trkpt lat="46.0951452" lon="9.3163033"><ele>218.0</ele><time>2026-04-23T06:33:31.128Z</time></trkpt><trkpt lat="46.0952111" lon="9.316342"><ele>218.0</ele><time>2026-04-23T06:33:32.128Z</time></trkpt><trkpt lat="46.0952824" lon="9.3163755"><ele>218.0</ele><time>2026-04-23T06:33:33.127Z</time></trkpt><trkpt lat="46.0953518" lon="9.3164032"><ele>218.00000000000003</ele><time>2026-04-23T06:33:34.128Z</time></trkpt><trkpt lat="46.095492" lon="9.3164562"><ele>218.0</ele><time>2026-04-23T06:33:36.127Z</time></trkpt><trkpt lat="46.0955659" lon="9.316481"><ele>218.85714285714286</ele><time>2026-04-23T06:33:37.128Z</time></trkpt><trkpt lat="46.0956366" lon="9.3165028"><ele>219.71428571428572</ele><time>2026-04-23T06:33:38.128Z</time></trkpt><trkpt lat="46.0957045" lon="9.3165259"><ele>220.57142857142856</ele><time>2026-04-23T06:33:39.128Z</time></trkpt><trkpt lat="46.0957738" lon="9.3165495"><ele>221.42857142857144</ele><time>2026-04-23T06:33:40.127Z</time></trkpt><trkpt lat="46.0958434" lon="9.3165737"><ele>222.28571428571428</ele><time>2026-04-23T06:33:41.127Z</time></trkpt><trkpt lat="46.0959137" lon="9.3165968"><ele>223.14285714285714</ele><time>2026-04-23T06:33:42.128Z</time></trkpt><trkpt lat="46.0959831" lon="9.3166186"><ele>224.0</ele><time>2026-04-23T06:33:43.127Z</time></trkpt><trkpt lat="46.0960538" lon="9.316641"><ele>224.0</ele><time>2026-04-23T06:33:44.128Z</time></trkpt><trkpt lat="46.0961208" lon="9.3166584"><ele>224.0</ele><time>2026-04-23T06:33:45.127Z</time></trkpt><trkpt lat="46.096186" lon="9.3166767"><ele>224.0</ele><time>2026-04-23T06:33:46.126Z</time></trkpt><trkpt lat="46.0962525" lon="9.3166994"><ele>224.0</ele><time>2026-04-23T06:33:47.127Z</time></trkpt><trkpt lat="46.0963158" lon="9.3167211"><ele>224.0</ele><time>2026-04-23T06:33:48.128Z</time></trkpt><trkpt lat="46.0963795" lon="9.3167335"><ele>224.0</ele><time>2026-04-23T06:33:49.127Z</time></trkpt><trkpt lat="46.0964454" lon="9.316745"><ele>224.0</ele><time>2026-04-23T06:33:50.127Z</time></trkpt><trkpt lat="46.0965734" lon="9.3167442"><ele>223.71428571428572</ele><time>2026-04-23T06:33:52.128Z</time></trkpt><trkpt lat="46.0966368" lon="9.3167356"><ele>223.42857142857144</ele><time>2026-04-23T06:33:53.126Z</time></trkpt><trkpt lat="46.096701" lon="9.3167248"><ele>223.14285714285714</ele><time>2026-04-23T06:33:54.127Z</time></trkpt><trkpt lat="46.0967692" lon="9.3167069"><ele>222.85714285714286</ele><time>2026-04-23T06:33:55.127Z</time></trkpt><trkpt lat="46.0968334" lon="9.3166851"><ele>222.57142857142858</ele><time>2026-04-23T06:33:56.126Z</time></trkpt><trkpt lat="46.0968952" lon="9.3166607"><ele>222.28571428571428</ele><time>2026-04-23T06:33:57.127Z</time></trkpt><trkpt lat="46.0969584" lon="9.3166443"><ele>222.0</ele><time>2026-04-23T06:33:58.127Z</time></trkpt><trkpt lat="46.0970248" lon="9.316637"><ele>222.0</ele><time>2026-04-23T06:33:59.127Z</time></trkpt><trkpt lat="46.0970906" lon="9.3166328"><ele>222.0</ele><time>2026-04-23T06:34:00.128Z</time></trkpt><trkpt lat="46.0971583" lon="9.3166333"><ele>222.0</ele><time>2026-04-23T06:34:01.127Z</time></trkpt><trkpt lat="46.0972264" lon="9.3166411"><ele>222.0</ele><time>2026-04-23T06:34:02.126Z</time></trkpt><trkpt lat="46.0972932" lon="9.3166556"><ele>222.0</ele><time>2026-04-23T06:34:03.127Z</time></trkpt><trkpt lat="46.0973579" lon="9.3166854"><ele>222.0</ele><time>2026-04-23T06:34:04.127Z</time></trkpt><trkpt lat="46.097417" lon="9.3167172"><ele>222.0</ele><time>2026-04-23T06:34:05.126Z</time></trkpt><trkpt lat="46.0975274" lon="9.3167925"><ele>221.0</ele><time>2026-04-23T06:34:07.127Z</time></trkpt><trkpt lat="46.0975819" lon="9.316838"><ele>220.0</ele><time>2026-04-23T06:34:08.127Z</time></trkpt><trkpt lat="46.0976796" lon="9.3169328"><ele>219.0</ele><time>2026-04-23T06:34:10.128Z</time></trkpt><trkpt lat="46.0977825" lon="9.3170196"><ele>218.0</ele><time>2026-04-23T06:34:12.127Z</time></trkpt><trkpt lat="46.0978904" lon="9.3170979"><ele>217.0</ele><time>2026-04-23T06:34:14.128Z</time></trkpt><trkpt lat="46.098012" lon="9.3171509"><ele>216.99999999999997</ele><time>2026-04-23T06:34:16.127Z</time></trkpt><trkpt lat="46.098136" lon="9.3171634"><ele>217.0</ele><time>2026-04-23T06:34:18.127Z</time></trkpt><trkpt lat="46.0982451" lon="9.317175"><ele>217.0</ele><time>2026-04-23T06:34:20.129Z</time></trkpt><trkpt lat="46.0983182" lon="9.3171678"><ele>217.0</ele><time>2026-04-23T06:34:21.128Z</time></trkpt><trkpt lat="46.0983815" lon="9.3171679"><ele>216.99999999999997</ele><time>2026-04-23T06:34:22.127Z</time></trkpt><trkpt lat="46.0984451" lon="9.317165"><ele>217.0</ele><time>2026-04-23T06:34:23.127Z</time></trkpt><trkpt lat="46.0985672" lon="9.3171776"><ele>215.39999999999998</ele><time>2026-04-23T06:34:25.128Z</time></trkpt><trkpt lat="46.0986303" lon="9.3171802"><ele>213.79999999999998</ele><time>2026-04-23T06:34:26.127Z</time></trkpt><trkpt lat="46.0987528" lon="9.31718"><ele>212.2</ele><time>2026-04-23T06:34:28.128Z</time></trkpt><trkpt lat="46.0988623" lon="9.3171744"><ele>210.6</ele><time>2026-04-23T06:34:30.128Z</time></trkpt><trkpt lat="46.0989745" lon="9.317158"><ele>209.0</ele><time>2026-04-23T06:34:32.127Z</time></trkpt><trkpt lat="46.099088" lon="9.3171504"><ele>208.25</ele><time>2026-04-23T06:34:34.128Z</time></trkpt><trkpt lat="46.099197" lon="9.3171478"><ele>207.5</ele><time>2026-04-23T06:34:36.127Z</time></trkpt><trkpt lat="46.0993042" lon="9.3171559"><ele>206.75</ele><time>2026-04-23T06:34:38.127Z</time></trkpt><trkpt lat="46.0994159" lon="9.3171623"><ele>206.0</ele><time>2026-04-23T06:34:40.127Z</time></trkpt><trkpt lat="46.0995402" lon="9.3171716"><ele>206.0</ele><time>2026-04-23T06:34:42.127Z</time></trkpt><trkpt lat="46.0996556" lon="9.3171784"><ele>206.0</ele><time>2026-04-23T06:34:44.127Z</time></trkpt><trkpt lat="46.0997426" lon="9.3172067"><ele>206.0</ele><time>2026-04-23T06:34:46.127Z</time></trkpt><trkpt lat="46.0998491" lon="9.3172319"><ele>206.0</ele><time>2026-04-23T06:34:48.128Z</time></trkpt><trkpt lat="46.0999297" lon="9.3172572"><ele>206.0</ele><time>2026-04-23T06:34:50.127Z</time></trkpt><trkpt lat="46.1000383" lon="9.3173169"><ele>208.85714285714283</ele><time>2026-04-23T06:34:52.127Z</time></trkpt><trkpt lat="46.1001069" lon="9.3173478"><ele>211.71428571428572</ele><time>2026-04-23T06:34:53.128Z</time></trkpt><trkpt lat="46.1001847" lon="9.317382"><ele>214.57142857142856</ele><time>2026-04-23T06:34:54.128Z</time></trkpt><trkpt lat="46.1002446" lon="9.3174164"><ele>217.42857142857142</ele><time>2026-04-23T06:34:55.128Z</time></trkpt><trkpt lat="46.1003078" lon="9.3174571"><ele>220.28571428571428</ele><time>2026-04-23T06:34:56.128Z</time></trkpt><trkpt lat="46.1003697" lon="9.3175006"><ele>223.14285714285714</ele><time>2026-04-23T06:34:57.127Z</time></trkpt><trkpt lat="46.1004261" lon="9.3175424"><ele>226.0</ele><time>2026-04-23T06:34:58.129Z</time></trkpt><trkpt lat="46.100546" lon="9.3175993"><ele>226.0</ele><time>2026-04-23T06:35:00.128Z</time></trkpt><trkpt lat="46.1006075" lon="9.3176261"><ele>226.00000000000003</ele><time>2026-04-23T06:35:01.128Z</time></trkpt><trkpt lat="46.1007228" lon="9.317695"><ele>226.00000000000003</ele><time>2026-04-23T06:35:03.127Z</time></trkpt><trkpt lat="46.1007842" lon="9.3177374"><ele>226.0</ele><time>2026-04-23T06:35:04.128Z</time></trkpt><trkpt lat="46.1008501" lon="9.3177844"><ele>226.0</ele><time>2026-04-23T06:35:05.128Z</time></trkpt><trkpt lat="46.1009645" lon="9.3178572"><ele>226.85714285714286</ele><time>2026-04-23T06:35:07.127Z</time></trkpt><trkpt lat="46.1010228" lon="9.317901"><ele>227.71428571428572</ele><time>2026-04-23T06:35:08.127Z</time></trkpt><trkpt lat="46.1011248" lon="9.3179811"><ele>228.57142857142858</ele><time>2026-04-23T06:35:10.129Z</time></trkpt><trkpt lat="46.1011842" lon="9.318026"><ele>229.42857142857144</ele><time>2026-04-23T06:35:11.128Z</time></trkpt><trkpt lat="46.1012419" lon="9.3180664"><ele>230.28571428571428</ele><time>2026-04-23T06:35:12.127Z</time></trkpt><trkpt lat="46.1013002" lon="9.3181049"><ele>231.14285714285717</ele><time>2026-04-23T06:35:13.127Z</time></trkpt><trkpt lat="46.1013588" lon="9.3181403"><ele>232.00000000000003</ele><time>2026-04-23T06:35:14.127Z</time></trkpt><trkpt lat="46.1014702" lon="9.318217"><ele>232.0</ele><time>2026-04-23T06:35:16.127Z</time></trkpt><trkpt lat="46.1015275" lon="9.3182569"><ele>232.0</ele><time>2026-04-23T06:35:17.127Z</time></trkpt><trkpt lat="46.101632" lon="9.3183308"><ele>232.0</ele><time>2026-04-23T06:35:19.129Z</time></trkpt><trkpt lat="46.1017372" lon="9.3184274"><ele>232.0</ele><time>2026-04-23T06:35:21.127Z</time></trkpt><trkpt lat="46.1017902" lon="9.3184861"><ele>232.0</ele><time>2026-04-23T06:35:22.128Z</time></trkpt><trkpt lat="46.1018781" lon="9.3186141"><ele>232.99999999999997</ele><time>2026-04-23T06:35:24.127Z</time></trkpt><trkpt lat="46.1019578" lon="9.3187425"><ele>234.0</ele><time>2026-04-23T06:35:26.128Z</time></trkpt><trkpt lat="46.1019986" lon="9.3188124"><ele>235.0</ele><time>2026-04-23T06:35:27.127Z</time></trkpt><trkpt lat="46.102084" lon="9.3189469"><ele>236.0</ele><time>2026-04-23T06:35:29.129Z</time></trkpt><trkpt lat="46.1021296" lon="9.3190194"><ele>236.99999999999997</ele><time>2026-04-23T06:35:30.128Z</time></trkpt><trkpt lat="46.1021746" lon="9.3190849"><ele>238.0</ele><time>2026-04-23T06:35:31.128Z</time></trkpt><trkpt lat="46.1022208" lon="9.3191482"><ele>238.0</ele><time>2026-04-23T06:35:32.128Z</time></trkpt><trkpt lat="46.1022758" lon="9.3191961"><ele>238.0</ele><time>2026-04-23T06:35:33.129Z</time></trkpt><trkpt lat="46.1023679" lon="9.3192972"><ele>238.0</ele><time>2026-04-23T06:35:35.127Z</time></trkpt><trkpt lat="46.1024774" lon="9.3193995"><ele>238.0</ele><time>2026-04-23T06:35:37.128Z</time></trkpt><trkpt lat="46.1025361" lon="9.3194452"><ele>238.0</ele><time>2026-04-23T06:35:38.127Z</time></trkpt><trkpt lat="46.1026367" lon="9.31954"><ele>237.83333333333331</ele><time>2026-04-23T06:35:40.128Z</time></trkpt><trkpt lat="46.1026901" lon="9.3195915"><ele>237.66666666666666</ele><time>2026-04-23T06:35:41.127Z</time></trkpt><trkpt lat="46.1027488" lon="9.3196399"><ele>237.5</ele><time>2026-04-23T06:35:42.128Z</time></trkpt><trkpt lat="46.1028039" lon="9.3196848"><ele>237.33333333333331</ele><time>2026-04-23T06:35:43.127Z</time></trkpt><trkpt lat="46.10286" lon="9.3197269"><ele>237.16666666666666</ele><time>2026-04-23T06:35:44.128Z</time></trkpt><trkpt lat="46.102969" lon="9.3198113"><ele>237.0</ele><time>2026-04-23T06:35:46.127Z</time></trkpt><trkpt lat="46.1030277" lon="9.3198604"><ele>237.0</ele><time>2026-04-23T06:35:47.128Z</time></trkpt><trkpt lat="46.1030839" lon="9.3199153"><ele>237.0</ele><time>2026-04-23T06:35:48.128Z</time></trkpt><trkpt lat="46.103137" lon="9.3199738"><ele>237.0</ele><time>2026-04-23T06:35:49.128Z</time></trkpt><trkpt lat="46.1031914" lon="9.3200257"><ele>237.0</ele><time>2026-04-23T06:35:50.127Z</time></trkpt><trkpt lat="46.1032447" lon="9.3200751"><ele>237.0</ele><time>2026-04-23T06:35:51.127Z</time></trkpt><trkpt lat="46.1032894" lon="9.3201415"><ele>237.0</ele><time>2026-04-23T06:35:52.127Z</time></trkpt><trkpt lat="46.103381" lon="9.320263"><ele>237.8</ele><time>2026-04-23T06:35:54.128Z</time></trkpt><trkpt lat="46.1034373" lon="9.3203097"><ele>238.6</ele><time>2026-04-23T06:35:55.128Z</time></trkpt><trkpt lat="46.1035373" lon="9.3203942"><ele>239.40000000000003</ele><time>2026-04-23T06:35:57.128Z</time></trkpt><trkpt lat="46.1036355" lon="9.320486"><ele>240.20000000000002</ele><time>2026-04-23T06:35:59.128Z</time></trkpt><trkpt lat="46.1037338" lon="9.3205707"><ele>241.0</ele><time>2026-04-23T06:36:01.129Z</time></trkpt><trkpt lat="46.103839" lon="9.320659"><ele>241.0</ele><time>2026-04-23T06:36:03.128Z</time></trkpt><trkpt lat="46.1039442" lon="9.3207458"><ele>241.00000000000003</ele><time>2026-04-23T06:36:05.127Z</time></trkpt><trkpt lat="46.1040451" lon="9.320828"><ele>241.00000000000003</ele><time>2026-04-23T06:36:07.128Z</time></trkpt><trkpt lat="46.1040996" lon="9.3208742"><ele>241.0</ele><time>2026-04-23T06:36:08.129Z</time></trkpt><trkpt lat="46.1042138" lon="9.3209481"><ele>241.0</ele><time>2026-04-23T06:36:10.128Z</time></trkpt><trkpt lat="46.1043251" lon="9.3210191"><ele>236.0</ele><time>2026-04-23T06:36:12.127Z</time></trkpt><trkpt lat="46.104442" lon="9.3210657"><ele>231.0</ele><time>2026-04-23T06:36:14.128Z</time></trkpt><trkpt lat="46.1045572" lon="9.3211266"><ele>226.0</ele><time>2026-04-23T06:36:16.127Z</time></trkpt><trkpt lat="46.1046668" lon="9.3211873"><ele>221.0</ele><time>2026-04-23T06:36:18.127Z</time></trkpt><trkpt lat="46.1047765" lon="9.3212292"><ele>221.0</ele><time>2026-04-23T06:36:20.128Z</time></trkpt><trkpt lat="46.1048873" lon="9.3212392"><ele>221.00000000000003</ele><time>2026-04-23T06:36:22.127Z</time></trkpt><trkpt lat="46.1049887" lon="9.3212334"><ele>221.00000000000003</ele><time>2026-04-23T06:36:24.127Z</time></trkpt><trkpt lat="46.1050913" lon="9.321205"><ele>221.0</ele><time>2026-04-23T06:36:26.127Z</time></trkpt><trkpt lat="46.1051951" lon="9.3211714"><ele>221.0</ele><time>2026-04-23T06:36:28.127Z</time></trkpt><trkpt lat="46.1053025" lon="9.3211219"><ele>220.8</ele><time>2026-04-23T06:36:30.127Z</time></trkpt><trkpt lat="46.105417" lon="9.3210702"><ele>220.60000000000002</ele><time>2026-04-23T06:36:32.127Z</time></trkpt><trkpt lat="46.1055219" lon="9.3210249"><ele>220.4</ele><time>2026-04-23T06:36:34.128Z</time></trkpt><trkpt lat="46.1056154" lon="9.320984"><ele>220.2</ele><time>2026-04-23T06:36:36.129Z</time></trkpt><trkpt lat="46.1057072" lon="9.3209541"><ele>220.0</ele><time>2026-04-23T06:36:38.128Z</time></trkpt><trkpt lat="46.1058082" lon="9.3209266"><ele>219.0</ele><time>2026-04-23T06:36:40.128Z</time></trkpt><trkpt lat="46.1059112" lon="9.3208852"><ele>218.0</ele><time>2026-04-23T06:36:42.127Z</time></trkpt><trkpt lat="46.1060133" lon="9.3208395"><ele>217.0</ele><time>2026-04-23T06:36:44.128Z</time></trkpt><trkpt lat="46.106109" lon="9.3207907"><ele>216.0</ele><time>2026-04-23T06:36:46.127Z</time></trkpt><trkpt lat="46.1062064" lon="9.3207536"><ele>215.0</ele><time>2026-04-23T06:36:48.128Z</time></trkpt><trkpt lat="46.1062984" lon="9.320707"><ele>215.0</ele><time>2026-04-23T06:36:50.128Z</time></trkpt><trkpt lat="46.1063924" lon="9.3206507"><ele>215.0</ele><time>2026-04-23T06:36:52.128Z</time></trkpt><trkpt lat="46.1064769" lon="9.3205788"><ele>215.0</ele><time>2026-04-23T06:36:54.129Z</time></trkpt><trkpt lat="46.106562" lon="9.3204943"><ele>215.0</ele><time>2026-04-23T06:36:56.128Z</time></trkpt><trkpt lat="46.1066494" lon="9.320421"><ele>215.0</ele><time>2026-04-23T06:36:58.129Z</time></trkpt><trkpt lat="46.106733" lon="9.320358"><ele>214.8</ele><time>2026-04-23T06:37:00.128Z</time></trkpt><trkpt lat="46.106813" lon="9.3202949"><ele>214.6</ele><time>2026-04-23T06:37:02.127Z</time></trkpt><trkpt lat="46.1068976" lon="9.3202295"><ele>214.39999999999998</ele><time>2026-04-23T06:37:04.128Z</time></trkpt><trkpt lat="46.106986" lon="9.3201564"><ele>214.2</ele><time>2026-04-23T06:37:06.128Z</time></trkpt><trkpt lat="46.1070707" lon="9.3201039"><ele>214.0</ele><time>2026-04-23T06:37:08.128Z</time></trkpt><trkpt lat="46.1071605" lon="9.3200639"><ele>213.99999999999997</ele><time>2026-04-23T06:37:10.128Z</time></trkpt><trkpt lat="46.1072505" lon="9.3200172"><ele>214.0</ele><time>2026-04-23T06:37:12.128Z</time></trkpt><trkpt lat="46.1073364" lon="9.3199868"><ele>214.0</ele><time>2026-04-23T06:37:14.127Z</time></trkpt><trkpt lat="46.1074147" lon="9.3199568"><ele>214.0</ele><time>2026-04-23T06:37:16.128Z</time></trkpt><trkpt lat="46.107503" lon="9.3199292"><ele>213.99999999999997</ele><time>2026-04-23T06:37:18.128Z</time></trkpt><trkpt lat="46.1075912" lon="9.3199304"><ele>214.0</ele><time>2026-04-23T06:37:20.127Z</time></trkpt><trkpt lat="46.1076726" lon="9.3199387"><ele>216.6</ele><time>2026-04-23T06:37:22.127Z</time></trkpt><trkpt lat="46.1077818" lon="9.3199475"><ele>219.2</ele><time>2026-04-23T06:37:24.129Z</time></trkpt><trkpt lat="46.1078669" lon="9.3199162"><ele>221.79999999999998</ele><time>2026-04-23T06:37:26.127Z</time></trkpt><trkpt lat="46.1079573" lon="9.3198837"><ele>224.39999999999998</ele><time>2026-04-23T06:37:28.128Z</time></trkpt><trkpt lat="46.108047" lon="9.3198534"><ele>227.0</ele><time>2026-04-23T06:37:30.127Z</time></trkpt><trkpt lat="46.108131" lon="9.31983"><ele>227.0</ele><time>2026-04-23T06:37:32.127Z</time></trkpt><trkpt lat="46.108213" lon="9.3197791"><ele>227.0</ele><time>2026-04-23T06:37:34.128Z</time></trkpt><trkpt lat="46.1083029" lon="9.319705"><ele>227.0</ele><time>2026-04-23T06:37:36.127Z</time></trkpt><trkpt lat="46.1084028" lon="9.3196472"><ele>227.0</ele><time>2026-04-23T06:37:38.128Z</time></trkpt><trkpt lat="46.1085021" lon="9.3196599"><ele>227.0</ele><time>2026-04-23T06:37:40.127Z</time></trkpt><trkpt lat="46.1085926" lon="9.3196521"><ele>227.0</ele><time>2026-04-23T06:37:42.129Z</time></trkpt><trkpt lat="46.1086772" lon="9.3196553"><ele>227.0</ele><time>2026-04-23T06:37:44.128Z</time></trkpt><trkpt lat="46.1087573" lon="9.3196333"><ele>227.0</ele><time>2026-04-23T06:37:46.129Z</time></trkpt><trkpt lat="46.108854" lon="9.3195976"><ele>227.0</ele><time>2026-04-23T06:37:49.128Z</time></trkpt><trkpt lat="46.1090084" lon="9.3195949"><ele>227.0</ele><time>2026-04-23T06:37:52.128Z</time></trkpt><trkpt lat="46.1090869" lon="9.3195638"><ele>227.00000000000003</ele><time>2026-04-23T06:37:54.128Z</time></trkpt><trkpt lat="46.1091706" lon="9.3194828"><ele>227.0</ele><time>2026-04-23T06:37:56.127Z</time></trkpt><trkpt lat="46.109236" lon="9.3194099"><ele>227.0</ele><time>2026-04-23T06:37:58.127Z</time></trkpt><trkpt lat="46.1092996" lon="9.3193339"><ele>227.0</ele><time>2026-04-23T06:38:00.128Z</time></trkpt><trkpt lat="46.1093653" lon="9.31925"><ele>227.00000000000003</ele><time>2026-04-23T06:38:02.128Z</time></trkpt><trkpt lat="46.1094323" lon="9.3191631"><ele>227.0</ele><time>2026-04-23T06:38:04.127Z</time></trkpt><trkpt lat="46.1094911" lon="9.3190742"><ele>227.00000000000003</ele><time>2026-04-23T06:38:06.128Z</time></trkpt><trkpt lat="46.1095459" lon="9.3189804"><ele>227.0</ele><time>2026-04-23T06:38:08.129Z</time></trkpt><trkpt lat="46.109608" lon="9.3188848"><ele>227.0</ele><time>2026-04-23T06:38:10.127Z</time></trkpt><trkpt lat="46.1096681" lon="9.3187923"><ele>227.0</ele><time>2026-04-23T06:38:12.128Z</time></trkpt><trkpt lat="46.1097222" lon="9.3187143"><ele>227.00000000000003</ele><time>2026-04-23T06:38:14.129Z</time></trkpt><trkpt lat="46.1097796" lon="9.3186344"><ele>227.0</ele><time>2026-04-23T06:38:16.127Z</time></trkpt><trkpt lat="46.1098372" lon="9.3185535"><ele>226.33333333333334</ele><time>2026-04-23T06:38:18.128Z</time></trkpt><trkpt lat="46.1099029" lon="9.3184806"><ele>225.66666666666669</ele><time>2026-04-23T06:38:20.128Z</time></trkpt><trkpt lat="46.1099769" lon="9.3184188"><ele>225.0</ele><time>2026-04-23T06:38:22.128Z</time></trkpt><trkpt lat="46.1100535" lon="9.3183646"><ele>224.33333333333331</ele><time>2026-04-23T06:38:24.128Z</time></trkpt><trkpt lat="46.1101338" lon="9.3183241"><ele>223.66666666666666</ele><time>2026-04-23T06:38:26.127Z</time></trkpt><trkpt lat="46.110214" lon="9.3182915"><ele>223.0</ele><time>2026-04-23T06:38:28.129Z</time></trkpt><trkpt lat="46.1102906" lon="9.3182714"><ele>222.99999999999997</ele><time>2026-04-23T06:38:30.128Z</time></trkpt><trkpt lat="46.1103698" lon="9.3182626"><ele>223.0</ele><time>2026-04-23T06:38:32.129Z</time></trkpt><trkpt lat="46.1104438" lon="9.3182464"><ele>223.0</ele><time>2026-04-23T06:38:34.129Z</time></trkpt><trkpt lat="46.1105179" lon="9.3182273"><ele>223.0</ele><time>2026-04-23T06:38:36.128Z</time></trkpt><trkpt lat="46.11059" lon="9.3182033"><ele>222.99999999999997</ele><time>2026-04-23T06:38:38.128Z</time></trkpt><trkpt lat="46.1106598" lon="9.3181609"><ele>223.0</ele><time>2026-04-23T06:38:40.127Z</time></trkpt><trkpt lat="46.1107219" lon="9.3181019"><ele>224.66666666666666</ele><time>2026-04-23T06:38:42.129Z</time></trkpt><trkpt lat="46.1107813" lon="9.3180386"><ele>226.33333333333331</ele><time>2026-04-23T06:38:44.128Z</time></trkpt><trkpt lat="46.1108488" lon="9.3179602"><ele>228.0</ele><time>2026-04-23T06:38:46.128Z</time></trkpt><trkpt lat="46.1109108" lon="9.3178787"><ele>229.66666666666669</ele><time>2026-04-23T06:38:48.129Z</time></trkpt><trkpt lat="46.1109731" lon="9.3177995"><ele>231.33333333333334</ele><time>2026-04-23T06:38:50.127Z</time></trkpt><trkpt lat="46.1110311" lon="9.3177287"><ele>233.0</ele><time>2026-04-23T06:38:52.128Z</time></trkpt><trkpt lat="46.1110905" lon="9.3176593"><ele>233.00000000000003</ele><time>2026-04-23T06:38:54.128Z</time></trkpt><trkpt lat="46.1111519" lon="9.3175854"><ele>233.0</ele><time>2026-04-23T06:38:56.128Z</time></trkpt><trkpt lat="46.1112104" lon="9.3175218"><ele>233.0</ele><time>2026-04-23T06:38:58.129Z</time></trkpt><trkpt lat="46.1112682" lon="9.3174599"><ele>233.0</ele><time>2026-04-23T06:39:00.128Z</time></trkpt><trkpt lat="46.1113282" lon="9.3173881"><ele>233.00000000000003</ele><time>2026-04-23T06:39:02.128Z</time></trkpt><trkpt lat="46.1113915" lon="9.317321"><ele>233.0</ele><time>2026-04-23T06:39:04.127Z</time></trkpt><trkpt lat="46.1114525" lon="9.3172458"><ele>233.66666666666669</ele><time>2026-04-23T06:39:06.127Z</time></trkpt><trkpt lat="46.1115099" lon="9.3171665"><ele>234.33333333333334</ele><time>2026-04-23T06:39:08.128Z</time></trkpt><trkpt lat="46.1115672" lon="9.3170903"><ele>235.0</ele><time>2026-04-23T06:39:10.128Z</time></trkpt><trkpt lat="46.1116289" lon="9.3170141"><ele>235.66666666666669</ele><time>2026-04-23T06:39:12.127Z</time></trkpt><trkpt lat="46.1116979" lon="9.3169604"><ele>236.33333333333334</ele><time>2026-04-23T06:39:14.127Z</time></trkpt><trkpt lat="46.1117661" lon="9.3169203"><ele>237.0</ele><time>2026-04-23T06:39:16.128Z</time></trkpt><trkpt lat="46.1118349" lon="9.3168816"><ele>236.99999999999997</ele><time>2026-04-23T06:39:18.128Z</time></trkpt><trkpt lat="46.111905" lon="9.316841"><ele>237.0</ele><time>2026-04-23T06:39:20.128Z</time></trkpt><trkpt lat="46.111972" lon="9.316809"><ele>236.99999999999997</ele><time>2026-04-23T06:39:22.128Z</time></trkpt><trkpt lat="46.1120407" lon="9.3167842"><ele>236.99999999999997</ele><time>2026-04-23T06:39:24.129Z</time></trkpt><trkpt lat="46.1121104" lon="9.3167637"><ele>237.0</ele><time>2026-04-23T06:39:26.129Z</time></trkpt><trkpt lat="46.11218" lon="9.316752"><ele>236.99999999999997</ele><time>2026-04-23T06:39:28.129Z</time></trkpt><trkpt lat="46.1122541" lon="9.3167389"><ele>236.99999999999997</ele><time>2026-04-23T06:39:30.129Z</time></trkpt><trkpt lat="46.1123283" lon="9.3167336"><ele>236.99999999999997</ele><time>2026-04-23T06:39:32.128Z</time></trkpt><trkpt lat="46.1123978" lon="9.3167294"><ele>237.0</ele><time>2026-04-23T06:39:34.129Z</time></trkpt><trkpt lat="46.1124634" lon="9.3167314"><ele>236.99999999999997</ele><time>2026-04-23T06:39:36.127Z</time></trkpt><trkpt lat="46.1125291" lon="9.3167253"><ele>236.99999999999997</ele><time>2026-04-23T06:39:38.128Z</time></trkpt><trkpt lat="46.1125923" lon="9.3167141"><ele>237.0</ele><time>2026-04-23T06:39:40.128Z</time></trkpt><trkpt lat="46.1126555" lon="9.316711"><ele>236.99999999999997</ele><time>2026-04-23T06:39:42.128Z</time></trkpt><trkpt lat="46.1127482" lon="9.3166833"><ele>236.99999999999997</ele><time>2026-04-23T06:39:45.127Z</time></trkpt><trkpt lat="46.1128374" lon="9.3166474"><ele>238.85714285714283</ele><time>2026-04-23T06:39:48.129Z</time></trkpt><trkpt lat="46.112899" lon="9.3166195"><ele>240.71428571428572</ele><time>2026-04-23T06:39:50.128Z</time></trkpt><trkpt lat="46.112973" lon="9.3165939"><ele>242.57142857142856</ele><time>2026-04-23T06:39:53.129Z</time></trkpt><trkpt lat="46.1130498" lon="9.3165667"><ele>244.42857142857142</ele><time>2026-04-23T06:39:56.129Z</time></trkpt><trkpt lat="46.1131129" lon="9.3165698"><ele>246.28571428571428</ele><time>2026-04-23T06:39:58.129Z</time></trkpt><trkpt lat="46.1131823" lon="9.3165772"><ele>248.14285714285714</ele><time>2026-04-23T06:40:00.129Z</time></trkpt><trkpt lat="46.1132492" lon="9.3165773"><ele>250.0</ele><time>2026-04-23T06:40:02.128Z</time></trkpt><trkpt lat="46.1133198" lon="9.3165944"><ele>250.57142857142856</ele><time>2026-04-23T06:40:04.129Z</time></trkpt><trkpt lat="46.113385" lon="9.3166301"><ele>251.14285714285717</ele><time>2026-04-23T06:40:06.128Z</time></trkpt><trkpt lat="46.1134554" lon="9.3166781"><ele>251.71428571428572</ele><time>2026-04-23T06:40:08.128Z</time></trkpt><trkpt lat="46.113522" lon="9.3167206"><ele>252.28571428571428</ele><time>2026-04-23T06:40:10.128Z</time></trkpt><trkpt lat="46.1135826" lon="9.3167689"><ele>252.85714285714283</ele><time>2026-04-23T06:40:12.128Z</time></trkpt><trkpt lat="46.1136381" lon="9.3168199"><ele>253.42857142857144</ele><time>2026-04-23T06:40:14.127Z</time></trkpt><trkpt lat="46.1136953" lon="9.3168784"><ele>254.0</ele><time>2026-04-23T06:40:16.129Z</time></trkpt><trkpt lat="46.1137558" lon="9.3169492"><ele>254.0</ele><time>2026-04-23T06:40:18.128Z</time></trkpt><trkpt lat="46.1138127" lon="9.3170151"><ele>254.0</ele><time>2026-04-23T06:40:20.128Z</time></trkpt><trkpt lat="46.1138637" lon="9.3170875"><ele>254.0</ele><time>2026-04-23T06:40:22.128Z</time></trkpt><trkpt lat="46.1139236" lon="9.3171524"><ele>254.0</ele><time>2026-04-23T06:40:24.129Z</time></trkpt><trkpt lat="46.1139795" lon="9.3172144"><ele>254.0</ele><time>2026-04-23T06:40:26.128Z</time></trkpt><trkpt lat="46.1140331" lon="9.3172772"><ele>254.0</ele><time>2026-04-23T06:40:28.129Z</time></trkpt><trkpt lat="46.1140813" lon="9.3173423"><ele>254.0</ele><time>2026-04-23T06:40:30.128Z</time></trkpt><trkpt lat="46.1141473" lon="9.3174409"><ele>254.14285714285717</ele><time>2026-04-23T06:40:33.129Z</time></trkpt><trkpt lat="46.1141942" lon="9.3175122"><ele>254.28571428571428</ele><time>2026-04-23T06:40:35.129Z</time></trkpt><trkpt lat="46.1142423" lon="9.31759"><ele>254.42857142857144</ele><time>2026-04-23T06:40:37.129Z</time></trkpt><trkpt lat="46.1142957" lon="9.3176965"><ele>254.57142857142858</ele><time>2026-04-23T06:40:40.128Z</time></trkpt><trkpt lat="46.1143265" lon="9.3177775"><ele>254.71428571428572</ele><time>2026-04-23T06:40:42.128Z</time></trkpt><trkpt lat="46.114361" lon="9.3178692"><ele>254.85714285714286</ele><time>2026-04-23T06:40:44.128Z</time></trkpt><trkpt lat="46.1143978" lon="9.3179689"><ele>255.0</ele><time>2026-04-23T06:40:46.127Z</time></trkpt><trkpt lat="46.1144301" lon="9.3180763"><ele>255.8</ele><time>2026-04-23T06:40:48.128Z</time></trkpt><trkpt lat="46.1144601" lon="9.3181865"><ele>256.6</ele><time>2026-04-23T06:40:50.127Z</time></trkpt><trkpt lat="46.1144766" lon="9.3182958"><ele>257.4</ele><time>2026-04-23T06:40:52.127Z</time></trkpt><trkpt lat="46.1144934" lon="9.3184205"><ele>258.2</ele><time>2026-04-23T06:40:54.128Z</time></trkpt><trkpt lat="46.1145094" lon="9.318556"><ele>259.0</ele><time>2026-04-23T06:40:56.128Z</time></trkpt><trkpt lat="46.1145132" lon="9.3187163"><ele>259.0</ele><time>2026-04-23T06:40:58.128Z</time></trkpt><trkpt lat="46.1145096" lon="9.3188905"><ele>259.0</ele><time>2026-04-23T06:41:00.129Z</time></trkpt><trkpt lat="46.1145069" lon="9.318989"><ele>259.0</ele><time>2026-04-23T06:41:01.129Z</time></trkpt><trkpt lat="46.1145066" lon="9.3190938"><ele>259.0</ele><time>2026-04-23T06:41:02.129Z</time></trkpt><trkpt lat="46.1145042" lon="9.3192063"><ele>259.0</ele><time>2026-04-23T06:41:03.128Z</time></trkpt><trkpt lat="46.1144958" lon="9.3193185"><ele>259.0</ele><time>2026-04-23T06:41:04.129Z</time></trkpt><trkpt lat="46.1144909" lon="9.3194308"><ele>259.8333333333333</ele><time>2026-04-23T06:41:05.128Z</time></trkpt><trkpt lat="46.1144903" lon="9.3195546"><ele>260.66666666666663</ele><time>2026-04-23T06:41:06.129Z</time></trkpt><trkpt lat="46.1144859" lon="9.3196781"><ele>261.5</ele><time>2026-04-23T06:41:07.128Z</time></trkpt><trkpt lat="46.1144814" lon="9.3197867"><ele>262.3333333333333</ele><time>2026-04-23T06:41:08.129Z</time></trkpt><trkpt lat="46.1144794" lon="9.3199118"><ele>263.1666666666667</ele><time>2026-04-23T06:41:09.127Z</time></trkpt><trkpt lat="46.1144749" lon="9.3200413"><ele>264.0</ele><time>2026-04-23T06:41:10.129Z</time></trkpt><trkpt lat="46.114467" lon="9.3201642"><ele>264.0</ele><time>2026-04-23T06:41:11.128Z</time></trkpt><trkpt lat="46.1144615" lon="9.3202978"><ele>264.0</ele><time>2026-04-23T06:41:12.129Z</time></trkpt><trkpt lat="46.1144541" lon="9.3204351"><ele>264.0</ele><time>2026-04-23T06:41:13.128Z</time></trkpt><trkpt lat="46.1144478" lon="9.3205726"><ele>264.0</ele><time>2026-04-23T06:41:14.128Z</time></trkpt><trkpt lat="46.1144393" lon="9.3207004"><ele>264.0</ele><time>2026-04-23T06:41:15.129Z</time></trkpt><trkpt lat="46.114432" lon="9.3208272"><ele>264.59999999999997</ele><time>2026-04-23T06:41:16.129Z</time></trkpt><trkpt lat="46.1144271" lon="9.3209655"><ele>265.2</ele><time>2026-04-23T06:41:17.127Z</time></trkpt><trkpt lat="46.1144204" lon="9.3211143"><ele>265.79999999999995</ele><time>2026-04-23T06:41:18.128Z</time></trkpt><trkpt lat="46.1144157" lon="9.3212588"><ele>266.4</ele><time>2026-04-23T06:41:19.129Z</time></trkpt><trkpt lat="46.1144104" lon="9.3214005"><ele>267.0</ele><time>2026-04-23T06:41:20.129Z</time></trkpt><trkpt lat="46.1144051" lon="9.3215467"><ele>267.4</ele><time>2026-04-23T06:41:21.128Z</time></trkpt><trkpt lat="46.1144065" lon="9.3217056"><ele>267.79999999999995</ele><time>2026-04-23T06:41:22.128Z</time></trkpt><trkpt lat="46.1144087" lon="9.321856"><ele>268.2</ele><time>2026-04-23T06:41:23.129Z</time></trkpt><trkpt lat="46.1144131" lon="9.3220048"><ele>268.59999999999997</ele><time>2026-04-23T06:41:24.128Z</time></trkpt><trkpt lat="46.1144123" lon="9.3221596"><ele>269.0</ele><time>2026-04-23T06:41:25.13Z</time></trkpt><trkpt lat="46.1144155" lon="9.3223169"><ele>269.2</ele><time>2026-04-23T06:41:26.128Z</time></trkpt><trkpt lat="46.1144227" lon="9.3224699"><ele>269.4</ele><time>2026-04-23T06:41:27.129Z</time></trkpt><trkpt lat="46.114432" lon="9.3226125"><ele>269.6</ele><time>2026-04-23T06:41:28.128Z</time></trkpt><trkpt lat="46.1144405" lon="9.3227653"><ele>269.8</ele><time>2026-04-23T06:41:29.128Z</time></trkpt><trkpt lat="46.1144417" lon="9.3229114"><ele>270.0</ele><time>2026-04-23T06:41:30.128Z</time></trkpt><trkpt lat="46.1144532" lon="9.3230632"><ele>270.4</ele><time>2026-04-23T06:41:31.129Z</time></trkpt><trkpt lat="46.1144745" lon="9.3232105"><ele>270.8</ele><time>2026-04-23T06:41:32.13Z</time></trkpt><trkpt lat="46.1145057" lon="9.3233658"><ele>271.2</ele><time>2026-04-23T06:41:33.128Z</time></trkpt><trkpt lat="46.1145463" lon="9.3235161"><ele>271.6</ele><time>2026-04-23T06:41:34.128Z</time></trkpt><trkpt lat="46.1145817" lon="9.3236557"><ele>272.0</ele><time>2026-04-23T06:41:35.128Z</time></trkpt><trkpt lat="46.1146074" lon="9.3238102"><ele>271.4</ele><time>2026-04-23T06:41:36.128Z</time></trkpt><trkpt lat="46.1146259" lon="9.3239592"><ele>270.79999999999995</ele><time>2026-04-23T06:41:37.128Z</time></trkpt><trkpt lat="46.1146277" lon="9.3241091"><ele>270.2</ele><time>2026-04-23T06:41:38.128Z</time></trkpt><trkpt lat="46.1146191" lon="9.3242686"><ele>269.59999999999997</ele><time>2026-04-23T06:41:39.128Z</time></trkpt><trkpt lat="46.1145995" lon="9.3244383"><ele>269.0</ele><time>2026-04-23T06:41:40.128Z</time></trkpt><trkpt lat="46.1145617" lon="9.3246023"><ele>265.25</ele><time>2026-04-23T06:41:41.129Z</time></trkpt><trkpt lat="46.1145153" lon="9.3247647"><ele>261.5</ele><time>2026-04-23T06:41:42.129Z</time></trkpt><trkpt lat="46.1144492" lon="9.3249094"><ele>257.75</ele><time>2026-04-23T06:41:43.129Z</time></trkpt><trkpt lat="46.1143777" lon="9.3250444"><ele>254.0</ele><time>2026-04-23T06:41:44.129Z</time></trkpt><trkpt lat="46.114303" lon="9.3251799"><ele>254.0</ele><time>2026-04-23T06:41:45.128Z</time></trkpt><trkpt lat="46.1142359" lon="9.3253224"><ele>254.0</ele><time>2026-04-23T06:41:46.129Z</time></trkpt><trkpt lat="46.1141806" lon="9.3254681"><ele>254.0</ele><time>2026-04-23T06:41:47.128Z</time></trkpt><trkpt lat="46.1141316" lon="9.3256196"><ele>254.0</ele><time>2026-04-23T06:41:48.129Z</time></trkpt><trkpt lat="46.1140974" lon="9.3257799"><ele>260.4</ele><time>2026-04-23T06:41:49.128Z</time></trkpt><trkpt lat="46.11406" lon="9.3259338"><ele>266.79999999999995</ele><time>2026-04-23T06:41:50.128Z</time></trkpt><trkpt lat="46.1140238" lon="9.3260953"><ele>273.20000000000005</ele><time>2026-04-23T06:41:51.129Z</time></trkpt><trkpt lat="46.1139901" lon="9.3262402"><ele>279.6</ele><time>2026-04-23T06:41:52.129Z</time></trkpt><trkpt lat="46.1139628" lon="9.3263833"><ele>286.0</ele><time>2026-04-23T06:41:53.128Z</time></trkpt><trkpt lat="46.1139304" lon="9.3265173"><ele>286.0</ele><time>2026-04-23T06:41:54.128Z</time></trkpt><trkpt lat="46.113906" lon="9.3266558"><ele>286.0</ele><time>2026-04-23T06:41:55.129Z</time></trkpt><trkpt lat="46.1138896" lon="9.3267899"><ele>286.0</ele><time>2026-04-23T06:41:56.128Z</time></trkpt><trkpt lat="46.1138871" lon="9.3269295"><ele>286.0</ele><time>2026-04-23T06:41:57.129Z</time></trkpt><trkpt lat="46.1138896" lon="9.3270731"><ele>286.0</ele><time>2026-04-23T06:41:58.13Z</time></trkpt><trkpt lat="46.1138988" lon="9.3272119"><ele>285.66666666666663</ele><time>2026-04-23T06:41:59.129Z</time></trkpt><trkpt lat="46.1139053" lon="9.3273556"><ele>285.3333333333333</ele><time>2026-04-23T06:42:00.129Z</time></trkpt><trkpt lat="46.1139092" lon="9.3274841"><ele>285.0</ele><time>2026-04-23T06:42:01.129Z</time></trkpt><trkpt lat="46.1139095" lon="9.3276002"><ele>284.6666666666667</ele><time>2026-04-23T06:42:02.129Z</time></trkpt><trkpt lat="46.1139167" lon="9.3277281"><ele>284.33333333333337</ele><time>2026-04-23T06:42:03.129Z</time></trkpt><trkpt lat="46.1139208" lon="9.3278533"><ele>284.0</ele><time>2026-04-23T06:42:04.128Z</time></trkpt><trkpt lat="46.1139273" lon="9.3279802"><ele>283.33333333333337</ele><time>2026-04-23T06:42:05.13Z</time></trkpt><trkpt lat="46.1139454" lon="9.3281035"><ele>282.6666666666667</ele><time>2026-04-23T06:42:06.13Z</time></trkpt><trkpt lat="46.1139799" lon="9.3282254"><ele>282.0</ele><time>2026-04-23T06:42:07.129Z</time></trkpt><trkpt lat="46.1140282" lon="9.3283223"><ele>281.3333333333333</ele><time>2026-04-23T06:42:08.129Z</time></trkpt><trkpt lat="46.1140843" lon="9.32842"><ele>280.66666666666663</ele><time>2026-04-23T06:42:09.129Z</time></trkpt><trkpt lat="46.1141412" lon="9.3285294"><ele>280.0</ele><time>2026-04-23T06:42:10.129Z</time></trkpt><trkpt lat="46.1141924" lon="9.3286327"><ele>272.3333333333333</ele><time>2026-04-23T06:42:11.129Z</time></trkpt><trkpt lat="46.1142363" lon="9.3287482"><ele>264.66666666666663</ele><time>2026-04-23T06:42:12.128Z</time></trkpt><trkpt lat="46.1142383" lon="9.3288585"><ele>257.0</ele><time>2026-04-23T06:42:13.128Z</time></trkpt><trkpt lat="46.1142577" lon="9.3289868"><ele>249.33333333333331</ele><time>2026-04-23T06:42:14.129Z</time></trkpt><trkpt lat="46.1142601" lon="9.3291109"><ele>241.66666666666666</ele><time>2026-04-23T06:42:15.129Z</time></trkpt><trkpt lat="46.1142777" lon="9.329222"><ele>234.0</ele><time>2026-04-23T06:42:16.128Z</time></trkpt><trkpt lat="46.1142785" lon="9.3293554"><ele>234.0</ele><time>2026-04-23T06:42:17.128Z</time></trkpt><trkpt lat="46.1142853" lon="9.3294842"><ele>234.0</ele><time>2026-04-23T06:42:18.129Z</time></trkpt><trkpt lat="46.1142824" lon="9.3296159"><ele>234.0</ele><time>2026-04-23T06:42:19.128Z</time></trkpt><trkpt lat="46.1142799" lon="9.3297466"><ele>234.0</ele><time>2026-04-23T06:42:20.129Z</time></trkpt><trkpt lat="46.1142812" lon="9.3298756"><ele>234.0</ele><time>2026-04-23T06:42:21.128Z</time></trkpt><trkpt lat="46.1142776" lon="9.3300024"><ele>234.0</ele><time>2026-04-23T06:42:22.129Z</time></trkpt><trkpt lat="46.1142752" lon="9.3301315"><ele>234.6</ele><time>2026-04-23T06:42:23.13Z</time></trkpt><trkpt lat="46.1142784" lon="9.3302667"><ele>235.2</ele><time>2026-04-23T06:42:24.128Z</time></trkpt><trkpt lat="46.1142834" lon="9.3303953"><ele>235.79999999999998</ele><time>2026-04-23T06:42:25.129Z</time></trkpt><trkpt lat="46.1142867" lon="9.330529"><ele>236.39999999999998</ele><time>2026-04-23T06:42:26.129Z</time></trkpt><trkpt lat="46.1143023" lon="9.3306626"><ele>237.0</ele><time>2026-04-23T06:42:27.129Z</time></trkpt><trkpt lat="46.1143114" lon="9.3307862"><ele>238.33333333333334</ele><time>2026-04-23T06:42:28.128Z</time></trkpt><trkpt lat="46.1143269" lon="9.3309105"><ele>239.66666666666669</ele><time>2026-04-23T06:42:29.129Z</time></trkpt><trkpt lat="46.1143562" lon="9.3310394"><ele>241.0</ele><time>2026-04-23T06:42:30.129Z</time></trkpt><trkpt lat="46.1143862" lon="9.3311621"><ele>242.33333333333334</ele><time>2026-04-23T06:42:31.13Z</time></trkpt><trkpt lat="46.1144211" lon="9.3312809"><ele>243.66666666666669</ele><time>2026-04-23T06:42:32.129Z</time></trkpt><trkpt lat="46.1144568" lon="9.3313901"><ele>245.0</ele><time>2026-04-23T06:42:33.13Z</time></trkpt><trkpt lat="46.1144926" lon="9.3315021"><ele>246.16666666666669</ele><time>2026-04-23T06:42:34.129Z</time></trkpt><trkpt lat="46.1145294" lon="9.331613"><ele>247.33333333333334</ele><time>2026-04-23T06:42:35.128Z</time></trkpt><trkpt lat="46.1145683" lon="9.3317284"><ele>248.5</ele><time>2026-04-23T06:42:36.128Z</time></trkpt><trkpt lat="46.1146112" lon="9.3318334"><ele>249.66666666666669</ele><time>2026-04-23T06:42:37.128Z</time></trkpt><trkpt lat="46.1146516" lon="9.3319298"><ele>250.83333333333334</ele><time>2026-04-23T06:42:38.129Z</time></trkpt><trkpt lat="46.1146989" lon="9.3320353"><ele>252.0</ele><time>2026-04-23T06:42:39.129Z</time></trkpt><trkpt lat="46.1147399" lon="9.3321469"><ele>255.0</ele><time>2026-04-23T06:42:40.128Z</time></trkpt><trkpt lat="46.1147843" lon="9.3322608"><ele>258.0</ele><time>2026-04-23T06:42:41.128Z</time></trkpt><trkpt lat="46.1148174" lon="9.332371"><ele>261.0</ele><time>2026-04-23T06:42:42.128Z</time></trkpt><trkpt lat="46.1148526" lon="9.3324828"><ele>264.0</ele><time>2026-04-23T06:42:43.128Z</time></trkpt><trkpt lat="46.1148932" lon="9.3325951"><ele>267.0</ele><time>2026-04-23T06:42:44.13Z</time></trkpt><trkpt lat="46.11493" lon="9.332697"><ele>270.0</ele><time>2026-04-23T06:42:45.128Z</time></trkpt><trkpt lat="46.1149791" lon="9.332811"><ele>266.1666666666667</ele><time>2026-04-23T06:42:46.129Z</time></trkpt><trkpt lat="46.1150251" lon="9.332919"><ele>262.3333333333333</ele><time>2026-04-23T06:42:47.128Z</time></trkpt><trkpt lat="46.115081" lon="9.3330192"><ele>258.5</ele><time>2026-04-23T06:42:48.128Z</time></trkpt><trkpt lat="46.1151427" lon="9.3331199"><ele>254.66666666666666</ele><time>2026-04-23T06:42:49.129Z</time></trkpt><trkpt lat="46.1151949" lon="9.3332208"><ele>250.83333333333331</ele><time>2026-04-23T06:42:50.129Z</time></trkpt><trkpt lat="46.1152532" lon="9.33332"><ele>247.0</ele><time>2026-04-23T06:42:51.129Z</time></trkpt><trkpt lat="46.1153011" lon="9.3334108"><ele>247.0</ele><time>2026-04-23T06:42:52.129Z</time></trkpt><trkpt lat="46.1153541" lon="9.3335058"><ele>247.0</ele><time>2026-04-23T06:42:53.128Z</time></trkpt><trkpt lat="46.1154103" lon="9.3336179"><ele>247.0</ele><time>2026-04-23T06:42:54.129Z</time></trkpt><trkpt lat="46.1154713" lon="9.3337239"><ele>247.0</ele><time>2026-04-23T06:42:55.129Z</time></trkpt><trkpt lat="46.1155062" lon="9.3338369"><ele>247.0</ele><time>2026-04-23T06:42:56.128Z</time></trkpt><trkpt lat="46.1155488" lon="9.3339536"><ele>243.16666666666666</ele><time>2026-04-23T06:42:57.129Z</time></trkpt><trkpt lat="46.1155908" lon="9.3340638"><ele>239.33333333333331</ele><time>2026-04-23T06:42:58.128Z</time></trkpt><trkpt lat="46.1156383" lon="9.3341853"><ele>235.5</ele><time>2026-04-23T06:42:59.13Z</time></trkpt><trkpt lat="46.1156797" lon="9.3342959"><ele>231.66666666666669</ele><time>2026-04-23T06:43:00.129Z</time></trkpt><trkpt lat="46.1157155" lon="9.3344053"><ele>227.83333333333334</ele><time>2026-04-23T06:43:01.128Z</time></trkpt><trkpt lat="46.1157342" lon="9.3345181"><ele>224.0</ele><time>2026-04-23T06:43:02.13Z</time></trkpt><trkpt lat="46.1157523" lon="9.3346483"><ele>227.00000000000003</ele><time>2026-04-23T06:43:03.128Z</time></trkpt><trkpt lat="46.1157643" lon="9.3347698"><ele>230.0</ele><time>2026-04-23T06:43:04.13Z</time></trkpt><trkpt lat="46.1157863" lon="9.334904"><ele>233.0</ele><time>2026-04-23T06:43:05.128Z</time></trkpt><trkpt lat="46.1158027" lon="9.335023"><ele>236.0</ele><time>2026-04-23T06:43:06.13Z</time></trkpt><trkpt lat="46.1158243" lon="9.3351382"><ele>239.00000000000003</ele><time>2026-04-23T06:43:07.129Z</time></trkpt><trkpt lat="46.1158544" lon="9.3352582"><ele>242.0</ele><time>2026-04-23T06:43:08.128Z</time></trkpt><trkpt lat="46.1158963" lon="9.3353652"><ele>242.00000000000003</ele><time>2026-04-23T06:43:09.129Z</time></trkpt><trkpt lat="46.1159448" lon="9.335475"><ele>242.0</ele><time>2026-04-23T06:43:10.13Z</time></trkpt><trkpt lat="46.1159935" lon="9.3355713"><ele>242.0</ele><time>2026-04-23T06:43:11.129Z</time></trkpt><trkpt lat="46.1160516" lon="9.3356743"><ele>242.0</ele><time>2026-04-23T06:43:12.128Z</time></trkpt><trkpt lat="46.1161052" lon="9.335775"><ele>242.00000000000003</ele><time>2026-04-23T06:43:13.128Z</time></trkpt><trkpt lat="46.1161547" lon="9.3358875"><ele>242.0</ele><time>2026-04-23T06:43:14.128Z</time></trkpt><trkpt lat="46.1162102" lon="9.3360031"><ele>246.2</ele><time>2026-04-23T06:43:15.129Z</time></trkpt><trkpt lat="46.1162564" lon="9.3361221"><ele>250.39999999999998</ele><time>2026-04-23T06:43:16.128Z</time></trkpt><trkpt lat="46.1163143" lon="9.3362436"><ele>254.60000000000002</ele><time>2026-04-23T06:43:17.13Z</time></trkpt><trkpt lat="46.1163728" lon="9.3363588"><ele>258.8</ele><time>2026-04-23T06:43:18.13Z</time></trkpt><trkpt lat="46.1164272" lon="9.3364728"><ele>263.0</ele><time>2026-04-23T06:43:19.129Z</time></trkpt><trkpt lat="46.1164706" lon="9.3365972"><ele>267.2</ele><time>2026-04-23T06:43:20.128Z</time></trkpt><trkpt lat="46.1165252" lon="9.3367316"><ele>271.4</ele><time>2026-04-23T06:43:21.129Z</time></trkpt><trkpt lat="46.1165781" lon="9.3368564"><ele>275.59999999999997</ele><time>2026-04-23T06:43:22.129Z</time></trkpt><trkpt lat="46.1166316" lon="9.3369821"><ele>279.8</ele><time>2026-04-23T06:43:23.129Z</time></trkpt><trkpt lat="46.1166774" lon="9.3371204"><ele>284.0</ele><time>2026-04-23T06:43:24.129Z</time></trkpt><trkpt lat="46.1167295" lon="9.3372659"><ele>274.0</ele><time>2026-04-23T06:43:25.13Z</time></trkpt><trkpt lat="46.1167803" lon="9.3374125"><ele>264.0</ele><time>2026-04-23T06:43:26.129Z</time></trkpt><trkpt lat="46.1168041" lon="9.3375312"><ele>253.99999999999997</ele><time>2026-04-23T06:43:27.13Z</time></trkpt><trkpt lat="46.1168186" lon="9.3376684"><ele>244.0</ele><time>2026-04-23T06:43:28.128Z</time></trkpt><trkpt lat="46.1168419" lon="9.3378021"><ele>234.0</ele><time>2026-04-23T06:43:29.129Z</time></trkpt><trkpt lat="46.1168489" lon="9.3379384"><ele>235.2</ele><time>2026-04-23T06:43:30.129Z</time></trkpt><trkpt lat="46.1168505" lon="9.3380729"><ele>236.39999999999998</ele><time>2026-04-23T06:43:31.13Z</time></trkpt><trkpt lat="46.1168599" lon="9.3382136"><ele>237.6</ele><time>2026-04-23T06:43:32.128Z</time></trkpt><trkpt lat="46.1168624" lon="9.3383473"><ele>238.8</ele><time>2026-04-23T06:43:33.13Z</time></trkpt><trkpt lat="46.1168737" lon="9.3384711"><ele>240.0</ele><time>2026-04-23T06:43:34.13Z</time></trkpt><trkpt lat="46.1168686" lon="9.3386043"><ele>240.0</ele><time>2026-04-23T06:43:35.129Z</time></trkpt><trkpt lat="46.1168549" lon="9.3387371"><ele>240.0</ele><time>2026-04-23T06:43:36.128Z</time></trkpt><trkpt lat="46.1168462" lon="9.3388646"><ele>240.0</ele><time>2026-04-23T06:43:37.13Z</time></trkpt><trkpt lat="46.1168369" lon="9.339005"><ele>240.0</ele><time>2026-04-23T06:43:38.128Z</time></trkpt><trkpt lat="46.1168245" lon="9.339145"><ele>240.0</ele><time>2026-04-23T06:43:39.129Z</time></trkpt><trkpt lat="46.1168062" lon="9.3392721"><ele>239.5</ele><time>2026-04-23T06:43:40.128Z</time></trkpt><trkpt lat="46.1167783" lon="9.3394012"><ele>239.0</ele><time>2026-04-23T06:43:41.13Z</time></trkpt><trkpt lat="46.1167563" lon="9.3395123"><ele>238.5</ele><time>2026-04-23T06:43:42.128Z</time></trkpt><trkpt lat="46.1167343" lon="9.3396394"><ele>238.0</ele><time>2026-04-23T06:43:43.13Z</time></trkpt><trkpt lat="46.1167129" lon="9.3397627"><ele>237.5</ele><time>2026-04-23T06:43:44.128Z</time></trkpt><trkpt lat="46.1166878" lon="9.3398786"><ele>237.0</ele><time>2026-04-23T06:43:45.128Z</time></trkpt><trkpt lat="46.1166581" lon="9.3399921"><ele>235.0</ele><time>2026-04-23T06:43:46.13Z</time></trkpt><trkpt lat="46.1166302" lon="9.3400998"><ele>233.0</ele><time>2026-04-23T06:43:47.128Z</time></trkpt><trkpt lat="46.1165974" lon="9.3402066"><ele>231.0</ele><time>2026-04-23T06:43:48.128Z</time></trkpt><trkpt lat="46.1165681" lon="9.3403184"><ele>229.0</ele><time>2026-04-23T06:43:49.13Z</time></trkpt><trkpt lat="46.1165485" lon="9.3404401"><ele>227.0</ele><time>2026-04-23T06:43:50.129Z</time></trkpt><trkpt lat="46.1165185" lon="9.3405558"><ele>225.0</ele><time>2026-04-23T06:43:51.13Z</time></trkpt><trkpt lat="46.116495" lon="9.3406707"><ele>232.5</ele><time>2026-04-23T06:43:52.129Z</time></trkpt><trkpt lat="46.1164667" lon="9.3407792"><ele>240.0</ele><time>2026-04-23T06:43:53.128Z</time></trkpt><trkpt lat="46.1164474" lon="9.3408899"><ele>247.5</ele><time>2026-04-23T06:43:54.129Z</time></trkpt><trkpt lat="46.1164196" lon="9.3409865"><ele>255.0</ele><time>2026-04-23T06:43:55.129Z</time></trkpt><trkpt lat="46.116399" lon="9.3411033"><ele>262.5</ele><time>2026-04-23T06:43:56.129Z</time></trkpt><trkpt lat="46.1163763" lon="9.3412114"><ele>270.0</ele><time>2026-04-23T06:43:57.129Z</time></trkpt><trkpt lat="46.1163465" lon="9.3413087"><ele>267.2857142857143</ele><time>2026-04-23T06:43:58.129Z</time></trkpt><trkpt lat="46.1163147" lon="9.3414015"><ele>264.57142857142856</ele><time>2026-04-23T06:43:59.129Z</time></trkpt><trkpt lat="46.1162882" lon="9.3414969"><ele>261.85714285714283</ele><time>2026-04-23T06:44:00.129Z</time></trkpt><trkpt lat="46.1162602" lon="9.3415864"><ele>259.1428571428571</ele><time>2026-04-23T06:44:01.128Z</time></trkpt><trkpt lat="46.1162362" lon="9.341682"><ele>256.42857142857144</ele><time>2026-04-23T06:44:02.129Z</time></trkpt><trkpt lat="46.1162084" lon="9.3417697"><ele>253.71428571428567</ele><time>2026-04-23T06:44:03.129Z</time></trkpt><trkpt lat="46.116185" lon="9.3418586"><ele>250.99999999999997</ele><time>2026-04-23T06:44:04.129Z</time></trkpt><trkpt lat="46.1161575" lon="9.3420534"><ele>250.99999999999997</ele><time>2026-04-23T06:44:06.13Z</time></trkpt><trkpt lat="46.1161472" lon="9.3421537"><ele>251.0</ele><time>2026-04-23T06:44:07.129Z</time></trkpt><trkpt lat="46.1161284" lon="9.3422519"><ele>250.99999999999997</ele><time>2026-04-23T06:44:08.128Z</time></trkpt><trkpt lat="46.1161184" lon="9.3423536"><ele>250.99999999999997</ele><time>2026-04-23T06:44:09.128Z</time></trkpt><trkpt lat="46.1161094" lon="9.3424437"><ele>251.0</ele><time>2026-04-23T06:44:10.129Z</time></trkpt><trkpt lat="46.1160971" lon="9.3425412"><ele>250.99999999999997</ele><time>2026-04-23T06:44:11.13Z</time></trkpt><trkpt lat="46.1160981" lon="9.3426404"><ele>250.99999999999997</ele><time>2026-04-23T06:44:12.129Z</time></trkpt><trkpt lat="46.1161021" lon="9.3427445"><ele>249.50000000000003</ele><time>2026-04-23T06:44:13.129Z</time></trkpt><trkpt lat="46.1161002" lon="9.342844"><ele>248.0</ele><time>2026-04-23T06:44:14.128Z</time></trkpt><trkpt lat="46.1161026" lon="9.3429374"><ele>246.5</ele><time>2026-04-23T06:44:15.13Z</time></trkpt><trkpt lat="46.1161026" lon="9.3430355"><ele>245.0</ele><time>2026-04-23T06:44:16.129Z</time></trkpt><trkpt lat="46.1161028" lon="9.3431299"><ele>243.50000000000003</ele><time>2026-04-23T06:44:17.129Z</time></trkpt><trkpt lat="46.1161155" lon="9.3432272"><ele>242.0</ele><time>2026-04-23T06:44:18.13Z</time></trkpt><trkpt lat="46.1161236" lon="9.3434131"><ele>240.50000000000003</ele><time>2026-04-23T06:44:20.129Z</time></trkpt><trkpt lat="46.1161294" lon="9.3435053"><ele>239.0</ele><time>2026-04-23T06:44:21.13Z</time></trkpt><trkpt lat="46.1161508" lon="9.3436779"><ele>237.5</ele><time>2026-04-23T06:44:23.13Z</time></trkpt><trkpt lat="46.1161642" lon="9.3437763"><ele>236.0</ele><time>2026-04-23T06:44:24.13Z</time></trkpt><trkpt lat="46.1161745" lon="9.3438709"><ele>234.50000000000003</ele><time>2026-04-23T06:44:25.13Z</time></trkpt><trkpt lat="46.1161823" lon="9.3439635"><ele>233.0</ele><time>2026-04-23T06:44:26.13Z</time></trkpt><trkpt lat="46.11619" lon="9.3440587"><ele>232.66666666666669</ele><time>2026-04-23T06:44:27.128Z</time></trkpt><trkpt lat="46.1162015" lon="9.3441525"><ele>232.33333333333334</ele><time>2026-04-23T06:44:28.13Z</time></trkpt><trkpt lat="46.1162114" lon="9.3442476"><ele>232.0</ele><time>2026-04-23T06:44:29.129Z</time></trkpt><trkpt lat="46.1162252" lon="9.3444208"><ele>231.66666666666669</ele><time>2026-04-23T06:44:31.129Z</time></trkpt><trkpt lat="46.1162476" lon="9.3445896"><ele>231.33333333333334</ele><time>2026-04-23T06:44:33.128Z</time></trkpt><trkpt lat="46.1162553" lon="9.3446804"><ele>231.0</ele><time>2026-04-23T06:44:34.129Z</time></trkpt><trkpt lat="46.1162698" lon="9.3448588"><ele>232.8</ele><time>2026-04-23T06:44:36.13Z</time></trkpt><trkpt lat="46.1162826" lon="9.3450336"><ele>234.60000000000002</ele><time>2026-04-23T06:44:38.13Z</time></trkpt><trkpt lat="46.1163046" lon="9.3452002"><ele>236.4</ele><time>2026-04-23T06:44:40.128Z</time></trkpt><trkpt lat="46.1163293" lon="9.3452906"><ele>238.2</ele><time>2026-04-23T06:44:41.129Z</time></trkpt><trkpt lat="46.1163482" lon="9.3453774"><ele>240.0</ele><time>2026-04-23T06:44:42.128Z</time></trkpt><trkpt lat="46.116392" lon="9.3455251"><ele>243.6</ele><time>2026-04-23T06:44:44.13Z</time></trkpt><trkpt lat="46.1164437" lon="9.3456716"><ele>247.2</ele><time>2026-04-23T06:44:46.129Z</time></trkpt><trkpt lat="46.1165025" lon="9.3457925"><ele>250.8</ele><time>2026-04-23T06:44:48.128Z</time></trkpt><trkpt lat="46.116557" lon="9.3459064"><ele>254.4</ele><time>2026-04-23T06:44:50.13Z</time></trkpt><trkpt lat="46.1166168" lon="9.3460196"><ele>258.0</ele><time>2026-04-23T06:44:52.129Z</time></trkpt><trkpt lat="46.1166721" lon="9.3461157"><ele>252.33333333333334</ele><time>2026-04-23T06:44:54.129Z</time></trkpt><trkpt lat="46.1167291" lon="9.3462186"><ele>246.66666666666669</ele><time>2026-04-23T06:44:56.129Z</time></trkpt><trkpt lat="46.1167824" lon="9.346292"><ele>241.0</ele><time>2026-04-23T06:44:58.13Z</time></trkpt><trkpt lat="46.1168366" lon="9.3463663"><ele>235.33333333333334</ele><time>2026-04-23T06:45:00.13Z</time></trkpt><trkpt lat="46.1168862" lon="9.3464588"><ele>229.66666666666669</ele><time>2026-04-23T06:45:02.129Z</time></trkpt><trkpt lat="46.1169518" lon="9.3465498"><ele>224.0</ele><time>2026-04-23T06:45:05.13Z</time></trkpt><trkpt lat="46.1170143" lon="9.346617"><ele>224.00000000000003</ele><time>2026-04-23T06:45:08.128Z</time></trkpt><trkpt lat="46.1170767" lon="9.3466601"><ele>224.0</ele><time>2026-04-23T06:45:10.129Z</time></trkpt><trkpt lat="46.1171504" lon="9.346699"><ele>224.0</ele><time>2026-04-23T06:45:12.129Z</time></trkpt><trkpt lat="46.1172234" lon="9.346673"><ele>224.0</ele><time>2026-04-23T06:45:14.129Z</time></trkpt><trkpt lat="46.1173298" lon="9.3466497"><ele>224.00000000000003</ele><time>2026-04-23T06:45:16.129Z</time></trkpt><trkpt lat="46.1174377" lon="9.3466452"><ele>224.0</ele><time>2026-04-23T06:45:18.129Z</time></trkpt><trkpt lat="46.1175474" lon="9.3466942"><ele>219.79999999999998</ele><time>2026-04-23T06:45:20.128Z</time></trkpt><trkpt lat="46.1176462" lon="9.3467282"><ele>215.59999999999997</ele><time>2026-04-23T06:45:22.13Z</time></trkpt><trkpt lat="46.117752" lon="9.3467649"><ele>211.4</ele><time>2026-04-23T06:45:24.13Z</time></trkpt><trkpt lat="46.1178471" lon="9.3467824"><ele>207.2</ele><time>2026-04-23T06:45:26.13Z</time></trkpt><trkpt lat="46.1179526" lon="9.3468067"><ele>203.0</ele><time>2026-04-23T06:45:28.13Z</time></trkpt><trkpt lat="46.1180546" lon="9.3468335"><ele>203.0</ele><time>2026-04-23T06:45:30.13Z</time></trkpt><trkpt lat="46.118166" lon="9.3468723"><ele>203.0</ele><time>2026-04-23T06:45:32.129Z</time></trkpt><trkpt lat="46.1182704" lon="9.3469168"><ele>203.0</ele><time>2026-04-23T06:45:34.129Z</time></trkpt><trkpt lat="46.1183637" lon="9.3469524"><ele>203.0</ele><time>2026-04-23T06:45:36.129Z</time></trkpt><trkpt lat="46.1184675" lon="9.3469911"><ele>203.0</ele><time>2026-04-23T06:45:38.129Z</time></trkpt><trkpt lat="46.1185644" lon="9.3470179"><ele>202.60000000000002</ele><time>2026-04-23T06:45:40.129Z</time></trkpt><trkpt lat="46.1186653" lon="9.3470412"><ele>202.20000000000002</ele><time>2026-04-23T06:45:42.13Z</time></trkpt><trkpt lat="46.1187622" lon="9.3470833"><ele>201.8</ele><time>2026-04-23T06:45:44.13Z</time></trkpt><trkpt lat="46.1188675" lon="9.3471188"><ele>201.4</ele><time>2026-04-23T06:45:46.129Z</time></trkpt><trkpt lat="46.1189658" lon="9.3471496"><ele>201.0</ele><time>2026-04-23T06:45:48.13Z</time></trkpt><trkpt lat="46.1190581" lon="9.3471805"><ele>201.0</ele><time>2026-04-23T06:45:50.129Z</time></trkpt><trkpt lat="46.119153" lon="9.3472083"><ele>201.0</ele><time>2026-04-23T06:45:52.13Z</time></trkpt><trkpt lat="46.119256" lon="9.3472476"><ele>201.0</ele><time>2026-04-23T06:45:54.129Z</time></trkpt><trkpt lat="46.1193616" lon="9.3472826"><ele>201.0</ele><time>2026-04-23T06:45:56.13Z</time></trkpt><trkpt lat="46.1194603" lon="9.3473256"><ele>201.0</ele><time>2026-04-23T06:45:58.128Z</time></trkpt><trkpt lat="46.1195527" lon="9.3473673"><ele>201.8</ele><time>2026-04-23T06:46:00.129Z</time></trkpt><trkpt lat="46.1196596" lon="9.3474079"><ele>202.60000000000002</ele><time>2026-04-23T06:46:02.13Z</time></trkpt><trkpt lat="46.1197724" lon="9.3474612"><ele>203.4</ele><time>2026-04-23T06:46:04.13Z</time></trkpt><trkpt lat="46.1198743" lon="9.3475086"><ele>204.2</ele><time>2026-04-23T06:46:06.13Z</time></trkpt><trkpt lat="46.1199774" lon="9.3475591"><ele>205.0</ele><time>2026-04-23T06:46:08.13Z</time></trkpt><trkpt lat="46.1200941" lon="9.3476096"><ele>204.99999999999997</ele><time>2026-04-23T06:46:10.13Z</time></trkpt><trkpt lat="46.1202085" lon="9.3476657"><ele>205.0</ele><time>2026-04-23T06:46:12.13Z</time></trkpt><trkpt lat="46.1202697" lon="9.3476975"><ele>205.0</ele><time>2026-04-23T06:46:13.129Z</time></trkpt><trkpt lat="46.1203905" lon="9.3477565"><ele>205.0</ele><time>2026-04-23T06:46:15.13Z</time></trkpt><trkpt lat="46.1204505" lon="9.3477941"><ele>204.99999999999997</ele><time>2026-04-23T06:46:16.129Z</time></trkpt><trkpt lat="46.1205144" lon="9.3478206"><ele>205.0</ele><time>2026-04-23T06:46:17.129Z</time></trkpt><trkpt lat="46.1205811" lon="9.3478501"><ele>205.0</ele><time>2026-04-23T06:46:18.13Z</time></trkpt><trkpt lat="46.1206429" lon="9.3478811"><ele>205.0</ele><time>2026-04-23T06:46:19.13Z</time></trkpt><trkpt lat="46.1207042" lon="9.3479157"><ele>205.0</ele><time>2026-04-23T06:46:20.129Z</time></trkpt><trkpt lat="46.1208132" lon="9.3479716"><ele>205.0</ele><time>2026-04-23T06:46:22.13Z</time></trkpt><trkpt lat="46.1209256" lon="9.3480216"><ele>205.0</ele><time>2026-04-23T06:46:24.129Z</time></trkpt><trkpt lat="46.1210414" lon="9.3480852"><ele>205.2857142857143</ele><time>2026-04-23T06:46:26.129Z</time></trkpt><trkpt lat="46.1211085" lon="9.348117"><ele>205.57142857142856</ele><time>2026-04-23T06:46:27.13Z</time></trkpt><trkpt lat="46.121174" lon="9.3481509"><ele>205.85714285714286</ele><time>2026-04-23T06:46:28.129Z</time></trkpt><trkpt lat="46.1212366" lon="9.3481756"><ele>206.14285714285717</ele><time>2026-04-23T06:46:29.13Z</time></trkpt><trkpt lat="46.1212988" lon="9.3482155"><ele>206.42857142857144</ele><time>2026-04-23T06:46:30.129Z</time></trkpt><trkpt lat="46.1213606" lon="9.3482468"><ele>206.71428571428572</ele><time>2026-04-23T06:46:31.13Z</time></trkpt><trkpt lat="46.121423" lon="9.3482783"><ele>207.0</ele><time>2026-04-23T06:46:32.129Z</time></trkpt><trkpt lat="46.1215234" lon="9.3483457"><ele>206.75</ele><time>2026-04-23T06:46:34.13Z</time></trkpt><trkpt lat="46.1216328" lon="9.3483938"><ele>206.5</ele><time>2026-04-23T06:46:36.129Z</time></trkpt><trkpt lat="46.1217962" lon="9.3484811"><ele>206.25</ele><time>2026-04-23T06:46:39.129Z</time></trkpt><trkpt lat="46.1219092" lon="9.3485339"><ele>206.0</ele><time>2026-04-23T06:46:41.129Z</time></trkpt><trkpt lat="46.1220243" lon="9.3485758"><ele>206.0</ele><time>2026-04-23T06:46:43.13Z</time></trkpt><trkpt lat="46.1221267" lon="9.3486264"><ele>206.0</ele><time>2026-04-23T06:46:45.129Z</time></trkpt><trkpt lat="46.122236" lon="9.3486838"><ele>206.0</ele><time>2026-04-23T06:46:47.13Z</time></trkpt><trkpt lat="46.1223438" lon="9.3487301"><ele>206.0</ele><time>2026-04-23T06:46:49.13Z</time></trkpt><trkpt lat="46.122448" lon="9.3487838"><ele>206.0</ele><time>2026-04-23T06:46:51.129Z</time></trkpt><trkpt lat="46.1225413" lon="9.348838"><ele>206.20000000000002</ele><time>2026-04-23T06:46:53.129Z</time></trkpt><trkpt lat="46.1226362" lon="9.3488971"><ele>206.4</ele><time>2026-04-23T06:46:55.13Z</time></trkpt><trkpt lat="46.1227334" lon="9.3489466"><ele>206.6</ele><time>2026-04-23T06:46:57.13Z</time></trkpt><trkpt lat="46.1228275" lon="9.3489907"><ele>206.8</ele><time>2026-04-23T06:46:59.129Z</time></trkpt><trkpt lat="46.1229074" lon="9.3490256"><ele>207.0</ele><time>2026-04-23T06:47:01.13Z</time></trkpt><trkpt lat="46.1229901" lon="9.3490725"><ele>207.0</ele><time>2026-04-23T06:47:03.129Z</time></trkpt><trkpt lat="46.1230753" lon="9.3491126"><ele>207.0</ele><time>2026-04-23T06:47:05.13Z</time></trkpt><trkpt lat="46.1231545" lon="9.3491525"><ele>207.0</ele><time>2026-04-23T06:47:07.129Z</time></trkpt><trkpt lat="46.1232272" lon="9.3492173"><ele>207.0</ele><time>2026-04-23T06:47:09.129Z</time></trkpt><trkpt lat="46.1233074" lon="9.3492416"><ele>207.0</ele><time>2026-04-23T06:47:12.129Z</time></trkpt><trkpt lat="46.1233916" lon="9.3492816"><ele>207.0</ele><time>2026-04-23T06:47:15.13Z</time></trkpt><trkpt lat="46.123467" lon="9.3493171"><ele>207.0</ele><time>2026-04-23T06:47:17.13Z</time></trkpt><trkpt lat="46.1235324" lon="9.3493441"><ele>207.0</ele><time>2026-04-23T06:47:19.129Z</time></trkpt><trkpt lat="46.1236138" lon="9.349312"><ele>207.0</ele><time>2026-04-23T06:47:22.129Z</time></trkpt><trkpt lat="46.1236287" lon="9.3492112"><ele>207.0</ele><time>2026-04-23T06:47:24.129Z</time></trkpt><trkpt lat="46.1236412" lon="9.3490949"><ele>207.0</ele><time>2026-04-23T06:47:26.129Z</time></trkpt><trkpt lat="46.1236546" lon="9.3489613"><ele>207.0</ele><time>2026-04-23T06:47:28.13Z</time></trkpt><trkpt lat="46.1236739" lon="9.3488271"><ele>207.0</ele><time>2026-04-23T06:47:30.129Z</time></trkpt><trkpt lat="46.1236938" lon="9.3486845"><ele>207.0</ele><time>2026-04-23T06:47:32.129Z</time></trkpt><trkpt lat="46.1237082" lon="9.3485371"><ele>207.0</ele><time>2026-04-23T06:47:34.13Z</time></trkpt><trkpt lat="46.1237258" lon="9.3483991"><ele>207.0</ele><time>2026-04-23T06:47:36.13Z</time></trkpt><trkpt lat="46.1237379" lon="9.3482944"><ele>207.0</ele><time>2026-04-23T06:47:38.131Z</time></trkpt><trkpt lat="46.1237564" lon="9.3481807"><ele>207.0</ele><time>2026-04-23T06:47:40.13Z</time></trkpt><trkpt lat="46.1237606" lon="9.3480853"><ele>207.0</ele><time>2026-04-23T06:47:42.13Z</time></trkpt><trkpt lat="46.1237962" lon="9.3480039"><ele>207.0</ele><time>2026-04-23T06:47:44.13Z</time></trkpt><trkpt lat="46.1238626" lon="9.3480314"><ele>207.0</ele><time>2026-04-23T06:47:46.13Z</time></trkpt><trkpt lat="46.1239276" lon="9.3481065"><ele>207.0</ele><time>2026-04-23T06:47:48.131Z</time></trkpt><trkpt lat="46.1240037" lon="9.3481672"><ele>207.0</ele><time>2026-04-23T06:47:50.129Z</time></trkpt><trkpt lat="46.124083" lon="9.3482448"><ele>206.5</ele><time>2026-04-23T06:47:52.13Z</time></trkpt><trkpt lat="46.1241594" lon="9.3483169"><ele>206.0</ele><time>2026-04-23T06:47:54.13Z</time></trkpt><trkpt lat="46.1242479" lon="9.348403"><ele>205.5</ele><time>2026-04-23T06:47:56.13Z</time></trkpt><trkpt lat="46.1243201" lon="9.3484631"><ele>205.0</ele><time>2026-04-23T06:47:58.13Z</time></trkpt><trkpt lat="46.1243761" lon="9.3485488"><ele>204.5</ele><time>2026-04-23T06:48:00.13Z</time></trkpt><trkpt lat="46.1244327" lon="9.3486238"><ele>204.0</ele><time>2026-04-23T06:48:02.129Z</time></trkpt><trkpt lat="46.1244951" lon="9.3487014"><ele>204.0</ele><time>2026-04-23T06:48:04.131Z</time></trkpt><trkpt lat="46.1245567" lon="9.3487881"><ele>204.0</ele><time>2026-04-23T06:48:06.129Z</time></trkpt><trkpt lat="46.1246174" lon="9.348875"><ele>204.0</ele><time>2026-04-23T06:48:08.131Z</time></trkpt><trkpt lat="46.124669" lon="9.3489705"><ele>204.0</ele><time>2026-04-23T06:48:10.13Z</time></trkpt><trkpt lat="46.1247134" lon="9.3490636"><ele>204.0</ele><time>2026-04-23T06:48:12.129Z</time></trkpt><trkpt lat="46.1247754" lon="9.3491419"><ele>204.0</ele><time>2026-04-23T06:48:14.13Z</time></trkpt><trkpt lat="46.1248393" lon="9.3492249"><ele>203.79999999999998</ele><time>2026-04-23T06:48:16.13Z</time></trkpt><trkpt lat="46.1249154" lon="9.3493153"><ele>203.6</ele><time>2026-04-23T06:48:18.131Z</time></trkpt><trkpt lat="46.1249892" lon="9.3494114"><ele>203.4</ele><time>2026-04-23T06:48:20.13Z</time></trkpt><trkpt lat="46.1250547" lon="9.3494957"><ele>203.2</ele><time>2026-04-23T06:48:22.129Z</time></trkpt><trkpt lat="46.1251252" lon="9.3495895"><ele>203.0</ele><time>2026-04-23T06:48:24.13Z</time></trkpt><trkpt lat="46.1251776" lon="9.3496684"><ele>203.66666666666669</ele><time>2026-04-23T06:48:26.131Z</time></trkpt><trkpt lat="46.1252364" lon="9.3497792"><ele>204.33333333333334</ele><time>2026-04-23T06:48:28.13Z</time></trkpt><trkpt lat="46.1252831" lon="9.3498686"><ele>205.0</ele><time>2026-04-23T06:48:30.129Z</time></trkpt><trkpt lat="46.1253289" lon="9.3499631"><ele>205.66666666666669</ele><time>2026-04-23T06:48:32.13Z</time></trkpt><trkpt lat="46.1253645" lon="9.3500427"><ele>206.33333333333334</ele><time>2026-04-23T06:49:09.13Z</time></trkpt><trkpt lat="46.1254263" lon="9.3501133"><ele>207.0</ele><time>2026-04-23T06:49:13.129Z</time></trkpt><trkpt lat="46.125468" lon="9.3501953"><ele>207.00000000000003</ele><time>2026-04-23T06:49:17.13Z</time></trkpt><trkpt lat="46.1255182" lon="9.3502608"><ele>207.0</ele><time>2026-04-23T06:49:20.131Z</time></trkpt><trkpt lat="46.1255679" lon="9.3503333"><ele>207.0</ele><time>2026-04-23T06:49:23.13Z</time></trkpt><trkpt lat="46.1256295" lon="9.3504117"><ele>207.0</ele><time>2026-04-23T06:49:26.129Z</time></trkpt><trkpt lat="46.1256751" lon="9.3504804"><ele>207.0</ele><time>2026-04-23T06:49:28.129Z</time></trkpt><trkpt lat="46.1257279" lon="9.350559"><ele>207.00000000000003</ele><time>2026-04-23T06:49:30.13Z</time></trkpt><trkpt lat="46.1257873" lon="9.3506311"><ele>207.0</ele><time>2026-04-23T06:49:32.13Z</time></trkpt><trkpt lat="46.125848" lon="9.3507109"><ele>207.39999999999998</ele><time>2026-04-23T06:49:34.129Z</time></trkpt><trkpt lat="46.1259158" lon="9.3507911"><ele>207.79999999999998</ele><time>2026-04-23T06:49:36.131Z</time></trkpt><trkpt lat="46.1259797" lon="9.3508755"><ele>208.2</ele><time>2026-04-23T06:49:38.13Z</time></trkpt><trkpt lat="46.1260485" lon="9.3509529"><ele>208.6</ele><time>2026-04-23T06:49:40.13Z</time></trkpt><trkpt lat="46.1261194" lon="9.3510424"><ele>209.0</ele><time>2026-04-23T06:49:42.13Z</time></trkpt><trkpt lat="46.1261996" lon="9.3511327"><ele>209.0</ele><time>2026-04-23T06:49:44.13Z</time></trkpt><trkpt lat="46.1262715" lon="9.3512433"><ele>209.0</ele><time>2026-04-23T06:49:46.131Z</time></trkpt><trkpt lat="46.1263405" lon="9.3513412"><ele>209.0</ele><time>2026-04-23T06:49:48.129Z</time></trkpt><trkpt lat="46.126407" lon="9.351439"><ele>209.0</ele><time>2026-04-23T06:49:50.131Z</time></trkpt><trkpt lat="46.1264862" lon="9.3515308"><ele>209.0</ele><time>2026-04-23T06:49:52.13Z</time></trkpt><trkpt lat="46.1265906" lon="9.3516015"><ele>209.0</ele><time>2026-04-23T06:49:54.13Z</time></trkpt><trkpt lat="46.1267096" lon="9.3516087"><ele>209.0</ele><time>2026-04-23T06:49:56.131Z</time></trkpt><trkpt lat="46.1268291" lon="9.3516053"><ele>209.0</ele><time>2026-04-23T06:49:58.131Z</time></trkpt><trkpt lat="46.1269478" lon="9.3516057"><ele>209.0</ele><time>2026-04-23T06:50:00.13Z</time></trkpt><trkpt lat="46.1270717" lon="9.3516044"><ele>209.0</ele><time>2026-04-23T06:50:02.13Z</time></trkpt><trkpt lat="46.1271933" lon="9.3516164"><ele>209.0</ele><time>2026-04-23T06:50:04.131Z</time></trkpt><trkpt lat="46.1273072" lon="9.3516696"><ele>209.0</ele><time>2026-04-23T06:50:06.13Z</time></trkpt><trkpt lat="46.1274187" lon="9.3517432"><ele>209.0</ele><time>2026-04-23T06:50:08.13Z</time></trkpt><trkpt lat="46.1275269" lon="9.3518053"><ele>209.0</ele><time>2026-04-23T06:50:10.13Z</time></trkpt><trkpt lat="46.1276294" lon="9.3518623"><ele>209.0</ele><time>2026-04-23T06:50:12.13Z</time></trkpt><trkpt lat="46.1277398" lon="9.3518976"><ele>209.0</ele><time>2026-04-23T06:50:14.131Z</time></trkpt><trkpt lat="46.1278498" lon="9.3519114"><ele>209.0</ele><time>2026-04-23T06:50:16.129Z</time></trkpt><trkpt lat="46.1279679" lon="9.3519341"><ele>209.0</ele><time>2026-04-23T06:50:18.13Z</time></trkpt><trkpt lat="46.128083" lon="9.3519864"><ele>209.0</ele><time>2026-04-23T06:50:20.13Z</time></trkpt><trkpt lat="46.1281815" lon="9.3520756"><ele>209.0</ele><time>2026-04-23T06:50:22.129Z</time></trkpt><trkpt lat="46.1282728" lon="9.3521773"><ele>209.0</ele><time>2026-04-23T06:50:24.13Z</time></trkpt><trkpt lat="46.1283551" lon="9.3522928"><ele>209.0</ele><time>2026-04-23T06:50:26.13Z</time></trkpt><trkpt lat="46.1284341" lon="9.3523974"><ele>209.0</ele><time>2026-04-23T06:50:28.13Z</time></trkpt><trkpt lat="46.1285181" lon="9.3524898"><ele>209.0</ele><time>2026-04-23T06:50:30.131Z</time></trkpt><trkpt lat="46.1285998" lon="9.3525795"><ele>209.0</ele><time>2026-04-23T06:50:32.131Z</time></trkpt><trkpt lat="46.12868" lon="9.3526772"><ele>209.0</ele><time>2026-04-23T06:50:34.13Z</time></trkpt><trkpt lat="46.1287563" lon="9.3527805"><ele>209.0</ele><time>2026-04-23T06:50:36.132Z</time></trkpt><trkpt lat="46.1288252" lon="9.3528656"><ele>209.0</ele><time>2026-04-23T06:50:38.131Z</time></trkpt><trkpt lat="46.1288836" lon="9.3529547"><ele>209.0</ele><time>2026-04-23T06:50:40.13Z</time></trkpt><trkpt lat="46.1290084" lon="9.3531421"><ele>209.0</ele><time>2026-04-23T06:50:44.129Z</time></trkpt><trkpt lat="46.1290809" lon="9.3532381"><ele>209.39999999999998</ele><time>2026-04-23T06:50:46.13Z</time></trkpt><trkpt lat="46.1291504" lon="9.353341"><ele>209.8</ele><time>2026-04-23T06:50:48.13Z</time></trkpt><trkpt lat="46.1292195" lon="9.353449"><ele>210.2</ele><time>2026-04-23T06:50:50.13Z</time></trkpt><trkpt lat="46.1292864" lon="9.3535527"><ele>210.60000000000002</ele><time>2026-04-23T06:50:52.131Z</time></trkpt><trkpt lat="46.129354" lon="9.3536522"><ele>211.0</ele><time>2026-04-23T06:50:54.131Z</time></trkpt><trkpt lat="46.1294228" lon="9.3537668"><ele>211.0</ele><time>2026-04-23T06:50:56.131Z</time></trkpt><trkpt lat="46.1294999" lon="9.3538709"><ele>211.0</ele><time>2026-04-23T06:50:58.131Z</time></trkpt><trkpt lat="46.1295661" lon="9.3539867"><ele>211.0</ele><time>2026-04-23T06:51:00.131Z</time></trkpt><trkpt lat="46.1296379" lon="9.3540936"><ele>211.0</ele><time>2026-04-23T06:51:02.13Z</time></trkpt><trkpt lat="46.1296951" lon="9.3542047"><ele>211.0</ele><time>2026-04-23T06:51:04.13Z</time></trkpt><trkpt lat="46.1297421" lon="9.3543269"><ele>211.0</ele><time>2026-04-23T06:51:06.131Z</time></trkpt><trkpt lat="46.1297714" lon="9.3544425"><ele>211.0</ele><time>2026-04-23T06:51:08.13Z</time></trkpt><trkpt lat="46.1298013" lon="9.3545727"><ele>211.0</ele><time>2026-04-23T06:51:10.13Z</time></trkpt><trkpt lat="46.129837" lon="9.3547128"><ele>211.0</ele><time>2026-04-23T06:51:12.131Z</time></trkpt><trkpt lat="46.129872" lon="9.3548444"><ele>211.0</ele><time>2026-04-23T06:51:14.131Z</time></trkpt><trkpt lat="46.129916" lon="9.3549755"><ele>210.8</ele><time>2026-04-23T06:51:16.129Z</time></trkpt><trkpt lat="46.1299656" lon="9.3550953"><ele>210.60000000000002</ele><time>2026-04-23T06:51:18.131Z</time></trkpt><trkpt lat="46.1300088" lon="9.3552244"><ele>210.4</ele><time>2026-04-23T06:51:20.13Z</time></trkpt><trkpt lat="46.1300611" lon="9.3553589"><ele>210.2</ele><time>2026-04-23T06:51:22.13Z</time></trkpt><trkpt lat="46.1301062" lon="9.3554828"><ele>210.0</ele><time>2026-04-23T06:51:24.13Z</time></trkpt><trkpt lat="46.1301513" lon="9.3556202"><ele>210.0</ele><time>2026-04-23T06:51:26.13Z</time></trkpt><trkpt lat="46.1301969" lon="9.3557556"><ele>210.0</ele><time>2026-04-23T06:51:28.131Z</time></trkpt><trkpt lat="46.1302329" lon="9.3558983"><ele>210.0</ele><time>2026-04-23T06:51:30.131Z</time></trkpt><trkpt lat="46.1302739" lon="9.3560384"><ele>210.0</ele><time>2026-04-23T06:51:32.131Z</time></trkpt><trkpt lat="46.1303124" lon="9.3561803"><ele>210.0</ele><time>2026-04-23T06:51:34.131Z</time></trkpt><trkpt lat="46.1303412" lon="9.3563189"><ele>210.6</ele><time>2026-04-23T06:51:36.131Z</time></trkpt><trkpt lat="46.1303638" lon="9.3564613"><ele>211.2</ele><time>2026-04-23T06:51:38.131Z</time></trkpt><trkpt lat="46.1303854" lon="9.3566091"><ele>211.8</ele><time>2026-04-23T06:51:40.13Z</time></trkpt><trkpt lat="46.1304157" lon="9.3567527"><ele>212.4</ele><time>2026-04-23T06:51:42.132Z</time></trkpt><trkpt lat="46.1304536" lon="9.356892"><ele>213.0</ele><time>2026-04-23T06:51:44.131Z</time></trkpt><trkpt lat="46.1305215" lon="9.3570872"><ele>213.4</ele><time>2026-04-23T06:51:47.131Z</time></trkpt><trkpt lat="46.1305628" lon="9.3572076"><ele>213.8</ele><time>2026-04-23T06:51:49.131Z</time></trkpt><trkpt lat="46.1305983" lon="9.357351"><ele>214.2</ele><time>2026-04-23T06:51:51.131Z</time></trkpt><trkpt lat="46.1306376" lon="9.3574824"><ele>214.6</ele><time>2026-04-23T06:51:53.13Z</time></trkpt><trkpt lat="46.1306754" lon="9.3576315"><ele>215.0</ele><time>2026-04-23T06:51:55.13Z</time></trkpt><trkpt lat="46.1307114" lon="9.3577557"><ele>214.2</ele><time>2026-04-23T06:51:57.131Z</time></trkpt><trkpt lat="46.1307634" lon="9.3578986"><ele>213.4</ele><time>2026-04-23T06:51:59.13Z</time></trkpt><trkpt lat="46.1308359" lon="9.3580307"><ele>212.60000000000002</ele><time>2026-04-23T06:52:01.13Z</time></trkpt><trkpt lat="46.1308764" lon="9.3581064"><ele>211.8</ele><time>2026-04-23T06:52:02.13Z</time></trkpt><trkpt lat="46.1309144" lon="9.3581839"><ele>211.0</ele><time>2026-04-23T06:52:03.131Z</time></trkpt><trkpt lat="46.1309778" lon="9.3583268"><ele>211.0</ele><time>2026-04-23T06:52:05.131Z</time></trkpt><trkpt lat="46.131034" lon="9.3584718"><ele>211.0</ele><time>2026-04-23T06:52:07.131Z</time></trkpt><trkpt lat="46.13106" lon="9.3585587"><ele>211.0</ele><time>2026-04-23T06:52:08.132Z</time></trkpt><trkpt lat="46.1310883" lon="9.3587242"><ele>211.0</ele><time>2026-04-23T06:52:10.131Z</time></trkpt><trkpt lat="46.131107" lon="9.3588727"><ele>211.0</ele><time>2026-04-23T06:52:12.131Z</time></trkpt><trkpt lat="46.1311565" lon="9.3590176"><ele>211.20000000000002</ele><time>2026-04-23T06:52:14.131Z</time></trkpt><trkpt lat="46.1312146" lon="9.3591477"><ele>211.4</ele><time>2026-04-23T06:52:16.13Z</time></trkpt><trkpt lat="46.131251" lon="9.3592884"><ele>211.6</ele><time>2026-04-23T06:52:18.131Z</time></trkpt><trkpt lat="46.1312817" lon="9.3594316"><ele>211.8</ele><time>2026-04-23T06:52:20.13Z</time></trkpt><trkpt lat="46.1313067" lon="9.3595826"><ele>212.0</ele><time>2026-04-23T06:52:22.13Z</time></trkpt><trkpt lat="46.1313594" lon="9.3597343"><ele>211.8</ele><time>2026-04-23T06:52:24.131Z</time></trkpt><trkpt lat="46.1314249" lon="9.3598643"><ele>211.6</ele><time>2026-04-23T06:52:26.131Z</time></trkpt><trkpt lat="46.1314592" lon="9.3599421"><ele>211.4</ele><time>2026-04-23T06:52:27.131Z</time></trkpt><trkpt lat="46.1315282" lon="9.3600887"><ele>211.20000000000002</ele><time>2026-04-23T06:52:29.131Z</time></trkpt><trkpt lat="46.1316018" lon="9.3602212"><ele>211.0</ele><time>2026-04-23T06:52:31.131Z</time></trkpt><trkpt lat="46.1316713" lon="9.3603744"><ele>211.0</ele><time>2026-04-23T06:52:33.132Z</time></trkpt><trkpt lat="46.1317095" lon="9.3604542"><ele>211.0</ele><time>2026-04-23T06:52:34.131Z</time></trkpt><trkpt lat="46.1317516" lon="9.3605317"><ele>211.0</ele><time>2026-04-23T06:52:35.131Z</time></trkpt><trkpt lat="46.1317933" lon="9.3606122"><ele>211.0</ele><time>2026-04-23T06:52:36.132Z</time></trkpt><trkpt lat="46.1318361" lon="9.3606949"><ele>211.0</ele><time>2026-04-23T06:52:37.131Z</time></trkpt><trkpt lat="46.1318767" lon="9.3607817"><ele>211.0</ele><time>2026-04-23T06:52:38.13Z</time></trkpt><trkpt lat="46.1319138" lon="9.360866"><ele>211.0</ele><time>2026-04-23T06:52:39.131Z</time></trkpt><trkpt lat="46.1319551" lon="9.3609536"><ele>211.42857142857144</ele><time>2026-04-23T06:52:40.13Z</time></trkpt><trkpt lat="46.1319979" lon="9.3610401"><ele>211.85714285714286</ele><time>2026-04-23T06:52:41.131Z</time></trkpt><trkpt lat="46.1320419" lon="9.3611258"><ele>212.28571428571428</ele><time>2026-04-23T06:52:42.131Z</time></trkpt><trkpt lat="46.1320871" lon="9.3612087"><ele>212.71428571428572</ele><time>2026-04-23T06:52:43.131Z</time></trkpt><trkpt lat="46.1321314" lon="9.3612907"><ele>213.14285714285714</ele><time>2026-04-23T06:52:44.132Z</time></trkpt><trkpt lat="46.132172" lon="9.3613719"><ele>213.57142857142858</ele><time>2026-04-23T06:52:45.13Z</time></trkpt><trkpt lat="46.132215" lon="9.3614535"><ele>214.0</ele><time>2026-04-23T06:52:46.13Z</time></trkpt><trkpt lat="46.1322576" lon="9.3615353"><ele>214.14285714285717</ele><time>2026-04-23T06:52:47.132Z</time></trkpt><trkpt lat="46.1322998" lon="9.3616106"><ele>214.28571428571428</ele><time>2026-04-23T06:52:48.131Z</time></trkpt><trkpt lat="46.1323439" lon="9.361688"><ele>214.42857142857144</ele><time>2026-04-23T06:52:49.131Z</time></trkpt><trkpt lat="46.1323876" lon="9.3617753"><ele>214.57142857142858</ele><time>2026-04-23T06:52:50.13Z</time></trkpt><trkpt lat="46.1324283" lon="9.361862"><ele>214.71428571428572</ele><time>2026-04-23T06:52:51.13Z</time></trkpt><trkpt lat="46.1324659" lon="9.3619507"><ele>214.85714285714286</ele><time>2026-04-23T06:52:52.131Z</time></trkpt><trkpt lat="46.1324994" lon="9.3620373"><ele>215.0</ele><time>2026-04-23T06:52:53.131Z</time></trkpt><trkpt lat="46.1326031" lon="9.3622761"><ele>214.28571428571428</ele><time>2026-04-23T06:52:56.133Z</time></trkpt><trkpt lat="46.1326424" lon="9.3623631"><ele>213.57142857142858</ele><time>2026-04-23T06:52:57.133Z</time></trkpt><trkpt lat="46.1326819" lon="9.3624466"><ele>212.85714285714286</ele><time>2026-04-23T06:52:58.131Z</time></trkpt><trkpt lat="46.13272" lon="9.3625235"><ele>212.14285714285714</ele><time>2026-04-23T06:52:59.131Z</time></trkpt><trkpt lat="46.1327597" lon="9.362599"><ele>211.42857142857144</ele><time>2026-04-23T06:53:00.132Z</time></trkpt><trkpt lat="46.1328011" lon="9.3626767"><ele>210.71428571428572</ele><time>2026-04-23T06:53:01.132Z</time></trkpt><trkpt lat="46.1328422" lon="9.3627571"><ele>210.0</ele><time>2026-04-23T06:53:02.131Z</time></trkpt><trkpt lat="46.132883" lon="9.3628365"><ele>210.0</ele><time>2026-04-23T06:53:03.132Z</time></trkpt><trkpt lat="46.1329245" lon="9.3629141"><ele>210.0</ele><time>2026-04-23T06:53:04.132Z</time></trkpt><trkpt lat="46.1329658" lon="9.3629924"><ele>210.0</ele><time>2026-04-23T06:53:05.132Z</time></trkpt><trkpt lat="46.1330074" lon="9.3630722"><ele>210.0</ele><time>2026-04-23T06:53:06.131Z</time></trkpt><trkpt lat="46.133047" lon="9.363154"><ele>210.0</ele><time>2026-04-23T06:53:07.132Z</time></trkpt><trkpt lat="46.1330854" lon="9.3632339"><ele>210.0</ele><time>2026-04-23T06:53:08.132Z</time></trkpt><trkpt lat="46.133123" lon="9.3633159"><ele>210.0</ele><time>2026-04-23T06:53:09.131Z</time></trkpt><trkpt lat="46.1331614" lon="9.3633971"><ele>210.0</ele><time>2026-04-23T06:53:10.131Z</time></trkpt><trkpt lat="46.1331958" lon="9.36348"><ele>210.0</ele><time>2026-04-23T06:53:11.131Z</time></trkpt><trkpt lat="46.1332736" lon="9.3636266"><ele>210.0</ele><time>2026-04-23T06:53:13.132Z</time></trkpt><trkpt lat="46.1333467" lon="9.363755"><ele>210.0</ele><time>2026-04-23T06:53:15.129Z</time></trkpt><trkpt lat="46.1333934" lon="9.3638215"><ele>210.0</ele><time>2026-04-23T06:53:17.13Z</time></trkpt><trkpt lat="46.1334474" lon="9.3638883"><ele>210.0</ele><time>2026-04-23T06:53:22.13Z</time></trkpt><trkpt lat="46.1335064" lon="9.3639325"><ele>210.0</ele><time>2026-04-23T06:53:30.132Z</time></trkpt><trkpt lat="46.1335647" lon="9.363968"><ele>210.0</ele><time>2026-04-23T06:53:34.13Z</time></trkpt><trkpt lat="46.1336453" lon="9.363942"><ele>210.0</ele><time>2026-04-23T06:53:37.131Z</time></trkpt><trkpt lat="46.1337098" lon="9.3639061"><ele>210.0</ele><time>2026-04-23T06:53:39.132Z</time></trkpt><trkpt lat="46.1337872" lon="9.363874"><ele>210.0</ele><time>2026-04-23T06:53:41.13Z</time></trkpt><trkpt lat="46.1338644" lon="9.3638346"><ele>210.0</ele><time>2026-04-23T06:53:43.131Z</time></trkpt><trkpt lat="46.1339535" lon="9.3637861"><ele>209.25</ele><time>2026-04-23T06:53:45.132Z</time></trkpt><trkpt lat="46.1340508" lon="9.3637322"><ele>208.5</ele><time>2026-04-23T06:53:47.131Z</time></trkpt><trkpt lat="46.1341556" lon="9.3636482"><ele>207.75</ele><time>2026-04-23T06:53:49.131Z</time></trkpt><trkpt lat="46.13427" lon="9.3635704"><ele>207.0</ele><time>2026-04-23T06:53:51.13Z</time></trkpt><trkpt lat="46.1344492" lon="9.3634514"><ele>206.57142857142858</ele><time>2026-04-23T06:53:54.132Z</time></trkpt><trkpt lat="46.1345116" lon="9.3633994"><ele>206.14285714285714</ele><time>2026-04-23T06:53:55.13Z</time></trkpt><trkpt lat="46.1345791" lon="9.3633544"><ele>205.71428571428572</ele><time>2026-04-23T06:53:56.13Z</time></trkpt><trkpt lat="46.1346466" lon="9.3633045"><ele>205.28571428571428</ele><time>2026-04-23T06:53:57.13Z</time></trkpt><trkpt lat="46.1347096" lon="9.3632532"><ele>204.85714285714286</ele><time>2026-04-23T06:53:58.132Z</time></trkpt><trkpt lat="46.1347748" lon="9.3632063"><ele>204.42857142857144</ele><time>2026-04-23T06:53:59.131Z</time></trkpt><trkpt lat="46.1348369" lon="9.3631555"><ele>204.0</ele><time>2026-04-23T06:54:00.132Z</time></trkpt><trkpt lat="46.1349032" lon="9.3631022"><ele>203.71428571428572</ele><time>2026-04-23T06:54:01.132Z</time></trkpt><trkpt lat="46.1349673" lon="9.3630484"><ele>203.42857142857144</ele><time>2026-04-23T06:54:02.131Z</time></trkpt><trkpt lat="46.1350371" lon="9.3630073"><ele>203.14285714285714</ele><time>2026-04-23T06:54:03.132Z</time></trkpt><trkpt lat="46.1351048" lon="9.3629751"><ele>202.85714285714286</ele><time>2026-04-23T06:54:04.131Z</time></trkpt><trkpt lat="46.1351737" lon="9.3629416"><ele>202.57142857142856</ele><time>2026-04-23T06:54:05.131Z</time></trkpt><trkpt lat="46.1352384" lon="9.3628972"><ele>202.28571428571428</ele><time>2026-04-23T06:54:06.13Z</time></trkpt><trkpt lat="46.135302" lon="9.3628542"><ele>202.0</ele><time>2026-04-23T06:54:07.131Z</time></trkpt><trkpt lat="46.1353658" lon="9.3628046"><ele>201.99999999999997</ele><time>2026-04-23T06:54:08.13Z</time></trkpt><trkpt lat="46.1354763" lon="9.362734"><ele>202.0</ele><time>2026-04-23T06:54:10.132Z</time></trkpt><trkpt lat="46.1355511" lon="9.3626993"><ele>202.0</ele><time>2026-04-23T06:54:12.132Z</time></trkpt><trkpt lat="46.1356162" lon="9.3627597"><ele>202.0</ele><time>2026-04-23T06:54:14.13Z</time></trkpt><trkpt lat="46.1356379" lon="9.3628692"><ele>201.99999999999997</ele><time>2026-04-23T06:54:16.131Z</time></trkpt><trkpt lat="46.1356465" lon="9.3629861"><ele>202.0</ele><time>2026-04-23T06:54:18.131Z</time></trkpt><trkpt lat="46.135664" lon="9.3631322"><ele>202.0</ele><time>2026-04-23T06:54:20.131Z</time></trkpt><trkpt lat="46.1356758" lon="9.3632805"><ele>202.0</ele><time>2026-04-23T06:54:22.132Z</time></trkpt><trkpt lat="46.1356881" lon="9.3634444"><ele>202.0</ele><time>2026-04-23T06:54:24.132Z</time></trkpt><trkpt lat="46.1356894" lon="9.3635929"><ele>202.0</ele><time>2026-04-23T06:54:26.131Z</time></trkpt><trkpt lat="46.1356957" lon="9.3637413"><ele>202.0</ele><time>2026-04-23T06:54:28.131Z</time></trkpt><trkpt lat="46.1357122" lon="9.3639053"><ele>201.6</ele><time>2026-04-23T06:54:30.132Z</time></trkpt><trkpt lat="46.1357411" lon="9.3640598"><ele>201.2</ele><time>2026-04-23T06:54:32.131Z</time></trkpt><trkpt lat="46.1357815" lon="9.3642"><ele>200.8</ele><time>2026-04-23T06:54:34.131Z</time></trkpt><trkpt lat="46.135822" lon="9.3643403"><ele>200.4</ele><time>2026-04-23T06:54:36.13Z</time></trkpt><trkpt lat="46.1358667" lon="9.3644912"><ele>200.0</ele><time>2026-04-23T06:54:38.131Z</time></trkpt><trkpt lat="46.1359098" lon="9.3646373"><ele>200.2</ele><time>2026-04-23T06:54:40.131Z</time></trkpt><trkpt lat="46.1359531" lon="9.3647679"><ele>200.4</ele><time>2026-04-23T06:54:42.133Z</time></trkpt><trkpt lat="46.1359881" lon="9.3649154"><ele>200.60000000000002</ele><time>2026-04-23T06:54:44.13Z</time></trkpt><trkpt lat="46.1360319" lon="9.365063"><ele>200.8</ele><time>2026-04-23T06:54:46.13Z</time></trkpt><trkpt lat="46.136069" lon="9.3652053"><ele>201.0</ele><time>2026-04-23T06:54:48.132Z</time></trkpt><trkpt lat="46.1361136" lon="9.3653382"><ele>201.0</ele><time>2026-04-23T06:54:50.13Z</time></trkpt><trkpt lat="46.1361826" lon="9.3654333"><ele>201.0</ele><time>2026-04-23T06:54:52.13Z</time></trkpt><trkpt lat="46.1362594" lon="9.3655206"><ele>201.0</ele><time>2026-04-23T06:54:54.131Z</time></trkpt><trkpt lat="46.1363225" lon="9.3656351"><ele>201.0</ele><time>2026-04-23T06:54:56.132Z</time></trkpt><trkpt lat="46.1363917" lon="9.365728"><ele>201.0</ele><time>2026-04-23T06:54:58.13Z</time></trkpt><trkpt lat="46.1364583" lon="9.3658132"><ele>201.20000000000002</ele><time>2026-04-23T06:55:00.132Z</time></trkpt><trkpt lat="46.1365189" lon="9.3659083"><ele>201.4</ele><time>2026-04-23T06:55:02.132Z</time></trkpt><trkpt lat="46.1365846" lon="9.366031"><ele>201.6</ele><time>2026-04-23T06:55:04.131Z</time></trkpt><trkpt lat="46.1366234" lon="9.3661875"><ele>201.8</ele><time>2026-04-23T06:55:06.131Z</time></trkpt><trkpt lat="46.1366461" lon="9.3663626"><ele>202.0</ele><time>2026-04-23T06:55:08.132Z</time></trkpt><trkpt lat="46.1366655" lon="9.3665308"><ele>201.5</ele><time>2026-04-23T06:55:10.131Z</time></trkpt><trkpt lat="46.1366928" lon="9.3666979"><ele>201.0</ele><time>2026-04-23T06:55:12.132Z</time></trkpt><trkpt lat="46.1367124" lon="9.3668579"><ele>200.5</ele><time>2026-04-23T06:55:14.132Z</time></trkpt><trkpt lat="46.136735" lon="9.3670147"><ele>200.0</ele><time>2026-04-23T06:55:16.131Z</time></trkpt><trkpt lat="46.1367806" lon="9.3671638"><ele>200.4</ele><time>2026-04-23T06:55:18.131Z</time></trkpt><trkpt lat="46.1368321" lon="9.367306"><ele>200.8</ele><time>2026-04-23T06:55:20.131Z</time></trkpt><trkpt lat="46.136888" lon="9.3674344"><ele>201.2</ele><time>2026-04-23T06:55:22.13Z</time></trkpt><trkpt lat="46.1369582" lon="9.3675635"><ele>201.6</ele><time>2026-04-23T06:55:24.131Z</time></trkpt><trkpt lat="46.1370062" lon="9.3676865"><ele>202.0</ele><time>2026-04-23T06:55:26.132Z</time></trkpt><trkpt lat="46.1370643" lon="9.3678069"><ele>202.0</ele><time>2026-04-23T06:55:28.131Z</time></trkpt><trkpt lat="46.1371261" lon="9.3679351"><ele>202.0</ele><time>2026-04-23T06:55:30.13Z</time></trkpt><trkpt lat="46.1371885" lon="9.3680886"><ele>202.0</ele><time>2026-04-23T06:55:32.133Z</time></trkpt><trkpt lat="46.1372432" lon="9.3682126"><ele>202.0</ele><time>2026-04-23T06:55:34.131Z</time></trkpt><trkpt lat="46.137296" lon="9.3683369"><ele>202.0</ele><time>2026-04-23T06:55:36.132Z</time></trkpt><trkpt lat="46.1373101" lon="9.3684759"><ele>202.49999999999997</ele><time>2026-04-23T06:55:38.132Z</time></trkpt><trkpt lat="46.1372808" lon="9.368588"><ele>203.0</ele><time>2026-04-23T06:55:40.132Z</time></trkpt><trkpt lat="46.1372546" lon="9.3687178"><ele>203.5</ele><time>2026-04-23T06:55:42.132Z</time></trkpt><trkpt lat="46.1372529" lon="9.3688423"><ele>204.0</ele><time>2026-04-23T06:55:44.13Z</time></trkpt><trkpt lat="46.1372582" lon="9.3689723"><ele>204.49999999999997</ele><time>2026-04-23T06:55:46.132Z</time></trkpt><trkpt lat="46.1372566" lon="9.3691085"><ele>205.0</ele><time>2026-04-23T06:55:48.131Z</time></trkpt><trkpt lat="46.1372507" lon="9.3692533"><ele>204.99999999999997</ele><time>2026-04-23T06:55:50.131Z</time></trkpt><trkpt lat="46.1372214" lon="9.3693586"><ele>205.0</ele><time>2026-04-23T06:55:52.132Z</time></trkpt><trkpt lat="46.1371941" lon="9.3694695"><ele>205.0</ele><time>2026-04-23T06:55:54.131Z</time></trkpt><trkpt lat="46.1371772" lon="9.3695897"><ele>205.0</ele><time>2026-04-23T06:55:56.131Z</time></trkpt><trkpt lat="46.1371578" lon="9.3697092"><ele>204.99999999999997</ele><time>2026-04-23T06:55:58.132Z</time></trkpt><trkpt lat="46.1371311" lon="9.3698228"><ele>205.0</ele><time>2026-04-23T06:56:00.131Z</time></trkpt><trkpt lat="46.1371016" lon="9.3699338"><ele>204.99999999999997</ele><time>2026-04-23T06:56:02.131Z</time></trkpt><trkpt lat="46.1370731" lon="9.3700591"><ele>205.0</ele><time>2026-04-23T06:56:04.131Z</time></trkpt><trkpt lat="46.1370552" lon="9.3701716"><ele>205.0</ele><time>2026-04-23T06:56:06.132Z</time></trkpt><trkpt lat="46.1370564" lon="9.3702671"><ele>205.0</ele><time>2026-04-23T06:56:08.131Z</time></trkpt><trkpt lat="46.1370668" lon="9.3703595"><ele>204.99999999999997</ele><time>2026-04-23T06:56:10.131Z</time></trkpt><trkpt lat="46.1370937" lon="9.3704574"><ele>205.0</ele><time>2026-04-23T06:56:12.132Z</time></trkpt><trkpt lat="46.1371337" lon="9.3705557"><ele>205.16666666666666</ele><time>2026-04-23T06:56:14.131Z</time></trkpt><trkpt lat="46.1371656" lon="9.3706506"><ele>205.33333333333331</ele><time>2026-04-23T06:56:16.132Z</time></trkpt><trkpt lat="46.1371898" lon="9.3707519"><ele>205.5</ele><time>2026-04-23T06:56:18.132Z</time></trkpt><trkpt lat="46.1372092" lon="9.3708456"><ele>205.66666666666669</ele><time>2026-04-23T06:56:20.131Z</time></trkpt><trkpt lat="46.1372307" lon="9.3709328"><ele>205.83333333333334</ele><time>2026-04-23T06:56:22.132Z</time></trkpt><trkpt lat="46.1372644" lon="9.3710615"><ele>206.0</ele><time>2026-04-23T06:56:25.132Z</time></trkpt><trkpt lat="46.1373029" lon="9.3711673"><ele>206.0</ele><time>2026-04-23T06:56:27.132Z</time></trkpt><trkpt lat="46.1373372" lon="9.371272"><ele>206.0</ele><time>2026-04-23T06:56:29.132Z</time></trkpt><trkpt lat="46.1373831" lon="9.371385"><ele>206.0</ele><time>2026-04-23T06:56:31.131Z</time></trkpt><trkpt lat="46.1374409" lon="9.3714961"><ele>206.0</ele><time>2026-04-23T06:56:33.131Z</time></trkpt><trkpt lat="46.1374721" lon="9.371629"><ele>206.0</ele><time>2026-04-23T06:56:35.131Z</time></trkpt><trkpt lat="46.1375214" lon="9.3717367"><ele>205.20000000000002</ele><time>2026-04-23T06:56:37.131Z</time></trkpt><trkpt lat="46.1375648" lon="9.371858"><ele>204.4</ele><time>2026-04-23T06:56:39.132Z</time></trkpt><trkpt lat="46.1376025" lon="9.3719565"><ele>203.6</ele><time>2026-04-23T06:56:41.131Z</time></trkpt><trkpt lat="46.1376517" lon="9.3720517"><ele>202.8</ele><time>2026-04-23T06:56:43.132Z</time></trkpt><trkpt lat="46.1377492" lon="9.3721063"><ele>202.0</ele><time>2026-04-23T06:56:45.131Z</time></trkpt><trkpt lat="46.1378366" lon="9.3721649"><ele>202.16666666666666</ele><time>2026-04-23T06:56:47.131Z</time></trkpt><trkpt lat="46.1379353" lon="9.37221"><ele>202.33333333333331</ele><time>2026-04-23T06:56:49.131Z</time></trkpt><trkpt lat="46.138001" lon="9.3722757"><ele>202.5</ele><time>2026-04-23T06:56:51.132Z</time></trkpt><trkpt lat="46.1380639" lon="9.372334"><ele>202.66666666666669</ele><time>2026-04-23T06:56:53.131Z</time></trkpt><trkpt lat="46.138132" lon="9.3723618"><ele>202.83333333333334</ele><time>2026-04-23T06:56:55.131Z</time></trkpt><trkpt lat="46.1381949" lon="9.3724045"><ele>203.0</ele><time>2026-04-23T06:56:57.131Z</time></trkpt><trkpt lat="46.1382737" lon="9.3724605"><ele>202.2</ele><time>2026-04-23T06:56:59.131Z</time></trkpt><trkpt lat="46.1383543" lon="9.3725247"><ele>201.4</ele><time>2026-04-23T06:57:01.131Z</time></trkpt><trkpt lat="46.138424" lon="9.3726066"><ele>200.6</ele><time>2026-04-23T06:57:03.132Z</time></trkpt><trkpt lat="46.1384426" lon="9.372724"><ele>199.79999999999998</ele><time>2026-04-23T06:57:05.131Z</time></trkpt><trkpt lat="46.1384546" lon="9.3728584"><ele>199.0</ele><time>2026-04-23T06:57:07.131Z</time></trkpt><trkpt lat="46.1384633" lon="9.372989"><ele>199.39999999999998</ele><time>2026-04-23T06:57:09.131Z</time></trkpt><trkpt lat="46.1384757" lon="9.3731326"><ele>199.8</ele><time>2026-04-23T06:57:11.131Z</time></trkpt><trkpt lat="46.1384927" lon="9.3732767"><ele>200.2</ele><time>2026-04-23T06:57:13.132Z</time></trkpt><trkpt lat="46.1384987" lon="9.3734157"><ele>200.60000000000002</ele><time>2026-04-23T06:57:15.132Z</time></trkpt><trkpt lat="46.1385131" lon="9.3735536"><ele>201.0</ele><time>2026-04-23T06:57:17.131Z</time></trkpt><trkpt lat="46.138528" lon="9.3736884"><ele>201.0</ele><time>2026-04-23T06:57:19.132Z</time></trkpt><trkpt lat="46.1385421" lon="9.373813"><ele>201.0</ele><time>2026-04-23T06:57:21.131Z</time></trkpt><trkpt lat="46.1385534" lon="9.3739442"><ele>201.0</ele><time>2026-04-23T06:57:23.131Z</time></trkpt><trkpt lat="46.1385655" lon="9.3740621"><ele>201.0</ele><time>2026-04-23T06:57:25.131Z</time></trkpt><trkpt lat="46.1385752" lon="9.3741951"><ele>201.0</ele><time>2026-04-23T06:57:27.132Z</time></trkpt><trkpt lat="46.1385833" lon="9.3743196"><ele>201.0</ele><time>2026-04-23T06:57:29.13Z</time></trkpt><trkpt lat="46.1385895" lon="9.3744437"><ele>201.5</ele><time>2026-04-23T06:57:31.133Z</time></trkpt><trkpt lat="46.138559" lon="9.3745509"><ele>202.0</ele><time>2026-04-23T06:57:35.132Z</time></trkpt><trkpt lat="46.1385048" lon="9.3746242"><ele>202.5</ele><time>2026-04-23T06:57:38.131Z</time></trkpt><trkpt lat="46.1384694" lon="9.3747014"><ele>203.0</ele><time>2026-04-23T06:57:40.132Z</time></trkpt><trkpt lat="46.1384637" lon="9.3748107"><ele>203.5</ele><time>2026-04-23T06:57:42.132Z</time></trkpt><trkpt lat="46.1384979" lon="9.3749093"><ele>204.0</ele><time>2026-04-23T06:57:44.132Z</time></trkpt><trkpt lat="46.1385723" lon="9.3749657"><ele>204.6</ele><time>2026-04-23T06:57:46.131Z</time></trkpt><trkpt lat="46.1386467" lon="9.3750441"><ele>205.2</ele><time>2026-04-23T06:57:48.132Z</time></trkpt><trkpt lat="46.1387131" lon="9.3751363"><ele>205.79999999999998</ele><time>2026-04-23T06:57:50.132Z</time></trkpt><trkpt lat="46.1387741" lon="9.3752415"><ele>206.39999999999998</ele><time>2026-04-23T06:57:52.132Z</time></trkpt><trkpt lat="46.1388281" lon="9.3753518"><ele>207.0</ele><time>2026-04-23T06:57:54.132Z</time></trkpt><trkpt lat="46.1388832" lon="9.3754556"><ele>207.39999999999998</ele><time>2026-04-23T06:57:56.131Z</time></trkpt><trkpt lat="46.1389262" lon="9.375574"><ele>207.79999999999998</ele><time>2026-04-23T06:57:58.132Z</time></trkpt><trkpt lat="46.1389705" lon="9.3757101"><ele>208.2</ele><time>2026-04-23T06:58:00.132Z</time></trkpt><trkpt lat="46.1390141" lon="9.3758312"><ele>208.6</ele><time>2026-04-23T06:58:02.132Z</time></trkpt><trkpt lat="46.1390437" lon="9.3759473"><ele>209.0</ele><time>2026-04-23T06:58:04.132Z</time></trkpt><trkpt lat="46.1390676" lon="9.3760692"><ele>208.79999999999998</ele><time>2026-04-23T06:58:06.132Z</time></trkpt><trkpt lat="46.1390949" lon="9.3761866"><ele>208.6</ele><time>2026-04-23T06:58:08.132Z</time></trkpt><trkpt lat="46.1391258" lon="9.3763102"><ele>208.4</ele><time>2026-04-23T06:58:10.132Z</time></trkpt><trkpt lat="46.1391645" lon="9.3764376"><ele>208.2</ele><time>2026-04-23T06:58:12.132Z</time></trkpt><trkpt lat="46.1392112" lon="9.3765607"><ele>208.0</ele><time>2026-04-23T06:58:14.131Z</time></trkpt><trkpt lat="46.1392533" lon="9.3766931"><ele>208.0</ele><time>2026-04-23T06:58:16.132Z</time></trkpt><trkpt lat="46.1392928" lon="9.3768182"><ele>208.0</ele><time>2026-04-23T06:58:18.132Z</time></trkpt><trkpt lat="46.1393358" lon="9.3769455"><ele>208.0</ele><time>2026-04-23T06:58:20.131Z</time></trkpt><trkpt lat="46.1393774" lon="9.3770686"><ele>208.0</ele><time>2026-04-23T06:58:22.131Z</time></trkpt><trkpt lat="46.1394262" lon="9.3771917"><ele>208.0</ele><time>2026-04-23T06:58:24.131Z</time></trkpt><trkpt lat="46.1394685" lon="9.3773259"><ele>208.2</ele><time>2026-04-23T06:58:26.132Z</time></trkpt><trkpt lat="46.1395267" lon="9.3774501"><ele>208.4</ele><time>2026-04-23T06:58:28.132Z</time></trkpt><trkpt lat="46.1395755" lon="9.3775757"><ele>208.6</ele><time>2026-04-23T06:58:30.132Z</time></trkpt><trkpt lat="46.1396424" lon="9.3777052"><ele>208.79999999999998</ele><time>2026-04-23T06:58:32.132Z</time></trkpt><trkpt lat="46.1397112" lon="9.3778321"><ele>209.0</ele><time>2026-04-23T06:58:34.133Z</time></trkpt><trkpt lat="46.1397812" lon="9.3779458"><ele>209.2</ele><time>2026-04-23T06:58:36.131Z</time></trkpt><trkpt lat="46.1398583" lon="9.3780564"><ele>209.39999999999998</ele><time>2026-04-23T06:58:38.132Z</time></trkpt><trkpt lat="46.1399267" lon="9.3781551"><ele>209.6</ele><time>2026-04-23T06:58:40.132Z</time></trkpt><trkpt lat="46.1399752" lon="9.3782551"><ele>209.8</ele><time>2026-04-23T06:58:42.133Z</time></trkpt><trkpt lat="46.1400155" lon="9.378354"><ele>210.0</ele><time>2026-04-23T06:58:44.133Z</time></trkpt><trkpt lat="46.1400529" lon="9.3784718"><ele>210.0</ele><time>2026-04-23T06:58:46.131Z</time></trkpt><trkpt lat="46.1400931" lon="9.3785915"><ele>210.0</ele><time>2026-04-23T06:58:48.132Z</time></trkpt><trkpt lat="46.1401293" lon="9.3787117"><ele>210.0</ele><time>2026-04-23T06:58:50.132Z</time></trkpt><trkpt lat="46.1401633" lon="9.3788355"><ele>210.0</ele><time>2026-04-23T06:58:52.131Z</time></trkpt><trkpt lat="46.1401903" lon="9.3789672"><ele>210.0</ele><time>2026-04-23T06:58:54.132Z</time></trkpt><trkpt lat="46.1402245" lon="9.3791163"><ele>210.0</ele><time>2026-04-23T06:58:56.131Z</time></trkpt><trkpt lat="46.1402596" lon="9.3792728"><ele>210.0</ele><time>2026-04-23T06:58:58.132Z</time></trkpt><trkpt lat="46.140289" lon="9.379432"><ele>210.0</ele><time>2026-04-23T06:59:00.132Z</time></trkpt><trkpt lat="46.1403259" lon="9.3795839"><ele>210.0</ele><time>2026-04-23T06:59:02.132Z</time></trkpt><trkpt lat="46.1403637" lon="9.3797273"><ele>210.0</ele><time>2026-04-23T06:59:04.133Z</time></trkpt><trkpt lat="46.1404094" lon="9.3798878"><ele>210.4</ele><time>2026-04-23T06:59:06.133Z</time></trkpt><trkpt lat="46.1404495" lon="9.3800369"><ele>210.8</ele><time>2026-04-23T06:59:08.131Z</time></trkpt><trkpt lat="46.1404845" lon="9.3802008"><ele>211.2</ele><time>2026-04-23T06:59:10.132Z</time></trkpt><trkpt lat="46.1405245" lon="9.380336"><ele>211.6</ele><time>2026-04-23T06:59:12.132Z</time></trkpt><trkpt lat="46.1405583" lon="9.3804789"><ele>212.0</ele><time>2026-04-23T06:59:14.131Z</time></trkpt><trkpt lat="46.140586" lon="9.3806141"><ele>211.8</ele><time>2026-04-23T06:59:16.133Z</time></trkpt><trkpt lat="46.1406153" lon="9.3807687"><ele>211.6</ele><time>2026-04-23T06:59:18.132Z</time></trkpt><trkpt lat="46.1406524" lon="9.3809097"><ele>211.4</ele><time>2026-04-23T06:59:20.132Z</time></trkpt><trkpt lat="46.1406788" lon="9.381054"><ele>211.20000000000002</ele><time>2026-04-23T06:59:22.132Z</time></trkpt><trkpt lat="46.1406878" lon="9.3811468"><ele>211.0</ele><time>2026-04-23T06:59:23.133Z</time></trkpt><trkpt lat="46.1407168" lon="9.3812972"><ele>210.8</ele><time>2026-04-23T06:59:25.133Z</time></trkpt><trkpt lat="46.1407442" lon="9.3814222"><ele>210.60000000000002</ele><time>2026-04-23T06:59:27.133Z</time></trkpt><trkpt lat="46.1407708" lon="9.3815594"><ele>210.4</ele><time>2026-04-23T06:59:29.133Z</time></trkpt><trkpt lat="46.1408008" lon="9.3817176"><ele>210.2</ele><time>2026-04-23T06:59:31.133Z</time></trkpt><trkpt lat="46.1408358" lon="9.3818655"><ele>210.0</ele><time>2026-04-23T06:59:33.133Z</time></trkpt><trkpt lat="46.1408674" lon="9.3820181"><ele>210.0</ele><time>2026-04-23T06:59:35.132Z</time></trkpt><trkpt lat="46.1409029" lon="9.3821633"><ele>210.0</ele><time>2026-04-23T06:59:37.132Z</time></trkpt><trkpt lat="46.1409394" lon="9.3823034"><ele>210.0</ele><time>2026-04-23T06:59:39.132Z</time></trkpt><trkpt lat="46.1409698" lon="9.3824419"><ele>210.0</ele><time>2026-04-23T06:59:41.133Z</time></trkpt><trkpt lat="46.1409974" lon="9.3825833"><ele>210.0</ele><time>2026-04-23T06:59:43.132Z</time></trkpt><trkpt lat="46.1410268" lon="9.382713"><ele>210.4</ele><time>2026-04-23T06:59:45.132Z</time></trkpt><trkpt lat="46.1410667" lon="9.382847"><ele>210.8</ele><time>2026-04-23T06:59:47.133Z</time></trkpt><trkpt lat="46.1411085" lon="9.3829779"><ele>211.2</ele><time>2026-04-23T06:59:49.133Z</time></trkpt><trkpt lat="46.1411785" lon="9.3830711"><ele>211.6</ele><time>2026-04-23T06:59:51.131Z</time></trkpt><trkpt lat="46.14127" lon="9.3830989"><ele>212.0</ele><time>2026-04-23T06:59:53.132Z</time></trkpt><trkpt lat="46.1413664" lon="9.3830818"><ele>212.2</ele><time>2026-04-23T06:59:55.132Z</time></trkpt><trkpt lat="46.1414566" lon="9.3830737"><ele>212.39999999999998</ele><time>2026-04-23T06:59:57.132Z</time></trkpt><trkpt lat="46.141542" lon="9.3830798"><ele>212.60000000000002</ele><time>2026-04-23T06:59:59.133Z</time></trkpt><trkpt lat="46.1416322" lon="9.3831273"><ele>212.8</ele><time>2026-04-23T07:00:01.131Z</time></trkpt><trkpt lat="46.1417083" lon="9.3832016"><ele>213.0</ele><time>2026-04-23T07:00:03.132Z</time></trkpt><trkpt lat="46.1417789" lon="9.3832936"><ele>212.33333333333334</ele><time>2026-04-23T07:00:05.133Z</time></trkpt><trkpt lat="46.1418232" lon="9.3834042"><ele>211.66666666666669</ele><time>2026-04-23T07:00:07.133Z</time></trkpt><trkpt lat="46.1418431" lon="9.3835309"><ele>211.0</ele><time>2026-04-23T07:00:09.132Z</time></trkpt><trkpt lat="46.1418484" lon="9.3836631"><ele>210.33333333333334</ele><time>2026-04-23T07:00:11.132Z</time></trkpt><trkpt lat="46.1418392" lon="9.3837695"><ele>209.66666666666669</ele><time>2026-04-23T07:00:13.133Z</time></trkpt><trkpt lat="46.1418298" lon="9.3838872"><ele>209.0</ele><time>2026-04-23T07:00:16.132Z</time></trkpt><trkpt lat="46.141785" lon="9.3839975"><ele>209.0</ele><time>2026-04-23T07:00:19.131Z</time></trkpt><trkpt lat="46.1417296" lon="9.3840788"><ele>209.0</ele><time>2026-04-23T07:00:22.132Z</time></trkpt><trkpt lat="46.1416772" lon="9.3841389"><ele>209.0</ele><time>2026-04-23T07:00:25.133Z</time></trkpt><trkpt lat="46.141615" lon="9.3841963"><ele>209.0</ele><time>2026-04-23T07:00:29.131Z</time></trkpt><trkpt lat="46.1415471" lon="9.3842193"><ele>209.0</ele><time>2026-04-23T07:00:33.132Z</time></trkpt><trkpt lat="46.1414837" lon="9.384243"><ele>209.0</ele><time>2026-04-23T07:00:36.133Z</time></trkpt><trkpt lat="46.1414084" lon="9.3842753"><ele>209.0</ele><time>2026-04-23T07:00:40.131Z</time></trkpt><trkpt lat="46.1413295" lon="9.384305"><ele>209.79999999999998</ele><time>2026-04-23T07:00:43.132Z</time></trkpt><trkpt lat="46.1412533" lon="9.3843308"><ele>210.6</ele><time>2026-04-23T07:00:46.133Z</time></trkpt><trkpt lat="46.1411946" lon="9.3843671"><ele>211.4</ele><time>2026-04-23T07:00:48.132Z</time></trkpt><trkpt lat="46.1411147" lon="9.3843917"><ele>212.2</ele><time>2026-04-23T07:00:50.132Z</time></trkpt><trkpt lat="46.1410048" lon="9.3844186"><ele>213.0</ele><time>2026-04-23T07:00:52.132Z</time></trkpt><trkpt lat="46.1408802" lon="9.38446"><ele>213.0</ele><time>2026-04-23T07:00:54.133Z</time></trkpt><trkpt lat="46.1408123" lon="9.3844904"><ele>213.0</ele><time>2026-04-23T07:00:55.131Z</time></trkpt><trkpt lat="46.1407408" lon="9.3845205"><ele>213.0</ele><time>2026-04-23T07:00:56.133Z</time></trkpt><trkpt lat="46.1406671" lon="9.3845412"><ele>213.0</ele><time>2026-04-23T07:00:57.133Z</time></trkpt><trkpt lat="46.1405917" lon="9.3845743"><ele>213.0</ele><time>2026-04-23T07:00:58.132Z</time></trkpt><trkpt lat="46.1405207" lon="9.3846102"><ele>213.0</ele><time>2026-04-23T07:00:59.133Z</time></trkpt><trkpt lat="46.1404462" lon="9.384634"><ele>213.83333333333334</ele><time>2026-04-23T07:01:00.132Z</time></trkpt><trkpt lat="46.1403377" lon="9.384684"><ele>214.66666666666669</ele><time>2026-04-23T07:01:02.133Z</time></trkpt><trkpt lat="46.1402516" lon="9.3847449"><ele>215.5</ele><time>2026-04-23T07:01:04.131Z</time></trkpt><trkpt lat="46.1402059" lon="9.3848209"><ele>216.33333333333334</ele><time>2026-04-23T07:01:06.133Z</time></trkpt><trkpt lat="46.1402193" lon="9.3849304"><ele>217.16666666666669</ele><time>2026-04-23T07:01:08.133Z</time></trkpt><trkpt lat="46.1402514" lon="9.3850457"><ele>218.0</ele><time>2026-04-23T07:01:10.133Z</time></trkpt><trkpt lat="46.1402884" lon="9.3851911"><ele>218.0</ele><time>2026-04-23T07:01:12.133Z</time></trkpt><trkpt lat="46.1403321" lon="9.3853373"><ele>218.0</ele><time>2026-04-23T07:01:14.132Z</time></trkpt><trkpt lat="46.140367" lon="9.3854707"><ele>218.0</ele><time>2026-04-23T07:01:16.132Z</time></trkpt><trkpt lat="46.1404153" lon="9.385609"><ele>218.0</ele><time>2026-04-23T07:01:18.131Z</time></trkpt><trkpt lat="46.1404607" lon="9.38575"><ele>218.0</ele><time>2026-04-23T07:01:20.132Z</time></trkpt><trkpt lat="46.1405079" lon="9.3859009"><ele>218.25</ele><time>2026-04-23T07:01:22.133Z</time></trkpt><trkpt lat="46.1405651" lon="9.3860493"><ele>218.5</ele><time>2026-04-23T07:01:24.133Z</time></trkpt><trkpt lat="46.1406088" lon="9.3862052"><ele>218.75</ele><time>2026-04-23T07:01:26.132Z</time></trkpt><trkpt lat="46.1406582" lon="9.386358"><ele>219.0</ele><time>2026-04-23T07:01:28.133Z</time></trkpt><trkpt lat="46.1407018" lon="9.3865047"><ele>218.2</ele><time>2026-04-23T07:01:30.133Z</time></trkpt><trkpt lat="46.1407331" lon="9.386637"><ele>217.39999999999998</ele><time>2026-04-23T07:01:32.134Z</time></trkpt><trkpt lat="46.1407697" lon="9.3867681"><ele>216.6</ele><time>2026-04-23T07:01:34.133Z</time></trkpt><trkpt lat="46.1408099" lon="9.3869026"><ele>215.8</ele><time>2026-04-23T07:01:36.132Z</time></trkpt><trkpt lat="46.1408538" lon="9.3870345"><ele>215.0</ele><time>2026-04-23T07:01:38.132Z</time></trkpt><trkpt lat="46.1409042" lon="9.3871623"><ele>214.83333333333334</ele><time>2026-04-23T07:01:40.133Z</time></trkpt><trkpt lat="46.1409367" lon="9.387281"><ele>214.66666666666669</ele><time>2026-04-23T07:01:42.133Z</time></trkpt><trkpt lat="46.1409765" lon="9.3873994"><ele>214.5</ele><time>2026-04-23T07:01:44.132Z</time></trkpt><trkpt lat="46.1410146" lon="9.3875066"><ele>214.33333333333331</ele><time>2026-04-23T07:01:46.133Z</time></trkpt><trkpt lat="46.1410668" lon="9.3876116"><ele>214.16666666666666</ele><time>2026-04-23T07:01:48.133Z</time></trkpt><trkpt lat="46.1411013" lon="9.3877406"><ele>214.0</ele><time>2026-04-23T07:01:50.133Z</time></trkpt><trkpt lat="46.141134" lon="9.387898"><ele>214.0</ele><time>2026-04-23T07:01:52.133Z</time></trkpt><trkpt lat="46.1411891" lon="9.3880288"><ele>213.99999999999997</ele><time>2026-04-23T07:01:54.133Z</time></trkpt><trkpt lat="46.1412433" lon="9.3881643"><ele>213.99999999999997</ele><time>2026-04-23T07:01:56.133Z</time></trkpt><trkpt lat="46.1413031" lon="9.3882912"><ele>214.0</ele><time>2026-04-23T07:01:58.132Z</time></trkpt><trkpt lat="46.1413511" lon="9.3884322"><ele>214.0</ele><time>2026-04-23T07:02:00.132Z</time></trkpt><trkpt lat="46.141391" lon="9.3885816"><ele>214.0</ele><time>2026-04-23T07:02:02.132Z</time></trkpt><trkpt lat="46.1414212" lon="9.3887272"><ele>214.0</ele><time>2026-04-23T07:02:04.132Z</time></trkpt><trkpt lat="46.1414665" lon="9.3888716"><ele>214.0</ele><time>2026-04-23T07:02:06.132Z</time></trkpt><trkpt lat="46.1414878" lon="9.3890448"><ele>214.0</ele><time>2026-04-23T07:02:08.133Z</time></trkpt><trkpt lat="46.1415287" lon="9.389225"><ele>213.39999999999998</ele><time>2026-04-23T07:02:10.133Z</time></trkpt><trkpt lat="46.1415494" lon="9.3893144"><ele>212.79999999999998</ele><time>2026-04-23T07:02:11.134Z</time></trkpt><trkpt lat="46.1415978" lon="9.3894771"><ele>212.2</ele><time>2026-04-23T07:02:13.133Z</time></trkpt><trkpt lat="46.1416614" lon="9.3896254"><ele>211.60000000000002</ele><time>2026-04-23T07:02:15.132Z</time></trkpt><trkpt lat="46.1417315" lon="9.3897656"><ele>211.0</ele><time>2026-04-23T07:02:17.133Z</time></trkpt><trkpt lat="46.1417798" lon="9.3899093"><ele>211.0</ele><time>2026-04-23T07:02:19.132Z</time></trkpt><trkpt lat="46.1418319" lon="9.3900542"><ele>211.0</ele><time>2026-04-23T07:02:21.132Z</time></trkpt><trkpt lat="46.1418615" lon="9.3902067"><ele>211.0</ele><time>2026-04-23T07:02:23.132Z</time></trkpt><trkpt lat="46.1418626" lon="9.3903538"><ele>211.0</ele><time>2026-04-23T07:02:25.132Z</time></trkpt><trkpt lat="46.1418437" lon="9.3905063"><ele>211.0</ele><time>2026-04-23T07:02:27.132Z</time></trkpt><trkpt lat="46.1418256" lon="9.3906731"><ele>211.0</ele><time>2026-04-23T07:02:29.133Z</time></trkpt><trkpt lat="46.1417993" lon="9.3908475"><ele>211.0</ele><time>2026-04-23T07:02:31.132Z</time></trkpt><trkpt lat="46.141775" lon="9.3910144"><ele>211.0</ele><time>2026-04-23T07:02:33.132Z</time></trkpt><trkpt lat="46.1417501" lon="9.3911711"><ele>211.0</ele><time>2026-04-23T07:02:35.133Z</time></trkpt><trkpt lat="46.1417251" lon="9.3913147"><ele>211.16666666666666</ele><time>2026-04-23T07:02:37.133Z</time></trkpt><trkpt lat="46.1416971" lon="9.3914369"><ele>211.33333333333331</ele><time>2026-04-23T07:02:39.133Z</time></trkpt><trkpt lat="46.141674" lon="9.3915683"><ele>211.5</ele><time>2026-04-23T07:02:41.134Z</time></trkpt><trkpt lat="46.1416097" lon="9.3916575"><ele>211.66666666666669</ele><time>2026-04-23T07:02:43.133Z</time></trkpt><trkpt lat="46.1415319" lon="9.3916748"><ele>211.83333333333334</ele><time>2026-04-23T07:02:45.133Z</time></trkpt><trkpt lat="46.1414521" lon="9.3917029"><ele>212.0</ele><time>2026-04-23T07:02:47.132Z</time></trkpt><trkpt lat="46.1413696" lon="9.391712"><ele>212.2</ele><time>2026-04-23T07:02:49.133Z</time></trkpt><trkpt lat="46.1412836" lon="9.3916986"><ele>212.39999999999998</ele><time>2026-04-23T07:02:51.133Z</time></trkpt><trkpt lat="46.1411548" lon="9.391677"><ele>212.60000000000002</ele><time>2026-04-23T07:02:54.133Z</time></trkpt><trkpt lat="46.1410797" lon="9.3916667"><ele>212.8</ele><time>2026-04-23T07:02:56.133Z</time></trkpt><trkpt lat="46.1409999" lon="9.3916526"><ele>213.0</ele><time>2026-04-23T07:02:58.133Z</time></trkpt><trkpt lat="46.1409146" lon="9.3916115"><ele>213.0</ele><time>2026-04-23T07:03:00.133Z</time></trkpt><trkpt lat="46.1408204" lon="9.3915532"><ele>213.0</ele><time>2026-04-23T07:03:02.133Z</time></trkpt><trkpt lat="46.14073" lon="9.39151"><ele>213.0</ele><time>2026-04-23T07:03:04.133Z</time></trkpt><trkpt lat="46.1406407" lon="9.3914877"><ele>213.0</ele><time>2026-04-23T07:03:06.133Z</time></trkpt><trkpt lat="46.1405596" lon="9.3914667"><ele>213.0</ele><time>2026-04-23T07:03:08.133Z</time></trkpt><trkpt lat="46.1404781" lon="9.3914519"><ele>213.66666666666666</ele><time>2026-04-23T07:03:10.132Z</time></trkpt><trkpt lat="46.1403899" lon="9.3914333"><ele>214.33333333333331</ele><time>2026-04-23T07:03:12.134Z</time></trkpt><trkpt lat="46.1403056" lon="9.3914119"><ele>215.0</ele><time>2026-04-23T07:03:14.134Z</time></trkpt><trkpt lat="46.1402269" lon="9.3913871"><ele>215.66666666666666</ele><time>2026-04-23T07:03:16.134Z</time></trkpt><trkpt lat="46.1401612" lon="9.3913738"><ele>216.33333333333331</ele><time>2026-04-23T07:03:18.133Z</time></trkpt><trkpt lat="46.1400919" lon="9.3913395"><ele>217.0</ele><time>2026-04-23T07:03:21.133Z</time></trkpt><trkpt lat="46.1400286" lon="9.3913816"><ele>216.99999999999997</ele><time>2026-04-23T07:03:59.132Z</time></trkpt><trkpt lat="46.1400182" lon="9.3915009"><ele>217.0</ele><time>2026-04-23T07:04:02.133Z</time></trkpt><trkpt lat="46.1400192" lon="9.3916383"><ele>217.0</ele><time>2026-04-23T07:04:05.134Z</time></trkpt><trkpt lat="46.1400143" lon="9.3917406"><ele>217.0</ele><time>2026-04-23T07:04:07.133Z</time></trkpt><trkpt lat="46.1400155" lon="9.3918615"><ele>216.99999999999997</ele><time>2026-04-23T07:04:09.133Z</time></trkpt><trkpt lat="46.1400189" lon="9.3919878"><ele>217.0</ele><time>2026-04-23T07:04:11.132Z</time></trkpt><trkpt lat="46.1400249" lon="9.3921383"><ele>217.39999999999998</ele><time>2026-04-23T07:04:13.134Z</time></trkpt><trkpt lat="46.1400399" lon="9.3922805"><ele>217.79999999999998</ele><time>2026-04-23T07:04:15.132Z</time></trkpt><trkpt lat="46.1400417" lon="9.3924327"><ele>218.2</ele><time>2026-04-23T07:04:17.132Z</time></trkpt><trkpt lat="46.1400359" lon="9.3926037"><ele>218.6</ele><time>2026-04-23T07:04:19.134Z</time></trkpt><trkpt lat="46.1400462" lon="9.3927703"><ele>219.0</ele><time>2026-04-23T07:04:21.132Z</time></trkpt><trkpt lat="46.1400503" lon="9.3929431"><ele>218.75</ele><time>2026-04-23T07:04:23.132Z</time></trkpt><trkpt lat="46.1400547" lon="9.3931097"><ele>218.5</ele><time>2026-04-23T07:04:25.135Z</time></trkpt><trkpt lat="46.140054" lon="9.3932811"><ele>218.25</ele><time>2026-04-23T07:04:27.135Z</time></trkpt><trkpt lat="46.1400584" lon="9.3934484"><ele>218.0</ele><time>2026-04-23T07:04:29.132Z</time></trkpt><trkpt lat="46.1400489" lon="9.3936108"><ele>218.0</ele><time>2026-04-23T07:04:31.133Z</time></trkpt><trkpt lat="46.1400066" lon="9.3937786"><ele>218.0</ele><time>2026-04-23T07:04:33.134Z</time></trkpt><trkpt lat="46.1399695" lon="9.393946"><ele>218.0</ele><time>2026-04-23T07:04:35.133Z</time></trkpt><trkpt lat="46.1399519" lon="9.3940351"><ele>218.0</ele><time>2026-04-23T07:04:36.132Z</time></trkpt><trkpt lat="46.1399416" lon="9.3941286"><ele>218.0</ele><time>2026-04-23T07:04:37.133Z</time></trkpt><trkpt lat="46.1399107" lon="9.3943044"><ele>218.00000000000003</ele><time>2026-04-23T07:04:39.133Z</time></trkpt><trkpt lat="46.1398933" lon="9.3943984"><ele>218.0</ele><time>2026-04-23T07:04:40.132Z</time></trkpt><trkpt lat="46.1398739" lon="9.3944876"><ele>218.0</ele><time>2026-04-23T07:04:41.133Z</time></trkpt><trkpt lat="46.1398373" lon="9.394645"><ele>218.0</ele><time>2026-04-23T07:04:43.132Z</time></trkpt><trkpt lat="46.1397975" lon="9.3948079"><ele>218.00000000000003</ele><time>2026-04-23T07:04:45.133Z</time></trkpt><trkpt lat="46.1397712" lon="9.3948933"><ele>218.0</ele><time>2026-04-23T07:04:46.132Z</time></trkpt><trkpt lat="46.1397327" lon="9.3950623"><ele>217.8</ele><time>2026-04-23T07:04:48.133Z</time></trkpt><trkpt lat="46.1396969" lon="9.3952309"><ele>217.60000000000002</ele><time>2026-04-23T07:04:50.134Z</time></trkpt><trkpt lat="46.1396563" lon="9.395394"><ele>217.39999999999998</ele><time>2026-04-23T07:04:52.134Z</time></trkpt><trkpt lat="46.139634" lon="9.3954802"><ele>217.2</ele><time>2026-04-23T07:04:53.133Z</time></trkpt><trkpt lat="46.139614" lon="9.3955694"><ele>217.0</ele><time>2026-04-23T07:04:54.133Z</time></trkpt><trkpt lat="46.1395718" lon="9.3957349"><ele>217.0</ele><time>2026-04-23T07:04:56.134Z</time></trkpt><trkpt lat="46.1395486" lon="9.3958201"><ele>217.0</ele><time>2026-04-23T07:04:57.133Z</time></trkpt><trkpt lat="46.1395244" lon="9.3959047"><ele>217.0</ele><time>2026-04-23T07:04:58.134Z</time></trkpt><trkpt lat="46.1394783" lon="9.3960697"><ele>217.0</ele><time>2026-04-23T07:05:00.134Z</time></trkpt><trkpt lat="46.1394468" lon="9.3962428"><ele>217.0</ele><time>2026-04-23T07:05:02.133Z</time></trkpt><trkpt lat="46.1394019" lon="9.3964061"><ele>217.0</ele><time>2026-04-23T07:05:04.132Z</time></trkpt><trkpt lat="46.1393517" lon="9.3965615"><ele>217.0</ele><time>2026-04-23T07:05:06.133Z</time></trkpt><trkpt lat="46.1393063" lon="9.396715"><ele>217.0</ele><time>2026-04-23T07:05:08.134Z</time></trkpt><trkpt lat="46.1392684" lon="9.3968751"><ele>217.0</ele><time>2026-04-23T07:05:10.134Z</time></trkpt><trkpt lat="46.1392292" lon="9.3970293"><ele>216.75</ele><time>2026-04-23T07:05:12.133Z</time></trkpt><trkpt lat="46.1391846" lon="9.3971874"><ele>216.5</ele><time>2026-04-23T07:05:14.134Z</time></trkpt><trkpt lat="46.139145" lon="9.3973581"><ele>216.25</ele><time>2026-04-23T07:05:16.134Z</time></trkpt><trkpt lat="46.1391074" lon="9.3975232"><ele>216.0</ele><time>2026-04-23T07:05:18.133Z</time></trkpt><trkpt lat="46.1390732" lon="9.3976936"><ele>216.4</ele><time>2026-04-23T07:05:20.132Z</time></trkpt><trkpt lat="46.1390292" lon="9.3978492"><ele>216.8</ele><time>2026-04-23T07:05:22.134Z</time></trkpt><trkpt lat="46.1390104" lon="9.397939"><ele>217.20000000000002</ele><time>2026-04-23T07:05:23.132Z</time></trkpt><trkpt lat="46.1389676" lon="9.3981062"><ele>217.60000000000002</ele><time>2026-04-23T07:05:25.134Z</time></trkpt><trkpt lat="46.1389258" lon="9.3982665"><ele>218.0</ele><time>2026-04-23T07:05:27.133Z</time></trkpt><trkpt lat="46.138885" lon="9.3984338"><ele>218.00000000000003</ele><time>2026-04-23T07:05:29.134Z</time></trkpt><trkpt lat="46.1388624" lon="9.3985216"><ele>218.0</ele><time>2026-04-23T07:05:30.133Z</time></trkpt><trkpt lat="46.1388398" lon="9.3986098"><ele>218.0</ele><time>2026-04-23T07:05:31.134Z</time></trkpt><trkpt lat="46.1387958" lon="9.3987662"><ele>218.0</ele><time>2026-04-23T07:05:33.134Z</time></trkpt><trkpt lat="46.1387526" lon="9.3989381"><ele>218.00000000000003</ele><time>2026-04-23T07:05:35.133Z</time></trkpt><trkpt lat="46.1387359" lon="9.3990288"><ele>218.0</ele><time>2026-04-23T07:05:36.133Z</time></trkpt><trkpt lat="46.138708" lon="9.3991194"><ele>217.8</ele><time>2026-04-23T07:05:37.133Z</time></trkpt><trkpt lat="46.1386817" lon="9.399203"><ele>217.60000000000002</ele><time>2026-04-23T07:05:38.134Z</time></trkpt><trkpt lat="46.1386348" lon="9.3993641"><ele>217.39999999999998</ele><time>2026-04-23T07:05:40.133Z</time></trkpt><trkpt lat="46.1385915" lon="9.399528"><ele>217.2</ele><time>2026-04-23T07:05:42.134Z</time></trkpt><trkpt lat="46.1385731" lon="9.3996176"><ele>217.0</ele><time>2026-04-23T07:05:43.134Z</time></trkpt><trkpt lat="46.1385298" lon="9.3997849"><ele>216.49999999999997</ele><time>2026-04-23T07:05:45.133Z</time></trkpt><trkpt lat="46.1385097" lon="9.3998747"><ele>216.0</ele><time>2026-04-23T07:05:46.133Z</time></trkpt><trkpt lat="46.1384809" lon="9.399962"><ele>215.5</ele><time>2026-04-23T07:05:47.134Z</time></trkpt><trkpt lat="46.1384574" lon="9.4000476"><ele>215.0</ele><time>2026-04-23T07:05:48.134Z</time></trkpt><trkpt lat="46.1384177" lon="9.4002081"><ele>214.49999999999997</ele><time>2026-04-23T07:05:50.133Z</time></trkpt><trkpt lat="46.1383747" lon="9.4003714"><ele>214.0</ele><time>2026-04-23T07:05:52.134Z</time></trkpt><trkpt lat="46.1383297" lon="9.4005372"><ele>213.5</ele><time>2026-04-23T07:05:54.134Z</time></trkpt><trkpt lat="46.1382861" lon="9.4007015"><ele>213.0</ele><time>2026-04-23T07:05:56.134Z</time></trkpt><trkpt lat="46.138245" lon="9.400866"><ele>212.5</ele><time>2026-04-23T07:05:58.134Z</time></trkpt><trkpt lat="46.1382111" lon="9.4010258"><ele>212.0</ele><time>2026-04-23T07:06:00.133Z</time></trkpt><trkpt lat="46.1381845" lon="9.4011897"><ele>212.0</ele><time>2026-04-23T07:06:02.133Z</time></trkpt><trkpt lat="46.1381671" lon="9.4013436"><ele>212.0</ele><time>2026-04-23T07:06:04.134Z</time></trkpt><trkpt lat="46.138148" lon="9.4014979"><ele>212.0</ele><time>2026-04-23T07:06:06.132Z</time></trkpt><trkpt lat="46.1381704" lon="9.4016496"><ele>212.0</ele><time>2026-04-23T07:06:08.133Z</time></trkpt><trkpt lat="46.1382609" lon="9.4017345"><ele>212.0</ele><time>2026-04-23T07:06:10.133Z</time></trkpt><trkpt lat="46.1383689" lon="9.401782"><ele>212.0</ele><time>2026-04-23T07:06:12.133Z</time></trkpt><trkpt lat="46.1384843" lon="9.4018309"><ele>212.0</ele><time>2026-04-23T07:06:14.133Z</time></trkpt><trkpt lat="46.1385999" lon="9.4018925"><ele>212.0</ele><time>2026-04-23T07:06:16.134Z</time></trkpt><trkpt lat="46.138712" lon="9.4019326"><ele>212.0</ele><time>2026-04-23T07:06:18.134Z</time></trkpt><trkpt lat="46.1387782" lon="9.4019487"><ele>212.0</ele><time>2026-04-23T07:06:19.134Z</time></trkpt><trkpt lat="46.138841" lon="9.4019668"><ele>212.00000000000003</ele><time>2026-04-23T07:06:20.133Z</time></trkpt><trkpt lat="46.1389613" lon="9.4020047"><ele>212.0</ele><time>2026-04-23T07:06:22.134Z</time></trkpt><trkpt lat="46.1390745" lon="9.4020536"><ele>212.0</ele><time>2026-04-23T07:06:24.133Z</time></trkpt><trkpt lat="46.1391373" lon="9.4020712"><ele>212.0</ele><time>2026-04-23T07:06:25.133Z</time></trkpt><trkpt lat="46.1392015" lon="9.4020865"><ele>212.00000000000003</ele><time>2026-04-23T07:06:26.133Z</time></trkpt><trkpt lat="46.1392703" lon="9.402102"><ele>212.0</ele><time>2026-04-23T07:06:27.134Z</time></trkpt><trkpt lat="46.1393359" lon="9.4021177"><ele>212.00000000000003</ele><time>2026-04-23T07:06:28.133Z</time></trkpt><trkpt lat="46.1394016" lon="9.4021313"><ele>212.0</ele><time>2026-04-23T07:06:29.133Z</time></trkpt><trkpt lat="46.139467" lon="9.4021665"><ele>212.0</ele><time>2026-04-23T07:06:30.134Z</time></trkpt><trkpt lat="46.1395339" lon="9.4022073"><ele>212.0</ele><time>2026-04-23T07:06:31.133Z</time></trkpt><trkpt lat="46.1396008" lon="9.4022332"><ele>212.00000000000003</ele><time>2026-04-23T07:06:32.133Z</time></trkpt><trkpt lat="46.1396635" lon="9.4022584"><ele>212.0</ele><time>2026-04-23T07:06:33.133Z</time></trkpt><trkpt lat="46.1397824" lon="9.4023128"><ele>211.39999999999998</ele><time>2026-04-23T07:06:35.133Z</time></trkpt><trkpt lat="46.1398897" lon="9.4023399"><ele>210.79999999999998</ele><time>2026-04-23T07:06:37.133Z</time></trkpt><trkpt lat="46.1400062" lon="9.4023996"><ele>210.2</ele><time>2026-04-23T07:06:39.134Z</time></trkpt><trkpt lat="46.1401265" lon="9.4024514"><ele>209.6</ele><time>2026-04-23T07:06:41.133Z</time></trkpt><trkpt lat="46.1401913" lon="9.4024736"><ele>209.0</ele><time>2026-04-23T07:06:42.134Z</time></trkpt><trkpt lat="46.1403075" lon="9.4025263"><ele>209.0</ele><time>2026-04-23T07:06:44.134Z</time></trkpt><trkpt lat="46.1404301" lon="9.4025754"><ele>209.0</ele><time>2026-04-23T07:06:46.133Z</time></trkpt><trkpt lat="46.1404927" lon="9.4026043"><ele>209.0</ele><time>2026-04-23T07:06:47.134Z</time></trkpt><trkpt lat="46.1406007" lon="9.4026413"><ele>209.0</ele><time>2026-04-23T07:06:49.133Z</time></trkpt><trkpt lat="46.1406814" lon="9.4026787"><ele>209.0</ele><time>2026-04-23T07:06:51.133Z</time></trkpt><trkpt lat="46.1407394" lon="9.4028071"><ele>209.0</ele><time>2026-04-23T07:06:55.133Z</time></trkpt><trkpt lat="46.1407411" lon="9.4029566"><ele>209.0</ele><time>2026-04-23T07:06:57.134Z</time></trkpt><trkpt lat="46.1407086" lon="9.4031056"><ele>209.0</ele><time>2026-04-23T07:06:59.134Z</time></trkpt><trkpt lat="46.1406893" lon="9.4032766"><ele>209.0</ele><time>2026-04-23T07:07:01.134Z</time></trkpt><trkpt lat="46.1406391" lon="9.4034447"><ele>209.0</ele><time>2026-04-23T07:07:03.134Z</time></trkpt><trkpt lat="46.1406269" lon="9.4035472"><ele>209.0</ele><time>2026-04-23T07:07:04.133Z</time></trkpt><trkpt lat="46.1405973" lon="9.4037134"><ele>209.0</ele><time>2026-04-23T07:07:06.133Z</time></trkpt><trkpt lat="46.1405723" lon="9.4038706"><ele>209.0</ele><time>2026-04-23T07:07:08.134Z</time></trkpt><trkpt lat="46.1405477" lon="9.4040248"><ele>209.0</ele><time>2026-04-23T07:07:10.134Z</time></trkpt><trkpt lat="46.1405245" lon="9.4041709"><ele>208.66666666666669</ele><time>2026-04-23T07:07:12.134Z</time></trkpt><trkpt lat="46.1405033" lon="9.4042853"><ele>208.33333333333334</ele><time>2026-04-23T07:07:14.133Z</time></trkpt><trkpt lat="46.1404807" lon="9.4043939"><ele>208.0</ele><time>2026-04-23T07:07:18.133Z</time></trkpt><trkpt lat="46.1404901" lon="9.4044999"><ele>207.66666666666669</ele><time>2026-04-23T07:07:21.134Z</time></trkpt><trkpt lat="46.1405387" lon="9.404593"><ele>207.33333333333334</ele><time>2026-04-23T07:07:23.134Z</time></trkpt><trkpt lat="46.1406217" lon="9.4046713"><ele>207.0</ele><time>2026-04-23T07:07:25.134Z</time></trkpt><trkpt lat="46.1407184" lon="9.4047084"><ele>207.0</ele><time>2026-04-23T07:07:27.134Z</time></trkpt><trkpt lat="46.1408174" lon="9.4047562"><ele>207.0</ele><time>2026-04-23T07:07:29.134Z</time></trkpt><trkpt lat="46.1409289" lon="9.4048036"><ele>207.0</ele><time>2026-04-23T07:07:31.134Z</time></trkpt><trkpt lat="46.1410467" lon="9.4048173"><ele>207.0</ele><time>2026-04-23T07:07:33.134Z</time></trkpt><trkpt lat="46.1411578" lon="9.4048261"><ele>207.0</ele><time>2026-04-23T07:07:35.133Z</time></trkpt><trkpt lat="46.1412464" lon="9.4049017"><ele>207.0</ele><time>2026-04-23T07:07:37.134Z</time></trkpt><trkpt lat="46.141289" lon="9.4050344"><ele>207.0</ele><time>2026-04-23T07:07:39.134Z</time></trkpt><trkpt lat="46.1412864" lon="9.4051821"><ele>207.0</ele><time>2026-04-23T07:07:41.133Z</time></trkpt><trkpt lat="46.1412585" lon="9.4053418"><ele>207.0</ele><time>2026-04-23T07:07:43.133Z</time></trkpt><trkpt lat="46.1412256" lon="9.405468"><ele>206.75</ele><time>2026-04-23T07:07:45.433Z</time></trkpt><trkpt lat="46.141179" lon="9.4057385"><ele>206.5</ele><time>2026-04-23T07:07:48.134Z</time></trkpt><trkpt lat="46.1411593" lon="9.4058266"><ele>206.25</ele><time>2026-04-23T07:07:49.135Z</time></trkpt><trkpt lat="46.1411245" lon="9.4059957"><ele>206.0</ele><time>2026-04-23T07:07:51.134Z</time></trkpt><trkpt lat="46.1410946" lon="9.4061705"><ele>206.0</ele><time>2026-04-23T07:07:53.135Z</time></trkpt><trkpt lat="46.1410575" lon="9.406344"><ele>206.0</ele><time>2026-04-23T07:07:55.134Z</time></trkpt><trkpt lat="46.1410377" lon="9.4064377"><ele>206.0</ele><time>2026-04-23T07:07:56.135Z</time></trkpt><trkpt lat="46.1409957" lon="9.4066157"><ele>206.0</ele><time>2026-04-23T07:07:58.135Z</time></trkpt><trkpt lat="46.1409645" lon="9.4067805"><ele>206.0</ele><time>2026-04-23T07:08:00.134Z</time></trkpt><trkpt lat="46.1409369" lon="9.4069536"><ele>206.0</ele><time>2026-04-23T07:08:02.134Z</time></trkpt><trkpt lat="46.1409213" lon="9.4070445"><ele>206.0</ele><time>2026-04-23T07:08:03.133Z</time></trkpt><trkpt lat="46.1409035" lon="9.4072197"><ele>206.0</ele><time>2026-04-23T07:08:05.133Z</time></trkpt><trkpt lat="46.1408714" lon="9.4073779"><ele>206.0</ele><time>2026-04-23T07:08:07.135Z</time></trkpt><trkpt lat="46.1408395" lon="9.4075358"><ele>206.0</ele><time>2026-04-23T07:08:09.133Z</time></trkpt><trkpt lat="46.1407991" lon="9.4076968"><ele>206.0</ele><time>2026-04-23T07:08:11.134Z</time></trkpt><trkpt lat="46.1407743" lon="9.4078531"><ele>206.0</ele><time>2026-04-23T07:08:13.133Z</time></trkpt><trkpt lat="46.1407339" lon="9.4080137"><ele>206.0</ele><time>2026-04-23T07:08:15.133Z</time></trkpt><trkpt lat="46.1406933" lon="9.4081565"><ele>206.0</ele><time>2026-04-23T07:08:17.134Z</time></trkpt><trkpt lat="46.1406715" lon="9.4082879"><ele>206.0</ele><time>2026-04-23T07:08:19.133Z</time></trkpt><trkpt lat="46.1406504" lon="9.4084205"><ele>205.50000000000003</ele><time>2026-04-23T07:08:21.134Z</time></trkpt><trkpt lat="46.1406449" lon="9.4085324"><ele>205.0</ele><time>2026-04-23T07:08:23.133Z</time></trkpt><trkpt lat="46.1406108" lon="9.4086598"><ele>204.5</ele><time>2026-04-23T07:08:25.134Z</time></trkpt><trkpt lat="46.140572" lon="9.4087773"><ele>204.0</ele><time>2026-04-23T07:08:27.134Z</time></trkpt><trkpt lat="46.1405359" lon="9.4088618"><ele>203.50000000000003</ele><time>2026-04-23T07:08:29.135Z</time></trkpt><trkpt lat="46.1405919" lon="9.4089178"><ele>203.0</ele><time>2026-04-23T07:08:33.135Z</time></trkpt><trkpt lat="46.1405982" lon="9.4087783"><ele>203.00000000000003</ele><time>2026-04-23T07:08:36.135Z</time></trkpt><trkpt lat="46.1406114" lon="9.4086752"><ele>203.0</ele><time>2026-04-23T07:08:38.134Z</time></trkpt><trkpt lat="46.1406183" lon="9.4085703"><ele>203.0</ele><time>2026-04-23T07:08:40.135Z</time></trkpt><trkpt lat="46.1406386" lon="9.4084639"><ele>203.0</ele><time>2026-04-23T07:08:42.134Z</time></trkpt><trkpt lat="46.1406708" lon="9.4083708"><ele>203.00000000000003</ele><time>2026-04-23T07:08:44.134Z</time></trkpt><trkpt lat="46.1408005" lon="9.4083373"><ele>203.0</ele><time>2026-04-23T07:08:48.135Z</time></trkpt><trkpt lat="46.1408843" lon="9.408359"><ele>203.0</ele><time>2026-04-23T07:08:50.134Z</time></trkpt><trkpt lat="46.1409722" lon="9.4084032"><ele>203.0</ele><time>2026-04-23T07:08:53.134Z</time></trkpt><trkpt lat="46.1410555" lon="9.408455"><ele>203.0</ele><time>2026-04-23T07:08:54.134Z</time></trkpt><trkpt lat="46.14112" lon="9.4084844"><ele>203.0</ele><time>2026-04-23T07:08:56.483Z</time></trkpt><trkpt lat="46.1412275" lon="9.4085133"><ele>203.0</ele><time>2026-04-23T07:08:58.133Z</time></trkpt><trkpt lat="46.1413135" lon="9.408553"><ele>203.00000000000003</ele><time>2026-04-23T07:09:00.134Z</time></trkpt><trkpt lat="46.1414309" lon="9.4086253"><ele>203.0</ele><time>2026-04-23T07:09:02.134Z</time></trkpt><trkpt lat="46.1415213" lon="9.4086498"><ele>203.0</ele><time>2026-04-23T07:09:03.133Z</time></trkpt><trkpt lat="46.1415958" lon="9.4086793"><ele>203.0</ele><time>2026-04-23T07:09:04.133Z</time></trkpt><trkpt lat="46.1416639" lon="9.4086972"><ele>203.00000000000003</ele><time>2026-04-23T07:09:05.134Z</time></trkpt><trkpt lat="46.141736" lon="9.4087193"><ele>203.0</ele><time>2026-04-23T07:09:06.134Z</time></trkpt><trkpt lat="46.1418038" lon="9.4087427"><ele>203.2</ele><time>2026-04-23T07:09:07.133Z</time></trkpt><trkpt lat="46.1418709" lon="9.4087516"><ele>203.4</ele><time>2026-04-23T07:09:08.133Z</time></trkpt><trkpt lat="46.1419629" lon="9.4086888"><ele>203.6</ele><time>2026-04-23T07:09:09.134Z</time></trkpt><trkpt lat="46.1420547" lon="9.4087316"><ele>203.79999999999998</ele><time>2026-04-23T07:09:11.134Z</time></trkpt><trkpt lat="46.1421202" lon="9.408769"><ele>204.0</ele><time>2026-04-23T07:09:12.135Z</time></trkpt><trkpt lat="46.1422412" lon="9.4088126"><ele>203.83333333333334</ele><time>2026-04-23T07:09:14.134Z</time></trkpt><trkpt lat="46.1423448" lon="9.4088566"><ele>203.66666666666669</ele><time>2026-04-23T07:09:16.134Z</time></trkpt><trkpt lat="46.1424244" lon="9.408877"><ele>203.5</ele><time>2026-04-23T07:09:18.134Z</time></trkpt><trkpt lat="46.1425139" lon="9.4089005"><ele>203.33333333333334</ele><time>2026-04-23T07:09:21.134Z</time></trkpt><trkpt lat="46.1425965" lon="9.40885"><ele>203.16666666666669</ele><time>2026-04-23T07:09:24.134Z</time></trkpt><trkpt lat="46.1426447" lon="9.4087855"><ele>203.0</ele><time>2026-04-23T07:09:26.134Z</time></trkpt><trkpt lat="46.1426995" lon="9.4086697"><ele>203.00000000000003</ele><time>2026-04-23T07:09:29.135Z</time></trkpt><trkpt lat="46.1427441" lon="9.4085723"><ele>203.0</ele><time>2026-04-23T07:09:31.134Z</time></trkpt><trkpt lat="46.1427846" lon="9.4084676"><ele>203.0</ele><time>2026-04-23T07:09:33.133Z</time></trkpt><trkpt lat="46.1428205" lon="9.4083689"><ele>203.0</ele><time>2026-04-23T07:09:35.134Z</time></trkpt><trkpt lat="46.1428577" lon="9.4082903"><ele>203.00000000000003</ele><time>2026-04-23T07:09:37.135Z</time></trkpt><trkpt lat="46.1428983" lon="9.4082037"><ele>203.0</ele><time>2026-04-23T07:09:40.133Z</time></trkpt><trkpt lat="46.1428326" lon="9.4082767"><ele>203.00000000000003</ele><time>2026-04-23T07:09:50.134Z</time></trkpt><trkpt lat="46.1427979" lon="9.4083635"><ele>203.0</ele><time>2026-04-23T07:09:53.134Z</time></trkpt><trkpt lat="46.142749" lon="9.408494"><ele>203.0</ele><time>2026-04-23T07:09:56.134Z</time></trkpt><trkpt lat="46.1427114" lon="9.4086061"><ele>203.0</ele><time>2026-04-23T07:09:58.135Z</time></trkpt><trkpt lat="46.1426772" lon="9.4087246"><ele>203.00000000000003</ele><time>2026-04-23T07:10:00.134Z</time></trkpt><trkpt lat="46.1426175" lon="9.408825"><ele>203.0</ele><time>2026-04-23T07:10:02.135Z</time></trkpt><trkpt lat="46.1425849" lon="9.4089658"><ele>203.0</ele><time>2026-04-23T07:10:04.133Z</time></trkpt><trkpt lat="46.1425362" lon="9.4090913"><ele>203.0</ele><time>2026-04-23T07:10:06.133Z</time></trkpt><trkpt lat="46.1424915" lon="9.4092322"><ele>203.0</ele><time>2026-04-23T07:10:08.134Z</time></trkpt><trkpt lat="46.1424462" lon="9.4093614"><ele>203.0</ele><time>2026-04-23T07:10:10.135Z</time></trkpt><trkpt lat="46.1423732" lon="9.4095397"><ele>203.00000000000003</ele><time>2026-04-23T07:10:13.134Z</time></trkpt><trkpt lat="46.1423335" lon="9.4096461"><ele>203.0</ele><time>2026-04-23T07:10:15.134Z</time></trkpt><trkpt lat="46.1422903" lon="9.409722"><ele>203.0</ele><time>2026-04-23T07:10:18.134Z</time></trkpt><trkpt lat="46.1422389" lon="9.4097995"><ele>203.0</ele><time>2026-04-23T07:10:22.135Z</time></trkpt><trkpt lat="46.142311" lon="9.4097773"><ele>203.00000000000003</ele><time>2026-04-23T07:10:27.134Z</time></trkpt><trkpt lat="46.1423412" lon="9.409678"><ele>203.0</ele><time>2026-04-23T07:10:29.135Z</time></trkpt><trkpt lat="46.1423668" lon="9.4095692"><ele>202.83333333333334</ele><time>2026-04-23T07:10:31.135Z</time></trkpt><trkpt lat="46.1423942" lon="9.409422"><ele>202.66666666666669</ele><time>2026-04-23T07:10:33.135Z</time></trkpt><trkpt lat="46.14242" lon="9.4093034"><ele>202.5</ele><time>2026-04-23T07:10:35.134Z</time></trkpt><trkpt lat="46.142447" lon="9.4091742"><ele>202.33333333333331</ele><time>2026-04-23T07:10:37.133Z</time></trkpt><trkpt lat="46.1424789" lon="9.4090617"><ele>202.16666666666666</ele><time>2026-04-23T07:10:39.134Z</time></trkpt><trkpt lat="46.1424937" lon="9.4089483"><ele>202.0</ele><time>2026-04-23T07:10:41.133Z</time></trkpt><trkpt lat="46.1424695" lon="9.4088608"><ele>202.2</ele><time>2026-04-23T07:10:43.134Z</time></trkpt><trkpt lat="46.1423674" lon="9.4088298"><ele>202.39999999999998</ele><time>2026-04-23T07:10:45.135Z</time></trkpt><trkpt lat="46.1422799" lon="9.4087922"><ele>202.60000000000002</ele><time>2026-04-23T07:10:47.135Z</time></trkpt><trkpt lat="46.1421848" lon="9.4087575"><ele>202.8</ele><time>2026-04-23T07:10:49.135Z</time></trkpt><trkpt lat="46.1421044" lon="9.4087397"><ele>203.0</ele><time>2026-04-23T07:10:51.134Z</time></trkpt><trkpt lat="46.1420057" lon="9.4087199"><ele>203.0</ele><time>2026-04-23T07:10:53.135Z</time></trkpt><trkpt lat="46.1418932" lon="9.4087054"><ele>203.0</ele><time>2026-04-23T07:10:55.135Z</time></trkpt><trkpt lat="46.1418044" lon="9.4087009"><ele>203.0</ele><time>2026-04-23T07:10:56.134Z</time></trkpt><trkpt lat="46.1417182" lon="9.4086947"><ele>203.0</ele><time>2026-04-23T07:10:58.135Z</time></trkpt><trkpt lat="46.141643" lon="9.4086887"><ele>203.0</ele><time>2026-04-23T07:11:00.135Z</time></trkpt><trkpt lat="46.1415453" lon="9.4086731"><ele>203.0</ele><time>2026-04-23T07:11:02.135Z</time></trkpt><trkpt lat="46.1414583" lon="9.4086512"><ele>203.0</ele><time>2026-04-23T07:11:03.136Z</time></trkpt><trkpt lat="46.1413437" lon="9.4086381"><ele>203.0</ele><time>2026-04-23T07:11:05.135Z</time></trkpt><trkpt lat="46.1412606" lon="9.4086208"><ele>203.0</ele><time>2026-04-23T07:11:07.134Z</time></trkpt><trkpt lat="46.1411924" lon="9.4086454"><ele>203.0</ele><time>2026-04-23T07:11:10.026Z</time></trkpt><trkpt lat="46.1410876" lon="9.4085535"><ele>203.0</ele><time>2026-04-23T07:11:11.135Z</time></trkpt><trkpt lat="46.1409621" lon="9.4085298"><ele>203.0</ele><time>2026-04-23T07:11:13.135Z</time></trkpt><trkpt lat="46.1408455" lon="9.4084841"><ele>203.0</ele><time>2026-04-23T07:11:15.136Z</time></trkpt><trkpt lat="46.1407852" lon="9.4083767"><ele>203.0</ele><time>2026-04-23T07:11:17.135Z</time></trkpt><trkpt lat="46.1407375" lon="9.4082726"><ele>203.0</ele><time>2026-04-23T07:11:19.134Z</time></trkpt><trkpt lat="46.1407455" lon="9.4081489"><ele>203.00000000000003</ele><time>2026-04-23T07:11:21.134Z</time></trkpt><trkpt lat="46.1407644" lon="9.4080005"><ele>203.0</ele><time>2026-04-23T07:11:23.135Z</time></trkpt><trkpt lat="46.1407911" lon="9.4078558"><ele>203.0</ele><time>2026-04-23T07:11:25.135Z</time></trkpt><trkpt lat="46.1408098" lon="9.4077365"><ele>203.0</ele><time>2026-04-23T07:11:27.135Z</time></trkpt><trkpt lat="46.140835" lon="9.4076373"><ele>203.00000000000003</ele><time>2026-04-23T07:11:29.134Z</time></trkpt><trkpt lat="46.1408625" lon="9.40753"><ele>203.0</ele><time>2026-04-23T07:11:31.134Z</time></trkpt><trkpt lat="46.1408783" lon="9.4073901"><ele>203.60000000000002</ele><time>2026-04-23T07:11:33.135Z</time></trkpt><trkpt lat="46.1409141" lon="9.4072561"><ele>204.20000000000002</ele><time>2026-04-23T07:11:35.135Z</time></trkpt><trkpt lat="46.1409436" lon="9.4071108"><ele>204.8</ele><time>2026-04-23T07:11:37.135Z</time></trkpt><trkpt lat="46.1409607" lon="9.4069792"><ele>205.4</ele><time>2026-04-23T07:11:39.135Z</time></trkpt><trkpt lat="46.1409797" lon="9.4068488"><ele>206.0</ele><time>2026-04-23T07:11:41.135Z</time></trkpt><trkpt lat="46.1410141" lon="9.4066892"><ele>206.0</ele><time>2026-04-23T07:11:43.134Z</time></trkpt><trkpt lat="46.1410433" lon="9.4065414"><ele>206.0</ele><time>2026-04-23T07:11:45.134Z</time></trkpt><trkpt lat="46.141069" lon="9.4063981"><ele>206.0</ele><time>2026-04-23T07:11:47.134Z</time></trkpt><trkpt lat="46.1410947" lon="9.4062747"><ele>206.0</ele><time>2026-04-23T07:11:49.135Z</time></trkpt><trkpt lat="46.1411273" lon="9.4061245"><ele>206.0</ele><time>2026-04-23T07:11:51.135Z</time></trkpt><trkpt lat="46.1411619" lon="9.4059923"><ele>206.0</ele><time>2026-04-23T07:11:53.134Z</time></trkpt><trkpt lat="46.1411893" lon="9.4058405"><ele>206.0</ele><time>2026-04-23T07:11:55.135Z</time></trkpt><trkpt lat="46.141225" lon="9.4057006"><ele>206.0</ele><time>2026-04-23T07:11:57.135Z</time></trkpt><trkpt lat="46.1412548" lon="9.4055335"><ele>206.0</ele><time>2026-04-23T07:11:59.135Z</time></trkpt><trkpt lat="46.1412829" lon="9.4053912"><ele>206.0</ele><time>2026-04-23T07:12:01.134Z</time></trkpt><trkpt lat="46.1413083" lon="9.4052618"><ele>206.16666666666669</ele><time>2026-04-23T07:12:03.135Z</time></trkpt><trkpt lat="46.1413341" lon="9.4051321"><ele>206.33333333333334</ele><time>2026-04-23T07:12:05.135Z</time></trkpt><trkpt lat="46.1413819" lon="9.4050382"><ele>206.5</ele><time>2026-04-23T07:12:07.134Z</time></trkpt><trkpt lat="46.1414556" lon="9.4049838"><ele>206.66666666666669</ele><time>2026-04-23T07:12:09.134Z</time></trkpt><trkpt lat="46.1415473" lon="9.4049903"><ele>206.83333333333334</ele><time>2026-04-23T07:12:11.135Z</time></trkpt><trkpt lat="46.1416446" lon="9.4050212"><ele>207.0</ele><time>2026-04-23T07:12:13.134Z</time></trkpt><trkpt lat="46.1417485" lon="9.4050543"><ele>207.0</ele><time>2026-04-23T07:12:15.135Z</time></trkpt><trkpt lat="46.1418398" lon="9.4051023"><ele>207.0</ele><time>2026-04-23T07:12:17.135Z</time></trkpt><trkpt lat="46.1419465" lon="9.4051465"><ele>207.0</ele><time>2026-04-23T07:12:19.134Z</time></trkpt><trkpt lat="46.1420494" lon="9.405185"><ele>207.0</ele><time>2026-04-23T07:12:21.134Z</time></trkpt><trkpt lat="46.1421564" lon="9.4052295"><ele>207.0</ele><time>2026-04-23T07:12:23.135Z</time></trkpt><trkpt lat="46.1422615" lon="9.4052817"><ele>206.8</ele><time>2026-04-23T07:12:25.136Z</time></trkpt><trkpt lat="46.1423841" lon="9.4053493"><ele>206.6</ele><time>2026-04-23T07:12:27.135Z</time></trkpt><trkpt lat="46.142444" lon="9.4053806"><ele>206.4</ele><time>2026-04-23T07:12:28.135Z</time></trkpt><trkpt lat="46.1425544" lon="9.4054507"><ele>206.20000000000002</ele><time>2026-04-23T07:12:30.134Z</time></trkpt><trkpt lat="46.1426499" lon="9.4054967"><ele>206.0</ele><time>2026-04-23T07:12:32.134Z</time></trkpt><trkpt lat="46.1427337" lon="9.405533"><ele>205.8</ele><time>2026-04-23T07:12:34.134Z</time></trkpt><trkpt lat="46.1427937" lon="9.4056144"><ele>205.60000000000002</ele><time>2026-04-23T07:12:38.134Z</time></trkpt><trkpt lat="46.1428417" lon="9.4057141"><ele>205.4</ele><time>2026-04-23T07:12:42.134Z</time></trkpt><trkpt lat="46.1429367" lon="9.4057539"><ele>205.2</ele><time>2026-04-23T07:12:44.135Z</time></trkpt><trkpt lat="46.1430448" lon="9.4057979"><ele>205.0</ele><time>2026-04-23T07:12:46.135Z</time></trkpt><trkpt lat="46.1431432" lon="9.405827"><ele>204.49999999999997</ele><time>2026-04-23T07:12:48.134Z</time></trkpt><trkpt lat="46.1432177" lon="9.4058593"><ele>204.0</ele><time>2026-04-23T07:12:50.136Z</time></trkpt><trkpt lat="46.1433059" lon="9.4058265"><ele>203.5</ele><time>2026-04-23T07:12:53.135Z</time></trkpt><trkpt lat="46.1433531" lon="9.4057319"><ele>203.0</ele><time>2026-04-23T07:12:56.135Z</time></trkpt><trkpt lat="46.1433749" lon="9.4056452"><ele>202.49999999999997</ele><time>2026-04-23T07:13:04.134Z</time></trkpt><trkpt lat="46.1434451" lon="9.4056418"><ele>202.0</ele><time>2026-04-23T07:13:33.135Z</time></trkpt><trkpt lat="46.1434703" lon="9.4057458"><ele>201.99999999999997</ele><time>2026-04-23T07:13:44.136Z</time></trkpt><trkpt lat="46.1434762" lon="9.405858"><ele>202.0</ele><time>2026-04-23T07:13:47.135Z</time></trkpt><trkpt lat="46.1434878" lon="9.4059598"><ele>202.0</ele><time>2026-04-23T07:13:49.135Z</time></trkpt><trkpt lat="46.1434958" lon="9.4060806"><ele>202.0</ele><time>2026-04-23T07:13:51.135Z</time></trkpt><trkpt lat="46.143504" lon="9.4062076"><ele>201.99999999999997</ele><time>2026-04-23T07:13:53.135Z</time></trkpt><trkpt lat="46.1435161" lon="9.4063432"><ele>202.0</ele><time>2026-04-23T07:13:55.135Z</time></trkpt><trkpt lat="46.1435329" lon="9.4064733"><ele>202.0</ele><time>2026-04-23T07:13:57.136Z</time></trkpt><trkpt lat="46.1435529" lon="9.406595"><ele>202.0</ele><time>2026-04-23T07:13:59.135Z</time></trkpt><trkpt lat="46.1435656" lon="9.4067445"><ele>202.0</ele><time>2026-04-23T07:14:01.136Z</time></trkpt><trkpt lat="46.1435958" lon="9.4069021"><ele>202.0</ele><time>2026-04-23T07:14:03.135Z</time></trkpt><trkpt lat="46.1436212" lon="9.4070591"><ele>202.0</ele><time>2026-04-23T07:14:05.134Z</time></trkpt><trkpt lat="46.1436313" lon="9.4072181"><ele>202.0</ele><time>2026-04-23T07:14:07.135Z</time></trkpt><trkpt lat="46.1436401" lon="9.4073743"><ele>202.0</ele><time>2026-04-23T07:14:09.136Z</time></trkpt><trkpt lat="46.1437004" lon="9.4075118"><ele>202.0</ele><time>2026-04-23T07:14:11.134Z</time></trkpt><trkpt lat="46.1438034" lon="9.4075712"><ele>202.0</ele><time>2026-04-23T07:14:13.135Z</time></trkpt><trkpt lat="46.1439077" lon="9.4075231"><ele>202.0</ele><time>2026-04-23T07:14:15.136Z</time></trkpt><trkpt lat="46.1439803" lon="9.4073994"><ele>202.0</ele><time>2026-04-23T07:14:17.134Z</time></trkpt><trkpt lat="46.1440191" lon="9.4072457"><ele>202.0</ele><time>2026-04-23T07:14:19.136Z</time></trkpt><trkpt lat="46.144058" lon="9.4070903"><ele>202.0</ele><time>2026-04-23T07:14:21.134Z</time></trkpt><trkpt lat="46.1441423" lon="9.4069601"><ele>202.0</ele><time>2026-04-23T07:14:23.134Z</time></trkpt><trkpt lat="46.1442431" lon="9.4068895"><ele>202.0</ele><time>2026-04-23T07:14:25.136Z</time></trkpt><trkpt lat="46.1443579" lon="9.406872"><ele>202.0</ele><time>2026-04-23T07:14:27.134Z</time></trkpt><trkpt lat="46.1444234" lon="9.4068581"><ele>202.0</ele><time>2026-04-23T07:14:28.136Z</time></trkpt><trkpt lat="46.144488" lon="9.4068594"><ele>202.0</ele><time>2026-04-23T07:14:29.135Z</time></trkpt><trkpt lat="46.1445513" lon="9.406858"><ele>202.0</ele><time>2026-04-23T07:14:30.136Z</time></trkpt><trkpt lat="46.1446191" lon="9.4068477"><ele>202.0</ele><time>2026-04-23T07:14:31.135Z</time></trkpt><trkpt lat="46.1446845" lon="9.4068493"><ele>202.0</ele><time>2026-04-23T07:14:32.134Z</time></trkpt><trkpt lat="46.1447503" lon="9.4068712"><ele>202.0</ele><time>2026-04-23T07:14:33.134Z</time></trkpt><trkpt lat="46.1448408" lon="9.4069638"><ele>202.0</ele><time>2026-04-23T07:14:35.136Z</time></trkpt><trkpt lat="46.1448757" lon="9.4071057"><ele>202.0</ele><time>2026-04-23T07:14:37.135Z</time></trkpt><trkpt lat="46.144898" lon="9.4072648"><ele>202.0</ele><time>2026-04-23T07:14:39.136Z</time></trkpt><trkpt lat="46.1449204" lon="9.4074309"><ele>202.0</ele><time>2026-04-23T07:14:41.135Z</time></trkpt><trkpt lat="46.1449522" lon="9.4076107"><ele>201.8</ele><time>2026-04-23T07:14:43.135Z</time></trkpt><trkpt lat="46.1449678" lon="9.4077"><ele>201.6</ele><time>2026-04-23T07:14:44.136Z</time></trkpt><trkpt lat="46.1449913" lon="9.4078636"><ele>201.4</ele><time>2026-04-23T07:14:46.138Z</time></trkpt><trkpt lat="46.1450119" lon="9.4080196"><ele>201.20000000000002</ele><time>2026-04-23T07:14:48.137Z</time></trkpt><trkpt lat="46.1450406" lon="9.4081807"><ele>201.0</ele><time>2026-04-23T07:14:50.135Z</time></trkpt><trkpt lat="46.1450717" lon="9.4083403"><ele>201.0</ele><time>2026-04-23T07:14:52.135Z</time></trkpt><trkpt lat="46.1450942" lon="9.4084975"><ele>201.0</ele><time>2026-04-23T07:14:54.137Z</time></trkpt><trkpt lat="46.1451141" lon="9.4086605"><ele>201.0</ele><time>2026-04-23T07:14:56.135Z</time></trkpt><trkpt lat="46.1451423" lon="9.4088264"><ele>201.0</ele><time>2026-04-23T07:14:58.136Z</time></trkpt><trkpt lat="46.1451649" lon="9.4089856"><ele>201.0</ele><time>2026-04-23T07:15:00.134Z</time></trkpt><trkpt lat="46.1451899" lon="9.4091438"><ele>201.0</ele><time>2026-04-23T07:15:02.14Z</time></trkpt><trkpt lat="46.145215" lon="9.409308"><ele>201.0</ele><time>2026-04-23T07:15:04.135Z</time></trkpt><trkpt lat="46.1452328" lon="9.4094733"><ele>201.0</ele><time>2026-04-23T07:15:06.135Z</time></trkpt><trkpt lat="46.1452491" lon="9.4095624"><ele>201.0</ele><time>2026-04-23T07:15:07.135Z</time></trkpt><trkpt lat="46.1452623" lon="9.4097316"><ele>201.0</ele><time>2026-04-23T07:15:09.135Z</time></trkpt><trkpt lat="46.1452716" lon="9.4098258"><ele>201.0</ele><time>2026-04-23T07:15:10.135Z</time></trkpt><trkpt lat="46.1452932" lon="9.4100003"><ele>201.0</ele><time>2026-04-23T07:15:12.136Z</time></trkpt><trkpt lat="46.1453172" lon="9.4101647"><ele>201.0</ele><time>2026-04-23T07:15:14.136Z</time></trkpt><trkpt lat="46.1453338" lon="9.4103409"><ele>201.0</ele><time>2026-04-23T07:15:16.135Z</time></trkpt><trkpt lat="46.1453395" lon="9.4104319"><ele>201.0</ele><time>2026-04-23T07:15:17.136Z</time></trkpt><trkpt lat="46.1453402" lon="9.4106101"><ele>201.0</ele><time>2026-04-23T07:15:19.136Z</time></trkpt><trkpt lat="46.1453412" lon="9.4107866"><ele>201.0</ele><time>2026-04-23T07:15:21.135Z</time></trkpt><trkpt lat="46.1453457" lon="9.4109595"><ele>201.0</ele><time>2026-04-23T07:15:23.135Z</time></trkpt><trkpt lat="46.1453461" lon="9.4111334"><ele>201.0</ele><time>2026-04-23T07:15:25.137Z</time></trkpt><trkpt lat="46.1453574" lon="9.4112967"><ele>201.0</ele><time>2026-04-23T07:15:27.136Z</time></trkpt><trkpt lat="46.145363" lon="9.4114483"><ele>201.0</ele><time>2026-04-23T07:15:29.136Z</time></trkpt><trkpt lat="46.1453603" lon="9.4116038"><ele>201.0</ele><time>2026-04-23T07:15:31.136Z</time></trkpt><trkpt lat="46.1453638" lon="9.4117479"><ele>201.0</ele><time>2026-04-23T07:15:33.135Z</time></trkpt><trkpt lat="46.1454337" lon="9.4118433"><ele>201.4</ele><time>2026-04-23T07:15:35.137Z</time></trkpt><trkpt lat="46.1455393" lon="9.4118492"><ele>201.8</ele><time>2026-04-23T07:15:37.139Z</time></trkpt><trkpt lat="46.1456405" lon="9.4118343"><ele>202.20000000000002</ele><time>2026-04-23T07:15:39.137Z</time></trkpt><trkpt lat="46.1457373" lon="9.4118377"><ele>202.60000000000002</ele><time>2026-04-23T07:15:41.136Z</time></trkpt><trkpt lat="46.1458323" lon="9.4118366"><ele>203.0</ele><time>2026-04-23T07:15:43.135Z</time></trkpt><trkpt lat="46.1459165" lon="9.4117941"><ele>203.0</ele><time>2026-04-23T07:15:45.138Z</time></trkpt><trkpt lat="46.146012" lon="9.4117478"><ele>203.0</ele><time>2026-04-23T07:15:47.139Z</time></trkpt><trkpt lat="46.1461153" lon="9.4117788"><ele>203.0</ele><time>2026-04-23T07:15:49.135Z</time></trkpt><trkpt lat="46.1462285" lon="9.4118529"><ele>203.0</ele><time>2026-04-23T07:15:51.136Z</time></trkpt><trkpt lat="46.1463443" lon="9.4118854"><ele>203.0</ele><time>2026-04-23T07:15:53.136Z</time></trkpt><trkpt lat="46.1464582" lon="9.4119175"><ele>203.4</ele><time>2026-04-23T07:15:55.139Z</time></trkpt><trkpt lat="46.1465703" lon="9.4119374"><ele>203.8</ele><time>2026-04-23T07:15:57.138Z</time></trkpt><trkpt lat="46.1466728" lon="9.4119331"><ele>204.2</ele><time>2026-04-23T07:15:59.135Z</time></trkpt><trkpt lat="46.1467769" lon="9.4119376"><ele>204.6</ele><time>2026-04-23T07:16:01.138Z</time></trkpt><trkpt lat="46.1468724" lon="9.4119395"><ele>205.0</ele><time>2026-04-23T07:16:03.138Z</time></trkpt><trkpt lat="46.1469649" lon="9.4119345"><ele>204.99999999999997</ele><time>2026-04-23T07:16:05.135Z</time></trkpt><trkpt lat="46.1470554" lon="9.4119197"><ele>205.0</ele><time>2026-04-23T07:16:07.142Z</time></trkpt><trkpt lat="46.1471474" lon="9.4118993"><ele>205.0</ele><time>2026-04-23T07:16:09.135Z</time></trkpt><trkpt lat="46.1472368" lon="9.4118845"><ele>205.0</ele><time>2026-04-23T07:16:11.135Z</time></trkpt><trkpt lat="46.1473207" lon="9.4118681"><ele>204.99999999999997</ele><time>2026-04-23T07:16:13.138Z</time></trkpt><trkpt lat="46.147396" lon="9.4118919"><ele>205.0</ele><time>2026-04-23T07:16:15.135Z</time></trkpt><trkpt lat="46.147458" lon="9.4119663"><ele>205.0</ele><time>2026-04-23T07:16:17.135Z</time></trkpt><trkpt lat="46.1474652" lon="9.4120974"><ele>205.0</ele><time>2026-04-23T07:16:19.228Z</time></trkpt><trkpt lat="46.1474436" lon="9.4122146"><ele>205.0</ele><time>2026-04-23T07:16:21.212Z</time></trkpt><trkpt lat="46.1474035" lon="9.4123547"><ele>205.0</ele><time>2026-04-23T07:16:23.135Z</time></trkpt><trkpt lat="46.147377" lon="9.4125011"><ele>205.0</ele><time>2026-04-23T07:16:25.136Z</time></trkpt><trkpt lat="46.147413" lon="9.4127004"><ele>204.99999999999997</ele><time>2026-04-23T07:16:28.137Z</time></trkpt><trkpt lat="46.1474791" lon="9.4127966"><ele>205.0</ele><time>2026-04-23T07:16:30.135Z</time></trkpt><trkpt lat="46.1475491" lon="9.4128587"><ele>205.0</ele><time>2026-04-23T07:16:32.136Z</time></trkpt><trkpt lat="46.1476204" lon="9.4129188"><ele>205.0</ele><time>2026-04-23T07:16:35.136Z</time></trkpt><trkpt lat="46.1476659" lon="9.4128322"><ele>204.99999999999997</ele><time>2026-04-23T07:18:19.139Z</time></trkpt><trkpt lat="46.1477355" lon="9.4127515"><ele>205.0</ele><time>2026-04-23T07:18:23.136Z</time></trkpt><trkpt lat="46.1478001" lon="9.4126476"><ele>205.0</ele><time>2026-04-23T07:18:26.137Z</time></trkpt><trkpt lat="46.1478528" lon="9.4125492"><ele>205.0</ele><time>2026-04-23T07:18:28.137Z</time></trkpt><trkpt lat="46.1479288" lon="9.4124583"><ele>205.0</ele><time>2026-04-23T07:18:30.135Z</time></trkpt><trkpt lat="46.1480222" lon="9.4123878"><ele>205.0</ele><time>2026-04-23T07:18:32.136Z</time></trkpt><trkpt lat="46.1481372" lon="9.4123574"><ele>205.0</ele><time>2026-04-23T07:18:34.136Z</time></trkpt><trkpt lat="46.1482548" lon="9.4123311"><ele>204.8</ele><time>2026-04-23T07:18:36.139Z</time></trkpt><trkpt lat="46.1484387" lon="9.4123274"><ele>204.6</ele><time>2026-04-23T07:18:39.138Z</time></trkpt><trkpt lat="46.148507" lon="9.4123299"><ele>204.39999999999998</ele><time>2026-04-23T07:18:40.137Z</time></trkpt><trkpt lat="46.1486392" lon="9.4123372"><ele>204.2</ele><time>2026-04-23T07:18:42.136Z</time></trkpt><trkpt lat="46.1487032" lon="9.4123485"><ele>204.0</ele><time>2026-04-23T07:18:43.138Z</time></trkpt><trkpt lat="46.1487716" lon="9.4123592"><ele>204.0</ele><time>2026-04-23T07:18:44.138Z</time></trkpt><trkpt lat="46.148839" lon="9.4123686"><ele>204.0</ele><time>2026-04-23T07:18:45.139Z</time></trkpt><trkpt lat="46.1489098" lon="9.4123792"><ele>204.0</ele><time>2026-04-23T07:18:46.14Z</time></trkpt><trkpt lat="46.1489762" lon="9.4123875"><ele>204.0</ele><time>2026-04-23T07:18:47.141Z</time></trkpt><trkpt lat="46.1490998" lon="9.4123966"><ele>204.0</ele><time>2026-04-23T07:18:49.137Z</time></trkpt><trkpt lat="46.1491673" lon="9.4123994"><ele>204.0</ele><time>2026-04-23T07:18:50.135Z</time></trkpt><trkpt lat="46.1492333" lon="9.4124022"><ele>203.83333333333334</ele><time>2026-04-23T07:18:51.141Z</time></trkpt><trkpt lat="46.1493004" lon="9.412417"><ele>203.66666666666669</ele><time>2026-04-23T07:18:52.135Z</time></trkpt><trkpt lat="46.1493652" lon="9.4124296"><ele>203.5</ele><time>2026-04-23T07:18:53.136Z</time></trkpt><trkpt lat="46.149484" lon="9.4124316"><ele>203.33333333333334</ele><time>2026-04-23T07:18:55.142Z</time></trkpt><trkpt lat="46.1495482" lon="9.4124408"><ele>203.16666666666669</ele><time>2026-04-23T07:18:56.137Z</time></trkpt><trkpt lat="46.1496695" lon="9.4124483"><ele>203.0</ele><time>2026-04-23T07:18:58.14Z</time></trkpt><trkpt lat="46.1497954" lon="9.4124558"><ele>201.25</ele><time>2026-04-23T07:19:00.139Z</time></trkpt><trkpt lat="46.149918" lon="9.4124553"><ele>199.5</ele><time>2026-04-23T07:19:02.143Z</time></trkpt><trkpt lat="46.1500338" lon="9.4124629"><ele>197.75</ele><time>2026-04-23T07:19:04.136Z</time></trkpt><trkpt lat="46.1501369" lon="9.4124733"><ele>196.0</ele><time>2026-04-23T07:19:06.139Z</time></trkpt><trkpt lat="46.1502449" lon="9.4124789"><ele>195.99999999999997</ele><time>2026-04-23T07:19:08.138Z</time></trkpt><trkpt lat="46.150343" lon="9.4124933"><ele>196.0</ele><time>2026-04-23T07:19:10.139Z</time></trkpt><trkpt lat="46.1504186" lon="9.4124957"><ele>196.0</ele><time>2026-04-23T07:19:12.138Z</time></trkpt><trkpt lat="46.1504889" lon="9.412517"><ele>196.0</ele><time>2026-04-23T07:19:14.136Z</time></trkpt><trkpt lat="46.150542" lon="9.4125876"><ele>195.99999999999997</ele><time>2026-04-23T07:19:17.136Z</time></trkpt><trkpt lat="46.1506098" lon="9.4125431"><ele>196.0</ele><time>2026-04-23T07:19:36.136Z</time></trkpt><trkpt lat="46.1506876" lon="9.4125549"><ele>197.20000000000002</ele><time>2026-04-23T07:19:40.224Z</time></trkpt><trkpt lat="46.1507501" lon="9.4126049"><ele>198.4</ele><time>2026-04-23T07:19:42.136Z</time></trkpt><trkpt lat="46.1508354" lon="9.4126753"><ele>199.6</ele><time>2026-04-23T07:19:43.137Z</time></trkpt><trkpt lat="46.1509399" lon="9.4127377"><ele>200.8</ele><time>2026-04-23T07:19:45.142Z</time></trkpt><trkpt lat="46.1510418" lon="9.4128076"><ele>202.0</ele><time>2026-04-23T07:19:47.142Z</time></trkpt><trkpt lat="46.1511199" lon="9.4128836"><ele>201.99999999999997</ele><time>2026-04-23T07:19:49.14Z</time></trkpt><trkpt lat="46.1512184" lon="9.4129787"><ele>202.0</ele><time>2026-04-23T07:19:51.144Z</time></trkpt><trkpt lat="46.1513178" lon="9.4130767"><ele>202.0</ele><time>2026-04-23T07:19:53.137Z</time></trkpt><trkpt lat="46.1513706" lon="9.4131342"><ele>202.0</ele><time>2026-04-23T07:19:54.137Z</time></trkpt><trkpt lat="46.1514235" lon="9.4131948"><ele>201.99999999999997</ele><time>2026-04-23T07:19:55.135Z</time></trkpt><trkpt lat="46.1514842" lon="9.4132438"><ele>202.0</ele><time>2026-04-23T07:19:56.137Z</time></trkpt><trkpt lat="46.1515471" lon="9.4132954"><ele>201.57142857142856</ele><time>2026-04-23T07:19:57.137Z</time></trkpt><trkpt lat="46.1516071" lon="9.4133461"><ele>201.14285714285714</ele><time>2026-04-23T07:19:58.138Z</time></trkpt><trkpt lat="46.1516649" lon="9.4134031"><ele>200.71428571428572</ele><time>2026-04-23T07:19:59.137Z</time></trkpt><trkpt lat="46.1517234" lon="9.4134581"><ele>200.28571428571428</ele><time>2026-04-23T07:20:00.135Z</time></trkpt><trkpt lat="46.1517846" lon="9.4135184"><ele>199.85714285714286</ele><time>2026-04-23T07:20:01.138Z</time></trkpt><trkpt lat="46.1518431" lon="9.4135731"><ele>199.42857142857142</ele><time>2026-04-23T07:20:02.138Z</time></trkpt><trkpt lat="46.1519037" lon="9.4136325"><ele>199.0</ele><time>2026-04-23T07:20:03.138Z</time></trkpt><trkpt lat="46.1519652" lon="9.4136901"><ele>198.99999999999997</ele><time>2026-04-23T07:20:04.136Z</time></trkpt><trkpt lat="46.152025" lon="9.4137508"><ele>199.0</ele><time>2026-04-23T07:20:05.142Z</time></trkpt><trkpt lat="46.1520864" lon="9.4138115"><ele>199.0</ele><time>2026-04-23T07:20:06.137Z</time></trkpt><trkpt lat="46.1521485" lon="9.4138678"><ele>199.0</ele><time>2026-04-23T07:20:07.138Z</time></trkpt><trkpt lat="46.1522102" lon="9.413924"><ele>199.0</ele><time>2026-04-23T07:20:08.143Z</time></trkpt><trkpt lat="46.1522745" lon="9.413983"><ele>198.99999999999997</ele><time>2026-04-23T07:20:09.138Z</time></trkpt><trkpt lat="46.1523385" lon="9.4140448"><ele>199.0</ele><time>2026-04-23T07:20:10.137Z</time></trkpt><trkpt lat="46.1524028" lon="9.4141025"><ele>199.14285714285714</ele><time>2026-04-23T07:20:11.143Z</time></trkpt><trkpt lat="46.1524655" lon="9.414163"><ele>199.28571428571428</ele><time>2026-04-23T07:20:12.137Z</time></trkpt><trkpt lat="46.1525266" lon="9.4142268"><ele>199.42857142857144</ele><time>2026-04-23T07:20:13.144Z</time></trkpt><trkpt lat="46.1525903" lon="9.4142874"><ele>199.57142857142856</ele><time>2026-04-23T07:20:14.139Z</time></trkpt><trkpt lat="46.1526504" lon="9.4143431"><ele>199.71428571428572</ele><time>2026-04-23T07:20:15.136Z</time></trkpt><trkpt lat="46.152714" lon="9.4143998"><ele>199.85714285714286</ele><time>2026-04-23T07:20:16.14Z</time></trkpt><trkpt lat="46.1527732" lon="9.4144588"><ele>200.0</ele><time>2026-04-23T07:20:17.142Z</time></trkpt><trkpt lat="46.1528347" lon="9.4145158"><ele>200.00000000000003</ele><time>2026-04-23T07:20:18.14Z</time></trkpt><trkpt lat="46.1528997" lon="9.4145733"><ele>200.0</ele><time>2026-04-23T07:20:19.139Z</time></trkpt><trkpt lat="46.1529543" lon="9.4146259"><ele>200.0</ele><time>2026-04-23T07:20:20.137Z</time></trkpt><trkpt lat="46.1530158" lon="9.4146863"><ele>200.0</ele><time>2026-04-23T07:20:21.139Z</time></trkpt><trkpt lat="46.1530772" lon="9.4147545"><ele>200.00000000000003</ele><time>2026-04-23T07:20:22.14Z</time></trkpt><trkpt lat="46.1531419" lon="9.4148211"><ele>200.0</ele><time>2026-04-23T07:20:23.14Z</time></trkpt><trkpt lat="46.1532059" lon="9.4148841"><ele>200.14285714285717</ele><time>2026-04-23T07:20:24.136Z</time></trkpt><trkpt lat="46.1532659" lon="9.4149449"><ele>200.28571428571428</ele><time>2026-04-23T07:20:25.137Z</time></trkpt><trkpt lat="46.153328" lon="9.4150065"><ele>200.42857142857144</ele><time>2026-04-23T07:20:26.136Z</time></trkpt><trkpt lat="46.1533912" lon="9.4150706"><ele>200.57142857142858</ele><time>2026-04-23T07:20:27.137Z</time></trkpt><trkpt lat="46.153451" lon="9.4151321"><ele>200.71428571428572</ele><time>2026-04-23T07:20:28.136Z</time></trkpt><trkpt lat="46.153508" lon="9.415185"><ele>200.85714285714286</ele><time>2026-04-23T07:20:29.139Z</time></trkpt><trkpt lat="46.1535679" lon="9.4152435"><ele>201.0</ele><time>2026-04-23T07:20:30.138Z</time></trkpt><trkpt lat="46.1536287" lon="9.4152994"><ele>201.0</ele><time>2026-04-23T07:20:31.142Z</time></trkpt><trkpt lat="46.1536885" lon="9.4153551"><ele>201.0</ele><time>2026-04-23T07:20:32.141Z</time></trkpt><trkpt lat="46.1537516" lon="9.4154123"><ele>201.0</ele><time>2026-04-23T07:20:33.144Z</time></trkpt><trkpt lat="46.1538127" lon="9.415473"><ele>201.0</ele><time>2026-04-23T07:20:34.137Z</time></trkpt><trkpt lat="46.1538705" lon="9.4155332"><ele>201.0</ele><time>2026-04-23T07:20:35.135Z</time></trkpt><trkpt lat="46.1539304" lon="9.4155902"><ele>201.0</ele><time>2026-04-23T07:20:36.137Z</time></trkpt><trkpt lat="46.1539884" lon="9.415643"><ele>201.0</ele><time>2026-04-23T07:20:37.139Z</time></trkpt><trkpt lat="46.1540411" lon="9.4156942"><ele>201.14285714285714</ele><time>2026-04-23T07:20:38.144Z</time></trkpt><trkpt lat="46.1540969" lon="9.415748"><ele>201.2857142857143</ele><time>2026-04-23T07:20:39.143Z</time></trkpt><trkpt lat="46.1541508" lon="9.4158026"><ele>201.42857142857144</ele><time>2026-04-23T07:20:40.136Z</time></trkpt><trkpt lat="46.1542081" lon="9.4158617"><ele>201.57142857142856</ele><time>2026-04-23T07:20:41.136Z</time></trkpt><trkpt lat="46.1542653" lon="9.4159125"><ele>201.71428571428572</ele><time>2026-04-23T07:20:42.142Z</time></trkpt><trkpt lat="46.1543194" lon="9.4159668"><ele>201.85714285714286</ele><time>2026-04-23T07:20:43.136Z</time></trkpt><trkpt lat="46.1543713" lon="9.4160246"><ele>202.0</ele><time>2026-04-23T07:20:44.142Z</time></trkpt><trkpt lat="46.1544326" lon="9.4160789"><ele>202.0</ele><time>2026-04-23T07:20:45.136Z</time></trkpt><trkpt lat="46.1544909" lon="9.416134"><ele>202.0</ele><time>2026-04-23T07:20:46.139Z</time></trkpt><trkpt lat="46.1545449" lon="9.4161947"><ele>202.0</ele><time>2026-04-23T07:20:47.141Z</time></trkpt><trkpt lat="46.1546483" lon="9.4163061"><ele>202.0</ele><time>2026-04-23T07:20:49.141Z</time></trkpt><trkpt lat="46.1546967" lon="9.416366"><ele>202.0</ele><time>2026-04-23T07:20:50.137Z</time></trkpt><trkpt lat="46.1548088" lon="9.4164643"><ele>202.0</ele><time>2026-04-23T07:20:52.141Z</time></trkpt><trkpt lat="46.1548668" lon="9.4165106"><ele>202.0</ele><time>2026-04-23T07:20:53.139Z</time></trkpt><trkpt lat="46.1549206" lon="9.4165728"><ele>202.0</ele><time>2026-04-23T07:20:54.141Z</time></trkpt><trkpt lat="46.1549736" lon="9.4166297"><ele>202.0</ele><time>2026-04-23T07:20:55.139Z</time></trkpt><trkpt lat="46.1550252" lon="9.4166829"><ele>202.0</ele><time>2026-04-23T07:20:56.138Z</time></trkpt><trkpt lat="46.1550856" lon="9.4167361"><ele>202.0</ele><time>2026-04-23T07:20:57.139Z</time></trkpt><trkpt lat="46.1551421" lon="9.4167868"><ele>202.0</ele><time>2026-04-23T07:20:58.144Z</time></trkpt><trkpt lat="46.1551996" lon="9.4168398"><ele>201.66666666666666</ele><time>2026-04-23T07:20:59.137Z</time></trkpt><trkpt lat="46.1552558" lon="9.4168934"><ele>201.33333333333331</ele><time>2026-04-23T07:21:00.137Z</time></trkpt><trkpt lat="46.1553104" lon="9.4169458"><ele>201.0</ele><time>2026-04-23T07:21:01.138Z</time></trkpt><trkpt lat="46.1553642" lon="9.4169983"><ele>200.66666666666669</ele><time>2026-04-23T07:21:02.143Z</time></trkpt><trkpt lat="46.1554668" lon="9.4170979"><ele>200.33333333333334</ele><time>2026-04-23T07:21:04.136Z</time></trkpt><trkpt lat="46.1555207" lon="9.4171476"><ele>200.0</ele><time>2026-04-23T07:21:05.136Z</time></trkpt><trkpt lat="46.1555783" lon="9.4172014"><ele>200.00000000000003</ele><time>2026-04-23T07:21:06.136Z</time></trkpt><trkpt lat="46.1556424" lon="9.4172567"><ele>200.0</ele><time>2026-04-23T07:21:07.137Z</time></trkpt><trkpt lat="46.1557035" lon="9.4173071"><ele>200.0</ele><time>2026-04-23T07:21:08.136Z</time></trkpt><trkpt lat="46.1557582" lon="9.4173669"><ele>200.0</ele><time>2026-04-23T07:21:09.138Z</time></trkpt><trkpt lat="46.1558136" lon="9.417435"><ele>200.0</ele><time>2026-04-23T07:21:10.144Z</time></trkpt><trkpt lat="46.1558752" lon="9.4175009"><ele>200.00000000000003</ele><time>2026-04-23T07:21:11.136Z</time></trkpt><trkpt lat="46.1559378" lon="9.417557"><ele>200.0</ele><time>2026-04-23T07:21:12.137Z</time></trkpt><trkpt lat="46.1559936" lon="9.4176154"><ele>200.0</ele><time>2026-04-23T07:21:13.136Z</time></trkpt><trkpt lat="46.1560526" lon="9.4176707"><ele>200.0</ele><time>2026-04-23T07:21:14.141Z</time></trkpt><trkpt lat="46.1561128" lon="9.4177271"><ele>200.0</ele><time>2026-04-23T07:21:15.137Z</time></trkpt><trkpt lat="46.1561692" lon="9.4177821"><ele>200.0</ele><time>2026-04-23T07:21:16.136Z</time></trkpt><trkpt lat="46.1562677" lon="9.417882"><ele>200.0</ele><time>2026-04-23T07:21:18.14Z</time></trkpt><trkpt lat="46.1563698" lon="9.4179896"><ele>199.8</ele><time>2026-04-23T07:21:20.143Z</time></trkpt><trkpt lat="46.1564239" lon="9.4180403"><ele>199.6</ele><time>2026-04-23T07:21:21.137Z</time></trkpt><trkpt lat="46.1565304" lon="9.4181467"><ele>199.39999999999998</ele><time>2026-04-23T07:21:23.137Z</time></trkpt><trkpt lat="46.1566317" lon="9.4182523"><ele>199.2</ele><time>2026-04-23T07:21:25.141Z</time></trkpt><trkpt lat="46.1567407" lon="9.4183532"><ele>199.0</ele><time>2026-04-23T07:21:27.139Z</time></trkpt><trkpt lat="46.1567961" lon="9.4184064"><ele>199.0</ele><time>2026-04-23T07:21:28.136Z</time></trkpt><trkpt lat="46.1568487" lon="9.4184678"><ele>199.0</ele><time>2026-04-23T07:21:29.139Z</time></trkpt><trkpt lat="46.1568934" lon="9.4185367"><ele>199.0</ele><time>2026-04-23T07:21:30.137Z</time></trkpt><trkpt lat="46.156951" lon="9.4187016"><ele>199.0</ele><time>2026-04-23T07:21:32.144Z</time></trkpt><trkpt lat="46.1570234" lon="9.418832"><ele>199.0</ele><time>2026-04-23T07:21:34.143Z</time></trkpt><trkpt lat="46.1571326" lon="9.4188789"><ele>198.99999999999997</ele><time>2026-04-23T07:21:36.139Z</time></trkpt><trkpt lat="46.1572532" lon="9.4189049"><ele>199.0</ele><time>2026-04-23T07:21:38.143Z</time></trkpt><trkpt lat="46.1573575" lon="9.418974"><ele>199.0</ele><time>2026-04-23T07:21:40.142Z</time></trkpt><trkpt lat="46.1574113" lon="9.4190213"><ele>199.0</ele><time>2026-04-23T07:21:41.136Z</time></trkpt><trkpt lat="46.157469" lon="9.4190694"><ele>198.99999999999997</ele><time>2026-04-23T07:21:42.138Z</time></trkpt><trkpt lat="46.1575233" lon="9.4191169"><ele>199.0</ele><time>2026-04-23T07:21:43.14Z</time></trkpt><trkpt lat="46.1576323" lon="9.4192229"><ele>199.14285714285714</ele><time>2026-04-23T07:21:45.14Z</time></trkpt><trkpt lat="46.1576884" lon="9.4192771"><ele>199.28571428571428</ele><time>2026-04-23T07:21:46.137Z</time></trkpt><trkpt lat="46.157745" lon="9.4193312"><ele>199.42857142857144</ele><time>2026-04-23T07:21:47.144Z</time></trkpt><trkpt lat="46.1578014" lon="9.4193844"><ele>199.57142857142856</ele><time>2026-04-23T07:21:48.137Z</time></trkpt><trkpt lat="46.1578552" lon="9.4194351"><ele>199.71428571428572</ele><time>2026-04-23T07:21:49.139Z</time></trkpt><trkpt lat="46.1579089" lon="9.4194871"><ele>199.85714285714286</ele><time>2026-04-23T07:21:50.143Z</time></trkpt><trkpt lat="46.1579628" lon="9.4195404"><ele>200.0</ele><time>2026-04-23T07:21:51.138Z</time></trkpt><trkpt lat="46.1580634" lon="9.4196395"><ele>200.0</ele><time>2026-04-23T07:21:53.14Z</time></trkpt><trkpt lat="46.1581661" lon="9.419732"><ele>200.0</ele><time>2026-04-23T07:21:55.138Z</time></trkpt><trkpt lat="46.1582497" lon="9.4198098"><ele>200.0</ele><time>2026-04-23T07:21:57.144Z</time></trkpt><trkpt lat="46.1583324" lon="9.4198964"><ele>200.0</ele><time>2026-04-23T07:21:59.137Z</time></trkpt><trkpt lat="46.1583841" lon="9.4200056"><ele>200.0</ele><time>2026-04-23T07:22:01.14Z</time></trkpt><trkpt lat="46.1583429" lon="9.4201614"><ele>200.0</ele><time>2026-04-23T07:22:03.139Z</time></trkpt><trkpt lat="46.1582515" lon="9.4202638"><ele>200.0</ele><time>2026-04-23T07:22:05.14Z</time></trkpt><trkpt lat="46.1581625" lon="9.4203634"><ele>200.0</ele><time>2026-04-23T07:22:07.14Z</time></trkpt><trkpt lat="46.1580658" lon="9.4204695"><ele>200.0</ele><time>2026-04-23T07:22:09.139Z</time></trkpt><trkpt lat="46.1579708" lon="9.4205711"><ele>199.85714285714286</ele><time>2026-04-23T07:22:11.137Z</time></trkpt><trkpt lat="46.1579193" lon="9.4206271"><ele>199.71428571428572</ele><time>2026-04-23T07:22:12.14Z</time></trkpt><trkpt lat="46.1578691" lon="9.4206877"><ele>199.57142857142856</ele><time>2026-04-23T07:22:13.143Z</time></trkpt><trkpt lat="46.1578196" lon="9.4207481"><ele>199.42857142857144</ele><time>2026-04-23T07:22:14.138Z</time></trkpt><trkpt lat="46.1577671" lon="9.4208074"><ele>199.28571428571428</ele><time>2026-04-23T07:22:15.146Z</time></trkpt><trkpt lat="46.1576703" lon="9.4209162"><ele>199.14285714285714</ele><time>2026-04-23T07:22:17.145Z</time></trkpt><trkpt lat="46.1576205" lon="9.4209745"><ele>199.0</ele><time>2026-04-23T07:22:18.137Z</time></trkpt><trkpt lat="46.1575257" lon="9.4210813"><ele>199.0</ele><time>2026-04-23T07:22:20.138Z</time></trkpt><trkpt lat="46.157442" lon="9.421183"><ele>199.0</ele><time>2026-04-23T07:22:22.14Z</time></trkpt><trkpt lat="46.1573555" lon="9.4212972"><ele>199.0</ele><time>2026-04-23T07:22:24.138Z</time></trkpt><trkpt lat="46.1572628" lon="9.4214013"><ele>199.0</ele><time>2026-04-23T07:22:26.136Z</time></trkpt><trkpt lat="46.1572084" lon="9.4214539"><ele>199.0</ele><time>2026-04-23T07:22:27.137Z</time></trkpt><trkpt lat="46.1571156" lon="9.4215674"><ele>199.25</ele><time>2026-04-23T07:22:29.139Z</time></trkpt><trkpt lat="46.1570197" lon="9.4216819"><ele>199.5</ele><time>2026-04-23T07:22:31.144Z</time></trkpt><trkpt lat="46.156925" lon="9.4217937"><ele>199.75</ele><time>2026-04-23T07:22:33.137Z</time></trkpt><trkpt lat="46.1568339" lon="9.421905"><ele>200.0</ele><time>2026-04-23T07:22:35.136Z</time></trkpt><trkpt lat="46.1567353" lon="9.4220285"><ele>200.0</ele><time>2026-04-23T07:22:37.14Z</time></trkpt><trkpt lat="46.15664" lon="9.4221504"><ele>200.0</ele><time>2026-04-23T07:22:39.143Z</time></trkpt><trkpt lat="46.1565924" lon="9.4222102"><ele>200.0</ele><time>2026-04-23T07:22:40.137Z</time></trkpt><trkpt lat="46.1565108" lon="9.4223229"><ele>200.0</ele><time>2026-04-23T07:22:42.135Z</time></trkpt><trkpt lat="46.1564228" lon="9.4224322"><ele>200.0</ele><time>2026-04-23T07:22:44.138Z</time></trkpt><trkpt lat="46.1563493" lon="9.4225556"><ele>200.2</ele><time>2026-04-23T07:22:46.145Z</time></trkpt><trkpt lat="46.1563033" lon="9.4226837"><ele>200.4</ele><time>2026-04-23T07:22:48.137Z</time></trkpt><trkpt lat="46.1562811" lon="9.4228234"><ele>200.60000000000002</ele><time>2026-04-23T07:22:50.136Z</time></trkpt><trkpt lat="46.1562595" lon="9.4229737"><ele>200.8</ele><time>2026-04-23T07:22:52.14Z</time></trkpt><trkpt lat="46.1562482" lon="9.4231338"><ele>201.0</ele><time>2026-04-23T07:22:54.138Z</time></trkpt><trkpt lat="46.1562341" lon="9.4232809"><ele>201.0</ele><time>2026-04-23T07:22:56.143Z</time></trkpt><trkpt lat="46.1562279" lon="9.4234316"><ele>201.0</ele><time>2026-04-23T07:22:58.138Z</time></trkpt><trkpt lat="46.1562086" lon="9.4235756"><ele>201.0</ele><time>2026-04-23T07:23:00.138Z</time></trkpt><trkpt lat="46.1561976" lon="9.4237343"><ele>201.0</ele><time>2026-04-23T07:23:02.145Z</time></trkpt><trkpt lat="46.156189" lon="9.4238873"><ele>201.0</ele><time>2026-04-23T07:23:04.138Z</time></trkpt><trkpt lat="46.1561785" lon="9.4240376"><ele>201.28571428571428</ele><time>2026-04-23T07:23:06.143Z</time></trkpt><trkpt lat="46.156168" lon="9.4241357"><ele>201.57142857142858</ele><time>2026-04-23T07:23:08.136Z</time></trkpt><trkpt lat="46.1561396" lon="9.4242369"><ele>201.85714285714286</ele><time>2026-04-23T07:23:31.138Z</time></trkpt><trkpt lat="46.1561434" lon="9.4243425"><ele>202.14285714285714</ele><time>2026-04-23T07:23:35.144Z</time></trkpt><trkpt lat="46.1561381" lon="9.424442"><ele>202.42857142857144</ele><time>2026-04-23T07:23:38.141Z</time></trkpt><trkpt lat="46.1561261" lon="9.4245325"><ele>202.71428571428572</ele><time>2026-04-23T07:23:40.142Z</time></trkpt><trkpt lat="46.1561174" lon="9.424645"><ele>203.0</ele><time>2026-04-23T07:23:42.138Z</time></trkpt><trkpt lat="46.156116" lon="9.4247731"><ele>203.0</ele><time>2026-04-23T07:23:44.142Z</time></trkpt><trkpt lat="46.1561133" lon="9.4249038"><ele>203.0</ele><time>2026-04-23T07:23:46.14Z</time></trkpt><trkpt lat="46.156103" lon="9.4250368"><ele>203.0</ele><time>2026-04-23T07:23:48.137Z</time></trkpt><trkpt lat="46.1560934" lon="9.4251729"><ele>203.0</ele><time>2026-04-23T07:23:50.136Z</time></trkpt><trkpt lat="46.1560881" lon="9.4253201"><ele>203.0</ele><time>2026-04-23T07:23:52.136Z</time></trkpt><trkpt lat="46.1560834" lon="9.4254625"><ele>203.0</ele><time>2026-04-23T07:23:54.137Z</time></trkpt><trkpt lat="46.1560655" lon="9.4255933"><ele>203.0</ele><time>2026-04-23T07:23:56.136Z</time></trkpt><trkpt lat="46.1560388" lon="9.4257446"><ele>203.0</ele><time>2026-04-23T07:23:58.137Z</time></trkpt><trkpt lat="46.1560128" lon="9.4258978"><ele>203.0</ele><time>2026-04-23T07:24:00.137Z</time></trkpt><trkpt lat="46.1559815" lon="9.4260502"><ele>203.0</ele><time>2026-04-23T07:24:02.137Z</time></trkpt><trkpt lat="46.1559457" lon="9.4261875"><ele>203.2</ele><time>2026-04-23T07:24:04.136Z</time></trkpt><trkpt lat="46.155924" lon="9.4263419"><ele>203.4</ele><time>2026-04-23T07:24:06.144Z</time></trkpt><trkpt lat="46.1558963" lon="9.4264944"><ele>203.6</ele><time>2026-04-23T07:24:08.136Z</time></trkpt><trkpt lat="46.1558893" lon="9.4266594"><ele>203.79999999999998</ele><time>2026-04-23T07:24:10.138Z</time></trkpt><trkpt lat="46.1558843" lon="9.4268249"><ele>204.0</ele><time>2026-04-23T07:24:12.138Z</time></trkpt><trkpt lat="46.1558782" lon="9.4270019"><ele>203.5</ele><time>2026-04-23T07:24:14.136Z</time></trkpt><trkpt lat="46.1558778" lon="9.4271677"><ele>203.0</ele><time>2026-04-23T07:24:16.136Z</time></trkpt><trkpt lat="46.1558805" lon="9.4273361"><ele>202.5</ele><time>2026-04-23T07:24:18.137Z</time></trkpt><trkpt lat="46.1558883" lon="9.4275008"><ele>202.0</ele><time>2026-04-23T07:24:20.137Z</time></trkpt><trkpt lat="46.1558928" lon="9.4276536"><ele>201.99999999999997</ele><time>2026-04-23T07:24:22.138Z</time></trkpt><trkpt lat="46.1558984" lon="9.4278093"><ele>202.0</ele><time>2026-04-23T07:24:24.138Z</time></trkpt><trkpt lat="46.1558981" lon="9.4279559"><ele>202.0</ele><time>2026-04-23T07:24:26.137Z</time></trkpt><trkpt lat="46.1558958" lon="9.4280571"><ele>202.0</ele><time>2026-04-23T07:24:28.139Z</time></trkpt><trkpt lat="46.1558953" lon="9.4281659"><ele>201.99999999999997</ele><time>2026-04-23T07:24:30.136Z</time></trkpt><trkpt lat="46.1558916" lon="9.4282743"><ele>202.0</ele><time>2026-04-23T07:24:32.143Z</time></trkpt><trkpt lat="46.1558938" lon="9.4283854"><ele>201.99999999999997</ele><time>2026-04-23T07:24:34.14Z</time></trkpt><trkpt lat="46.1558951" lon="9.4285046"><ele>202.0</ele><time>2026-04-23T07:24:36.139Z</time></trkpt><trkpt lat="46.1558932" lon="9.4286186"><ele>202.0</ele><time>2026-04-23T07:24:38.142Z</time></trkpt><trkpt lat="46.1558944" lon="9.4287381"><ele>202.0</ele><time>2026-04-23T07:24:40.145Z</time></trkpt><trkpt lat="46.1558947" lon="9.4288526"><ele>201.99999999999997</ele><time>2026-04-23T07:24:42.141Z</time></trkpt><trkpt lat="46.1558949" lon="9.4289639"><ele>202.0</ele><time>2026-04-23T07:24:44.136Z</time></trkpt><trkpt lat="46.1558928" lon="9.4290866"><ele>201.99999999999997</ele><time>2026-04-23T07:24:46.138Z</time></trkpt><trkpt lat="46.1558839" lon="9.4292092"><ele>202.0</ele><time>2026-04-23T07:24:48.146Z</time></trkpt><trkpt lat="46.1558852" lon="9.4293197"><ele>202.0</ele><time>2026-04-23T07:24:50.144Z</time></trkpt><trkpt lat="46.1558816" lon="9.4294345"><ele>202.0</ele><time>2026-04-23T07:24:52.139Z</time></trkpt><trkpt lat="46.1558817" lon="9.4295688"><ele>201.99999999999997</ele><time>2026-04-23T07:24:54.138Z</time></trkpt><trkpt lat="46.1558821" lon="9.4297057"><ele>202.0</ele><time>2026-04-23T07:24:56.136Z</time></trkpt><trkpt lat="46.1558912" lon="9.4298473"><ele>201.8</ele><time>2026-04-23T07:24:58.138Z</time></trkpt><trkpt lat="46.1558908" lon="9.4299847"><ele>201.6</ele><time>2026-04-23T07:25:00.138Z</time></trkpt><trkpt lat="46.155894" lon="9.4301309"><ele>201.4</ele><time>2026-04-23T07:25:02.137Z</time></trkpt><trkpt lat="46.1559024" lon="9.4302834"><ele>201.20000000000002</ele><time>2026-04-23T07:25:04.137Z</time></trkpt><trkpt lat="46.155903" lon="9.4304188"><ele>201.0</ele><time>2026-04-23T07:25:06.137Z</time></trkpt><trkpt lat="46.1558851" lon="9.4305476"><ele>201.33333333333334</ele><time>2026-04-23T07:25:09.137Z</time></trkpt><trkpt lat="46.1558748" lon="9.4306408"><ele>201.66666666666669</ele><time>2026-04-23T07:25:11.138Z</time></trkpt><trkpt lat="46.1558647" lon="9.4307543"><ele>202.0</ele><time>2026-04-23T07:25:13.138Z</time></trkpt><trkpt lat="46.1558844" lon="9.4308741"><ele>202.33333333333334</ele><time>2026-04-23T07:25:15.14Z</time></trkpt><trkpt lat="46.1559328" lon="9.4309926"><ele>202.66666666666669</ele><time>2026-04-23T07:25:17.137Z</time></trkpt><trkpt lat="46.1559573" lon="9.4311126"><ele>203.0</ele><time>2026-04-23T07:25:19.137Z</time></trkpt><trkpt lat="46.1559723" lon="9.4312245"><ele>203.66666666666669</ele><time>2026-04-23T07:25:21.138Z</time></trkpt><trkpt lat="46.1559728" lon="9.4313163"><ele>204.33333333333334</ele><time>2026-04-23T07:25:23.137Z</time></trkpt><trkpt lat="46.1559869" lon="9.4314503"><ele>205.0</ele><time>2026-04-23T07:25:26.137Z</time></trkpt><trkpt lat="46.1560202" lon="9.4315463"><ele>205.66666666666669</ele><time>2026-04-23T07:25:29.138Z</time></trkpt><trkpt lat="46.1560922" lon="9.4316115"><ele>206.33333333333334</ele><time>2026-04-23T07:25:32.138Z</time></trkpt><trkpt lat="46.1561839" lon="9.431652"><ele>207.0</ele><time>2026-04-23T07:25:35.138Z</time></trkpt><trkpt lat="46.1562511" lon="9.4316941"><ele>207.0</ele><time>2026-04-23T07:25:37.137Z</time></trkpt><trkpt lat="46.1563248" lon="9.4317216"><ele>207.0</ele><time>2026-04-23T07:25:39.137Z</time></trkpt><trkpt lat="46.1563913" lon="9.4317402"><ele>207.0</ele><time>2026-04-23T07:25:41.138Z</time></trkpt><trkpt lat="46.1564605" lon="9.4317353"><ele>207.0</ele><time>2026-04-23T07:25:43.137Z</time></trkpt><trkpt lat="46.1565397" lon="9.4316946"><ele>207.0</ele><time>2026-04-23T07:25:46.143Z</time></trkpt><trkpt lat="46.1566171" lon="9.4316968"><ele>207.0</ele><time>2026-04-23T07:26:12.137Z</time></trkpt><trkpt lat="46.1566817" lon="9.4316361"><ele>206.83333333333334</ele><time>2026-04-23T07:26:15.136Z</time></trkpt><trkpt lat="46.1567541" lon="9.4316345"><ele>206.66666666666669</ele><time>2026-04-23T07:26:17.137Z</time></trkpt><trkpt lat="46.1568316" lon="9.4316231"><ele>206.5</ele><time>2026-04-23T07:26:19.136Z</time></trkpt><trkpt lat="46.1569087" lon="9.4316264"><ele>206.33333333333334</ele><time>2026-04-23T07:26:21.138Z</time></trkpt><trkpt lat="46.1569754" lon="9.4316368"><ele>206.16666666666669</ele><time>2026-04-23T07:26:23.137Z</time></trkpt><trkpt lat="46.1570572" lon="9.4316677"><ele>206.0</ele><time>2026-04-23T07:26:25.137Z</time></trkpt><trkpt lat="46.1571271" lon="9.431699"><ele>206.00000000000003</ele><time>2026-04-23T07:26:27.232Z</time></trkpt><trkpt lat="46.1571993" lon="9.4317139"><ele>206.0</ele><time>2026-04-23T07:26:29.138Z</time></trkpt><trkpt lat="46.157273" lon="9.4317564"><ele>206.0</ele><time>2026-04-23T07:26:31.163Z</time></trkpt><trkpt lat="46.1573413" lon="9.4317784"><ele>206.0</ele><time>2026-04-23T07:26:33.232Z</time></trkpt><trkpt lat="46.1574331" lon="9.4317726"><ele>206.00000000000003</ele><time>2026-04-23T07:26:36.232Z</time></trkpt><trkpt lat="46.1575234" lon="9.4317535"><ele>206.0</ele><time>2026-04-23T07:26:39.231Z</time></trkpt><trkpt lat="46.157601" lon="9.4317311"><ele>206.00000000000003</ele><time>2026-04-23T07:26:42.231Z</time></trkpt><trkpt lat="46.1576025" lon="9.4318531"><ele>206.0</ele><time>2026-04-23T07:26:46.137Z</time></trkpt><trkpt lat="46.1575391" lon="9.4319459"><ele>206.0</ele><time>2026-04-23T07:26:49.232Z</time></trkpt><trkpt lat="46.1574523" lon="9.4320015"><ele>206.0</ele><time>2026-04-23T07:26:52.232Z</time></trkpt><trkpt lat="46.157387" lon="9.4319999"><ele>206.00000000000003</ele><time>2026-04-23T07:26:54.231Z</time></trkpt><trkpt lat="46.1573102" lon="9.4319959"><ele>206.0</ele><time>2026-04-23T07:26:57.231Z</time></trkpt><trkpt lat="46.157247" lon="9.4320714"><ele>208.00000000000003</ele><time>2026-04-23T07:27:00.191Z</time></trkpt><trkpt lat="46.1571899" lon="9.4321569"><ele>210.0</ele><time>2026-04-23T07:27:03.138Z</time></trkpt><trkpt lat="46.1571279" lon="9.4322222"><ele>212.0</ele><time>2026-04-23T07:27:06.138Z</time></trkpt><trkpt lat="46.1570638" lon="9.4322838"><ele>214.0</ele><time>2026-04-23T07:27:09.231Z</time></trkpt><trkpt lat="46.1570047" lon="9.4323734"><ele>216.00000000000003</ele><time>2026-04-23T07:27:13.213Z</time></trkpt><trkpt lat="46.1569349" lon="9.4324182"><ele>218.0</ele><time>2026-04-23T07:27:16.138Z</time></trkpt><trkpt lat="46.1568823" lon="9.4324804"><ele>218.0</ele><time>2026-04-23T07:27:19.238Z</time></trkpt><trkpt lat="46.156834" lon="9.4325459"><ele>218.0</ele><time>2026-04-23T07:27:22.137Z</time></trkpt><trkpt lat="46.1567781" lon="9.4325965"><ele>218.0</ele><time>2026-04-23T07:27:25.138Z</time></trkpt><trkpt lat="46.156713" lon="9.4326403"><ele>218.0</ele><time>2026-04-23T07:27:29.138Z</time></trkpt><trkpt lat="46.1566449" lon="9.4326849"><ele>218.0</ele><time>2026-04-23T07:27:33.81Z</time></trkpt><trkpt lat="46.1565798" lon="9.4327062"><ele>218.0</ele><time>2026-04-23T07:27:38.214Z</time></trkpt><trkpt lat="46.1565161" lon="9.4327572"><ele>218.0</ele><time>2026-04-23T07:27:43.137Z</time></trkpt><trkpt lat="46.156462" lon="9.4328162"><ele>218.0</ele><time>2026-04-23T07:27:48.137Z</time></trkpt><trkpt lat="46.1564105" lon="9.4328831"><ele>218.0</ele><time>2026-04-23T07:27:54.219Z</time></trkpt><trkpt lat="46.1563517" lon="9.4329201"><ele>218.0</ele><time>2026-04-23T07:28:00.138Z</time></trkpt><trkpt lat="46.1563012" lon="9.4329812"><ele>218.0</ele><time>2026-04-23T07:28:06.137Z</time></trkpt><trkpt lat="46.1562357" lon="9.433022"><ele>218.0</ele><time>2026-04-23T07:28:13.137Z</time></trkpt><trkpt lat="46.1561659" lon="9.4330625"><ele>218.0</ele><time>2026-04-23T07:28:20.139Z</time></trkpt><trkpt lat="46.1561147" lon="9.4331282"><ele>218.0</ele><time>2026-04-23T07:28:25.138Z</time></trkpt><trkpt lat="46.1560485" lon="9.433134"><ele>219.0</ele><time>2026-04-23T07:28:30.141Z</time></trkpt><trkpt lat="46.1559734" lon="9.4331571"><ele>220.0</ele><time>2026-04-23T07:28:35.139Z</time></trkpt><trkpt lat="46.155912" lon="9.4331926"><ele>221.0</ele><time>2026-04-23T07:28:41.232Z</time></trkpt><trkpt lat="46.1558458" lon="9.433179"><ele>222.0</ele><time>2026-04-23T07:28:47.204Z</time></trkpt><trkpt lat="46.155785" lon="9.433151"><ele>223.0</ele><time>2026-04-23T07:28:52.137Z</time></trkpt><trkpt lat="46.155719" lon="9.4331318"><ele>224.00000000000003</ele><time>2026-04-23T07:28:57.139Z</time></trkpt><trkpt lat="46.1556445" lon="9.4331663"><ele>225.00000000000003</ele><time>2026-04-23T07:29:03.231Z</time></trkpt><trkpt lat="46.1555961" lon="9.4332332"><ele>225.00000000000003</ele><time>2026-04-23T07:29:07.231Z</time></trkpt><trkpt lat="46.155547" lon="9.433301"><ele>225.0</ele><time>2026-04-23T07:29:13.137Z</time></trkpt><trkpt lat="46.1554969" lon="9.4333645"><ele>225.00000000000003</ele><time>2026-04-23T07:29:19.139Z</time></trkpt><trkpt lat="46.1554505" lon="9.4334499"><ele>225.00000000000003</ele><time>2026-04-23T07:29:24.138Z</time></trkpt><trkpt lat="46.1553961" lon="9.4335167"><ele>225.0</ele><time>2026-04-23T07:29:29.137Z</time></trkpt><trkpt lat="46.1553407" lon="9.4336138"><ele>225.00000000000003</ele><time>2026-04-23T07:29:32.042Z</time></trkpt><trkpt lat="46.1553074" lon="9.4337102"><ele>225.00000000000003</ele><time>2026-04-23T07:29:34.223Z</time></trkpt><trkpt lat="46.1552869" lon="9.4338324"><ele>227.0</ele><time>2026-04-23T07:29:36.26Z</time></trkpt><trkpt lat="46.1552825" lon="9.4339547"><ele>229.0</ele><time>2026-04-23T07:29:38.138Z</time></trkpt><trkpt lat="46.1552554" lon="9.4340746"><ele>231.0</ele><time>2026-04-23T07:29:40.139Z</time></trkpt><trkpt lat="46.1551885" lon="9.4341568"><ele>233.0</ele><time>2026-04-23T07:29:42.139Z</time></trkpt><trkpt lat="46.1551186" lon="9.4341972"><ele>235.0</ele><time>2026-04-23T07:29:44.139Z</time></trkpt><trkpt lat="46.1550603" lon="9.4342327"><ele>237.0</ele><time>2026-04-23T07:29:46.139Z</time></trkpt><trkpt lat="46.1549768" lon="9.434303"><ele>237.0</ele><time>2026-04-23T07:29:49.138Z</time></trkpt><trkpt lat="46.1549122" lon="9.4343717"><ele>237.0</ele><time>2026-04-23T07:29:51.137Z</time></trkpt><trkpt lat="46.1548589" lon="9.4344764"><ele>237.0</ele><time>2026-04-23T07:29:53.138Z</time></trkpt><trkpt lat="46.1548114" lon="9.4346048"><ele>237.0</ele><time>2026-04-23T07:29:55.138Z</time></trkpt><trkpt lat="46.1547537" lon="9.4347347"><ele>237.0</ele><time>2026-04-23T07:29:57.139Z</time></trkpt><trkpt lat="46.1546869" lon="9.4348648"><ele>233.6</ele><time>2026-04-23T07:29:59.138Z</time></trkpt><trkpt lat="46.1546165" lon="9.4349748"><ele>230.2</ele><time>2026-04-23T07:30:01.138Z</time></trkpt><trkpt lat="46.1545394" lon="9.4350749"><ele>226.8</ele><time>2026-04-23T07:30:03.138Z</time></trkpt><trkpt lat="46.1544561" lon="9.4351792"><ele>223.4</ele><time>2026-04-23T07:30:05.138Z</time></trkpt><trkpt lat="46.1543772" lon="9.4352925"><ele>220.0</ele><time>2026-04-23T07:30:07.138Z</time></trkpt><trkpt lat="46.1542954" lon="9.4354196"><ele>221.99999999999997</ele><time>2026-04-23T07:30:09.138Z</time></trkpt><trkpt lat="46.1542112" lon="9.4355333"><ele>224.0</ele><time>2026-04-23T07:30:11.139Z</time></trkpt><trkpt lat="46.1541523" lon="9.43564"><ele>226.0</ele><time>2026-04-23T07:30:13.137Z</time></trkpt><trkpt lat="46.1541042" lon="9.435721"><ele>228.0</ele><time>2026-04-23T07:30:15.139Z</time></trkpt><trkpt lat="46.1540612" lon="9.4357984"><ele>229.99999999999997</ele><time>2026-04-23T07:30:17.138Z</time></trkpt><trkpt lat="46.1540062" lon="9.4358983"><ele>232.0</ele><time>2026-04-23T07:30:20.139Z</time></trkpt><trkpt lat="46.1539757" lon="9.4360088"><ele>227.99999999999997</ele><time>2026-04-23T07:30:23.138Z</time></trkpt><trkpt lat="46.1539618" lon="9.436118"><ele>224.0</ele><time>2026-04-23T07:30:26.139Z</time></trkpt><trkpt lat="46.1539539" lon="9.4362396"><ele>220.0</ele><time>2026-04-23T07:30:29.138Z</time></trkpt><trkpt lat="46.1539526" lon="9.4363559"><ele>216.0</ele><time>2026-04-23T07:30:31.138Z</time></trkpt><trkpt lat="46.1539423" lon="9.4364932"><ele>211.99999999999997</ele><time>2026-04-23T07:30:33.137Z</time></trkpt><trkpt lat="46.1539691" lon="9.4366363"><ele>208.0</ele><time>2026-04-23T07:30:35.139Z</time></trkpt><trkpt lat="46.154022" lon="9.4367641"><ele>210.66666666666666</ele><time>2026-04-23T07:30:37.138Z</time></trkpt><trkpt lat="46.1540788" lon="9.4369199"><ele>213.33333333333331</ele><time>2026-04-23T07:30:39.138Z</time></trkpt><trkpt lat="46.1541372" lon="9.4370756"><ele>216.0</ele><time>2026-04-23T07:30:41.139Z</time></trkpt><trkpt lat="46.1541706" lon="9.4371612"><ele>218.66666666666669</ele><time>2026-04-23T07:30:42.138Z</time></trkpt><trkpt lat="46.1542023" lon="9.4372459"><ele>221.33333333333334</ele><time>2026-04-23T07:30:43.138Z</time></trkpt><trkpt lat="46.1542378" lon="9.4373317"><ele>224.0</ele><time>2026-04-23T07:30:44.139Z</time></trkpt><trkpt lat="46.154268" lon="9.4374144"><ele>224.0</ele><time>2026-04-23T07:30:45.138Z</time></trkpt><trkpt lat="46.1543152" lon="9.4375405"><ele>223.99999999999997</ele><time>2026-04-23T07:30:47.139Z</time></trkpt><trkpt lat="46.1543496" lon="9.4376718"><ele>223.99999999999997</ele><time>2026-04-23T07:30:49.138Z</time></trkpt><trkpt lat="46.154379" lon="9.4378027"><ele>224.0</ele><time>2026-04-23T07:30:51.137Z</time></trkpt><trkpt lat="46.1544092" lon="9.4379353"><ele>224.0</ele><time>2026-04-23T07:30:53.138Z</time></trkpt><trkpt lat="46.1544306" lon="9.4380585"><ele>223.33333333333334</ele><time>2026-04-23T07:30:55.139Z</time></trkpt><trkpt lat="46.1544462" lon="9.4381728"><ele>222.66666666666669</ele><time>2026-04-23T07:30:57.138Z</time></trkpt><trkpt lat="46.154465" lon="9.438286"><ele>222.0</ele><time>2026-04-23T07:30:59.138Z</time></trkpt><trkpt lat="46.154485" lon="9.4383955"><ele>221.33333333333331</ele><time>2026-04-23T07:31:01.139Z</time></trkpt><trkpt lat="46.1545134" lon="9.4384996"><ele>220.66666666666666</ele><time>2026-04-23T07:31:04.14Z</time></trkpt><trkpt lat="46.1545394" lon="9.4386007"><ele>220.0</ele><time>2026-04-23T07:31:07.14Z</time></trkpt><trkpt lat="46.1545756" lon="9.4387122"><ele>219.0</ele><time>2026-04-23T07:31:10.138Z</time></trkpt><trkpt lat="46.1546023" lon="9.4388316"><ele>218.0</ele><time>2026-04-23T07:31:13.138Z</time></trkpt><trkpt lat="46.1546164" lon="9.4389384"><ele>217.0</ele><time>2026-04-23T07:31:15.138Z</time></trkpt><trkpt lat="46.154625" lon="9.4390585"><ele>216.0</ele><time>2026-04-23T07:31:17.139Z</time></trkpt><trkpt lat="46.1546225" lon="9.4391998"><ele>215.0</ele><time>2026-04-23T07:31:19.139Z</time></trkpt><trkpt lat="46.1546282" lon="9.4393719"><ele>215.0</ele><time>2026-04-23T07:31:21.138Z</time></trkpt><trkpt lat="46.1546269" lon="9.4395357"><ele>215.0</ele><time>2026-04-23T07:31:23.139Z</time></trkpt><trkpt lat="46.1546365" lon="9.4397024"><ele>215.0</ele><time>2026-04-23T07:31:25.139Z</time></trkpt><trkpt lat="46.1546372" lon="9.4398434"><ele>215.0</ele><time>2026-04-23T07:31:27.139Z</time></trkpt><trkpt lat="46.1546532" lon="9.4399713"><ele>215.0</ele><time>2026-04-23T07:31:29.138Z</time></trkpt><trkpt lat="46.1546695" lon="9.4401147"><ele>213.8</ele><time>2026-04-23T07:31:31.139Z</time></trkpt><trkpt lat="46.1547002" lon="9.44026"><ele>212.6</ele><time>2026-04-23T07:31:33.139Z</time></trkpt><trkpt lat="46.1547453" lon="9.4403927"><ele>211.39999999999998</ele><time>2026-04-23T07:31:35.138Z</time></trkpt><trkpt lat="46.1548079" lon="9.4405378"><ele>210.2</ele><time>2026-04-23T07:31:37.14Z</time></trkpt><trkpt lat="46.1548615" lon="9.4406733"><ele>209.0</ele><time>2026-04-23T07:31:39.139Z</time></trkpt><trkpt lat="46.1549252" lon="9.4408225"><ele>211.79999999999998</ele><time>2026-04-23T07:31:41.14Z</time></trkpt><trkpt lat="46.154968" lon="9.440968"><ele>214.6</ele><time>2026-04-23T07:31:43.138Z</time></trkpt><trkpt lat="46.1549877" lon="9.4411118"><ele>217.4</ele><time>2026-04-23T07:31:45.139Z</time></trkpt><trkpt lat="46.1550092" lon="9.4412701"><ele>220.2</ele><time>2026-04-23T07:31:47.138Z</time></trkpt><trkpt lat="46.1550302" lon="9.441424"><ele>223.0</ele><time>2026-04-23T07:31:49.138Z</time></trkpt><trkpt lat="46.1550444" lon="9.4416042"><ele>223.0</ele><time>2026-04-23T07:31:51.139Z</time></trkpt><trkpt lat="46.1550528" lon="9.4417794"><ele>223.0</ele><time>2026-04-23T07:31:53.138Z</time></trkpt><trkpt lat="46.1550633" lon="9.441942"><ele>223.0</ele><time>2026-04-23T07:31:55.138Z</time></trkpt><trkpt lat="46.1550754" lon="9.442116"><ele>223.0</ele><time>2026-04-23T07:31:57.14Z</time></trkpt><trkpt lat="46.1550787" lon="9.4422833"><ele>222.60000000000002</ele><time>2026-04-23T07:31:59.138Z</time></trkpt><trkpt lat="46.155065" lon="9.4424445"><ele>222.20000000000002</ele><time>2026-04-23T07:32:01.139Z</time></trkpt><trkpt lat="46.155027" lon="9.4426017"><ele>221.8</ele><time>2026-04-23T07:32:03.139Z</time></trkpt><trkpt lat="46.1549774" lon="9.4427629"><ele>221.4</ele><time>2026-04-23T07:32:05.139Z</time></trkpt><trkpt lat="46.1549691" lon="9.442854"><ele>221.0</ele><time>2026-04-23T07:32:06.14Z</time></trkpt><trkpt lat="46.154965" lon="9.4429534"><ele>220.83333333333334</ele><time>2026-04-23T07:32:07.139Z</time></trkpt><trkpt lat="46.1549637" lon="9.4430594"><ele>220.66666666666669</ele><time>2026-04-23T07:32:08.139Z</time></trkpt><trkpt lat="46.1549642" lon="9.4431687"><ele>220.5</ele><time>2026-04-23T07:32:09.14Z</time></trkpt><trkpt lat="46.1549672" lon="9.4432829"><ele>220.33333333333331</ele><time>2026-04-23T07:32:10.138Z</time></trkpt><trkpt lat="46.1549813" lon="9.4433942"><ele>220.16666666666666</ele><time>2026-04-23T07:32:11.14Z</time></trkpt><trkpt lat="46.1549987" lon="9.4434918"><ele>220.0</ele><time>2026-04-23T07:32:12.139Z</time></trkpt><trkpt lat="46.1550249" lon="9.4436279"><ele>219.99999999999997</ele><time>2026-04-23T07:32:14.138Z</time></trkpt><trkpt lat="46.1550844" lon="9.4436734"><ele>220.0</ele><time>2026-04-23T07:32:18.138Z</time></trkpt><trkpt lat="46.1551178" lon="9.4435739"><ele>220.0</ele><time>2026-04-23T07:32:21.138Z</time></trkpt><trkpt lat="46.1551262" lon="9.4434546"><ele>220.0</ele><time>2026-04-23T07:32:24.138Z</time></trkpt><trkpt lat="46.1551324" lon="9.4433392"><ele>220.0</ele><time>2026-04-23T07:32:27.139Z</time></trkpt><trkpt lat="46.1551192" lon="9.4432497"><ele>219.99999999999997</ele><time>2026-04-23T07:32:31.138Z</time></trkpt><trkpt lat="46.1551272" lon="9.4431581"><ele>220.0</ele><time>2026-04-23T07:32:35.139Z</time></trkpt><trkpt lat="46.1551418" lon="9.4430453"><ele>219.99999999999997</ele><time>2026-04-23T07:32:39.138Z</time></trkpt><trkpt lat="46.1551571" lon="9.4429494"><ele>220.0</ele><time>2026-04-23T07:32:43.139Z</time></trkpt><trkpt lat="46.1551638" lon="9.4428421"><ele>220.0</ele><time>2026-04-23T07:32:47.139Z</time></trkpt><trkpt lat="46.1552073" lon="9.442765"><ele>220.0</ele><time>2026-04-23T07:32:51.139Z</time></trkpt><trkpt lat="46.1552569" lon="9.4428518"><ele>220.0</ele><time>2026-04-23T07:32:55.138Z</time></trkpt><trkpt lat="46.1552662" lon="9.4429673"><ele>219.99999999999997</ele><time>2026-04-23T07:32:58.139Z</time></trkpt><trkpt lat="46.1552749" lon="9.4430728"><ele>220.0</ele><time>2026-04-23T07:33:01.139Z</time></trkpt><trkpt lat="46.155298" lon="9.4431841"><ele>219.99999999999997</ele><time>2026-04-23T07:33:04.139Z</time></trkpt><trkpt lat="46.1553117" lon="9.4432904"><ele>220.0</ele><time>2026-04-23T07:33:07.138Z</time></trkpt><trkpt lat="46.1553299" lon="9.4433919"><ele>220.0</ele><time>2026-04-23T07:33:10.139Z</time></trkpt><trkpt lat="46.1553584" lon="9.4434968"><ele>220.0</ele><time>2026-04-23T07:33:13.138Z</time></trkpt><trkpt lat="46.1553733" lon="9.4436046"><ele>219.99999999999997</ele><time>2026-04-23T07:33:16.139Z</time></trkpt><trkpt lat="46.1553935" lon="9.4437122"><ele>220.0</ele><time>2026-04-23T07:33:19.138Z</time></trkpt><trkpt lat="46.155426" lon="9.4438164"><ele>218.99999999999997</ele><time>2026-04-23T07:33:22.138Z</time></trkpt><trkpt lat="46.1554554" lon="9.4439242"><ele>218.0</ele><time>2026-04-23T07:33:25.139Z</time></trkpt><trkpt lat="46.1554711" lon="9.4440308"><ele>217.0</ele><time>2026-04-23T07:33:28.14Z</time></trkpt><trkpt lat="46.1554914" lon="9.4441446"><ele>216.0</ele><time>2026-04-23T07:33:31.139Z</time></trkpt><trkpt lat="46.1555077" lon="9.4442628"><ele>214.99999999999997</ele><time>2026-04-23T07:33:34.14Z</time></trkpt><trkpt lat="46.1555354" lon="9.4443801"><ele>214.0</ele><time>2026-04-23T07:33:37.14Z</time></trkpt><trkpt lat="46.1555621" lon="9.4444961"><ele>213.99999999999997</ele><time>2026-04-23T07:33:40.138Z</time></trkpt><trkpt lat="46.155579" lon="9.4446087"><ele>214.0</ele><time>2026-04-23T07:33:43.139Z</time></trkpt><trkpt lat="46.1555848" lon="9.4447157"><ele>214.0</ele><time>2026-04-23T07:33:46.138Z</time></trkpt><trkpt lat="46.1555903" lon="9.4448276"><ele>214.0</ele><time>2026-04-23T07:33:49.138Z</time></trkpt><trkpt lat="46.1555859" lon="9.4449458"><ele>213.99999999999997</ele><time>2026-04-23T07:33:52.139Z</time></trkpt><trkpt lat="46.155585" lon="9.4450543"><ele>214.0</ele><time>2026-04-23T07:33:55.139Z</time></trkpt><trkpt lat="46.1556068" lon="9.4451542"><ele>213.99999999999997</ele><time>2026-04-23T07:33:58.139Z</time></trkpt><trkpt lat="46.1556123" lon="9.4452713"><ele>214.0</ele><time>2026-04-23T07:34:01.14Z</time></trkpt><trkpt lat="46.155628" lon="9.4453834"><ele>214.0</ele><time>2026-04-23T07:34:04.139Z</time></trkpt><trkpt lat="46.1556524" lon="9.4454894"><ele>214.0</ele><time>2026-04-23T07:34:07.139Z</time></trkpt><trkpt lat="46.1556832" lon="9.4455936"><ele>213.99999999999997</ele><time>2026-04-23T07:34:10.139Z</time></trkpt><trkpt lat="46.1557145" lon="9.4456906"><ele>214.0</ele><time>2026-04-23T07:34:13.139Z</time></trkpt><trkpt lat="46.1557476" lon="9.445788"><ele>217.99999999999997</ele><time>2026-04-23T07:34:16.14Z</time></trkpt><trkpt lat="46.1557694" lon="9.4458877"><ele>222.0</ele><time>2026-04-23T07:34:19.14Z</time></trkpt><trkpt lat="46.1557991" lon="9.4459962"><ele>226.0</ele><time>2026-04-23T07:34:22.139Z</time></trkpt><trkpt lat="46.1558275" lon="9.4460938"><ele>230.0</ele><time>2026-04-23T07:34:25.14Z</time></trkpt><trkpt lat="46.1558409" lon="9.446198"><ele>233.99999999999997</ele><time>2026-04-23T07:34:28.14Z</time></trkpt><trkpt lat="46.1558437" lon="9.4463123"><ele>238.0</ele><time>2026-04-23T07:34:31.14Z</time></trkpt><trkpt lat="46.1558318" lon="9.4464345"><ele>237.99999999999997</ele><time>2026-04-23T07:34:34.14Z</time></trkpt><trkpt lat="46.1558258" lon="9.4465528"><ele>238.0</ele><time>2026-04-23T07:34:37.14Z</time></trkpt><trkpt lat="46.1558229" lon="9.446669"><ele>238.0</ele><time>2026-04-23T07:34:40.139Z</time></trkpt><trkpt lat="46.1558156" lon="9.4467858"><ele>238.0</ele><time>2026-04-23T07:34:43.138Z</time></trkpt><trkpt lat="46.1558004" lon="9.4469064"><ele>237.99999999999997</ele><time>2026-04-23T07:34:46.139Z</time></trkpt><trkpt lat="46.1557874" lon="9.4470228"><ele>238.0</ele><time>2026-04-23T07:34:49.14Z</time></trkpt><trkpt lat="46.1557854" lon="9.4471365"><ele>238.99999999999997</ele><time>2026-04-23T07:34:52.14Z</time></trkpt><trkpt lat="46.1557628" lon="9.4472558"><ele>240.0</ele><time>2026-04-23T07:34:55.138Z</time></trkpt><trkpt lat="46.1557293" lon="9.4473368"><ele>241.0</ele><time>2026-04-23T07:34:57.139Z</time></trkpt><trkpt lat="46.1557054" lon="9.4474217"><ele>242.0</ele><time>2026-04-23T07:34:59.139Z</time></trkpt><trkpt lat="46.1556898" lon="9.4475532"><ele>242.99999999999997</ele><time>2026-04-23T07:35:02.14Z</time></trkpt><trkpt lat="46.155684" lon="9.4476812"><ele>244.0</ele><time>2026-04-23T07:35:05.14Z</time></trkpt><trkpt lat="46.1556807" lon="9.447773"><ele>244.49999999999997</ele><time>2026-04-23T07:35:07.139Z</time></trkpt><trkpt lat="46.1556838" lon="9.4478678"><ele>245.0</ele><time>2026-04-23T07:35:09.139Z</time></trkpt><trkpt lat="46.1557077" lon="9.4479908"><ele>245.5</ele><time>2026-04-23T07:35:12.139Z</time></trkpt><trkpt lat="46.1557407" lon="9.448111"><ele>246.0</ele><time>2026-04-23T07:35:15.138Z</time></trkpt><trkpt lat="46.155774" lon="9.4482238"><ele>246.49999999999997</ele><time>2026-04-23T07:35:18.139Z</time></trkpt><trkpt lat="46.1557939" lon="9.4483273"><ele>247.0</ele><time>2026-04-23T07:35:21.14Z</time></trkpt><trkpt lat="46.155805" lon="9.4484315"><ele>246.99999999999997</ele><time>2026-04-23T07:35:24.14Z</time></trkpt><trkpt lat="46.1558194" lon="9.4485499"><ele>247.0</ele><time>2026-04-23T07:35:27.138Z</time></trkpt><trkpt lat="46.1558387" lon="9.4486721"><ele>247.0</ele><time>2026-04-23T07:35:30.139Z</time></trkpt><trkpt lat="46.1558583" lon="9.4487764"><ele>247.0</ele><time>2026-04-23T07:35:33.139Z</time></trkpt><trkpt lat="46.1558854" lon="9.4488924"><ele>246.99999999999997</ele><time>2026-04-23T07:35:36.139Z</time></trkpt><trkpt lat="46.1559187" lon="9.4490155"><ele>247.0</ele><time>2026-04-23T07:35:39.139Z</time></trkpt><trkpt lat="46.1559564" lon="9.4491294"><ele>246.83333333333331</ele><time>2026-04-23T07:35:42.14Z</time></trkpt><trkpt lat="46.155983" lon="9.4492498"><ele>246.66666666666666</ele><time>2026-04-23T07:35:45.138Z</time></trkpt><trkpt lat="46.1560046" lon="9.4493678"><ele>246.5</ele><time>2026-04-23T07:35:48.139Z</time></trkpt><trkpt lat="46.156014" lon="9.4494828"><ele>246.33333333333331</ele><time>2026-04-23T07:35:51.139Z</time></trkpt><trkpt lat="46.1560323" lon="9.4495908"><ele>246.16666666666666</ele><time>2026-04-23T07:35:54.14Z</time></trkpt><trkpt lat="46.156038" lon="9.4497031"><ele>246.0</ele><time>2026-04-23T07:35:57.139Z</time></trkpt><trkpt lat="46.1560407" lon="9.4498195"><ele>245.83333333333334</ele><time>2026-04-23T07:36:00.14Z</time></trkpt><trkpt lat="46.1560292" lon="9.4499187"><ele>245.66666666666669</ele><time>2026-04-23T07:36:03.14Z</time></trkpt><trkpt lat="46.1559813" lon="9.4500639"><ele>245.5</ele><time>2026-04-23T07:36:06.139Z</time></trkpt><trkpt lat="46.1559516" lon="9.45024"><ele>245.33333333333334</ele><time>2026-04-23T07:36:08.139Z</time></trkpt><trkpt lat="46.1559304" lon="9.4503394"><ele>245.16666666666669</ele><time>2026-04-23T07:36:09.14Z</time></trkpt><trkpt lat="46.155907" lon="9.4504345"><ele>245.0</ele><time>2026-04-23T07:36:10.139Z</time></trkpt><trkpt lat="46.1558841" lon="9.4505309"><ele>245.00000000000003</ele><time>2026-04-23T07:36:11.14Z</time></trkpt><trkpt lat="46.1558591" lon="9.4506296"><ele>245.0</ele><time>2026-04-23T07:36:12.139Z</time></trkpt><trkpt lat="46.1558358" lon="9.4507297"><ele>245.0</ele><time>2026-04-23T07:36:13.14Z</time></trkpt><trkpt lat="46.1558103" lon="9.450826"><ele>245.0</ele><time>2026-04-23T07:36:14.139Z</time></trkpt><trkpt lat="46.1557873" lon="9.4509183"><ele>245.00000000000003</ele><time>2026-04-23T07:36:15.139Z</time></trkpt><trkpt lat="46.155769" lon="9.4510065"><ele>245.0</ele><time>2026-04-23T07:36:16.14Z</time></trkpt><trkpt lat="46.1557481" lon="9.4511542"><ele>244.0</ele><time>2026-04-23T07:36:18.139Z</time></trkpt><trkpt lat="46.1557185" lon="9.4513033"><ele>243.0</ele><time>2026-04-23T07:36:20.139Z</time></trkpt><trkpt lat="46.1557074" lon="9.4513934"><ele>242.0</ele><time>2026-04-23T07:36:21.139Z</time></trkpt><trkpt lat="46.1556886" lon="9.451561"><ele>241.0</ele><time>2026-04-23T07:36:23.139Z</time></trkpt><trkpt lat="46.1556659" lon="9.4517348"><ele>240.0</ele><time>2026-04-23T07:36:25.14Z</time></trkpt><trkpt lat="46.1556391" lon="9.4518182"><ele>235.25</ele><time>2026-04-23T07:36:26.14Z</time></trkpt><trkpt lat="46.1555718" lon="9.4519458"><ele>230.5</ele><time>2026-04-23T07:36:28.14Z</time></trkpt><trkpt lat="46.1554884" lon="9.4520392"><ele>225.75</ele><time>2026-04-23T07:36:30.14Z</time></trkpt><trkpt lat="46.1553934" lon="9.4521226"><ele>221.0</ele><time>2026-04-23T07:36:32.139Z</time></trkpt><trkpt lat="46.1552633" lon="9.4522419"><ele>220.83333333333334</ele><time>2026-04-23T07:36:35.14Z</time></trkpt><trkpt lat="46.1551958" lon="9.4523146"><ele>220.66666666666669</ele><time>2026-04-23T07:36:37.14Z</time></trkpt><trkpt lat="46.1551219" lon="9.4523796"><ele>220.5</ele><time>2026-04-23T07:36:39.14Z</time></trkpt><trkpt lat="46.1550772" lon="9.4524993"><ele>220.33333333333331</ele><time>2026-04-23T07:36:41.14Z</time></trkpt><trkpt lat="46.15509" lon="9.4526282"><ele>220.16666666666666</ele><time>2026-04-23T07:36:43.139Z</time></trkpt><trkpt lat="46.1551079" lon="9.4527406"><ele>220.0</ele><time>2026-04-23T07:36:45.139Z</time></trkpt><trkpt lat="46.1551191" lon="9.4528386"><ele>219.99999999999997</ele><time>2026-04-23T07:36:47.139Z</time></trkpt><trkpt lat="46.1551278" lon="9.452929"><ele>220.0</ele><time>2026-04-23T07:36:49.139Z</time></trkpt><trkpt lat="46.1551322" lon="9.4530535"><ele>220.0</ele><time>2026-04-23T07:36:52.139Z</time></trkpt><trkpt lat="46.1551267" lon="9.453149"><ele>220.0</ele><time>2026-04-23T07:36:54.139Z</time></trkpt><trkpt lat="46.1551302" lon="9.4532447"><ele>219.99999999999997</ele><time>2026-04-23T07:36:56.141Z</time></trkpt><trkpt lat="46.1551422" lon="9.4533701"><ele>220.0</ele><time>2026-04-23T07:36:59.141Z</time></trkpt><trkpt lat="46.1551443" lon="9.4534862"><ele>220.14285714285714</ele><time>2026-04-23T07:37:02.14Z</time></trkpt><trkpt lat="46.1551466" lon="9.4535954"><ele>220.28571428571428</ele><time>2026-04-23T07:37:05.14Z</time></trkpt><trkpt lat="46.1551511" lon="9.453696"><ele>220.42857142857144</ele><time>2026-04-23T07:37:08.14Z</time></trkpt><trkpt lat="46.15514" lon="9.4537861"><ele>220.57142857142856</ele><time>2026-04-23T07:37:11.139Z</time></trkpt><trkpt lat="46.1551351" lon="9.4538789"><ele>220.71428571428572</ele><time>2026-04-23T07:37:14.14Z</time></trkpt><trkpt lat="46.1551293" lon="9.4539866"><ele>220.85714285714286</ele><time>2026-04-23T07:37:18.14Z</time></trkpt><trkpt lat="46.1551293" lon="9.4540795"><ele>221.0</ele><time>2026-04-23T07:37:22.139Z</time></trkpt><trkpt lat="46.1551498" lon="9.4541725"><ele>221.42857142857144</ele><time>2026-04-23T07:37:26.141Z</time></trkpt><trkpt lat="46.1551524" lon="9.4542707"><ele>221.85714285714286</ele><time>2026-04-23T07:37:31.141Z</time></trkpt><trkpt lat="46.1551534" lon="9.4543844"><ele>222.28571428571428</ele><time>2026-04-23T07:37:36.142Z</time></trkpt><trkpt lat="46.1551827" lon="9.4544818"><ele>222.71428571428572</ele><time>2026-04-23T07:37:41.139Z</time></trkpt><trkpt lat="46.1552115" lon="9.4545956"><ele>223.14285714285714</ele><time>2026-04-23T07:37:46.141Z</time></trkpt><trkpt lat="46.1552509" lon="9.454685"><ele>223.57142857142858</ele><time>2026-04-23T07:37:51.139Z</time></trkpt><trkpt lat="46.1552946" lon="9.4547631"><ele>224.0</ele><time>2026-04-23T07:37:56.141Z</time></trkpt><trkpt lat="46.1553514" lon="9.4548352"><ele>223.85714285714286</ele><time>2026-04-23T07:38:02.14Z</time></trkpt><trkpt lat="46.1554135" lon="9.4548988"><ele>223.71428571428572</ele><time>2026-04-23T07:38:07.139Z</time></trkpt><trkpt lat="46.1554418" lon="9.4549979"><ele>223.57142857142856</ele><time>2026-04-23T07:38:12.14Z</time></trkpt><trkpt lat="46.1554163" lon="9.4550962"><ele>223.42857142857144</ele><time>2026-04-23T07:38:17.141Z</time></trkpt><trkpt lat="46.1553977" lon="9.4551966"><ele>223.28571428571428</ele><time>2026-04-23T07:38:21.14Z</time></trkpt><trkpt lat="46.1553818" lon="9.4552959"><ele>223.14285714285714</ele><time>2026-04-23T07:38:25.14Z</time></trkpt><trkpt lat="46.1553908" lon="9.4554133"><ele>223.0</ele><time>2026-04-23T07:38:30.14Z</time></trkpt><trkpt lat="46.1553864" lon="9.455523"><ele>222.99999999999997</ele><time>2026-04-23T07:38:33.14Z</time></trkpt><trkpt lat="46.1553781" lon="9.4556337"><ele>223.0</ele><time>2026-04-23T07:38:35.141Z</time></trkpt><trkpt lat="46.1553617" lon="9.455784"><ele>223.0</ele><time>2026-04-23T07:38:37.14Z</time></trkpt><trkpt lat="46.1553233" lon="9.4559571"><ele>223.0</ele><time>2026-04-23T07:38:39.14Z</time></trkpt><trkpt lat="46.1553044" lon="9.456053"><ele>222.99999999999997</ele><time>2026-04-23T07:38:40.14Z</time></trkpt><trkpt lat="46.1552831" lon="9.4561503"><ele>223.0</ele><time>2026-04-23T07:38:41.14Z</time></trkpt><trkpt lat="46.1552508" lon="9.4562559"><ele>223.28571428571428</ele><time>2026-04-23T07:38:42.14Z</time></trkpt><trkpt lat="46.1552226" lon="9.4563582"><ele>223.57142857142856</ele><time>2026-04-23T07:38:43.139Z</time></trkpt><trkpt lat="46.1552046" lon="9.456471"><ele>223.8571428571429</ele><time>2026-04-23T07:38:44.14Z</time></trkpt><trkpt lat="46.1551888" lon="9.4565697"><ele>224.14285714285717</ele><time>2026-04-23T07:38:45.14Z</time></trkpt><trkpt lat="46.1551736" lon="9.4566654"><ele>224.42857142857144</ele><time>2026-04-23T07:38:46.14Z</time></trkpt><trkpt lat="46.1551681" lon="9.4567656"><ele>224.71428571428575</ele><time>2026-04-23T07:38:47.141Z</time></trkpt><trkpt lat="46.1551676" lon="9.4568623"><ele>225.00000000000003</ele><time>2026-04-23T07:38:48.14Z</time></trkpt><trkpt lat="46.1551697" lon="9.4569635"><ele>225.0</ele><time>2026-04-23T07:38:49.139Z</time></trkpt><trkpt lat="46.1551674" lon="9.4570574"><ele>225.0</ele><time>2026-04-23T07:38:50.139Z</time></trkpt><trkpt lat="46.1551493" lon="9.4572283"><ele>225.0</ele><time>2026-04-23T07:38:52.14Z</time></trkpt><trkpt lat="46.1551218" lon="9.4573933"><ele>225.0</ele><time>2026-04-23T07:38:54.141Z</time></trkpt><trkpt lat="46.1551015" lon="9.4575508"><ele>225.0</ele><time>2026-04-23T07:38:56.141Z</time></trkpt><trkpt lat="46.1550869" lon="9.4576477"><ele>225.16666666666666</ele><time>2026-04-23T07:38:57.139Z</time></trkpt><trkpt lat="46.1550651" lon="9.4578245"><ele>225.33333333333331</ele><time>2026-04-23T07:38:59.141Z</time></trkpt><trkpt lat="46.1550483" lon="9.4579156"><ele>225.5</ele><time>2026-04-23T07:39:00.14Z</time></trkpt><trkpt lat="46.1550328" lon="9.4580116"><ele>225.66666666666666</ele><time>2026-04-23T07:39:01.14Z</time></trkpt><trkpt lat="46.1550262" lon="9.4581122"><ele>225.83333333333331</ele><time>2026-04-23T07:39:02.139Z</time></trkpt><trkpt lat="46.155007" lon="9.4582137"><ele>226.0</ele><time>2026-04-23T07:39:03.141Z</time></trkpt><trkpt lat="46.1549786" lon="9.4583149"><ele>226.83333333333331</ele><time>2026-04-23T07:39:04.14Z</time></trkpt><trkpt lat="46.1549463" lon="9.4584119"><ele>227.66666666666666</ele><time>2026-04-23T07:39:05.14Z</time></trkpt><trkpt lat="46.1549056" lon="9.458519"><ele>228.5</ele><time>2026-04-23T07:39:06.141Z</time></trkpt><trkpt lat="46.1548623" lon="9.4586263"><ele>229.33333333333331</ele><time>2026-04-23T07:39:07.14Z</time></trkpt><trkpt lat="46.1548191" lon="9.4587204"><ele>230.16666666666666</ele><time>2026-04-23T07:39:08.139Z</time></trkpt><trkpt lat="46.1547772" lon="9.4588176"><ele>231.0</ele><time>2026-04-23T07:39:09.14Z</time></trkpt><trkpt lat="46.1547378" lon="9.4589198"><ele>228.33333333333334</ele><time>2026-04-23T07:39:10.139Z</time></trkpt><trkpt lat="46.1547047" lon="9.459028"><ele>225.66666666666669</ele><time>2026-04-23T07:39:11.14Z</time></trkpt><trkpt lat="46.1546631" lon="9.4591518"><ele>223.0</ele><time>2026-04-23T07:39:12.14Z</time></trkpt><trkpt lat="46.1546234" lon="9.4592687"><ele>220.33333333333334</ele><time>2026-04-23T07:39:13.141Z</time></trkpt><trkpt lat="46.1545978" lon="9.4593756"><ele>217.66666666666669</ele><time>2026-04-23T07:39:14.139Z</time></trkpt><trkpt lat="46.154561" lon="9.4594783"><ele>215.0</ele><time>2026-04-23T07:39:15.139Z</time></trkpt><trkpt lat="46.1545397" lon="9.459572"><ele>216.16666666666669</ele><time>2026-04-23T07:39:16.14Z</time></trkpt><trkpt lat="46.1545054" lon="9.4597108"><ele>217.33333333333334</ele><time>2026-04-23T07:39:18.14Z</time></trkpt><trkpt lat="46.1544704" lon="9.4597877"><ele>218.5</ele><time>2026-04-23T07:39:20.14Z</time></trkpt><trkpt lat="46.1544364" lon="9.4598762"><ele>219.66666666666669</ele><time>2026-04-23T07:39:23.139Z</time></trkpt><trkpt lat="46.154389" lon="9.4599443"><ele>220.83333333333334</ele><time>2026-04-23T07:39:26.14Z</time></trkpt><trkpt lat="46.1543282" lon="9.4599942"><ele>222.0</ele><time>2026-04-23T07:39:29.141Z</time></trkpt><trkpt lat="46.1542587" lon="9.4600746"><ele>222.0</ele><time>2026-04-23T07:39:32.14Z</time></trkpt><trkpt lat="46.1542219" lon="9.4601509"><ele>222.0</ele><time>2026-04-23T07:39:34.14Z</time></trkpt><trkpt lat="46.1541875" lon="9.4602459"><ele>222.0</ele><time>2026-04-23T07:39:36.14Z</time></trkpt><trkpt lat="46.1541456" lon="9.460356"><ele>222.0</ele><time>2026-04-23T07:39:38.141Z</time></trkpt><trkpt lat="46.1541116" lon="9.4605004"><ele>222.0</ele><time>2026-04-23T07:39:40.141Z</time></trkpt><trkpt lat="46.154082" lon="9.4606557"><ele>222.0</ele><time>2026-04-23T07:39:42.141Z</time></trkpt><trkpt lat="46.1540676" lon="9.4607483"><ele>222.5</ele><time>2026-04-23T07:39:43.141Z</time></trkpt><trkpt lat="46.1540315" lon="9.4608424"><ele>223.0</ele><time>2026-04-23T07:39:44.14Z</time></trkpt><trkpt lat="46.1540044" lon="9.460931"><ele>223.5</ele><time>2026-04-23T07:39:45.141Z</time></trkpt><trkpt lat="46.1539532" lon="9.4610553"><ele>224.0</ele><time>2026-04-23T07:39:47.14Z</time></trkpt><trkpt lat="46.1539244" lon="9.4611782"><ele>224.5</ele><time>2026-04-23T07:39:51.141Z</time></trkpt><trkpt lat="46.1538528" lon="9.4612553"><ele>225.0</ele><time>2026-04-23T07:39:54.14Z</time></trkpt><trkpt lat="46.1538041" lon="9.4613383"><ele>225.00000000000003</ele><time>2026-04-23T07:39:56.14Z</time></trkpt><trkpt lat="46.1537591" lon="9.4614395"><ele>225.0</ele><time>2026-04-23T07:39:58.141Z</time></trkpt><trkpt lat="46.1537401" lon="9.4615302"><ele>225.00000000000003</ele><time>2026-04-23T07:39:59.14Z</time></trkpt><trkpt lat="46.1536845" lon="9.4615948"><ele>225.00000000000003</ele><time>2026-04-23T07:40:02.141Z</time></trkpt><trkpt lat="46.1536432" lon="9.4617094"><ele>225.0</ele><time>2026-04-23T07:40:04.139Z</time></trkpt><trkpt lat="46.1536127" lon="9.4618035"><ele>225.00000000000003</ele><time>2026-04-23T07:40:06.141Z</time></trkpt><trkpt lat="46.1535758" lon="9.4618798"><ele>225.00000000000003</ele><time>2026-04-23T07:40:08.14Z</time></trkpt><trkpt lat="46.1535315" lon="9.4619647"><ele>225.00000000000003</ele><time>2026-04-23T07:40:10.141Z</time></trkpt><trkpt lat="46.1534829" lon="9.4620478"><ele>225.0</ele><time>2026-04-23T07:40:12.14Z</time></trkpt><trkpt lat="46.1534362" lon="9.4621333"><ele>225.00000000000003</ele><time>2026-04-23T07:40:14.139Z</time></trkpt><trkpt lat="46.1534" lon="9.4622231"><ele>225.00000000000003</ele><time>2026-04-23T07:40:16.14Z</time></trkpt><trkpt lat="46.1533605" lon="9.4623139"><ele>225.0</ele><time>2026-04-23T07:40:18.139Z</time></trkpt><trkpt lat="46.1533197" lon="9.4624063"><ele>225.00000000000003</ele><time>2026-04-23T07:40:20.14Z</time></trkpt><trkpt lat="46.1532872" lon="9.4625031"><ele>225.00000000000003</ele><time>2026-04-23T07:40:22.141Z</time></trkpt><trkpt lat="46.1532593" lon="9.4626037"><ele>225.83333333333334</ele><time>2026-04-23T07:40:24.139Z</time></trkpt><trkpt lat="46.1532375" lon="9.4627019"><ele>226.66666666666669</ele><time>2026-04-23T07:40:26.141Z</time></trkpt><trkpt lat="46.1532193" lon="9.4628326"><ele>227.5</ele><time>2026-04-23T07:40:29.14Z</time></trkpt><trkpt lat="46.1532039" lon="9.4629252"><ele>228.33333333333334</ele><time>2026-04-23T07:40:31.141Z</time></trkpt><trkpt lat="46.1531833" lon="9.4630282"><ele>229.16666666666669</ele><time>2026-04-23T07:40:33.14Z</time></trkpt><trkpt lat="46.1531499" lon="9.4631693"><ele>230.0</ele><time>2026-04-23T07:40:35.141Z</time></trkpt><trkpt lat="46.1531258" lon="9.4633074"><ele>227.8</ele><time>2026-04-23T07:40:37.14Z</time></trkpt><trkpt lat="46.1530998" lon="9.4634692"><ele>225.6</ele><time>2026-04-23T07:40:39.14Z</time></trkpt><trkpt lat="46.1530884" lon="9.4636298"><ele>223.39999999999998</ele><time>2026-04-23T07:40:41.141Z</time></trkpt><trkpt lat="46.153078" lon="9.4637714"><ele>221.2</ele><time>2026-04-23T07:40:43.141Z</time></trkpt><trkpt lat="46.1530714" lon="9.4639181"><ele>219.0</ele><time>2026-04-23T07:40:45.141Z</time></trkpt><trkpt lat="46.1530808" lon="9.4640607"><ele>219.0</ele><time>2026-04-23T07:40:47.14Z</time></trkpt><trkpt lat="46.1530896" lon="9.4641997"><ele>218.99999999999997</ele><time>2026-04-23T07:40:49.14Z</time></trkpt><trkpt lat="46.1530795" lon="9.4643553"><ele>218.99999999999997</ele><time>2026-04-23T07:40:51.142Z</time></trkpt><trkpt lat="46.1530427" lon="9.4645107"><ele>219.0</ele><time>2026-04-23T07:40:53.141Z</time></trkpt><trkpt lat="46.1530105" lon="9.4646393"><ele>219.0</ele><time>2026-04-23T07:40:55.141Z</time></trkpt><trkpt lat="46.1529422" lon="9.4647503"><ele>219.2857142857143</ele><time>2026-04-23T07:40:57.14Z</time></trkpt><trkpt lat="46.1528793" lon="9.4648292"><ele>219.57142857142856</ele><time>2026-04-23T07:40:59.142Z</time></trkpt><trkpt lat="46.1528738" lon="9.4649278"><ele>219.85714285714286</ele><time>2026-04-23T07:41:01.14Z</time></trkpt><trkpt lat="46.1528654" lon="9.4650183"><ele>220.14285714285717</ele><time>2026-04-23T07:41:03.141Z</time></trkpt><trkpt lat="46.1528613" lon="9.4651174"><ele>220.42857142857144</ele><time>2026-04-23T07:41:05.14Z</time></trkpt><trkpt lat="46.1528611" lon="9.465219"><ele>220.71428571428572</ele><time>2026-04-23T07:41:07.14Z</time></trkpt><trkpt lat="46.152889" lon="9.4653041"><ele>221.0</ele><time>2026-04-23T07:41:09.14Z</time></trkpt><trkpt lat="46.152956" lon="9.4653798"><ele>221.00000000000003</ele><time>2026-04-23T07:41:12.141Z</time></trkpt><trkpt lat="46.1530377" lon="9.4654157"><ele>221.0</ele><time>2026-04-23T07:41:14.141Z</time></trkpt><trkpt lat="46.1531273" lon="9.4654805"><ele>221.0</ele><time>2026-04-23T07:41:16.141Z</time></trkpt><trkpt lat="46.1532127" lon="9.4655197"><ele>221.0</ele><time>2026-04-23T07:41:18.14Z</time></trkpt><trkpt lat="46.1532703" lon="9.4655567"><ele>221.00000000000003</ele><time>2026-04-23T07:41:20.141Z</time></trkpt><trkpt lat="46.1533349" lon="9.4656186"><ele>221.0</ele><time>2026-04-23T07:41:24.14Z</time></trkpt><trkpt lat="46.1533572" lon="9.4657402"><ele>220.60000000000002</ele><time>2026-04-23T07:41:28.142Z</time></trkpt><trkpt lat="46.153338" lon="9.465848"><ele>220.20000000000002</ele><time>2026-04-23T07:41:30.14Z</time></trkpt><trkpt lat="46.1532712" lon="9.465958"><ele>219.79999999999998</ele><time>2026-04-23T07:41:32.141Z</time></trkpt><trkpt lat="46.1531668" lon="9.4660574"><ele>219.39999999999998</ele><time>2026-04-23T07:41:34.14Z</time></trkpt><trkpt lat="46.1531141" lon="9.4661075"><ele>219.0</ele><time>2026-04-23T07:41:35.141Z</time></trkpt><trkpt lat="46.1530068" lon="9.4661813"><ele>217.79999999999998</ele><time>2026-04-23T07:41:37.14Z</time></trkpt><trkpt lat="46.1529434" lon="9.466313"><ele>216.59999999999997</ele><time>2026-04-23T07:41:39.142Z</time></trkpt><trkpt lat="46.1529198" lon="9.4664922"><ele>215.4</ele><time>2026-04-23T07:41:41.141Z</time></trkpt><trkpt lat="46.1529197" lon="9.4665895"><ele>214.2</ele><time>2026-04-23T07:41:42.14Z</time></trkpt><trkpt lat="46.1529297" lon="9.4667003"><ele>213.0</ele><time>2026-04-23T07:41:43.141Z</time></trkpt><trkpt lat="46.1529371" lon="9.4668294"><ele>213.0</ele><time>2026-04-23T07:41:44.14Z</time></trkpt><trkpt lat="46.1529472" lon="9.4669677"><ele>213.0</ele><time>2026-04-23T07:41:45.141Z</time></trkpt><trkpt lat="46.1529612" lon="9.4671079"><ele>213.0</ele><time>2026-04-23T07:41:46.141Z</time></trkpt><trkpt lat="46.152975" lon="9.4672455"><ele>213.0</ele><time>2026-04-23T07:41:47.14Z</time></trkpt><trkpt lat="46.1530096" lon="9.4675008"><ele>212.66666666666666</ele><time>2026-04-23T07:41:49.14Z</time></trkpt><trkpt lat="46.1530284" lon="9.4676218"><ele>212.33333333333331</ele><time>2026-04-23T07:41:50.14Z</time></trkpt><trkpt lat="46.1530482" lon="9.4677443"><ele>212.0</ele><time>2026-04-23T07:41:51.14Z</time></trkpt><trkpt lat="46.1530695" lon="9.4678631"><ele>211.66666666666666</ele><time>2026-04-23T07:41:52.14Z</time></trkpt><trkpt lat="46.1530852" lon="9.4679714"><ele>211.33333333333331</ele><time>2026-04-23T07:41:53.14Z</time></trkpt><trkpt lat="46.1530995" lon="9.4680765"><ele>211.0</ele><time>2026-04-23T07:41:54.142Z</time></trkpt><trkpt lat="46.153116" lon="9.4681656"><ele>211.0</ele><time>2026-04-23T07:41:55.142Z</time></trkpt><trkpt lat="46.1531312" lon="9.4683332"><ele>211.0</ele><time>2026-04-23T07:41:57.143Z</time></trkpt><trkpt lat="46.1531391" lon="9.4684768"><ele>211.0</ele><time>2026-04-23T07:41:59.141Z</time></trkpt><trkpt lat="46.1531615" lon="9.4686065"><ele>211.0</ele><time>2026-04-23T07:42:01.142Z</time></trkpt><trkpt lat="46.1531792" lon="9.4687164"><ele>211.0</ele><time>2026-04-23T07:42:03.141Z</time></trkpt><trkpt lat="46.1531808" lon="9.4688176"><ele>210.99999999999997</ele><time>2026-04-23T07:42:05.14Z</time></trkpt><trkpt lat="46.1531946" lon="9.4689512"><ele>211.0</ele><time>2026-04-23T07:42:08.142Z</time></trkpt><trkpt lat="46.1531967" lon="9.4690854"><ele>211.0</ele><time>2026-04-23T07:42:11.141Z</time></trkpt><trkpt lat="46.153178" lon="9.4692117"><ele>211.0</ele><time>2026-04-23T07:42:14.14Z</time></trkpt><trkpt lat="46.1531763" lon="9.4693041"><ele>210.99999999999997</ele><time>2026-04-23T07:42:16.141Z</time></trkpt><trkpt lat="46.1531805" lon="9.4693994"><ele>211.0</ele><time>2026-04-23T07:42:18.141Z</time></trkpt><trkpt lat="46.1531855" lon="9.469491"><ele>211.16666666666666</ele><time>2026-04-23T07:42:20.141Z</time></trkpt><trkpt lat="46.1532023" lon="9.4696148"><ele>211.33333333333331</ele><time>2026-04-23T07:42:23.14Z</time></trkpt><trkpt lat="46.1532128" lon="9.4697246"><ele>211.5</ele><time>2026-04-23T07:42:26.139Z</time></trkpt><trkpt lat="46.1532126" lon="9.4698475"><ele>211.66666666666669</ele><time>2026-04-23T07:42:29.141Z</time></trkpt><trkpt lat="46.1532087" lon="9.469969"><ele>211.83333333333334</ele><time>2026-04-23T07:42:32.14Z</time></trkpt><trkpt lat="46.1532139" lon="9.4700712"><ele>212.0</ele><time>2026-04-23T07:42:35.14Z</time></trkpt><trkpt lat="46.1532111" lon="9.4701722"><ele>214.16666666666669</ele><time>2026-04-23T07:42:38.14Z</time></trkpt><trkpt lat="46.1532217" lon="9.4702667"><ele>216.33333333333334</ele><time>2026-04-23T07:42:41.142Z</time></trkpt><trkpt lat="46.1532067" lon="9.4703656"><ele>218.5</ele><time>2026-04-23T07:42:44.142Z</time></trkpt><trkpt lat="46.1532078" lon="9.4704636"><ele>220.66666666666669</ele><time>2026-04-23T07:42:47.142Z</time></trkpt><trkpt lat="46.1532308" lon="9.4705767"><ele>222.83333333333334</ele><time>2026-04-23T07:42:50.14Z</time></trkpt><trkpt lat="46.1532709" lon="9.4707052"><ele>225.0</ele><time>2026-04-23T07:42:53.141Z</time></trkpt><trkpt lat="46.1533143" lon="9.4708225"><ele>225.0</ele><time>2026-04-23T07:42:55.141Z</time></trkpt><trkpt lat="46.1533635" lon="9.4709693"><ele>225.0</ele><time>2026-04-23T07:42:57.141Z</time></trkpt><trkpt lat="46.1534147" lon="9.4711213"><ele>225.0</ele><time>2026-04-23T07:42:59.14Z</time></trkpt><trkpt lat="46.1534788" lon="9.4712799"><ele>225.0</ele><time>2026-04-23T07:43:01.141Z</time></trkpt><trkpt lat="46.1535082" lon="9.4713616"><ele>225.0</ele><time>2026-04-23T07:43:02.14Z</time></trkpt><trkpt lat="46.1535306" lon="9.4714577"><ele>224.8</ele><time>2026-04-23T07:43:03.142Z</time></trkpt><trkpt lat="46.1535597" lon="9.4715659"><ele>224.6</ele><time>2026-04-23T07:43:04.14Z</time></trkpt><trkpt lat="46.1535739" lon="9.4716808"><ele>224.39999999999998</ele><time>2026-04-23T07:43:05.14Z</time></trkpt><trkpt lat="46.1535739" lon="9.4718131"><ele>224.2</ele><time>2026-04-23T07:43:06.141Z</time></trkpt><trkpt lat="46.1535726" lon="9.4719645"><ele>224.0</ele><time>2026-04-23T07:43:07.142Z</time></trkpt><trkpt lat="46.1535663" lon="9.4721088"><ele>223.79999999999998</ele><time>2026-04-23T07:43:08.141Z</time></trkpt><trkpt lat="46.1535596" lon="9.4722535"><ele>223.59999999999997</ele><time>2026-04-23T07:43:09.141Z</time></trkpt><trkpt lat="46.1535535" lon="9.4723932"><ele>223.4</ele><time>2026-04-23T07:43:10.14Z</time></trkpt><trkpt lat="46.1535382" lon="9.4725264"><ele>223.2</ele><time>2026-04-23T07:43:11.141Z</time></trkpt><trkpt lat="46.15352" lon="9.4726674"><ele>223.0</ele><time>2026-04-23T07:43:12.142Z</time></trkpt><trkpt lat="46.1534801" lon="9.4727912"><ele>223.0</ele><time>2026-04-23T07:43:13.141Z</time></trkpt><trkpt lat="46.1534207" lon="9.4728948"><ele>223.0</ele><time>2026-04-23T07:43:14.141Z</time></trkpt><trkpt lat="46.1533661" lon="9.4730159"><ele>223.0</ele><time>2026-04-23T07:43:15.14Z</time></trkpt><trkpt lat="46.1533047" lon="9.4731335"><ele>223.0</ele><time>2026-04-23T07:43:16.141Z</time></trkpt><trkpt lat="46.1532525" lon="9.4732497"><ele>223.0</ele><time>2026-04-23T07:43:17.141Z</time></trkpt><trkpt lat="46.1531805" lon="9.4733716"><ele>220.0</ele><time>2026-04-23T07:43:18.142Z</time></trkpt><trkpt lat="46.1531188" lon="9.4734933"><ele>217.0</ele><time>2026-04-23T07:43:19.14Z</time></trkpt><trkpt lat="46.1530586" lon="9.4736186"><ele>214.0</ele><time>2026-04-23T07:43:20.142Z</time></trkpt><trkpt lat="46.1530177" lon="9.4737496"><ele>211.0</ele><time>2026-04-23T07:43:21.141Z</time></trkpt><trkpt lat="46.1529763" lon="9.4738733"><ele>208.0</ele><time>2026-04-23T07:43:22.142Z</time></trkpt><trkpt lat="46.15294" lon="9.4739784"><ele>207.99999999999997</ele><time>2026-04-23T07:43:23.14Z</time></trkpt><trkpt lat="46.1529079" lon="9.4740749"><ele>208.0</ele><time>2026-04-23T07:43:24.141Z</time></trkpt><trkpt lat="46.1528835" lon="9.4741744"><ele>208.0</ele><time>2026-04-23T07:43:25.141Z</time></trkpt><trkpt lat="46.1528615" lon="9.4742614"><ele>208.0</ele><time>2026-04-23T07:43:26.142Z</time></trkpt><trkpt lat="46.1528325" lon="9.4744065"><ele>207.99999999999997</ele><time>2026-04-23T07:43:28.142Z</time></trkpt><trkpt lat="46.1528111" lon="9.4745095"><ele>208.0</ele><time>2026-04-23T07:43:30.142Z</time></trkpt><trkpt lat="46.1527967" lon="9.4746186"><ele>208.83333333333331</ele><time>2026-04-23T07:43:33.141Z</time></trkpt><trkpt lat="46.1528295" lon="9.4747207"><ele>209.66666666666666</ele><time>2026-04-23T07:43:36.141Z</time></trkpt><trkpt lat="46.1529086" lon="9.4747794"><ele>210.5</ele><time>2026-04-23T07:43:39.142Z</time></trkpt><trkpt lat="46.1529899" lon="9.474823"><ele>211.33333333333331</ele><time>2026-04-23T07:43:42.141Z</time></trkpt><trkpt lat="46.1530677" lon="9.4748904"><ele>212.16666666666666</ele><time>2026-04-23T07:43:45.141Z</time></trkpt><trkpt lat="46.1531261" lon="9.4749342"><ele>213.0</ele><time>2026-04-23T07:43:47.14Z</time></trkpt><trkpt lat="46.1531868" lon="9.474964"><ele>213.5</ele><time>2026-04-23T07:43:49.141Z</time></trkpt><trkpt lat="46.1532744" lon="9.4749862"><ele>214.0</ele><time>2026-04-23T07:43:52.141Z</time></trkpt><trkpt lat="46.153361" lon="9.4749382"><ele>214.5</ele><time>2026-04-23T07:43:55.141Z</time></trkpt><trkpt lat="46.1534095" lon="9.4748781"><ele>215.0</ele><time>2026-04-23T07:43:57.141Z</time></trkpt><trkpt lat="46.1534569" lon="9.4747784"><ele>215.5</ele><time>2026-04-23T07:44:00.142Z</time></trkpt><trkpt lat="46.1534991" lon="9.4746723"><ele>216.0</ele><time>2026-04-23T07:44:03.141Z</time></trkpt><trkpt lat="46.1535196" lon="9.4745634"><ele>216.0</ele><time>2026-04-23T07:44:06.141Z</time></trkpt><trkpt lat="46.1535497" lon="9.4744483"><ele>216.0</ele><time>2026-04-23T07:44:09.141Z</time></trkpt><trkpt lat="46.1535869" lon="9.4743648"><ele>216.0</ele><time>2026-04-23T07:44:12.141Z</time></trkpt><trkpt lat="46.1536114" lon="9.4742763"><ele>216.0</ele><time>2026-04-23T07:44:15.142Z</time></trkpt><trkpt lat="46.1536383" lon="9.4741828"><ele>216.0</ele><time>2026-04-23T07:44:19.142Z</time></trkpt><trkpt lat="46.1536969" lon="9.4742398"><ele>216.0</ele><time>2026-04-23T07:44:24.141Z</time></trkpt><trkpt lat="46.1536901" lon="9.4743473"><ele>216.0</ele><time>2026-04-23T07:44:28.141Z</time></trkpt><trkpt lat="46.1536848" lon="9.4744445"><ele>216.0</ele><time>2026-04-23T07:44:31.142Z</time></trkpt><trkpt lat="46.1536971" lon="9.4745459"><ele>216.0</ele><time>2026-04-23T07:44:35.141Z</time></trkpt><trkpt lat="46.1536935" lon="9.4746508"><ele>216.0</ele><time>2026-04-23T07:44:39.14Z</time></trkpt><trkpt lat="46.1536873" lon="9.4747587"><ele>216.0</ele><time>2026-04-23T07:44:43.142Z</time></trkpt><trkpt lat="46.1536687" lon="9.4748569"><ele>216.0</ele><time>2026-04-23T07:44:47.142Z</time></trkpt><trkpt lat="46.1536533" lon="9.4749624"><ele>216.0</ele><time>2026-04-23T07:44:51.141Z</time></trkpt><trkpt lat="46.1536571" lon="9.4750698"><ele>216.0</ele><time>2026-04-23T07:44:55.141Z</time></trkpt><trkpt lat="46.1536537" lon="9.4751671"><ele>217.0</ele><time>2026-04-23T07:44:59.142Z</time></trkpt><trkpt lat="46.153639" lon="9.4752628"><ele>218.0</ele><time>2026-04-23T07:45:03.141Z</time></trkpt><trkpt lat="46.1536472" lon="9.4753702"><ele>219.0</ele><time>2026-04-23T07:45:08.141Z</time></trkpt><trkpt lat="46.1536387" lon="9.4754804"><ele>220.0</ele><time>2026-04-23T07:45:12.14Z</time></trkpt><trkpt lat="46.153626" lon="9.4755767"><ele>221.0</ele><time>2026-04-23T07:45:16.142Z</time></trkpt><trkpt lat="46.1536265" lon="9.4756738"><ele>222.0</ele><time>2026-04-23T07:45:20.141Z</time></trkpt><trkpt lat="46.1536085" lon="9.475778"><ele>223.0</ele><time>2026-04-23T07:45:25.142Z</time></trkpt><trkpt lat="46.1535916" lon="9.4758854"><ele>223.71428571428572</ele><time>2026-04-23T07:45:30.142Z</time></trkpt><trkpt lat="46.1535939" lon="9.4759896"><ele>224.42857142857142</ele><time>2026-04-23T07:45:35.142Z</time></trkpt><trkpt lat="46.153608" lon="9.476084"><ele>225.14285714285714</ele><time>2026-04-23T07:45:40.141Z</time></trkpt><trkpt lat="46.1535816" lon="9.4761696"><ele>225.85714285714283</ele><time>2026-04-23T07:45:44.142Z</time></trkpt><trkpt lat="46.1535869" lon="9.4762799"><ele>226.57142857142856</ele><time>2026-04-23T07:45:49.142Z</time></trkpt><trkpt lat="46.1536494" lon="9.4762414"><ele>227.28571428571428</ele><time>2026-04-23T07:45:56.142Z</time></trkpt><trkpt lat="46.1536615" lon="9.4761371"><ele>228.0</ele><time>2026-04-23T07:46:01.142Z</time></trkpt><trkpt lat="46.1536621" lon="9.4760278"><ele>228.0</ele><time>2026-04-23T07:46:06.142Z</time></trkpt><trkpt lat="46.1536933" lon="9.4759263"><ele>227.99999999999997</ele><time>2026-04-23T07:46:11.142Z</time></trkpt><trkpt lat="46.1537145" lon="9.4758215"><ele>228.0</ele><time>2026-04-23T07:46:16.141Z</time></trkpt><trkpt lat="46.153745" lon="9.4757288"><ele>228.0</ele><time>2026-04-23T07:46:21.141Z</time></trkpt><trkpt lat="46.1537476" lon="9.4756338"><ele>227.99999999999997</ele><time>2026-04-23T07:46:25.142Z</time></trkpt><trkpt lat="46.153749" lon="9.4755227"><ele>228.0</ele><time>2026-04-23T07:46:30.239Z</time></trkpt><trkpt lat="46.1537673" lon="9.4754137"><ele>228.0</ele><time>2026-04-23T07:46:34.141Z</time></trkpt><trkpt lat="46.1538371" lon="9.4753944"><ele>228.0</ele><time>2026-04-23T07:46:40.244Z</time></trkpt><trkpt lat="46.153872" lon="9.4754885"><ele>228.0</ele><time>2026-04-23T07:46:44.013Z</time></trkpt><trkpt lat="46.1538971" lon="9.4755993"><ele>228.0</ele><time>2026-04-23T07:46:49.252Z</time></trkpt><trkpt lat="46.1539269" lon="9.4756854"><ele>228.0</ele><time>2026-04-23T07:46:54.245Z</time></trkpt><trkpt lat="46.1538894" lon="9.4758218"><ele>228.0</ele><time>2026-04-23T07:46:58.389Z</time></trkpt><trkpt lat="46.153843" lon="9.4758967"><ele>228.0</ele><time>2026-04-23T07:46:59.751Z</time></trkpt><trkpt lat="46.1538091" lon="9.476019"><ele>228.0</ele><time>2026-04-23T07:47:03.927Z</time></trkpt><trkpt lat="46.1537805" lon="9.4761015"><ele>227.99999999999997</ele><time>2026-04-23T07:47:07.24Z</time></trkpt><trkpt lat="46.1537778" lon="9.4762108"><ele>228.0</ele><time>2026-04-23T07:47:12.245Z</time></trkpt><trkpt lat="46.1537841" lon="9.4763024"><ele>228.0</ele><time>2026-04-23T07:47:16.244Z</time></trkpt><trkpt lat="46.1538122" lon="9.4764028"><ele>227.99999999999997</ele><time>2026-04-23T07:47:20.256Z</time></trkpt><trkpt lat="46.1538235" lon="9.4765129"><ele>228.0</ele><time>2026-04-23T07:47:25.242Z</time></trkpt><trkpt lat="46.1538458" lon="9.4765994"><ele>228.0</ele><time>2026-04-23T07:47:30.141Z</time></trkpt><trkpt lat="46.1538569" lon="9.4766956"><ele>229.28571428571428</ele><time>2026-04-23T07:47:35.142Z</time></trkpt><trkpt lat="46.1538737" lon="9.4767983"><ele>230.57142857142856</ele><time>2026-04-23T07:47:40.141Z</time></trkpt><trkpt lat="46.1538885" lon="9.4769037"><ele>231.85714285714283</ele><time>2026-04-23T07:47:45.141Z</time></trkpt><trkpt lat="46.1538873" lon="9.4770078"><ele>233.1428571428571</ele><time>2026-04-23T07:47:49.239Z</time></trkpt><trkpt lat="46.1539068" lon="9.4771089"><ele>234.42857142857142</ele><time>2026-04-23T07:47:54.263Z</time></trkpt><trkpt lat="46.1539077" lon="9.4772014"><ele>235.71428571428567</ele><time>2026-04-23T07:47:58.246Z</time></trkpt><trkpt lat="46.1539101" lon="9.4773214"><ele>236.99999999999997</ele><time>2026-04-23T07:48:03.074Z</time></trkpt><trkpt lat="46.1539232" lon="9.4774199"><ele>238.5</ele><time>2026-04-23T07:48:08.247Z</time></trkpt><trkpt lat="46.1539513" lon="9.4775168"><ele>240.0</ele><time>2026-04-23T07:48:14.142Z</time></trkpt><trkpt lat="46.1539883" lon="9.477598"><ele>241.5</ele><time>2026-04-23T07:48:19.735Z</time></trkpt><trkpt lat="46.1540124" lon="9.4776856"><ele>243.0</ele><time>2026-04-23T07:48:25.143Z</time></trkpt><trkpt lat="46.1540266" lon="9.4777911"><ele>244.5</ele><time>2026-04-23T07:48:30.59Z</time></trkpt><trkpt lat="46.153994" lon="9.4779444"><ele>246.0</ele><time>2026-04-23T07:48:35.239Z</time></trkpt><trkpt lat="46.1539504" lon="9.4780572"><ele>246.33333333333334</ele><time>2026-04-23T07:48:38.143Z</time></trkpt><trkpt lat="46.153911" lon="9.4781426"><ele>246.66666666666669</ele><time>2026-04-23T07:48:41.231Z</time></trkpt><trkpt lat="46.1538879" lon="9.4782549"><ele>247.0</ele><time>2026-04-23T07:48:44.33Z</time></trkpt><trkpt lat="46.1538733" lon="9.4783799"><ele>247.33333333333334</ele><time>2026-04-23T07:48:47.969Z</time></trkpt><trkpt lat="46.153895" lon="9.478486"><ele>247.66666666666669</ele><time>2026-04-23T07:48:51.141Z</time></trkpt><trkpt lat="46.1539194" lon="9.4785923"><ele>248.0</ele><time>2026-04-23T07:48:54.234Z</time></trkpt><trkpt lat="46.153928" lon="9.4786907"><ele>247.16666666666669</ele><time>2026-04-23T07:48:57.143Z</time></trkpt><trkpt lat="46.1539429" lon="9.4787915"><ele>246.33333333333334</ele><time>2026-04-23T07:49:00.142Z</time></trkpt><trkpt lat="46.1539578" lon="9.4789055"><ele>245.5</ele><time>2026-04-23T07:49:04.245Z</time></trkpt><trkpt lat="46.1539808" lon="9.4790303"><ele>244.66666666666669</ele><time>2026-04-23T07:49:07.97Z</time></trkpt><trkpt lat="46.1540068" lon="9.4791228"><ele>243.83333333333334</ele><time>2026-04-23T07:49:11.143Z</time></trkpt><trkpt lat="46.1540547" lon="9.4792226"><ele>243.0</ele><time>2026-04-23T07:49:15.246Z</time></trkpt><trkpt lat="46.1541016" lon="9.4792925"><ele>243.0</ele><time>2026-04-23T07:49:18.142Z</time></trkpt><trkpt lat="46.1541487" lon="9.4793743"><ele>243.0</ele><time>2026-04-23T07:49:21.142Z</time></trkpt><trkpt lat="46.1541746" lon="9.4794651"><ele>243.0</ele><time>2026-04-23T07:49:24.211Z</time></trkpt><trkpt lat="46.1541277" lon="9.4795787"><ele>243.0</ele><time>2026-04-23T07:49:27.142Z</time></trkpt><trkpt lat="46.1540363" lon="9.4796075"><ele>243.0</ele><time>2026-04-23T07:49:30.234Z</time></trkpt><trkpt lat="46.1539649" lon="9.479531"><ele>243.0</ele><time>2026-04-23T07:49:31.142Z</time></trkpt><trkpt lat="46.1538755" lon="9.4795394"><ele>243.0</ele><time>2026-04-23T07:49:33.142Z</time></trkpt><trkpt lat="46.1537815" lon="9.4795818"><ele>243.0</ele><time>2026-04-23T07:49:35.141Z</time></trkpt><trkpt lat="46.1536934" lon="9.4797177"><ele>243.0</ele><time>2026-04-23T07:49:37.142Z</time></trkpt><trkpt lat="46.1536409" lon="9.4798844"><ele>243.0</ele><time>2026-04-23T07:49:39.143Z</time></trkpt><trkpt lat="46.1536165" lon="9.4799698"><ele>243.0</ele><time>2026-04-23T07:49:40.143Z</time></trkpt><trkpt lat="46.1535718" lon="9.4801204"><ele>243.0</ele><time>2026-04-23T07:49:42.143Z</time></trkpt><trkpt lat="46.1535421" lon="9.4802711"><ele>243.0</ele><time>2026-04-23T07:49:44.142Z</time></trkpt><trkpt lat="46.1535166" lon="9.4804091"><ele>243.0</ele><time>2026-04-23T07:49:46.142Z</time></trkpt><trkpt lat="46.1534951" lon="9.4805259"><ele>243.0</ele><time>2026-04-23T07:49:48.143Z</time></trkpt><trkpt lat="46.1534795" lon="9.4806233"><ele>243.0</ele><time>2026-04-23T07:49:50.142Z</time></trkpt><trkpt lat="46.1534609" lon="9.4807176"><ele>243.0</ele><time>2026-04-23T07:49:52.143Z</time></trkpt><trkpt lat="46.1534518" lon="9.4808134"><ele>243.42857142857142</ele><time>2026-04-23T07:49:54.142Z</time></trkpt><trkpt lat="46.1534486" lon="9.4809053"><ele>243.8571428571429</ele><time>2026-04-23T07:49:56.141Z</time></trkpt><trkpt lat="46.1534397" lon="9.4809966"><ele>244.2857142857143</ele><time>2026-04-23T07:49:58.143Z</time></trkpt><trkpt lat="46.1534316" lon="9.4810915"><ele>244.71428571428572</ele><time>2026-04-23T07:50:00.142Z</time></trkpt><trkpt lat="46.1534186" lon="9.4811989"><ele>245.14285714285717</ele><time>2026-04-23T07:50:02.142Z</time></trkpt><trkpt lat="46.1534093" lon="9.4813112"><ele>245.5714285714286</ele><time>2026-04-23T07:50:04.142Z</time></trkpt><trkpt lat="46.1534021" lon="9.4814281"><ele>246.00000000000003</ele><time>2026-04-23T07:50:06.143Z</time></trkpt><trkpt lat="46.1533905" lon="9.4815493"><ele>246.60000000000002</ele><time>2026-04-23T07:50:08.143Z</time></trkpt><trkpt lat="46.153384" lon="9.4816912"><ele>247.20000000000002</ele><time>2026-04-23T07:50:10.141Z</time></trkpt><trkpt lat="46.1533604" lon="9.4818398"><ele>247.79999999999998</ele><time>2026-04-23T07:50:12.143Z</time></trkpt><trkpt lat="46.1533518" lon="9.481981"><ele>248.39999999999998</ele><time>2026-04-23T07:50:14.143Z</time></trkpt><trkpt lat="46.153342" lon="9.4821289"><ele>249.0</ele><time>2026-04-23T07:50:16.141Z</time></trkpt><trkpt lat="46.1533547" lon="9.4822633"><ele>249.16666666666666</ele><time>2026-04-23T07:50:18.141Z</time></trkpt><trkpt lat="46.1533829" lon="9.4823971"><ele>249.33333333333331</ele><time>2026-04-23T07:50:20.142Z</time></trkpt><trkpt lat="46.1533879" lon="9.4824958"><ele>249.5</ele><time>2026-04-23T07:50:22.142Z</time></trkpt><trkpt lat="46.1533078" lon="9.4824992"><ele>249.66666666666666</ele><time>2026-04-23T07:50:25.141Z</time></trkpt><trkpt lat="46.1532601" lon="9.4823675"><ele>249.83333333333331</ele><time>2026-04-23T07:50:27.143Z</time></trkpt><trkpt lat="46.1532345" lon="9.4822289"><ele>250.0</ele><time>2026-04-23T07:50:29.143Z</time></trkpt><trkpt lat="46.1531956" lon="9.4820795"><ele>245.16666666666666</ele><time>2026-04-23T07:50:31.143Z</time></trkpt><trkpt lat="46.1531598" lon="9.4819869"><ele>240.33333333333331</ele><time>2026-04-23T07:50:33.143Z</time></trkpt><trkpt lat="46.153103" lon="9.4820719"><ele>235.5</ele><time>2026-04-23T07:50:36.143Z</time></trkpt><trkpt lat="46.1531084" lon="9.4821999"><ele>230.66666666666669</ele><time>2026-04-23T07:50:38.142Z</time></trkpt><trkpt lat="46.1531516" lon="9.4823616"><ele>225.83333333333334</ele><time>2026-04-23T07:50:40.143Z</time></trkpt><trkpt lat="46.1531712" lon="9.4824639"><ele>221.0</ele><time>2026-04-23T07:50:41.143Z</time></trkpt><trkpt lat="46.1531891" lon="9.4825734"><ele>221.0</ele><time>2026-04-23T07:50:42.142Z</time></trkpt><trkpt lat="46.1531956" lon="9.4826977"><ele>221.00000000000003</ele><time>2026-04-23T07:50:43.142Z</time></trkpt><trkpt lat="46.1531964" lon="9.4828244"><ele>221.00000000000003</ele><time>2026-04-23T07:50:44.142Z</time></trkpt><trkpt lat="46.1531905" lon="9.482964"><ele>221.0</ele><time>2026-04-23T07:50:45.143Z</time></trkpt><trkpt lat="46.1531821" lon="9.4831023"><ele>221.0</ele><time>2026-04-23T07:50:46.142Z</time></trkpt><trkpt lat="46.1531605" lon="9.4832503"><ele>221.20000000000002</ele><time>2026-04-23T07:50:47.142Z</time></trkpt><trkpt lat="46.1531354" lon="9.4833987"><ele>221.40000000000003</ele><time>2026-04-23T07:50:48.142Z</time></trkpt><trkpt lat="46.1531022" lon="9.4835436"><ele>221.6</ele><time>2026-04-23T07:50:49.142Z</time></trkpt><trkpt lat="46.1530652" lon="9.48367"><ele>221.8</ele><time>2026-04-23T07:50:50.142Z</time></trkpt><trkpt lat="46.1530354" lon="9.4838026"><ele>222.0</ele><time>2026-04-23T07:50:51.143Z</time></trkpt><trkpt lat="46.1530139" lon="9.4839094"><ele>221.2</ele><time>2026-04-23T07:50:52.142Z</time></trkpt><trkpt lat="46.1529856" lon="9.4840158"><ele>220.39999999999998</ele><time>2026-04-23T07:50:53.143Z</time></trkpt><trkpt lat="46.1529612" lon="9.4841135"><ele>219.60000000000002</ele><time>2026-04-23T07:50:54.143Z</time></trkpt><trkpt lat="46.1529353" lon="9.4842795"><ele>218.8</ele><time>2026-04-23T07:50:56.143Z</time></trkpt><trkpt lat="46.1529167" lon="9.4844172"><ele>218.0</ele><time>2026-04-23T07:50:58.142Z</time></trkpt><trkpt lat="46.1529122" lon="9.4845465"><ele>217.60000000000002</ele><time>2026-04-23T07:51:00.142Z</time></trkpt><trkpt lat="46.1528883" lon="9.484709"><ele>217.20000000000002</ele><time>2026-04-23T07:51:02.143Z</time></trkpt><trkpt lat="46.1528817" lon="9.4848765"><ele>216.8</ele><time>2026-04-23T07:51:04.143Z</time></trkpt><trkpt lat="46.1528582" lon="9.4850479"><ele>216.4</ele><time>2026-04-23T07:51:06.143Z</time></trkpt><trkpt lat="46.1528481" lon="9.4851399"><ele>216.0</ele><time>2026-04-23T07:51:07.142Z</time></trkpt><trkpt lat="46.152847" lon="9.485236"><ele>216.0</ele><time>2026-04-23T07:51:08.142Z</time></trkpt><trkpt lat="46.1528284" lon="9.4853266"><ele>216.00000000000003</ele><time>2026-04-23T07:51:09.142Z</time></trkpt><trkpt lat="46.1528116" lon="9.4854206"><ele>216.00000000000003</ele><time>2026-04-23T07:51:10.143Z</time></trkpt><trkpt lat="46.1527858" lon="9.4856099"><ele>216.0</ele><time>2026-04-23T07:51:12.143Z</time></trkpt><trkpt lat="46.1527664" lon="9.4857656"><ele>216.0</ele><time>2026-04-23T07:51:14.142Z</time></trkpt><trkpt lat="46.1527508" lon="9.4858961"><ele>216.16666666666666</ele><time>2026-04-23T07:51:16.143Z</time></trkpt><trkpt lat="46.152715" lon="9.4860299"><ele>216.33333333333331</ele><time>2026-04-23T07:51:18.142Z</time></trkpt><trkpt lat="46.152703" lon="9.4862123"><ele>216.5</ele><time>2026-04-23T07:51:20.143Z</time></trkpt><trkpt lat="46.152703" lon="9.4863065"><ele>216.66666666666666</ele><time>2026-04-23T07:51:21.143Z</time></trkpt><trkpt lat="46.1527106" lon="9.4864099"><ele>216.83333333333331</ele><time>2026-04-23T07:51:22.142Z</time></trkpt><trkpt lat="46.152711" lon="9.4865096"><ele>217.0</ele><time>2026-04-23T07:51:23.142Z</time></trkpt><trkpt lat="46.1527045" lon="9.4866936"><ele>217.2</ele><time>2026-04-23T07:51:25.142Z</time></trkpt><trkpt lat="46.1526836" lon="9.4867932"><ele>217.39999999999998</ele><time>2026-04-23T07:51:26.142Z</time></trkpt><trkpt lat="46.1526476" lon="9.486883"><ele>217.60000000000002</ele><time>2026-04-23T07:51:27.142Z</time></trkpt><trkpt lat="46.1525448" lon="9.4869386"><ele>217.8</ele><time>2026-04-23T07:51:29.142Z</time></trkpt><trkpt lat="46.1524445" lon="9.4869558"><ele>218.0</ele><time>2026-04-23T07:51:31.142Z</time></trkpt><trkpt lat="46.1523415" lon="9.4869643"><ele>216.50000000000003</ele><time>2026-04-23T07:51:33.143Z</time></trkpt><trkpt lat="46.152279" lon="9.4870433"><ele>215.0</ele><time>2026-04-23T07:51:35.143Z</time></trkpt><trkpt lat="46.1522653" lon="9.4871549"><ele>213.5</ele><time>2026-04-23T07:51:37.143Z</time></trkpt><trkpt lat="46.1522686" lon="9.4872883"><ele>212.0</ele><time>2026-04-23T07:51:39.142Z</time></trkpt><trkpt lat="46.1522628" lon="9.4874562"><ele>210.50000000000003</ele><time>2026-04-23T07:51:41.143Z</time></trkpt><trkpt lat="46.1522665" lon="9.4875581"><ele>209.0</ele><time>2026-04-23T07:51:42.142Z</time></trkpt><trkpt lat="46.1522697" lon="9.487658"><ele>209.00000000000003</ele><time>2026-04-23T07:51:43.143Z</time></trkpt><trkpt lat="46.1522756" lon="9.4877633"><ele>209.0</ele><time>2026-04-23T07:51:44.143Z</time></trkpt><trkpt lat="46.152286" lon="9.4878724"><ele>209.0</ele><time>2026-04-23T07:51:45.143Z</time></trkpt><trkpt lat="46.1523027" lon="9.4879764"><ele>209.0</ele><time>2026-04-23T07:51:46.143Z</time></trkpt><trkpt lat="46.1523109" lon="9.488077"><ele>209.00000000000003</ele><time>2026-04-23T07:51:47.142Z</time></trkpt><trkpt lat="46.1523148" lon="9.4881741"><ele>209.0</ele><time>2026-04-23T07:51:48.143Z</time></trkpt><trkpt lat="46.1523353" lon="9.4883467"><ele>209.2</ele><time>2026-04-23T07:51:50.142Z</time></trkpt><trkpt lat="46.152326" lon="9.4885123"><ele>209.39999999999998</ele><time>2026-04-23T07:51:52.143Z</time></trkpt><trkpt lat="46.1523178" lon="9.4886693"><ele>209.6</ele><time>2026-04-23T07:51:54.143Z</time></trkpt><trkpt lat="46.1523246" lon="9.488824"><ele>209.8</ele><time>2026-04-23T07:51:56.145Z</time></trkpt><trkpt lat="46.1523366" lon="9.4889663"><ele>210.0</ele><time>2026-04-23T07:51:58.143Z</time></trkpt><trkpt lat="46.1523409" lon="9.4891025"><ele>210.0</ele><time>2026-04-23T07:52:00.143Z</time></trkpt><trkpt lat="46.1523501" lon="9.4892336"><ele>210.0</ele><time>2026-04-23T07:52:02.143Z</time></trkpt><trkpt lat="46.1523721" lon="9.4893891"><ele>210.0</ele><time>2026-04-23T07:52:04.142Z</time></trkpt><trkpt lat="46.1523933" lon="9.4895334"><ele>210.0</ele><time>2026-04-23T07:52:06.143Z</time></trkpt><trkpt lat="46.1524096" lon="9.4896741"><ele>210.0</ele><time>2026-04-23T07:52:08.143Z</time></trkpt><trkpt lat="46.1524196" lon="9.4898111"><ele>210.75</ele><time>2026-04-23T07:52:10.142Z</time></trkpt><trkpt lat="46.1524337" lon="9.4899696"><ele>211.5</ele><time>2026-04-23T07:52:12.141Z</time></trkpt><trkpt lat="46.1524383" lon="9.4901128"><ele>212.25</ele><time>2026-04-23T07:52:14.142Z</time></trkpt><trkpt lat="46.1524493" lon="9.4902707"><ele>213.0</ele><time>2026-04-23T07:52:16.142Z</time></trkpt><trkpt lat="46.1525223" lon="9.4904877"><ele>213.4</ele><time>2026-04-23T07:52:19.142Z</time></trkpt><trkpt lat="46.1525855" lon="9.4905881"><ele>213.8</ele><time>2026-04-23T07:52:21.143Z</time></trkpt><trkpt lat="46.1526447" lon="9.4907071"><ele>214.2</ele><time>2026-04-23T07:52:23.143Z</time></trkpt><trkpt lat="46.1526631" lon="9.4908547"><ele>214.6</ele><time>2026-04-23T07:52:25.142Z</time></trkpt><trkpt lat="46.1526862" lon="9.4909827"><ele>215.0</ele><time>2026-04-23T07:52:27.142Z</time></trkpt><trkpt lat="46.1526978" lon="9.4911407"><ele>214.8</ele><time>2026-04-23T07:52:29.142Z</time></trkpt><trkpt lat="46.152686" lon="9.4913085"><ele>214.6</ele><time>2026-04-23T07:52:31.143Z</time></trkpt><trkpt lat="46.1526805" lon="9.4913995"><ele>214.39999999999998</ele><time>2026-04-23T07:52:32.143Z</time></trkpt><trkpt lat="46.1526746" lon="9.4915749"><ele>214.2</ele><time>2026-04-23T07:52:34.143Z</time></trkpt><trkpt lat="46.1526749" lon="9.4917321"><ele>214.0</ele><time>2026-04-23T07:52:36.143Z</time></trkpt><trkpt lat="46.1526949" lon="9.4918619"><ele>214.0</ele><time>2026-04-23T07:52:38.142Z</time></trkpt><trkpt lat="46.1526937" lon="9.4920058"><ele>213.99999999999997</ele><time>2026-04-23T07:52:40.143Z</time></trkpt><trkpt lat="46.1526992" lon="9.4921422"><ele>213.99999999999997</ele><time>2026-04-23T07:52:42.143Z</time></trkpt><trkpt lat="46.1527291" lon="9.4922714"><ele>214.0</ele><time>2026-04-23T07:52:44.143Z</time></trkpt><trkpt lat="46.1527346" lon="9.4923988"><ele>214.0</ele><time>2026-04-23T07:52:46.143Z</time></trkpt><trkpt lat="46.1527628" lon="9.492559"><ele>213.5</ele><time>2026-04-23T07:52:48.144Z</time></trkpt><trkpt lat="46.1527662" lon="9.4926896"><ele>213.0</ele><time>2026-04-23T07:52:50.144Z</time></trkpt><trkpt lat="46.152765" lon="9.4929136"><ele>212.5</ele><time>2026-04-23T07:52:53.143Z</time></trkpt><trkpt lat="46.1527512" lon="9.4930848"><ele>212.0</ele><time>2026-04-23T07:52:55.143Z</time></trkpt><trkpt lat="46.1527229" lon="9.4932295"><ele>211.8</ele><time>2026-04-23T07:52:57.143Z</time></trkpt><trkpt lat="46.1526975" lon="9.4933655"><ele>211.6</ele><time>2026-04-23T07:52:59.142Z</time></trkpt><trkpt lat="46.1526736" lon="9.4935332"><ele>211.4</ele><time>2026-04-23T07:53:01.143Z</time></trkpt><trkpt lat="46.1526381" lon="9.4936695"><ele>211.20000000000002</ele><time>2026-04-23T07:53:03.142Z</time></trkpt><trkpt lat="46.1526234" lon="9.4937817"><ele>211.0</ele><time>2026-04-23T07:53:05.142Z</time></trkpt><trkpt lat="46.1525962" lon="9.4938659"><ele>210.66666666666666</ele><time>2026-04-23T07:53:07.143Z</time></trkpt><trkpt lat="46.1525832" lon="9.4939673"><ele>210.33333333333331</ele><time>2026-04-23T07:53:12.143Z</time></trkpt><trkpt lat="46.1526104" lon="9.4940979"><ele>210.0</ele><time>2026-04-23T07:53:15.143Z</time></trkpt><trkpt lat="46.1526306" lon="9.4942187"><ele>209.66666666666669</ele><time>2026-04-23T07:53:17.143Z</time></trkpt><trkpt lat="46.1526511" lon="9.4943303"><ele>209.33333333333334</ele><time>2026-04-23T07:53:19.142Z</time></trkpt><trkpt lat="46.1526793" lon="9.4944359"><ele>209.0</ele><time>2026-04-23T07:53:21.143Z</time></trkpt><trkpt lat="46.1527042" lon="9.49453"><ele>208.66666666666669</ele><time>2026-04-23T07:53:23.142Z</time></trkpt><trkpt lat="46.1527263" lon="9.494629"><ele>208.33333333333334</ele><time>2026-04-23T07:53:25.143Z</time></trkpt><trkpt lat="46.1527343" lon="9.4947443"><ele>208.0</ele><time>2026-04-23T07:53:28.142Z</time></trkpt><trkpt lat="46.152686" lon="9.494833"><ele>207.66666666666669</ele><time>2026-04-23T07:53:31.143Z</time></trkpt><trkpt lat="46.152624" lon="9.4948791"><ele>207.33333333333334</ele><time>2026-04-23T07:53:34.144Z</time></trkpt><trkpt lat="46.1526297" lon="9.4949928"><ele>207.0</ele><time>2026-04-23T07:53:37.142Z</time></trkpt><trkpt lat="46.152637" lon="9.4951197"><ele>207.0</ele><time>2026-04-23T07:53:40.143Z</time></trkpt><trkpt lat="46.1526425" lon="9.4952207"><ele>207.0</ele><time>2026-04-23T07:53:42.144Z</time></trkpt><trkpt lat="46.1526527" lon="9.4953168"><ele>207.0</ele><time>2026-04-23T07:53:44.142Z</time></trkpt><trkpt lat="46.1526536" lon="9.4954398"><ele>207.0</ele><time>2026-04-23T07:53:47.143Z</time></trkpt><trkpt lat="46.1526429" lon="9.4955665"><ele>207.0</ele><time>2026-04-23T07:53:50.144Z</time></trkpt><trkpt lat="46.1527067" lon="9.4956471"><ele>207.0</ele><time>2026-04-23T07:53:53.143Z</time></trkpt><trkpt lat="46.1527736" lon="9.4956463"><ele>207.14285714285717</ele><time>2026-04-23T07:53:55.143Z</time></trkpt><trkpt lat="46.1528469" lon="9.4956284"><ele>207.28571428571428</ele><time>2026-04-23T07:53:57.143Z</time></trkpt><trkpt lat="46.1529167" lon="9.4956095"><ele>207.42857142857144</ele><time>2026-04-23T07:53:59.143Z</time></trkpt><trkpt lat="46.1529717" lon="9.4956939"><ele>207.57142857142858</ele><time>2026-04-23T07:54:02.144Z</time></trkpt><trkpt lat="46.1529725" lon="9.4957985"><ele>207.71428571428572</ele><time>2026-04-23T07:54:04.143Z</time></trkpt><trkpt lat="46.1529751" lon="9.4959075"><ele>207.85714285714286</ele><time>2026-04-23T07:54:06.142Z</time></trkpt><trkpt lat="46.1529779" lon="9.4960166"><ele>208.0</ele><time>2026-04-23T07:54:08.144Z</time></trkpt><trkpt lat="46.1529862" lon="9.4961152"><ele>207.99999999999997</ele><time>2026-04-23T07:54:10.143Z</time></trkpt><trkpt lat="46.1529878" lon="9.4962147"><ele>208.0</ele><time>2026-04-23T07:54:12.143Z</time></trkpt><trkpt lat="46.152986" lon="9.4963128"><ele>208.0</ele><time>2026-04-23T07:54:14.142Z</time></trkpt><trkpt lat="46.1529744" lon="9.4964087"><ele>208.0</ele><time>2026-04-23T07:54:16.142Z</time></trkpt><trkpt lat="46.1529515" lon="9.496561"><ele>207.99999999999997</ele><time>2026-04-23T07:54:19.144Z</time></trkpt><trkpt lat="46.1529313" lon="9.4966569"><ele>208.0</ele><time>2026-04-23T07:54:21.144Z</time></trkpt><trkpt lat="46.1529088" lon="9.4967525"><ele>208.57142857142856</ele><time>2026-04-23T07:54:23.142Z</time></trkpt><trkpt lat="46.1528888" lon="9.4968514"><ele>209.14285714285717</ele><time>2026-04-23T07:54:25.142Z</time></trkpt><trkpt lat="46.1528594" lon="9.4969434"><ele>209.71428571428572</ele><time>2026-04-23T07:54:27.142Z</time></trkpt><trkpt lat="46.1528203" lon="9.4970247"><ele>210.28571428571428</ele><time>2026-04-23T07:54:29.144Z</time></trkpt><trkpt lat="46.152789" lon="9.4971081"><ele>210.85714285714283</ele><time>2026-04-23T07:54:31.143Z</time></trkpt><trkpt lat="46.1527694" lon="9.4971945"><ele>211.42857142857144</ele><time>2026-04-23T07:54:33.143Z</time></trkpt><trkpt lat="46.1527446" lon="9.4972819"><ele>212.0</ele><time>2026-04-23T07:54:35.144Z</time></trkpt><trkpt lat="46.1527142" lon="9.497373"><ele>212.2857142857143</ele><time>2026-04-23T07:54:37.142Z</time></trkpt><trkpt lat="46.1526795" lon="9.4974595"><ele>212.57142857142856</ele><time>2026-04-23T07:54:39.143Z</time></trkpt><trkpt lat="46.1526512" lon="9.4975424"><ele>212.85714285714286</ele><time>2026-04-23T07:54:41.144Z</time></trkpt><trkpt lat="46.1526353" lon="9.4976334"><ele>213.14285714285717</ele><time>2026-04-23T07:54:43.144Z</time></trkpt><trkpt lat="46.1526235" lon="9.4977266"><ele>213.42857142857144</ele><time>2026-04-23T07:54:45.143Z</time></trkpt><trkpt lat="46.1526111" lon="9.4978221"><ele>213.71428571428572</ele><time>2026-04-23T07:54:47.143Z</time></trkpt><trkpt lat="46.1525974" lon="9.4979162"><ele>214.0</ele><time>2026-04-23T07:54:49.142Z</time></trkpt><trkpt lat="46.1525899" lon="9.4980091"><ele>214.14285714285717</ele><time>2026-04-23T07:54:51.143Z</time></trkpt><trkpt lat="46.1525826" lon="9.4981038"><ele>214.28571428571428</ele><time>2026-04-23T07:54:53.144Z</time></trkpt><trkpt lat="46.1525723" lon="9.4981941"><ele>214.42857142857144</ele><time>2026-04-23T07:54:55.142Z</time></trkpt><trkpt lat="46.1525608" lon="9.4982852"><ele>214.57142857142858</ele><time>2026-04-23T07:54:57.143Z</time></trkpt><trkpt lat="46.1525381" lon="9.4984125"><ele>214.71428571428572</ele><time>2026-04-23T07:55:00.142Z</time></trkpt><trkpt lat="46.1525068" lon="9.4985189"><ele>214.85714285714286</ele><time>2026-04-23T07:55:03.142Z</time></trkpt><trkpt lat="46.1524851" lon="9.4986307"><ele>215.0</ele><time>2026-04-23T07:55:06.142Z</time></trkpt><trkpt lat="46.1524648" lon="9.4987468"><ele>214.66666666666669</ele><time>2026-04-23T07:55:09.143Z</time></trkpt><trkpt lat="46.1524388" lon="9.4988569"><ele>214.33333333333334</ele><time>2026-04-23T07:55:12.142Z</time></trkpt><trkpt lat="46.1524037" lon="9.4989659"><ele>214.0</ele><time>2026-04-23T07:55:15.143Z</time></trkpt><trkpt lat="46.1523636" lon="9.4990886"><ele>213.66666666666669</ele><time>2026-04-23T07:55:18.143Z</time></trkpt><trkpt lat="46.1523278" lon="9.4991684"><ele>213.33333333333334</ele><time>2026-04-23T07:55:20.143Z</time></trkpt><trkpt lat="46.1522945" lon="9.4992484"><ele>213.0</ele><time>2026-04-23T07:55:22.143Z</time></trkpt><trkpt lat="46.1522663" lon="9.4993479"><ele>212.99999999999997</ele><time>2026-04-23T07:55:24.144Z</time></trkpt><trkpt lat="46.1522258" lon="9.4994535"><ele>213.0</ele><time>2026-04-23T07:55:26.143Z</time></trkpt><trkpt lat="46.152188" lon="9.4995419"><ele>213.0</ele><time>2026-04-23T07:55:28.143Z</time></trkpt><trkpt lat="46.1521571" lon="9.4996322"><ele>213.0</ele><time>2026-04-23T07:55:30.143Z</time></trkpt><trkpt lat="46.1521209" lon="9.4997211"><ele>213.0</ele><time>2026-04-23T07:55:32.143Z</time></trkpt><trkpt lat="46.1520953" lon="9.4998168"><ele>212.99999999999997</ele><time>2026-04-23T07:55:34.143Z</time></trkpt><trkpt lat="46.1521188" lon="9.4999098"><ele>213.0</ele><time>2026-04-23T07:55:36.144Z</time></trkpt><trkpt lat="46.1522028" lon="9.4999537"><ele>213.28571428571428</ele><time>2026-04-23T07:55:39.144Z</time></trkpt><trkpt lat="46.1522816" lon="9.4999709"><ele>213.57142857142856</ele><time>2026-04-23T07:55:42.143Z</time></trkpt><trkpt lat="46.1523568" lon="9.4999765"><ele>213.85714285714283</ele><time>2026-04-23T07:55:45.143Z</time></trkpt><trkpt lat="46.1524326" lon="9.4999882"><ele>214.14285714285714</ele><time>2026-04-23T07:55:49.143Z</time></trkpt><trkpt lat="46.152504" lon="9.4999999"><ele>214.42857142857144</ele><time>2026-04-23T07:55:53.143Z</time></trkpt><trkpt lat="46.1525687" lon="9.5000168"><ele>214.7142857142857</ele><time>2026-04-23T07:55:56.143Z</time></trkpt><trkpt lat="46.152647" lon="9.5000401"><ele>215.0</ele><time>2026-04-23T07:56:00.143Z</time></trkpt><trkpt lat="46.1527171" lon="9.5000828"><ele>216.50000000000003</ele><time>2026-04-23T07:56:04.143Z</time></trkpt><trkpt lat="46.1527946" lon="9.5001235"><ele>218.0</ele><time>2026-04-23T07:56:08.143Z</time></trkpt><trkpt lat="46.1528523" lon="9.5001772"><ele>219.5</ele><time>2026-04-23T07:56:11.142Z</time></trkpt><trkpt lat="46.1529034" lon="9.5002716"><ele>221.0</ele><time>2026-04-23T07:56:14.143Z</time></trkpt><trkpt lat="46.1529226" lon="9.5003823"><ele>222.50000000000003</ele><time>2026-04-23T07:56:16.144Z</time></trkpt><trkpt lat="46.1529097" lon="9.5005392"><ele>224.0</ele><time>2026-04-23T07:56:18.143Z</time></trkpt><trkpt lat="46.1528943" lon="9.5006282"><ele>224.50000000000003</ele><time>2026-04-23T07:56:19.144Z</time></trkpt><trkpt lat="46.152877" lon="9.5007219"><ele>225.0</ele><time>2026-04-23T07:56:20.143Z</time></trkpt><trkpt lat="46.1528665" lon="9.5008948"><ele>225.5</ele><time>2026-04-23T07:56:22.144Z</time></trkpt><trkpt lat="46.152876" lon="9.5010059"><ele>226.0</ele><time>2026-04-23T07:56:24.144Z</time></trkpt><trkpt lat="46.1528879" lon="9.5011045"><ele>226.50000000000003</ele><time>2026-04-23T07:56:27.143Z</time></trkpt><trkpt lat="46.152883" lon="9.5012006"><ele>227.0</ele><time>2026-04-23T07:56:31.144Z</time></trkpt><trkpt lat="46.1528776" lon="9.5013093"><ele>227.2857142857143</ele><time>2026-04-23T07:56:36.143Z</time></trkpt><trkpt lat="46.1528621" lon="9.5014174"><ele>227.5714285714286</ele><time>2026-04-23T07:56:40.144Z</time></trkpt><trkpt lat="46.1528306" lon="9.5015084"><ele>227.85714285714286</ele><time>2026-04-23T07:56:45.143Z</time></trkpt><trkpt lat="46.1527865" lon="9.5015827"><ele>228.14285714285717</ele><time>2026-04-23T07:56:50.144Z</time></trkpt><trkpt lat="46.1527603" lon="9.5016743"><ele>228.42857142857144</ele><time>2026-04-23T07:56:55.143Z</time></trkpt><trkpt lat="46.1527395" lon="9.5017712"><ele>228.71428571428572</ele><time>2026-04-23T07:57:00.143Z</time></trkpt><trkpt lat="46.1527073" lon="9.5018551"><ele>229.0</ele><time>2026-04-23T07:57:05.143Z</time></trkpt><trkpt lat="46.1526756" lon="9.5019471"><ele>229.0</ele><time>2026-04-23T07:57:10.142Z</time></trkpt><trkpt lat="46.1526539" lon="9.5020459"><ele>229.0</ele><time>2026-04-23T07:57:15.144Z</time></trkpt><trkpt lat="46.1526359" lon="9.5021451"><ele>229.0</ele><time>2026-04-23T07:57:20.143Z</time></trkpt><trkpt lat="46.1526114" lon="9.5022403"><ele>229.0</ele><time>2026-04-23T07:57:25.142Z</time></trkpt><trkpt lat="46.152591" lon="9.5023295"><ele>229.0</ele><time>2026-04-23T07:57:31.144Z</time></trkpt><trkpt lat="46.1525728" lon="9.5024283"><ele>229.0</ele><time>2026-04-23T07:57:37.143Z</time></trkpt><trkpt lat="46.1526067" lon="9.5025105"><ele>229.0</ele><time>2026-04-23T07:57:42.144Z</time></trkpt><trkpt lat="46.1526673" lon="9.5024825"><ele>229.85714285714283</ele><time>2026-04-23T07:57:47.145Z</time></trkpt><trkpt lat="46.1527289" lon="9.5024302"><ele>230.71428571428572</ele><time>2026-04-23T07:57:52.144Z</time></trkpt><trkpt lat="46.1527803" lon="9.5023708"><ele>231.57142857142856</ele><time>2026-04-23T07:57:57.143Z</time></trkpt><trkpt lat="46.1528423" lon="9.5024064"><ele>232.42857142857142</ele><time>2026-04-23T07:58:04.144Z</time></trkpt><trkpt lat="46.1528215" lon="9.5025005"><ele>233.28571428571428</ele><time>2026-04-23T07:58:08.144Z</time></trkpt><trkpt lat="46.1528263" lon="9.5025951"><ele>234.14285714285714</ele><time>2026-04-23T07:58:13.144Z</time></trkpt><trkpt lat="46.1528152" lon="9.5026956"><ele>235.0</ele><time>2026-04-23T07:58:19.144Z</time></trkpt><trkpt lat="46.1528144" lon="9.5027925"><ele>235.0</ele><time>2026-04-23T07:58:24.143Z</time></trkpt><trkpt lat="46.1528032" lon="9.5028953"><ele>234.99999999999997</ele><time>2026-04-23T07:58:29.144Z</time></trkpt><trkpt lat="46.1527868" lon="9.5029949"><ele>235.0</ele><time>2026-04-23T07:58:36.143Z</time></trkpt><trkpt lat="46.1527979" lon="9.5030904"><ele>235.0</ele><time>2026-04-23T07:58:42.145Z</time></trkpt><trkpt lat="46.1527788" lon="9.5031771"><ele>234.99999999999997</ele><time>2026-04-23T07:58:47.144Z</time></trkpt><trkpt lat="46.1528076" lon="9.5032745"><ele>235.0</ele><time>2026-04-23T07:58:53.145Z</time></trkpt><trkpt lat="46.1527946" lon="9.5033761"><ele>235.0</ele><time>2026-04-23T07:58:57.144Z</time></trkpt><trkpt lat="46.152801" lon="9.5034687"><ele>236.33333333333331</ele><time>2026-04-23T07:59:01.144Z</time></trkpt><trkpt lat="46.1528156" lon="9.5035793"><ele>237.66666666666666</ele><time>2026-04-23T07:59:06.145Z</time></trkpt><trkpt lat="46.1528414" lon="9.5036914"><ele>239.0</ele><time>2026-04-23T07:59:10.144Z</time></trkpt><trkpt lat="46.1528568" lon="9.5037873"><ele>240.33333333333331</ele><time>2026-04-23T07:59:13.145Z</time></trkpt><trkpt lat="46.1528683" lon="9.503915"><ele>241.66666666666666</ele><time>2026-04-23T07:59:16.145Z</time></trkpt><trkpt lat="46.1528794" lon="9.5040152"><ele>243.0</ele><time>2026-04-23T07:59:18.143Z</time></trkpt><trkpt lat="46.1528961" lon="9.5041335"><ele>243.0</ele><time>2026-04-23T07:59:20.145Z</time></trkpt><trkpt lat="46.1529139" lon="9.5042558"><ele>243.0</ele><time>2026-04-23T07:59:22.143Z</time></trkpt><trkpt lat="46.1529372" lon="9.5043693"><ele>243.0</ele><time>2026-04-23T07:59:24.143Z</time></trkpt><trkpt lat="46.1529588" lon="9.5044787"><ele>243.0</ele><time>2026-04-23T07:59:26.143Z</time></trkpt><trkpt lat="46.152997" lon="9.5045752"><ele>243.0</ele><time>2026-04-23T07:59:28.144Z</time></trkpt><trkpt lat="46.1530431" lon="9.5046585"><ele>243.0</ele><time>2026-04-23T07:59:30.144Z</time></trkpt><trkpt lat="46.1530907" lon="9.5047383"><ele>242.33333333333334</ele><time>2026-04-23T07:59:32.145Z</time></trkpt><trkpt lat="46.153131" lon="9.5048169"><ele>241.66666666666669</ele><time>2026-04-23T07:59:34.145Z</time></trkpt><trkpt lat="46.1531776" lon="9.5049247"><ele>241.0</ele><time>2026-04-23T07:59:37.144Z</time></trkpt><trkpt lat="46.1532184" lon="9.5050164"><ele>240.33333333333334</ele><time>2026-04-23T07:59:40.145Z</time></trkpt><trkpt lat="46.1532477" lon="9.5051132"><ele>239.66666666666669</ele><time>2026-04-23T07:59:43.144Z</time></trkpt><trkpt lat="46.1532433" lon="9.5052053"><ele>239.0</ele><time>2026-04-23T07:59:46.145Z</time></trkpt><trkpt lat="46.15315" lon="9.5052383"><ele>239.00000000000003</ele><time>2026-04-23T07:59:49.144Z</time></trkpt><trkpt lat="46.1530567" lon="9.50522"><ele>239.0</ele><time>2026-04-23T07:59:51.143Z</time></trkpt><trkpt lat="46.1529592" lon="9.5052203"><ele>239.0</ele><time>2026-04-23T07:59:53.145Z</time></trkpt><trkpt lat="46.1528715" lon="9.5052267"><ele>239.0</ele><time>2026-04-23T07:59:55.144Z</time></trkpt><trkpt lat="46.1527996" lon="9.5052639"><ele>239.00000000000003</ele><time>2026-04-23T07:59:57.144Z</time></trkpt><trkpt lat="46.1527435" lon="9.5053632"><ele>239.0</ele><time>2026-04-23T07:59:59.143Z</time></trkpt><trkpt lat="46.1527212" lon="9.5055241"><ele>238.79999999999998</ele><time>2026-04-23T08:00:01.144Z</time></trkpt><trkpt lat="46.1527128" lon="9.5056955"><ele>238.59999999999997</ele><time>2026-04-23T08:00:03.145Z</time></trkpt><trkpt lat="46.1527012" lon="9.5058273"><ele>238.4</ele><time>2026-04-23T08:00:05.145Z</time></trkpt><trkpt lat="46.1526871" lon="9.5059535"><ele>238.2</ele><time>2026-04-23T08:00:07.146Z</time></trkpt><trkpt lat="46.1526563" lon="9.5060528"><ele>238.0</ele><time>2026-04-23T08:00:09.144Z</time></trkpt><trkpt lat="46.1525954" lon="9.5061165"><ele>237.99999999999997</ele><time>2026-04-23T08:00:11.144Z</time></trkpt><trkpt lat="46.1525209" lon="9.5061293"><ele>238.0</ele><time>2026-04-23T08:00:13.143Z</time></trkpt><trkpt lat="46.1524231" lon="9.5061624"><ele>238.0</ele><time>2026-04-23T08:00:15.146Z</time></trkpt><trkpt lat="46.1523584" lon="9.5061637"><ele>238.0</ele><time>2026-04-23T08:00:17.145Z</time></trkpt><trkpt lat="46.1522789" lon="9.5061764"><ele>237.99999999999997</ele><time>2026-04-23T08:00:21.145Z</time></trkpt><trkpt lat="46.1522567" lon="9.5062815"><ele>238.0</ele><time>2026-04-23T08:00:23.143Z</time></trkpt><trkpt lat="46.1522821" lon="9.5064215"><ele>235.2</ele><time>2026-04-23T08:00:25.144Z</time></trkpt><trkpt lat="46.1522564" lon="9.5065498"><ele>232.4</ele><time>2026-04-23T08:00:27.145Z</time></trkpt><trkpt lat="46.1521813" lon="9.5066156"><ele>229.59999999999997</ele><time>2026-04-23T08:00:29.144Z</time></trkpt><trkpt lat="46.1520978" lon="9.5066246"><ele>226.79999999999998</ele><time>2026-04-23T08:00:31.144Z</time></trkpt><trkpt lat="46.1520347" lon="9.5066917"><ele>224.0</ele><time>2026-04-23T08:00:33.144Z</time></trkpt><trkpt lat="46.1519834" lon="9.5068593"><ele>224.0</ele><time>2026-04-23T08:00:35.144Z</time></trkpt><trkpt lat="46.1519465" lon="9.5070508"><ele>223.99999999999997</ele><time>2026-04-23T08:00:37.145Z</time></trkpt><trkpt lat="46.1519179" lon="9.5071595"><ele>223.99999999999997</ele><time>2026-04-23T08:00:38.144Z</time></trkpt><trkpt lat="46.15189" lon="9.5072738"><ele>224.0</ele><time>2026-04-23T08:00:39.145Z</time></trkpt><trkpt lat="46.1518757" lon="9.5073812"><ele>224.0</ele><time>2026-04-23T08:00:40.145Z</time></trkpt><trkpt lat="46.1518579" lon="9.5074964"><ele>223.42857142857142</ele><time>2026-04-23T08:00:41.144Z</time></trkpt><trkpt lat="46.1518616" lon="9.5076066"><ele>222.85714285714286</ele><time>2026-04-23T08:00:42.143Z</time></trkpt><trkpt lat="46.1518333" lon="9.5077127"><ele>222.28571428571428</ele><time>2026-04-23T08:00:43.144Z</time></trkpt><trkpt lat="46.1517899" lon="9.5078003"><ele>221.71428571428572</ele><time>2026-04-23T08:00:44.145Z</time></trkpt><trkpt lat="46.1517434" lon="9.5078686"><ele>221.14285714285714</ele><time>2026-04-23T08:00:45.144Z</time></trkpt><trkpt lat="46.1516887" lon="9.5079155"><ele>220.57142857142856</ele><time>2026-04-23T08:00:46.144Z</time></trkpt><trkpt lat="46.1516241" lon="9.5079522"><ele>220.0</ele><time>2026-04-23T08:00:47.145Z</time></trkpt><trkpt lat="46.151556" lon="9.5079813"><ele>218.66666666666666</ele><time>2026-04-23T08:00:48.144Z</time></trkpt><trkpt lat="46.1514863" lon="9.5080126"><ele>217.33333333333331</ele><time>2026-04-23T08:00:49.144Z</time></trkpt><trkpt lat="46.151412" lon="9.5080392"><ele>216.0</ele><time>2026-04-23T08:00:50.144Z</time></trkpt><trkpt lat="46.1513465" lon="9.5080553"><ele>214.66666666666669</ele><time>2026-04-23T08:00:51.143Z</time></trkpt><trkpt lat="46.1512367" lon="9.5080713"><ele>213.33333333333334</ele><time>2026-04-23T08:00:53.144Z</time></trkpt><trkpt lat="46.1511375" lon="9.5080813"><ele>212.0</ele><time>2026-04-23T08:00:55.144Z</time></trkpt><trkpt lat="46.1510527" lon="9.5081206"><ele>212.0</ele><time>2026-04-23T08:00:58.145Z</time></trkpt><trkpt lat="46.1510367" lon="9.5082188"><ele>212.0</ele><time>2026-04-23T08:01:00.144Z</time></trkpt><trkpt lat="46.1510561" lon="9.5083443"><ele>212.0</ele><time>2026-04-23T08:01:02.145Z</time></trkpt><trkpt lat="46.1510837" lon="9.508478"><ele>212.0</ele><time>2026-04-23T08:01:04.145Z</time></trkpt><trkpt lat="46.1511042" lon="9.5086257"><ele>212.0</ele><time>2026-04-23T08:01:06.145Z</time></trkpt><trkpt lat="46.1511083" lon="9.5087889"><ele>211.50000000000003</ele><time>2026-04-23T08:01:08.143Z</time></trkpt><trkpt lat="46.1511173" lon="9.508956"><ele>211.0</ele><time>2026-04-23T08:01:10.145Z</time></trkpt><trkpt lat="46.1511065" lon="9.5091423"><ele>210.5</ele><time>2026-04-23T08:01:12.144Z</time></trkpt><trkpt lat="46.1510951" lon="9.5092352"><ele>210.0</ele><time>2026-04-23T08:01:13.144Z</time></trkpt><trkpt lat="46.151088" lon="9.5093353"><ele>209.50000000000003</ele><time>2026-04-23T08:01:14.145Z</time></trkpt><trkpt lat="46.1510725" lon="9.5094287"><ele>209.0</ele><time>2026-04-23T08:01:15.143Z</time></trkpt><trkpt lat="46.1510584" lon="9.5095279"><ele>209.14285714285714</ele><time>2026-04-23T08:01:16.144Z</time></trkpt><trkpt lat="46.1510462" lon="9.5096319"><ele>209.28571428571428</ele><time>2026-04-23T08:01:17.144Z</time></trkpt><trkpt lat="46.151042" lon="9.5097341"><ele>209.42857142857144</ele><time>2026-04-23T08:01:18.144Z</time></trkpt><trkpt lat="46.1510283" lon="9.5098378"><ele>209.57142857142856</ele><time>2026-04-23T08:01:19.143Z</time></trkpt><trkpt lat="46.1510169" lon="9.509938"><ele>209.71428571428572</ele><time>2026-04-23T08:01:20.145Z</time></trkpt><trkpt lat="46.1510078" lon="9.5100473"><ele>209.85714285714286</ele><time>2026-04-23T08:01:21.144Z</time></trkpt><trkpt lat="46.1509972" lon="9.5101502"><ele>210.0</ele><time>2026-04-23T08:01:22.144Z</time></trkpt><trkpt lat="46.1509917" lon="9.5102516"><ele>210.0</ele><time>2026-04-23T08:01:23.144Z</time></trkpt><trkpt lat="46.1509841" lon="9.51036"><ele>210.0</ele><time>2026-04-23T08:01:24.144Z</time></trkpt><trkpt lat="46.1509813" lon="9.5104653"><ele>210.0</ele><time>2026-04-23T08:01:25.143Z</time></trkpt><trkpt lat="46.1509668" lon="9.5105681"><ele>210.0</ele><time>2026-04-23T08:01:26.144Z</time></trkpt><trkpt lat="46.1509503" lon="9.5106768"><ele>210.0</ele><time>2026-04-23T08:01:27.144Z</time></trkpt><trkpt lat="46.1509453" lon="9.5107798"><ele>210.0</ele><time>2026-04-23T08:01:28.142Z</time></trkpt><trkpt lat="46.1509374" lon="9.510885"><ele>210.0</ele><time>2026-04-23T08:01:29.144Z</time></trkpt><trkpt lat="46.1509352" lon="9.5109875"><ele>209.85714285714286</ele><time>2026-04-23T08:01:30.144Z</time></trkpt><trkpt lat="46.1509333" lon="9.5110885"><ele>209.71428571428572</ele><time>2026-04-23T08:01:31.144Z</time></trkpt><trkpt lat="46.1509303" lon="9.5111983"><ele>209.57142857142856</ele><time>2026-04-23T08:01:32.145Z</time></trkpt><trkpt lat="46.150934" lon="9.5112974"><ele>209.42857142857144</ele><time>2026-04-23T08:01:33.144Z</time></trkpt><trkpt lat="46.1509318" lon="9.5113952"><ele>209.28571428571428</ele><time>2026-04-23T08:01:34.145Z</time></trkpt><trkpt lat="46.1509326" lon="9.5114937"><ele>209.14285714285714</ele><time>2026-04-23T08:01:35.144Z</time></trkpt><trkpt lat="46.1509334" lon="9.5115969"><ele>209.0</ele><time>2026-04-23T08:01:36.145Z</time></trkpt><trkpt lat="46.1509352" lon="9.511694"><ele>209.42857142857142</ele><time>2026-04-23T08:01:37.145Z</time></trkpt><trkpt lat="46.1509268" lon="9.5117921"><ele>209.85714285714283</ele><time>2026-04-23T08:01:38.143Z</time></trkpt><trkpt lat="46.1509196" lon="9.5118976"><ele>210.28571428571428</ele><time>2026-04-23T08:01:39.143Z</time></trkpt><trkpt lat="46.1509228" lon="9.5120033"><ele>210.71428571428572</ele><time>2026-04-23T08:01:40.145Z</time></trkpt><trkpt lat="46.1509189" lon="9.5121081"><ele>211.14285714285714</ele><time>2026-04-23T08:01:41.145Z</time></trkpt><trkpt lat="46.1509164" lon="9.512214"><ele>211.57142857142858</ele><time>2026-04-23T08:01:42.145Z</time></trkpt><trkpt lat="46.1509133" lon="9.5123224"><ele>212.0</ele><time>2026-04-23T08:01:43.144Z</time></trkpt><trkpt lat="46.1509133" lon="9.5124208"><ele>212.14285714285714</ele><time>2026-04-23T08:01:44.145Z</time></trkpt><trkpt lat="46.1509123" lon="9.5125244"><ele>212.28571428571428</ele><time>2026-04-23T08:01:45.145Z</time></trkpt><trkpt lat="46.1509104" lon="9.5126197"><ele>212.42857142857142</ele><time>2026-04-23T08:01:46.144Z</time></trkpt><trkpt lat="46.1509117" lon="9.5127236"><ele>212.57142857142856</ele><time>2026-04-23T08:01:47.145Z</time></trkpt><trkpt lat="46.150903" lon="9.5128215"><ele>212.71428571428572</ele><time>2026-04-23T08:01:48.143Z</time></trkpt><trkpt lat="46.1509007" lon="9.5129233"><ele>212.85714285714283</ele><time>2026-04-23T08:01:49.144Z</time></trkpt><trkpt lat="46.1508942" lon="9.5130232"><ele>213.0</ele><time>2026-04-23T08:01:50.144Z</time></trkpt><trkpt lat="46.150892" lon="9.5131194"><ele>212.83333333333334</ele><time>2026-04-23T08:01:51.145Z</time></trkpt><trkpt lat="46.1508931" lon="9.513212"><ele>212.66666666666669</ele><time>2026-04-23T08:01:52.144Z</time></trkpt><trkpt lat="46.1508941" lon="9.5133047"><ele>212.5</ele><time>2026-04-23T08:01:53.145Z</time></trkpt><trkpt lat="46.1509028" lon="9.5134057"><ele>212.33333333333334</ele><time>2026-04-23T08:01:54.144Z</time></trkpt><trkpt lat="46.1509107" lon="9.5135736"><ele>212.16666666666669</ele><time>2026-04-23T08:01:56.144Z</time></trkpt><trkpt lat="46.1509022" lon="9.5136644"><ele>212.0</ele><time>2026-04-23T08:01:57.145Z</time></trkpt><trkpt lat="46.1509011" lon="9.5138255"><ele>212.0</ele><time>2026-04-23T08:01:59.144Z</time></trkpt><trkpt lat="46.1509027" lon="9.5139718"><ele>212.0</ele><time>2026-04-23T08:02:01.145Z</time></trkpt><trkpt lat="46.1509091" lon="9.5141204"><ele>212.0</ele><time>2026-04-23T08:02:03.144Z</time></trkpt><trkpt lat="46.1509555" lon="9.514257"><ele>212.0</ele><time>2026-04-23T08:02:05.145Z</time></trkpt><trkpt lat="46.1510291" lon="9.514331"><ele>212.0</ele><time>2026-04-23T08:02:07.145Z</time></trkpt><trkpt lat="46.151113" lon="9.5143757"><ele>212.00000000000003</ele><time>2026-04-23T08:02:09.145Z</time></trkpt><trkpt lat="46.1512004" lon="9.514423"><ele>212.0</ele><time>2026-04-23T08:02:11.144Z</time></trkpt><trkpt lat="46.1512625" lon="9.514471"><ele>212.0</ele><time>2026-04-23T08:02:13.145Z</time></trkpt><trkpt lat="46.1513134" lon="9.5145664"><ele>212.0</ele><time>2026-04-23T08:02:17.145Z</time></trkpt><trkpt lat="46.1513198" lon="9.5146587"><ele>212.00000000000003</ele><time>2026-04-23T08:02:20.144Z</time></trkpt><trkpt lat="46.1513207" lon="9.5147644"><ele>212.0</ele><time>2026-04-23T08:02:23.145Z</time></trkpt><trkpt lat="46.1513195" lon="9.5148893"><ele>211.83333333333334</ele><time>2026-04-23T08:02:26.145Z</time></trkpt><trkpt lat="46.1513267" lon="9.5150231"><ele>211.66666666666669</ele><time>2026-04-23T08:02:29.145Z</time></trkpt><trkpt lat="46.1513456" lon="9.5151209"><ele>211.5</ele><time>2026-04-23T08:02:31.145Z</time></trkpt><trkpt lat="46.1513666" lon="9.5152164"><ele>211.33333333333331</ele><time>2026-04-23T08:02:33.144Z</time></trkpt><trkpt lat="46.1513899" lon="9.5153182"><ele>211.16666666666666</ele><time>2026-04-23T08:02:35.145Z</time></trkpt><trkpt lat="46.1514079" lon="9.5154142"><ele>211.0</ele><time>2026-04-23T08:02:37.144Z</time></trkpt><trkpt lat="46.1514161" lon="9.5155203"><ele>211.0</ele><time>2026-04-23T08:02:39.144Z</time></trkpt><trkpt lat="46.151422" lon="9.5156281"><ele>211.0</ele><time>2026-04-23T08:02:41.145Z</time></trkpt><trkpt lat="46.1514257" lon="9.5157357"><ele>211.0</ele><time>2026-04-23T08:02:43.145Z</time></trkpt><trkpt lat="46.1514257" lon="9.5158421"><ele>211.0</ele><time>2026-04-23T08:02:45.145Z</time></trkpt><trkpt lat="46.1514263" lon="9.515944"><ele>211.0</ele><time>2026-04-23T08:02:47.144Z</time></trkpt><trkpt lat="46.1514232" lon="9.5160435"><ele>211.0</ele><time>2026-04-23T08:02:49.145Z</time></trkpt><trkpt lat="46.1514027" lon="9.5161431"><ele>211.0</ele><time>2026-04-23T08:02:51.144Z</time></trkpt><trkpt lat="46.1513791" lon="9.5162615"><ele>211.0</ele><time>2026-04-23T08:02:54.145Z</time></trkpt><trkpt lat="46.1513538" lon="9.5163457"><ele>211.0</ele><time>2026-04-23T08:02:57.145Z</time></trkpt><trkpt lat="46.1513294" lon="9.5164403"><ele>211.0</ele><time>2026-04-23T08:03:00.145Z</time></trkpt><trkpt lat="46.1512986" lon="9.5165287"><ele>211.0</ele><time>2026-04-23T08:03:03.144Z</time></trkpt><trkpt lat="46.1512764" lon="9.5166174"><ele>211.0</ele><time>2026-04-23T08:03:06.145Z</time></trkpt><trkpt lat="46.1512581" lon="9.5167062"><ele>211.0</ele><time>2026-04-23T08:03:09.145Z</time></trkpt><trkpt lat="46.1512277" lon="9.5167967"><ele>211.0</ele><time>2026-04-23T08:03:12.145Z</time></trkpt><trkpt lat="46.1512044" lon="9.5168996"><ele>211.0</ele><time>2026-04-23T08:03:15.145Z</time></trkpt><trkpt lat="46.1511803" lon="9.5169964"><ele>211.0</ele><time>2026-04-23T08:03:18.144Z</time></trkpt><trkpt lat="46.1511617" lon="9.5170873"><ele>211.0</ele><time>2026-04-23T08:03:21.144Z</time></trkpt><trkpt lat="46.1511507" lon="9.5171812"><ele>211.0</ele><time>2026-04-23T08:03:23.145Z</time></trkpt><trkpt lat="46.1511445" lon="9.5172809"><ele>211.0</ele><time>2026-04-23T08:03:25.145Z</time></trkpt><trkpt lat="46.1511449" lon="9.5173998"><ele>211.0</ele><time>2026-04-23T08:03:27.145Z</time></trkpt><trkpt lat="46.1511396" lon="9.5175183"><ele>211.0</ele><time>2026-04-23T08:03:29.144Z</time></trkpt><trkpt lat="46.151134" lon="9.5176393"><ele>211.57142857142858</ele><time>2026-04-23T08:03:31.146Z</time></trkpt><trkpt lat="46.1511256" lon="9.5177516"><ele>212.14285714285717</ele><time>2026-04-23T08:03:33.144Z</time></trkpt><trkpt lat="46.1511185" lon="9.5178536"><ele>212.71428571428572</ele><time>2026-04-23T08:03:35.145Z</time></trkpt><trkpt lat="46.1511126" lon="9.5179481"><ele>213.28571428571428</ele><time>2026-04-23T08:03:37.145Z</time></trkpt><trkpt lat="46.1510967" lon="9.5180447"><ele>213.85714285714286</ele><time>2026-04-23T08:03:39.145Z</time></trkpt><trkpt lat="46.1510733" lon="9.5181319"><ele>214.42857142857142</ele><time>2026-04-23T08:03:41.145Z</time></trkpt><trkpt lat="46.1510397" lon="9.5182346"><ele>215.0</ele><time>2026-04-23T08:03:44.144Z</time></trkpt><trkpt lat="46.1510133" lon="9.5183455"><ele>215.83333333333334</ele><time>2026-04-23T08:03:47.145Z</time></trkpt><trkpt lat="46.1509728" lon="9.5184701"><ele>216.66666666666669</ele><time>2026-04-23T08:03:50.144Z</time></trkpt><trkpt lat="46.1509422" lon="9.5185526"><ele>217.5</ele><time>2026-04-23T08:03:52.144Z</time></trkpt><trkpt lat="46.150911" lon="9.5186411"><ele>218.33333333333331</ele><time>2026-04-23T08:03:54.145Z</time></trkpt><trkpt lat="46.1508836" lon="9.5187521"><ele>219.16666666666666</ele><time>2026-04-23T08:03:56.145Z</time></trkpt><trkpt lat="46.150843" lon="9.5188803"><ele>220.0</ele><time>2026-04-23T08:03:58.146Z</time></trkpt><trkpt lat="46.1507879" lon="9.5190129"><ele>220.4</ele><time>2026-04-23T08:04:00.144Z</time></trkpt><trkpt lat="46.1507271" lon="9.5191443"><ele>220.8</ele><time>2026-04-23T08:04:02.145Z</time></trkpt><trkpt lat="46.1506644" lon="9.5192799"><ele>221.2</ele><time>2026-04-23T08:04:04.146Z</time></trkpt><trkpt lat="46.1505996" lon="9.519433"><ele>221.6</ele><time>2026-04-23T08:04:06.144Z</time></trkpt><trkpt lat="46.1505659" lon="9.519527"><ele>222.0</ele><time>2026-04-23T08:04:07.144Z</time></trkpt><trkpt lat="46.1505282" lon="9.5196178"><ele>221.2</ele><time>2026-04-23T08:04:08.144Z</time></trkpt><trkpt lat="46.150463" lon="9.519756"><ele>220.39999999999998</ele><time>2026-04-23T08:04:10.146Z</time></trkpt><trkpt lat="46.1504075" lon="9.5198784"><ele>219.60000000000002</ele><time>2026-04-23T08:04:12.146Z</time></trkpt><trkpt lat="46.1503557" lon="9.5199734"><ele>218.8</ele><time>2026-04-23T08:04:14.144Z</time></trkpt><trkpt lat="46.1503236" lon="9.5200645"><ele>218.0</ele><time>2026-04-23T08:04:16.144Z</time></trkpt><trkpt lat="46.1502802" lon="9.5201827"><ele>218.00000000000003</ele><time>2026-04-23T08:04:19.144Z</time></trkpt><trkpt lat="46.1502404" lon="9.5202889"><ele>218.0</ele><time>2026-04-23T08:04:22.144Z</time></trkpt><trkpt lat="46.1502015" lon="9.5203952"><ele>218.0</ele><time>2026-04-23T08:04:25.144Z</time></trkpt><trkpt lat="46.1501582" lon="9.5204837"><ele>218.0</ele><time>2026-04-23T08:04:28.144Z</time></trkpt><trkpt lat="46.1501233" lon="9.5205745"><ele>218.00000000000003</ele><time>2026-04-23T08:04:31.144Z</time></trkpt><trkpt lat="46.1501286" lon="9.5206725"><ele>218.0</ele><time>2026-04-23T08:04:35.146Z</time></trkpt><trkpt lat="46.1501896" lon="9.5207321"><ele>218.71428571428572</ele><time>2026-04-23T08:04:39.146Z</time></trkpt><trkpt lat="46.1502381" lon="9.5207934"><ele>219.42857142857144</ele><time>2026-04-23T08:04:43.146Z</time></trkpt><trkpt lat="46.1502859" lon="9.520855"><ele>220.14285714285714</ele><time>2026-04-23T08:04:47.146Z</time></trkpt><trkpt lat="46.1503384" lon="9.5209275"><ele>220.85714285714286</ele><time>2026-04-23T08:04:52.144Z</time></trkpt><trkpt lat="46.1503896" lon="9.5210015"><ele>221.57142857142856</ele><time>2026-04-23T08:04:57.146Z</time></trkpt><trkpt lat="46.1504141" lon="9.5210961"><ele>222.28571428571428</ele><time>2026-04-23T08:05:02.146Z</time></trkpt><trkpt lat="46.1504377" lon="9.5211877"><ele>223.0</ele><time>2026-04-23T08:05:07.146Z</time></trkpt><trkpt lat="46.150454" lon="9.5212867"><ele>224.0</ele><time>2026-04-23T08:05:12.144Z</time></trkpt><trkpt lat="46.150448" lon="9.5213931"><ele>225.0</ele><time>2026-04-23T08:05:18.145Z</time></trkpt><trkpt lat="46.1504529" lon="9.5214982"><ele>226.0</ele><time>2026-04-23T08:05:24.145Z</time></trkpt><trkpt lat="46.1504579" lon="9.5215893"><ele>227.0</ele><time>2026-04-23T08:05:29.145Z</time></trkpt><trkpt lat="46.1504709" lon="9.5216973"><ele>228.0</ele><time>2026-04-23T08:05:34.145Z</time></trkpt><trkpt lat="46.1504768" lon="9.5217907"><ele>228.99999999999997</ele><time>2026-04-23T08:05:39.145Z</time></trkpt><trkpt lat="46.1504415" lon="9.5218746"><ele>229.99999999999997</ele><time>2026-04-23T08:05:45.145Z</time></trkpt><trkpt lat="46.1504517" lon="9.5219732"><ele>230.71428571428567</ele><time>2026-04-23T08:05:51.145Z</time></trkpt><trkpt lat="46.1504408" lon="9.5220833"><ele>231.42857142857142</ele><time>2026-04-23T08:05:57.144Z</time></trkpt><trkpt lat="46.1504449" lon="9.5221783"><ele>232.1428571428571</ele><time>2026-04-23T08:06:02.145Z</time></trkpt><trkpt lat="46.1504728" lon="9.522279"><ele>232.85714285714283</ele><time>2026-04-23T08:06:08.146Z</time></trkpt><trkpt lat="46.1504812" lon="9.522372"><ele>233.57142857142856</ele><time>2026-04-23T08:06:13.144Z</time></trkpt><trkpt lat="46.1504675" lon="9.5224733"><ele>234.28571428571428</ele><time>2026-04-23T08:06:18.146Z</time></trkpt><trkpt lat="46.1504498" lon="9.5225702"><ele>235.0</ele><time>2026-04-23T08:06:23.146Z</time></trkpt><trkpt lat="46.1504364" lon="9.5226931"><ele>235.0</ele><time>2026-04-23T08:06:28.145Z</time></trkpt><trkpt lat="46.1504182" lon="9.5227886"><ele>235.0</ele><time>2026-04-23T08:06:30.146Z</time></trkpt><trkpt lat="46.1503933" lon="9.5229169"><ele>235.0</ele><time>2026-04-23T08:06:32.145Z</time></trkpt><trkpt lat="46.1503893" lon="9.5230807"><ele>235.0</ele><time>2026-04-23T08:06:34.145Z</time></trkpt><trkpt lat="46.1503916" lon="9.5231826"><ele>235.0</ele><time>2026-04-23T08:06:35.146Z</time></trkpt><trkpt lat="46.150385" lon="9.5233491"><ele>235.16666666666666</ele><time>2026-04-23T08:06:37.145Z</time></trkpt><trkpt lat="46.1503846" lon="9.5235151"><ele>235.33333333333331</ele><time>2026-04-23T08:06:39.146Z</time></trkpt><trkpt lat="46.1504028" lon="9.5236484"><ele>235.5</ele><time>2026-04-23T08:06:41.146Z</time></trkpt><trkpt lat="46.150431" lon="9.5237357"><ele>235.66666666666669</ele><time>2026-04-23T08:06:42.145Z</time></trkpt><trkpt lat="46.1504314" lon="9.5238521"><ele>235.83333333333334</ele><time>2026-04-23T08:06:47.146Z</time></trkpt><trkpt lat="46.1504209" lon="9.5239622"><ele>236.0</ele><time>2026-04-23T08:06:53.145Z</time></trkpt><trkpt lat="46.1503842" lon="9.524066"><ele>236.85714285714283</ele><time>2026-04-23T08:06:58.146Z</time></trkpt><trkpt lat="46.1503653" lon="9.5241625"><ele>237.71428571428572</ele><time>2026-04-23T08:07:01.147Z</time></trkpt><trkpt lat="46.1503538" lon="9.5242692"><ele>238.57142857142856</ele><time>2026-04-23T08:07:04.146Z</time></trkpt><trkpt lat="46.1503149" lon="9.5243416"><ele>239.42857142857142</ele><time>2026-04-23T08:07:08.147Z</time></trkpt><trkpt lat="46.1503094" lon="9.5244357"><ele>240.28571428571428</ele><time>2026-04-23T08:07:12.146Z</time></trkpt><trkpt lat="46.1502954" lon="9.524527"><ele>241.14285714285714</ele><time>2026-04-23T08:07:15.145Z</time></trkpt><trkpt lat="46.1502886" lon="9.5246276"><ele>242.0</ele><time>2026-04-23T08:07:18.146Z</time></trkpt><trkpt lat="46.1502464" lon="9.524713"><ele>242.85714285714283</ele><time>2026-04-23T08:07:21.146Z</time></trkpt><trkpt lat="46.1502161" lon="9.5248105"><ele>243.7142857142857</ele><time>2026-04-23T08:07:24.146Z</time></trkpt><trkpt lat="46.1502114" lon="9.5249085"><ele>244.57142857142856</ele><time>2026-04-23T08:07:27.146Z</time></trkpt><trkpt lat="46.150216" lon="9.5250087"><ele>245.42857142857144</ele><time>2026-04-23T08:07:30.145Z</time></trkpt><trkpt lat="46.150206" lon="9.5251312"><ele>246.2857142857143</ele><time>2026-04-23T08:07:33.145Z</time></trkpt><trkpt lat="46.150198" lon="9.5252358"><ele>247.14285714285717</ele><time>2026-04-23T08:07:35.145Z</time></trkpt><trkpt lat="46.1501871" lon="9.5253398"><ele>248.0</ele><time>2026-04-23T08:07:37.146Z</time></trkpt><trkpt lat="46.1501672" lon="9.5254351"><ele>248.83333333333334</ele><time>2026-04-23T08:07:39.146Z</time></trkpt><trkpt lat="46.1501401" lon="9.5255525"><ele>249.66666666666669</ele><time>2026-04-23T08:07:41.145Z</time></trkpt><trkpt lat="46.1501248" lon="9.5256646"><ele>250.5</ele><time>2026-04-23T08:07:43.146Z</time></trkpt><trkpt lat="46.1500968" lon="9.5257765"><ele>251.33333333333331</ele><time>2026-04-23T08:07:46.145Z</time></trkpt><trkpt lat="46.1500525" lon="9.5258888"><ele>252.16666666666666</ele><time>2026-04-23T08:07:49.145Z</time></trkpt><trkpt lat="46.1500002" lon="9.5259779"><ele>253.0</ele><time>2026-04-23T08:07:52.145Z</time></trkpt><trkpt lat="46.1499382" lon="9.5260154"><ele>252.66666666666666</ele><time>2026-04-23T08:07:54.146Z</time></trkpt><trkpt lat="46.1498692" lon="9.5260848"><ele>252.33333333333331</ele><time>2026-04-23T08:07:57.145Z</time></trkpt><trkpt lat="46.1498215" lon="9.5261584"><ele>252.0</ele><time>2026-04-23T08:08:00.147Z</time></trkpt><trkpt lat="46.1497872" lon="9.5262858"><ele>251.66666666666669</ele><time>2026-04-23T08:08:03.146Z</time></trkpt><trkpt lat="46.1497477" lon="9.526418"><ele>251.33333333333334</ele><time>2026-04-23T08:08:06.146Z</time></trkpt><trkpt lat="46.149693" lon="9.5265193"><ele>251.0</ele><time>2026-04-23T08:08:09.146Z</time></trkpt><trkpt lat="46.1496362" lon="9.526583"><ele>251.00000000000003</ele><time>2026-04-23T08:08:12.145Z</time></trkpt><trkpt lat="46.1495678" lon="9.5266569"><ele>251.0</ele><time>2026-04-23T08:08:16.146Z</time></trkpt><trkpt lat="46.1495203" lon="9.5267554"><ele>251.0</ele><time>2026-04-23T08:08:19.146Z</time></trkpt><trkpt lat="46.1494582" lon="9.5268342"><ele>251.0</ele><time>2026-04-23T08:08:22.146Z</time></trkpt><trkpt lat="46.1494158" lon="9.5269128"><ele>251.00000000000003</ele><time>2026-04-23T08:08:25.145Z</time></trkpt><trkpt lat="46.1493996" lon="9.5270282"><ele>251.0</ele><time>2026-04-23T08:08:28.146Z</time></trkpt><trkpt lat="46.1493622" lon="9.5271067"><ele>251.28571428571425</ele><time>2026-04-23T08:08:31.146Z</time></trkpt><trkpt lat="46.1493412" lon="9.5271946"><ele>251.57142857142856</ele><time>2026-04-23T08:08:34.146Z</time></trkpt><trkpt lat="46.1493358" lon="9.5273121"><ele>251.85714285714286</ele><time>2026-04-23T08:08:38.145Z</time></trkpt><trkpt lat="46.1493111" lon="9.5274182"><ele>252.14285714285714</ele><time>2026-04-23T08:08:43.146Z</time></trkpt><trkpt lat="46.1493058" lon="9.527522"><ele>252.42857142857144</ele><time>2026-04-23T08:08:47.146Z</time></trkpt><trkpt lat="46.1493464" lon="9.527601"><ele>252.71428571428575</ele><time>2026-04-23T08:08:51.145Z</time></trkpt><trkpt lat="46.1493723" lon="9.5276893"><ele>253.00000000000003</ele><time>2026-04-23T08:08:55.145Z</time></trkpt><trkpt lat="46.1493887" lon="9.5277901"><ele>253.00000000000003</ele><time>2026-04-23T08:08:59.145Z</time></trkpt><trkpt lat="46.1494166" lon="9.5278926"><ele>253.0</ele><time>2026-04-23T08:09:03.146Z</time></trkpt><trkpt lat="46.1494395" lon="9.5280016"><ele>253.00000000000003</ele><time>2026-04-23T08:09:07.147Z</time></trkpt><trkpt lat="46.1494459" lon="9.5281047"><ele>253.00000000000003</ele><time>2026-04-23T08:09:11.146Z</time></trkpt><trkpt lat="46.1494585" lon="9.5281962"><ele>253.0</ele><time>2026-04-23T08:09:15.146Z</time></trkpt><trkpt lat="46.1494539" lon="9.5282887"><ele>253.00000000000003</ele><time>2026-04-23T08:09:20.146Z</time></trkpt><trkpt lat="46.1494455" lon="9.5283932"><ele>253.00000000000003</ele><time>2026-04-23T08:09:24.146Z</time></trkpt><trkpt lat="46.1494266" lon="9.528499"><ele>253.71428571428575</ele><time>2026-04-23T08:09:28.146Z</time></trkpt><trkpt lat="46.1494272" lon="9.5286096"><ele>254.42857142857144</ele><time>2026-04-23T08:09:32.146Z</time></trkpt><trkpt lat="46.1494205" lon="9.5287254"><ele>255.14285714285714</ele><time>2026-04-23T08:09:36.146Z</time></trkpt><trkpt lat="46.1494221" lon="9.5288304"><ele>255.85714285714286</ele><time>2026-04-23T08:09:40.146Z</time></trkpt><trkpt lat="46.1494314" lon="9.5289211"><ele>256.57142857142856</ele><time>2026-04-23T08:09:44.147Z</time></trkpt><trkpt lat="46.1494372" lon="9.5290205"><ele>257.2857142857143</ele><time>2026-04-23T08:09:48.146Z</time></trkpt><trkpt lat="46.1494545" lon="9.529131"><ele>258.0</ele><time>2026-04-23T08:09:51.147Z</time></trkpt><trkpt lat="46.1494584" lon="9.5292433"><ele>258.1666666666667</ele><time>2026-04-23T08:09:54.145Z</time></trkpt><trkpt lat="46.1494238" lon="9.529342"><ele>258.3333333333333</ele><time>2026-04-23T08:09:59.147Z</time></trkpt><trkpt lat="46.149357" lon="9.5293869"><ele>258.5</ele><time>2026-04-23T08:10:01.146Z</time></trkpt><trkpt lat="46.1492453" lon="9.5294285"><ele>258.66666666666663</ele><time>2026-04-23T08:10:03.145Z</time></trkpt><trkpt lat="46.1491669" lon="9.5294413"><ele>258.8333333333333</ele><time>2026-04-23T08:10:04.146Z</time></trkpt><trkpt lat="46.1490766" lon="9.5294617"><ele>259.0</ele><time>2026-04-23T08:10:05.145Z</time></trkpt><trkpt lat="46.1489832" lon="9.5294841"><ele>255.75</ele><time>2026-04-23T08:10:06.145Z</time></trkpt><trkpt lat="46.1488736" lon="9.5295149"><ele>252.5</ele><time>2026-04-23T08:10:07.146Z</time></trkpt><trkpt lat="46.1487618" lon="9.5295453"><ele>249.25</ele><time>2026-04-23T08:10:08.146Z</time></trkpt><trkpt lat="46.1486416" lon="9.5295848"><ele>246.0</ele><time>2026-04-23T08:10:09.146Z</time></trkpt><trkpt lat="46.148532" lon="9.5296072"><ele>245.83333333333334</ele><time>2026-04-23T08:10:10.145Z</time></trkpt><trkpt lat="46.1484259" lon="9.5296385"><ele>245.66666666666669</ele><time>2026-04-23T08:10:11.145Z</time></trkpt><trkpt lat="46.1483361" lon="9.5296598"><ele>245.5</ele><time>2026-04-23T08:10:12.145Z</time></trkpt><trkpt lat="46.1482551" lon="9.5296855"><ele>245.33333333333334</ele><time>2026-04-23T08:10:13.147Z</time></trkpt><trkpt lat="46.1481776" lon="9.5296985"><ele>245.16666666666669</ele><time>2026-04-23T08:10:14.145Z</time></trkpt><trkpt lat="46.1480963" lon="9.5297231"><ele>245.0</ele><time>2026-04-23T08:10:15.146Z</time></trkpt><trkpt lat="46.1480222" lon="9.5297387"><ele>243.50000000000003</ele><time>2026-04-23T08:10:16.146Z</time></trkpt><trkpt lat="46.1479468" lon="9.5297595"><ele>242.0</ele><time>2026-04-23T08:10:17.147Z</time></trkpt><trkpt lat="46.1478757" lon="9.5297725"><ele>240.5</ele><time>2026-04-23T08:10:18.145Z</time></trkpt><trkpt lat="46.1478058" lon="9.5297931"><ele>239.0</ele><time>2026-04-23T08:10:19.145Z</time></trkpt><trkpt lat="46.1477395" lon="9.5298083"><ele>237.50000000000003</ele><time>2026-04-23T08:10:20.146Z</time></trkpt><trkpt lat="46.1476737" lon="9.5298286"><ele>236.0</ele><time>2026-04-23T08:10:21.146Z</time></trkpt><trkpt lat="46.14758" lon="9.5298935"><ele>236.0</ele><time>2026-04-23T08:10:23.146Z</time></trkpt><trkpt lat="46.1474819" lon="9.5299197"><ele>236.00000000000003</ele><time>2026-04-23T08:10:25.147Z</time></trkpt><trkpt lat="46.1473862" lon="9.5299061"><ele>236.00000000000003</ele><time>2026-04-23T08:10:27.145Z</time></trkpt><trkpt lat="46.1473239" lon="9.529944"><ele>236.0</ele><time>2026-04-23T08:10:29.146Z</time></trkpt><trkpt lat="46.1473108" lon="9.5300592"><ele>236.0</ele><time>2026-04-23T08:10:31.147Z</time></trkpt><trkpt lat="46.1473293" lon="9.5302094"><ele>234.66666666666669</ele><time>2026-04-23T08:10:33.146Z</time></trkpt><trkpt lat="46.1473325" lon="9.530367"><ele>233.33333333333334</ele><time>2026-04-23T08:10:35.146Z</time></trkpt><trkpt lat="46.1473364" lon="9.5304762"><ele>232.0</ele><time>2026-04-23T08:10:36.148Z</time></trkpt><trkpt lat="46.1473453" lon="9.53057"><ele>230.66666666666669</ele><time>2026-04-23T08:10:37.147Z</time></trkpt><trkpt lat="46.1473529" lon="9.5306722"><ele>229.33333333333334</ele><time>2026-04-23T08:10:38.146Z</time></trkpt><trkpt lat="46.1473625" lon="9.5307721"><ele>228.0</ele><time>2026-04-23T08:10:39.146Z</time></trkpt><trkpt lat="46.1473737" lon="9.5308764"><ele>228.16666666666666</ele><time>2026-04-23T08:10:40.146Z</time></trkpt><trkpt lat="46.1473846" lon="9.5309822"><ele>228.33333333333331</ele><time>2026-04-23T08:10:41.146Z</time></trkpt><trkpt lat="46.1474003" lon="9.5310909"><ele>228.5</ele><time>2026-04-23T08:10:42.147Z</time></trkpt><trkpt lat="46.1474234" lon="9.5311938"><ele>228.66666666666666</ele><time>2026-04-23T08:10:43.145Z</time></trkpt><trkpt lat="46.1474417" lon="9.5312901"><ele>228.83333333333331</ele><time>2026-04-23T08:10:44.147Z</time></trkpt><trkpt lat="46.1474809" lon="9.5314654"><ele>229.0</ele><time>2026-04-23T08:10:46.146Z</time></trkpt><trkpt lat="46.1475161" lon="9.5316349"><ele>228.99999999999997</ele><time>2026-04-23T08:10:48.146Z</time></trkpt><trkpt lat="46.1475262" lon="9.5317259"><ele>229.0</ele><time>2026-04-23T08:10:49.146Z</time></trkpt><trkpt lat="46.1475527" lon="9.5319067"><ele>229.0</ele><time>2026-04-23T08:10:51.145Z</time></trkpt><trkpt lat="46.1475601" lon="9.532002"><ele>229.0</ele><time>2026-04-23T08:10:52.145Z</time></trkpt><trkpt lat="46.1475615" lon="9.5321002"><ele>228.99999999999997</ele><time>2026-04-23T08:10:53.147Z</time></trkpt><trkpt lat="46.1475587" lon="9.5322678"><ele>229.0</ele><time>2026-04-23T08:10:55.147Z</time></trkpt><trkpt lat="46.14754" lon="9.5323615"><ele>228.49999999999997</ele><time>2026-04-23T08:10:56.146Z</time></trkpt><trkpt lat="46.1475183" lon="9.532457"><ele>228.0</ele><time>2026-04-23T08:10:57.145Z</time></trkpt><trkpt lat="46.1474635" lon="9.5326496"><ele>227.5</ele><time>2026-04-23T08:10:59.146Z</time></trkpt><trkpt lat="46.1474416" lon="9.5327477"><ele>227.0</ele><time>2026-04-23T08:11:00.146Z</time></trkpt><trkpt lat="46.1474194" lon="9.5328456"><ele>226.49999999999997</ele><time>2026-04-23T08:11:01.147Z</time></trkpt><trkpt lat="46.1474056" lon="9.5329383"><ele>226.0</ele><time>2026-04-23T08:11:02.146Z</time></trkpt><trkpt lat="46.147385" lon="9.5330402"><ele>224.71428571428572</ele><time>2026-04-23T08:11:03.147Z</time></trkpt><trkpt lat="46.1473736" lon="9.5331316"><ele>223.42857142857142</ele><time>2026-04-23T08:11:04.147Z</time></trkpt><trkpt lat="46.1473603" lon="9.5332361"><ele>222.14285714285714</ele><time>2026-04-23T08:11:05.146Z</time></trkpt><trkpt lat="46.1473517" lon="9.5333302"><ele>220.85714285714286</ele><time>2026-04-23T08:11:06.146Z</time></trkpt><trkpt lat="46.1473397" lon="9.5334335"><ele>219.57142857142856</ele><time>2026-04-23T08:11:07.145Z</time></trkpt><trkpt lat="46.1473262" lon="9.5335375"><ele>218.28571428571428</ele><time>2026-04-23T08:11:08.146Z</time></trkpt><trkpt lat="46.1473121" lon="9.5336424"><ele>217.0</ele><time>2026-04-23T08:11:09.146Z</time></trkpt><trkpt lat="46.1473002" lon="9.5337322"><ele>216.8</ele><time>2026-04-23T08:11:10.147Z</time></trkpt><trkpt lat="46.1472824" lon="9.5338254"><ele>216.6</ele><time>2026-04-23T08:11:11.146Z</time></trkpt><trkpt lat="46.1472662" lon="9.5339173"><ele>216.40000000000003</ele><time>2026-04-23T08:11:12.146Z</time></trkpt><trkpt lat="46.1472514" lon="9.5340673"><ele>216.20000000000002</ele><time>2026-04-23T08:11:14.147Z</time></trkpt><trkpt lat="46.1472238" lon="9.534211"><ele>216.0</ele><time>2026-04-23T08:11:16.146Z</time></trkpt><trkpt lat="46.1471832" lon="9.5343683"><ele>216.0</ele><time>2026-04-23T08:11:18.146Z</time></trkpt><trkpt lat="46.1471323" lon="9.534523"><ele>216.00000000000003</ele><time>2026-04-23T08:11:20.147Z</time></trkpt><trkpt lat="46.1470677" lon="9.5346691"><ele>216.00000000000003</ele><time>2026-04-23T08:11:22.147Z</time></trkpt><trkpt lat="46.1470109" lon="9.5348244"><ele>216.0</ele><time>2026-04-23T08:11:24.147Z</time></trkpt><trkpt lat="46.1469745" lon="9.5349068"><ele>216.0</ele><time>2026-04-23T08:11:25.146Z</time></trkpt><trkpt lat="46.1469422" lon="9.5349885"><ele>215.8</ele><time>2026-04-23T08:11:26.146Z</time></trkpt><trkpt lat="46.1469053" lon="9.535092"><ele>215.60000000000002</ele><time>2026-04-23T08:11:27.146Z</time></trkpt><trkpt lat="46.146849" lon="9.5352534"><ele>215.4</ele><time>2026-04-23T08:11:29.147Z</time></trkpt><trkpt lat="46.1468169" lon="9.5353322"><ele>215.2</ele><time>2026-04-23T08:11:30.146Z</time></trkpt><trkpt lat="46.1467663" lon="9.5354964"><ele>215.0</ele><time>2026-04-23T08:11:32.147Z</time></trkpt><trkpt lat="46.1467171" lon="9.5356664"><ele>214.8</ele><time>2026-04-23T08:11:34.146Z</time></trkpt><trkpt lat="46.1466791" lon="9.5358282"><ele>214.6</ele><time>2026-04-23T08:11:36.145Z</time></trkpt><trkpt lat="46.1466548" lon="9.5359148"><ele>214.39999999999998</ele><time>2026-04-23T08:11:37.145Z</time></trkpt><trkpt lat="46.1466143" lon="9.5360779"><ele>214.2</ele><time>2026-04-23T08:11:39.145Z</time></trkpt><trkpt lat="46.1465659" lon="9.5362412"><ele>214.0</ele><time>2026-04-23T08:11:41.146Z</time></trkpt><trkpt lat="46.1465396" lon="9.5363259"><ele>214.00000000000003</ele><time>2026-04-23T08:11:42.145Z</time></trkpt><trkpt lat="46.1465096" lon="9.5364096"><ele>214.0</ele><time>2026-04-23T08:11:43.148Z</time></trkpt><trkpt lat="46.1464777" lon="9.5364998"><ele>214.0</ele><time>2026-04-23T08:11:44.146Z</time></trkpt><trkpt lat="46.1464433" lon="9.5365822"><ele>214.0</ele><time>2026-04-23T08:11:45.145Z</time></trkpt><trkpt lat="46.1464106" lon="9.5366644"><ele>214.0</ele><time>2026-04-23T08:11:46.146Z</time></trkpt><trkpt lat="46.1463821" lon="9.5367577"><ele>214.00000000000003</ele><time>2026-04-23T08:11:47.145Z</time></trkpt><trkpt lat="46.1463442" lon="9.5368474"><ele>214.0</ele><time>2026-04-23T08:11:48.146Z</time></trkpt><trkpt lat="46.1463039" lon="9.5369465"><ele>213.99999999999997</ele><time>2026-04-23T08:11:49.147Z</time></trkpt><trkpt lat="46.1462733" lon="9.5370339"><ele>214.0</ele><time>2026-04-23T08:11:50.146Z</time></trkpt><trkpt lat="46.1462444" lon="9.5371149"><ele>214.0</ele><time>2026-04-23T08:11:51.147Z</time></trkpt><trkpt lat="46.1461975" lon="9.5372895"><ele>214.0</ele><time>2026-04-23T08:11:53.146Z</time></trkpt><trkpt lat="46.1461761" lon="9.5373829"><ele>213.99999999999997</ele><time>2026-04-23T08:11:54.146Z</time></trkpt><trkpt lat="46.1461637" lon="9.5374739"><ele>214.0</ele><time>2026-04-23T08:11:55.145Z</time></trkpt><trkpt lat="46.1461434" lon="9.5375665"><ele>214.25</ele><time>2026-04-23T08:11:56.147Z</time></trkpt><trkpt lat="46.1461044" lon="9.5377345"><ele>214.5</ele><time>2026-04-23T08:11:58.146Z</time></trkpt><trkpt lat="46.1460489" lon="9.5378904"><ele>214.75</ele><time>2026-04-23T08:12:00.145Z</time></trkpt><trkpt lat="46.1459897" lon="9.5380365"><ele>215.0</ele><time>2026-04-23T08:12:02.146Z</time></trkpt><trkpt lat="46.1459333" lon="9.5381875"><ele>215.0</ele><time>2026-04-23T08:12:04.147Z</time></trkpt><trkpt lat="46.1458855" lon="9.5383378"><ele>215.0</ele><time>2026-04-23T08:12:06.147Z</time></trkpt><trkpt lat="46.1458273" lon="9.5384762"><ele>215.0</ele><time>2026-04-23T08:12:08.147Z</time></trkpt><trkpt lat="46.1457723" lon="9.5386209"><ele>215.0</ele><time>2026-04-23T08:12:10.146Z</time></trkpt><trkpt lat="46.1457272" lon="9.5387753"><ele>214.6</ele><time>2026-04-23T08:12:12.145Z</time></trkpt><trkpt lat="46.1456725" lon="9.5389246"><ele>214.2</ele><time>2026-04-23T08:12:14.145Z</time></trkpt><trkpt lat="46.1456173" lon="9.5390847"><ele>213.8</ele><time>2026-04-23T08:12:16.146Z</time></trkpt><trkpt lat="46.1455836" lon="9.5391639"><ele>213.4</ele><time>2026-04-23T08:12:17.146Z</time></trkpt><trkpt lat="46.1455467" lon="9.5393293"><ele>213.0</ele><time>2026-04-23T08:12:19.147Z</time></trkpt><trkpt lat="46.1455145" lon="9.5394212"><ele>213.0</ele><time>2026-04-23T08:12:20.147Z</time></trkpt><trkpt lat="46.1454946" lon="9.5395104"><ele>213.0</ele><time>2026-04-23T08:12:21.147Z</time></trkpt><trkpt lat="46.1454617" lon="9.5396668"><ele>213.0</ele><time>2026-04-23T08:12:23.147Z</time></trkpt><trkpt lat="46.1454439" lon="9.5398362"><ele>213.0</ele><time>2026-04-23T08:12:25.146Z</time></trkpt><trkpt lat="46.145409" lon="9.5399993"><ele>213.0</ele><time>2026-04-23T08:12:27.147Z</time></trkpt><trkpt lat="46.145382" lon="9.5401391"><ele>213.0</ele><time>2026-04-23T08:12:29.146Z</time></trkpt><trkpt lat="46.1453529" lon="9.5402907"><ele>213.0</ele><time>2026-04-23T08:12:31.146Z</time></trkpt><trkpt lat="46.1453204" lon="9.5404467"><ele>213.0</ele><time>2026-04-23T08:12:33.146Z</time></trkpt><trkpt lat="46.1452909" lon="9.540598"><ele>213.0</ele><time>2026-04-23T08:12:35.146Z</time></trkpt><trkpt lat="46.1452651" lon="9.5406809"><ele>213.0</ele><time>2026-04-23T08:12:36.145Z</time></trkpt><trkpt lat="46.145226" lon="9.5408303"><ele>213.0</ele><time>2026-04-23T08:12:38.146Z</time></trkpt><trkpt lat="46.1451951" lon="9.5409812"><ele>213.0</ele><time>2026-04-23T08:12:40.146Z</time></trkpt><trkpt lat="46.1451478" lon="9.5411265"><ele>213.0</ele><time>2026-04-23T08:12:42.145Z</time></trkpt><trkpt lat="46.1450941" lon="9.5412675"><ele>213.0</ele><time>2026-04-23T08:12:44.146Z</time></trkpt><trkpt lat="46.1450568" lon="9.5413433"><ele>213.0</ele><time>2026-04-23T08:12:45.146Z</time></trkpt><trkpt lat="46.1450051" lon="9.5414899"><ele>213.25</ele><time>2026-04-23T08:12:47.147Z</time></trkpt><trkpt lat="46.1449409" lon="9.5416343"><ele>213.5</ele><time>2026-04-23T08:12:49.145Z</time></trkpt><trkpt lat="46.1448885" lon="9.541776"><ele>213.75</ele><time>2026-04-23T08:12:51.145Z</time></trkpt><trkpt lat="46.1448221" lon="9.5419162"><ele>214.0</ele><time>2026-04-23T08:12:53.147Z</time></trkpt><trkpt lat="46.1447654" lon="9.5420426"><ele>214.39999999999998</ele><time>2026-04-23T08:12:55.146Z</time></trkpt><trkpt lat="46.1447197" lon="9.5421633"><ele>214.79999999999998</ele><time>2026-04-23T08:12:57.147Z</time></trkpt><trkpt lat="46.1446558" lon="9.5422759"><ele>215.20000000000002</ele><time>2026-04-23T08:12:59.147Z</time></trkpt><trkpt lat="46.1445913" lon="9.5423907"><ele>215.60000000000002</ele><time>2026-04-23T08:13:01.146Z</time></trkpt><trkpt lat="46.1445394" lon="9.5424941"><ele>216.0</ele><time>2026-04-23T08:13:03.147Z</time></trkpt><trkpt lat="46.1444918" lon="9.5425795"><ele>216.0</ele><time>2026-04-23T08:13:05.146Z</time></trkpt><trkpt lat="46.1444248" lon="9.5426409"><ele>216.0</ele><time>2026-04-23T08:13:07.146Z</time></trkpt><trkpt lat="46.1443473" lon="9.5426571"><ele>216.0</ele><time>2026-04-23T08:13:09.146Z</time></trkpt><trkpt lat="46.1442673" lon="9.5426662"><ele>216.0</ele><time>2026-04-23T08:13:11.146Z</time></trkpt><trkpt lat="46.1441891" lon="9.5426614"><ele>216.0</ele><time>2026-04-23T08:13:13.145Z</time></trkpt><trkpt lat="46.1441187" lon="9.5426419"><ele>216.0</ele><time>2026-04-23T08:13:15.147Z</time></trkpt><trkpt lat="46.14404" lon="9.5426055"><ele>216.20000000000002</ele><time>2026-04-23T08:13:17.147Z</time></trkpt><trkpt lat="46.1439792" lon="9.5425203"><ele>216.40000000000003</ele><time>2026-04-23T08:13:19.147Z</time></trkpt><trkpt lat="46.1438929" lon="9.5424636"><ele>216.6</ele><time>2026-04-23T08:13:21.147Z</time></trkpt><trkpt lat="46.1437906" lon="9.5424578"><ele>216.8</ele><time>2026-04-23T08:13:23.147Z</time></trkpt><trkpt lat="46.1436918" lon="9.5424406"><ele>217.0</ele><time>2026-04-23T08:13:25.146Z</time></trkpt><trkpt lat="46.1435755" lon="9.5423908"><ele>217.0</ele><time>2026-04-23T08:13:27.147Z</time></trkpt><trkpt lat="46.1435121" lon="9.5423599"><ele>217.0</ele><time>2026-04-23T08:13:28.147Z</time></trkpt><trkpt lat="46.1434034" lon="9.542321"><ele>217.0</ele><time>2026-04-23T08:13:30.146Z</time></trkpt><trkpt lat="46.1432978" lon="9.5423661"><ele>217.0</ele><time>2026-04-23T08:13:32.146Z</time></trkpt><trkpt lat="46.1431742" lon="9.5424023"><ele>217.0</ele><time>2026-04-23T08:13:34.146Z</time></trkpt><trkpt lat="46.1430591" lon="9.5424344"><ele>216.5</ele><time>2026-04-23T08:13:36.147Z</time></trkpt><trkpt lat="46.1429385" lon="9.5424765"><ele>216.0</ele><time>2026-04-23T08:13:38.146Z</time></trkpt><trkpt lat="46.1428271" lon="9.5425334"><ele>215.5</ele><time>2026-04-23T08:13:40.147Z</time></trkpt><trkpt lat="46.1427143" lon="9.5425617"><ele>215.0</ele><time>2026-04-23T08:13:42.146Z</time></trkpt><trkpt lat="46.1426034" lon="9.5426051"><ele>215.0</ele><time>2026-04-23T08:13:44.146Z</time></trkpt><trkpt lat="46.1424958" lon="9.5426518"><ele>215.0</ele><time>2026-04-23T08:13:46.146Z</time></trkpt><trkpt lat="46.1424176" lon="9.542742"><ele>215.0</ele><time>2026-04-23T08:13:48.147Z</time></trkpt><trkpt lat="46.1423764" lon="9.5428757"><ele>215.0</ele><time>2026-04-23T08:13:50.147Z</time></trkpt><trkpt lat="46.142373" lon="9.5430176"><ele>215.0</ele><time>2026-04-23T08:13:52.147Z</time></trkpt><trkpt lat="46.1423922" lon="9.5431694"><ele>215.25</ele><time>2026-04-23T08:13:54.147Z</time></trkpt><trkpt lat="46.1424053" lon="9.5433334"><ele>215.5</ele><time>2026-04-23T08:13:56.147Z</time></trkpt><trkpt lat="46.1424088" lon="9.5434878"><ele>215.75</ele><time>2026-04-23T08:13:58.146Z</time></trkpt><trkpt lat="46.1424207" lon="9.5436549"><ele>216.0</ele><time>2026-04-23T08:14:00.146Z</time></trkpt><trkpt lat="46.1424384" lon="9.5438147"><ele>215.8</ele><time>2026-04-23T08:14:02.147Z</time></trkpt><trkpt lat="46.1424551" lon="9.543969"><ele>215.60000000000002</ele><time>2026-04-23T08:14:04.146Z</time></trkpt><trkpt lat="46.1424793" lon="9.5441191"><ele>215.4</ele><time>2026-04-23T08:14:06.146Z</time></trkpt><trkpt lat="46.1425049" lon="9.5442696"><ele>215.2</ele><time>2026-04-23T08:14:08.147Z</time></trkpt><trkpt lat="46.1425412" lon="9.5444141"><ele>215.0</ele><time>2026-04-23T08:14:10.147Z</time></trkpt><trkpt lat="46.142575" lon="9.5445604"><ele>215.0</ele><time>2026-04-23T08:14:12.147Z</time></trkpt><trkpt lat="46.1426003" lon="9.5447144"><ele>215.0</ele><time>2026-04-23T08:14:14.147Z</time></trkpt><trkpt lat="46.1426116" lon="9.5448666"><ele>215.0</ele><time>2026-04-23T08:14:16.146Z</time></trkpt><trkpt lat="46.1426407" lon="9.5450242"><ele>215.0</ele><time>2026-04-23T08:14:18.147Z</time></trkpt><trkpt lat="46.1426718" lon="9.5451824"><ele>215.0</ele><time>2026-04-23T08:14:20.146Z</time></trkpt><trkpt lat="46.1426989" lon="9.545337"><ele>215.25</ele><time>2026-04-23T08:14:22.147Z</time></trkpt><trkpt lat="46.1427261" lon="9.5454986"><ele>215.5</ele><time>2026-04-23T08:14:24.148Z</time></trkpt><trkpt lat="46.1427444" lon="9.5456571"><ele>215.75</ele><time>2026-04-23T08:14:26.146Z</time></trkpt><trkpt lat="46.1427677" lon="9.5458086"><ele>216.0</ele><time>2026-04-23T08:14:28.146Z</time></trkpt><trkpt lat="46.1427946" lon="9.5459782"><ele>216.0</ele><time>2026-04-23T08:14:30.146Z</time></trkpt><trkpt lat="46.1428148" lon="9.5460644"><ele>216.00000000000003</ele><time>2026-04-23T08:14:31.147Z</time></trkpt><trkpt lat="46.1428407" lon="9.5462306"><ele>216.00000000000003</ele><time>2026-04-23T08:14:33.147Z</time></trkpt><trkpt lat="46.1428735" lon="9.5464008"><ele>216.0</ele><time>2026-04-23T08:14:35.147Z</time></trkpt><trkpt lat="46.1428747" lon="9.546492"><ele>216.0</ele><time>2026-04-23T08:14:36.146Z</time></trkpt><trkpt lat="46.1428729" lon="9.5466577"><ele>216.0</ele><time>2026-04-23T08:14:38.147Z</time></trkpt><trkpt lat="46.1428549" lon="9.5468223"><ele>216.00000000000003</ele><time>2026-04-23T08:14:40.147Z</time></trkpt><trkpt lat="46.1428326" lon="9.5469818"><ele>216.00000000000003</ele><time>2026-04-23T08:14:42.147Z</time></trkpt><trkpt lat="46.1428239" lon="9.5471446"><ele>216.0</ele><time>2026-04-23T08:14:44.146Z</time></trkpt><trkpt lat="46.1428082" lon="9.5472986"><ele>216.0</ele><time>2026-04-23T08:14:46.146Z</time></trkpt><trkpt lat="46.1427956" lon="9.5474565"><ele>216.0</ele><time>2026-04-23T08:14:48.147Z</time></trkpt><trkpt lat="46.1427899" lon="9.5476246"><ele>216.00000000000003</ele><time>2026-04-23T08:14:50.148Z</time></trkpt><trkpt lat="46.1428064" lon="9.5477873"><ele>216.00000000000003</ele><time>2026-04-23T08:14:52.146Z</time></trkpt><trkpt lat="46.1428261" lon="9.5479507"><ele>216.0</ele><time>2026-04-23T08:14:54.146Z</time></trkpt><trkpt lat="46.1428398" lon="9.5480985"><ele>216.0</ele><time>2026-04-23T08:14:56.147Z</time></trkpt><trkpt lat="46.1428564" lon="9.5482494"><ele>216.4</ele><time>2026-04-23T08:14:58.146Z</time></trkpt><trkpt lat="46.1428815" lon="9.5483769"><ele>216.8</ele><time>2026-04-23T08:15:00.147Z</time></trkpt><trkpt lat="46.1429175" lon="9.5485018"><ele>217.20000000000002</ele><time>2026-04-23T08:15:02.146Z</time></trkpt><trkpt lat="46.1429705" lon="9.548637"><ele>217.60000000000002</ele><time>2026-04-23T08:15:04.147Z</time></trkpt><trkpt lat="46.1430302" lon="9.5487543"><ele>218.0</ele><time>2026-04-23T08:15:06.146Z</time></trkpt><trkpt lat="46.1430881" lon="9.5488738"><ele>218.2</ele><time>2026-04-23T08:15:08.147Z</time></trkpt><trkpt lat="46.1431535" lon="9.5489941"><ele>218.4</ele><time>2026-04-23T08:15:10.148Z</time></trkpt><trkpt lat="46.1432197" lon="9.5491102"><ele>218.59999999999997</ele><time>2026-04-23T08:15:12.146Z</time></trkpt><trkpt lat="46.1432706" lon="9.5492154"><ele>218.79999999999998</ele><time>2026-04-23T08:15:14.146Z</time></trkpt><trkpt lat="46.143332" lon="9.549336"><ele>219.0</ele><time>2026-04-23T08:15:16.148Z</time></trkpt><trkpt lat="46.1433912" lon="9.5494515"><ele>219.5</ele><time>2026-04-23T08:15:18.146Z</time></trkpt><trkpt lat="46.1434506" lon="9.5495688"><ele>220.0</ele><time>2026-04-23T08:15:20.146Z</time></trkpt><trkpt lat="46.1434878" lon="9.5496939"><ele>220.5</ele><time>2026-04-23T08:15:22.146Z</time></trkpt><trkpt lat="46.1435025" lon="9.5498097"><ele>221.0</ele><time>2026-04-23T08:15:24.147Z</time></trkpt><trkpt lat="46.1435906" lon="9.5500681"><ele>221.0</ele><time>2026-04-23T08:15:28.147Z</time></trkpt><trkpt lat="46.1436518" lon="9.5501805"><ele>221.00000000000003</ele><time>2026-04-23T08:15:30.146Z</time></trkpt><trkpt lat="46.1437197" lon="9.5502828"><ele>221.00000000000003</ele><time>2026-04-23T08:15:32.147Z</time></trkpt><trkpt lat="46.1437929" lon="9.550357"><ele>221.0</ele><time>2026-04-23T08:15:34.147Z</time></trkpt><trkpt lat="46.143863" lon="9.550421"><ele>221.0</ele><time>2026-04-23T08:15:36.147Z</time></trkpt><trkpt lat="46.1438764" lon="9.5505391"><ele>220.8</ele><time>2026-04-23T08:15:39.146Z</time></trkpt><trkpt lat="46.1438204" lon="9.5505935"><ele>220.60000000000002</ele><time>2026-04-23T08:15:41.147Z</time></trkpt><trkpt lat="46.143741" lon="9.5506579"><ele>220.4</ele><time>2026-04-23T08:15:44.148Z</time></trkpt><trkpt lat="46.1436645" lon="9.5507418"><ele>220.2</ele><time>2026-04-23T08:15:47.146Z</time></trkpt><trkpt lat="46.1435788" lon="9.5508048"><ele>220.0</ele><time>2026-04-23T08:15:49.146Z</time></trkpt><trkpt lat="46.1434902" lon="9.5508728"><ele>219.99999999999997</ele><time>2026-04-23T08:15:51.147Z</time></trkpt><trkpt lat="46.1434089" lon="9.5509337"><ele>220.0</ele><time>2026-04-23T08:15:53.147Z</time></trkpt><trkpt lat="46.1433265" lon="9.5509953"><ele>220.0</ele><time>2026-04-23T08:15:55.147Z</time></trkpt><trkpt lat="46.1432109" lon="9.5510459"><ele>220.0</ele><time>2026-04-23T08:15:57.147Z</time></trkpt><trkpt lat="46.1431466" lon="9.5510168"><ele>219.99999999999997</ele><time>2026-04-23T08:15:58.148Z</time></trkpt><trkpt lat="46.1430935" lon="9.5509629"><ele>220.0</ele><time>2026-04-23T08:15:59.147Z</time></trkpt><trkpt lat="46.143054" lon="9.5508915"><ele>220.16666666666666</ele><time>2026-04-23T08:16:00.147Z</time></trkpt><trkpt lat="46.1430151" lon="9.5508191"><ele>220.33333333333331</ele><time>2026-04-23T08:16:01.146Z</time></trkpt><trkpt lat="46.1429777" lon="9.5507458"><ele>220.5</ele><time>2026-04-23T08:16:02.148Z</time></trkpt><trkpt lat="46.1429148" lon="9.5506035"><ele>220.66666666666669</ele><time>2026-04-23T08:16:04.147Z</time></trkpt><trkpt lat="46.1428436" lon="9.5504838"><ele>220.83333333333334</ele><time>2026-04-23T08:16:06.146Z</time></trkpt><trkpt lat="46.1427999" lon="9.5504109"><ele>221.0</ele><time>2026-04-23T08:16:07.146Z</time></trkpt><trkpt lat="46.1427567" lon="9.5503412"><ele>221.66666666666669</ele><time>2026-04-23T08:16:08.146Z</time></trkpt><trkpt lat="46.1426645" lon="9.5502108"><ele>222.33333333333334</ele><time>2026-04-23T08:16:10.146Z</time></trkpt><trkpt lat="46.1426188" lon="9.5501442"><ele>223.0</ele><time>2026-04-23T08:16:11.147Z</time></trkpt><trkpt lat="46.1425296" lon="9.5500247"><ele>223.66666666666669</ele><time>2026-04-23T08:16:13.148Z</time></trkpt><trkpt lat="46.142487" lon="9.5499533"><ele>224.33333333333334</ele><time>2026-04-23T08:16:14.147Z</time></trkpt><trkpt lat="46.1424405" lon="9.5498824"><ele>225.0</ele><time>2026-04-23T08:16:15.147Z</time></trkpt><trkpt lat="46.1423974" lon="9.5498097"><ele>224.42857142857147</ele><time>2026-04-23T08:16:16.146Z</time></trkpt><trkpt lat="46.1423508" lon="9.5497358"><ele>223.85714285714286</ele><time>2026-04-23T08:16:17.147Z</time></trkpt><trkpt lat="46.1423002" lon="9.5496616"><ele>223.2857142857143</ele><time>2026-04-23T08:16:18.147Z</time></trkpt><trkpt lat="46.1422493" lon="9.5495968"><ele>222.71428571428572</ele><time>2026-04-23T08:16:19.147Z</time></trkpt><trkpt lat="46.1421955" lon="9.5495304"><ele>222.14285714285717</ele><time>2026-04-23T08:16:20.146Z</time></trkpt><trkpt lat="46.1421473" lon="9.5494626"><ele>221.57142857142858</ele><time>2026-04-23T08:16:21.147Z</time></trkpt><trkpt lat="46.142094" lon="9.5493851"><ele>221.0</ele><time>2026-04-23T08:16:22.147Z</time></trkpt><trkpt lat="46.1420457" lon="9.5493068"><ele>221.0</ele><time>2026-04-23T08:16:23.147Z</time></trkpt><trkpt lat="46.1419641" lon="9.5491703"><ele>221.00000000000003</ele><time>2026-04-23T08:16:25.147Z</time></trkpt><trkpt lat="46.1418744" lon="9.5490349"><ele>221.00000000000003</ele><time>2026-04-23T08:16:27.147Z</time></trkpt><trkpt lat="46.1417918" lon="9.54892"><ele>221.0</ele><time>2026-04-23T08:16:29.147Z</time></trkpt><trkpt lat="46.1417405" lon="9.5488662"><ele>221.0</ele><time>2026-04-23T08:16:30.147Z</time></trkpt><trkpt lat="46.1416847" lon="9.5488198"><ele>221.0</ele><time>2026-04-23T08:16:31.148Z</time></trkpt><trkpt lat="46.1416279" lon="9.5487661"><ele>221.00000000000003</ele><time>2026-04-23T08:16:32.147Z</time></trkpt><trkpt lat="46.1415985" lon="9.5486249"><ele>221.00000000000003</ele><time>2026-04-23T08:16:34.148Z</time></trkpt><trkpt lat="46.1415744" lon="9.5484901"><ele>221.0</ele><time>2026-04-23T08:16:36.147Z</time></trkpt><trkpt lat="46.1415724" lon="9.5483394"><ele>221.0</ele><time>2026-04-23T08:16:38.148Z</time></trkpt><trkpt lat="46.1415123" lon="9.5482414"><ele>220.16666666666669</ele><time>2026-04-23T08:16:40.147Z</time></trkpt><trkpt lat="46.1414271" lon="9.5482705"><ele>219.33333333333334</ele><time>2026-04-23T08:16:42.147Z</time></trkpt><trkpt lat="46.1413597" lon="9.5483182"><ele>218.5</ele><time>2026-04-23T08:16:44.147Z</time></trkpt><trkpt lat="46.1412895" lon="9.5483499"><ele>217.66666666666669</ele><time>2026-04-23T08:16:46.147Z</time></trkpt><trkpt lat="46.1412184" lon="9.5484151"><ele>216.83333333333334</ele><time>2026-04-23T08:16:49.146Z</time></trkpt><trkpt lat="46.1411386" lon="9.5484322"><ele>216.0</ele><time>2026-04-23T08:16:51.146Z</time></trkpt><trkpt lat="46.1410653" lon="9.5485171"><ele>216.0</ele><time>2026-04-23T08:16:53.148Z</time></trkpt><trkpt lat="46.1409869" lon="9.5485709"><ele>216.00000000000003</ele><time>2026-04-23T08:16:55.147Z</time></trkpt><trkpt lat="46.1408921" lon="9.5486201"><ele>216.00000000000003</ele><time>2026-04-23T08:16:57.147Z</time></trkpt><trkpt lat="46.1408377" lon="9.548527"><ele>216.0</ele><time>2026-04-23T08:16:59.148Z</time></trkpt><trkpt lat="46.1408766" lon="9.548377"><ele>216.0</ele><time>2026-04-23T08:17:01.148Z</time></trkpt><trkpt lat="46.1409024" lon="9.5482548"><ele>216.0</ele><time>2026-04-23T08:17:03.148Z</time></trkpt><trkpt lat="46.1408822" lon="9.5481241"><ele>216.00000000000003</ele><time>2026-04-23T08:17:05.148Z</time></trkpt><trkpt lat="46.1408484" lon="9.5480045"><ele>216.00000000000003</ele><time>2026-04-23T08:17:07.148Z</time></trkpt><trkpt lat="46.1408041" lon="9.5478695"><ele>216.0</ele><time>2026-04-23T08:17:09.148Z</time></trkpt><trkpt lat="46.1407448" lon="9.5477273"><ele>216.0</ele><time>2026-04-23T08:17:11.146Z</time></trkpt><trkpt lat="46.1406922" lon="9.547582"><ele>216.75</ele><time>2026-04-23T08:17:13.148Z</time></trkpt><trkpt lat="46.140632" lon="9.5474424"><ele>217.5</ele><time>2026-04-23T08:17:15.146Z</time></trkpt><trkpt lat="46.1405639" lon="9.5473026"><ele>218.25</ele><time>2026-04-23T08:17:17.146Z</time></trkpt><trkpt lat="46.1404871" lon="9.5471788"><ele>219.0</ele><time>2026-04-23T08:17:19.147Z</time></trkpt><trkpt lat="46.1404301" lon="9.5470328"><ele>219.0</ele><time>2026-04-23T08:17:21.147Z</time></trkpt><trkpt lat="46.1403872" lon="9.5468807"><ele>219.0</ele><time>2026-04-23T08:17:23.147Z</time></trkpt><trkpt lat="46.1403515" lon="9.5467346"><ele>219.0</ele><time>2026-04-23T08:17:25.148Z</time></trkpt><trkpt lat="46.1402982" lon="9.5465759"><ele>219.0</ele><time>2026-04-23T08:17:27.146Z</time></trkpt><trkpt lat="46.1402457" lon="9.5464309"><ele>219.0</ele><time>2026-04-23T08:17:29.147Z</time></trkpt><trkpt lat="46.1402041" lon="9.5462778"><ele>219.0</ele><time>2026-04-23T08:17:31.147Z</time></trkpt><trkpt lat="46.1401722" lon="9.5461216"><ele>219.0</ele><time>2026-04-23T08:17:33.149Z</time></trkpt><trkpt lat="46.140153" lon="9.5460296"><ele>219.0</ele><time>2026-04-23T08:17:34.15Z</time></trkpt><trkpt lat="46.1401311" lon="9.5459428"><ele>219.0</ele><time>2026-04-23T08:17:35.147Z</time></trkpt><trkpt lat="46.1400999" lon="9.5458569"><ele>219.0</ele><time>2026-04-23T08:17:36.147Z</time></trkpt><trkpt lat="46.1400723" lon="9.5457725"><ele>218.39999999999998</ele><time>2026-04-23T08:17:37.147Z</time></trkpt><trkpt lat="46.1400234" lon="9.5455986"><ele>217.79999999999998</ele><time>2026-04-23T08:17:39.147Z</time></trkpt><trkpt lat="46.1399879" lon="9.545432"><ele>217.20000000000002</ele><time>2026-04-23T08:17:41.147Z</time></trkpt><trkpt lat="46.1399661" lon="9.5453282"><ele>216.60000000000002</ele><time>2026-04-23T08:17:42.147Z</time></trkpt><trkpt lat="46.1399353" lon="9.5451638"><ele>216.0</ele><time>2026-04-23T08:17:44.147Z</time></trkpt><trkpt lat="46.1398951" lon="9.5449949"><ele>216.0</ele><time>2026-04-23T08:17:46.147Z</time></trkpt><trkpt lat="46.1398562" lon="9.5448315"><ele>216.0</ele><time>2026-04-23T08:17:48.149Z</time></trkpt><trkpt lat="46.1398293" lon="9.5447409"><ele>216.0</ele><time>2026-04-23T08:17:49.147Z</time></trkpt><trkpt lat="46.1398058" lon="9.5446504"><ele>216.0</ele><time>2026-04-23T08:17:50.146Z</time></trkpt><trkpt lat="46.13979" lon="9.5445622"><ele>216.0</ele><time>2026-04-23T08:17:51.147Z</time></trkpt><trkpt lat="46.139766" lon="9.5444623"><ele>216.0</ele><time>2026-04-23T08:17:52.147Z</time></trkpt><trkpt lat="46.1397461" lon="9.5443697"><ele>216.20000000000002</ele><time>2026-04-23T08:17:53.148Z</time></trkpt><trkpt lat="46.1396934" lon="9.5441928"><ele>216.40000000000003</ele><time>2026-04-23T08:17:55.15Z</time></trkpt><trkpt lat="46.1396627" lon="9.5440968"><ele>216.6</ele><time>2026-04-23T08:17:56.148Z</time></trkpt><trkpt lat="46.1396584" lon="9.5440036"><ele>216.8</ele><time>2026-04-23T08:17:57.147Z</time></trkpt><trkpt lat="46.1396381" lon="9.543915"><ele>217.0</ele><time>2026-04-23T08:17:58.148Z</time></trkpt><trkpt lat="46.1396123" lon="9.5437472"><ele>216.99999999999997</ele><time>2026-04-23T08:18:00.147Z</time></trkpt><trkpt lat="46.1395974" lon="9.5436557"><ele>217.0</ele><time>2026-04-23T08:18:01.149Z</time></trkpt><trkpt lat="46.1395578" lon="9.5434737"><ele>217.0</ele><time>2026-04-23T08:18:03.147Z</time></trkpt><trkpt lat="46.1395329" lon="9.5433776"><ele>217.0</ele><time>2026-04-23T08:18:04.149Z</time></trkpt><trkpt lat="46.1395064" lon="9.5432867"><ele>216.99999999999997</ele><time>2026-04-23T08:18:05.147Z</time></trkpt><trkpt lat="46.1394733" lon="9.543195"><ele>217.0</ele><time>2026-04-23T08:18:06.148Z</time></trkpt><trkpt lat="46.1394438" lon="9.5431092"><ele>217.0</ele><time>2026-04-23T08:18:07.147Z</time></trkpt><trkpt lat="46.1394129" lon="9.5430162"><ele>217.0</ele><time>2026-04-23T08:18:08.148Z</time></trkpt><trkpt lat="46.1393882" lon="9.542921"><ele>217.0</ele><time>2026-04-23T08:18:09.15Z</time></trkpt><trkpt lat="46.1393664" lon="9.5428281"><ele>217.0</ele><time>2026-04-23T08:18:10.149Z</time></trkpt><trkpt lat="46.1393428" lon="9.542731"><ele>217.0</ele><time>2026-04-23T08:18:11.147Z</time></trkpt><trkpt lat="46.1393125" lon="9.5426287"><ele>217.0</ele><time>2026-04-23T08:18:12.147Z</time></trkpt><trkpt lat="46.1392863" lon="9.5425375"><ele>217.0</ele><time>2026-04-23T08:18:13.147Z</time></trkpt><trkpt lat="46.1392651" lon="9.5424408"><ele>216.85714285714286</ele><time>2026-04-23T08:18:14.148Z</time></trkpt><trkpt lat="46.1392491" lon="9.5423466"><ele>216.71428571428572</ele><time>2026-04-23T08:18:15.147Z</time></trkpt><trkpt lat="46.1392347" lon="9.5422519"><ele>216.57142857142856</ele><time>2026-04-23T08:18:16.146Z</time></trkpt><trkpt lat="46.1392112" lon="9.5421577"><ele>216.42857142857144</ele><time>2026-04-23T08:18:17.147Z</time></trkpt><trkpt lat="46.1391879" lon="9.5420601"><ele>216.28571428571428</ele><time>2026-04-23T08:18:18.147Z</time></trkpt><trkpt lat="46.1391716" lon="9.5419643"><ele>216.14285714285714</ele><time>2026-04-23T08:18:19.149Z</time></trkpt><trkpt lat="46.1391469" lon="9.541869"><ele>216.0</ele><time>2026-04-23T08:18:20.148Z</time></trkpt><trkpt lat="46.1391033" lon="9.5416974"><ele>216.0</ele><time>2026-04-23T08:18:22.146Z</time></trkpt><trkpt lat="46.1390847" lon="9.5416066"><ele>216.00000000000003</ele><time>2026-04-23T08:18:23.148Z</time></trkpt><trkpt lat="46.1390636" lon="9.541515"><ele>216.00000000000003</ele><time>2026-04-23T08:18:24.148Z</time></trkpt><trkpt lat="46.1390283" lon="9.541353"><ele>216.0</ele><time>2026-04-23T08:18:26.15Z</time></trkpt><trkpt lat="46.1389934" lon="9.5411854"><ele>216.0</ele><time>2026-04-23T08:18:28.15Z</time></trkpt><trkpt lat="46.1389619" lon="9.5410239"><ele>216.0</ele><time>2026-04-23T08:18:30.151Z</time></trkpt><trkpt lat="46.1389318" lon="9.5408739"><ele>216.00000000000003</ele><time>2026-04-23T08:18:32.148Z</time></trkpt><trkpt lat="46.1388917" lon="9.5407118"><ele>216.00000000000003</ele><time>2026-04-23T08:18:34.147Z</time></trkpt><trkpt lat="46.13886" lon="9.540543"><ele>216.0</ele><time>2026-04-23T08:18:36.149Z</time></trkpt><trkpt lat="46.1388423" lon="9.5404551"><ele>216.0</ele><time>2026-04-23T08:18:37.147Z</time></trkpt><trkpt lat="46.1387796" lon="9.5403179"><ele>215.8</ele><time>2026-04-23T08:18:39.146Z</time></trkpt><trkpt lat="46.1386679" lon="9.5402799"><ele>215.60000000000002</ele><time>2026-04-23T08:18:41.148Z</time></trkpt><trkpt lat="46.138588" lon="9.5403083"><ele>215.4</ele><time>2026-04-23T08:18:44.148Z</time></trkpt><trkpt lat="46.138483" lon="9.5402643"><ele>215.2</ele><time>2026-04-23T08:18:46.148Z</time></trkpt><trkpt lat="46.1384333" lon="9.5401508"><ele>215.0</ele><time>2026-04-23T08:18:48.147Z</time></trkpt><trkpt lat="46.1384157" lon="9.540027"><ele>215.0</ele><time>2026-04-23T08:18:50.149Z</time></trkpt><trkpt lat="46.1384089" lon="9.5398864"><ele>215.0</ele><time>2026-04-23T08:18:52.147Z</time></trkpt><trkpt lat="46.1383828" lon="9.5397617"><ele>215.0</ele><time>2026-04-23T08:18:54.148Z</time></trkpt><trkpt lat="46.1383503" lon="9.5396166"><ele>215.0</ele><time>2026-04-23T08:18:56.148Z</time></trkpt><trkpt lat="46.1383474" lon="9.5394493"><ele>215.0</ele><time>2026-04-23T08:18:58.147Z</time></trkpt><trkpt lat="46.138336" lon="9.5392896"><ele>215.8</ele><time>2026-04-23T08:19:00.146Z</time></trkpt><trkpt lat="46.1383319" lon="9.539124"><ele>216.6</ele><time>2026-04-23T08:19:02.15Z</time></trkpt><trkpt lat="46.1383283" lon="9.5389565"><ele>217.39999999999998</ele><time>2026-04-23T08:19:04.148Z</time></trkpt><trkpt lat="46.1383203" lon="9.5388634"><ele>218.2</ele><time>2026-04-23T08:19:05.149Z</time></trkpt><trkpt lat="46.1383149" lon="9.5386858"><ele>219.0</ele><time>2026-04-23T08:19:07.15Z</time></trkpt><trkpt lat="46.138308" lon="9.5385949"><ele>218.79999999999998</ele><time>2026-04-23T08:19:08.149Z</time></trkpt><trkpt lat="46.1382882" lon="9.5384204"><ele>218.59999999999997</ele><time>2026-04-23T08:19:10.151Z</time></trkpt><trkpt lat="46.1382736" lon="9.5382527"><ele>218.4</ele><time>2026-04-23T08:19:12.147Z</time></trkpt><trkpt lat="46.138266" lon="9.5381618"><ele>218.2</ele><time>2026-04-23T08:19:13.148Z</time></trkpt><trkpt lat="46.1382595" lon="9.5379936"><ele>218.0</ele><time>2026-04-23T08:19:15.15Z</time></trkpt><trkpt lat="46.1382504" lon="9.5378165"><ele>218.0</ele><time>2026-04-23T08:19:17.149Z</time></trkpt><trkpt lat="46.1382327" lon="9.537637"><ele>218.0</ele><time>2026-04-23T08:19:19.149Z</time></trkpt><trkpt lat="46.138206" lon="9.5374772"><ele>218.0</ele><time>2026-04-23T08:19:21.151Z</time></trkpt><trkpt lat="46.1381901" lon="9.5372946"><ele>218.0</ele><time>2026-04-23T08:19:23.151Z</time></trkpt><trkpt lat="46.1381834" lon="9.537203"><ele>218.0</ele><time>2026-04-23T08:19:24.15Z</time></trkpt><trkpt lat="46.1381671" lon="9.5370256"><ele>217.42857142857144</ele><time>2026-04-23T08:19:26.152Z</time></trkpt><trkpt lat="46.1381611" lon="9.5369276"><ele>216.85714285714286</ele><time>2026-04-23T08:19:27.152Z</time></trkpt><trkpt lat="46.138156" lon="9.5368308"><ele>216.28571428571428</ele><time>2026-04-23T08:19:28.152Z</time></trkpt><trkpt lat="46.1381498" lon="9.5367399"><ele>215.71428571428572</ele><time>2026-04-23T08:19:29.151Z</time></trkpt><trkpt lat="46.1381431" lon="9.5366457"><ele>215.14285714285714</ele><time>2026-04-23T08:19:30.153Z</time></trkpt><trkpt lat="46.1381363" lon="9.5365472"><ele>214.57142857142858</ele><time>2026-04-23T08:19:31.149Z</time></trkpt><trkpt lat="46.1381313" lon="9.5364516"><ele>214.0</ele><time>2026-04-23T08:19:32.149Z</time></trkpt><trkpt lat="46.1381215" lon="9.5363586"><ele>214.16666666666666</ele><time>2026-04-23T08:19:33.149Z</time></trkpt><trkpt lat="46.1380931" lon="9.5361818"><ele>214.33333333333331</ele><time>2026-04-23T08:19:35.147Z</time></trkpt><trkpt lat="46.1380822" lon="9.5360814"><ele>214.5</ele><time>2026-04-23T08:19:36.152Z</time></trkpt><trkpt lat="46.1380669" lon="9.5359894"><ele>214.66666666666669</ele><time>2026-04-23T08:19:37.151Z</time></trkpt><trkpt lat="46.1380468" lon="9.5359015"><ele>214.83333333333334</ele><time>2026-04-23T08:19:38.151Z</time></trkpt><trkpt lat="46.1380329" lon="9.5358079"><ele>215.0</ele><time>2026-04-23T08:19:39.15Z</time></trkpt><trkpt lat="46.138016" lon="9.5357195"><ele>215.0</ele><time>2026-04-23T08:19:40.153Z</time></trkpt><trkpt lat="46.13798" lon="9.5355447"><ele>215.0</ele><time>2026-04-23T08:19:42.15Z</time></trkpt><trkpt lat="46.1379371" lon="9.5353881"><ele>215.0</ele><time>2026-04-23T08:19:44.153Z</time></trkpt><trkpt lat="46.1378985" lon="9.5352369"><ele>215.0</ele><time>2026-04-23T08:19:46.147Z</time></trkpt><trkpt lat="46.1378608" lon="9.5350664"><ele>215.28571428571428</ele><time>2026-04-23T08:19:48.149Z</time></trkpt><trkpt lat="46.1378385" lon="9.5349747"><ele>215.57142857142858</ele><time>2026-04-23T08:19:49.147Z</time></trkpt><trkpt lat="46.1378282" lon="9.5347997"><ele>215.85714285714286</ele><time>2026-04-23T08:19:51.154Z</time></trkpt><trkpt lat="46.1378248" lon="9.534706"><ele>216.14285714285714</ele><time>2026-04-23T08:19:52.155Z</time></trkpt><trkpt lat="46.1378291" lon="9.5346138"><ele>216.42857142857144</ele><time>2026-04-23T08:19:53.15Z</time></trkpt><trkpt lat="46.1378312" lon="9.5345197"><ele>216.71428571428572</ele><time>2026-04-23T08:19:54.15Z</time></trkpt><trkpt lat="46.1378322" lon="9.5344287"><ele>217.0</ele><time>2026-04-23T08:19:55.146Z</time></trkpt><trkpt lat="46.1378431" lon="9.534244"><ele>216.99999999999997</ele><time>2026-04-23T08:19:57.15Z</time></trkpt><trkpt lat="46.1378568" lon="9.534073"><ele>217.0</ele><time>2026-04-23T08:19:59.153Z</time></trkpt><trkpt lat="46.1378614" lon="9.5339779"><ele>217.0</ele><time>2026-04-23T08:20:00.151Z</time></trkpt><trkpt lat="46.137866" lon="9.5338807"><ele>217.0</ele><time>2026-04-23T08:20:01.153Z</time></trkpt><trkpt lat="46.1378721" lon="9.5337861"><ele>216.99999999999997</ele><time>2026-04-23T08:20:02.146Z</time></trkpt><trkpt lat="46.1378485" lon="9.5336006"><ele>217.0</ele><time>2026-04-23T08:20:04.154Z</time></trkpt><trkpt lat="46.1378583" lon="9.5334462"><ele>216.66666666666666</ele><time>2026-04-23T08:20:06.154Z</time></trkpt><trkpt lat="46.1378844" lon="9.5332721"><ele>216.33333333333331</ele><time>2026-04-23T08:20:08.155Z</time></trkpt><trkpt lat="46.1378994" lon="9.5331816"><ele>216.0</ele><time>2026-04-23T08:20:09.147Z</time></trkpt><trkpt lat="46.1379126" lon="9.5330832"><ele>215.66666666666669</ele><time>2026-04-23T08:20:10.154Z</time></trkpt><trkpt lat="46.1379118" lon="9.5329918"><ele>215.33333333333334</ele><time>2026-04-23T08:20:11.152Z</time></trkpt><trkpt lat="46.1379225" lon="9.5328975"><ele>215.0</ele><time>2026-04-23T08:20:12.156Z</time></trkpt><trkpt lat="46.1379302" lon="9.5327976"><ele>215.0</ele><time>2026-04-23T08:20:13.152Z</time></trkpt><trkpt lat="46.1379372" lon="9.5327017"><ele>215.0</ele><time>2026-04-23T08:20:14.148Z</time></trkpt><trkpt lat="46.137949" lon="9.5325217"><ele>215.0</ele><time>2026-04-23T08:20:16.149Z</time></trkpt><trkpt lat="46.1379453" lon="9.5323357"><ele>215.0</ele><time>2026-04-23T08:20:18.147Z</time></trkpt><trkpt lat="46.137968" lon="9.5321502"><ele>215.2</ele><time>2026-04-23T08:20:20.151Z</time></trkpt><trkpt lat="46.1379776" lon="9.5319894"><ele>215.4</ele><time>2026-04-23T08:20:22.148Z</time></trkpt><trkpt lat="46.1379807" lon="9.5318935"><ele>215.60000000000002</ele><time>2026-04-23T08:20:23.147Z</time></trkpt><trkpt lat="46.1379841" lon="9.5318001"><ele>215.8</ele><time>2026-04-23T08:20:24.148Z</time></trkpt><trkpt lat="46.1379871" lon="9.5316309"><ele>216.0</ele><time>2026-04-23T08:20:26.147Z</time></trkpt><trkpt lat="46.137995" lon="9.5314554"><ele>216.0</ele><time>2026-04-23T08:20:28.147Z</time></trkpt><trkpt lat="46.13801" lon="9.5313593"><ele>216.00000000000003</ele><time>2026-04-23T08:20:29.148Z</time></trkpt><trkpt lat="46.1380134" lon="9.5311994"><ele>216.00000000000003</ele><time>2026-04-23T08:20:31.148Z</time></trkpt><trkpt lat="46.1380214" lon="9.5310424"><ele>216.0</ele><time>2026-04-23T08:20:33.147Z</time></trkpt><trkpt lat="46.1380317" lon="9.5308582"><ele>216.0</ele><time>2026-04-23T08:20:35.147Z</time></trkpt><trkpt lat="46.1380318" lon="9.5307647"><ele>216.0</ele><time>2026-04-23T08:20:36.153Z</time></trkpt><trkpt lat="46.1380347" lon="9.5306654"><ele>216.0</ele><time>2026-04-23T08:20:37.147Z</time></trkpt><trkpt lat="46.1380344" lon="9.530569"><ele>216.0</ele><time>2026-04-23T08:20:38.147Z</time></trkpt><trkpt lat="46.138032" lon="9.5304727"><ele>216.0</ele><time>2026-04-23T08:20:39.148Z</time></trkpt><trkpt lat="46.1380375" lon="9.5303691"><ele>216.0</ele><time>2026-04-23T08:20:40.146Z</time></trkpt><trkpt lat="46.138046" lon="9.5302062"><ele>216.0</ele><time>2026-04-23T08:20:42.155Z</time></trkpt><trkpt lat="46.1380637" lon="9.5300502"><ele>215.60000000000002</ele><time>2026-04-23T08:20:44.147Z</time></trkpt><trkpt lat="46.1380963" lon="9.5299026"><ele>215.20000000000002</ele><time>2026-04-23T08:20:46.148Z</time></trkpt><trkpt lat="46.1381457" lon="9.5297469"><ele>214.79999999999998</ele><time>2026-04-23T08:20:48.152Z</time></trkpt><trkpt lat="46.1381708" lon="9.5295677"><ele>214.39999999999998</ele><time>2026-04-23T08:20:50.152Z</time></trkpt><trkpt lat="46.1381754" lon="9.5294754"><ele>214.0</ele><time>2026-04-23T08:20:51.147Z</time></trkpt><trkpt lat="46.1381875" lon="9.5292995"><ele>213.66666666666666</ele><time>2026-04-23T08:20:53.147Z</time></trkpt><trkpt lat="46.1381934" lon="9.5292079"><ele>213.33333333333331</ele><time>2026-04-23T08:20:54.148Z</time></trkpt><trkpt lat="46.1382032" lon="9.5290465"><ele>213.0</ele><time>2026-04-23T08:20:56.147Z</time></trkpt><trkpt lat="46.1382092" lon="9.5289024"><ele>212.66666666666669</ele><time>2026-04-23T08:20:58.147Z</time></trkpt><trkpt lat="46.1382122" lon="9.5287768"><ele>212.33333333333334</ele><time>2026-04-23T08:21:00.148Z</time></trkpt><trkpt lat="46.1382003" lon="9.5286753"><ele>212.0</ele><time>2026-04-23T08:21:02.149Z</time></trkpt><trkpt lat="46.1382065" lon="9.528561"><ele>212.0</ele><time>2026-04-23T08:21:04.149Z</time></trkpt><trkpt lat="46.1382108" lon="9.52844"><ele>212.0</ele><time>2026-04-23T08:21:06.147Z</time></trkpt><trkpt lat="46.1382145" lon="9.5283022"><ele>212.0</ele><time>2026-04-23T08:21:08.147Z</time></trkpt><trkpt lat="46.1382142" lon="9.5281545"><ele>212.0</ele><time>2026-04-23T08:21:10.148Z</time></trkpt><trkpt lat="46.1382076" lon="9.5280343"><ele>212.0</ele><time>2026-04-23T08:21:12.147Z</time></trkpt><trkpt lat="46.1382135" lon="9.527891"><ele>212.00000000000003</ele><time>2026-04-23T08:21:14.148Z</time></trkpt><trkpt lat="46.1382231" lon="9.5277637"><ele>212.0</ele><time>2026-04-23T08:21:16.147Z</time></trkpt><trkpt lat="46.1382243" lon="9.5276445"><ele>212.0</ele><time>2026-04-23T08:21:18.148Z</time></trkpt><trkpt lat="46.1382138" lon="9.5275306"><ele>212.0</ele><time>2026-04-23T08:21:20.148Z</time></trkpt><trkpt lat="46.1382138" lon="9.5274163"><ele>212.00000000000003</ele><time>2026-04-23T08:21:23.148Z</time></trkpt><trkpt lat="46.1382787" lon="9.5273555"><ele>212.0</ele><time>2026-04-23T08:21:27.148Z</time></trkpt><trkpt lat="46.1383329" lon="9.5274054"><ele>211.66666666666669</ele><time>2026-04-23T08:21:29.149Z</time></trkpt><trkpt lat="46.1384076" lon="9.5274433"><ele>211.33333333333334</ele><time>2026-04-23T08:21:31.245Z</time></trkpt><trkpt lat="46.1384914" lon="9.5274634"><ele>211.0</ele><time>2026-04-23T08:21:33.252Z</time></trkpt><trkpt lat="46.1385573" lon="9.5274607"><ele>210.66666666666669</ele><time>2026-04-23T08:21:34.62Z</time></trkpt><trkpt lat="46.1386381" lon="9.5274146"><ele>210.33333333333334</ele><time>2026-04-23T08:21:36.147Z</time></trkpt><trkpt lat="46.1387422" lon="9.5274076"><ele>210.0</ele><time>2026-04-23T08:21:38.148Z</time></trkpt><trkpt lat="46.1388406" lon="9.5274086"><ele>210.0</ele><time>2026-04-23T08:21:40.148Z</time></trkpt><trkpt lat="46.1389397" lon="9.5274114"><ele>210.0</ele><time>2026-04-23T08:21:42.148Z</time></trkpt><trkpt lat="46.1390418" lon="9.5274183"><ele>210.0</ele><time>2026-04-23T08:21:44.148Z</time></trkpt><trkpt lat="46.1391423" lon="9.5274209"><ele>210.0</ele><time>2026-04-23T08:21:46.147Z</time></trkpt><trkpt lat="46.1392448" lon="9.5274215"><ele>210.0</ele><time>2026-04-23T08:21:48.148Z</time></trkpt><trkpt lat="46.1393397" lon="9.5274247"><ele>209.83333333333334</ele><time>2026-04-23T08:21:50.147Z</time></trkpt><trkpt lat="46.1394068" lon="9.5274441"><ele>209.66666666666669</ele><time>2026-04-23T08:21:53.148Z</time></trkpt><trkpt lat="46.1394816" lon="9.5274162"><ele>209.5</ele><time>2026-04-23T08:22:11.86Z</time></trkpt><trkpt lat="46.1395451" lon="9.5274158"><ele>209.33333333333334</ele><time>2026-04-23T08:22:14.173Z</time></trkpt><trkpt lat="46.1396337" lon="9.5274234"><ele>209.16666666666669</ele><time>2026-04-23T08:22:16.148Z</time></trkpt><trkpt lat="46.1397359" lon="9.5274305"><ele>209.0</ele><time>2026-04-23T08:22:18.246Z</time></trkpt><trkpt lat="46.1398602" lon="9.527443"><ele>209.16666666666669</ele><time>2026-04-23T08:22:20.148Z</time></trkpt><trkpt lat="46.1399846" lon="9.5274468"><ele>209.33333333333334</ele><time>2026-04-23T08:22:22.147Z</time></trkpt><trkpt lat="46.1400507" lon="9.5274503"><ele>209.5</ele><time>2026-04-23T08:22:23.148Z</time></trkpt><trkpt lat="46.1401144" lon="9.5274492"><ele>209.66666666666669</ele><time>2026-04-23T08:22:24.147Z</time></trkpt><trkpt lat="46.1402403" lon="9.527453"><ele>209.83333333333334</ele><time>2026-04-23T08:22:26.148Z</time></trkpt><trkpt lat="46.140309" lon="9.5274607"><ele>210.0</ele><time>2026-04-23T08:22:27.148Z</time></trkpt><trkpt lat="46.1403739" lon="9.5274599"><ele>210.0</ele><time>2026-04-23T08:22:28.148Z</time></trkpt><trkpt lat="46.1405032" lon="9.5274626"><ele>210.0</ele><time>2026-04-23T08:22:30.147Z</time></trkpt><trkpt lat="46.1405678" lon="9.5274702"><ele>210.0</ele><time>2026-04-23T08:22:31.148Z</time></trkpt><trkpt lat="46.1406311" lon="9.5274754"><ele>210.0</ele><time>2026-04-23T08:22:32.149Z</time></trkpt><trkpt lat="46.1406966" lon="9.5274806"><ele>210.0</ele><time>2026-04-23T08:22:33.147Z</time></trkpt><trkpt lat="46.1408274" lon="9.527487"><ele>210.42857142857142</ele><time>2026-04-23T08:22:35.148Z</time></trkpt><trkpt lat="46.140894" lon="9.5274844"><ele>210.85714285714286</ele><time>2026-04-23T08:22:36.147Z</time></trkpt><trkpt lat="46.140964" lon="9.5274869"><ele>211.28571428571428</ele><time>2026-04-23T08:22:37.147Z</time></trkpt><trkpt lat="46.1410296" lon="9.5274871"><ele>211.71428571428572</ele><time>2026-04-23T08:22:38.148Z</time></trkpt><trkpt lat="46.1410967" lon="9.5274877"><ele>212.14285714285714</ele><time>2026-04-23T08:22:39.148Z</time></trkpt><trkpt lat="46.1411639" lon="9.5274888"><ele>212.57142857142856</ele><time>2026-04-23T08:22:40.147Z</time></trkpt><trkpt lat="46.1412319" lon="9.5274917"><ele>213.0</ele><time>2026-04-23T08:22:41.148Z</time></trkpt><trkpt lat="46.1412987" lon="9.5274965"><ele>213.0</ele><time>2026-04-23T08:22:42.148Z</time></trkpt><trkpt lat="46.1413634" lon="9.527506"><ele>213.0</ele><time>2026-04-23T08:22:43.147Z</time></trkpt><trkpt lat="46.1414333" lon="9.5275117"><ele>213.0</ele><time>2026-04-23T08:22:44.147Z</time></trkpt><trkpt lat="46.1415024" lon="9.5275133"><ele>213.0</ele><time>2026-04-23T08:22:45.149Z</time></trkpt><trkpt lat="46.141627" lon="9.5275259"><ele>213.0</ele><time>2026-04-23T08:22:47.148Z</time></trkpt><trkpt lat="46.1416949" lon="9.5275255"><ele>213.0</ele><time>2026-04-23T08:22:48.148Z</time></trkpt><trkpt lat="46.1417617" lon="9.5275244"><ele>212.99999999999997</ele><time>2026-04-23T08:22:49.148Z</time></trkpt><trkpt lat="46.1418273" lon="9.527526"><ele>213.0</ele><time>2026-04-23T08:22:50.149Z</time></trkpt><trkpt lat="46.1418915" lon="9.5275267"><ele>213.0</ele><time>2026-04-23T08:22:51.148Z</time></trkpt><trkpt lat="46.1419569" lon="9.5275242"><ele>213.0</ele><time>2026-04-23T08:22:52.148Z</time></trkpt><trkpt lat="46.142026" lon="9.5275217"><ele>213.0</ele><time>2026-04-23T08:22:53.149Z</time></trkpt><trkpt lat="46.1420929" lon="9.5275165"><ele>212.99999999999997</ele><time>2026-04-23T08:22:54.148Z</time></trkpt><trkpt lat="46.1421607" lon="9.5275196"><ele>213.0</ele><time>2026-04-23T08:22:55.148Z</time></trkpt><trkpt lat="46.1422255" lon="9.5275228"><ele>213.0</ele><time>2026-04-23T08:22:56.148Z</time></trkpt><trkpt lat="46.1422893" lon="9.5275257"><ele>213.0</ele><time>2026-04-23T08:22:57.146Z</time></trkpt><trkpt lat="46.1423978" lon="9.5275295"><ele>213.0</ele><time>2026-04-23T08:22:59.148Z</time></trkpt><trkpt lat="46.1425159" lon="9.5275507"><ele>213.0</ele><time>2026-04-23T08:23:01.148Z</time></trkpt><trkpt lat="46.1425788" lon="9.5275552"><ele>213.0</ele><time>2026-04-23T08:23:02.148Z</time></trkpt><trkpt lat="46.1426468" lon="9.5275569"><ele>213.0</ele><time>2026-04-23T08:23:03.15Z</time></trkpt><trkpt lat="46.1427705" lon="9.5275529"><ele>213.0</ele><time>2026-04-23T08:23:05.149Z</time></trkpt><trkpt lat="46.1428899" lon="9.527557"><ele>213.0</ele><time>2026-04-23T08:23:07.149Z</time></trkpt><trkpt lat="46.1430126" lon="9.5275611"><ele>213.0</ele><time>2026-04-23T08:23:09.148Z</time></trkpt><trkpt lat="46.143133" lon="9.5275635"><ele>213.0</ele><time>2026-04-23T08:23:11.149Z</time></trkpt><trkpt lat="46.1431965" lon="9.5275673"><ele>213.0</ele><time>2026-04-23T08:23:12.147Z</time></trkpt><trkpt lat="46.1433092" lon="9.5275689"><ele>213.0</ele><time>2026-04-23T08:23:14.148Z</time></trkpt><trkpt lat="46.1434236" lon="9.5275715"><ele>213.0</ele><time>2026-04-23T08:23:16.147Z</time></trkpt><trkpt lat="46.1435433" lon="9.5275857"><ele>213.0</ele><time>2026-04-23T08:23:18.147Z</time></trkpt><trkpt lat="46.1436079" lon="9.5275912"><ele>213.0</ele><time>2026-04-23T08:23:19.149Z</time></trkpt><trkpt lat="46.1437162" lon="9.5276002"><ele>213.0</ele><time>2026-04-23T08:23:21.149Z</time></trkpt><trkpt lat="46.143822" lon="9.5276124"><ele>213.0</ele><time>2026-04-23T08:23:23.149Z</time></trkpt><trkpt lat="46.1439224" lon="9.527614"><ele>213.0</ele><time>2026-04-23T08:23:25.147Z</time></trkpt><trkpt lat="46.1440164" lon="9.5276159"><ele>213.0</ele><time>2026-04-23T08:23:27.147Z</time></trkpt><trkpt lat="46.1441145" lon="9.5276179"><ele>213.0</ele><time>2026-04-23T08:23:29.149Z</time></trkpt><trkpt lat="46.1442055" lon="9.5276112"><ele>213.0</ele><time>2026-04-23T08:23:31.149Z</time></trkpt><trkpt lat="46.1442959" lon="9.5276154"><ele>213.5</ele><time>2026-04-23T08:23:33.148Z</time></trkpt><trkpt lat="46.1443869" lon="9.5276159"><ele>214.0</ele><time>2026-04-23T08:23:35.149Z</time></trkpt><trkpt lat="46.1444764" lon="9.5276174"><ele>214.5</ele><time>2026-04-23T08:23:37.147Z</time></trkpt><trkpt lat="46.1445654" lon="9.5276215"><ele>215.0</ele><time>2026-04-23T08:23:39.148Z</time></trkpt><trkpt lat="46.1446547" lon="9.5276288"><ele>215.5</ele><time>2026-04-23T08:23:41.147Z</time></trkpt><trkpt lat="46.1447349" lon="9.5276331"><ele>216.0</ele><time>2026-04-23T08:23:43.149Z</time></trkpt><trkpt lat="46.1448041" lon="9.5276409"><ele>216.5</ele><time>2026-04-23T08:23:45.276Z</time></trkpt><trkpt lat="46.1448906" lon="9.5276449"><ele>217.0</ele><time>2026-04-23T08:23:47.216Z</time></trkpt><trkpt lat="46.1449787" lon="9.52764"><ele>217.5</ele><time>2026-04-23T08:23:49.149Z</time></trkpt><trkpt lat="46.1450661" lon="9.5276414"><ele>218.0</ele><time>2026-04-23T08:23:51.243Z</time></trkpt><trkpt lat="46.1451407" lon="9.5276386"><ele>218.5</ele><time>2026-04-23T08:23:53.147Z</time></trkpt><trkpt lat="46.1452252" lon="9.5276391"><ele>219.0</ele><time>2026-04-23T08:23:55.209Z</time></trkpt><trkpt lat="46.1453037" lon="9.5276429"><ele>219.0</ele><time>2026-04-23T08:23:57.242Z</time></trkpt><trkpt lat="46.145372" lon="9.5276443"><ele>219.0</ele><time>2026-04-23T08:23:59.149Z</time></trkpt><trkpt lat="46.1454432" lon="9.5276467"><ele>219.0</ele><time>2026-04-23T08:24:01.242Z</time></trkpt><trkpt lat="46.1455105" lon="9.5276526"><ele>219.0</ele><time>2026-04-23T08:24:03.148Z</time></trkpt><trkpt lat="46.1455844" lon="9.5276623"><ele>219.0</ele><time>2026-04-23T08:24:05.243Z</time></trkpt><trkpt lat="46.145653" lon="9.5276677"><ele>219.0</ele><time>2026-04-23T08:24:07.242Z</time></trkpt><trkpt lat="46.1457188" lon="9.5276614"><ele>219.0</ele><time>2026-04-23T08:24:09.148Z</time></trkpt><trkpt lat="46.1457858" lon="9.5276551"><ele>219.33333333333334</ele><time>2026-04-23T08:24:11.243Z</time></trkpt><trkpt lat="46.1458688" lon="9.527661"><ele>219.66666666666669</ele><time>2026-04-23T08:24:14.149Z</time></trkpt><trkpt lat="46.1459339" lon="9.5276631"><ele>220.0</ele><time>2026-04-23T08:24:16.243Z</time></trkpt><trkpt lat="46.1460232" lon="9.527662"><ele>220.33333333333334</ele><time>2026-04-23T08:24:19.148Z</time></trkpt><trkpt lat="46.146087" lon="9.5276503"><ele>220.66666666666669</ele><time>2026-04-23T08:24:21.215Z</time></trkpt><trkpt lat="46.1461532" lon="9.5276199"><ele>221.0</ele><time>2026-04-23T08:24:24.149Z</time></trkpt><trkpt lat="46.1462324" lon="9.527621"><ele>221.00000000000003</ele><time>2026-04-23T08:24:28.215Z</time></trkpt><trkpt lat="46.1462992" lon="9.5276532"><ele>221.0</ele><time>2026-04-23T08:24:37.149Z</time></trkpt><trkpt lat="46.1463697" lon="9.5276525"><ele>221.0</ele><time>2026-04-23T08:24:43.242Z</time></trkpt><trkpt lat="46.146441" lon="9.5276174"><ele>221.0</ele><time>2026-04-23T08:24:46.148Z</time></trkpt><trkpt lat="46.1464917" lon="9.5275631"><ele>221.0</ele><time>2026-04-23T08:24:48.149Z</time></trkpt><trkpt lat="46.1465395" lon="9.5274762"><ele>221.00000000000003</ele><time>2026-04-23T08:24:50.262Z</time></trkpt><trkpt lat="46.1465745" lon="9.5273856"><ele>221.0</ele><time>2026-04-23T08:24:51.978Z</time></trkpt><trkpt lat="46.146624" lon="9.5272356"><ele>221.4</ele><time>2026-04-23T08:24:54.248Z</time></trkpt><trkpt lat="46.1466473" lon="9.5271382"><ele>221.8</ele><time>2026-04-23T08:24:56.148Z</time></trkpt><trkpt lat="46.1466851" lon="9.5270089"><ele>222.20000000000002</ele><time>2026-04-23T08:24:58.148Z</time></trkpt><trkpt lat="46.1467304" lon="9.5268799"><ele>222.60000000000002</ele><time>2026-04-23T08:25:00.148Z</time></trkpt><trkpt lat="46.1467782" lon="9.5267556"><ele>223.0</ele><time>2026-04-23T08:25:02.148Z</time></trkpt><trkpt lat="46.1468282" lon="9.5266333"><ele>223.0</ele><time>2026-04-23T08:25:04.149Z</time></trkpt><trkpt lat="46.1468748" lon="9.5265128"><ele>223.0</ele><time>2026-04-23T08:25:06.148Z</time></trkpt><trkpt lat="46.1469289" lon="9.5264062"><ele>223.0</ele><time>2026-04-23T08:25:08.149Z</time></trkpt><trkpt lat="46.1469883" lon="9.5262799"><ele>223.0</ele><time>2026-04-23T08:25:10.148Z</time></trkpt><trkpt lat="46.1470494" lon="9.5261584"><ele>223.0</ele><time>2026-04-23T08:25:12.148Z</time></trkpt><trkpt lat="46.1471032" lon="9.5260212"><ele>223.4</ele><time>2026-04-23T08:25:14.148Z</time></trkpt><trkpt lat="46.1471631" lon="9.5259136"><ele>223.8</ele><time>2026-04-23T08:25:16.148Z</time></trkpt><trkpt lat="46.1472211" lon="9.525809"><ele>224.2</ele><time>2026-04-23T08:25:18.148Z</time></trkpt><trkpt lat="46.1472804" lon="9.5256767"><ele>224.6</ele><time>2026-04-23T08:25:20.149Z</time></trkpt><trkpt lat="46.1473511" lon="9.525546"><ele>225.0</ele><time>2026-04-23T08:25:22.148Z</time></trkpt><trkpt lat="46.1474111" lon="9.5254068"><ele>224.8</ele><time>2026-04-23T08:25:24.149Z</time></trkpt><trkpt lat="46.147477" lon="9.5252874"><ele>224.6</ele><time>2026-04-23T08:25:26.148Z</time></trkpt><trkpt lat="46.1475386" lon="9.5251581"><ele>224.39999999999998</ele><time>2026-04-23T08:25:28.149Z</time></trkpt><trkpt lat="46.1476039" lon="9.5250193"><ele>224.2</ele><time>2026-04-23T08:25:30.148Z</time></trkpt><trkpt lat="46.1476732" lon="9.524893"><ele>224.0</ele><time>2026-04-23T08:25:32.149Z</time></trkpt><trkpt lat="46.1477398" lon="9.5247596"><ele>224.0</ele><time>2026-04-23T08:25:34.15Z</time></trkpt><trkpt lat="46.1478121" lon="9.5246297"><ele>223.99999999999997</ele><time>2026-04-23T08:25:36.149Z</time></trkpt><trkpt lat="46.1478896" lon="9.5245246"><ele>223.99999999999997</ele><time>2026-04-23T08:25:38.148Z</time></trkpt><trkpt lat="46.1479456" lon="9.524404"><ele>224.0</ele><time>2026-04-23T08:25:40.148Z</time></trkpt><trkpt lat="46.1479925" lon="9.5242591"><ele>224.0</ele><time>2026-04-23T08:25:42.149Z</time></trkpt><trkpt lat="46.1480646" lon="9.5241119"><ele>223.85714285714286</ele><time>2026-04-23T08:25:44.148Z</time></trkpt><trkpt lat="46.1481055" lon="9.5240345"><ele>223.71428571428572</ele><time>2026-04-23T08:25:45.149Z</time></trkpt><trkpt lat="46.1481446" lon="9.5239624"><ele>223.57142857142856</ele><time>2026-04-23T08:25:46.148Z</time></trkpt><trkpt lat="46.1481801" lon="9.5238814"><ele>223.42857142857144</ele><time>2026-04-23T08:25:47.149Z</time></trkpt><trkpt lat="46.1482167" lon="9.5237999"><ele>223.28571428571428</ele><time>2026-04-23T08:25:48.149Z</time></trkpt><trkpt lat="46.1482566" lon="9.5237165"><ele>223.14285714285714</ele><time>2026-04-23T08:25:49.149Z</time></trkpt><trkpt lat="46.1482979" lon="9.5236364"><ele>223.0</ele><time>2026-04-23T08:25:50.148Z</time></trkpt><trkpt lat="46.1483358" lon="9.5235535"><ele>222.85714285714286</ele><time>2026-04-23T08:25:51.148Z</time></trkpt><trkpt lat="46.148373" lon="9.5234701"><ele>222.71428571428572</ele><time>2026-04-23T08:25:52.149Z</time></trkpt><trkpt lat="46.1484082" lon="9.5233917"><ele>222.57142857142856</ele><time>2026-04-23T08:25:53.148Z</time></trkpt><trkpt lat="46.1484415" lon="9.5233092"><ele>222.42857142857144</ele><time>2026-04-23T08:25:54.149Z</time></trkpt><trkpt lat="46.1484785" lon="9.5232209"><ele>222.2857142857143</ele><time>2026-04-23T08:25:55.148Z</time></trkpt><trkpt lat="46.1485111" lon="9.5231368"><ele>222.14285714285714</ele><time>2026-04-23T08:25:56.149Z</time></trkpt><trkpt lat="46.1485442" lon="9.5230445"><ele>222.0</ele><time>2026-04-23T08:25:57.149Z</time></trkpt><trkpt lat="46.1485736" lon="9.52295"><ele>221.5</ele><time>2026-04-23T08:25:58.149Z</time></trkpt><trkpt lat="46.1486006" lon="9.5228523"><ele>221.0</ele><time>2026-04-23T08:25:59.148Z</time></trkpt><trkpt lat="46.1486287" lon="9.5227588"><ele>220.5</ele><time>2026-04-23T08:26:00.149Z</time></trkpt><trkpt lat="46.1486665" lon="9.5226637"><ele>220.0</ele><time>2026-04-23T08:26:01.149Z</time></trkpt><trkpt lat="46.1487024" lon="9.5225659"><ele>219.5</ele><time>2026-04-23T08:26:02.148Z</time></trkpt><trkpt lat="46.1487383" lon="9.5224619"><ele>219.0</ele><time>2026-04-23T08:26:03.15Z</time></trkpt><trkpt lat="46.1487763" lon="9.5223607"><ele>219.0</ele><time>2026-04-23T08:26:04.148Z</time></trkpt><trkpt lat="46.1488107" lon="9.5222597"><ele>219.0</ele><time>2026-04-23T08:26:05.148Z</time></trkpt><trkpt lat="46.1488482" lon="9.5221584"><ele>219.0</ele><time>2026-04-23T08:26:06.149Z</time></trkpt><trkpt lat="46.1488791" lon="9.522058"><ele>219.0</ele><time>2026-04-23T08:26:07.148Z</time></trkpt><trkpt lat="46.1489038" lon="9.5219516"><ele>219.0</ele><time>2026-04-23T08:26:08.148Z</time></trkpt><trkpt lat="46.148939" lon="9.5218535"><ele>219.0</ele><time>2026-04-23T08:26:09.149Z</time></trkpt><trkpt lat="46.1489719" lon="9.5217543"><ele>219.0</ele><time>2026-04-23T08:26:10.149Z</time></trkpt><trkpt lat="46.1490034" lon="9.5216634"><ele>219.0</ele><time>2026-04-23T08:26:11.148Z</time></trkpt><trkpt lat="46.1490372" lon="9.5215649"><ele>219.0</ele><time>2026-04-23T08:26:12.148Z</time></trkpt><trkpt lat="46.1490741" lon="9.5214695"><ele>219.0</ele><time>2026-04-23T08:26:13.148Z</time></trkpt><trkpt lat="46.149109" lon="9.5213757"><ele>219.0</ele><time>2026-04-23T08:26:14.148Z</time></trkpt><trkpt lat="46.1491403" lon="9.5212779"><ele>219.0</ele><time>2026-04-23T08:26:15.148Z</time></trkpt><trkpt lat="46.1491716" lon="9.5211756"><ele>219.0</ele><time>2026-04-23T08:26:16.148Z</time></trkpt><trkpt lat="46.1492062" lon="9.521077"><ele>219.0</ele><time>2026-04-23T08:26:17.148Z</time></trkpt><trkpt lat="46.1492436" lon="9.5209801"><ele>219.0</ele><time>2026-04-23T08:26:18.149Z</time></trkpt><trkpt lat="46.1492783" lon="9.5208807"><ele>219.0</ele><time>2026-04-23T08:26:19.148Z</time></trkpt><trkpt lat="46.1493119" lon="9.5207843"><ele>219.0</ele><time>2026-04-23T08:26:20.148Z</time></trkpt><trkpt lat="46.1493445" lon="9.5206879"><ele>219.0</ele><time>2026-04-23T08:26:21.148Z</time></trkpt><trkpt lat="46.1493817" lon="9.5205849"><ele>219.0</ele><time>2026-04-23T08:26:22.148Z</time></trkpt><trkpt lat="46.1494194" lon="9.5204815"><ele>218.16666666666666</ele><time>2026-04-23T08:26:23.149Z</time></trkpt><trkpt lat="46.1494551" lon="9.5203769"><ele>217.33333333333331</ele><time>2026-04-23T08:26:24.149Z</time></trkpt><trkpt lat="46.1494938" lon="9.5202802"><ele>216.5</ele><time>2026-04-23T08:26:25.148Z</time></trkpt><trkpt lat="46.1495292" lon="9.5201842"><ele>215.66666666666666</ele><time>2026-04-23T08:26:26.148Z</time></trkpt><trkpt lat="46.149565" lon="9.5200851"><ele>214.83333333333331</ele><time>2026-04-23T08:26:27.149Z</time></trkpt><trkpt lat="46.1495968" lon="9.5199864"><ele>214.0</ele><time>2026-04-23T08:26:28.148Z</time></trkpt><trkpt lat="46.1496313" lon="9.5198867"><ele>214.00000000000003</ele><time>2026-04-23T08:26:29.149Z</time></trkpt><trkpt lat="46.1496637" lon="9.5197895"><ele>214.0</ele><time>2026-04-23T08:26:30.149Z</time></trkpt><trkpt lat="46.1496947" lon="9.519692"><ele>214.0</ele><time>2026-04-23T08:26:31.149Z</time></trkpt><trkpt lat="46.1497279" lon="9.5195968"><ele>214.0</ele><time>2026-04-23T08:26:32.148Z</time></trkpt><trkpt lat="46.1497577" lon="9.5195012"><ele>214.0</ele><time>2026-04-23T08:26:33.149Z</time></trkpt><trkpt lat="46.14979" lon="9.5194129"><ele>214.00000000000003</ele><time>2026-04-23T08:26:34.148Z</time></trkpt><trkpt lat="46.1498209" lon="9.5193275"><ele>214.0</ele><time>2026-04-23T08:26:35.15Z</time></trkpt><trkpt lat="46.149853" lon="9.5192358"><ele>214.39999999999998</ele><time>2026-04-23T08:26:36.149Z</time></trkpt><trkpt lat="46.1498842" lon="9.5191489"><ele>214.79999999999998</ele><time>2026-04-23T08:26:37.148Z</time></trkpt><trkpt lat="46.1499485" lon="9.5189804"><ele>215.20000000000002</ele><time>2026-04-23T08:26:39.149Z</time></trkpt><trkpt lat="46.1500159" lon="9.5188417"><ele>215.60000000000002</ele><time>2026-04-23T08:26:41.148Z</time></trkpt><trkpt lat="46.1500683" lon="9.518694"><ele>216.0</ele><time>2026-04-23T08:26:43.149Z</time></trkpt><trkpt lat="46.1500817" lon="9.5185362"><ele>215.42857142857142</ele><time>2026-04-23T08:26:45.148Z</time></trkpt><trkpt lat="46.1500875" lon="9.5184079"><ele>214.85714285714283</ele><time>2026-04-23T08:26:47.148Z</time></trkpt><trkpt lat="46.1500483" lon="9.5183274"><ele>214.28571428571428</ele><time>2026-04-23T08:26:49.15Z</time></trkpt><trkpt lat="46.1499786" lon="9.5183394"><ele>213.71428571428572</ele><time>2026-04-23T08:26:51.149Z</time></trkpt><trkpt lat="46.1499199" lon="9.5183949"><ele>213.14285714285714</ele><time>2026-04-23T08:26:53.149Z</time></trkpt><trkpt lat="46.1498679" lon="9.5184524"><ele>212.57142857142858</ele><time>2026-04-23T08:26:56.149Z</time></trkpt><trkpt lat="46.1498665" lon="9.5183612"><ele>212.0</ele><time>2026-04-23T08:34:27.095Z</time></trkpt><trkpt lat="46.1499051" lon="9.5184371"><ele>212.00000000000003</ele><time>2026-04-23T08:41:04.151Z</time></trkpt><trkpt lat="46.1499901" lon="9.5183818"><ele>212.0</ele><time>2026-04-23T08:41:21.011Z</time></trkpt><trkpt lat="46.1500624" lon="9.5183667"><ele>212.0</ele><time>2026-04-23T08:41:24.15Z</time></trkpt><trkpt lat="46.1501311" lon="9.5183573"><ele>212.0</ele><time>2026-04-23T08:41:42.894Z</time></trkpt><trkpt lat="46.1501702" lon="9.5182792"><ele>212.00000000000003</ele><time>2026-04-23T08:41:45.206Z</time></trkpt><trkpt lat="46.1501984" lon="9.5181321"><ele>212.0</ele><time>2026-04-23T08:41:48.15Z</time></trkpt><trkpt lat="46.1502386" lon="9.5180165"><ele>211.8</ele><time>2026-04-23T08:41:50.151Z</time></trkpt><trkpt lat="46.1503092" lon="9.5178564"><ele>211.6</ele><time>2026-04-23T08:41:52.15Z</time></trkpt><trkpt lat="46.1503454" lon="9.5177699"><ele>211.4</ele><time>2026-04-23T08:41:53.15Z</time></trkpt><trkpt lat="46.1503953" lon="9.5176162"><ele>211.20000000000002</ele><time>2026-04-23T08:41:55.151Z</time></trkpt><trkpt lat="46.1504475" lon="9.5174688"><ele>211.0</ele><time>2026-04-23T08:41:57.15Z</time></trkpt><trkpt lat="46.1504988" lon="9.5173252"><ele>211.0</ele><time>2026-04-23T08:41:59.151Z</time></trkpt><trkpt lat="46.1505529" lon="9.5171777"><ele>211.0</ele><time>2026-04-23T08:42:01.151Z</time></trkpt><trkpt lat="46.1506085" lon="9.5170234"><ele>211.0</ele><time>2026-04-23T08:42:03.151Z</time></trkpt><trkpt lat="46.1506621" lon="9.5168643"><ele>211.0</ele><time>2026-04-23T08:42:05.152Z</time></trkpt><trkpt lat="46.1507123" lon="9.5167036"><ele>211.0</ele><time>2026-04-23T08:42:07.151Z</time></trkpt><trkpt lat="46.150754" lon="9.5165395"><ele>211.0</ele><time>2026-04-23T08:42:09.15Z</time></trkpt><trkpt lat="46.1507841" lon="9.5163785"><ele>211.0</ele><time>2026-04-23T08:42:11.151Z</time></trkpt><trkpt lat="46.1508115" lon="9.5162861"><ele>211.0</ele><time>2026-04-23T08:42:12.151Z</time></trkpt><trkpt lat="46.150849" lon="9.5161186"><ele>211.0</ele><time>2026-04-23T08:42:14.152Z</time></trkpt><trkpt lat="46.1508634" lon="9.5160293"><ele>211.0</ele><time>2026-04-23T08:42:15.15Z</time></trkpt><trkpt lat="46.1508745" lon="9.5159379"><ele>211.0</ele><time>2026-04-23T08:42:16.15Z</time></trkpt><trkpt lat="46.1508844" lon="9.5158425"><ele>211.0</ele><time>2026-04-23T08:42:17.151Z</time></trkpt><trkpt lat="46.1508886" lon="9.5157462"><ele>211.0</ele><time>2026-04-23T08:42:18.151Z</time></trkpt><trkpt lat="46.1508978" lon="9.5156539"><ele>211.0</ele><time>2026-04-23T08:42:19.151Z</time></trkpt><trkpt lat="46.1509061" lon="9.5155635"><ele>211.0</ele><time>2026-04-23T08:42:20.151Z</time></trkpt><trkpt lat="46.1509068" lon="9.515451"><ele>211.0</ele><time>2026-04-23T08:42:21.15Z</time></trkpt><trkpt lat="46.1509301" lon="9.5153464"><ele>210.83333333333331</ele><time>2026-04-23T08:42:22.151Z</time></trkpt><trkpt lat="46.1509218" lon="9.5152531"><ele>210.66666666666666</ele><time>2026-04-23T08:42:23.151Z</time></trkpt><trkpt lat="46.1509246" lon="9.5150537"><ele>210.5</ele><time>2026-04-23T08:42:25.151Z</time></trkpt><trkpt lat="46.1509282" lon="9.5149623"><ele>210.33333333333331</ele><time>2026-04-23T08:42:26.151Z</time></trkpt><trkpt lat="46.1509333" lon="9.5148653"><ele>210.16666666666666</ele><time>2026-04-23T08:42:27.151Z</time></trkpt><trkpt lat="46.1509342" lon="9.5147724"><ele>210.0</ele><time>2026-04-23T08:42:28.15Z</time></trkpt><trkpt lat="46.1509353" lon="9.5146757"><ele>210.0</ele><time>2026-04-23T08:42:29.15Z</time></trkpt><trkpt lat="46.1509326" lon="9.5145758"><ele>210.0</ele><time>2026-04-23T08:42:30.151Z</time></trkpt><trkpt lat="46.150938" lon="9.5144791"><ele>210.0</ele><time>2026-04-23T08:42:31.151Z</time></trkpt><trkpt lat="46.1509375" lon="9.5143821"><ele>210.0</ele><time>2026-04-23T08:42:32.15Z</time></trkpt><trkpt lat="46.1509615" lon="9.5141844"><ele>210.0</ele><time>2026-04-23T08:42:34.15Z</time></trkpt><trkpt lat="46.1509601" lon="9.5140129"><ele>210.2</ele><time>2026-04-23T08:42:36.151Z</time></trkpt><trkpt lat="46.1509611" lon="9.5139172"><ele>210.4</ele><time>2026-04-23T08:42:37.151Z</time></trkpt><trkpt lat="46.1509625" lon="9.513821"><ele>210.60000000000002</ele><time>2026-04-23T08:42:38.15Z</time></trkpt><trkpt lat="46.1509739" lon="9.5136159"><ele>210.8</ele><time>2026-04-23T08:42:40.15Z</time></trkpt><trkpt lat="46.1509696" lon="9.513429"><ele>211.0</ele><time>2026-04-23T08:42:42.151Z</time></trkpt><trkpt lat="46.1509717" lon="9.5133375"><ele>211.0</ele><time>2026-04-23T08:42:43.15Z</time></trkpt><trkpt lat="46.1509754" lon="9.5132456"><ele>211.0</ele><time>2026-04-23T08:42:44.151Z</time></trkpt><trkpt lat="46.1509803" lon="9.5130683"><ele>211.0</ele><time>2026-04-23T08:42:46.151Z</time></trkpt><trkpt lat="46.1509808" lon="9.5129743"><ele>211.0</ele><time>2026-04-23T08:42:47.151Z</time></trkpt><trkpt lat="46.1509816" lon="9.5128833"><ele>211.0</ele><time>2026-04-23T08:42:48.151Z</time></trkpt><trkpt lat="46.1509826" lon="9.512792"><ele>211.0</ele><time>2026-04-23T08:42:49.15Z</time></trkpt><trkpt lat="46.1509963" lon="9.5126975"><ele>211.0</ele><time>2026-04-23T08:42:50.15Z</time></trkpt><trkpt lat="46.151" lon="9.5126051"><ele>211.20000000000002</ele><time>2026-04-23T08:42:51.15Z</time></trkpt><trkpt lat="46.1509972" lon="9.5125116"><ele>211.4</ele><time>2026-04-23T08:42:52.15Z</time></trkpt><trkpt lat="46.1509933" lon="9.5123402"><ele>211.6</ele><time>2026-04-23T08:42:54.151Z</time></trkpt><trkpt lat="46.1510002" lon="9.5121644"><ele>211.8</ele><time>2026-04-23T08:42:56.151Z</time></trkpt><trkpt lat="46.1510025" lon="9.5119945"><ele>212.0</ele><time>2026-04-23T08:42:58.151Z</time></trkpt><trkpt lat="46.1509957" lon="9.5118206"><ele>212.0</ele><time>2026-04-23T08:43:00.151Z</time></trkpt><trkpt lat="46.1509953" lon="9.5116459"><ele>212.0</ele><time>2026-04-23T08:43:02.152Z</time></trkpt><trkpt lat="46.1510005" lon="9.5114904"><ele>212.0</ele><time>2026-04-23T08:43:04.151Z</time></trkpt><trkpt lat="46.1510014" lon="9.5113235"><ele>212.0</ele><time>2026-04-23T08:43:06.151Z</time></trkpt><trkpt lat="46.1509953" lon="9.5112329"><ele>212.0</ele><time>2026-04-23T08:43:07.15Z</time></trkpt><trkpt lat="46.1510018" lon="9.5110753"><ele>211.25</ele><time>2026-04-23T08:43:09.151Z</time></trkpt><trkpt lat="46.1509973" lon="9.5109226"><ele>210.5</ele><time>2026-04-23T08:43:11.151Z</time></trkpt><trkpt lat="46.1510021" lon="9.5107619"><ele>209.75</ele><time>2026-04-23T08:43:13.152Z</time></trkpt><trkpt lat="46.1510082" lon="9.5105932"><ele>209.0</ele><time>2026-04-23T08:43:15.152Z</time></trkpt><trkpt lat="46.1510189" lon="9.5104273"><ele>209.2</ele><time>2026-04-23T08:43:17.151Z</time></trkpt><trkpt lat="46.1510348" lon="9.5102545"><ele>209.39999999999998</ele><time>2026-04-23T08:43:19.151Z</time></trkpt><trkpt lat="46.1510442" lon="9.5101547"><ele>209.6</ele><time>2026-04-23T08:43:20.151Z</time></trkpt><trkpt lat="46.1510663" lon="9.5099891"><ele>209.8</ele><time>2026-04-23T08:43:22.152Z</time></trkpt><trkpt lat="46.1510944" lon="9.5098194"><ele>210.0</ele><time>2026-04-23T08:43:24.15Z</time></trkpt><trkpt lat="46.1511192" lon="9.5096702"><ele>209.8</ele><time>2026-04-23T08:43:26.152Z</time></trkpt><trkpt lat="46.1511422" lon="9.509512"><ele>209.6</ele><time>2026-04-23T08:43:28.151Z</time></trkpt><trkpt lat="46.1511637" lon="9.5093457"><ele>209.39999999999998</ele><time>2026-04-23T08:43:30.151Z</time></trkpt><trkpt lat="46.1511703" lon="9.509185"><ele>209.2</ele><time>2026-04-23T08:43:32.15Z</time></trkpt><trkpt lat="46.1511916" lon="9.5090333"><ele>209.0</ele><time>2026-04-23T08:43:34.15Z</time></trkpt><trkpt lat="46.1511915" lon="9.5088745"><ele>209.6</ele><time>2026-04-23T08:43:36.149Z</time></trkpt><trkpt lat="46.1511844" lon="9.5087153"><ele>210.2</ele><time>2026-04-23T08:43:38.15Z</time></trkpt><trkpt lat="46.1511718" lon="9.5085587"><ele>210.79999999999998</ele><time>2026-04-23T08:43:40.15Z</time></trkpt><trkpt lat="46.1511488" lon="9.5084137"><ele>211.39999999999998</ele><time>2026-04-23T08:43:42.151Z</time></trkpt><trkpt lat="46.1511243" lon="9.5082699"><ele>212.0</ele><time>2026-04-23T08:43:44.152Z</time></trkpt><trkpt lat="46.1510847" lon="9.5081311"><ele>212.0</ele><time>2026-04-23T08:43:46.151Z</time></trkpt><trkpt lat="46.1510405" lon="9.5079949"><ele>212.0</ele><time>2026-04-23T08:43:48.151Z</time></trkpt><trkpt lat="46.1509837" lon="9.5078602"><ele>212.0</ele><time>2026-04-23T08:43:50.151Z</time></trkpt><trkpt lat="46.1509438" lon="9.5077216"><ele>212.0</ele><time>2026-04-23T08:43:52.152Z</time></trkpt><trkpt lat="46.15091" lon="9.507592"><ele>212.0</ele><time>2026-04-23T08:43:54.152Z</time></trkpt><trkpt lat="46.1508571" lon="9.5074518"><ele>212.39999999999998</ele><time>2026-04-23T08:43:56.15Z</time></trkpt><trkpt lat="46.1508262" lon="9.5073133"><ele>212.79999999999998</ele><time>2026-04-23T08:43:58.15Z</time></trkpt><trkpt lat="46.1507817" lon="9.5071718"><ele>213.2</ele><time>2026-04-23T08:44:00.151Z</time></trkpt><trkpt lat="46.1507413" lon="9.5070379"><ele>213.6</ele><time>2026-04-23T08:44:02.151Z</time></trkpt><trkpt lat="46.1506914" lon="9.5069008"><ele>214.0</ele><time>2026-04-23T08:44:04.152Z</time></trkpt><trkpt lat="46.1506438" lon="9.506748"><ele>213.2</ele><time>2026-04-23T08:44:06.151Z</time></trkpt><trkpt lat="46.1506006" lon="9.5065948"><ele>212.39999999999998</ele><time>2026-04-23T08:44:08.151Z</time></trkpt><trkpt lat="46.1505651" lon="9.5064406"><ele>211.6</ele><time>2026-04-23T08:44:10.15Z</time></trkpt><trkpt lat="46.1505248" lon="9.5063045"><ele>210.8</ele><time>2026-04-23T08:44:12.15Z</time></trkpt><trkpt lat="46.1504975" lon="9.50615"><ele>210.0</ele><time>2026-04-23T08:44:14.151Z</time></trkpt><trkpt lat="46.1504679" lon="9.5059924"><ele>210.0</ele><time>2026-04-23T08:44:16.152Z</time></trkpt><trkpt lat="46.1504228" lon="9.505847"><ele>210.0</ele><time>2026-04-23T08:44:18.15Z</time></trkpt><trkpt lat="46.150386" lon="9.5056934"><ele>210.0</ele><time>2026-04-23T08:44:20.151Z</time></trkpt><trkpt lat="46.1503439" lon="9.5055425"><ele>210.0</ele><time>2026-04-23T08:44:22.151Z</time></trkpt><trkpt lat="46.1503082" lon="9.5053839"><ele>210.5</ele><time>2026-04-23T08:44:24.151Z</time></trkpt><trkpt lat="46.1502799" lon="9.505223"><ele>211.0</ele><time>2026-04-23T08:44:26.152Z</time></trkpt><trkpt lat="46.1502561" lon="9.5050643"><ele>211.5</ele><time>2026-04-23T08:44:28.15Z</time></trkpt><trkpt lat="46.1502287" lon="9.504899"><ele>212.0</ele><time>2026-04-23T08:44:30.15Z</time></trkpt><trkpt lat="46.1501978" lon="9.5047404"><ele>212.25</ele><time>2026-04-23T08:44:32.15Z</time></trkpt><trkpt lat="46.1501977" lon="9.5045699"><ele>212.5</ele><time>2026-04-23T08:44:34.151Z</time></trkpt><trkpt lat="46.1502121" lon="9.5044188"><ele>212.75</ele><time>2026-04-23T08:44:36.15Z</time></trkpt><trkpt lat="46.1501993" lon="9.5042283"><ele>213.0</ele><time>2026-04-23T08:44:38.151Z</time></trkpt><trkpt lat="46.1501944" lon="9.5040668"><ele>213.0</ele><time>2026-04-23T08:44:40.15Z</time></trkpt><trkpt lat="46.1501844" lon="9.503903"><ele>213.0</ele><time>2026-04-23T08:44:42.15Z</time></trkpt><trkpt lat="46.15018" lon="9.503739"><ele>213.0</ele><time>2026-04-23T08:44:44.151Z</time></trkpt><trkpt lat="46.1501897" lon="9.5035811"><ele>213.0</ele><time>2026-04-23T08:44:46.15Z</time></trkpt><trkpt lat="46.1501913" lon="9.5034139"><ele>212.8</ele><time>2026-04-23T08:44:48.15Z</time></trkpt><trkpt lat="46.1501971" lon="9.50327"><ele>212.60000000000002</ele><time>2026-04-23T08:44:50.15Z</time></trkpt><trkpt lat="46.150221" lon="9.5031091"><ele>212.39999999999998</ele><time>2026-04-23T08:44:52.151Z</time></trkpt><trkpt lat="46.1502355" lon="9.5029438"><ele>212.2</ele><time>2026-04-23T08:44:54.151Z</time></trkpt><trkpt lat="46.1502517" lon="9.5027884"><ele>212.0</ele><time>2026-04-23T08:44:56.15Z</time></trkpt><trkpt lat="46.1502837" lon="9.5026401"><ele>211.6</ele><time>2026-04-23T08:44:58.151Z</time></trkpt><trkpt lat="46.1503138" lon="9.5024905"><ele>211.2</ele><time>2026-04-23T08:45:00.151Z</time></trkpt><trkpt lat="46.1503438" lon="9.5023259"><ele>210.8</ele><time>2026-04-23T08:45:02.152Z</time></trkpt><trkpt lat="46.150362" lon="9.502236"><ele>210.4</ele><time>2026-04-23T08:45:03.151Z</time></trkpt><trkpt lat="46.1504072" lon="9.5020919"><ele>210.0</ele><time>2026-04-23T08:45:05.15Z</time></trkpt><trkpt lat="46.1504485" lon="9.5019422"><ele>209.8</ele><time>2026-04-23T08:45:07.151Z</time></trkpt><trkpt lat="46.1504902" lon="9.5017798"><ele>209.6</ele><time>2026-04-23T08:45:09.15Z</time></trkpt><trkpt lat="46.1505363" lon="9.5016226"><ele>209.39999999999998</ele><time>2026-04-23T08:45:11.151Z</time></trkpt><trkpt lat="46.1505631" lon="9.5015399"><ele>209.2</ele><time>2026-04-23T08:45:12.15Z</time></trkpt><trkpt lat="46.1506227" lon="9.5013804"><ele>209.0</ele><time>2026-04-23T08:45:14.15Z</time></trkpt><trkpt lat="46.1506778" lon="9.501212"><ele>210.2</ele><time>2026-04-23T08:45:16.15Z</time></trkpt><trkpt lat="46.1507306" lon="9.501052"><ele>211.39999999999998</ele><time>2026-04-23T08:45:18.151Z</time></trkpt><trkpt lat="46.1507926" lon="9.5008869"><ele>212.6</ele><time>2026-04-23T08:45:20.151Z</time></trkpt><trkpt lat="46.1508236" lon="9.5008034"><ele>213.8</ele><time>2026-04-23T08:45:21.15Z</time></trkpt><trkpt lat="46.1508551" lon="9.5007085"><ele>215.0</ele><time>2026-04-23T08:45:22.151Z</time></trkpt><trkpt lat="46.1508948" lon="9.5006128"><ele>215.0</ele><time>2026-04-23T08:45:23.151Z</time></trkpt><trkpt lat="46.1509268" lon="9.5005235"><ele>215.0</ele><time>2026-04-23T08:45:24.152Z</time></trkpt><trkpt lat="46.1509582" lon="9.5004377"><ele>215.0</ele><time>2026-04-23T08:45:25.151Z</time></trkpt><trkpt lat="46.1509891" lon="9.5003484"><ele>215.0</ele><time>2026-04-23T08:45:26.15Z</time></trkpt><trkpt lat="46.1510198" lon="9.5002582"><ele>215.0</ele><time>2026-04-23T08:45:27.152Z</time></trkpt><trkpt lat="46.1510522" lon="9.5001751"><ele>215.0</ele><time>2026-04-23T08:45:28.151Z</time></trkpt><trkpt lat="46.1510789" lon="9.5000876"><ele>215.0</ele><time>2026-04-23T08:45:29.151Z</time></trkpt><trkpt lat="46.1511075" lon="9.5000048"><ele>214.50000000000003</ele><time>2026-04-23T08:45:30.151Z</time></trkpt><trkpt lat="46.1511455" lon="9.4999184"><ele>214.0</ele><time>2026-04-23T08:45:31.152Z</time></trkpt><trkpt lat="46.1512006" lon="9.4997548"><ele>213.5</ele><time>2026-04-23T08:45:33.15Z</time></trkpt><trkpt lat="46.151234" lon="9.499663"><ele>213.0</ele><time>2026-04-23T08:45:34.151Z</time></trkpt><trkpt lat="46.151265" lon="9.4995725"><ele>212.50000000000003</ele><time>2026-04-23T08:45:35.151Z</time></trkpt><trkpt lat="46.1512912" lon="9.4994888"><ele>212.0</ele><time>2026-04-23T08:45:36.15Z</time></trkpt><trkpt lat="46.1513236" lon="9.4993909"><ele>211.85714285714286</ele><time>2026-04-23T08:45:37.152Z</time></trkpt><trkpt lat="46.1513549" lon="9.4993043"><ele>211.7142857142857</ele><time>2026-04-23T08:45:38.151Z</time></trkpt><trkpt lat="46.1513838" lon="9.4992136"><ele>211.57142857142856</ele><time>2026-04-23T08:45:39.151Z</time></trkpt><trkpt lat="46.1514195" lon="9.499129"><ele>211.42857142857144</ele><time>2026-04-23T08:45:40.151Z</time></trkpt><trkpt lat="46.1514605" lon="9.4990283"><ele>211.28571428571428</ele><time>2026-04-23T08:45:41.151Z</time></trkpt><trkpt lat="46.1514898" lon="9.4989312"><ele>211.14285714285714</ele><time>2026-04-23T08:45:42.152Z</time></trkpt><trkpt lat="46.1515252" lon="9.4988314"><ele>211.0</ele><time>2026-04-23T08:45:43.152Z</time></trkpt><trkpt lat="46.1515504" lon="9.498742"><ele>210.85714285714286</ele><time>2026-04-23T08:45:44.15Z</time></trkpt><trkpt lat="46.1515808" lon="9.4986578"><ele>210.71428571428572</ele><time>2026-04-23T08:45:45.152Z</time></trkpt><trkpt lat="46.1516115" lon="9.4985717"><ele>210.57142857142856</ele><time>2026-04-23T08:45:46.152Z</time></trkpt><trkpt lat="46.1516437" lon="9.4984806"><ele>210.42857142857144</ele><time>2026-04-23T08:45:47.152Z</time></trkpt><trkpt lat="46.1516709" lon="9.498392"><ele>210.28571428571428</ele><time>2026-04-23T08:45:48.151Z</time></trkpt><trkpt lat="46.1517015" lon="9.4982935"><ele>210.14285714285714</ele><time>2026-04-23T08:45:49.151Z</time></trkpt><trkpt lat="46.1517315" lon="9.4982066"><ele>210.0</ele><time>2026-04-23T08:45:50.15Z</time></trkpt><trkpt lat="46.1517602" lon="9.4981237"><ele>210.0</ele><time>2026-04-23T08:45:51.151Z</time></trkpt><trkpt lat="46.1517905" lon="9.4980331"><ele>210.0</ele><time>2026-04-23T08:45:52.151Z</time></trkpt><trkpt lat="46.1518201" lon="9.4979471"><ele>210.0</ele><time>2026-04-23T08:45:53.151Z</time></trkpt><trkpt lat="46.1518525" lon="9.4978573"><ele>210.0</ele><time>2026-04-23T08:45:54.151Z</time></trkpt><trkpt lat="46.1518885" lon="9.4977579"><ele>210.0</ele><time>2026-04-23T08:45:55.152Z</time></trkpt><trkpt lat="46.1519203" lon="9.4976646"><ele>210.0</ele><time>2026-04-23T08:45:56.151Z</time></trkpt><trkpt lat="46.1519563" lon="9.4975759"><ele>210.0</ele><time>2026-04-23T08:45:57.151Z</time></trkpt><trkpt lat="46.1519885" lon="9.4974836"><ele>209.57142857142858</ele><time>2026-04-23T08:45:58.151Z</time></trkpt><trkpt lat="46.1520233" lon="9.4973966"><ele>209.14285714285714</ele><time>2026-04-23T08:45:59.15Z</time></trkpt><trkpt lat="46.152056" lon="9.4973071"><ele>208.71428571428572</ele><time>2026-04-23T08:46:00.152Z</time></trkpt><trkpt lat="46.1520846" lon="9.497213"><ele>208.28571428571428</ele><time>2026-04-23T08:46:01.152Z</time></trkpt><trkpt lat="46.1521112" lon="9.4971264"><ele>207.85714285714286</ele><time>2026-04-23T08:46:02.151Z</time></trkpt><trkpt lat="46.1521433" lon="9.4970364"><ele>207.42857142857144</ele><time>2026-04-23T08:46:03.151Z</time></trkpt><trkpt lat="46.1521716" lon="9.4969425"><ele>207.0</ele><time>2026-04-23T08:46:04.152Z</time></trkpt><trkpt lat="46.152199" lon="9.4968541"><ele>207.0</ele><time>2026-04-23T08:46:05.15Z</time></trkpt><trkpt lat="46.1522546" lon="9.496692"><ele>207.0</ele><time>2026-04-23T08:46:07.15Z</time></trkpt><trkpt lat="46.1523154" lon="9.4965257"><ele>207.0</ele><time>2026-04-23T08:46:09.152Z</time></trkpt><trkpt lat="46.1523392" lon="9.4964392"><ele>207.0</ele><time>2026-04-23T08:46:10.151Z</time></trkpt><trkpt lat="46.1524001" lon="9.4962855"><ele>207.0</ele><time>2026-04-23T08:46:12.152Z</time></trkpt><trkpt lat="46.1524473" lon="9.496133"><ele>207.16666666666666</ele><time>2026-04-23T08:46:14.151Z</time></trkpt><trkpt lat="46.1524896" lon="9.4959968"><ele>207.33333333333331</ele><time>2026-04-23T08:46:16.151Z</time></trkpt><trkpt lat="46.1525086" lon="9.4958754"><ele>207.5</ele><time>2026-04-23T08:46:18.152Z</time></trkpt><trkpt lat="46.1525334" lon="9.4957871"><ele>207.66666666666666</ele><time>2026-04-23T08:46:20.152Z</time></trkpt><trkpt lat="46.1525521" lon="9.4956985"><ele>207.83333333333331</ele><time>2026-04-23T08:46:23.15Z</time></trkpt><trkpt lat="46.1525782" lon="9.495594"><ele>208.0</ele><time>2026-04-23T08:46:28.152Z</time></trkpt><trkpt lat="46.1526346" lon="9.4954788"><ele>207.83333333333331</ele><time>2026-04-23T08:46:31.151Z</time></trkpt><trkpt lat="46.1526514" lon="9.4953771"><ele>207.66666666666666</ele><time>2026-04-23T08:46:33.152Z</time></trkpt><trkpt lat="46.152662" lon="9.4952652"><ele>207.5</ele><time>2026-04-23T08:46:35.151Z</time></trkpt><trkpt lat="46.152654" lon="9.4951208"><ele>207.33333333333331</ele><time>2026-04-23T08:46:37.15Z</time></trkpt><trkpt lat="46.1526352" lon="9.4949778"><ele>207.16666666666666</ele><time>2026-04-23T08:46:39.15Z</time></trkpt><trkpt lat="46.1526333" lon="9.4948641"><ele>207.0</ele><time>2026-04-23T08:46:41.152Z</time></trkpt><trkpt lat="46.1526791" lon="9.4947908"><ele>207.0</ele><time>2026-04-23T08:46:43.152Z</time></trkpt><trkpt lat="46.1527453" lon="9.4947394"><ele>207.0</ele><time>2026-04-23T08:46:45.152Z</time></trkpt><trkpt lat="46.1527817" lon="9.4946555"><ele>207.0</ele><time>2026-04-23T08:46:47.151Z</time></trkpt><trkpt lat="46.1527704" lon="9.4945315"><ele>207.0</ele><time>2026-04-23T08:46:50.151Z</time></trkpt><trkpt lat="46.1527355" lon="9.4943922"><ele>207.0</ele><time>2026-04-23T08:46:52.152Z</time></trkpt><trkpt lat="46.1527172" lon="9.4942542"><ele>207.0</ele><time>2026-04-23T08:46:54.152Z</time></trkpt><trkpt lat="46.1526845" lon="9.4941145"><ele>207.33333333333334</ele><time>2026-04-23T08:46:56.15Z</time></trkpt><trkpt lat="46.1526424" lon="9.4940042"><ele>207.66666666666669</ele><time>2026-04-23T08:46:58.15Z</time></trkpt><trkpt lat="46.1526379" lon="9.4939125"><ele>208.0</ele><time>2026-04-23T08:47:00.15Z</time></trkpt><trkpt lat="46.1526521" lon="9.4938072"><ele>208.33333333333334</ele><time>2026-04-23T08:47:02.15Z</time></trkpt><trkpt lat="46.1526796" lon="9.4936889"><ele>208.66666666666669</ele><time>2026-04-23T08:47:04.151Z</time></trkpt><trkpt lat="46.1527057" lon="9.4935254"><ele>209.0</ele><time>2026-04-23T08:47:06.151Z</time></trkpt><trkpt lat="46.1527238" lon="9.4934261"><ele>209.39999999999998</ele><time>2026-04-23T08:47:07.151Z</time></trkpt><trkpt lat="46.1527525" lon="9.4932653"><ele>209.8</ele><time>2026-04-23T08:47:09.15Z</time></trkpt><trkpt lat="46.1527651" lon="9.4930904"><ele>210.2</ele><time>2026-04-23T08:47:11.151Z</time></trkpt><trkpt lat="46.1527864" lon="9.4929856"><ele>210.60000000000002</ele><time>2026-04-23T08:47:12.15Z</time></trkpt><trkpt lat="46.152788" lon="9.4928842"><ele>211.0</ele><time>2026-04-23T08:47:13.15Z</time></trkpt><trkpt lat="46.1527805" lon="9.4927122"><ele>211.20000000000002</ele><time>2026-04-23T08:47:15.15Z</time></trkpt><trkpt lat="46.1527861" lon="9.4925822"><ele>211.4</ele><time>2026-04-23T08:47:17.151Z</time></trkpt><trkpt lat="46.1527867" lon="9.4924115"><ele>211.6</ele><time>2026-04-23T08:47:19.152Z</time></trkpt><trkpt lat="46.1528069" lon="9.4923008"><ele>211.8</ele><time>2026-04-23T08:47:20.15Z</time></trkpt><trkpt lat="46.1527896" lon="9.4921471"><ele>212.0</ele><time>2026-04-23T08:47:22.152Z</time></trkpt><trkpt lat="46.1527457" lon="9.4920068"><ele>212.39999999999998</ele><time>2026-04-23T08:47:24.151Z</time></trkpt><trkpt lat="46.1527068" lon="9.4918453"><ele>212.79999999999998</ele><time>2026-04-23T08:47:26.152Z</time></trkpt><trkpt lat="46.1526969" lon="9.491755"><ele>213.2</ele><time>2026-04-23T08:47:27.151Z</time></trkpt><trkpt lat="46.1526731" lon="9.4915878"><ele>213.6</ele><time>2026-04-23T08:47:29.152Z</time></trkpt><trkpt lat="46.152663" lon="9.4914097"><ele>214.0</ele><time>2026-04-23T08:47:31.152Z</time></trkpt><trkpt lat="46.1526813" lon="9.491305"><ele>214.2</ele><time>2026-04-23T08:47:32.153Z</time></trkpt><trkpt lat="46.1526894" lon="9.4912132"><ele>214.39999999999998</ele><time>2026-04-23T08:47:33.151Z</time></trkpt><trkpt lat="46.1527004" lon="9.4910459"><ele>214.6</ele><time>2026-04-23T08:47:35.152Z</time></trkpt><trkpt lat="46.15269" lon="9.4908823"><ele>214.8</ele><time>2026-04-23T08:47:37.15Z</time></trkpt><trkpt lat="46.1526777" lon="9.4907883"><ele>215.0</ele><time>2026-04-23T08:47:38.151Z</time></trkpt><trkpt lat="46.1526368" lon="9.4906402"><ele>215.0</ele><time>2026-04-23T08:47:40.151Z</time></trkpt><trkpt lat="46.1525753" lon="9.4905157"><ele>215.0</ele><time>2026-04-23T08:47:42.151Z</time></trkpt><trkpt lat="46.1525195" lon="9.4903934"><ele>215.0</ele><time>2026-04-23T08:47:44.151Z</time></trkpt><trkpt lat="46.1524664" lon="9.4902625"><ele>215.0</ele><time>2026-04-23T08:47:46.152Z</time></trkpt><trkpt lat="46.1524658" lon="9.4901394"><ele>215.0</ele><time>2026-04-23T08:47:48.152Z</time></trkpt><trkpt lat="46.1523755" lon="9.4901029"><ele>213.83333333333334</ele><time>2026-04-23T08:47:51.151Z</time></trkpt><trkpt lat="46.1522901" lon="9.4901196"><ele>212.66666666666669</ele><time>2026-04-23T08:47:53.151Z</time></trkpt><trkpt lat="46.152189" lon="9.4901521"><ele>211.5</ele><time>2026-04-23T08:47:55.152Z</time></trkpt><trkpt lat="46.1521131" lon="9.4901875"><ele>210.33333333333331</ele><time>2026-04-23T08:47:57.151Z</time></trkpt><trkpt lat="46.1520288" lon="9.4902169"><ele>209.16666666666666</ele><time>2026-04-23T08:47:59.15Z</time></trkpt><trkpt lat="46.1519715" lon="9.4902572"><ele>208.0</ele><time>2026-04-23T08:48:01.152Z</time></trkpt><trkpt lat="46.1519126" lon="9.4902103"><ele>208.0</ele><time>2026-04-23T08:48:03.152Z</time></trkpt><trkpt lat="46.1518767" lon="9.4901152"><ele>208.0</ele><time>2026-04-23T08:48:05.152Z</time></trkpt><trkpt lat="46.1518643" lon="9.4899661"><ele>208.0</ele><time>2026-04-23T08:48:07.151Z</time></trkpt><trkpt lat="46.1518559" lon="9.4898118"><ele>208.0</ele><time>2026-04-23T08:48:09.152Z</time></trkpt><trkpt lat="46.1518306" lon="9.4896545"><ele>208.0</ele><time>2026-04-23T08:48:11.152Z</time></trkpt><trkpt lat="46.1517942" lon="9.4894904"><ele>208.4</ele><time>2026-04-23T08:48:13.15Z</time></trkpt><trkpt lat="46.151773" lon="9.4893356"><ele>208.8</ele><time>2026-04-23T08:48:15.152Z</time></trkpt><trkpt lat="46.1517453" lon="9.4891628"><ele>209.2</ele><time>2026-04-23T08:48:17.152Z</time></trkpt><trkpt lat="46.1517441" lon="9.4890705"><ele>209.6</ele><time>2026-04-23T08:48:18.152Z</time></trkpt><trkpt lat="46.1517352" lon="9.4889031"><ele>210.0</ele><time>2026-04-23T08:48:20.152Z</time></trkpt><trkpt lat="46.1517296" lon="9.488805"><ele>210.0</ele><time>2026-04-23T08:48:21.152Z</time></trkpt><trkpt lat="46.151701" lon="9.4886956"><ele>210.0</ele><time>2026-04-23T08:48:22.151Z</time></trkpt><trkpt lat="46.1516955" lon="9.4885191"><ele>210.0</ele><time>2026-04-23T08:48:24.151Z</time></trkpt><trkpt lat="46.1516814" lon="9.4884226"><ele>210.0</ele><time>2026-04-23T08:48:25.151Z</time></trkpt><trkpt lat="46.1516353" lon="9.4882527"><ele>210.0</ele><time>2026-04-23T08:48:27.151Z</time></trkpt><trkpt lat="46.1516125" lon="9.4881531"><ele>210.0</ele><time>2026-04-23T08:48:28.15Z</time></trkpt><trkpt lat="46.1516163" lon="9.4880535"><ele>210.0</ele><time>2026-04-23T08:48:29.151Z</time></trkpt><trkpt lat="46.1515935" lon="9.487905"><ele>210.0</ele><time>2026-04-23T08:48:31.152Z</time></trkpt><trkpt lat="46.1515711" lon="9.4877611"><ele>210.0</ele><time>2026-04-23T08:48:33.15Z</time></trkpt><trkpt lat="46.151536" lon="9.4876344"><ele>210.0</ele><time>2026-04-23T08:48:35.152Z</time></trkpt><trkpt lat="46.1515059" lon="9.4874824"><ele>209.0</ele><time>2026-04-23T08:48:37.152Z</time></trkpt><trkpt lat="46.1514941" lon="9.4873131"><ele>208.0</ele><time>2026-04-23T08:48:39.15Z</time></trkpt><trkpt lat="46.1514969" lon="9.4871414"><ele>207.0</ele><time>2026-04-23T08:48:41.152Z</time></trkpt><trkpt lat="46.1514972" lon="9.4870481"><ele>206.0</ele><time>2026-04-23T08:48:42.152Z</time></trkpt><trkpt lat="46.1514946" lon="9.4868834"><ele>205.0</ele><time>2026-04-23T08:48:44.151Z</time></trkpt><trkpt lat="46.1515055" lon="9.4867093"><ele>205.0</ele><time>2026-04-23T08:48:46.15Z</time></trkpt><trkpt lat="46.1515088" lon="9.4865381"><ele>205.0</ele><time>2026-04-23T08:48:48.15Z</time></trkpt><trkpt lat="46.151522" lon="9.4863733"><ele>205.0</ele><time>2026-04-23T08:48:50.152Z</time></trkpt><trkpt lat="46.1515253" lon="9.4862427"><ele>205.0</ele><time>2026-04-23T08:48:52.15Z</time></trkpt><trkpt lat="46.1515527" lon="9.4861135"><ele>205.0</ele><time>2026-04-23T08:48:54.152Z</time></trkpt><trkpt lat="46.1515702" lon="9.4859751"><ele>205.0</ele><time>2026-04-23T08:48:56.15Z</time></trkpt><trkpt lat="46.1515588" lon="9.4858398"><ele>205.0</ele><time>2026-04-23T08:48:58.151Z</time></trkpt><trkpt lat="46.1514854" lon="9.4857649"><ele>205.0</ele><time>2026-04-23T08:49:00.151Z</time></trkpt><trkpt lat="46.1513945" lon="9.4857939"><ele>205.0</ele><time>2026-04-23T08:49:02.151Z</time></trkpt><trkpt lat="46.1513166" lon="9.4858898"><ele>205.0</ele><time>2026-04-23T08:49:04.151Z</time></trkpt><trkpt lat="46.1512524" lon="9.4860087"><ele>205.0</ele><time>2026-04-23T08:49:06.152Z</time></trkpt><trkpt lat="46.1511731" lon="9.4860976"><ele>205.0</ele><time>2026-04-23T08:49:08.152Z</time></trkpt><trkpt lat="46.1510794" lon="9.4861381"><ele>205.0</ele><time>2026-04-23T08:49:10.151Z</time></trkpt><trkpt lat="46.1509823" lon="9.4861464"><ele>205.0</ele><time>2026-04-23T08:49:12.151Z</time></trkpt><trkpt lat="46.1508795" lon="9.4861553"><ele>205.0</ele><time>2026-04-23T08:49:14.151Z</time></trkpt><trkpt lat="46.1507711" lon="9.486156"><ele>205.4</ele><time>2026-04-23T08:49:16.151Z</time></trkpt><trkpt lat="46.150681" lon="9.4861354"><ele>205.8</ele><time>2026-04-23T08:49:18.151Z</time></trkpt><trkpt lat="46.1505767" lon="9.4861432"><ele>206.2</ele><time>2026-04-23T08:49:20.151Z</time></trkpt><trkpt lat="46.1505091" lon="9.4861481"><ele>206.6</ele><time>2026-04-23T08:49:21.151Z</time></trkpt><trkpt lat="46.1504037" lon="9.4861374"><ele>207.0</ele><time>2026-04-23T08:49:23.152Z</time></trkpt><trkpt lat="46.1502934" lon="9.4861337"><ele>207.0</ele><time>2026-04-23T08:49:25.151Z</time></trkpt><trkpt lat="46.1501896" lon="9.4860533"><ele>207.0</ele><time>2026-04-23T08:49:27.152Z</time></trkpt><trkpt lat="46.1501085" lon="9.4859052"><ele>207.0</ele><time>2026-04-23T08:49:29.151Z</time></trkpt><trkpt lat="46.1500411" lon="9.4857507"><ele>207.0</ele><time>2026-04-23T08:49:31.152Z</time></trkpt><trkpt lat="46.1500134" lon="9.4856634"><ele>207.0</ele><time>2026-04-23T08:49:32.151Z</time></trkpt><trkpt lat="46.1499726" lon="9.4854956"><ele>207.0</ele><time>2026-04-23T08:49:34.151Z</time></trkpt><trkpt lat="46.1499233" lon="9.4853421"><ele>207.0</ele><time>2026-04-23T08:49:36.151Z</time></trkpt><trkpt lat="46.1498925" lon="9.4851866"><ele>207.0</ele><time>2026-04-23T08:49:38.151Z</time></trkpt><trkpt lat="46.1498621" lon="9.4850136"><ele>207.0</ele><time>2026-04-23T08:49:40.152Z</time></trkpt><trkpt lat="46.1498414" lon="9.4849274"><ele>207.0</ele><time>2026-04-23T08:49:41.152Z</time></trkpt><trkpt lat="46.1498193" lon="9.4847596"><ele>207.2</ele><time>2026-04-23T08:49:43.151Z</time></trkpt><trkpt lat="46.1497871" lon="9.4845935"><ele>207.39999999999998</ele><time>2026-04-23T08:49:45.152Z</time></trkpt><trkpt lat="46.1497494" lon="9.4844199"><ele>207.60000000000002</ele><time>2026-04-23T08:49:47.151Z</time></trkpt><trkpt lat="46.149731" lon="9.4843275"><ele>207.8</ele><time>2026-04-23T08:49:48.152Z</time></trkpt><trkpt lat="46.149697" lon="9.4841569"><ele>208.0</ele><time>2026-04-23T08:49:50.151Z</time></trkpt><trkpt lat="46.1496705" lon="9.4839972"><ele>207.99999999999997</ele><time>2026-04-23T08:49:52.151Z</time></trkpt><trkpt lat="46.149652" lon="9.4839091"><ele>208.0</ele><time>2026-04-23T08:49:53.152Z</time></trkpt><trkpt lat="46.1496296" lon="9.4838141"><ele>208.0</ele><time>2026-04-23T08:49:54.152Z</time></trkpt><trkpt lat="46.1495791" lon="9.4836386"><ele>208.0</ele><time>2026-04-23T08:49:56.152Z</time></trkpt><trkpt lat="46.1495556" lon="9.483551"><ele>207.99999999999997</ele><time>2026-04-23T08:49:57.152Z</time></trkpt><trkpt lat="46.1495354" lon="9.4834643"><ele>208.0</ele><time>2026-04-23T08:49:58.151Z</time></trkpt><trkpt lat="46.1495026" lon="9.4833003"><ele>208.2</ele><time>2026-04-23T08:50:00.152Z</time></trkpt><trkpt lat="46.1494822" lon="9.4832136"><ele>208.4</ele><time>2026-04-23T08:50:01.152Z</time></trkpt><trkpt lat="46.1494469" lon="9.483043"><ele>208.6</ele><time>2026-04-23T08:50:03.152Z</time></trkpt><trkpt lat="46.1494091" lon="9.4828739"><ele>208.79999999999998</ele><time>2026-04-23T08:50:05.151Z</time></trkpt><trkpt lat="46.1493779" lon="9.4827025"><ele>209.0</ele><time>2026-04-23T08:50:07.152Z</time></trkpt><trkpt lat="46.1493395" lon="9.4825405"><ele>208.6</ele><time>2026-04-23T08:50:09.151Z</time></trkpt><trkpt lat="46.1493095" lon="9.482385"><ele>208.2</ele><time>2026-04-23T08:50:11.152Z</time></trkpt><trkpt lat="46.1492738" lon="9.4822278"><ele>207.79999999999998</ele><time>2026-04-23T08:50:13.151Z</time></trkpt><trkpt lat="46.1492319" lon="9.4820975"><ele>207.39999999999998</ele><time>2026-04-23T08:50:15.152Z</time></trkpt><trkpt lat="46.1491978" lon="9.4819482"><ele>207.0</ele><time>2026-04-23T08:50:17.151Z</time></trkpt><trkpt lat="46.1491651" lon="9.4817981"><ele>207.0</ele><time>2026-04-23T08:50:19.151Z</time></trkpt><trkpt lat="46.1491494" lon="9.4816408"><ele>207.0</ele><time>2026-04-23T08:50:21.152Z</time></trkpt><trkpt lat="46.1491341" lon="9.4815138"><ele>207.0</ele><time>2026-04-23T08:50:23.151Z</time></trkpt><trkpt lat="46.1490947" lon="9.4814229"><ele>207.0</ele><time>2026-04-23T08:50:49.151Z</time></trkpt><trkpt lat="46.1490578" lon="9.4813374"><ele>207.0</ele><time>2026-04-23T08:50:53.151Z</time></trkpt><trkpt lat="46.1490242" lon="9.4812197"><ele>207.0</ele><time>2026-04-23T08:50:56.15Z</time></trkpt><trkpt lat="46.1489952" lon="9.4811287"><ele>206.83333333333334</ele><time>2026-04-23T08:50:58.152Z</time></trkpt><trkpt lat="46.1489783" lon="9.4810208"><ele>206.66666666666669</ele><time>2026-04-23T08:51:00.151Z</time></trkpt><trkpt lat="46.1489572" lon="9.4809062"><ele>206.5</ele><time>2026-04-23T08:51:02.152Z</time></trkpt><trkpt lat="46.1489319" lon="9.4808037"><ele>206.33333333333334</ele><time>2026-04-23T08:51:04.152Z</time></trkpt><trkpt lat="46.1489186" lon="9.4807079"><ele>206.16666666666669</ele><time>2026-04-23T08:51:07.151Z</time></trkpt><trkpt lat="46.1488928" lon="9.4806104"><ele>206.0</ele><time>2026-04-23T08:51:24.154Z</time></trkpt><trkpt lat="46.1488711" lon="9.4805055"><ele>206.00000000000003</ele><time>2026-04-23T08:51:27.151Z</time></trkpt><trkpt lat="46.1488347" lon="9.4803796"><ele>206.0</ele><time>2026-04-23T08:51:30.151Z</time></trkpt><trkpt lat="46.1488083" lon="9.4802783"><ele>206.0</ele><time>2026-04-23T08:51:32.152Z</time></trkpt><trkpt lat="46.1487813" lon="9.4801603"><ele>206.0</ele><time>2026-04-23T08:51:34.151Z</time></trkpt><trkpt lat="46.1487523" lon="9.4800444"><ele>206.00000000000003</ele><time>2026-04-23T08:51:36.152Z</time></trkpt><trkpt lat="46.1487326" lon="9.4799368"><ele>206.0</ele><time>2026-04-23T08:51:38.151Z</time></trkpt><trkpt lat="46.1487072" lon="9.4798378"><ele>206.00000000000003</ele><time>2026-04-23T08:51:40.151Z</time></trkpt><trkpt lat="46.148689" lon="9.479732"><ele>206.0</ele><time>2026-04-23T08:51:42.151Z</time></trkpt><trkpt lat="46.1486684" lon="9.4796179"><ele>206.0</ele><time>2026-04-23T08:51:44.152Z</time></trkpt><trkpt lat="46.1486457" lon="9.4794925"><ele>206.0</ele><time>2026-04-23T08:51:46.151Z</time></trkpt><trkpt lat="46.1486148" lon="9.4793567"><ele>206.00000000000003</ele><time>2026-04-23T08:51:48.151Z</time></trkpt><trkpt lat="46.1485813" lon="9.479217"><ele>206.0</ele><time>2026-04-23T08:51:50.151Z</time></trkpt><trkpt lat="46.1485366" lon="9.4790634"><ele>205.8</ele><time>2026-04-23T08:51:52.152Z</time></trkpt><trkpt lat="46.1485048" lon="9.4789197"><ele>205.60000000000002</ele><time>2026-04-23T08:51:54.153Z</time></trkpt><trkpt lat="46.1484659" lon="9.4787883"><ele>205.4</ele><time>2026-04-23T08:51:56.151Z</time></trkpt><trkpt lat="46.1484257" lon="9.4786466"><ele>205.2</ele><time>2026-04-23T08:51:58.153Z</time></trkpt><trkpt lat="46.148394" lon="9.4785298"><ele>205.0</ele><time>2026-04-23T08:52:00.152Z</time></trkpt><trkpt lat="46.1483696" lon="9.4784072"><ele>205.4</ele><time>2026-04-23T08:52:02.154Z</time></trkpt><trkpt lat="46.1483068" lon="9.4783382"><ele>205.8</ele><time>2026-04-23T08:52:04.151Z</time></trkpt><trkpt lat="46.148216" lon="9.4783103"><ele>206.2</ele><time>2026-04-23T08:52:06.151Z</time></trkpt><trkpt lat="46.1481117" lon="9.478265"><ele>206.6</ele><time>2026-04-23T08:52:08.151Z</time></trkpt><trkpt lat="46.1480129" lon="9.478227"><ele>207.0</ele><time>2026-04-23T08:52:10.151Z</time></trkpt><trkpt lat="46.1479065" lon="9.4781874"><ele>207.0</ele><time>2026-04-23T08:52:12.152Z</time></trkpt><trkpt lat="46.1477982" lon="9.4781551"><ele>207.0</ele><time>2026-04-23T08:52:14.151Z</time></trkpt><trkpt lat="46.1477328" lon="9.4781375"><ele>207.0</ele><time>2026-04-23T08:52:15.151Z</time></trkpt><trkpt lat="46.1476629" lon="9.4781209"><ele>207.0</ele><time>2026-04-23T08:52:16.153Z</time></trkpt><trkpt lat="46.1475532" lon="9.4781014"><ele>207.0</ele><time>2026-04-23T08:52:18.151Z</time></trkpt><trkpt lat="46.1474422" lon="9.4780625"><ele>207.2</ele><time>2026-04-23T08:52:20.151Z</time></trkpt><trkpt lat="46.1473445" lon="9.477999"><ele>207.39999999999998</ele><time>2026-04-23T08:52:22.152Z</time></trkpt><trkpt lat="46.147312" lon="9.4778688"><ele>207.60000000000002</ele><time>2026-04-23T08:52:24.152Z</time></trkpt><trkpt lat="46.1473273" lon="9.4777237"><ele>207.8</ele><time>2026-04-23T08:52:26.153Z</time></trkpt><trkpt lat="46.1473238" lon="9.4775798"><ele>208.0</ele><time>2026-04-23T08:52:28.152Z</time></trkpt><trkpt lat="46.1473222" lon="9.4774718"><ele>208.0</ele><time>2026-04-23T08:52:29.153Z</time></trkpt><trkpt lat="46.1472878" lon="9.4773079"><ele>208.0</ele><time>2026-04-23T08:52:31.151Z</time></trkpt><trkpt lat="46.1472579" lon="9.4771506"><ele>208.0</ele><time>2026-04-23T08:52:33.154Z</time></trkpt><trkpt lat="46.1472577" lon="9.4770453"><ele>208.0</ele><time>2026-04-23T08:52:34.151Z</time></trkpt><trkpt lat="46.1472381" lon="9.4769542"><ele>208.0</ele><time>2026-04-23T08:52:35.152Z</time></trkpt><trkpt lat="46.1472113" lon="9.476786"><ele>207.4</ele><time>2026-04-23T08:52:37.152Z</time></trkpt><trkpt lat="46.1472126" lon="9.476616"><ele>206.8</ele><time>2026-04-23T08:52:39.152Z</time></trkpt><trkpt lat="46.1472031" lon="9.4765172"><ele>206.2</ele><time>2026-04-23T08:52:40.152Z</time></trkpt><trkpt lat="46.1471853" lon="9.4763441"><ele>205.6</ele><time>2026-04-23T08:52:42.153Z</time></trkpt><trkpt lat="46.1471632" lon="9.4761593"><ele>205.0</ele><time>2026-04-23T08:52:44.152Z</time></trkpt><trkpt lat="46.1471523" lon="9.4760678"><ele>204.8</ele><time>2026-04-23T08:52:45.152Z</time></trkpt><trkpt lat="46.1471277" lon="9.4758845"><ele>204.6</ele><time>2026-04-23T08:52:47.152Z</time></trkpt><trkpt lat="46.147123" lon="9.4757883"><ele>204.39999999999998</ele><time>2026-04-23T08:52:48.151Z</time></trkpt><trkpt lat="46.1471" lon="9.4756076"><ele>204.2</ele><time>2026-04-23T08:52:50.152Z</time></trkpt><trkpt lat="46.1470847" lon="9.4755135"><ele>204.0</ele><time>2026-04-23T08:52:51.152Z</time></trkpt><trkpt lat="46.1470805" lon="9.4754088"><ele>205.2</ele><time>2026-04-23T08:52:52.151Z</time></trkpt><trkpt lat="46.1470772" lon="9.4752485"><ele>206.39999999999998</ele><time>2026-04-23T08:52:54.153Z</time></trkpt><trkpt lat="46.1471084" lon="9.4750764"><ele>207.6</ele><time>2026-04-23T08:52:56.152Z</time></trkpt><trkpt lat="46.1471573" lon="9.4749522"><ele>208.8</ele><time>2026-04-23T08:52:58.152Z</time></trkpt><trkpt lat="46.1471818" lon="9.474853"><ele>210.0</ele><time>2026-04-23T08:52:59.152Z</time></trkpt><trkpt lat="46.1472368" lon="9.4746851"><ele>210.4</ele><time>2026-04-23T08:53:01.152Z</time></trkpt><trkpt lat="46.1472842" lon="9.4745367"><ele>210.8</ele><time>2026-04-23T08:53:03.153Z</time></trkpt><trkpt lat="46.1473288" lon="9.4743445"><ele>211.2</ele><time>2026-04-23T08:53:05.152Z</time></trkpt><trkpt lat="46.1473605" lon="9.4742036"><ele>211.6</ele><time>2026-04-23T08:53:07.151Z</time></trkpt><trkpt lat="46.1473946" lon="9.4741121"><ele>212.0</ele><time>2026-04-23T08:53:08.152Z</time></trkpt><trkpt lat="46.1474348" lon="9.4739555"><ele>211.66666666666669</ele><time>2026-04-23T08:53:10.151Z</time></trkpt><trkpt lat="46.1474652" lon="9.4738461"><ele>211.33333333333334</ele><time>2026-04-23T08:53:11.151Z</time></trkpt><trkpt lat="46.1474799" lon="9.4737577"><ele>211.0</ele><time>2026-04-23T08:53:13.151Z</time></trkpt><trkpt lat="46.1475006" lon="9.4736219"><ele>210.66666666666669</ele><time>2026-04-23T08:53:14.153Z</time></trkpt><trkpt lat="46.1475247" lon="9.4735118"><ele>210.33333333333334</ele><time>2026-04-23T08:53:15.152Z</time></trkpt><trkpt lat="46.1475437" lon="9.4734204"><ele>210.0</ele><time>2026-04-23T08:53:16.152Z</time></trkpt><trkpt lat="46.1475731" lon="9.4732769"><ele>210.0</ele><time>2026-04-23T08:53:18.153Z</time></trkpt><trkpt lat="46.1476059" lon="9.4731379"><ele>210.0</ele><time>2026-04-23T08:53:20.151Z</time></trkpt><trkpt lat="46.1476416" lon="9.4729734"><ele>210.0</ele><time>2026-04-23T08:53:22.153Z</time></trkpt><trkpt lat="46.1476616" lon="9.472876"><ele>210.0</ele><time>2026-04-23T08:53:23.152Z</time></trkpt><trkpt lat="46.1477002" lon="9.4727141"><ele>210.0</ele><time>2026-04-23T08:53:25.153Z</time></trkpt><trkpt lat="46.147724" lon="9.4726231"><ele>209.66666666666666</ele><time>2026-04-23T08:53:26.152Z</time></trkpt><trkpt lat="46.1477389" lon="9.4725316"><ele>209.33333333333331</ele><time>2026-04-23T08:53:27.152Z</time></trkpt><trkpt lat="46.1477641" lon="9.472355"><ele>209.0</ele><time>2026-04-23T08:53:29.152Z</time></trkpt><trkpt lat="46.147783" lon="9.4722368"><ele>208.66666666666666</ele><time>2026-04-23T08:53:30.152Z</time></trkpt><trkpt lat="46.1478034" lon="9.4721413"><ele>208.33333333333331</ele><time>2026-04-23T08:53:31.151Z</time></trkpt><trkpt lat="46.1478254" lon="9.472035"><ele>208.0</ele><time>2026-04-23T08:53:32.153Z</time></trkpt><trkpt lat="46.1478536" lon="9.471855"><ele>207.5</ele><time>2026-04-23T08:53:34.151Z</time></trkpt><trkpt lat="46.1478945" lon="9.4716836"><ele>207.0</ele><time>2026-04-23T08:53:36.152Z</time></trkpt><trkpt lat="46.14793" lon="9.4715236"><ele>206.5</ele><time>2026-04-23T08:53:38.151Z</time></trkpt><trkpt lat="46.1479729" lon="9.4713471"><ele>206.0</ele><time>2026-04-23T08:53:40.152Z</time></trkpt><trkpt lat="46.1479734" lon="9.4712025"><ele>206.0</ele><time>2026-04-23T08:53:42.152Z</time></trkpt><trkpt lat="46.1479481" lon="9.4710616"><ele>206.0</ele><time>2026-04-23T08:53:44.152Z</time></trkpt><trkpt lat="46.1478945" lon="9.4709488"><ele>206.0</ele><time>2026-04-23T08:53:46.152Z</time></trkpt><trkpt lat="46.147843" lon="9.4708044"><ele>206.0</ele><time>2026-04-23T08:53:48.152Z</time></trkpt><trkpt lat="46.1477798" lon="9.4706534"><ele>206.0</ele><time>2026-04-23T08:53:50.152Z</time></trkpt><trkpt lat="46.1477413" lon="9.4705794"><ele>206.00000000000003</ele><time>2026-04-23T08:53:51.153Z</time></trkpt><trkpt lat="46.1477078" lon="9.4704978"><ele>206.0</ele><time>2026-04-23T08:53:52.151Z</time></trkpt><trkpt lat="46.147679" lon="9.4704117"><ele>206.0</ele><time>2026-04-23T08:53:53.152Z</time></trkpt><trkpt lat="46.1476211" lon="9.4702987"><ele>206.0</ele><time>2026-04-23T08:53:55.152Z</time></trkpt><trkpt lat="46.1475705" lon="9.4702408"><ele>206.00000000000003</ele><time>2026-04-23T08:53:56.153Z</time></trkpt><trkpt lat="46.1475247" lon="9.4701632"><ele>206.0</ele><time>2026-04-23T08:53:57.152Z</time></trkpt><trkpt lat="46.1474448" lon="9.4700564"><ele>205.83333333333334</ele><time>2026-04-23T08:53:59.153Z</time></trkpt><trkpt lat="46.1473748" lon="9.4700307"><ele>205.66666666666669</ele><time>2026-04-23T08:54:00.152Z</time></trkpt><trkpt lat="46.1473065" lon="9.4700026"><ele>205.5</ele><time>2026-04-23T08:54:01.152Z</time></trkpt><trkpt lat="46.1472332" lon="9.4698864"><ele>205.33333333333331</ele><time>2026-04-23T08:54:03.153Z</time></trkpt><trkpt lat="46.1472226" lon="9.4697893"><ele>205.16666666666666</ele><time>2026-04-23T08:54:04.153Z</time></trkpt><trkpt lat="46.1472331" lon="9.4696376"><ele>205.0</ele><time>2026-04-23T08:54:06.151Z</time></trkpt><trkpt lat="46.1472834" lon="9.4695072"><ele>205.0</ele><time>2026-04-23T08:54:08.152Z</time></trkpt><trkpt lat="46.147323" lon="9.4693504"><ele>205.0</ele><time>2026-04-23T08:54:10.152Z</time></trkpt><trkpt lat="46.1473876" lon="9.4691866"><ele>205.0</ele><time>2026-04-23T08:54:12.152Z</time></trkpt><trkpt lat="46.1474469" lon="9.4690344"><ele>205.0</ele><time>2026-04-23T08:54:14.152Z</time></trkpt><trkpt lat="46.1474689" lon="9.468946"><ele>205.0</ele><time>2026-04-23T08:54:15.152Z</time></trkpt><trkpt lat="46.147492" lon="9.4688609"><ele>204.8</ele><time>2026-04-23T08:54:16.152Z</time></trkpt><trkpt lat="46.147492" lon="9.4687646"><ele>204.6</ele><time>2026-04-23T08:54:17.153Z</time></trkpt><trkpt lat="46.147454" lon="9.4686019"><ele>204.39999999999998</ele><time>2026-04-23T08:54:19.153Z</time></trkpt><trkpt lat="46.1473947" lon="9.4684481"><ele>204.2</ele><time>2026-04-23T08:54:21.152Z</time></trkpt><trkpt lat="46.147363" lon="9.4683683"><ele>204.0</ele><time>2026-04-23T08:54:22.152Z</time></trkpt><trkpt lat="46.1473146" lon="9.4681975"><ele>204.0</ele><time>2026-04-23T08:54:24.152Z</time></trkpt><trkpt lat="46.1472956" lon="9.4681096"><ele>204.0</ele><time>2026-04-23T08:54:25.152Z</time></trkpt><trkpt lat="46.1472561" lon="9.4679427"><ele>204.0</ele><time>2026-04-23T08:54:27.153Z</time></trkpt><trkpt lat="46.147242" lon="9.4678451"><ele>204.0</ele><time>2026-04-23T08:54:28.152Z</time></trkpt><trkpt lat="46.147215" lon="9.4676853"><ele>204.0</ele><time>2026-04-23T08:54:30.152Z</time></trkpt><trkpt lat="46.1471782" lon="9.4675201"><ele>204.0</ele><time>2026-04-23T08:54:32.151Z</time></trkpt><trkpt lat="46.1471359" lon="9.4673614"><ele>204.0</ele><time>2026-04-23T08:54:34.152Z</time></trkpt><trkpt lat="46.147117" lon="9.4672747"><ele>204.0</ele><time>2026-04-23T08:54:35.153Z</time></trkpt><trkpt lat="46.1470904" lon="9.4671115"><ele>204.0</ele><time>2026-04-23T08:54:37.154Z</time></trkpt><trkpt lat="46.1470736" lon="9.467022"><ele>204.0</ele><time>2026-04-23T08:54:38.153Z</time></trkpt><trkpt lat="46.1470643" lon="9.466929"><ele>204.0</ele><time>2026-04-23T08:54:39.152Z</time></trkpt><trkpt lat="46.1470324" lon="9.4667535"><ele>204.0</ele><time>2026-04-23T08:54:41.153Z</time></trkpt><trkpt lat="46.1469938" lon="9.466587"><ele>204.0</ele><time>2026-04-23T08:54:43.152Z</time></trkpt><trkpt lat="46.1469793" lon="9.466497"><ele>204.0</ele><time>2026-04-23T08:54:44.151Z</time></trkpt><trkpt lat="46.1469633" lon="9.4664051"><ele>204.0</ele><time>2026-04-23T08:54:45.153Z</time></trkpt><trkpt lat="46.1469484" lon="9.4663114"><ele>204.0</ele><time>2026-04-23T08:54:46.152Z</time></trkpt><trkpt lat="46.1469338" lon="9.4662023"><ele>204.0</ele><time>2026-04-23T08:54:47.153Z</time></trkpt><trkpt lat="46.1469177" lon="9.4661129"><ele>204.0</ele><time>2026-04-23T08:54:48.152Z</time></trkpt><trkpt lat="46.1468745" lon="9.465956"><ele>204.0</ele><time>2026-04-23T08:54:50.152Z</time></trkpt><trkpt lat="46.1468569" lon="9.4658604"><ele>204.0</ele><time>2026-04-23T08:54:51.151Z</time></trkpt><trkpt lat="46.1468372" lon="9.4657661"><ele>204.0</ele><time>2026-04-23T08:54:52.153Z</time></trkpt><trkpt lat="46.1468313" lon="9.4656739"><ele>204.0</ele><time>2026-04-23T08:54:53.153Z</time></trkpt><trkpt lat="46.1468178" lon="9.4654956"><ele>204.0</ele><time>2026-04-23T08:54:55.151Z</time></trkpt><trkpt lat="46.1468213" lon="9.4653329"><ele>204.0</ele><time>2026-04-23T08:54:57.154Z</time></trkpt><trkpt lat="46.1468105" lon="9.465181"><ele>204.0</ele><time>2026-04-23T08:54:59.152Z</time></trkpt><trkpt lat="46.1468253" lon="9.4650344"><ele>204.0</ele><time>2026-04-23T08:55:01.153Z</time></trkpt><trkpt lat="46.1468341" lon="9.4648673"><ele>204.0</ele><time>2026-04-23T08:55:03.152Z</time></trkpt><trkpt lat="46.1468351" lon="9.4647159"><ele>204.0</ele><time>2026-04-23T08:55:05.151Z</time></trkpt><trkpt lat="46.146871" lon="9.4645529"><ele>204.25</ele><time>2026-04-23T08:55:07.151Z</time></trkpt><trkpt lat="46.1469157" lon="9.4644184"><ele>204.5</ele><time>2026-04-23T08:55:09.152Z</time></trkpt><trkpt lat="46.1469751" lon="9.4642608"><ele>204.75</ele><time>2026-04-23T08:55:11.152Z</time></trkpt><trkpt lat="46.147043" lon="9.4641128"><ele>205.0</ele><time>2026-04-23T08:55:13.153Z</time></trkpt><trkpt lat="46.1470987" lon="9.4639931"><ele>205.0</ele><time>2026-04-23T08:55:15.151Z</time></trkpt><trkpt lat="46.1471908" lon="9.4637808"><ele>205.0</ele><time>2026-04-23T08:55:18.151Z</time></trkpt><trkpt lat="46.1472323" lon="9.4636563"><ele>205.0</ele><time>2026-04-23T08:55:20.152Z</time></trkpt><trkpt lat="46.1472889" lon="9.4635189"><ele>205.0</ele><time>2026-04-23T08:55:22.153Z</time></trkpt><trkpt lat="46.1473427" lon="9.4633964"><ele>204.8</ele><time>2026-04-23T08:55:24.153Z</time></trkpt><trkpt lat="46.1474013" lon="9.4632907"><ele>204.6</ele><time>2026-04-23T08:55:26.152Z</time></trkpt><trkpt lat="46.1474689" lon="9.4631695"><ele>204.39999999999998</ele><time>2026-04-23T08:55:28.151Z</time></trkpt><trkpt lat="46.1475375" lon="9.4630523"><ele>204.2</ele><time>2026-04-23T08:55:30.152Z</time></trkpt><trkpt lat="46.1476059" lon="9.4629521"><ele>204.0</ele><time>2026-04-23T08:55:32.151Z</time></trkpt><trkpt lat="46.1476752" lon="9.4628384"><ele>204.0</ele><time>2026-04-23T08:55:34.152Z</time></trkpt><trkpt lat="46.1477482" lon="9.4627345"><ele>204.0</ele><time>2026-04-23T08:55:36.152Z</time></trkpt><trkpt lat="46.1478221" lon="9.4626358"><ele>204.0</ele><time>2026-04-23T08:55:38.152Z</time></trkpt><trkpt lat="46.1479024" lon="9.4625322"><ele>204.0</ele><time>2026-04-23T08:55:40.152Z</time></trkpt><trkpt lat="46.1479872" lon="9.4624215"><ele>204.0</ele><time>2026-04-23T08:55:42.153Z</time></trkpt><trkpt lat="46.1480693" lon="9.4623224"><ele>204.0</ele><time>2026-04-23T08:55:44.152Z</time></trkpt><trkpt lat="46.1481497" lon="9.462226"><ele>204.0</ele><time>2026-04-23T08:55:46.152Z</time></trkpt><trkpt lat="46.1482321" lon="9.4621306"><ele>204.0</ele><time>2026-04-23T08:55:48.152Z</time></trkpt><trkpt lat="46.1483098" lon="9.4620492"><ele>204.0</ele><time>2026-04-23T08:55:50.153Z</time></trkpt><trkpt lat="46.1483807" lon="9.4619674"><ele>204.0</ele><time>2026-04-23T08:55:52.152Z</time></trkpt><trkpt lat="46.1484503" lon="9.4618761"><ele>203.79999999999998</ele><time>2026-04-23T08:55:54.153Z</time></trkpt><trkpt lat="46.1485145" lon="9.4617922"><ele>203.6</ele><time>2026-04-23T08:55:56.152Z</time></trkpt><trkpt lat="46.1485982" lon="9.4617112"><ele>203.4</ele><time>2026-04-23T08:55:58.152Z</time></trkpt><trkpt lat="46.1486659" lon="9.4616159"><ele>203.2</ele><time>2026-04-23T08:56:00.151Z</time></trkpt><trkpt lat="46.1487385" lon="9.461537"><ele>203.0</ele><time>2026-04-23T08:56:02.153Z</time></trkpt><trkpt lat="46.1488117" lon="9.4614419"><ele>203.0</ele><time>2026-04-23T08:56:04.152Z</time></trkpt><trkpt lat="46.148877" lon="9.4613533"><ele>203.0</ele><time>2026-04-23T08:56:06.153Z</time></trkpt><trkpt lat="46.1489479" lon="9.461244"><ele>203.0</ele><time>2026-04-23T08:56:08.154Z</time></trkpt><trkpt lat="46.1490158" lon="9.4611522"><ele>203.0</ele><time>2026-04-23T08:56:10.153Z</time></trkpt><trkpt lat="46.1490758" lon="9.4610329"><ele>203.0</ele><time>2026-04-23T08:56:12.151Z</time></trkpt><trkpt lat="46.1491148" lon="9.4609089"><ele>203.0</ele><time>2026-04-23T08:56:14.152Z</time></trkpt><trkpt lat="46.1491648" lon="9.4607707"><ele>203.0</ele><time>2026-04-23T08:56:16.152Z</time></trkpt><trkpt lat="46.1491987" lon="9.4606514"><ele>203.0</ele><time>2026-04-23T08:56:18.152Z</time></trkpt><trkpt lat="46.1492337" lon="9.4605488"><ele>203.0</ele><time>2026-04-23T08:56:20.151Z</time></trkpt><trkpt lat="46.1492738" lon="9.4604325"><ele>203.0</ele><time>2026-04-23T08:56:22.153Z</time></trkpt><trkpt lat="46.1493393" lon="9.4603123"><ele>203.00000000000003</ele><time>2026-04-23T08:56:24.153Z</time></trkpt><trkpt lat="46.1493675" lon="9.460229"><ele>203.0</ele><time>2026-04-23T08:56:25.152Z</time></trkpt><trkpt lat="46.1493965" lon="9.4601434"><ele>203.0</ele><time>2026-04-23T08:56:26.153Z</time></trkpt><trkpt lat="46.1494251" lon="9.4600591"><ele>203.0</ele><time>2026-04-23T08:56:27.154Z</time></trkpt><trkpt lat="46.14945" lon="9.4598521"><ele>203.00000000000003</ele><time>2026-04-23T08:56:29.152Z</time></trkpt><trkpt lat="46.1495082" lon="9.4597787"><ele>203.0</ele><time>2026-04-23T08:56:30.151Z</time></trkpt><trkpt lat="46.1495684" lon="9.459621"><ele>203.0</ele><time>2026-04-23T08:56:32.151Z</time></trkpt><trkpt lat="46.1495748" lon="9.4595282"><ele>203.0</ele><time>2026-04-23T08:56:33.151Z</time></trkpt><trkpt lat="46.1495843" lon="9.4594356"><ele>203.0</ele><time>2026-04-23T08:56:34.152Z</time></trkpt><trkpt lat="46.1495717" lon="9.4592663"><ele>203.0</ele><time>2026-04-23T08:56:36.152Z</time></trkpt><trkpt lat="46.1495659" lon="9.4591093"><ele>203.0</ele><time>2026-04-23T08:56:38.152Z</time></trkpt><trkpt lat="46.1495156" lon="9.4589705"><ele>203.0</ele><time>2026-04-23T08:56:40.153Z</time></trkpt><trkpt lat="46.1494591" lon="9.4588748"><ele>203.0</ele><time>2026-04-23T08:56:42.152Z</time></trkpt><trkpt lat="46.149403" lon="9.4587541"><ele>203.0</ele><time>2026-04-23T08:56:44.152Z</time></trkpt><trkpt lat="46.1493274" lon="9.4585735"><ele>203.0</ele><time>2026-04-23T08:56:47.153Z</time></trkpt><trkpt lat="46.1492636" lon="9.4584503"><ele>203.0</ele><time>2026-04-23T08:56:49.152Z</time></trkpt><trkpt lat="46.1492108" lon="9.4583277"><ele>203.25</ele><time>2026-04-23T08:56:51.152Z</time></trkpt><trkpt lat="46.1491156" lon="9.4581675"><ele>203.5</ele><time>2026-04-23T08:56:54.153Z</time></trkpt><trkpt lat="46.1490455" lon="9.4580544"><ele>203.75</ele><time>2026-04-23T08:56:56.152Z</time></trkpt><trkpt lat="46.1489723" lon="9.4579368"><ele>204.0</ele><time>2026-04-23T08:56:58.153Z</time></trkpt><trkpt lat="46.1488841" lon="9.4578207"><ele>203.6</ele><time>2026-04-23T08:57:00.152Z</time></trkpt><trkpt lat="46.1488171" lon="9.457789"><ele>203.2</ele><time>2026-04-23T08:57:01.153Z</time></trkpt><trkpt lat="46.1487721" lon="9.4577231"><ele>202.79999999999998</ele><time>2026-04-23T08:57:02.882Z</time></trkpt><trkpt lat="46.1486967" lon="9.4576085"><ele>202.39999999999998</ele><time>2026-04-23T08:57:04.153Z</time></trkpt><trkpt lat="46.1486107" lon="9.4574837"><ele>202.0</ele><time>2026-04-23T08:57:06.152Z</time></trkpt><trkpt lat="46.1485465" lon="9.4573476"><ele>202.0</ele><time>2026-04-23T08:57:08.152Z</time></trkpt><trkpt lat="46.1484551" lon="9.4572424"><ele>202.0</ele><time>2026-04-23T08:57:10.153Z</time></trkpt><trkpt lat="46.1483696" lon="9.4571324"><ele>202.0</ele><time>2026-04-23T08:57:12.152Z</time></trkpt><trkpt lat="46.1482846" lon="9.4570279"><ele>202.0</ele><time>2026-04-23T08:57:14.152Z</time></trkpt><trkpt lat="46.1482017" lon="9.4569175"><ele>202.6</ele><time>2026-04-23T08:57:16.153Z</time></trkpt><trkpt lat="46.1481563" lon="9.4568535"><ele>203.2</ele><time>2026-04-23T08:57:17.153Z</time></trkpt><trkpt lat="46.1480679" lon="9.4567524"><ele>203.8</ele><time>2026-04-23T08:57:19.152Z</time></trkpt><trkpt lat="46.1479795" lon="9.4566673"><ele>204.4</ele><time>2026-04-23T08:57:21.152Z</time></trkpt><trkpt lat="46.147894" lon="9.4565555"><ele>205.0</ele><time>2026-04-23T08:57:23.151Z</time></trkpt><trkpt lat="46.1478025" lon="9.4564753"><ele>205.0</ele><time>2026-04-23T08:57:25.153Z</time></trkpt><trkpt lat="46.1477053" lon="9.4563833"><ele>205.0</ele><time>2026-04-23T08:57:27.152Z</time></trkpt><trkpt lat="46.1476471" lon="9.4563476"><ele>205.0</ele><time>2026-04-23T08:57:28.153Z</time></trkpt><trkpt lat="46.1475532" lon="9.4562501"><ele>205.0</ele><time>2026-04-23T08:57:30.152Z</time></trkpt><trkpt lat="46.1474629" lon="9.4561584"><ele>205.0</ele><time>2026-04-23T08:57:32.152Z</time></trkpt><trkpt lat="46.1473632" lon="9.4560718"><ele>204.4</ele><time>2026-04-23T08:57:34.154Z</time></trkpt><trkpt lat="46.1472717" lon="9.455978"><ele>203.8</ele><time>2026-04-23T08:57:36.152Z</time></trkpt><trkpt lat="46.1471694" lon="9.4558958"><ele>203.2</ele><time>2026-04-23T08:57:38.152Z</time></trkpt><trkpt lat="46.1470714" lon="9.4558147"><ele>202.6</ele><time>2026-04-23T08:57:40.153Z</time></trkpt><trkpt lat="46.1469859" lon="9.455731"><ele>202.0</ele><time>2026-04-23T08:57:42.152Z</time></trkpt><trkpt lat="46.1468933" lon="9.4556578"><ele>202.0</ele><time>2026-04-23T08:57:44.152Z</time></trkpt><trkpt lat="46.1467946" lon="9.4555952"><ele>202.0</ele><time>2026-04-23T08:57:46.153Z</time></trkpt><trkpt lat="46.1466985" lon="9.4555394"><ele>202.0</ele><time>2026-04-23T08:57:48.152Z</time></trkpt><trkpt lat="46.1466043" lon="9.4554676"><ele>202.0</ele><time>2026-04-23T08:57:50.153Z</time></trkpt><trkpt lat="46.1464993" lon="9.4554224"><ele>202.0</ele><time>2026-04-23T08:57:52.153Z</time></trkpt><trkpt lat="46.146403" lon="9.4553797"><ele>201.8</ele><time>2026-04-23T08:57:54.152Z</time></trkpt><trkpt lat="46.1462984" lon="9.4553375"><ele>201.6</ele><time>2026-04-23T08:57:56.153Z</time></trkpt><trkpt lat="46.1462014" lon="9.4552918"><ele>201.4</ele><time>2026-04-23T08:57:58.153Z</time></trkpt><trkpt lat="46.1460993" lon="9.4552336"><ele>201.20000000000002</ele><time>2026-04-23T08:58:00.152Z</time></trkpt><trkpt lat="46.1460083" lon="9.455185"><ele>201.0</ele><time>2026-04-23T08:58:02.153Z</time></trkpt><trkpt lat="46.1459104" lon="9.4551483"><ele>201.0</ele><time>2026-04-23T08:58:04.152Z</time></trkpt><trkpt lat="46.1458187" lon="9.4551036"><ele>201.0</ele><time>2026-04-23T08:58:06.153Z</time></trkpt><trkpt lat="46.1457204" lon="9.4550713"><ele>201.0</ele><time>2026-04-23T08:58:08.153Z</time></trkpt><trkpt lat="46.1456216" lon="9.4550484"><ele>201.0</ele><time>2026-04-23T08:58:10.153Z</time></trkpt><trkpt lat="46.145522" lon="9.4550198"><ele>201.0</ele><time>2026-04-23T08:58:12.152Z</time></trkpt><trkpt lat="46.1454268" lon="9.4549636"><ele>202.0</ele><time>2026-04-23T08:58:14.153Z</time></trkpt><trkpt lat="46.1453361" lon="9.4548997"><ele>203.0</ele><time>2026-04-23T08:58:16.152Z</time></trkpt><trkpt lat="46.1452489" lon="9.4548363"><ele>204.0</ele><time>2026-04-23T08:58:18.153Z</time></trkpt><trkpt lat="46.1451602" lon="9.4547649"><ele>205.0</ele><time>2026-04-23T08:58:20.152Z</time></trkpt><trkpt lat="46.1450607" lon="9.4547058"><ele>206.0</ele><time>2026-04-23T08:58:22.153Z</time></trkpt><trkpt lat="46.1449495" lon="9.4546527"><ele>205.25</ele><time>2026-04-23T08:58:24.153Z</time></trkpt><trkpt lat="46.144847" lon="9.4545913"><ele>204.5</ele><time>2026-04-23T08:58:26.152Z</time></trkpt><trkpt lat="46.1447492" lon="9.4545216"><ele>203.75</ele><time>2026-04-23T08:58:28.152Z</time></trkpt><trkpt lat="46.144643" lon="9.4544671"><ele>203.0</ele><time>2026-04-23T08:58:30.152Z</time></trkpt><trkpt lat="46.1445282" lon="9.4544305"><ele>203.0</ele><time>2026-04-23T08:58:32.153Z</time></trkpt><trkpt lat="46.1444252" lon="9.4544143"><ele>203.0</ele><time>2026-04-23T08:58:34.153Z</time></trkpt><trkpt lat="46.1443304" lon="9.454375"><ele>203.0</ele><time>2026-04-23T08:58:36.153Z</time></trkpt><trkpt lat="46.1442472" lon="9.4543049"><ele>203.0</ele><time>2026-04-23T08:58:38.152Z</time></trkpt><trkpt lat="46.1442019" lon="9.4541949"><ele>203.0</ele><time>2026-04-23T08:58:40.152Z</time></trkpt><trkpt lat="46.144179" lon="9.454077"><ele>203.0</ele><time>2026-04-23T08:58:42.152Z</time></trkpt><trkpt lat="46.1441403" lon="9.4539518"><ele>203.0</ele><time>2026-04-23T08:58:44.153Z</time></trkpt><trkpt lat="46.1440863" lon="9.4537628"><ele>203.0</ele><time>2026-04-23T08:58:47.152Z</time></trkpt><trkpt lat="46.1440464" lon="9.4536234"><ele>203.0</ele><time>2026-04-23T08:58:49.152Z</time></trkpt><trkpt lat="46.1440221" lon="9.4534801"><ele>203.0</ele><time>2026-04-23T08:58:51.153Z</time></trkpt><trkpt lat="46.1440091" lon="9.4533507"><ele>203.0</ele><time>2026-04-23T08:58:53.152Z</time></trkpt><trkpt lat="46.1439633" lon="9.4531863"><ele>203.0</ele><time>2026-04-23T08:58:55.153Z</time></trkpt><trkpt lat="46.143883" lon="9.4530645"><ele>203.0</ele><time>2026-04-23T08:58:57.153Z</time></trkpt><trkpt lat="46.1437952" lon="9.4529808"><ele>203.0</ele><time>2026-04-23T08:58:59.152Z</time></trkpt><trkpt lat="46.1436983" lon="9.4528923"><ele>203.0</ele><time>2026-04-23T08:59:01.153Z</time></trkpt><trkpt lat="46.1436081" lon="9.452839"><ele>203.0</ele><time>2026-04-23T08:59:03.153Z</time></trkpt><trkpt lat="46.1435009" lon="9.4528083"><ele>203.0</ele><time>2026-04-23T08:59:05.152Z</time></trkpt><trkpt lat="46.1433956" lon="9.4528097"><ele>203.0</ele><time>2026-04-23T08:59:07.152Z</time></trkpt><trkpt lat="46.1432822" lon="9.4528176"><ele>203.0</ele><time>2026-04-23T08:59:09.152Z</time></trkpt><trkpt lat="46.1431815" lon="9.4528348"><ele>203.0</ele><time>2026-04-23T08:59:11.153Z</time></trkpt><trkpt lat="46.1430671" lon="9.4528517"><ele>203.0</ele><time>2026-04-23T08:59:13.153Z</time></trkpt><trkpt lat="46.1429426" lon="9.4528675"><ele>203.0</ele><time>2026-04-23T08:59:15.152Z</time></trkpt><trkpt lat="46.142841" lon="9.4528903"><ele>203.0</ele><time>2026-04-23T08:59:17.152Z</time></trkpt><trkpt lat="46.1427316" lon="9.452908"><ele>203.0</ele><time>2026-04-23T08:59:19.153Z</time></trkpt><trkpt lat="46.1426365" lon="9.4528749"><ele>203.0</ele><time>2026-04-23T08:59:21.153Z</time></trkpt><trkpt lat="46.1425348" lon="9.4528371"><ele>203.0</ele><time>2026-04-23T08:59:23.153Z</time></trkpt><trkpt lat="46.1424485" lon="9.4528065"><ele>203.0</ele><time>2026-04-23T08:59:25.153Z</time></trkpt><trkpt lat="46.1423479" lon="9.4527525"><ele>203.0</ele><time>2026-04-23T08:59:27.153Z</time></trkpt><trkpt lat="46.1422319" lon="9.452726"><ele>203.0</ele><time>2026-04-23T08:59:29.152Z</time></trkpt><trkpt lat="46.1421467" lon="9.4527673"><ele>203.0</ele><time>2026-04-23T08:59:31.153Z</time></trkpt><trkpt lat="46.1420538" lon="9.4528392"><ele>203.0</ele><time>2026-04-23T08:59:33.153Z</time></trkpt><trkpt lat="46.1419549" lon="9.4528834"><ele>203.0</ele><time>2026-04-23T08:59:35.152Z</time></trkpt><trkpt lat="46.1418922" lon="9.45292"><ele>203.0</ele><time>2026-04-23T08:59:36.153Z</time></trkpt><trkpt lat="46.1417915" lon="9.4529713"><ele>203.2</ele><time>2026-04-23T08:59:38.153Z</time></trkpt><trkpt lat="46.1416826" lon="9.4530313"><ele>203.4</ele><time>2026-04-23T08:59:40.152Z</time></trkpt><trkpt lat="46.1415776" lon="9.4530845"><ele>203.6</ele><time>2026-04-23T08:59:42.152Z</time></trkpt><trkpt lat="46.1414742" lon="9.4531444"><ele>203.79999999999998</ele><time>2026-04-23T08:59:44.152Z</time></trkpt><trkpt lat="46.1413753" lon="9.4531963"><ele>204.0</ele><time>2026-04-23T08:59:46.152Z</time></trkpt><trkpt lat="46.1412686" lon="9.4532586"><ele>204.0</ele><time>2026-04-23T08:59:48.153Z</time></trkpt><trkpt lat="46.141178" lon="9.4533092"><ele>204.0</ele><time>2026-04-23T08:59:50.152Z</time></trkpt><trkpt lat="46.1410715" lon="9.4533708"><ele>204.0</ele><time>2026-04-23T08:59:52.152Z</time></trkpt><trkpt lat="46.1409704" lon="9.4534243"><ele>204.0</ele><time>2026-04-23T08:59:54.154Z</time></trkpt><trkpt lat="46.1408697" lon="9.4534762"><ele>204.0</ele><time>2026-04-23T08:59:56.152Z</time></trkpt><trkpt lat="46.1407949" lon="9.4535031"><ele>204.0</ele><time>2026-04-23T08:59:58.153Z</time></trkpt><trkpt lat="46.1407308" lon="9.4535576"><ele>204.0</ele><time>2026-04-23T09:00:01.152Z</time></trkpt><trkpt lat="46.1406794" lon="9.4536529"><ele>204.0</ele><time>2026-04-23T09:00:03.153Z</time></trkpt><trkpt lat="46.1406387" lon="9.4537735"><ele>204.0</ele><time>2026-04-23T09:00:05.153Z</time></trkpt><trkpt lat="46.1406091" lon="9.4539054"><ele>204.0</ele><time>2026-04-23T09:00:07.153Z</time></trkpt><trkpt lat="46.1405463" lon="9.4540295"><ele>204.2</ele><time>2026-04-23T09:00:09.154Z</time></trkpt><trkpt lat="46.1405082" lon="9.4541509"><ele>204.39999999999998</ele><time>2026-04-23T09:00:11.152Z</time></trkpt><trkpt lat="46.1404573" lon="9.4542825"><ele>204.6</ele><time>2026-04-23T09:00:13.153Z</time></trkpt><trkpt lat="46.1404104" lon="9.4544165"><ele>204.8</ele><time>2026-04-23T09:00:15.152Z</time></trkpt><trkpt lat="46.1403619" lon="9.4545529"><ele>205.0</ele><time>2026-04-23T09:00:17.154Z</time></trkpt><trkpt lat="46.1403156" lon="9.4546917"><ele>205.4</ele><time>2026-04-23T09:00:19.153Z</time></trkpt><trkpt lat="46.1402728" lon="9.4548444"><ele>205.8</ele><time>2026-04-23T09:00:21.153Z</time></trkpt><trkpt lat="46.1402371" lon="9.4549928"><ele>206.2</ele><time>2026-04-23T09:00:23.154Z</time></trkpt><trkpt lat="46.1401993" lon="9.4551394"><ele>206.6</ele><time>2026-04-23T09:00:25.153Z</time></trkpt><trkpt lat="46.1401502" lon="9.4552847"><ele>207.0</ele><time>2026-04-23T09:00:27.152Z</time></trkpt><trkpt lat="46.1401051" lon="9.4554224"><ele>207.0</ele><time>2026-04-23T09:00:29.15Z</time></trkpt><trkpt lat="46.1400497" lon="9.4555575"><ele>207.0</ele><time>2026-04-23T09:00:31.153Z</time></trkpt><trkpt lat="46.1399919" lon="9.4556707"><ele>207.0</ele><time>2026-04-23T09:00:33.153Z</time></trkpt><trkpt lat="46.139922" lon="9.4557945"><ele>207.0</ele><time>2026-04-23T09:00:35.153Z</time></trkpt><trkpt lat="46.1398579" lon="9.4559004"><ele>207.0</ele><time>2026-04-23T09:00:37.152Z</time></trkpt><trkpt lat="46.1397929" lon="9.4559984"><ele>207.0</ele><time>2026-04-23T09:00:39.153Z</time></trkpt><trkpt lat="46.1396999" lon="9.4560296"><ele>207.0</ele><time>2026-04-23T09:00:41.154Z</time></trkpt><trkpt lat="46.1396109" lon="9.4560249"><ele>207.0</ele><time>2026-04-23T09:00:43.153Z</time></trkpt><trkpt lat="46.1395143" lon="9.4560155"><ele>207.0</ele><time>2026-04-23T09:00:45.154Z</time></trkpt><trkpt lat="46.139411" lon="9.456021"><ele>207.0</ele><time>2026-04-23T09:00:47.152Z</time></trkpt><trkpt lat="46.1393103" lon="9.4560258"><ele>207.0</ele><time>2026-04-23T09:00:49.154Z</time></trkpt><trkpt lat="46.139198" lon="9.4560263"><ele>207.0</ele><time>2026-04-23T09:00:51.154Z</time></trkpt><trkpt lat="46.1390949" lon="9.4560223"><ele>207.0</ele><time>2026-04-23T09:00:53.154Z</time></trkpt><trkpt lat="46.1389921" lon="9.4560137"><ele>207.0</ele><time>2026-04-23T09:00:55.152Z</time></trkpt><trkpt lat="46.1388966" lon="9.4560104"><ele>207.0</ele><time>2026-04-23T09:00:57.152Z</time></trkpt><trkpt lat="46.1388021" lon="9.4559723"><ele>208.2</ele><time>2026-04-23T09:00:59.152Z</time></trkpt><trkpt lat="46.1387526" lon="9.4558781"><ele>209.39999999999998</ele><time>2026-04-23T09:01:01.152Z</time></trkpt><trkpt lat="46.138734" lon="9.4557414"><ele>210.60000000000002</ele><time>2026-04-23T09:01:03.153Z</time></trkpt><trkpt lat="46.1387308" lon="9.4556061"><ele>211.8</ele><time>2026-04-23T09:01:05.152Z</time></trkpt><trkpt lat="46.1387305" lon="9.4554559"><ele>213.0</ele><time>2026-04-23T09:01:07.153Z</time></trkpt><trkpt lat="46.1387325" lon="9.455312"><ele>213.0</ele><time>2026-04-23T09:01:09.154Z</time></trkpt><trkpt lat="46.138719" lon="9.4551641"><ele>213.0</ele><time>2026-04-23T09:01:11.152Z</time></trkpt><trkpt lat="46.1387232" lon="9.4550094"><ele>213.0</ele><time>2026-04-23T09:01:13.153Z</time></trkpt><trkpt lat="46.1387192" lon="9.4548519"><ele>213.0</ele><time>2026-04-23T09:01:15.152Z</time></trkpt><trkpt lat="46.1387176" lon="9.4546902"><ele>213.0</ele><time>2026-04-23T09:01:17.153Z</time></trkpt><trkpt lat="46.1387106" lon="9.4545405"><ele>213.0</ele><time>2026-04-23T09:01:19.154Z</time></trkpt><trkpt lat="46.1387154" lon="9.4543774"><ele>213.0</ele><time>2026-04-23T09:01:21.153Z</time></trkpt><trkpt lat="46.1387151" lon="9.454234"><ele>213.0</ele><time>2026-04-23T09:01:23.152Z</time></trkpt><trkpt lat="46.1387154" lon="9.4540628"><ele>213.0</ele><time>2026-04-23T09:01:25.153Z</time></trkpt><trkpt lat="46.1387137" lon="9.4539045"><ele>213.0</ele><time>2026-04-23T09:01:27.152Z</time></trkpt><trkpt lat="46.1387118" lon="9.4537569"><ele>213.0</ele><time>2026-04-23T09:01:29.153Z</time></trkpt><trkpt lat="46.1387098" lon="9.4536029"><ele>213.0</ele><time>2026-04-23T09:01:31.154Z</time></trkpt><trkpt lat="46.1387067" lon="9.4534352"><ele>213.0</ele><time>2026-04-23T09:01:33.154Z</time></trkpt><trkpt lat="46.1386994" lon="9.4532792"><ele>213.0</ele><time>2026-04-23T09:01:35.152Z</time></trkpt><trkpt lat="46.1386974" lon="9.4531259"><ele>213.0</ele><time>2026-04-23T09:01:37.153Z</time></trkpt><trkpt lat="46.1387087" lon="9.4529836"><ele>213.0</ele><time>2026-04-23T09:01:39.153Z</time></trkpt><trkpt lat="46.1387074" lon="9.4528237"><ele>213.0</ele><time>2026-04-23T09:01:41.154Z</time></trkpt><trkpt lat="46.1387148" lon="9.4526709"><ele>213.0</ele><time>2026-04-23T09:01:43.153Z</time></trkpt><trkpt lat="46.1387249" lon="9.4525176"><ele>213.0</ele><time>2026-04-23T09:01:45.153Z</time></trkpt><trkpt lat="46.1387466" lon="9.4523521"><ele>213.0</ele><time>2026-04-23T09:01:47.153Z</time></trkpt><trkpt lat="46.1387531" lon="9.4521679"><ele>212.25</ele><time>2026-04-23T09:01:49.153Z</time></trkpt><trkpt lat="46.1387584" lon="9.4519935"><ele>211.5</ele><time>2026-04-23T09:01:51.152Z</time></trkpt><trkpt lat="46.1387585" lon="9.4518321"><ele>210.75</ele><time>2026-04-23T09:01:53.153Z</time></trkpt><trkpt lat="46.1387533" lon="9.4516403"><ele>210.0</ele><time>2026-04-23T09:01:55.152Z</time></trkpt><trkpt lat="46.138742" lon="9.4514767"><ele>210.0</ele><time>2026-04-23T09:01:57.154Z</time></trkpt><trkpt lat="46.1387352" lon="9.4513863"><ele>210.0</ele><time>2026-04-23T09:01:58.152Z</time></trkpt><trkpt lat="46.1387273" lon="9.4512341"><ele>210.0</ele><time>2026-04-23T09:02:00.154Z</time></trkpt><trkpt lat="46.1387242" lon="9.4510815"><ele>210.0</ele><time>2026-04-23T09:02:02.153Z</time></trkpt><trkpt lat="46.1387242" lon="9.4509341"><ele>210.0</ele><time>2026-04-23T09:02:04.154Z</time></trkpt><trkpt lat="46.138711" lon="9.4507928"><ele>209.2</ele><time>2026-04-23T09:02:06.153Z</time></trkpt><trkpt lat="46.138709" lon="9.4506413"><ele>208.4</ele><time>2026-04-23T09:02:08.153Z</time></trkpt><trkpt lat="46.1387155" lon="9.450475"><ele>207.60000000000002</ele><time>2026-04-23T09:02:10.152Z</time></trkpt><trkpt lat="46.1387222" lon="9.4503042"><ele>206.8</ele><time>2026-04-23T09:02:12.153Z</time></trkpt><trkpt lat="46.1387228" lon="9.4501459"><ele>206.0</ele><time>2026-04-23T09:02:14.153Z</time></trkpt><trkpt lat="46.1387218" lon="9.4499767"><ele>205.8</ele><time>2026-04-23T09:02:16.153Z</time></trkpt><trkpt lat="46.1387237" lon="9.4498263"><ele>205.60000000000002</ele><time>2026-04-23T09:02:18.152Z</time></trkpt><trkpt lat="46.138728" lon="9.4496733"><ele>205.4</ele><time>2026-04-23T09:02:20.154Z</time></trkpt><trkpt lat="46.1387284" lon="9.4495049"><ele>205.2</ele><time>2026-04-23T09:02:22.152Z</time></trkpt><trkpt lat="46.1387201" lon="9.449349"><ele>205.0</ele><time>2026-04-23T09:02:24.153Z</time></trkpt><trkpt lat="46.1387193" lon="9.4491782"><ele>204.8</ele><time>2026-04-23T09:02:26.152Z</time></trkpt><trkpt lat="46.1387177" lon="9.449014"><ele>204.6</ele><time>2026-04-23T09:02:28.152Z</time></trkpt><trkpt lat="46.1387133" lon="9.4488562"><ele>204.39999999999998</ele><time>2026-04-23T09:02:30.153Z</time></trkpt><trkpt lat="46.1386981" lon="9.4487139"><ele>204.2</ele><time>2026-04-23T09:02:32.152Z</time></trkpt><trkpt lat="46.1386996" lon="9.4485519"><ele>204.0</ele><time>2026-04-23T09:02:34.154Z</time></trkpt><trkpt lat="46.1386906" lon="9.4483988"><ele>204.0</ele><time>2026-04-23T09:02:36.152Z</time></trkpt><trkpt lat="46.1386928" lon="9.4482522"><ele>204.0</ele><time>2026-04-23T09:02:38.154Z</time></trkpt><trkpt lat="46.1386955" lon="9.4480903"><ele>204.0</ele><time>2026-04-23T09:02:40.154Z</time></trkpt><trkpt lat="46.138701" lon="9.4479968"><ele>204.0</ele><time>2026-04-23T09:02:41.152Z</time></trkpt><trkpt lat="46.1386916" lon="9.4478565"><ele>204.0</ele><time>2026-04-23T09:02:43.154Z</time></trkpt><trkpt lat="46.1386968" lon="9.4476992"><ele>204.0</ele><time>2026-04-23T09:02:45.153Z</time></trkpt><trkpt lat="46.1386975" lon="9.4474672"><ele>204.0</ele><time>2026-04-23T09:02:48.154Z</time></trkpt><trkpt lat="46.1386953" lon="9.4473069"><ele>204.0</ele><time>2026-04-23T09:02:50.153Z</time></trkpt><trkpt lat="46.138694" lon="9.4471523"><ele>204.0</ele><time>2026-04-23T09:02:52.153Z</time></trkpt><trkpt lat="46.1386993" lon="9.4470004"><ele>204.0</ele><time>2026-04-23T09:02:54.152Z</time></trkpt><trkpt lat="46.1387" lon="9.4468727"><ele>204.0</ele><time>2026-04-23T09:02:56.153Z</time></trkpt><trkpt lat="46.1387083" lon="9.4467107"><ele>204.0</ele><time>2026-04-23T09:02:58.153Z</time></trkpt><trkpt lat="46.1387042" lon="9.4465649"><ele>204.0</ele><time>2026-04-23T09:03:00.152Z</time></trkpt><trkpt lat="46.1386942" lon="9.4463965"><ele>204.0</ele><time>2026-04-23T09:03:02.153Z</time></trkpt><trkpt lat="46.1386967" lon="9.4462598"><ele>204.2</ele><time>2026-04-23T09:03:04.155Z</time></trkpt><trkpt lat="46.1386869" lon="9.4461113"><ele>204.39999999999998</ele><time>2026-04-23T09:03:06.152Z</time></trkpt><trkpt lat="46.1386868" lon="9.4459532"><ele>204.6</ele><time>2026-04-23T09:03:08.153Z</time></trkpt><trkpt lat="46.1386909" lon="9.44579"><ele>204.8</ele><time>2026-04-23T09:03:10.153Z</time></trkpt><trkpt lat="46.1386889" lon="9.4456316"><ele>205.0</ele><time>2026-04-23T09:03:12.152Z</time></trkpt><trkpt lat="46.1386912" lon="9.4454834"><ele>204.75</ele><time>2026-04-23T09:03:14.153Z</time></trkpt><trkpt lat="46.1386864" lon="9.4453192"><ele>204.5</ele><time>2026-04-23T09:03:16.155Z</time></trkpt><trkpt lat="46.1386862" lon="9.4451427"><ele>204.25</ele><time>2026-04-23T09:03:18.153Z</time></trkpt><trkpt lat="46.138685" lon="9.4450136"><ele>204.0</ele><time>2026-04-23T09:03:20.153Z</time></trkpt><trkpt lat="46.1386888" lon="9.4447998"><ele>204.0</ele><time>2026-04-23T09:03:23.153Z</time></trkpt><trkpt lat="46.1386876" lon="9.444646"><ele>204.0</ele><time>2026-04-23T09:03:25.153Z</time></trkpt><trkpt lat="46.1386903" lon="9.4444935"><ele>204.0</ele><time>2026-04-23T09:03:27.153Z</time></trkpt><trkpt lat="46.138688" lon="9.4443568"><ele>204.0</ele><time>2026-04-23T09:03:29.153Z</time></trkpt><trkpt lat="46.1386934" lon="9.4442131"><ele>204.0</ele><time>2026-04-23T09:03:31.153Z</time></trkpt><trkpt lat="46.1386982" lon="9.4440566"><ele>203.75</ele><time>2026-04-23T09:03:33.153Z</time></trkpt><trkpt lat="46.138691" lon="9.4438999"><ele>203.5</ele><time>2026-04-23T09:03:35.153Z</time></trkpt><trkpt lat="46.1386949" lon="9.4437373"><ele>203.25</ele><time>2026-04-23T09:03:37.154Z</time></trkpt><trkpt lat="46.1386919" lon="9.4435794"><ele>203.0</ele><time>2026-04-23T09:03:39.154Z</time></trkpt><trkpt lat="46.1386815" lon="9.4433366"><ele>202.75</ele><time>2026-04-23T09:03:42.154Z</time></trkpt><trkpt lat="46.1386828" lon="9.443172"><ele>202.5</ele><time>2026-04-23T09:03:44.154Z</time></trkpt><trkpt lat="46.138676" lon="9.4430066"><ele>202.25</ele><time>2026-04-23T09:03:46.154Z</time></trkpt><trkpt lat="46.1386682" lon="9.4428517"><ele>202.0</ele><time>2026-04-23T09:03:48.154Z</time></trkpt><trkpt lat="46.1386708" lon="9.4426818"><ele>202.0</ele><time>2026-04-23T09:03:50.153Z</time></trkpt><trkpt lat="46.138676" lon="9.4425849"><ele>202.0</ele><time>2026-04-23T09:03:51.153Z</time></trkpt><trkpt lat="46.1386783" lon="9.4424898"><ele>202.0</ele><time>2026-04-23T09:03:52.153Z</time></trkpt><trkpt lat="46.1386782" lon="9.4423256"><ele>202.0</ele><time>2026-04-23T09:03:54.153Z</time></trkpt><trkpt lat="46.1386651" lon="9.4421754"><ele>202.0</ele><time>2026-04-23T09:03:56.153Z</time></trkpt><trkpt lat="46.1386506" lon="9.4420134"><ele>201.8</ele><time>2026-04-23T09:03:58.154Z</time></trkpt><trkpt lat="46.1386606" lon="9.4418905"><ele>201.6</ele><time>2026-04-23T09:04:00.153Z</time></trkpt><trkpt lat="46.1386542" lon="9.4417447"><ele>201.4</ele><time>2026-04-23T09:04:02.153Z</time></trkpt><trkpt lat="46.1386612" lon="9.4415837"><ele>201.20000000000002</ele><time>2026-04-23T09:04:04.152Z</time></trkpt><trkpt lat="46.1386841" lon="9.4414062"><ele>201.0</ele><time>2026-04-23T09:04:06.154Z</time></trkpt><trkpt lat="46.1386857" lon="9.4412495"><ele>201.5</ele><time>2026-04-23T09:04:08.153Z</time></trkpt><trkpt lat="46.1386973" lon="9.4410873"><ele>202.0</ele><time>2026-04-23T09:04:10.154Z</time></trkpt><trkpt lat="46.1387143" lon="9.4409226"><ele>202.5</ele><time>2026-04-23T09:04:12.153Z</time></trkpt><trkpt lat="46.1387132" lon="9.4407569"><ele>203.0</ele><time>2026-04-23T09:04:14.153Z</time></trkpt><trkpt lat="46.1387017" lon="9.4405908"><ele>203.0</ele><time>2026-04-23T09:04:16.155Z</time></trkpt><trkpt lat="46.1387076" lon="9.440416"><ele>203.0</ele><time>2026-04-23T09:04:18.153Z</time></trkpt><trkpt lat="46.1387169" lon="9.4402515"><ele>203.0</ele><time>2026-04-23T09:04:20.154Z</time></trkpt><trkpt lat="46.138726" lon="9.4400981"><ele>203.0</ele><time>2026-04-23T09:04:22.153Z</time></trkpt><trkpt lat="46.1387467" lon="9.4399431"><ele>203.0</ele><time>2026-04-23T09:04:24.153Z</time></trkpt><trkpt lat="46.1387682" lon="9.4397898"><ele>203.0</ele><time>2026-04-23T09:04:26.153Z</time></trkpt><trkpt lat="46.1387772" lon="9.4396502"><ele>203.0</ele><time>2026-04-23T09:04:28.152Z</time></trkpt><trkpt lat="46.1387989" lon="9.4394988"><ele>203.0</ele><time>2026-04-23T09:04:30.154Z</time></trkpt><trkpt lat="46.1388207" lon="9.4393532"><ele>203.0</ele><time>2026-04-23T09:04:32.153Z</time></trkpt><trkpt lat="46.1388565" lon="9.4391653"><ele>202.8</ele><time>2026-04-23T09:04:34.153Z</time></trkpt><trkpt lat="46.1388748" lon="9.4390777"><ele>202.60000000000002</ele><time>2026-04-23T09:04:35.153Z</time></trkpt><trkpt lat="46.1389063" lon="9.4389357"><ele>202.39999999999998</ele><time>2026-04-23T09:04:37.153Z</time></trkpt><trkpt lat="46.1389389" lon="9.4387945"><ele>202.2</ele><time>2026-04-23T09:04:39.153Z</time></trkpt><trkpt lat="46.1389756" lon="9.4386386"><ele>202.0</ele><time>2026-04-23T09:04:41.154Z</time></trkpt><trkpt lat="46.1390078" lon="9.4384986"><ele>202.0</ele><time>2026-04-23T09:04:43.152Z</time></trkpt><trkpt lat="46.1390496" lon="9.438347"><ele>202.0</ele><time>2026-04-23T09:04:45.154Z</time></trkpt><trkpt lat="46.1391029" lon="9.4382126"><ele>202.0</ele><time>2026-04-23T09:04:47.154Z</time></trkpt><trkpt lat="46.1391393" lon="9.4380805"><ele>202.0</ele><time>2026-04-23T09:04:49.153Z</time></trkpt><trkpt lat="46.1391843" lon="9.437946"><ele>202.0</ele><time>2026-04-23T09:04:51.154Z</time></trkpt><trkpt lat="46.1392158" lon="9.4378011"><ele>201.6</ele><time>2026-04-23T09:04:53.153Z</time></trkpt><trkpt lat="46.1392574" lon="9.4376797"><ele>201.2</ele><time>2026-04-23T09:04:55.153Z</time></trkpt><trkpt lat="46.1392984" lon="9.4375373"><ele>200.8</ele><time>2026-04-23T09:04:57.154Z</time></trkpt><trkpt lat="46.1393243" lon="9.4374543"><ele>200.4</ele><time>2026-04-23T09:04:58.152Z</time></trkpt><trkpt lat="46.1393846" lon="9.4373169"><ele>200.0</ele><time>2026-04-23T09:05:00.152Z</time></trkpt><trkpt lat="46.139414" lon="9.43718"><ele>199.8</ele><time>2026-04-23T09:05:02.153Z</time></trkpt><trkpt lat="46.1394474" lon="9.4370552"><ele>199.6</ele><time>2026-04-23T09:05:04.154Z</time></trkpt><trkpt lat="46.1394965" lon="9.4369064"><ele>199.39999999999998</ele><time>2026-04-23T09:05:06.153Z</time></trkpt><trkpt lat="46.139549" lon="9.4367526"><ele>199.2</ele><time>2026-04-23T09:05:08.154Z</time></trkpt><trkpt lat="46.1395745" lon="9.4366686"><ele>199.0</ele><time>2026-04-23T09:05:09.153Z</time></trkpt><trkpt lat="46.1395974" lon="9.4365839"><ele>199.0</ele><time>2026-04-23T09:05:10.154Z</time></trkpt><trkpt lat="46.1396318" lon="9.436449"><ele>199.0</ele><time>2026-04-23T09:05:12.154Z</time></trkpt><trkpt lat="46.1396686" lon="9.4363025"><ele>199.0</ele><time>2026-04-23T09:05:14.154Z</time></trkpt><trkpt lat="46.1397114" lon="9.4361736"><ele>199.0</ele><time>2026-04-23T09:05:16.154Z</time></trkpt><trkpt lat="46.1397436" lon="9.4360483"><ele>199.0</ele><time>2026-04-23T09:05:18.154Z</time></trkpt><trkpt lat="46.139794" lon="9.4359059"><ele>199.39999999999998</ele><time>2026-04-23T09:05:20.154Z</time></trkpt><trkpt lat="46.1398306" lon="9.4357567"><ele>199.8</ele><time>2026-04-23T09:05:22.154Z</time></trkpt><trkpt lat="46.1398742" lon="9.4356164"><ele>200.2</ele><time>2026-04-23T09:05:24.153Z</time></trkpt><trkpt lat="46.1399005" lon="9.4355312"><ele>200.60000000000002</ele><time>2026-04-23T09:05:25.154Z</time></trkpt><trkpt lat="46.1399301" lon="9.4354488"><ele>201.0</ele><time>2026-04-23T09:05:26.152Z</time></trkpt><trkpt lat="46.1399716" lon="9.4352978"><ele>201.0</ele><time>2026-04-23T09:05:28.153Z</time></trkpt><trkpt lat="46.1400142" lon="9.4351504"><ele>201.0</ele><time>2026-04-23T09:05:30.153Z</time></trkpt><trkpt lat="46.1400589" lon="9.4349929"><ele>201.0</ele><time>2026-04-23T09:05:32.153Z</time></trkpt><trkpt lat="46.1401017" lon="9.4348464"><ele>201.0</ele><time>2026-04-23T09:05:34.154Z</time></trkpt><trkpt lat="46.1401438" lon="9.4346914"><ele>201.20000000000002</ele><time>2026-04-23T09:05:36.153Z</time></trkpt><trkpt lat="46.1401895" lon="9.4345506"><ele>201.4</ele><time>2026-04-23T09:05:38.153Z</time></trkpt><trkpt lat="46.1402353" lon="9.4344198"><ele>201.6</ele><time>2026-04-23T09:05:40.153Z</time></trkpt><trkpt lat="46.1402916" lon="9.434305"><ele>201.8</ele><time>2026-04-23T09:05:42.153Z</time></trkpt><trkpt lat="46.1403454" lon="9.4342003"><ele>202.0</ele><time>2026-04-23T09:05:44.154Z</time></trkpt><trkpt lat="46.140427" lon="9.4341137"><ele>202.0</ele><time>2026-04-23T09:05:46.154Z</time></trkpt><trkpt lat="46.1405198" lon="9.4340958"><ele>202.0</ele><time>2026-04-23T09:05:48.154Z</time></trkpt><trkpt lat="46.1406216" lon="9.434111"><ele>202.0</ele><time>2026-04-23T09:05:50.154Z</time></trkpt><trkpt lat="46.1407216" lon="9.4341377"><ele>202.0</ele><time>2026-04-23T09:05:52.153Z</time></trkpt><trkpt lat="46.1408215" lon="9.4341697"><ele>202.0</ele><time>2026-04-23T09:05:54.153Z</time></trkpt><trkpt lat="46.1409354" lon="9.4341924"><ele>201.8</ele><time>2026-04-23T09:05:56.154Z</time></trkpt><trkpt lat="46.141049" lon="9.4342035"><ele>201.6</ele><time>2026-04-23T09:05:58.155Z</time></trkpt><trkpt lat="46.1411539" lon="9.4342044"><ele>201.4</ele><time>2026-04-23T09:06:00.153Z</time></trkpt><trkpt lat="46.1412557" lon="9.4341982"><ele>201.20000000000002</ele><time>2026-04-23T09:06:02.152Z</time></trkpt><trkpt lat="46.1413574" lon="9.4341891"><ele>201.0</ele><time>2026-04-23T09:06:04.153Z</time></trkpt><trkpt lat="46.1414594" lon="9.4341918"><ele>201.0</ele><time>2026-04-23T09:06:06.154Z</time></trkpt><trkpt lat="46.1415587" lon="9.4341869"><ele>201.0</ele><time>2026-04-23T09:06:08.153Z</time></trkpt><trkpt lat="46.1416552" lon="9.434169"><ele>201.0</ele><time>2026-04-23T09:06:10.154Z</time></trkpt><trkpt lat="46.1417559" lon="9.4341762"><ele>201.0</ele><time>2026-04-23T09:06:12.154Z</time></trkpt><trkpt lat="46.1418481" lon="9.4341662"><ele>201.0</ele><time>2026-04-23T09:06:14.153Z</time></trkpt><trkpt lat="46.1419407" lon="9.4341584"><ele>201.0</ele><time>2026-04-23T09:06:16.154Z</time></trkpt><trkpt lat="46.142037" lon="9.4341602"><ele>201.0</ele><time>2026-04-23T09:06:18.155Z</time></trkpt><trkpt lat="46.1421326" lon="9.4341751"><ele>201.0</ele><time>2026-04-23T09:06:20.154Z</time></trkpt><trkpt lat="46.1422239" lon="9.4341835"><ele>201.0</ele><time>2026-04-23T09:06:22.154Z</time></trkpt><trkpt lat="46.1423175" lon="9.4341883"><ele>201.0</ele><time>2026-04-23T09:06:24.153Z</time></trkpt><trkpt lat="46.1424199" lon="9.4341787"><ele>201.0</ele><time>2026-04-23T09:06:26.154Z</time></trkpt><trkpt lat="46.1424816" lon="9.43416"><ele>201.0</ele><time>2026-04-23T09:06:27.154Z</time></trkpt><trkpt lat="46.1425661" lon="9.4341001"><ele>201.0</ele><time>2026-04-23T09:06:29.154Z</time></trkpt><trkpt lat="46.1426125" lon="9.4339833"><ele>201.0</ele><time>2026-04-23T09:06:31.154Z</time></trkpt><trkpt lat="46.1426629" lon="9.4338472"><ele>201.0</ele><time>2026-04-23T09:06:33.154Z</time></trkpt><trkpt lat="46.1427093" lon="9.4337112"><ele>201.20000000000002</ele><time>2026-04-23T09:06:35.153Z</time></trkpt><trkpt lat="46.142743" lon="9.4335929"><ele>201.4</ele><time>2026-04-23T09:06:37.153Z</time></trkpt><trkpt lat="46.1427729" lon="9.4334638"><ele>201.6</ele><time>2026-04-23T09:06:39.154Z</time></trkpt><trkpt lat="46.1428111" lon="9.4333324"><ele>201.8</ele><time>2026-04-23T09:06:41.153Z</time></trkpt><trkpt lat="46.1428594" lon="9.4331998"><ele>202.0</ele><time>2026-04-23T09:06:43.153Z</time></trkpt><trkpt lat="46.1428954" lon="9.4330632"><ele>201.6</ele><time>2026-04-23T09:06:45.154Z</time></trkpt><trkpt lat="46.1429412" lon="9.4329289"><ele>201.2</ele><time>2026-04-23T09:06:47.154Z</time></trkpt><trkpt lat="46.1429754" lon="9.432792"><ele>200.8</ele><time>2026-04-23T09:06:49.154Z</time></trkpt><trkpt lat="46.1430194" lon="9.4326576"><ele>200.4</ele><time>2026-04-23T09:06:51.156Z</time></trkpt><trkpt lat="46.143055" lon="9.4325239"><ele>200.0</ele><time>2026-04-23T09:06:53.153Z</time></trkpt><trkpt lat="46.1430912" lon="9.432388"><ele>200.0</ele><time>2026-04-23T09:06:55.153Z</time></trkpt><trkpt lat="46.1431253" lon="9.4322547"><ele>200.0</ele><time>2026-04-23T09:06:57.153Z</time></trkpt><trkpt lat="46.1431664" lon="9.432126"><ele>200.0</ele><time>2026-04-23T09:06:59.154Z</time></trkpt><trkpt lat="46.1432147" lon="9.4319934"><ele>200.0</ele><time>2026-04-23T09:07:01.154Z</time></trkpt><trkpt lat="46.1432638" lon="9.4318533"><ele>200.0</ele><time>2026-04-23T09:07:03.154Z</time></trkpt><trkpt lat="46.1433154" lon="9.4317144"><ele>200.0</ele><time>2026-04-23T09:07:05.154Z</time></trkpt><trkpt lat="46.1433706" lon="9.4315803"><ele>200.0</ele><time>2026-04-23T09:07:07.154Z</time></trkpt><trkpt lat="46.143417" lon="9.4314558"><ele>200.0</ele><time>2026-04-23T09:07:09.153Z</time></trkpt><trkpt lat="46.1434633" lon="9.4313354"><ele>200.0</ele><time>2026-04-23T09:07:11.153Z</time></trkpt><trkpt lat="46.1435143" lon="9.4312136"><ele>200.0</ele><time>2026-04-23T09:07:13.153Z</time></trkpt><trkpt lat="46.1435673" lon="9.4310953"><ele>200.2</ele><time>2026-04-23T09:07:15.154Z</time></trkpt><trkpt lat="46.1436087" lon="9.4309639"><ele>200.4</ele><time>2026-04-23T09:07:17.153Z</time></trkpt><trkpt lat="46.1436614" lon="9.4308437"><ele>200.60000000000002</ele><time>2026-04-23T09:07:19.154Z</time></trkpt><trkpt lat="46.1437104" lon="9.4307109"><ele>200.8</ele><time>2026-04-23T09:07:21.153Z</time></trkpt><trkpt lat="46.1437529" lon="9.430591"><ele>201.0</ele><time>2026-04-23T09:07:23.154Z</time></trkpt><trkpt lat="46.1437991" lon="9.4304685"><ele>201.0</ele><time>2026-04-23T09:07:25.153Z</time></trkpt><trkpt lat="46.1438531" lon="9.4303368"><ele>201.0</ele><time>2026-04-23T09:07:27.154Z</time></trkpt><trkpt lat="46.1438946" lon="9.4302181"><ele>201.0</ele><time>2026-04-23T09:07:29.154Z</time></trkpt><trkpt lat="46.1439411" lon="9.430098"><ele>201.0</ele><time>2026-04-23T09:07:31.152Z</time></trkpt><trkpt lat="46.1439873" lon="9.4299669"><ele>201.0</ele><time>2026-04-23T09:07:33.153Z</time></trkpt><trkpt lat="46.1440369" lon="9.4298451"><ele>201.0</ele><time>2026-04-23T09:07:35.154Z</time></trkpt><trkpt lat="46.1440827" lon="9.4297286"><ele>201.0</ele><time>2026-04-23T09:07:37.154Z</time></trkpt><trkpt lat="46.144125" lon="9.4296078"><ele>201.0</ele><time>2026-04-23T09:07:39.154Z</time></trkpt><trkpt lat="46.144175" lon="9.4294924"><ele>201.0</ele><time>2026-04-23T09:07:41.154Z</time></trkpt><trkpt lat="46.1442225" lon="9.4293661"><ele>201.0</ele><time>2026-04-23T09:07:43.154Z</time></trkpt><trkpt lat="46.1442666" lon="9.4292397"><ele>200.8</ele><time>2026-04-23T09:07:45.153Z</time></trkpt><trkpt lat="46.1443131" lon="9.4291228"><ele>200.60000000000002</ele><time>2026-04-23T09:07:47.154Z</time></trkpt><trkpt lat="46.1443618" lon="9.4290198"><ele>200.4</ele><time>2026-04-23T09:07:49.154Z</time></trkpt><trkpt lat="46.1444146" lon="9.4288947"><ele>200.2</ele><time>2026-04-23T09:07:51.154Z</time></trkpt><trkpt lat="46.1444649" lon="9.4287659"><ele>200.0</ele><time>2026-04-23T09:07:53.154Z</time></trkpt><trkpt lat="46.1445204" lon="9.4286236"><ele>200.4</ele><time>2026-04-23T09:07:55.155Z</time></trkpt><trkpt lat="46.1445723" lon="9.4285029"><ele>200.8</ele><time>2026-04-23T09:07:57.153Z</time></trkpt><trkpt lat="46.1446227" lon="9.4283822"><ele>201.2</ele><time>2026-04-23T09:07:59.154Z</time></trkpt><trkpt lat="46.1446731" lon="9.4282457"><ele>201.6</ele><time>2026-04-23T09:08:01.153Z</time></trkpt><trkpt lat="46.1447237" lon="9.4281266"><ele>202.0</ele><time>2026-04-23T09:08:03.154Z</time></trkpt><trkpt lat="46.1447653" lon="9.4280201"><ele>202.0</ele><time>2026-04-23T09:08:05.154Z</time></trkpt><trkpt lat="46.1447944" lon="9.427909"><ele>202.0</ele><time>2026-04-23T09:08:07.154Z</time></trkpt><trkpt lat="46.1448236" lon="9.4277685"><ele>202.0</ele><time>2026-04-23T09:08:09.154Z</time></trkpt><trkpt lat="46.1448716" lon="9.4276194"><ele>202.0</ele><time>2026-04-23T09:08:11.153Z</time></trkpt><trkpt lat="46.1449059" lon="9.4274763"><ele>202.0</ele><time>2026-04-23T09:08:13.155Z</time></trkpt><trkpt lat="46.1449348" lon="9.4273283"><ele>202.0</ele><time>2026-04-23T09:08:15.154Z</time></trkpt><trkpt lat="46.1449416" lon="9.4271814"><ele>202.0</ele><time>2026-04-23T09:08:17.153Z</time></trkpt><trkpt lat="46.1448898" lon="9.4270557"><ele>202.0</ele><time>2026-04-23T09:08:19.156Z</time></trkpt><trkpt lat="46.144796" lon="9.4269951"><ele>202.0</ele><time>2026-04-23T09:08:21.155Z</time></trkpt><trkpt lat="46.1447341" lon="9.4268935"><ele>202.0</ele><time>2026-04-23T09:08:23.153Z</time></trkpt><trkpt lat="46.1447147" lon="9.4267371"><ele>202.2</ele><time>2026-04-23T09:08:25.153Z</time></trkpt><trkpt lat="46.1447078" lon="9.4265876"><ele>202.39999999999998</ele><time>2026-04-23T09:08:27.154Z</time></trkpt><trkpt lat="46.1447011" lon="9.4264094"><ele>202.60000000000002</ele><time>2026-04-23T09:08:29.154Z</time></trkpt><trkpt lat="46.1446317" lon="9.4263065"><ele>202.8</ele><time>2026-04-23T09:08:31.154Z</time></trkpt><trkpt lat="46.1445294" lon="9.426268"><ele>203.0</ele><time>2026-04-23T09:08:33.154Z</time></trkpt><trkpt lat="46.1444116" lon="9.4262457"><ele>203.0</ele><time>2026-04-23T09:08:35.154Z</time></trkpt><trkpt lat="46.1443075" lon="9.4262519"><ele>203.0</ele><time>2026-04-23T09:08:37.153Z</time></trkpt><trkpt lat="46.1441887" lon="9.4262618"><ele>203.0</ele><time>2026-04-23T09:08:39.154Z</time></trkpt><trkpt lat="46.1440713" lon="9.4262876"><ele>203.0</ele><time>2026-04-23T09:08:41.154Z</time></trkpt><trkpt lat="46.1439557" lon="9.4262844"><ele>203.0</ele><time>2026-04-23T09:08:43.153Z</time></trkpt><trkpt lat="46.1438925" lon="9.4262869"><ele>203.0</ele><time>2026-04-23T09:08:44.155Z</time></trkpt><trkpt lat="46.1438296" lon="9.4262953"><ele>203.0</ele><time>2026-04-23T09:08:45.153Z</time></trkpt><trkpt lat="46.1437659" lon="9.4263177"><ele>203.0</ele><time>2026-04-23T09:08:46.154Z</time></trkpt><trkpt lat="46.1436484" lon="9.4263485"><ele>203.0</ele><time>2026-04-23T09:08:48.154Z</time></trkpt><trkpt lat="46.1435848" lon="9.4263554"><ele>203.0</ele><time>2026-04-23T09:08:49.153Z</time></trkpt><trkpt lat="46.1435156" lon="9.4263652"><ele>203.0</ele><time>2026-04-23T09:08:50.154Z</time></trkpt><trkpt lat="46.1433986" lon="9.4263963"><ele>203.00000000000003</ele><time>2026-04-23T09:08:52.154Z</time></trkpt><trkpt lat="46.1433305" lon="9.4264172"><ele>203.0</ele><time>2026-04-23T09:08:53.154Z</time></trkpt><trkpt lat="46.1432664" lon="9.4264234"><ele>203.0</ele><time>2026-04-23T09:08:54.154Z</time></trkpt><trkpt lat="46.1431609" lon="9.4264215"><ele>203.0</ele><time>2026-04-23T09:08:56.153Z</time></trkpt><trkpt lat="46.1430833" lon="9.4264293"><ele>203.00000000000003</ele><time>2026-04-23T09:08:57.153Z</time></trkpt><trkpt lat="46.1430139" lon="9.4264265"><ele>203.0</ele><time>2026-04-23T09:08:58.154Z</time></trkpt><trkpt lat="46.1429441" lon="9.4264213"><ele>203.0</ele><time>2026-04-23T09:08:59.154Z</time></trkpt><trkpt lat="46.1428146" lon="9.426391"><ele>203.0</ele><time>2026-04-23T09:09:01.154Z</time></trkpt><trkpt lat="46.1426919" lon="9.4263708"><ele>203.0</ele><time>2026-04-23T09:09:03.155Z</time></trkpt><trkpt lat="46.1425703" lon="9.4263554"><ele>203.0</ele><time>2026-04-23T09:09:05.155Z</time></trkpt><trkpt lat="46.142491" lon="9.4263208"><ele>202.66666666666669</ele><time>2026-04-23T09:09:07.155Z</time></trkpt><trkpt lat="46.1424413" lon="9.4262139"><ele>202.33333333333334</ele><time>2026-04-23T09:09:10.155Z</time></trkpt><trkpt lat="46.1424633" lon="9.4261225"><ele>202.0</ele><time>2026-04-23T09:09:12.155Z</time></trkpt><trkpt lat="46.142491" lon="9.4260182"><ele>201.66666666666669</ele><time>2026-04-23T09:09:14.154Z</time></trkpt><trkpt lat="46.1425213" lon="9.4259076"><ele>201.33333333333334</ele><time>2026-04-23T09:09:16.154Z</time></trkpt><trkpt lat="46.1425562" lon="9.4257964"><ele>201.0</ele><time>2026-04-23T09:09:18.154Z</time></trkpt><trkpt lat="46.1425942" lon="9.4256721"><ele>201.0</ele><time>2026-04-23T09:09:20.153Z</time></trkpt><trkpt lat="46.1426209" lon="9.4255526"><ele>201.0</ele><time>2026-04-23T09:09:22.154Z</time></trkpt><trkpt lat="46.1426626" lon="9.425457"><ele>201.0</ele><time>2026-04-23T09:09:24.154Z</time></trkpt><trkpt lat="46.1426948" lon="9.4253423"><ele>201.0</ele><time>2026-04-23T09:09:26.153Z</time></trkpt><trkpt lat="46.1427283" lon="9.4252195"><ele>201.0</ele><time>2026-04-23T09:09:28.153Z</time></trkpt><trkpt lat="46.1427596" lon="9.4251033"><ele>201.0</ele><time>2026-04-23T09:09:30.153Z</time></trkpt><trkpt lat="46.1427899" lon="9.4249968"><ele>200.83333333333334</ele><time>2026-04-23T09:09:32.154Z</time></trkpt><trkpt lat="46.1428209" lon="9.4249025"><ele>200.66666666666669</ele><time>2026-04-23T09:09:34.153Z</time></trkpt><trkpt lat="46.1428501" lon="9.4248016"><ele>200.5</ele><time>2026-04-23T09:09:36.155Z</time></trkpt><trkpt lat="46.1428781" lon="9.4246876"><ele>200.33333333333334</ele><time>2026-04-23T09:09:38.153Z</time></trkpt><trkpt lat="46.1429081" lon="9.4245862"><ele>200.16666666666669</ele><time>2026-04-23T09:09:40.154Z</time></trkpt><trkpt lat="46.142943" lon="9.424482"><ele>200.0</ele><time>2026-04-23T09:09:42.154Z</time></trkpt><trkpt lat="46.1429733" lon="9.4243561"><ele>200.0</ele><time>2026-04-23T09:09:44.154Z</time></trkpt><trkpt lat="46.1430103" lon="9.4242427"><ele>200.0</ele><time>2026-04-23T09:09:46.155Z</time></trkpt><trkpt lat="46.1430435" lon="9.4241233"><ele>200.0</ele><time>2026-04-23T09:09:48.154Z</time></trkpt><trkpt lat="46.1430816" lon="9.4240011"><ele>200.0</ele><time>2026-04-23T09:09:50.154Z</time></trkpt><trkpt lat="46.1431182" lon="9.4238902"><ele>200.0</ele><time>2026-04-23T09:09:52.154Z</time></trkpt><trkpt lat="46.1431522" lon="9.4237601"><ele>200.2</ele><time>2026-04-23T09:09:54.155Z</time></trkpt><trkpt lat="46.1431924" lon="9.4236523"><ele>200.4</ele><time>2026-04-23T09:09:56.153Z</time></trkpt><trkpt lat="46.1432383" lon="9.4235191"><ele>200.60000000000002</ele><time>2026-04-23T09:09:58.153Z</time></trkpt><trkpt lat="46.1432682" lon="9.4233783"><ele>200.8</ele><time>2026-04-23T09:10:00.154Z</time></trkpt><trkpt lat="46.1432968" lon="9.4232638"><ele>201.0</ele><time>2026-04-23T09:10:02.153Z</time></trkpt><trkpt lat="46.1433312" lon="9.4231439"><ele>201.0</ele><time>2026-04-23T09:10:04.155Z</time></trkpt><trkpt lat="46.1433475" lon="9.4230539"><ele>201.0</ele><time>2026-04-23T09:10:05.154Z</time></trkpt><trkpt lat="46.143392" lon="9.4229306"><ele>201.0</ele><time>2026-04-23T09:10:07.154Z</time></trkpt><trkpt lat="46.1434267" lon="9.4228095"><ele>201.0</ele><time>2026-04-23T09:10:09.154Z</time></trkpt><trkpt lat="46.1434661" lon="9.4226778"><ele>201.0</ele><time>2026-04-23T09:10:11.155Z</time></trkpt><trkpt lat="46.1434924" lon="9.4225559"><ele>201.0</ele><time>2026-04-23T09:10:13.154Z</time></trkpt><trkpt lat="46.1435277" lon="9.4223894"><ele>201.16666666666666</ele><time>2026-04-23T09:10:15.153Z</time></trkpt><trkpt lat="46.1435697" lon="9.422267"><ele>201.33333333333331</ele><time>2026-04-23T09:10:17.154Z</time></trkpt><trkpt lat="46.1436008" lon="9.4221435"><ele>201.5</ele><time>2026-04-23T09:10:19.155Z</time></trkpt><trkpt lat="46.1436262" lon="9.4220179"><ele>201.66666666666666</ele><time>2026-04-23T09:10:21.154Z</time></trkpt><trkpt lat="46.14366" lon="9.4219036"><ele>201.83333333333331</ele><time>2026-04-23T09:10:23.154Z</time></trkpt><trkpt lat="46.1436924" lon="9.4218119"><ele>202.0</ele><time>2026-04-23T09:10:25.155Z</time></trkpt><trkpt lat="46.143721" lon="9.4216856"><ele>202.0</ele><time>2026-04-23T09:10:27.155Z</time></trkpt><trkpt lat="46.1437518" lon="9.4215732"><ele>202.0</ele><time>2026-04-23T09:10:29.155Z</time></trkpt><trkpt lat="46.1437867" lon="9.4214658"><ele>202.0</ele><time>2026-04-23T09:10:31.155Z</time></trkpt><trkpt lat="46.1438246" lon="9.4213369"><ele>202.0</ele><time>2026-04-23T09:10:33.156Z</time></trkpt><trkpt lat="46.1438694" lon="9.4212184"><ele>202.0</ele><time>2026-04-23T09:10:35.154Z</time></trkpt><trkpt lat="46.1439057" lon="9.4210867"><ele>202.0</ele><time>2026-04-23T09:10:37.155Z</time></trkpt><trkpt lat="46.1439419" lon="9.420954"><ele>202.0</ele><time>2026-04-23T09:10:39.154Z</time></trkpt><trkpt lat="46.1439799" lon="9.420817"><ele>202.0</ele><time>2026-04-23T09:10:41.153Z</time></trkpt><trkpt lat="46.1440214" lon="9.420695"><ele>202.0</ele><time>2026-04-23T09:10:43.155Z</time></trkpt><trkpt lat="46.1440547" lon="9.4205591"><ele>202.0</ele><time>2026-04-23T09:10:45.155Z</time></trkpt><trkpt lat="46.1440881" lon="9.4204194"><ele>201.8</ele><time>2026-04-23T09:10:47.154Z</time></trkpt><trkpt lat="46.1441123" lon="9.4202538"><ele>201.6</ele><time>2026-04-23T09:10:49.155Z</time></trkpt><trkpt lat="46.1441187" lon="9.4200979"><ele>201.4</ele><time>2026-04-23T09:10:51.154Z</time></trkpt><trkpt lat="46.1441146" lon="9.4199335"><ele>201.20000000000002</ele><time>2026-04-23T09:10:53.154Z</time></trkpt><trkpt lat="46.1441024" lon="9.4197765"><ele>201.0</ele><time>2026-04-23T09:10:55.154Z</time></trkpt><trkpt lat="46.1440811" lon="9.4196142"><ele>201.0</ele><time>2026-04-23T09:10:57.155Z</time></trkpt><trkpt lat="46.1440679" lon="9.4194635"><ele>201.0</ele><time>2026-04-23T09:10:59.155Z</time></trkpt><trkpt lat="46.1440446" lon="9.4193167"><ele>201.0</ele><time>2026-04-23T09:11:01.153Z</time></trkpt><trkpt lat="46.1440359" lon="9.4191713"><ele>201.0</ele><time>2026-04-23T09:11:03.156Z</time></trkpt><trkpt lat="46.1440148" lon="9.4190228"><ele>201.0</ele><time>2026-04-23T09:11:05.153Z</time></trkpt><trkpt lat="46.1439894" lon="9.4188626"><ele>200.60000000000002</ele><time>2026-04-23T09:11:07.155Z</time></trkpt><trkpt lat="46.1439548" lon="9.4187106"><ele>200.2</ele><time>2026-04-23T09:11:09.155Z</time></trkpt><trkpt lat="46.1438925" lon="9.4185968"><ele>199.8</ele><time>2026-04-23T09:11:11.154Z</time></trkpt><trkpt lat="46.1438025" lon="9.4184997"><ele>199.39999999999998</ele><time>2026-04-23T09:11:13.154Z</time></trkpt><trkpt lat="46.1437457" lon="9.4184497"><ele>199.0</ele><time>2026-04-23T09:11:14.154Z</time></trkpt><trkpt lat="46.1436499" lon="9.4183815"><ele>199.0</ele><time>2026-04-23T09:11:16.154Z</time></trkpt><trkpt lat="46.1435743" lon="9.418278"><ele>199.0</ele><time>2026-04-23T09:11:18.153Z</time></trkpt><trkpt lat="46.1435447" lon="9.4181297"><ele>199.0</ele><time>2026-04-23T09:11:20.155Z</time></trkpt><trkpt lat="46.1435369" lon="9.4179803"><ele>199.0</ele><time>2026-04-23T09:11:22.154Z</time></trkpt><trkpt lat="46.1435308" lon="9.417819"><ele>199.0</ele><time>2026-04-23T09:11:24.153Z</time></trkpt><trkpt lat="46.1435223" lon="9.4176752"><ele>199.0</ele><time>2026-04-23T09:11:26.155Z</time></trkpt><trkpt lat="46.1435201" lon="9.4175086"><ele>199.0</ele><time>2026-04-23T09:11:28.153Z</time></trkpt><trkpt lat="46.1435108" lon="9.4173396"><ele>199.0</ele><time>2026-04-23T09:11:30.153Z</time></trkpt><trkpt lat="46.1434969" lon="9.4171779"><ele>199.0</ele><time>2026-04-23T09:11:32.154Z</time></trkpt><trkpt lat="46.1434288" lon="9.4170424"><ele>199.0</ele><time>2026-04-23T09:11:34.153Z</time></trkpt><trkpt lat="46.1433544" lon="9.4169544"><ele>199.0</ele><time>2026-04-23T09:11:36.154Z</time></trkpt><trkpt lat="46.1432658" lon="9.416868"><ele>199.0</ele><time>2026-04-23T09:11:38.154Z</time></trkpt><trkpt lat="46.1431884" lon="9.4167658"><ele>199.0</ele><time>2026-04-23T09:11:40.154Z</time></trkpt><trkpt lat="46.1431392" lon="9.4166351"><ele>199.0</ele><time>2026-04-23T09:11:42.154Z</time></trkpt><trkpt lat="46.1431049" lon="9.4165443"><ele>199.33333333333331</ele><time>2026-04-23T09:11:43.155Z</time></trkpt><trkpt lat="46.1431262" lon="9.416453"><ele>199.66666666666666</ele><time>2026-04-23T09:11:45.155Z</time></trkpt><trkpt lat="46.1431637" lon="9.4163227"><ele>200.0</ele><time>2026-04-23T09:11:47.154Z</time></trkpt><trkpt lat="46.1431861" lon="9.4162197"><ele>200.33333333333331</ele><time>2026-04-23T09:11:49.155Z</time></trkpt><trkpt lat="46.1431634" lon="9.4161215"><ele>200.66666666666666</ele><time>2026-04-23T09:12:02.154Z</time></trkpt><trkpt lat="46.1431178" lon="9.4160036"><ele>201.0</ele><time>2026-04-23T09:12:05.153Z</time></trkpt><trkpt lat="46.1430919" lon="9.4158578"><ele>201.0</ele><time>2026-04-23T09:12:07.154Z</time></trkpt><trkpt lat="46.1430609" lon="9.4157254"><ele>201.0</ele><time>2026-04-23T09:12:09.155Z</time></trkpt><trkpt lat="46.143032" lon="9.4155851"><ele>201.0</ele><time>2026-04-23T09:12:11.154Z</time></trkpt><trkpt lat="46.1429788" lon="9.4154494"><ele>201.0</ele><time>2026-04-23T09:12:13.154Z</time></trkpt><trkpt lat="46.1428969" lon="9.4153669"><ele>201.0</ele><time>2026-04-23T09:12:15.156Z</time></trkpt><trkpt lat="46.1427896" lon="9.4153169"><ele>201.0</ele><time>2026-04-23T09:12:17.155Z</time></trkpt><trkpt lat="46.1426791" lon="9.4153372"><ele>201.0</ele><time>2026-04-23T09:12:19.154Z</time></trkpt><trkpt lat="46.1425867" lon="9.4154162"><ele>201.0</ele><time>2026-04-23T09:12:21.155Z</time></trkpt><trkpt lat="46.1425106" lon="9.4155481"><ele>201.0</ele><time>2026-04-23T09:12:23.154Z</time></trkpt><trkpt lat="46.1424828" lon="9.4156986"><ele>201.0</ele><time>2026-04-23T09:12:25.155Z</time></trkpt><trkpt lat="46.142458" lon="9.4158593"><ele>201.0</ele><time>2026-04-23T09:12:27.154Z</time></trkpt><trkpt lat="46.1423818" lon="9.4159859"><ele>201.0</ele><time>2026-04-23T09:12:29.154Z</time></trkpt><trkpt lat="46.1422802" lon="9.4160773"><ele>201.0</ele><time>2026-04-23T09:12:31.154Z</time></trkpt><trkpt lat="46.1422239" lon="9.4161213"><ele>201.0</ele><time>2026-04-23T09:12:32.154Z</time></trkpt><trkpt lat="46.1421151" lon="9.4162035"><ele>201.0</ele><time>2026-04-23T09:12:34.155Z</time></trkpt><trkpt lat="46.1419885" lon="9.4162169"><ele>201.0</ele><time>2026-04-23T09:12:36.153Z</time></trkpt><trkpt lat="46.1418784" lon="9.4162281"><ele>201.0</ele><time>2026-04-23T09:12:38.154Z</time></trkpt><trkpt lat="46.1417757" lon="9.4163105"><ele>201.0</ele><time>2026-04-23T09:12:40.155Z</time></trkpt><trkpt lat="46.1417307" lon="9.416468"><ele>201.0</ele><time>2026-04-23T09:12:42.154Z</time></trkpt><trkpt lat="46.1417506" lon="9.4166457"><ele>201.16666666666666</ele><time>2026-04-23T09:12:44.154Z</time></trkpt><trkpt lat="46.1417692" lon="9.4167407"><ele>201.33333333333331</ele><time>2026-04-23T09:12:45.155Z</time></trkpt><trkpt lat="46.1417933" lon="9.4168361"><ele>201.5</ele><time>2026-04-23T09:12:46.154Z</time></trkpt><trkpt lat="46.1418081" lon="9.4169282"><ele>201.66666666666666</ele><time>2026-04-23T09:12:47.155Z</time></trkpt><trkpt lat="46.1418035" lon="9.4170254"><ele>201.83333333333331</ele><time>2026-04-23T09:12:48.154Z</time></trkpt><trkpt lat="46.1417846" lon="9.4172044"><ele>202.0</ele><time>2026-04-23T09:12:50.154Z</time></trkpt><trkpt lat="46.1417651" lon="9.4173851"><ele>202.2</ele><time>2026-04-23T09:12:52.156Z</time></trkpt><trkpt lat="46.1417527" lon="9.4174785"><ele>202.39999999999998</ele><time>2026-04-23T09:12:53.154Z</time></trkpt><trkpt lat="46.1417397" lon="9.41757"><ele>202.60000000000002</ele><time>2026-04-23T09:12:54.154Z</time></trkpt><trkpt lat="46.1417102" lon="9.41773"><ele>202.8</ele><time>2026-04-23T09:12:56.155Z</time></trkpt><trkpt lat="46.141632" lon="9.417849"><ele>203.0</ele><time>2026-04-23T09:12:58.154Z</time></trkpt><trkpt lat="46.1415215" lon="9.4179033"><ele>203.66666666666669</ele><time>2026-04-23T09:13:00.154Z</time></trkpt><trkpt lat="46.1413987" lon="9.4179249"><ele>204.33333333333334</ele><time>2026-04-23T09:13:02.154Z</time></trkpt><trkpt lat="46.1413319" lon="9.417932"><ele>205.0</ele><time>2026-04-23T09:13:03.155Z</time></trkpt><trkpt lat="46.1412651" lon="9.4179417"><ele>205.66666666666669</ele><time>2026-04-23T09:13:04.154Z</time></trkpt><trkpt lat="46.1411495" lon="9.4179535"><ele>206.33333333333334</ele><time>2026-04-23T09:13:06.154Z</time></trkpt><trkpt lat="46.1410852" lon="9.4179589"><ele>207.0</ele><time>2026-04-23T09:13:07.154Z</time></trkpt><trkpt lat="46.1410141" lon="9.4179627"><ele>207.0</ele><time>2026-04-23T09:13:08.155Z</time></trkpt><trkpt lat="46.1409468" lon="9.417972"><ele>207.0</ele><time>2026-04-23T09:13:09.154Z</time></trkpt><trkpt lat="46.1408229" lon="9.4179787"><ele>207.0</ele><time>2026-04-23T09:13:11.155Z</time></trkpt><trkpt lat="46.1406947" lon="9.4180045"><ele>207.0</ele><time>2026-04-23T09:13:13.154Z</time></trkpt><trkpt lat="46.1405769" lon="9.418029"><ele>207.0</ele><time>2026-04-23T09:13:15.155Z</time></trkpt><trkpt lat="46.140483" lon="9.4180206"><ele>206.39999999999998</ele><time>2026-04-23T09:13:17.154Z</time></trkpt><trkpt lat="46.1404156" lon="9.4179988"><ele>205.79999999999998</ele><time>2026-04-23T09:13:18.155Z</time></trkpt><trkpt lat="46.1403527" lon="9.4180062"><ele>205.2</ele><time>2026-04-23T09:13:19.155Z</time></trkpt><trkpt lat="46.1402226" lon="9.4180384"><ele>204.6</ele><time>2026-04-23T09:13:21.154Z</time></trkpt><trkpt lat="46.1400982" lon="9.4180192"><ele>204.0</ele><time>2026-04-23T09:13:23.155Z</time></trkpt><trkpt lat="46.140033" lon="9.4180058"><ele>204.0</ele><time>2026-04-23T09:13:24.154Z</time></trkpt><trkpt lat="46.1399721" lon="9.4179757"><ele>204.0</ele><time>2026-04-23T09:13:25.154Z</time></trkpt><trkpt lat="46.139867" lon="9.4179046"><ele>204.0</ele><time>2026-04-23T09:13:27.154Z</time></trkpt><trkpt lat="46.1398095" lon="9.4178664"><ele>204.0</ele><time>2026-04-23T09:13:28.155Z</time></trkpt><trkpt lat="46.1397436" lon="9.417841"><ele>204.0</ele><time>2026-04-23T09:13:29.154Z</time></trkpt><trkpt lat="46.1396748" lon="9.4178362"><ele>204.0</ele><time>2026-04-23T09:13:30.155Z</time></trkpt><trkpt lat="46.1396098" lon="9.4178245"><ele>204.0</ele><time>2026-04-23T09:13:31.154Z</time></trkpt><trkpt lat="46.1395438" lon="9.4178304"><ele>204.0</ele><time>2026-04-23T09:13:32.155Z</time></trkpt><trkpt lat="46.1394802" lon="9.417845"><ele>204.0</ele><time>2026-04-23T09:13:33.155Z</time></trkpt><trkpt lat="46.1393621" lon="9.4178621"><ele>204.0</ele><time>2026-04-23T09:13:35.156Z</time></trkpt><trkpt lat="46.139291" lon="9.4178745"><ele>204.0</ele><time>2026-04-23T09:13:36.154Z</time></trkpt><trkpt lat="46.1392194" lon="9.4178799"><ele>204.0</ele><time>2026-04-23T09:13:37.154Z</time></trkpt><trkpt lat="46.1391103" lon="9.4178774"><ele>204.0</ele><time>2026-04-23T09:13:39.154Z</time></trkpt><trkpt lat="46.1390429" lon="9.4178823"><ele>205.83333333333334</ele><time>2026-04-23T09:13:40.154Z</time></trkpt><trkpt lat="46.1389792" lon="9.4178817"><ele>207.66666666666669</ele><time>2026-04-23T09:13:41.155Z</time></trkpt><trkpt lat="46.1389157" lon="9.4178866"><ele>209.5</ele><time>2026-04-23T09:13:42.155Z</time></trkpt><trkpt lat="46.1388511" lon="9.4178957"><ele>211.33333333333334</ele><time>2026-04-23T09:13:43.155Z</time></trkpt><trkpt lat="46.1387862" lon="9.4179023"><ele>213.16666666666669</ele><time>2026-04-23T09:13:44.155Z</time></trkpt><trkpt lat="46.138669" lon="9.4179331"><ele>215.0</ele><time>2026-04-23T09:13:46.155Z</time></trkpt><trkpt lat="46.1385493" lon="9.4179178"><ele>215.0</ele><time>2026-04-23T09:13:48.154Z</time></trkpt><trkpt lat="46.1384757" lon="9.4178134"><ele>215.0</ele><time>2026-04-23T09:13:50.155Z</time></trkpt><trkpt lat="46.1384413" lon="9.4176596"><ele>215.0</ele><time>2026-04-23T09:13:52.154Z</time></trkpt><trkpt lat="46.13841" lon="9.4175188"><ele>215.0</ele><time>2026-04-23T09:13:54.154Z</time></trkpt><trkpt lat="46.1383917" lon="9.4174053"><ele>215.0</ele><time>2026-04-23T09:13:55.155Z</time></trkpt><trkpt lat="46.1383357" lon="9.4172627"><ele>212.8</ele><time>2026-04-23T09:13:57.155Z</time></trkpt><trkpt lat="46.1382704" lon="9.4171421"><ele>210.6</ele><time>2026-04-23T09:13:59.155Z</time></trkpt><trkpt lat="46.1382013" lon="9.4170243"><ele>208.39999999999998</ele><time>2026-04-23T09:14:01.155Z</time></trkpt><trkpt lat="46.1381531" lon="9.4168659"><ele>206.2</ele><time>2026-04-23T09:14:03.155Z</time></trkpt><trkpt lat="46.1381298" lon="9.4167791"><ele>204.0</ele><time>2026-04-23T09:14:04.156Z</time></trkpt><trkpt lat="46.1380628" lon="9.4166112"><ele>207.6</ele><time>2026-04-23T09:14:06.154Z</time></trkpt><trkpt lat="46.1380028" lon="9.4165007"><ele>211.2</ele><time>2026-04-23T09:14:08.154Z</time></trkpt><trkpt lat="46.1379558" lon="9.4164279"><ele>214.79999999999998</ele><time>2026-04-23T09:14:09.155Z</time></trkpt><trkpt lat="46.1379056" lon="9.4163079"><ele>218.39999999999998</ele><time>2026-04-23T09:14:11.155Z</time></trkpt><trkpt lat="46.1378561" lon="9.4161496"><ele>222.0</ele><time>2026-04-23T09:14:13.155Z</time></trkpt><trkpt lat="46.1378122" lon="9.416052"><ele>222.0</ele><time>2026-04-23T09:14:15.156Z</time></trkpt><trkpt lat="46.1377624" lon="9.4159748"><ele>222.0</ele><time>2026-04-23T09:14:16.154Z</time></trkpt><trkpt lat="46.1376924" lon="9.4158484"><ele>222.0</ele><time>2026-04-23T09:14:18.154Z</time></trkpt><trkpt lat="46.137653" lon="9.4156977"><ele>222.0</ele><time>2026-04-23T09:14:20.156Z</time></trkpt><trkpt lat="46.1376065" lon="9.4155422"><ele>222.0</ele><time>2026-04-23T09:14:22.154Z</time></trkpt><trkpt lat="46.1375603" lon="9.4154528"><ele>219.2</ele><time>2026-04-23T09:14:23.154Z</time></trkpt><trkpt lat="46.1375292" lon="9.4153738"><ele>216.39999999999998</ele><time>2026-04-23T09:14:24.154Z</time></trkpt><trkpt lat="46.1374851" lon="9.4152471"><ele>213.60000000000002</ele><time>2026-04-23T09:14:26.154Z</time></trkpt><trkpt lat="46.1374306" lon="9.4151193"><ele>210.8</ele><time>2026-04-23T09:14:28.154Z</time></trkpt><trkpt lat="46.1373715" lon="9.4149754"><ele>208.0</ele><time>2026-04-23T09:14:30.156Z</time></trkpt><trkpt lat="46.1373082" lon="9.4148476"><ele>214.2</ele><time>2026-04-23T09:14:32.154Z</time></trkpt><trkpt lat="46.1372565" lon="9.4147343"><ele>220.4</ele><time>2026-04-23T09:14:34.155Z</time></trkpt><trkpt lat="46.1372238" lon="9.4145375"><ele>226.59999999999997</ele><time>2026-04-23T09:14:36.154Z</time></trkpt><trkpt lat="46.1372154" lon="9.4144289"><ele>232.79999999999998</ele><time>2026-04-23T09:14:37.154Z</time></trkpt><trkpt lat="46.1371555" lon="9.4142596"><ele>239.0</ele><time>2026-04-23T09:14:39.156Z</time></trkpt><trkpt lat="46.1370936" lon="9.4140393"><ele>239.0</ele><time>2026-04-23T09:14:41.155Z</time></trkpt><trkpt lat="46.1370398" lon="9.41389"><ele>238.99999999999997</ele><time>2026-04-23T09:14:43.155Z</time></trkpt><trkpt lat="46.1370084" lon="9.4137595"><ele>238.99999999999997</ele><time>2026-04-23T09:14:45.156Z</time></trkpt><trkpt lat="46.136959" lon="9.4136414"><ele>239.0</ele><time>2026-04-23T09:14:47.154Z</time></trkpt><trkpt lat="46.1369315" lon="9.4135318"><ele>239.0</ele><time>2026-04-23T09:14:49.154Z</time></trkpt><trkpt lat="46.136909" lon="9.4134109"><ele>236.0</ele><time>2026-04-23T09:14:51.155Z</time></trkpt><trkpt lat="46.1369147" lon="9.413246"><ele>232.99999999999997</ele><time>2026-04-23T09:14:53.155Z</time></trkpt><trkpt lat="46.1368696" lon="9.4131594"><ele>229.99999999999997</ele><time>2026-04-23T09:14:55.155Z</time></trkpt><trkpt lat="46.1368492" lon="9.4130345"><ele>227.0</ele><time>2026-04-23T09:14:57.156Z</time></trkpt><trkpt lat="46.1368243" lon="9.4129311"><ele>224.0</ele><time>2026-04-23T09:14:59.155Z</time></trkpt><trkpt lat="46.1367679" lon="9.4128053"><ele>222.2</ele><time>2026-04-23T09:15:01.154Z</time></trkpt><trkpt lat="46.1366979" lon="9.4127451"><ele>220.39999999999998</ele><time>2026-04-23T09:15:03.155Z</time></trkpt><trkpt lat="46.1366625" lon="9.4125819"><ele>218.6</ele><time>2026-04-23T09:15:05.154Z</time></trkpt><trkpt lat="46.1366926" lon="9.4124838"><ele>216.8</ele><time>2026-04-23T09:15:06.154Z</time></trkpt><trkpt lat="46.1367203" lon="9.4123117"><ele>215.0</ele><time>2026-04-23T09:15:08.154Z</time></trkpt><trkpt lat="46.1366737" lon="9.4121874"><ele>213.83333333333334</ele><time>2026-04-23T09:15:11.156Z</time></trkpt><trkpt lat="46.1366473" lon="9.4120828"><ele>212.66666666666669</ele><time>2026-04-23T09:15:13.155Z</time></trkpt><trkpt lat="46.1366294" lon="9.4119795"><ele>211.5</ele><time>2026-04-23T09:15:15.154Z</time></trkpt><trkpt lat="46.136601" lon="9.4118688"><ele>210.33333333333331</ele><time>2026-04-23T09:15:17.155Z</time></trkpt><trkpt lat="46.1365776" lon="9.4117672"><ele>209.16666666666666</ele><time>2026-04-23T09:15:19.154Z</time></trkpt><trkpt lat="46.1365553" lon="9.4116527"><ele>208.0</ele><time>2026-04-23T09:15:21.155Z</time></trkpt><trkpt lat="46.1365368" lon="9.4115529"><ele>209.99999999999997</ele><time>2026-04-23T09:15:23.154Z</time></trkpt><trkpt lat="46.1365171" lon="9.4114603"><ele>212.0</ele><time>2026-04-23T09:15:25.155Z</time></trkpt><trkpt lat="46.1364895" lon="9.4113464"><ele>214.0</ele><time>2026-04-23T09:15:27.154Z</time></trkpt><trkpt lat="46.136457" lon="9.4111733"><ele>216.0</ele><time>2026-04-23T09:15:29.155Z</time></trkpt><trkpt lat="46.1364497" lon="9.411071"><ele>217.99999999999997</ele><time>2026-04-23T09:15:30.154Z</time></trkpt><trkpt lat="46.1364495" lon="9.4109381"><ele>220.0</ele><time>2026-04-23T09:15:31.155Z</time></trkpt><trkpt lat="46.1364306" lon="9.4108464"><ele>220.0</ele><time>2026-04-23T09:15:32.154Z</time></trkpt><trkpt lat="46.1364077" lon="9.4107405"><ele>220.0</ele><time>2026-04-23T09:15:33.155Z</time></trkpt><trkpt lat="46.1363933" lon="9.4106508"><ele>220.0</ele><time>2026-04-23T09:15:34.154Z</time></trkpt><trkpt lat="46.1363809" lon="9.4105402"><ele>220.0</ele><time>2026-04-23T09:15:35.156Z</time></trkpt><trkpt lat="46.1363511" lon="9.4103643"><ele>220.0</ele><time>2026-04-23T09:15:37.154Z</time></trkpt><trkpt lat="46.1363481" lon="9.410198"><ele>219.6</ele><time>2026-04-23T09:15:39.155Z</time></trkpt><trkpt lat="46.1363162" lon="9.4101047"><ele>219.2</ele><time>2026-04-23T09:15:40.154Z</time></trkpt><trkpt lat="46.1363141" lon="9.410011"><ele>218.8</ele><time>2026-04-23T09:15:41.155Z</time></trkpt><trkpt lat="46.1363064" lon="9.4098364"><ele>218.4</ele><time>2026-04-23T09:15:43.155Z</time></trkpt><trkpt lat="46.1362738" lon="9.4096757"><ele>218.0</ele><time>2026-04-23T09:15:45.155Z</time></trkpt><trkpt lat="46.136258" lon="9.4095226"><ele>216.60000000000002</ele><time>2026-04-23T09:15:47.154Z</time></trkpt><trkpt lat="46.1362553" lon="9.4093663"><ele>215.20000000000002</ele><time>2026-04-23T09:15:49.155Z</time></trkpt><trkpt lat="46.1362524" lon="9.4092045"><ele>213.8</ele><time>2026-04-23T09:15:51.155Z</time></trkpt><trkpt lat="46.1362586" lon="9.4090696"><ele>212.4</ele><time>2026-04-23T09:15:53.156Z</time></trkpt><trkpt lat="46.1362773" lon="9.40891"><ele>211.0</ele><time>2026-04-23T09:15:55.156Z</time></trkpt><trkpt lat="46.1362927" lon="9.408805"><ele>210.8</ele><time>2026-04-23T09:15:56.154Z</time></trkpt><trkpt lat="46.1363387" lon="9.4086589"><ele>210.60000000000002</ele><time>2026-04-23T09:15:58.156Z</time></trkpt><trkpt lat="46.1363798" lon="9.4085138"><ele>210.4</ele><time>2026-04-23T09:16:00.156Z</time></trkpt><trkpt lat="46.1364203" lon="9.4083769"><ele>210.2</ele><time>2026-04-23T09:16:02.155Z</time></trkpt><trkpt lat="46.1364604" lon="9.408208"><ele>210.0</ele><time>2026-04-23T09:16:04.155Z</time></trkpt><trkpt lat="46.1365057" lon="9.4080602"><ele>210.0</ele><time>2026-04-23T09:16:06.155Z</time></trkpt><trkpt lat="46.1365409" lon="9.4079341"><ele>210.0</ele><time>2026-04-23T09:16:08.155Z</time></trkpt><trkpt lat="46.1365831" lon="9.4077889"><ele>210.0</ele><time>2026-04-23T09:16:10.154Z</time></trkpt><trkpt lat="46.1366144" lon="9.4076663"><ele>210.0</ele><time>2026-04-23T09:16:12.155Z</time></trkpt><trkpt lat="46.1366481" lon="9.4075194"><ele>210.0</ele><time>2026-04-23T09:16:14.155Z</time></trkpt><trkpt lat="46.136683" lon="9.4073752"><ele>210.0</ele><time>2026-04-23T09:16:16.155Z</time></trkpt><trkpt lat="46.13672" lon="9.4072518"><ele>210.0</ele><time>2026-04-23T09:16:18.155Z</time></trkpt><trkpt lat="46.1367566" lon="9.4071169"><ele>210.0</ele><time>2026-04-23T09:16:20.154Z</time></trkpt><trkpt lat="46.1366618" lon="9.4068277"><ele>210.0</ele><time>2026-04-23T09:16:21.155Z</time></trkpt><trkpt lat="46.1367661" lon="9.4069531"><ele>210.4</ele><time>2026-04-23T09:16:23.154Z</time></trkpt><trkpt lat="46.1368103" lon="9.406824"><ele>210.8</ele><time>2026-04-23T09:16:25.154Z</time></trkpt><trkpt lat="46.1368441" lon="9.4066939"><ele>211.2</ele><time>2026-04-23T09:16:27.155Z</time></trkpt><trkpt lat="46.1368769" lon="9.4065792"><ele>211.6</ele><time>2026-04-23T09:16:29.155Z</time></trkpt><trkpt lat="46.1369063" lon="9.4064415"><ele>212.0</ele><time>2026-04-23T09:16:31.154Z</time></trkpt><trkpt lat="46.1369346" lon="9.4063113"><ele>212.0</ele><time>2026-04-23T09:16:33.154Z</time></trkpt><trkpt lat="46.1369633" lon="9.4061867"><ele>212.0</ele><time>2026-04-23T09:16:35.154Z</time></trkpt><trkpt lat="46.1369953" lon="9.4060518"><ele>212.0</ele><time>2026-04-23T09:16:37.154Z</time></trkpt><trkpt lat="46.1370262" lon="9.4059305"><ele>212.0</ele><time>2026-04-23T09:16:39.154Z</time></trkpt><trkpt lat="46.1370699" lon="9.4057915"><ele>212.0</ele><time>2026-04-23T09:16:41.156Z</time></trkpt><trkpt lat="46.1371012" lon="9.405671"><ele>212.00000000000003</ele><time>2026-04-23T09:16:43.154Z</time></trkpt><trkpt lat="46.1371368" lon="9.4055655"><ele>212.0</ele><time>2026-04-23T09:16:45.155Z</time></trkpt><trkpt lat="46.1371599" lon="9.4054608"><ele>212.0</ele><time>2026-04-23T09:16:47.154Z</time></trkpt><trkpt lat="46.1371772" lon="9.4053485"><ele>212.0</ele><time>2026-04-23T09:16:50.154Z</time></trkpt><trkpt lat="46.137193" lon="9.40522"><ele>212.00000000000003</ele><time>2026-04-23T09:16:52.154Z</time></trkpt><trkpt lat="46.1372029" lon="9.4050932"><ele>212.0</ele><time>2026-04-23T09:16:54.154Z</time></trkpt><trkpt lat="46.1372421" lon="9.4049523"><ele>212.16666666666669</ele><time>2026-04-23T09:16:56.154Z</time></trkpt><trkpt lat="46.1372566" lon="9.4048609"><ele>212.33333333333334</ele><time>2026-04-23T09:16:57.155Z</time></trkpt><trkpt lat="46.1372873" lon="9.4047238"><ele>212.5</ele><time>2026-04-23T09:16:59.155Z</time></trkpt><trkpt lat="46.1373236" lon="9.4046176"><ele>212.66666666666669</ele><time>2026-04-23T09:17:01.156Z</time></trkpt><trkpt lat="46.1373518" lon="9.4045142"><ele>212.83333333333334</ele><time>2026-04-23T09:17:03.156Z</time></trkpt><trkpt lat="46.1373769" lon="9.4043868"><ele>213.0</ele><time>2026-04-23T09:17:05.154Z</time></trkpt><trkpt lat="46.137399" lon="9.4042955"><ele>213.0</ele><time>2026-04-23T09:17:07.156Z</time></trkpt><trkpt lat="46.1374335" lon="9.4041751"><ele>213.0</ele><time>2026-04-23T09:17:09.155Z</time></trkpt><trkpt lat="46.1374567" lon="9.4040671"><ele>213.0</ele><time>2026-04-23T09:17:11.155Z</time></trkpt><trkpt lat="46.1374861" lon="9.4039542"><ele>213.0</ele><time>2026-04-23T09:17:13.155Z</time></trkpt><trkpt lat="46.1375124" lon="9.4038515"><ele>213.0</ele><time>2026-04-23T09:17:15.154Z</time></trkpt><trkpt lat="46.1375425" lon="9.4037327"><ele>213.0</ele><time>2026-04-23T09:17:17.154Z</time></trkpt><trkpt lat="46.1375727" lon="9.403621"><ele>213.0</ele><time>2026-04-23T09:17:19.155Z</time></trkpt><trkpt lat="46.1375987" lon="9.4034876"><ele>213.0</ele><time>2026-04-23T09:17:21.154Z</time></trkpt><trkpt lat="46.13764" lon="9.4033274"><ele>213.0</ele><time>2026-04-23T09:17:24.155Z</time></trkpt><trkpt lat="46.1376736" lon="9.4032183"><ele>213.0</ele><time>2026-04-23T09:17:26.155Z</time></trkpt><trkpt lat="46.1377114" lon="9.4031026"><ele>213.0</ele><time>2026-04-23T09:17:28.155Z</time></trkpt><trkpt lat="46.1377485" lon="9.4029855"><ele>213.4</ele><time>2026-04-23T09:17:30.154Z</time></trkpt><trkpt lat="46.1377728" lon="9.4028535"><ele>213.8</ele><time>2026-04-23T09:17:32.154Z</time></trkpt><trkpt lat="46.1378078" lon="9.4027207"><ele>214.2</ele><time>2026-04-23T09:17:34.155Z</time></trkpt><trkpt lat="46.1378418" lon="9.402598"><ele>214.6</ele><time>2026-04-23T09:17:36.155Z</time></trkpt><trkpt lat="46.1378688" lon="9.4024579"><ele>215.0</ele><time>2026-04-23T09:17:38.157Z</time></trkpt><trkpt lat="46.1378975" lon="9.4023138"><ele>215.0</ele><time>2026-04-23T09:17:40.154Z</time></trkpt><trkpt lat="46.137931" lon="9.4021827"><ele>215.0</ele><time>2026-04-23T09:17:42.156Z</time></trkpt><trkpt lat="46.1379686" lon="9.4020501"><ele>215.0</ele><time>2026-04-23T09:17:44.155Z</time></trkpt><trkpt lat="46.1380101" lon="9.4019191"><ele>215.0</ele><time>2026-04-23T09:17:46.155Z</time></trkpt><trkpt lat="46.138033" lon="9.4017891"><ele>215.0</ele><time>2026-04-23T09:17:48.155Z</time></trkpt><trkpt lat="46.1380584" lon="9.4016771"><ele>215.16666666666669</ele><time>2026-04-23T09:17:50.155Z</time></trkpt><trkpt lat="46.1380856" lon="9.4015543"><ele>215.33333333333334</ele><time>2026-04-23T09:17:52.155Z</time></trkpt><trkpt lat="46.1381172" lon="9.401464"><ele>215.5</ele><time>2026-04-23T09:17:54.154Z</time></trkpt><trkpt lat="46.1381561" lon="9.4013498"><ele>215.66666666666669</ele><time>2026-04-23T09:17:56.156Z</time></trkpt><trkpt lat="46.138163" lon="9.4012255"><ele>215.83333333333334</ele><time>2026-04-23T09:17:58.155Z</time></trkpt><trkpt lat="46.1381971" lon="9.4010728"><ele>216.0</ele><time>2026-04-23T09:18:00.156Z</time></trkpt><trkpt lat="46.1382253" lon="9.4009542"><ele>215.60000000000002</ele><time>2026-04-23T09:18:02.155Z</time></trkpt><trkpt lat="46.1382632" lon="9.4008247"><ele>215.20000000000002</ele><time>2026-04-23T09:18:04.155Z</time></trkpt><trkpt lat="46.1382888" lon="9.4007035"><ele>214.79999999999998</ele><time>2026-04-23T09:18:06.155Z</time></trkpt><trkpt lat="46.1383248" lon="9.40057"><ele>214.39999999999998</ele><time>2026-04-23T09:18:08.155Z</time></trkpt><trkpt lat="46.1383508" lon="9.4004427"><ele>214.0</ele><time>2026-04-23T09:18:10.155Z</time></trkpt><trkpt lat="46.1383817" lon="9.4003093"><ele>213.99999999999997</ele><time>2026-04-23T09:18:12.155Z</time></trkpt><trkpt lat="46.138413" lon="9.4001803"><ele>214.0</ele><time>2026-04-23T09:18:14.157Z</time></trkpt><trkpt lat="46.1384363" lon="9.4000693"><ele>214.0</ele><time>2026-04-23T09:18:16.156Z</time></trkpt><trkpt lat="46.138464" lon="9.3999509"><ele>214.0</ele><time>2026-04-23T09:18:18.155Z</time></trkpt><trkpt lat="46.1384927" lon="9.3998263"><ele>213.99999999999997</ele><time>2026-04-23T09:18:20.154Z</time></trkpt><trkpt lat="46.1385251" lon="9.3997088"><ele>214.0</ele><time>2026-04-23T09:18:22.154Z</time></trkpt><trkpt lat="46.1385622" lon="9.3995905"><ele>214.6</ele><time>2026-04-23T09:18:24.155Z</time></trkpt><trkpt lat="46.1385949" lon="9.3994712"><ele>215.2</ele><time>2026-04-23T09:18:26.156Z</time></trkpt><trkpt lat="46.1386308" lon="9.3993357"><ele>215.79999999999998</ele><time>2026-04-23T09:18:28.155Z</time></trkpt><trkpt lat="46.1386676" lon="9.3992252"><ele>216.39999999999998</ele><time>2026-04-23T09:18:30.156Z</time></trkpt><trkpt lat="46.138691" lon="9.3991036"><ele>217.0</ele><time>2026-04-23T09:18:32.154Z</time></trkpt><trkpt lat="46.1387157" lon="9.3989742"><ele>216.99999999999997</ele><time>2026-04-23T09:18:34.155Z</time></trkpt><trkpt lat="46.1387431" lon="9.3988522"><ele>217.0</ele><time>2026-04-23T09:18:36.156Z</time></trkpt><trkpt lat="46.1387709" lon="9.3987229"><ele>217.0</ele><time>2026-04-23T09:18:38.155Z</time></trkpt><trkpt lat="46.1388016" lon="9.3986061"><ele>217.0</ele><time>2026-04-23T09:18:40.155Z</time></trkpt><trkpt lat="46.1388287" lon="9.3984898"><ele>216.99999999999997</ele><time>2026-04-23T09:18:42.155Z</time></trkpt><trkpt lat="46.1388676" lon="9.3983662"><ele>217.0</ele><time>2026-04-23T09:18:44.155Z</time></trkpt><trkpt lat="46.1388938" lon="9.3982502"><ele>217.2</ele><time>2026-04-23T09:18:46.156Z</time></trkpt><trkpt lat="46.1389226" lon="9.3981098"><ele>217.39999999999998</ele><time>2026-04-23T09:18:48.155Z</time></trkpt><trkpt lat="46.1389646" lon="9.397989"><ele>217.60000000000002</ele><time>2026-04-23T09:18:50.155Z</time></trkpt><trkpt lat="46.1389959" lon="9.3978802"><ele>217.8</ele><time>2026-04-23T09:18:52.154Z</time></trkpt><trkpt lat="46.1390252" lon="9.39775"><ele>218.0</ele><time>2026-04-23T09:18:54.156Z</time></trkpt><trkpt lat="46.1390609" lon="9.3976355"><ele>217.83333333333334</ele><time>2026-04-23T09:18:56.155Z</time></trkpt><trkpt lat="46.1390989" lon="9.3975108"><ele>217.66666666666669</ele><time>2026-04-23T09:18:58.155Z</time></trkpt><trkpt lat="46.1391273" lon="9.3973939"><ele>217.5</ele><time>2026-04-23T09:19:00.156Z</time></trkpt><trkpt lat="46.1391568" lon="9.3972758"><ele>217.33333333333331</ele><time>2026-04-23T09:19:02.155Z</time></trkpt><trkpt lat="46.1391903" lon="9.397155"><ele>217.16666666666666</ele><time>2026-04-23T09:19:04.156Z</time></trkpt><trkpt lat="46.1392264" lon="9.3970437"><ele>217.0</ele><time>2026-04-23T09:19:06.154Z</time></trkpt><trkpt lat="46.139246" lon="9.3969094"><ele>217.0</ele><time>2026-04-23T09:19:08.156Z</time></trkpt><trkpt lat="46.1392776" lon="9.3967816"><ele>217.0</ele><time>2026-04-23T09:19:10.155Z</time></trkpt><trkpt lat="46.1393079" lon="9.3966586"><ele>217.0</ele><time>2026-04-23T09:19:12.156Z</time></trkpt><trkpt lat="46.139338" lon="9.3965476"><ele>217.0</ele><time>2026-04-23T09:19:13.155Z</time></trkpt><trkpt lat="46.1393646" lon="9.396416"><ele>217.0</ele><time>2026-04-23T09:19:15.156Z</time></trkpt><trkpt lat="46.1393995" lon="9.3962826"><ele>217.0</ele><time>2026-04-23T09:19:17.156Z</time></trkpt><trkpt lat="46.1394442" lon="9.3961385"><ele>217.0</ele><time>2026-04-23T09:19:19.155Z</time></trkpt><trkpt lat="46.1394723" lon="9.396015"><ele>217.0</ele><time>2026-04-23T09:19:21.156Z</time></trkpt><trkpt lat="46.1394999" lon="9.3958788"><ele>217.0</ele><time>2026-04-23T09:19:23.154Z</time></trkpt><trkpt lat="46.1395184" lon="9.3957548"><ele>217.0</ele><time>2026-04-23T09:19:25.155Z</time></trkpt><trkpt lat="46.1395573" lon="9.3956164"><ele>217.0</ele><time>2026-04-23T09:19:27.156Z</time></trkpt><trkpt lat="46.1395865" lon="9.3954717"><ele>217.0</ele><time>2026-04-23T09:19:29.155Z</time></trkpt><trkpt lat="46.1396342" lon="9.3953356"><ele>217.0</ele><time>2026-04-23T09:19:31.156Z</time></trkpt><trkpt lat="46.1396665" lon="9.395212"><ele>217.0</ele><time>2026-04-23T09:19:33.156Z</time></trkpt><trkpt lat="46.1397038" lon="9.3950799"><ele>217.0</ele><time>2026-04-23T09:19:35.155Z</time></trkpt><trkpt lat="46.1397369" lon="9.3949639"><ele>216.99999999999997</ele><time>2026-04-23T09:19:37.155Z</time></trkpt><trkpt lat="46.1397799" lon="9.3948613"><ele>217.0</ele><time>2026-04-23T09:19:39.156Z</time></trkpt><trkpt lat="46.1398321" lon="9.3947686"><ele>217.0</ele><time>2026-04-23T09:19:41.154Z</time></trkpt><trkpt lat="46.1398765" lon="9.3946502"><ele>217.0</ele><time>2026-04-23T09:19:43.155Z</time></trkpt><trkpt lat="46.1399119" lon="9.3945412"><ele>216.99999999999997</ele><time>2026-04-23T09:19:45.156Z</time></trkpt><trkpt lat="46.1399656" lon="9.394451"><ele>217.0</ele><time>2026-04-23T09:19:47.156Z</time></trkpt><trkpt lat="46.1400211" lon="9.3943806"><ele>217.16666666666666</ele><time>2026-04-23T09:19:49.155Z</time></trkpt><trkpt lat="46.140094" lon="9.3943626"><ele>217.33333333333331</ele><time>2026-04-23T09:20:02.155Z</time></trkpt><trkpt lat="46.140138" lon="9.3942964"><ele>217.5</ele><time>2026-04-23T09:20:05.156Z</time></trkpt><trkpt lat="46.1401325" lon="9.3942042"><ele>217.66666666666669</ele><time>2026-04-23T09:20:07.155Z</time></trkpt><trkpt lat="46.1401261" lon="9.3940778"><ele>217.83333333333334</ele><time>2026-04-23T09:20:09.157Z</time></trkpt><trkpt lat="46.1401169" lon="9.3939378"><ele>218.0</ele><time>2026-04-23T09:20:12.155Z</time></trkpt><trkpt lat="46.1401286" lon="9.3938124"><ele>218.0</ele><time>2026-04-23T09:20:14.155Z</time></trkpt><trkpt lat="46.1401177" lon="9.3936924"><ele>218.0</ele><time>2026-04-23T09:20:16.155Z</time></trkpt><trkpt lat="46.1401076" lon="9.3935499"><ele>218.0</ele><time>2026-04-23T09:20:18.156Z</time></trkpt><trkpt lat="46.1401154" lon="9.3933971"><ele>218.0</ele><time>2026-04-23T09:20:20.156Z</time></trkpt><trkpt lat="46.1401159" lon="9.3932629"><ele>218.0</ele><time>2026-04-23T09:20:22.155Z</time></trkpt><trkpt lat="46.1401209" lon="9.3931115"><ele>218.2</ele><time>2026-04-23T09:20:24.157Z</time></trkpt><trkpt lat="46.1401163" lon="9.3929694"><ele>218.4</ele><time>2026-04-23T09:20:26.155Z</time></trkpt><trkpt lat="46.1401126" lon="9.3928146"><ele>218.59999999999997</ele><time>2026-04-23T09:20:28.155Z</time></trkpt><trkpt lat="46.1400938" lon="9.3926536"><ele>218.79999999999998</ele><time>2026-04-23T09:20:30.156Z</time></trkpt><trkpt lat="46.1400946" lon="9.3925083"><ele>219.0</ele><time>2026-04-23T09:20:32.156Z</time></trkpt><trkpt lat="46.1400949" lon="9.3923494"><ele>219.0</ele><time>2026-04-23T09:20:34.156Z</time></trkpt><trkpt lat="46.140098" lon="9.392257"><ele>218.99999999999997</ele><time>2026-04-23T09:20:35.155Z</time></trkpt><trkpt lat="46.1401041" lon="9.3921183"><ele>218.99999999999997</ele><time>2026-04-23T09:20:37.155Z</time></trkpt><trkpt lat="46.1401006" lon="9.3919588"><ele>219.0</ele><time>2026-04-23T09:20:39.155Z</time></trkpt><trkpt lat="46.1400861" lon="9.3918288"><ele>219.0</ele><time>2026-04-23T09:20:41.156Z</time></trkpt><trkpt lat="46.140079" lon="9.391696"><ele>218.66666666666666</ele><time>2026-04-23T09:20:43.157Z</time></trkpt><trkpt lat="46.1400602" lon="9.3915577"><ele>218.33333333333331</ele><time>2026-04-23T09:20:45.155Z</time></trkpt><trkpt lat="46.1400577" lon="9.3914086"><ele>218.0</ele><time>2026-04-23T09:20:47.155Z</time></trkpt><trkpt lat="46.140132" lon="9.3913591"><ele>217.66666666666666</ele><time>2026-04-23T09:20:50.155Z</time></trkpt><trkpt lat="46.1402223" lon="9.3913876"><ele>217.33333333333331</ele><time>2026-04-23T09:20:52.156Z</time></trkpt><trkpt lat="46.1402855" lon="9.3914117"><ele>217.0</ele><time>2026-04-23T09:20:53.155Z</time></trkpt><trkpt lat="46.1403572" lon="9.3914284"><ele>217.0</ele><time>2026-04-23T09:20:54.157Z</time></trkpt><trkpt lat="46.1404214" lon="9.3914499"><ele>217.0</ele><time>2026-04-23T09:20:55.156Z</time></trkpt><trkpt lat="46.1404835" lon="9.3914686"><ele>217.0</ele><time>2026-04-23T09:20:56.156Z</time></trkpt><trkpt lat="46.1405497" lon="9.391485"><ele>217.0</ele><time>2026-04-23T09:20:57.155Z</time></trkpt><trkpt lat="46.1406182" lon="9.3915139"><ele>217.0</ele><time>2026-04-23T09:20:58.155Z</time></trkpt><trkpt lat="46.1406917" lon="9.3915331"><ele>217.0</ele><time>2026-04-23T09:20:59.156Z</time></trkpt><trkpt lat="46.1407602" lon="9.3915601"><ele>217.0</ele><time>2026-04-23T09:21:00.156Z</time></trkpt><trkpt lat="46.1408479" lon="9.3916011"><ele>216.33333333333331</ele><time>2026-04-23T09:21:01.156Z</time></trkpt><trkpt lat="46.1409145" lon="9.3916231"><ele>215.66666666666666</ele><time>2026-04-23T09:21:02.155Z</time></trkpt><trkpt lat="46.1409781" lon="9.3916484"><ele>215.0</ele><time>2026-04-23T09:21:03.155Z</time></trkpt><trkpt lat="46.1410447" lon="9.391676"><ele>214.33333333333331</ele><time>2026-04-23T09:21:04.156Z</time></trkpt><trkpt lat="46.1411757" lon="9.391682"><ele>213.66666666666666</ele><time>2026-04-23T09:21:06.155Z</time></trkpt><trkpt lat="46.1412466" lon="9.391693"><ele>213.0</ele><time>2026-04-23T09:21:07.155Z</time></trkpt><trkpt lat="46.1413907" lon="9.3916822"><ele>213.0</ele><time>2026-04-23T09:21:09.156Z</time></trkpt><trkpt lat="46.1414679" lon="9.3916698"><ele>213.0</ele><time>2026-04-23T09:21:10.156Z</time></trkpt><trkpt lat="46.1415304" lon="9.3916568"><ele>213.0</ele><time>2026-04-23T09:21:11.156Z</time></trkpt><trkpt lat="46.1416322" lon="9.391579"><ele>213.0</ele><time>2026-04-23T09:21:13.155Z</time></trkpt><trkpt lat="46.1416912" lon="9.3914333"><ele>213.0</ele><time>2026-04-23T09:21:15.155Z</time></trkpt><trkpt lat="46.141722" lon="9.3912769"><ele>212.60000000000002</ele><time>2026-04-23T09:21:17.156Z</time></trkpt><trkpt lat="46.1417586" lon="9.3911077"><ele>212.20000000000002</ele><time>2026-04-23T09:21:19.156Z</time></trkpt><trkpt lat="46.1417764" lon="9.3910184"><ele>211.8</ele><time>2026-04-23T09:21:20.155Z</time></trkpt><trkpt lat="46.1418074" lon="9.3908494"><ele>211.4</ele><time>2026-04-23T09:21:22.155Z</time></trkpt><trkpt lat="46.1418337" lon="9.390676"><ele>211.0</ele><time>2026-04-23T09:21:24.155Z</time></trkpt><trkpt lat="46.1418543" lon="9.390525"><ele>211.0</ele><time>2026-04-23T09:21:26.156Z</time></trkpt><trkpt lat="46.1418743" lon="9.3903753"><ele>211.0</ele><time>2026-04-23T09:21:28.155Z</time></trkpt><trkpt lat="46.1418613" lon="9.3902048"><ele>211.0</ele><time>2026-04-23T09:21:30.155Z</time></trkpt><trkpt lat="46.1418295" lon="9.3900691"><ele>211.0</ele><time>2026-04-23T09:21:32.155Z</time></trkpt><trkpt lat="46.1418054" lon="9.3899454"><ele>211.0</ele><time>2026-04-23T09:21:34.155Z</time></trkpt><trkpt lat="46.1417745" lon="9.3898066"><ele>211.0</ele><time>2026-04-23T09:21:36.155Z</time></trkpt><trkpt lat="46.1417407" lon="9.389721"><ele>211.0</ele><time>2026-04-23T09:21:37.156Z</time></trkpt><trkpt lat="46.1416841" lon="9.3895647"><ele>211.0</ele><time>2026-04-23T09:21:39.155Z</time></trkpt><trkpt lat="46.1416348" lon="9.3894611"><ele>211.0</ele><time>2026-04-23T09:21:41.155Z</time></trkpt><trkpt lat="46.1415877" lon="9.3893284"><ele>211.0</ele><time>2026-04-23T09:21:43.156Z</time></trkpt><trkpt lat="46.1415538" lon="9.3891876"><ele>211.33333333333331</ele><time>2026-04-23T09:21:45.156Z</time></trkpt><trkpt lat="46.1415341" lon="9.3890368"><ele>211.66666666666666</ele><time>2026-04-23T09:21:47.157Z</time></trkpt><trkpt lat="46.1415049" lon="9.3889045"><ele>212.0</ele><time>2026-04-23T09:21:49.156Z</time></trkpt><trkpt lat="46.1414745" lon="9.3887925"><ele>212.33333333333331</ele><time>2026-04-23T09:21:51.156Z</time></trkpt><trkpt lat="46.1414497" lon="9.3887033"><ele>212.66666666666666</ele><time>2026-04-23T09:21:52.156Z</time></trkpt><trkpt lat="46.1414115" lon="9.3885806"><ele>213.0</ele><time>2026-04-23T09:21:54.157Z</time></trkpt><trkpt lat="46.1413773" lon="9.3884724"><ele>213.16666666666666</ele><time>2026-04-23T09:21:56.155Z</time></trkpt><trkpt lat="46.1413375" lon="9.3883612"><ele>213.33333333333331</ele><time>2026-04-23T09:21:58.155Z</time></trkpt><trkpt lat="46.1412963" lon="9.3882531"><ele>213.5</ele><time>2026-04-23T09:22:01.156Z</time></trkpt><trkpt lat="46.1412621" lon="9.3881573"><ele>213.66666666666666</ele><time>2026-04-23T09:22:29.156Z</time></trkpt><trkpt lat="46.1412085" lon="9.3880932"><ele>213.83333333333331</ele><time>2026-04-23T09:22:33.156Z</time></trkpt><trkpt lat="46.1411768" lon="9.3879828"><ele>214.0</ele><time>2026-04-23T09:22:36.156Z</time></trkpt><trkpt lat="46.1411482" lon="9.3878785"><ele>213.99999999999997</ele><time>2026-04-23T09:22:38.156Z</time></trkpt><trkpt lat="46.1411187" lon="9.3877713"><ele>214.0</ele><time>2026-04-23T09:22:40.156Z</time></trkpt><trkpt lat="46.141089" lon="9.3876529"><ele>214.0</ele><time>2026-04-23T09:22:42.155Z</time></trkpt><trkpt lat="46.1410602" lon="9.3875567"><ele>214.0</ele><time>2026-04-23T09:22:44.156Z</time></trkpt><trkpt lat="46.1410217" lon="9.3874362"><ele>213.99999999999997</ele><time>2026-04-23T09:22:47.156Z</time></trkpt><trkpt lat="46.1409798" lon="9.3873544"><ele>214.0</ele><time>2026-04-23T09:22:49.156Z</time></trkpt><trkpt lat="46.1409455" lon="9.3872528"><ele>214.16666666666666</ele><time>2026-04-23T09:22:51.156Z</time></trkpt><trkpt lat="46.140908" lon="9.3871466"><ele>214.33333333333331</ele><time>2026-04-23T09:22:53.157Z</time></trkpt><trkpt lat="46.140865" lon="9.3870388"><ele>214.5</ele><time>2026-04-23T09:22:55.156Z</time></trkpt><trkpt lat="46.1408289" lon="9.3869433"><ele>214.66666666666669</ele><time>2026-04-23T09:22:57.156Z</time></trkpt><trkpt lat="46.1407839" lon="9.3868407"><ele>214.83333333333334</ele><time>2026-04-23T09:22:59.156Z</time></trkpt><trkpt lat="46.14075" lon="9.3867322"><ele>215.0</ele><time>2026-04-23T09:23:01.155Z</time></trkpt><trkpt lat="46.1406809" lon="9.3865618"><ele>215.8</ele><time>2026-04-23T09:23:04.155Z</time></trkpt><trkpt lat="46.140651" lon="9.3864203"><ele>216.6</ele><time>2026-04-23T09:23:06.156Z</time></trkpt><trkpt lat="46.1406408" lon="9.386308"><ele>217.39999999999998</ele><time>2026-04-23T09:23:08.155Z</time></trkpt><trkpt lat="46.140612" lon="9.3861734"><ele>218.2</ele><time>2026-04-23T09:23:10.157Z</time></trkpt><trkpt lat="46.1405996" lon="9.3860767"><ele>219.0</ele><time>2026-04-23T09:23:11.156Z</time></trkpt><trkpt lat="46.1405466" lon="9.3859367"><ele>219.0</ele><time>2026-04-23T09:23:13.156Z</time></trkpt><trkpt lat="46.1405232" lon="9.3858071"><ele>218.99999999999997</ele><time>2026-04-23T09:23:15.155Z</time></trkpt><trkpt lat="46.1404734" lon="9.3856598"><ele>218.99999999999997</ele><time>2026-04-23T09:23:17.156Z</time></trkpt><trkpt lat="46.1404206" lon="9.3855163"><ele>219.0</ele><time>2026-04-23T09:23:19.157Z</time></trkpt><trkpt lat="46.1403749" lon="9.3854018"><ele>219.0</ele><time>2026-04-23T09:23:21.157Z</time></trkpt><trkpt lat="46.140334" lon="9.3852708"><ele>218.79999999999998</ele><time>2026-04-23T09:23:23.155Z</time></trkpt><trkpt lat="46.1402935" lon="9.3851545"><ele>218.59999999999997</ele><time>2026-04-23T09:23:25.155Z</time></trkpt><trkpt lat="46.1402495" lon="9.3850274"><ele>218.4</ele><time>2026-04-23T09:23:27.156Z</time></trkpt><trkpt lat="46.1402005" lon="9.3849125"><ele>218.2</ele><time>2026-04-23T09:23:29.156Z</time></trkpt><trkpt lat="46.1401727" lon="9.3847962"><ele>218.0</ele><time>2026-04-23T09:23:31.155Z</time></trkpt><trkpt lat="46.1402356" lon="9.3847155"><ele>218.0</ele><time>2026-04-23T09:23:33.156Z</time></trkpt><trkpt lat="46.1403379" lon="9.3846842"><ele>218.0</ele><time>2026-04-23T09:23:35.156Z</time></trkpt><trkpt lat="46.1404509" lon="9.3846301"><ele>218.0</ele><time>2026-04-23T09:23:37.155Z</time></trkpt><trkpt lat="46.1405581" lon="9.3846013"><ele>218.0</ele><time>2026-04-23T09:23:39.157Z</time></trkpt><trkpt lat="46.1406589" lon="9.3845701"><ele>218.0</ele><time>2026-04-23T09:23:41.156Z</time></trkpt><trkpt lat="46.1407505" lon="9.3845376"><ele>217.16666666666669</ele><time>2026-04-23T09:23:43.156Z</time></trkpt><trkpt lat="46.1408496" lon="9.3845061"><ele>216.33333333333334</ele><time>2026-04-23T09:23:45.155Z</time></trkpt><trkpt lat="46.1409378" lon="9.3844742"><ele>215.5</ele><time>2026-04-23T09:23:47.156Z</time></trkpt><trkpt lat="46.1410076" lon="9.3844493"><ele>214.66666666666669</ele><time>2026-04-23T09:23:49.156Z</time></trkpt><trkpt lat="46.1410917" lon="9.3844176"><ele>213.83333333333334</ele><time>2026-04-23T09:23:51.155Z</time></trkpt><trkpt lat="46.1411675" lon="9.384388"><ele>213.0</ele><time>2026-04-23T09:23:53.156Z</time></trkpt><trkpt lat="46.1412374" lon="9.3843605"><ele>213.0</ele><time>2026-04-23T09:23:55.157Z</time></trkpt><trkpt lat="46.1413142" lon="9.3843277"><ele>213.0</ele><time>2026-04-23T09:23:57.156Z</time></trkpt><trkpt lat="46.1413966" lon="9.3842904"><ele>213.0</ele><time>2026-04-23T09:23:59.155Z</time></trkpt><trkpt lat="46.1414795" lon="9.3842589"><ele>213.0</ele><time>2026-04-23T09:24:01.156Z</time></trkpt><trkpt lat="46.141584" lon="9.3842245"><ele>213.0</ele><time>2026-04-23T09:24:03.156Z</time></trkpt><trkpt lat="46.1416548" lon="9.3841659"><ele>213.0</ele><time>2026-04-23T09:24:04.156Z</time></trkpt><trkpt lat="46.141726" lon="9.384117"><ele>212.2</ele><time>2026-04-23T09:24:05.157Z</time></trkpt><trkpt lat="46.1417818" lon="9.3840226"><ele>211.4</ele><time>2026-04-23T09:24:06.156Z</time></trkpt><trkpt lat="46.1418495" lon="9.3839221"><ele>210.6</ele><time>2026-04-23T09:24:07.156Z</time></trkpt><trkpt lat="46.1419027" lon="9.3838305"><ele>209.79999999999998</ele><time>2026-04-23T09:24:08.156Z</time></trkpt><trkpt lat="46.1418876" lon="9.3836212"><ele>209.0</ele><time>2026-04-23T09:24:10.156Z</time></trkpt><trkpt lat="46.1418703" lon="9.3834979"><ele>208.79999999999998</ele><time>2026-04-23T09:24:11.157Z</time></trkpt><trkpt lat="46.1418447" lon="9.383375"><ele>208.6</ele><time>2026-04-23T09:24:12.156Z</time></trkpt><trkpt lat="46.1417923" lon="9.3832406"><ele>208.4</ele><time>2026-04-23T09:24:13.155Z</time></trkpt><trkpt lat="46.1417097" lon="9.3831392"><ele>208.2</ele><time>2026-04-23T09:24:14.156Z</time></trkpt><trkpt lat="46.141599" lon="9.3830565"><ele>208.0</ele><time>2026-04-23T09:24:15.156Z</time></trkpt><trkpt lat="46.1415263" lon="9.3830529"><ele>208.66666666666666</ele><time>2026-04-23T09:24:16.155Z</time></trkpt><trkpt lat="46.1414409" lon="9.3830036"><ele>209.33333333333331</ele><time>2026-04-23T09:24:17.156Z</time></trkpt><trkpt lat="46.1413572" lon="9.3830637"><ele>210.0</ele><time>2026-04-23T09:24:18.156Z</time></trkpt><trkpt lat="46.1412802" lon="9.3830814"><ele>210.66666666666669</ele><time>2026-04-23T09:24:19.156Z</time></trkpt><trkpt lat="46.1412055" lon="9.3830693"><ele>211.33333333333334</ele><time>2026-04-23T09:24:20.156Z</time></trkpt><trkpt lat="46.1411488" lon="9.3830089"><ele>212.0</ele><time>2026-04-23T09:24:21.157Z</time></trkpt><trkpt lat="46.1411045" lon="9.3829245"><ele>212.0</ele><time>2026-04-23T09:24:22.156Z</time></trkpt><trkpt lat="46.1410764" lon="9.3827685"><ele>212.0</ele><time>2026-04-23T09:24:23.158Z</time></trkpt><trkpt lat="46.1410544" lon="9.3826755"><ele>212.0</ele><time>2026-04-23T09:24:24.156Z</time></trkpt><trkpt lat="46.1410309" lon="9.3825252"><ele>212.0</ele><time>2026-04-23T09:24:26.155Z</time></trkpt><trkpt lat="46.1410077" lon="9.3824389"><ele>212.0</ele><time>2026-04-23T09:24:27.157Z</time></trkpt><trkpt lat="46.1409593" lon="9.3822736"><ele>212.00000000000003</ele><time>2026-04-23T09:24:29.155Z</time></trkpt><trkpt lat="46.1409382" lon="9.3821877"><ele>212.0</ele><time>2026-04-23T09:24:30.156Z</time></trkpt><trkpt lat="46.1409133" lon="9.3821024"><ele>212.0</ele><time>2026-04-23T09:24:31.156Z</time></trkpt><trkpt lat="46.1408938" lon="9.3820125"><ele>212.0</ele><time>2026-04-23T09:24:32.156Z</time></trkpt><trkpt lat="46.1408653" lon="9.3819164"><ele>212.00000000000003</ele><time>2026-04-23T09:24:33.157Z</time></trkpt><trkpt lat="46.1408399" lon="9.3818285"><ele>212.0</ele><time>2026-04-23T09:24:34.157Z</time></trkpt><trkpt lat="46.1408105" lon="9.3816492"><ele>211.85714285714286</ele><time>2026-04-23T09:24:36.157Z</time></trkpt><trkpt lat="46.1407851" lon="9.381563"><ele>211.7142857142857</ele><time>2026-04-23T09:24:37.157Z</time></trkpt><trkpt lat="46.1407668" lon="9.3814758"><ele>211.57142857142856</ele><time>2026-04-23T09:24:38.156Z</time></trkpt><trkpt lat="46.1407464" lon="9.3813794"><ele>211.42857142857144</ele><time>2026-04-23T09:24:39.157Z</time></trkpt><trkpt lat="46.1407242" lon="9.3812884"><ele>211.28571428571428</ele><time>2026-04-23T09:24:40.157Z</time></trkpt><trkpt lat="46.1407095" lon="9.3811922"><ele>211.14285714285714</ele><time>2026-04-23T09:24:41.156Z</time></trkpt><trkpt lat="46.1406879" lon="9.3811015"><ele>211.0</ele><time>2026-04-23T09:24:42.157Z</time></trkpt><trkpt lat="46.1406732" lon="9.3810072"><ele>211.20000000000002</ele><time>2026-04-23T09:24:43.156Z</time></trkpt><trkpt lat="46.1406349" lon="9.3808444"><ele>211.4</ele><time>2026-04-23T09:24:45.156Z</time></trkpt><trkpt lat="46.140618" lon="9.3807423"><ele>211.6</ele><time>2026-04-23T09:24:46.157Z</time></trkpt><trkpt lat="46.1405977" lon="9.3806474"><ele>211.8</ele><time>2026-04-23T09:24:47.155Z</time></trkpt><trkpt lat="46.1405491" lon="9.3804866"><ele>212.0</ele><time>2026-04-23T09:24:49.156Z</time></trkpt><trkpt lat="46.1405318" lon="9.3803753"><ele>212.0</ele><time>2026-04-23T09:24:50.157Z</time></trkpt><trkpt lat="46.1405115" lon="9.380283"><ele>212.0</ele><time>2026-04-23T09:24:51.155Z</time></trkpt><trkpt lat="46.1404909" lon="9.3801603"><ele>212.0</ele><time>2026-04-23T09:24:52.158Z</time></trkpt><trkpt lat="46.1404456" lon="9.3799721"><ele>212.0</ele><time>2026-04-23T09:24:54.156Z</time></trkpt><trkpt lat="46.1404228" lon="9.3798742"><ele>212.0</ele><time>2026-04-23T09:24:55.156Z</time></trkpt><trkpt lat="46.1404094" lon="9.3797316"><ele>211.66666666666669</ele><time>2026-04-23T09:24:56.157Z</time></trkpt><trkpt lat="46.1403857" lon="9.379635"><ele>211.33333333333334</ele><time>2026-04-23T09:24:57.157Z</time></trkpt><trkpt lat="46.1403606" lon="9.3795437"><ele>211.0</ele><time>2026-04-23T09:24:58.156Z</time></trkpt><trkpt lat="46.1403366" lon="9.3794597"><ele>210.66666666666669</ele><time>2026-04-23T09:24:59.157Z</time></trkpt><trkpt lat="46.1402924" lon="9.37928"><ele>210.33333333333334</ele><time>2026-04-23T09:25:01.156Z</time></trkpt><trkpt lat="46.1402901" lon="9.3791778"><ele>210.0</ele><time>2026-04-23T09:25:02.157Z</time></trkpt><trkpt lat="46.1402752" lon="9.3790861"><ele>210.0</ele><time>2026-04-23T09:25:03.156Z</time></trkpt><trkpt lat="46.1402499" lon="9.3789898"><ele>210.0</ele><time>2026-04-23T09:25:04.158Z</time></trkpt><trkpt lat="46.1402084" lon="9.3788127"><ele>210.0</ele><time>2026-04-23T09:25:06.156Z</time></trkpt><trkpt lat="46.1401487" lon="9.3786501"><ele>210.0</ele><time>2026-04-23T09:25:08.155Z</time></trkpt><trkpt lat="46.1401122" lon="9.3785589"><ele>210.0</ele><time>2026-04-23T09:25:09.156Z</time></trkpt><trkpt lat="46.1400746" lon="9.3784701"><ele>209.83333333333334</ele><time>2026-04-23T09:25:10.156Z</time></trkpt><trkpt lat="46.1400202" lon="9.3783105"><ele>209.66666666666669</ele><time>2026-04-23T09:25:12.155Z</time></trkpt><trkpt lat="46.1399826" lon="9.3782358"><ele>209.5</ele><time>2026-04-23T09:25:13.156Z</time></trkpt><trkpt lat="46.1399392" lon="9.3781552"><ele>209.33333333333334</ele><time>2026-04-23T09:25:14.156Z</time></trkpt><trkpt lat="46.1398926" lon="9.378075"><ele>209.16666666666669</ele><time>2026-04-23T09:25:15.155Z</time></trkpt><trkpt lat="46.1398487" lon="9.3779985"><ele>209.0</ele><time>2026-04-23T09:25:16.157Z</time></trkpt><trkpt lat="46.1398028" lon="9.3779297"><ele>209.00000000000003</ele><time>2026-04-23T09:25:17.156Z</time></trkpt><trkpt lat="46.1397518" lon="9.3778646"><ele>209.0</ele><time>2026-04-23T09:25:18.157Z</time></trkpt><trkpt lat="46.1396741" lon="9.3777422"><ele>209.0</ele><time>2026-04-23T09:25:20.155Z</time></trkpt><trkpt lat="46.1396315" lon="9.3776564"><ele>209.0</ele><time>2026-04-23T09:25:21.156Z</time></trkpt><trkpt lat="46.1396024" lon="9.3775696"><ele>209.00000000000003</ele><time>2026-04-23T09:25:22.157Z</time></trkpt><trkpt lat="46.1395617" lon="9.3774784"><ele>209.0</ele><time>2026-04-23T09:25:23.157Z</time></trkpt><trkpt lat="46.1395318" lon="9.3773968"><ele>209.0</ele><time>2026-04-23T09:25:24.156Z</time></trkpt><trkpt lat="46.1394953" lon="9.3773098"><ele>209.0</ele><time>2026-04-23T09:25:25.155Z</time></trkpt><trkpt lat="46.13946" lon="9.3772212"><ele>209.0</ele><time>2026-04-23T09:25:26.157Z</time></trkpt><trkpt lat="46.1394256" lon="9.3771349"><ele>209.0</ele><time>2026-04-23T09:25:27.158Z</time></trkpt><trkpt lat="46.1393965" lon="9.3770461"><ele>209.0</ele><time>2026-04-23T09:25:28.155Z</time></trkpt><trkpt lat="46.1393595" lon="9.3769533"><ele>209.0</ele><time>2026-04-23T09:25:29.156Z</time></trkpt><trkpt lat="46.1393248" lon="9.3768542"><ele>209.0</ele><time>2026-04-23T09:25:30.156Z</time></trkpt><trkpt lat="46.1392934" lon="9.3767572"><ele>208.83333333333334</ele><time>2026-04-23T09:25:31.155Z</time></trkpt><trkpt lat="46.1392648" lon="9.3766665"><ele>208.66666666666669</ele><time>2026-04-23T09:25:32.156Z</time></trkpt><trkpt lat="46.1392145" lon="9.3765065"><ele>208.5</ele><time>2026-04-23T09:25:34.156Z</time></trkpt><trkpt lat="46.1391823" lon="9.3764139"><ele>208.33333333333331</ele><time>2026-04-23T09:25:35.155Z</time></trkpt><trkpt lat="46.1391527" lon="9.3763218"><ele>208.16666666666666</ele><time>2026-04-23T09:25:36.156Z</time></trkpt><trkpt lat="46.1391219" lon="9.3762274"><ele>208.0</ele><time>2026-04-23T09:25:37.156Z</time></trkpt><trkpt lat="46.1390652" lon="9.3760372"><ele>208.16666666666666</ele><time>2026-04-23T09:25:39.156Z</time></trkpt><trkpt lat="46.1390393" lon="9.3759407"><ele>208.33333333333331</ele><time>2026-04-23T09:25:40.157Z</time></trkpt><trkpt lat="46.1389938" lon="9.3757438"><ele>208.5</ele><time>2026-04-23T09:25:42.157Z</time></trkpt><trkpt lat="46.1389691" lon="9.3756537"><ele>208.66666666666669</ele><time>2026-04-23T09:25:43.155Z</time></trkpt><trkpt lat="46.1389358" lon="9.3755612"><ele>208.83333333333334</ele><time>2026-04-23T09:25:44.156Z</time></trkpt><trkpt lat="46.1388995" lon="9.3754687"><ele>209.0</ele><time>2026-04-23T09:25:45.157Z</time></trkpt><trkpt lat="46.1388612" lon="9.3753886"><ele>208.66666666666669</ele><time>2026-04-23T09:25:46.157Z</time></trkpt><trkpt lat="46.1388216" lon="9.3753133"><ele>208.33333333333334</ele><time>2026-04-23T09:25:47.157Z</time></trkpt><trkpt lat="46.1387893" lon="9.3752341"><ele>208.0</ele><time>2026-04-23T09:25:48.156Z</time></trkpt><trkpt lat="46.1387488" lon="9.3751566"><ele>207.66666666666669</ele><time>2026-04-23T09:25:49.157Z</time></trkpt><trkpt lat="46.1386976" lon="9.3749734"><ele>207.33333333333334</ele><time>2026-04-23T09:25:51.156Z</time></trkpt><trkpt lat="46.1386849" lon="9.3748761"><ele>207.0</ele><time>2026-04-23T09:25:52.158Z</time></trkpt><trkpt lat="46.1386604" lon="9.3747028"><ele>206.5</ele><time>2026-04-23T09:25:54.156Z</time></trkpt><trkpt lat="46.1386362" lon="9.3745244"><ele>206.0</ele><time>2026-04-23T09:25:56.157Z</time></trkpt><trkpt lat="46.1386237" lon="9.374425"><ele>205.5</ele><time>2026-04-23T09:25:57.155Z</time></trkpt><trkpt lat="46.1386128" lon="9.3743337"><ele>205.0</ele><time>2026-04-23T09:25:58.157Z</time></trkpt><trkpt lat="46.1385974" lon="9.3742397"><ele>204.5</ele><time>2026-04-23T09:25:59.157Z</time></trkpt><trkpt lat="46.1385891" lon="9.3741491"><ele>204.0</ele><time>2026-04-23T09:26:00.157Z</time></trkpt><trkpt lat="46.138565" lon="9.373982"><ele>204.0</ele><time>2026-04-23T09:26:02.156Z</time></trkpt><trkpt lat="46.1385523" lon="9.3738881"><ele>204.0</ele><time>2026-04-23T09:26:03.156Z</time></trkpt><trkpt lat="46.1385458" lon="9.37379"><ele>204.0</ele><time>2026-04-23T09:26:04.156Z</time></trkpt><trkpt lat="46.1385401" lon="9.3736724"><ele>204.0</ele><time>2026-04-23T09:26:05.157Z</time></trkpt><trkpt lat="46.138537" lon="9.3735693"><ele>204.0</ele><time>2026-04-23T09:26:06.157Z</time></trkpt><trkpt lat="46.1385289" lon="9.3734694"><ele>204.0</ele><time>2026-04-23T09:26:07.156Z</time></trkpt><trkpt lat="46.1385175" lon="9.37336"><ele>204.0</ele><time>2026-04-23T09:26:08.155Z</time></trkpt><trkpt lat="46.1385118" lon="9.3732542"><ele>203.57142857142858</ele><time>2026-04-23T09:26:09.156Z</time></trkpt><trkpt lat="46.1385039" lon="9.3731466"><ele>203.14285714285717</ele><time>2026-04-23T09:26:10.157Z</time></trkpt><trkpt lat="46.1384959" lon="9.3730467"><ele>202.71428571428572</ele><time>2026-04-23T09:26:11.157Z</time></trkpt><trkpt lat="46.1384851" lon="9.3729516"><ele>202.28571428571428</ele><time>2026-04-23T09:26:12.157Z</time></trkpt><trkpt lat="46.1384746" lon="9.3728495"><ele>201.85714285714286</ele><time>2026-04-23T09:26:13.156Z</time></trkpt><trkpt lat="46.1384569" lon="9.372752"><ele>201.42857142857142</ele><time>2026-04-23T09:26:14.155Z</time></trkpt><trkpt lat="46.1384346" lon="9.3726501"><ele>201.0</ele><time>2026-04-23T09:26:15.156Z</time></trkpt><trkpt lat="46.1384001" lon="9.3725666"><ele>200.66666666666666</ele><time>2026-04-23T09:26:16.155Z</time></trkpt><trkpt lat="46.1383492" lon="9.3725087"><ele>200.33333333333331</ele><time>2026-04-23T09:26:17.156Z</time></trkpt><trkpt lat="46.1382536" lon="9.3724649"><ele>200.0</ele><time>2026-04-23T09:26:19.157Z</time></trkpt><trkpt lat="46.1381511" lon="9.372407"><ele>199.66666666666666</ele><time>2026-04-23T09:26:21.156Z</time></trkpt><trkpt lat="46.1380752" lon="9.372328"><ele>199.33333333333331</ele><time>2026-04-23T09:26:23.156Z</time></trkpt><trkpt lat="46.1380052" lon="9.3723003"><ele>199.0</ele><time>2026-04-23T09:26:26.156Z</time></trkpt><trkpt lat="46.1379475" lon="9.3722571"><ele>199.6</ele><time>2026-04-23T09:26:31.156Z</time></trkpt><trkpt lat="46.1378766" lon="9.3722102"><ele>200.2</ele><time>2026-04-23T09:26:34.157Z</time></trkpt><trkpt lat="46.1378011" lon="9.3721768"><ele>200.79999999999998</ele><time>2026-04-23T09:26:36.157Z</time></trkpt><trkpt lat="46.137725" lon="9.3721224"><ele>201.39999999999998</ele><time>2026-04-23T09:26:38.156Z</time></trkpt><trkpt lat="46.1376421" lon="9.3720297"><ele>202.0</ele><time>2026-04-23T09:26:40.156Z</time></trkpt><trkpt lat="46.1375824" lon="9.3719051"><ele>201.99999999999997</ele><time>2026-04-23T09:26:42.156Z</time></trkpt><trkpt lat="46.1375553" lon="9.3718204"><ele>202.0</ele><time>2026-04-23T09:26:44.158Z</time></trkpt><trkpt lat="46.1375144" lon="9.3717336"><ele>202.0</ele><time>2026-04-23T09:26:46.156Z</time></trkpt><trkpt lat="46.1374782" lon="9.3716377"><ele>202.0</ele><time>2026-04-23T09:26:48.156Z</time></trkpt><trkpt lat="46.137438" lon="9.371525"><ele>201.99999999999997</ele><time>2026-04-23T09:26:50.156Z</time></trkpt><trkpt lat="46.137409" lon="9.3714083"><ele>202.0</ele><time>2026-04-23T09:26:52.156Z</time></trkpt><trkpt lat="46.137366" lon="9.3713276"><ele>202.66666666666666</ele><time>2026-04-23T09:26:54.157Z</time></trkpt><trkpt lat="46.1373166" lon="9.3712525"><ele>203.33333333333331</ele><time>2026-04-23T09:26:56.157Z</time></trkpt><trkpt lat="46.1372804" lon="9.3711684"><ele>204.0</ele><time>2026-04-23T09:26:58.157Z</time></trkpt><trkpt lat="46.1372282" lon="9.3710653"><ele>204.66666666666669</ele><time>2026-04-23T09:27:00.157Z</time></trkpt><trkpt lat="46.1371821" lon="9.3709485"><ele>205.33333333333334</ele><time>2026-04-23T09:27:02.157Z</time></trkpt><trkpt lat="46.1371774" lon="9.3708161"><ele>206.0</ele><time>2026-04-23T09:27:04.157Z</time></trkpt><trkpt lat="46.1371615" lon="9.3707048"><ele>205.99999999999997</ele><time>2026-04-23T09:27:06.157Z</time></trkpt><trkpt lat="46.1371336" lon="9.3706072"><ele>206.0</ele><time>2026-04-23T09:27:08.156Z</time></trkpt><trkpt lat="46.1371017" lon="9.3705088"><ele>206.0</ele><time>2026-04-23T09:27:10.157Z</time></trkpt><trkpt lat="46.1370781" lon="9.3704168"><ele>206.0</ele><time>2026-04-23T09:27:12.157Z</time></trkpt><trkpt lat="46.1370646" lon="9.3703214"><ele>206.0</ele><time>2026-04-23T09:27:14.158Z</time></trkpt><trkpt lat="46.1370713" lon="9.3701973"><ele>205.99999999999997</ele><time>2026-04-23T09:27:16.155Z</time></trkpt><trkpt lat="46.1370777" lon="9.3700848"><ele>206.0</ele><time>2026-04-23T09:27:18.156Z</time></trkpt><trkpt lat="46.1371" lon="9.3699834"><ele>205.83333333333334</ele><time>2026-04-23T09:27:20.157Z</time></trkpt><trkpt lat="46.1371315" lon="9.3698825"><ele>205.66666666666669</ele><time>2026-04-23T09:27:22.157Z</time></trkpt><trkpt lat="46.1371558" lon="9.3697675"><ele>205.5</ele><time>2026-04-23T09:27:24.156Z</time></trkpt><trkpt lat="46.1371927" lon="9.3696359"><ele>205.33333333333331</ele><time>2026-04-23T09:27:26.156Z</time></trkpt><trkpt lat="46.1372251" lon="9.3695119"><ele>205.16666666666666</ele><time>2026-04-23T09:27:28.157Z</time></trkpt><trkpt lat="46.1372492" lon="9.3693851"><ele>205.0</ele><time>2026-04-23T09:27:30.157Z</time></trkpt><trkpt lat="46.137268" lon="9.3692601"><ele>204.99999999999997</ele><time>2026-04-23T09:27:32.156Z</time></trkpt><trkpt lat="46.1372838" lon="9.3691385"><ele>205.0</ele><time>2026-04-23T09:27:34.157Z</time></trkpt><trkpt lat="46.1372945" lon="9.3689906"><ele>205.0</ele><time>2026-04-23T09:27:36.156Z</time></trkpt><trkpt lat="46.1372708" lon="9.3688755"><ele>205.0</ele><time>2026-04-23T09:27:38.156Z</time></trkpt><trkpt lat="46.1372709" lon="9.3687562"><ele>204.99999999999997</ele><time>2026-04-23T09:27:40.157Z</time></trkpt><trkpt lat="46.1372891" lon="9.3686314"><ele>205.0</ele><time>2026-04-23T09:27:42.156Z</time></trkpt><trkpt lat="46.1373021" lon="9.3684975"><ele>205.0</ele><time>2026-04-23T09:27:44.156Z</time></trkpt><trkpt lat="46.1372979" lon="9.3683501"><ele>205.0</ele><time>2026-04-23T09:27:46.156Z</time></trkpt><trkpt lat="46.1372494" lon="9.3682302"><ele>205.0</ele><time>2026-04-23T09:27:48.156Z</time></trkpt><trkpt lat="46.1372005" lon="9.3681049"><ele>205.0</ele><time>2026-04-23T09:27:50.156Z</time></trkpt><trkpt lat="46.137142" lon="9.3679714"><ele>205.0</ele><time>2026-04-23T09:27:52.158Z</time></trkpt><trkpt lat="46.1370866" lon="9.3678439"><ele>204.4</ele><time>2026-04-23T09:27:54.157Z</time></trkpt><trkpt lat="46.1370235" lon="9.3677209"><ele>203.8</ele><time>2026-04-23T09:27:56.157Z</time></trkpt><trkpt lat="46.1369593" lon="9.3675985"><ele>203.2</ele><time>2026-04-23T09:27:58.156Z</time></trkpt><trkpt lat="46.1369269" lon="9.3675182"><ele>202.6</ele><time>2026-04-23T09:27:59.157Z</time></trkpt><trkpt lat="46.1368764" lon="9.3673685"><ele>202.0</ele><time>2026-04-23T09:28:01.157Z</time></trkpt><trkpt lat="46.1368101" lon="9.367261"><ele>201.6</ele><time>2026-04-23T09:28:03.157Z</time></trkpt><trkpt lat="46.1367865" lon="9.367176"><ele>201.2</ele><time>2026-04-23T09:28:04.156Z</time></trkpt><trkpt lat="46.1367551" lon="9.3670803"><ele>200.8</ele><time>2026-04-23T09:28:05.157Z</time></trkpt><trkpt lat="46.1367025" lon="9.366942"><ele>200.4</ele><time>2026-04-23T09:28:07.156Z</time></trkpt><trkpt lat="46.1366897" lon="9.3668002"><ele>200.0</ele><time>2026-04-23T09:28:09.157Z</time></trkpt><trkpt lat="46.1366665" lon="9.3666409"><ele>200.0</ele><time>2026-04-23T09:28:11.157Z</time></trkpt><trkpt lat="46.1366518" lon="9.3664905"><ele>200.0</ele><time>2026-04-23T09:28:13.157Z</time></trkpt><trkpt lat="46.1366458" lon="9.3663518"><ele>200.0</ele><time>2026-04-23T09:28:15.157Z</time></trkpt><trkpt lat="46.1366239" lon="9.3661486"><ele>200.0</ele><time>2026-04-23T09:28:17.156Z</time></trkpt><trkpt lat="46.1365978" lon="9.366015"><ele>200.0</ele><time>2026-04-23T09:28:19.157Z</time></trkpt><trkpt lat="46.1365598" lon="9.3658697"><ele>200.2</ele><time>2026-04-23T09:28:21.157Z</time></trkpt><trkpt lat="46.1364966" lon="9.3657744"><ele>200.4</ele><time>2026-04-23T09:28:23.157Z</time></trkpt><trkpt lat="46.1364242" lon="9.365693"><ele>200.60000000000002</ele><time>2026-04-23T09:28:25.156Z</time></trkpt><trkpt lat="46.1363512" lon="9.365581"><ele>200.8</ele><time>2026-04-23T09:28:27.156Z</time></trkpt><trkpt lat="46.1362777" lon="9.3655197"><ele>201.0</ele><time>2026-04-23T09:28:29.157Z</time></trkpt><trkpt lat="46.1362007" lon="9.3654047"><ele>201.0</ele><time>2026-04-23T09:28:31.157Z</time></trkpt><trkpt lat="46.1361271" lon="9.365275"><ele>201.0</ele><time>2026-04-23T09:28:33.157Z</time></trkpt><trkpt lat="46.1360743" lon="9.3651302"><ele>201.0</ele><time>2026-04-23T09:28:35.157Z</time></trkpt><trkpt lat="46.1360346" lon="9.3649614"><ele>201.0</ele><time>2026-04-23T09:28:37.156Z</time></trkpt><trkpt lat="46.1359802" lon="9.3647963"><ele>201.0</ele><time>2026-04-23T09:28:39.157Z</time></trkpt><trkpt lat="46.135957" lon="9.3647026"><ele>201.0</ele><time>2026-04-23T09:28:40.157Z</time></trkpt><trkpt lat="46.1359281" lon="9.3645465"><ele>201.0</ele><time>2026-04-23T09:28:42.157Z</time></trkpt><trkpt lat="46.1358796" lon="9.3644066"><ele>201.0</ele><time>2026-04-23T09:28:44.156Z</time></trkpt><trkpt lat="46.1358481" lon="9.3643241"><ele>201.0</ele><time>2026-04-23T09:28:45.157Z</time></trkpt><trkpt lat="46.1358046" lon="9.3641718"><ele>200.8</ele><time>2026-04-23T09:28:47.157Z</time></trkpt><trkpt lat="46.1357618" lon="9.3640143"><ele>200.60000000000002</ele><time>2026-04-23T09:28:49.157Z</time></trkpt><trkpt lat="46.1357353" lon="9.3638521"><ele>200.4</ele><time>2026-04-23T09:28:51.156Z</time></trkpt><trkpt lat="46.1357182" lon="9.363744"><ele>200.2</ele><time>2026-04-23T09:28:52.156Z</time></trkpt><trkpt lat="46.1357003" lon="9.3636061"><ele>200.0</ele><time>2026-04-23T09:28:54.156Z</time></trkpt><trkpt lat="46.1356792" lon="9.3634645"><ele>200.2</ele><time>2026-04-23T09:28:56.157Z</time></trkpt><trkpt lat="46.1356676" lon="9.3633001"><ele>200.4</ele><time>2026-04-23T09:28:58.156Z</time></trkpt><trkpt lat="46.1356647" lon="9.3631477"><ele>200.60000000000002</ele><time>2026-04-23T09:29:00.156Z</time></trkpt><trkpt lat="46.1356724" lon="9.3630114"><ele>200.8</ele><time>2026-04-23T09:29:02.156Z</time></trkpt><trkpt lat="46.1356607" lon="9.3628848"><ele>201.0</ele><time>2026-04-23T09:29:04.157Z</time></trkpt><trkpt lat="46.1356343" lon="9.3627583"><ele>201.0</ele><time>2026-04-23T09:29:06.156Z</time></trkpt><trkpt lat="46.135559" lon="9.3627186"><ele>201.0</ele><time>2026-04-23T09:29:08.158Z</time></trkpt><trkpt lat="46.1354783" lon="9.3627516"><ele>201.0</ele><time>2026-04-23T09:29:10.158Z</time></trkpt><trkpt lat="46.1353944" lon="9.3627883"><ele>201.0</ele><time>2026-04-23T09:29:12.158Z</time></trkpt><trkpt lat="46.1353186" lon="9.3628283"><ele>201.0</ele><time>2026-04-23T09:29:14.156Z</time></trkpt><trkpt lat="46.135243" lon="9.36287"><ele>201.0</ele><time>2026-04-23T09:29:16.156Z</time></trkpt><trkpt lat="46.1351643" lon="9.362922"><ele>201.0</ele><time>2026-04-23T09:29:18.157Z</time></trkpt><trkpt lat="46.1350867" lon="9.3629588"><ele>201.0</ele><time>2026-04-23T09:29:20.157Z</time></trkpt><trkpt lat="46.135015" lon="9.3630076"><ele>201.0</ele><time>2026-04-23T09:29:22.157Z</time></trkpt><trkpt lat="46.1349464" lon="9.3630675"><ele>201.0</ele><time>2026-04-23T09:29:24.156Z</time></trkpt><trkpt lat="46.1348656" lon="9.3631196"><ele>201.0</ele><time>2026-04-23T09:29:26.157Z</time></trkpt><trkpt lat="46.1347908" lon="9.3631649"><ele>201.0</ele><time>2026-04-23T09:29:28.157Z</time></trkpt><trkpt lat="46.1347097" lon="9.3632249"><ele>201.42857142857142</ele><time>2026-04-23T09:29:30.157Z</time></trkpt><trkpt lat="46.1346392" lon="9.3632717"><ele>201.85714285714286</ele><time>2026-04-23T09:29:32.157Z</time></trkpt><trkpt lat="46.1345689" lon="9.3633192"><ele>202.28571428571428</ele><time>2026-04-23T09:29:34.157Z</time></trkpt><trkpt lat="46.1345" lon="9.363385"><ele>202.71428571428572</ele><time>2026-04-23T09:29:36.157Z</time></trkpt><trkpt lat="46.1344399" lon="9.3634291"><ele>203.14285714285717</ele><time>2026-04-23T09:29:38.156Z</time></trkpt><trkpt lat="46.1343711" lon="9.3634656"><ele>203.57142857142858</ele><time>2026-04-23T09:29:40.156Z</time></trkpt><trkpt lat="46.1343089" lon="9.3635096"><ele>204.0</ele><time>2026-04-23T09:29:42.156Z</time></trkpt><trkpt lat="46.1342333" lon="9.3635646"><ele>204.0</ele><time>2026-04-23T09:29:44.156Z</time></trkpt><trkpt lat="46.1341597" lon="9.3636144"><ele>204.0</ele><time>2026-04-23T09:29:46.156Z</time></trkpt><trkpt lat="46.134095" lon="9.3636624"><ele>204.0</ele><time>2026-04-23T09:29:48.156Z</time></trkpt><trkpt lat="46.1340317" lon="9.363712"><ele>204.0</ele><time>2026-04-23T09:29:50.156Z</time></trkpt><trkpt lat="46.1339624" lon="9.363757"><ele>204.0</ele><time>2026-04-23T09:29:52.157Z</time></trkpt><trkpt lat="46.1338966" lon="9.363796"><ele>204.0</ele><time>2026-04-23T09:29:54.157Z</time></trkpt><trkpt lat="46.1338314" lon="9.3638241"><ele>204.0</ele><time>2026-04-23T09:29:56.157Z</time></trkpt><trkpt lat="46.1337548" lon="9.3638439"><ele>204.5</ele><time>2026-04-23T09:29:58.157Z</time></trkpt><trkpt lat="46.13369" lon="9.363888"><ele>205.0</ele><time>2026-04-23T09:30:00.157Z</time></trkpt><trkpt lat="46.1336174" lon="9.3639234"><ele>205.5</ele><time>2026-04-23T09:30:02.158Z</time></trkpt><trkpt lat="46.1335359" lon="9.3639413"><ele>206.0</ele><time>2026-04-23T09:30:04.157Z</time></trkpt><trkpt lat="46.1334538" lon="9.3639106"><ele>206.5</ele><time>2026-04-23T09:30:06.156Z</time></trkpt><trkpt lat="46.1333955" lon="9.3638507"><ele>207.0</ele><time>2026-04-23T09:30:08.157Z</time></trkpt><trkpt lat="46.1333421" lon="9.3637423"><ele>207.0</ele><time>2026-04-23T09:30:11.157Z</time></trkpt><trkpt lat="46.1332914" lon="9.3636622"><ele>207.0</ele><time>2026-04-23T09:30:14.157Z</time></trkpt><trkpt lat="46.1332292" lon="9.3635581"><ele>207.0</ele><time>2026-04-23T09:30:17.157Z</time></trkpt><trkpt lat="46.1331586" lon="9.3633847"><ele>207.0</ele><time>2026-04-23T09:30:20.157Z</time></trkpt><trkpt lat="46.1331061" lon="9.3632766"><ele>207.0</ele><time>2026-04-23T09:30:22.157Z</time></trkpt><trkpt lat="46.1330709" lon="9.3631655"><ele>207.6</ele><time>2026-04-23T09:30:24.157Z</time></trkpt><trkpt lat="46.1330141" lon="9.3630795"><ele>208.2</ele><time>2026-04-23T09:30:26.157Z</time></trkpt><trkpt lat="46.1329618" lon="9.3629745"><ele>208.8</ele><time>2026-04-23T09:30:28.156Z</time></trkpt><trkpt lat="46.1329063" lon="9.3628685"><ele>209.4</ele><time>2026-04-23T09:30:30.157Z</time></trkpt><trkpt lat="46.1328473" lon="9.3627781"><ele>210.0</ele><time>2026-04-23T09:30:32.156Z</time></trkpt><trkpt lat="46.1327951" lon="9.3626521"><ele>210.0</ele><time>2026-04-23T09:30:34.157Z</time></trkpt><trkpt lat="46.1327336" lon="9.3625492"><ele>210.0</ele><time>2026-04-23T09:30:36.157Z</time></trkpt><trkpt lat="46.1327011" lon="9.3624688"><ele>210.0</ele><time>2026-04-23T09:30:37.158Z</time></trkpt><trkpt lat="46.1326531" lon="9.3623606"><ele>210.0</ele><time>2026-04-23T09:30:39.157Z</time></trkpt><trkpt lat="46.1326006" lon="9.3622494"><ele>210.0</ele><time>2026-04-23T09:30:41.156Z</time></trkpt><trkpt lat="46.1325457" lon="9.3621291"><ele>210.0</ele><time>2026-04-23T09:30:43.157Z</time></trkpt><trkpt lat="46.132483" lon="9.3620242"><ele>209.8</ele><time>2026-04-23T09:30:45.158Z</time></trkpt><trkpt lat="46.1324227" lon="9.3618762"><ele>209.6</ele><time>2026-04-23T09:30:47.156Z</time></trkpt><trkpt lat="46.1323532" lon="9.3617485"><ele>209.39999999999998</ele><time>2026-04-23T09:30:49.157Z</time></trkpt><trkpt lat="46.132303" lon="9.361631"><ele>209.2</ele><time>2026-04-23T09:30:51.158Z</time></trkpt><trkpt lat="46.1322402" lon="9.3615238"><ele>209.0</ele><time>2026-04-23T09:30:53.156Z</time></trkpt><trkpt lat="46.1321754" lon="9.3614046"><ele>210.0</ele><time>2026-04-23T09:30:55.157Z</time></trkpt><trkpt lat="46.1321172" lon="9.3613039"><ele>211.0</ele><time>2026-04-23T09:30:57.158Z</time></trkpt><trkpt lat="46.1320553" lon="9.3611877"><ele>211.99999999999997</ele><time>2026-04-23T09:30:59.157Z</time></trkpt><trkpt lat="46.1320071" lon="9.3610638"><ele>213.0</ele><time>2026-04-23T09:31:01.156Z</time></trkpt><trkpt lat="46.1319433" lon="9.3609206"><ele>214.0</ele><time>2026-04-23T09:31:03.156Z</time></trkpt><trkpt lat="46.1318762" lon="9.3608107"><ele>214.0</ele><time>2026-04-23T09:31:05.157Z</time></trkpt><trkpt lat="46.1318151" lon="9.3606887"><ele>213.99999999999997</ele><time>2026-04-23T09:31:07.156Z</time></trkpt><trkpt lat="46.1317636" lon="9.3605775"><ele>213.99999999999997</ele><time>2026-04-23T09:31:09.157Z</time></trkpt><trkpt lat="46.1316925" lon="9.3604476"><ele>214.0</ele><time>2026-04-23T09:31:11.158Z</time></trkpt><trkpt lat="46.1316402" lon="9.3603482"><ele>214.0</ele><time>2026-04-23T09:31:13.157Z</time></trkpt><trkpt lat="46.1315948" lon="9.3602386"><ele>214.39999999999998</ele><time>2026-04-23T09:31:15.158Z</time></trkpt><trkpt lat="46.1315387" lon="9.3601166"><ele>214.79999999999998</ele><time>2026-04-23T09:31:17.157Z</time></trkpt><trkpt lat="46.1314846" lon="9.3600194"><ele>215.20000000000002</ele><time>2026-04-23T09:31:19.157Z</time></trkpt><trkpt lat="46.1314286" lon="9.3599112"><ele>215.60000000000002</ele><time>2026-04-23T09:31:21.157Z</time></trkpt><trkpt lat="46.1313717" lon="9.3598143"><ele>216.0</ele><time>2026-04-23T09:31:23.156Z</time></trkpt><trkpt lat="46.1313205" lon="9.3597163"><ele>215.20000000000002</ele><time>2026-04-23T09:31:25.157Z</time></trkpt><trkpt lat="46.1312863" lon="9.3596009"><ele>214.40000000000003</ele><time>2026-04-23T09:31:27.158Z</time></trkpt><trkpt lat="46.1312689" lon="9.3594527"><ele>213.6</ele><time>2026-04-23T09:31:29.157Z</time></trkpt><trkpt lat="46.1312382" lon="9.3593088"><ele>212.8</ele><time>2026-04-23T09:31:31.157Z</time></trkpt><trkpt lat="46.1311946" lon="9.3591682"><ele>212.0</ele><time>2026-04-23T09:31:33.156Z</time></trkpt><trkpt lat="46.131145" lon="9.359046"><ele>212.0</ele><time>2026-04-23T09:31:35.157Z</time></trkpt><trkpt lat="46.1311177" lon="9.35892"><ele>212.0</ele><time>2026-04-23T09:31:37.158Z</time></trkpt><trkpt lat="46.1310898" lon="9.3587527"><ele>212.0</ele><time>2026-04-23T09:31:39.158Z</time></trkpt><trkpt lat="46.1310639" lon="9.3585982"><ele>212.0</ele><time>2026-04-23T09:31:41.158Z</time></trkpt><trkpt lat="46.1310202" lon="9.3584508"><ele>212.0</ele><time>2026-04-23T09:31:43.158Z</time></trkpt><trkpt lat="46.1309677" lon="9.3583002"><ele>211.83333333333334</ele><time>2026-04-23T09:31:45.157Z</time></trkpt><trkpt lat="46.1309105" lon="9.3581808"><ele>211.66666666666669</ele><time>2026-04-23T09:31:47.157Z</time></trkpt><trkpt lat="46.1308864" lon="9.358089"><ele>211.5</ele><time>2026-04-23T09:31:51.158Z</time></trkpt><trkpt lat="46.130825" lon="9.3580136"><ele>211.33333333333331</ele><time>2026-04-23T09:31:59.156Z</time></trkpt><trkpt lat="46.1307712" lon="9.357945"><ele>211.16666666666666</ele><time>2026-04-23T09:32:03.157Z</time></trkpt><trkpt lat="46.1306976" lon="9.3577994"><ele>211.0</ele><time>2026-04-23T09:32:08.156Z</time></trkpt><trkpt lat="46.1306908" lon="9.3577014"><ele>211.33333333333331</ele><time>2026-04-23T09:32:11.158Z</time></trkpt><trkpt lat="46.1306658" lon="9.357576"><ele>211.66666666666666</ele><time>2026-04-23T09:32:14.157Z</time></trkpt><trkpt lat="46.1306359" lon="9.357484"><ele>212.0</ele><time>2026-04-23T09:32:16.158Z</time></trkpt><trkpt lat="46.130615" lon="9.3573979"><ele>212.33333333333331</ele><time>2026-04-23T09:32:18.158Z</time></trkpt><trkpt lat="46.1305865" lon="9.357294"><ele>212.66666666666666</ele><time>2026-04-23T09:32:20.158Z</time></trkpt><trkpt lat="46.130547" lon="9.3571877"><ele>213.0</ele><time>2026-04-23T09:32:22.158Z</time></trkpt><trkpt lat="46.130529" lon="9.3570979"><ele>213.0</ele><time>2026-04-23T09:32:24.158Z</time></trkpt><trkpt lat="46.1304949" lon="9.3569748"><ele>213.0</ele><time>2026-04-23T09:32:26.157Z</time></trkpt><trkpt lat="46.1304364" lon="9.3568406"><ele>213.0</ele><time>2026-04-23T09:32:28.156Z</time></trkpt><trkpt lat="46.1304075" lon="9.3566905"><ele>213.0</ele><time>2026-04-23T09:32:30.158Z</time></trkpt><trkpt lat="46.1303867" lon="9.3565389"><ele>213.0</ele><time>2026-04-23T09:32:32.157Z</time></trkpt><trkpt lat="46.1303529" lon="9.3563857"><ele>212.4</ele><time>2026-04-23T09:32:34.158Z</time></trkpt><trkpt lat="46.130324" lon="9.3562546"><ele>211.8</ele><time>2026-04-23T09:32:36.157Z</time></trkpt><trkpt lat="46.1303012" lon="9.3561332"><ele>211.2</ele><time>2026-04-23T09:32:38.158Z</time></trkpt><trkpt lat="46.1302677" lon="9.3560222"><ele>210.6</ele><time>2026-04-23T09:32:40.156Z</time></trkpt><trkpt lat="46.1302412" lon="9.3558856"><ele>210.0</ele><time>2026-04-23T09:32:42.158Z</time></trkpt><trkpt lat="46.1302036" lon="9.3557602"><ele>210.0</ele><time>2026-04-23T09:32:44.157Z</time></trkpt><trkpt lat="46.1301674" lon="9.3556327"><ele>210.0</ele><time>2026-04-23T09:32:46.158Z</time></trkpt><trkpt lat="46.1301297" lon="9.3554806"><ele>210.0</ele><time>2026-04-23T09:32:48.157Z</time></trkpt><trkpt lat="46.1300748" lon="9.3553483"><ele>210.0</ele><time>2026-04-23T09:32:50.158Z</time></trkpt><trkpt lat="46.130017" lon="9.35521"><ele>210.0</ele><time>2026-04-23T09:32:52.157Z</time></trkpt><trkpt lat="46.129967" lon="9.3550646"><ele>210.0</ele><time>2026-04-23T09:32:54.158Z</time></trkpt><trkpt lat="46.1299224" lon="9.354897"><ele>210.0</ele><time>2026-04-23T09:32:56.158Z</time></trkpt><trkpt lat="46.1298778" lon="9.3547403"><ele>210.0</ele><time>2026-04-23T09:32:58.157Z</time></trkpt><trkpt lat="46.1298513" lon="9.3546548"><ele>210.0</ele><time>2026-04-23T09:32:59.158Z</time></trkpt><trkpt lat="46.1298097" lon="9.3544933"><ele>210.0</ele><time>2026-04-23T09:33:01.158Z</time></trkpt><trkpt lat="46.1297705" lon="9.3543308"><ele>210.2</ele><time>2026-04-23T09:33:03.157Z</time></trkpt><trkpt lat="46.1297116" lon="9.3541739"><ele>210.4</ele><time>2026-04-23T09:33:05.157Z</time></trkpt><trkpt lat="46.1296306" lon="9.354041"><ele>210.60000000000002</ele><time>2026-04-23T09:33:07.158Z</time></trkpt><trkpt lat="46.1295834" lon="9.3539691"><ele>210.8</ele><time>2026-04-23T09:33:08.158Z</time></trkpt><trkpt lat="46.1295451" lon="9.3538961"><ele>211.0</ele><time>2026-04-23T09:33:09.157Z</time></trkpt><trkpt lat="46.1294945" lon="9.3538146"><ele>210.99999999999997</ele><time>2026-04-23T09:33:10.157Z</time></trkpt><trkpt lat="46.1294476" lon="9.3537455"><ele>211.0</ele><time>2026-04-23T09:33:11.157Z</time></trkpt><trkpt lat="46.1293986" lon="9.3536883"><ele>211.0</ele><time>2026-04-23T09:33:12.159Z</time></trkpt><trkpt lat="46.1293219" lon="9.3535766"><ele>211.0</ele><time>2026-04-23T09:33:14.158Z</time></trkpt><trkpt lat="46.1292801" lon="9.3535078"><ele>210.99999999999997</ele><time>2026-04-23T09:33:15.157Z</time></trkpt><trkpt lat="46.1292365" lon="9.3534412"><ele>211.0</ele><time>2026-04-23T09:33:16.157Z</time></trkpt><trkpt lat="46.1291467" lon="9.3533216"><ele>211.0</ele><time>2026-04-23T09:33:18.157Z</time></trkpt><trkpt lat="46.1290724" lon="9.3532102"><ele>211.0</ele><time>2026-04-23T09:33:20.157Z</time></trkpt><trkpt lat="46.1289923" lon="9.3530695"><ele>211.0</ele><time>2026-04-23T09:33:22.156Z</time></trkpt><trkpt lat="46.128904" lon="9.3529519"><ele>211.0</ele><time>2026-04-23T09:33:24.157Z</time></trkpt><trkpt lat="46.1288141" lon="9.3528367"><ele>210.66666666666666</ele><time>2026-04-23T09:33:26.157Z</time></trkpt><trkpt lat="46.1287289" lon="9.3527265"><ele>210.33333333333331</ele><time>2026-04-23T09:33:28.157Z</time></trkpt><trkpt lat="46.1286384" lon="9.352616"><ele>210.0</ele><time>2026-04-23T09:33:30.157Z</time></trkpt><trkpt lat="46.1285844" lon="9.3525684"><ele>209.66666666666669</ele><time>2026-04-23T09:33:31.157Z</time></trkpt><trkpt lat="46.1285304" lon="9.35251"><ele>209.33333333333334</ele><time>2026-04-23T09:33:32.158Z</time></trkpt><trkpt lat="46.1284733" lon="9.3524451"><ele>209.0</ele><time>2026-04-23T09:33:33.158Z</time></trkpt><trkpt lat="46.1284312" lon="9.3523774"><ele>209.0</ele><time>2026-04-23T09:33:34.157Z</time></trkpt><trkpt lat="46.1283808" lon="9.3523069"><ele>209.0</ele><time>2026-04-23T09:33:35.157Z</time></trkpt><trkpt lat="46.1283301" lon="9.3522457"><ele>209.0</ele><time>2026-04-23T09:33:36.157Z</time></trkpt><trkpt lat="46.128276" lon="9.3521842"><ele>209.0</ele><time>2026-04-23T09:33:37.157Z</time></trkpt><trkpt lat="46.1282236" lon="9.3521161"><ele>209.0</ele><time>2026-04-23T09:33:38.158Z</time></trkpt><trkpt lat="46.1281643" lon="9.3520596"><ele>209.0</ele><time>2026-04-23T09:33:39.157Z</time></trkpt><trkpt lat="46.1281078" lon="9.3520055"><ele>209.0</ele><time>2026-04-23T09:33:40.156Z</time></trkpt><trkpt lat="46.1280433" lon="9.3519634"><ele>209.0</ele><time>2026-04-23T09:33:41.158Z</time></trkpt><trkpt lat="46.1279763" lon="9.3519418"><ele>209.0</ele><time>2026-04-23T09:33:42.158Z</time></trkpt><trkpt lat="46.1279063" lon="9.3519261"><ele>209.0</ele><time>2026-04-23T09:33:43.158Z</time></trkpt><trkpt lat="46.1278277" lon="9.3519192"><ele>209.0</ele><time>2026-04-23T09:33:44.158Z</time></trkpt><trkpt lat="46.1277555" lon="9.3519116"><ele>209.0</ele><time>2026-04-23T09:33:45.156Z</time></trkpt><trkpt lat="46.127686" lon="9.3519001"><ele>209.0</ele><time>2026-04-23T09:33:46.158Z</time></trkpt><trkpt lat="46.1276285" lon="9.3518536"><ele>209.0</ele><time>2026-04-23T09:33:47.157Z</time></trkpt><trkpt lat="46.1275618" lon="9.3518248"><ele>209.00000000000003</ele><time>2026-04-23T09:33:48.159Z</time></trkpt><trkpt lat="46.127496" lon="9.3517953"><ele>209.0</ele><time>2026-04-23T09:33:49.157Z</time></trkpt><trkpt lat="46.1273914" lon="9.3517304"><ele>209.0</ele><time>2026-04-23T09:33:51.157Z</time></trkpt><trkpt lat="46.1273283" lon="9.3516946"><ele>209.0</ele><time>2026-04-23T09:33:52.157Z</time></trkpt><trkpt lat="46.1272574" lon="9.3516593"><ele>209.00000000000003</ele><time>2026-04-23T09:33:53.158Z</time></trkpt><trkpt lat="46.1271935" lon="9.3516292"><ele>209.0</ele><time>2026-04-23T09:33:54.158Z</time></trkpt><trkpt lat="46.1271089" lon="9.3515994"><ele>209.0</ele><time>2026-04-23T09:33:55.159Z</time></trkpt><trkpt lat="46.1269978" lon="9.3516186"><ele>209.0</ele><time>2026-04-23T09:33:57.157Z</time></trkpt><trkpt lat="46.1269278" lon="9.3516173"><ele>209.0</ele><time>2026-04-23T09:33:58.158Z</time></trkpt><trkpt lat="46.1268175" lon="9.3516284"><ele>209.0</ele><time>2026-04-23T09:34:00.156Z</time></trkpt><trkpt lat="46.1267098" lon="9.3516254"><ele>209.0</ele><time>2026-04-23T09:34:02.157Z</time></trkpt><trkpt lat="46.1266462" lon="9.3516325"><ele>209.0</ele><time>2026-04-23T09:34:03.158Z</time></trkpt><trkpt lat="46.1265818" lon="9.3516267"><ele>209.0</ele><time>2026-04-23T09:34:04.158Z</time></trkpt><trkpt lat="46.126473" lon="9.3515685"><ele>209.0</ele><time>2026-04-23T09:34:06.157Z</time></trkpt><trkpt lat="46.1264011" lon="9.351462"><ele>209.0</ele><time>2026-04-23T09:34:08.158Z</time></trkpt><trkpt lat="46.1263278" lon="9.3513372"><ele>209.0</ele><time>2026-04-23T09:34:10.158Z</time></trkpt><trkpt lat="46.1262591" lon="9.3512205"><ele>209.0</ele><time>2026-04-23T09:34:12.157Z</time></trkpt><trkpt lat="46.1262107" lon="9.3511522"><ele>209.0</ele><time>2026-04-23T09:34:13.157Z</time></trkpt><trkpt lat="46.1261198" lon="9.3510448"><ele>209.0</ele><time>2026-04-23T09:34:15.158Z</time></trkpt><trkpt lat="46.126034" lon="9.3509285"><ele>209.0</ele><time>2026-04-23T09:34:17.157Z</time></trkpt><trkpt lat="46.1259411" lon="9.3508151"><ele>209.0</ele><time>2026-04-23T09:34:19.159Z</time></trkpt><trkpt lat="46.1258911" lon="9.3507574"><ele>209.0</ele><time>2026-04-23T09:34:20.158Z</time></trkpt><trkpt lat="46.1258448" lon="9.3506941"><ele>209.0</ele><time>2026-04-23T09:34:21.156Z</time></trkpt><trkpt lat="46.1257983" lon="9.3506308"><ele>209.0</ele><time>2026-04-23T09:34:22.157Z</time></trkpt><trkpt lat="46.1257429" lon="9.3505706"><ele>209.0</ele><time>2026-04-23T09:34:23.158Z</time></trkpt><trkpt lat="46.1256931" lon="9.3505046"><ele>209.0</ele><time>2026-04-23T09:34:24.157Z</time></trkpt><trkpt lat="46.1256475" lon="9.3504407"><ele>209.0</ele><time>2026-04-23T09:34:25.158Z</time></trkpt><trkpt lat="46.1256019" lon="9.3503689"><ele>209.0</ele><time>2026-04-23T09:34:26.157Z</time></trkpt><trkpt lat="46.1255522" lon="9.3503011"><ele>208.71428571428572</ele><time>2026-04-23T09:34:27.158Z</time></trkpt><trkpt lat="46.1255018" lon="9.350231"><ele>208.42857142857142</ele><time>2026-04-23T09:34:28.158Z</time></trkpt><trkpt lat="46.1254509" lon="9.3501583"><ele>208.14285714285717</ele><time>2026-04-23T09:34:29.158Z</time></trkpt><trkpt lat="46.1254035" lon="9.3500831"><ele>207.85714285714286</ele><time>2026-04-23T09:34:30.157Z</time></trkpt><trkpt lat="46.1253581" lon="9.3500055"><ele>207.57142857142858</ele><time>2026-04-23T09:34:31.157Z</time></trkpt><trkpt lat="46.1253144" lon="9.3499208"><ele>207.2857142857143</ele><time>2026-04-23T09:34:32.157Z</time></trkpt><trkpt lat="46.12527" lon="9.3498336"><ele>207.0</ele><time>2026-04-23T09:34:33.157Z</time></trkpt><trkpt lat="46.1252274" lon="9.3497523"><ele>206.66666666666666</ele><time>2026-04-23T09:34:34.158Z</time></trkpt><trkpt lat="46.125183" lon="9.3496701"><ele>206.33333333333331</ele><time>2026-04-23T09:34:35.157Z</time></trkpt><trkpt lat="46.1251323" lon="9.3495981"><ele>206.0</ele><time>2026-04-23T09:34:36.158Z</time></trkpt><trkpt lat="46.1250859" lon="9.3495251"><ele>205.66666666666666</ele><time>2026-04-23T09:34:37.158Z</time></trkpt><trkpt lat="46.1249967" lon="9.3494003"><ele>205.33333333333331</ele><time>2026-04-23T09:34:39.158Z</time></trkpt><trkpt lat="46.1249477" lon="9.3493346"><ele>205.0</ele><time>2026-04-23T09:34:40.157Z</time></trkpt><trkpt lat="46.1248495" lon="9.3492335"><ele>204.99999999999997</ele><time>2026-04-23T09:34:42.157Z</time></trkpt><trkpt lat="46.1247751" lon="9.3491562"><ele>205.0</ele><time>2026-04-23T09:34:43.158Z</time></trkpt><trkpt lat="46.1247303" lon="9.3490819"><ele>205.0</ele><time>2026-04-23T09:34:44.157Z</time></trkpt><trkpt lat="46.1246902" lon="9.3490092"><ele>205.0</ele><time>2026-04-23T09:34:45.157Z</time></trkpt><trkpt lat="46.1246475" lon="9.3489317"><ele>204.99999999999997</ele><time>2026-04-23T09:34:46.157Z</time></trkpt><trkpt lat="46.1245996" lon="9.3488326"><ele>205.0</ele><time>2026-04-23T09:34:48.157Z</time></trkpt><trkpt lat="46.1245468" lon="9.3487348"><ele>204.83333333333331</ele><time>2026-04-23T09:34:49.158Z</time></trkpt><trkpt lat="46.1244962" lon="9.3486655"><ele>204.66666666666666</ele><time>2026-04-23T09:34:50.158Z</time></trkpt><trkpt lat="46.1244454" lon="9.3486001"><ele>204.5</ele><time>2026-04-23T09:34:51.157Z</time></trkpt><trkpt lat="46.1243371" lon="9.3484898"><ele>204.33333333333331</ele><time>2026-04-23T09:34:53.158Z</time></trkpt><trkpt lat="46.1242742" lon="9.3484199"><ele>204.16666666666666</ele><time>2026-04-23T09:34:54.158Z</time></trkpt><trkpt lat="46.1242142" lon="9.3483826"><ele>204.0</ele><time>2026-04-23T09:34:55.158Z</time></trkpt><trkpt lat="46.1241386" lon="9.3482902"><ele>204.0</ele><time>2026-04-23T09:34:56.157Z</time></trkpt><trkpt lat="46.1240814" lon="9.3482327"><ele>204.0</ele><time>2026-04-23T09:34:57.158Z</time></trkpt><trkpt lat="46.1240348" lon="9.3481497"><ele>204.0</ele><time>2026-04-23T09:34:58.159Z</time></trkpt><trkpt lat="46.1239762" lon="9.3480996"><ele>204.0</ele><time>2026-04-23T09:34:59.158Z</time></trkpt><trkpt lat="46.1239221" lon="9.3480335"><ele>204.0</ele><time>2026-04-23T09:35:00.159Z</time></trkpt><trkpt lat="46.1238532" lon="9.3479521"><ele>204.0</ele><time>2026-04-23T09:35:02.157Z</time></trkpt><trkpt lat="46.123791" lon="9.3479234"><ele>204.0</ele><time>2026-04-23T09:35:06.157Z</time></trkpt><trkpt lat="46.123792" lon="9.3480228"><ele>204.5</ele><time>2026-04-23T09:35:11.158Z</time></trkpt><trkpt lat="46.1237667" lon="9.3481346"><ele>205.0</ele><time>2026-04-23T09:35:36.159Z</time></trkpt><trkpt lat="46.1237491" lon="9.3482345"><ele>205.5</ele><time>2026-04-23T09:35:41.159Z</time></trkpt><trkpt lat="46.1237478" lon="9.348329"><ele>206.0</ele><time>2026-04-23T09:35:44.158Z</time></trkpt><trkpt lat="46.1237417" lon="9.3484378"><ele>206.5</ele><time>2026-04-23T09:35:48.159Z</time></trkpt><trkpt lat="46.1237172" lon="9.3485406"><ele>207.0</ele><time>2026-04-23T09:35:51.159Z</time></trkpt><trkpt lat="46.1237105" lon="9.3486634"><ele>207.0</ele><time>2026-04-23T09:35:54.159Z</time></trkpt><trkpt lat="46.1236845" lon="9.3487672"><ele>207.0</ele><time>2026-04-23T09:35:57.158Z</time></trkpt><trkpt lat="46.1236639" lon="9.3488533"><ele>207.0</ele><time>2026-04-23T09:35:59.158Z</time></trkpt><trkpt lat="46.1236442" lon="9.3489764"><ele>207.0</ele><time>2026-04-23T09:36:02.158Z</time></trkpt><trkpt lat="46.1236392" lon="9.349082"><ele>207.0</ele><time>2026-04-23T09:36:05.157Z</time></trkpt><trkpt lat="46.1236339" lon="9.3492001"><ele>207.0</ele><time>2026-04-23T09:36:08.158Z</time></trkpt><trkpt lat="46.1236107" lon="9.3493244"><ele>207.0</ele><time>2026-04-23T09:36:11.157Z</time></trkpt><trkpt lat="46.1235392" lon="9.3493696"><ele>207.0</ele><time>2026-04-23T09:36:13.158Z</time></trkpt><trkpt lat="46.1234655" lon="9.3493205"><ele>207.0</ele><time>2026-04-23T09:36:16.158Z</time></trkpt><trkpt lat="46.1233744" lon="9.3492852"><ele>207.0</ele><time>2026-04-23T09:36:18.157Z</time></trkpt><trkpt lat="46.1233129" lon="9.3492475"><ele>207.0</ele><time>2026-04-23T09:36:20.158Z</time></trkpt><trkpt lat="46.1232476" lon="9.3492094"><ele>207.0</ele><time>2026-04-23T09:36:22.157Z</time></trkpt><trkpt lat="46.1231652" lon="9.349154"><ele>207.0</ele><time>2026-04-23T09:36:24.157Z</time></trkpt><trkpt lat="46.1230536" lon="9.3490968"><ele>207.0</ele><time>2026-04-23T09:36:26.158Z</time></trkpt><trkpt lat="46.1229352" lon="9.34904"><ele>207.0</ele><time>2026-04-23T09:36:28.158Z</time></trkpt><trkpt lat="46.1228587" lon="9.3490129"><ele>207.0</ele><time>2026-04-23T09:36:29.159Z</time></trkpt><trkpt lat="46.1227941" lon="9.3489813"><ele>207.0</ele><time>2026-04-23T09:36:30.157Z</time></trkpt><trkpt lat="46.1227253" lon="9.3489449"><ele>207.0</ele><time>2026-04-23T09:36:31.158Z</time></trkpt><trkpt lat="46.1226401" lon="9.3488998"><ele>207.0</ele><time>2026-04-23T09:36:32.158Z</time></trkpt><trkpt lat="46.1225652" lon="9.348863"><ele>207.0</ele><time>2026-04-23T09:36:33.157Z</time></trkpt><trkpt lat="46.1224916" lon="9.3488336"><ele>207.0</ele><time>2026-04-23T09:36:34.158Z</time></trkpt><trkpt lat="46.1224301" lon="9.3487904"><ele>207.0</ele><time>2026-04-23T09:36:35.158Z</time></trkpt><trkpt lat="46.1223562" lon="9.3487591"><ele>207.0</ele><time>2026-04-23T09:36:36.158Z</time></trkpt><trkpt lat="46.1222964" lon="9.3487207"><ele>206.85714285714286</ele><time>2026-04-23T09:36:37.157Z</time></trkpt><trkpt lat="46.1222347" lon="9.3486909"><ele>206.71428571428572</ele><time>2026-04-23T09:36:38.158Z</time></trkpt><trkpt lat="46.1221681" lon="9.3486588"><ele>206.57142857142856</ele><time>2026-04-23T09:36:39.159Z</time></trkpt><trkpt lat="46.1220972" lon="9.3486226"><ele>206.42857142857144</ele><time>2026-04-23T09:36:40.158Z</time></trkpt><trkpt lat="46.1220321" lon="9.3485869"><ele>206.28571428571428</ele><time>2026-04-23T09:36:41.158Z</time></trkpt><trkpt lat="46.1219643" lon="9.3485542"><ele>206.14285714285714</ele><time>2026-04-23T09:36:42.158Z</time></trkpt><trkpt lat="46.1218937" lon="9.3485262"><ele>206.0</ele><time>2026-04-23T09:36:43.158Z</time></trkpt><trkpt lat="46.121828" lon="9.3484849"><ele>205.99999999999997</ele><time>2026-04-23T09:36:44.157Z</time></trkpt><trkpt lat="46.1217551" lon="9.3484518"><ele>206.0</ele><time>2026-04-23T09:36:45.159Z</time></trkpt><trkpt lat="46.121687" lon="9.3484236"><ele>206.0</ele><time>2026-04-23T09:36:46.157Z</time></trkpt><trkpt lat="46.1216088" lon="9.3483848"><ele>206.0</ele><time>2026-04-23T09:36:47.158Z</time></trkpt><trkpt lat="46.121544" lon="9.3483569"><ele>206.0</ele><time>2026-04-23T09:36:48.158Z</time></trkpt><trkpt lat="46.1214853" lon="9.3483109"><ele>205.99999999999997</ele><time>2026-04-23T09:36:49.16Z</time></trkpt><trkpt lat="46.1214229" lon="9.3482677"><ele>206.0</ele><time>2026-04-23T09:36:50.16Z</time></trkpt><trkpt lat="46.1213566" lon="9.3482406"><ele>206.16666666666669</ele><time>2026-04-23T09:36:51.158Z</time></trkpt><trkpt lat="46.1212902" lon="9.3482081"><ele>206.33333333333334</ele><time>2026-04-23T09:36:52.158Z</time></trkpt><trkpt lat="46.1212248" lon="9.3481593"><ele>206.5</ele><time>2026-04-23T09:36:53.158Z</time></trkpt><trkpt lat="46.1211612" lon="9.3481254"><ele>206.66666666666669</ele><time>2026-04-23T09:36:54.158Z</time></trkpt><trkpt lat="46.1210888" lon="9.3480834"><ele>206.83333333333334</ele><time>2026-04-23T09:36:55.158Z</time></trkpt><trkpt lat="46.1210289" lon="9.3480516"><ele>207.0</ele><time>2026-04-23T09:36:56.159Z</time></trkpt><trkpt lat="46.1209096" lon="9.3480058"><ele>206.66666666666666</ele><time>2026-04-23T09:36:58.159Z</time></trkpt><trkpt lat="46.1208472" lon="9.3479813"><ele>206.33333333333331</ele><time>2026-04-23T09:36:59.158Z</time></trkpt><trkpt lat="46.1207798" lon="9.3479594"><ele>206.0</ele><time>2026-04-23T09:37:00.159Z</time></trkpt><trkpt lat="46.12072" lon="9.3479255"><ele>205.66666666666666</ele><time>2026-04-23T09:37:01.157Z</time></trkpt><trkpt lat="46.1206548" lon="9.3478883"><ele>205.33333333333331</ele><time>2026-04-23T09:37:02.158Z</time></trkpt><trkpt lat="46.1205923" lon="9.3478565"><ele>205.0</ele><time>2026-04-23T09:37:03.159Z</time></trkpt><trkpt lat="46.1204742" lon="9.3478008"><ele>205.0</ele><time>2026-04-23T09:37:05.159Z</time></trkpt><trkpt lat="46.1204077" lon="9.347769"><ele>205.0</ele><time>2026-04-23T09:37:06.158Z</time></trkpt><trkpt lat="46.1203" lon="9.3477258"><ele>205.0</ele><time>2026-04-23T09:37:08.158Z</time></trkpt><trkpt lat="46.1201963" lon="9.3476642"><ele>205.0</ele><time>2026-04-23T09:37:10.157Z</time></trkpt><trkpt lat="46.1200958" lon="9.3476134"><ele>205.0</ele><time>2026-04-23T09:37:12.158Z</time></trkpt><trkpt lat="46.1199867" lon="9.3475736"><ele>205.75</ele><time>2026-04-23T09:37:14.158Z</time></trkpt><trkpt lat="46.1198797" lon="9.3475184"><ele>206.5</ele><time>2026-04-23T09:37:16.159Z</time></trkpt><trkpt lat="46.119771" lon="9.3474735"><ele>207.25</ele><time>2026-04-23T09:37:18.158Z</time></trkpt><trkpt lat="46.1196646" lon="9.3474268"><ele>208.0</ele><time>2026-04-23T09:37:20.158Z</time></trkpt><trkpt lat="46.119552" lon="9.3473765"><ele>207.99999999999997</ele><time>2026-04-23T09:37:22.158Z</time></trkpt><trkpt lat="46.119439" lon="9.3473398"><ele>208.0</ele><time>2026-04-23T09:37:24.158Z</time></trkpt><trkpt lat="46.119322" lon="9.3473075"><ele>208.0</ele><time>2026-04-23T09:37:26.16Z</time></trkpt><trkpt lat="46.1192495" lon="9.3472698"><ele>208.0</ele><time>2026-04-23T09:37:27.157Z</time></trkpt><trkpt lat="46.1191872" lon="9.3472429"><ele>207.99999999999997</ele><time>2026-04-23T09:37:28.159Z</time></trkpt><trkpt lat="46.119126" lon="9.3472193"><ele>208.0</ele><time>2026-04-23T09:37:29.159Z</time></trkpt><trkpt lat="46.1190643" lon="9.3471969"><ele>206.60000000000002</ele><time>2026-04-23T09:37:30.159Z</time></trkpt><trkpt lat="46.1189495" lon="9.3471465"><ele>205.20000000000002</ele><time>2026-04-23T09:37:32.16Z</time></trkpt><trkpt lat="46.1188869" lon="9.3471219"><ele>203.8</ele><time>2026-04-23T09:37:33.157Z</time></trkpt><trkpt lat="46.1188235" lon="9.347087"><ele>202.4</ele><time>2026-04-23T09:37:34.159Z</time></trkpt><trkpt lat="46.118708" lon="9.3470497"><ele>201.0</ele><time>2026-04-23T09:37:36.157Z</time></trkpt><trkpt lat="46.1185819" lon="9.3470186"><ele>201.0</ele><time>2026-04-23T09:37:38.158Z</time></trkpt><trkpt lat="46.1184576" lon="9.3469797"><ele>201.0</ele><time>2026-04-23T09:37:40.158Z</time></trkpt><trkpt lat="46.1183906" lon="9.3469527"><ele>201.0</ele><time>2026-04-23T09:37:41.158Z</time></trkpt><trkpt lat="46.1183239" lon="9.3469242"><ele>201.0</ele><time>2026-04-23T09:37:42.157Z</time></trkpt><trkpt lat="46.1181844" lon="9.3468905"><ele>201.0</ele><time>2026-04-23T09:37:44.158Z</time></trkpt><trkpt lat="46.1180622" lon="9.3468309"><ele>201.33333333333334</ele><time>2026-04-23T09:37:46.159Z</time></trkpt><trkpt lat="46.1179934" lon="9.3468058"><ele>201.66666666666669</ele><time>2026-04-23T09:37:47.157Z</time></trkpt><trkpt lat="46.1179244" lon="9.3467981"><ele>202.0</ele><time>2026-04-23T09:37:48.159Z</time></trkpt><trkpt lat="46.1178551" lon="9.3467652"><ele>202.33333333333334</ele><time>2026-04-23T09:37:49.158Z</time></trkpt><trkpt lat="46.1177865" lon="9.346741"><ele>202.66666666666669</ele><time>2026-04-23T09:37:50.158Z</time></trkpt><trkpt lat="46.117719" lon="9.3467181"><ele>203.0</ele><time>2026-04-23T09:37:51.157Z</time></trkpt><trkpt lat="46.1176008" lon="9.3466704"><ele>203.0</ele><time>2026-04-23T09:37:53.159Z</time></trkpt><trkpt lat="46.117534" lon="9.3466484"><ele>203.0</ele><time>2026-04-23T09:37:54.158Z</time></trkpt><trkpt lat="46.1174613" lon="9.346633"><ele>203.0</ele><time>2026-04-23T09:37:55.159Z</time></trkpt><trkpt lat="46.1173959" lon="9.3466115"><ele>203.0</ele><time>2026-04-23T09:37:56.158Z</time></trkpt><trkpt lat="46.1173329" lon="9.3465847"><ele>203.0</ele><time>2026-04-23T09:37:57.158Z</time></trkpt><trkpt lat="46.1172688" lon="9.3465513"><ele>203.0</ele><time>2026-04-23T09:37:58.159Z</time></trkpt><trkpt lat="46.1172076" lon="9.3465202"><ele>203.0</ele><time>2026-04-23T09:37:59.157Z</time></trkpt><trkpt lat="46.1171191" lon="9.3464797"><ele>203.83333333333334</ele><time>2026-04-23T09:38:01.157Z</time></trkpt><trkpt lat="46.1170587" lon="9.3464476"><ele>204.66666666666669</ele><time>2026-04-23T09:38:24.158Z</time></trkpt><trkpt lat="46.1169842" lon="9.346406"><ele>205.5</ele><time>2026-04-23T09:38:27.158Z</time></trkpt><trkpt lat="46.1169245" lon="9.3463417"><ele>206.33333333333331</ele><time>2026-04-23T09:38:29.159Z</time></trkpt><trkpt lat="46.1168638" lon="9.3462869"><ele>207.16666666666666</ele><time>2026-04-23T09:38:31.158Z</time></trkpt><trkpt lat="46.1167985" lon="9.346235"><ele>208.0</ele><time>2026-04-23T09:38:33.158Z</time></trkpt><trkpt lat="46.1167253" lon="9.3460831"><ele>208.0</ele><time>2026-04-23T09:38:35.158Z</time></trkpt><trkpt lat="46.11669" lon="9.3459958"><ele>208.0</ele><time>2026-04-23T09:38:36.159Z</time></trkpt><trkpt lat="46.116622" lon="9.3458721"><ele>208.0</ele><time>2026-04-23T09:38:38.158Z</time></trkpt><trkpt lat="46.1165583" lon="9.3457409"><ele>208.0</ele><time>2026-04-23T09:38:39.158Z</time></trkpt><trkpt lat="46.1165199" lon="9.3456684"><ele>208.0</ele><time>2026-04-23T09:38:40.157Z</time></trkpt><trkpt lat="46.1164798" lon="9.3455212"><ele>214.4</ele><time>2026-04-23T09:38:42.159Z</time></trkpt><trkpt lat="46.1164423" lon="9.3454037"><ele>220.8</ele><time>2026-04-23T09:38:43.16Z</time></trkpt><trkpt lat="46.1164107" lon="9.3453094"><ele>227.2</ele><time>2026-04-23T09:38:44.157Z</time></trkpt><trkpt lat="46.1163934" lon="9.3451208"><ele>233.6</ele><time>2026-04-23T09:38:46.157Z</time></trkpt><trkpt lat="46.1163799" lon="9.345029"><ele>240.0</ele><time>2026-04-23T09:38:47.157Z</time></trkpt><trkpt lat="46.1163551" lon="9.344858"><ele>240.0</ele><time>2026-04-23T09:38:49.159Z</time></trkpt><trkpt lat="46.1163489" lon="9.3447552"><ele>240.0</ele><time>2026-04-23T09:38:50.16Z</time></trkpt><trkpt lat="46.1163359" lon="9.3445863"><ele>240.0</ele><time>2026-04-23T09:38:52.157Z</time></trkpt><trkpt lat="46.1163351" lon="9.3444852"><ele>240.0</ele><time>2026-04-23T09:38:53.158Z</time></trkpt><trkpt lat="46.1163307" lon="9.3443902"><ele>240.0</ele><time>2026-04-23T09:38:54.159Z</time></trkpt><trkpt lat="46.1163109" lon="9.3443008"><ele>240.0</ele><time>2026-04-23T09:38:55.16Z</time></trkpt><trkpt lat="46.116311" lon="9.3442045"><ele>238.6</ele><time>2026-04-23T09:38:56.158Z</time></trkpt><trkpt lat="46.1162948" lon="9.3440224"><ele>237.2</ele><time>2026-04-23T09:38:58.159Z</time></trkpt><trkpt lat="46.1162728" lon="9.3439215"><ele>235.8</ele><time>2026-04-23T09:38:59.157Z</time></trkpt><trkpt lat="46.1162573" lon="9.3438259"><ele>234.4</ele><time>2026-04-23T09:39:00.159Z</time></trkpt><trkpt lat="46.1162481" lon="9.3437286"><ele>233.0</ele><time>2026-04-23T09:39:01.157Z</time></trkpt><trkpt lat="46.1162223" lon="9.3435495"><ele>233.00000000000003</ele><time>2026-04-23T09:39:03.158Z</time></trkpt><trkpt lat="46.1162206" lon="9.3434502"><ele>233.0</ele><time>2026-04-23T09:39:04.157Z</time></trkpt><trkpt lat="46.1161984" lon="9.3432781"><ele>233.0</ele><time>2026-04-23T09:39:06.159Z</time></trkpt><trkpt lat="46.1161886" lon="9.3431751"><ele>233.0</ele><time>2026-04-23T09:39:07.159Z</time></trkpt><trkpt lat="46.1161853" lon="9.3430754"><ele>233.00000000000003</ele><time>2026-04-23T09:39:08.157Z</time></trkpt><trkpt lat="46.1161768" lon="9.3429774"><ele>233.0</ele><time>2026-04-23T09:39:09.159Z</time></trkpt><trkpt lat="46.116168" lon="9.3428774"><ele>234.8</ele><time>2026-04-23T09:39:10.159Z</time></trkpt><trkpt lat="46.1161588" lon="9.3426967"><ele>236.60000000000002</ele><time>2026-04-23T09:39:12.158Z</time></trkpt><trkpt lat="46.1161624" lon="9.3425902"><ele>238.39999999999998</ele><time>2026-04-23T09:39:13.157Z</time></trkpt><trkpt lat="46.1161726" lon="9.3424918"><ele>240.2</ele><time>2026-04-23T09:39:14.157Z</time></trkpt><trkpt lat="46.1161894" lon="9.3423123"><ele>242.0</ele><time>2026-04-23T09:39:16.157Z</time></trkpt><trkpt lat="46.1162262" lon="9.3421804"><ele>243.50000000000003</ele><time>2026-04-23T09:39:17.158Z</time></trkpt><trkpt lat="46.1162425" lon="9.3420851"><ele>245.0</ele><time>2026-04-23T09:39:18.158Z</time></trkpt><trkpt lat="46.1162777" lon="9.3419121"><ele>246.5</ele><time>2026-04-23T09:39:20.157Z</time></trkpt><trkpt lat="46.1163013" lon="9.341777"><ele>248.0</ele><time>2026-04-23T09:39:22.158Z</time></trkpt><trkpt lat="46.1163241" lon="9.3416819"><ele>249.50000000000003</ele><time>2026-04-23T09:39:23.158Z</time></trkpt><trkpt lat="46.1163448" lon="9.3415932"><ele>251.0</ele><time>2026-04-23T09:39:24.157Z</time></trkpt><trkpt lat="46.116372" lon="9.3415091"><ele>251.0</ele><time>2026-04-23T09:39:25.157Z</time></trkpt><trkpt lat="46.1164013" lon="9.3414136"><ele>251.00000000000003</ele><time>2026-04-23T09:39:26.157Z</time></trkpt><trkpt lat="46.1164223" lon="9.3413195"><ele>251.00000000000003</ele><time>2026-04-23T09:39:27.158Z</time></trkpt><trkpt lat="46.1164577" lon="9.341235"><ele>251.0</ele><time>2026-04-23T09:39:28.158Z</time></trkpt><trkpt lat="46.116504" lon="9.3410567"><ele>251.0</ele><time>2026-04-23T09:39:30.157Z</time></trkpt><trkpt lat="46.1165457" lon="9.3408719"><ele>246.66666666666669</ele><time>2026-04-23T09:39:32.159Z</time></trkpt><trkpt lat="46.116576" lon="9.3407741"><ele>242.33333333333334</ele><time>2026-04-23T09:39:33.159Z</time></trkpt><trkpt lat="46.1165985" lon="9.3406852"><ele>238.0</ele><time>2026-04-23T09:39:34.159Z</time></trkpt><trkpt lat="46.116623" lon="9.3405899"><ele>233.66666666666669</ele><time>2026-04-23T09:39:35.159Z</time></trkpt><trkpt lat="46.1166677" lon="9.3404109"><ele>229.33333333333334</ele><time>2026-04-23T09:39:37.158Z</time></trkpt><trkpt lat="46.1166901" lon="9.3403125"><ele>225.0</ele><time>2026-04-23T09:39:38.159Z</time></trkpt><trkpt lat="46.1167094" lon="9.3402223"><ele>225.0</ele><time>2026-04-23T09:39:39.159Z</time></trkpt><trkpt lat="46.1167305" lon="9.3401272"><ele>225.0</ele><time>2026-04-23T09:39:40.159Z</time></trkpt><trkpt lat="46.116763" lon="9.3399504"><ele>225.0</ele><time>2026-04-23T09:39:42.159Z</time></trkpt><trkpt lat="46.1167771" lon="9.3398596"><ele>225.0</ele><time>2026-04-23T09:39:43.16Z</time></trkpt><trkpt lat="46.1167919" lon="9.3397704"><ele>225.0</ele><time>2026-04-23T09:39:44.157Z</time></trkpt><trkpt lat="46.116774" lon="9.3396773"><ele>225.0</ele><time>2026-04-23T09:39:45.159Z</time></trkpt><trkpt lat="46.1168025" lon="9.3395094"><ele>228.0</ele><time>2026-04-23T09:39:47.159Z</time></trkpt><trkpt lat="46.1168221" lon="9.3393714"><ele>231.0</ele><time>2026-04-23T09:39:49.158Z</time></trkpt><trkpt lat="46.1168661" lon="9.3391862"><ele>234.0</ele><time>2026-04-23T09:39:51.16Z</time></trkpt><trkpt lat="46.1168974" lon="9.3390217"><ele>237.0</ele><time>2026-04-23T09:39:53.158Z</time></trkpt><trkpt lat="46.1169241" lon="9.3388805"><ele>237.6</ele><time>2026-04-23T09:39:55.158Z</time></trkpt><trkpt lat="46.1169298" lon="9.3387157"><ele>238.2</ele><time>2026-04-23T09:39:57.159Z</time></trkpt><trkpt lat="46.1169494" lon="9.3385851"><ele>238.8</ele><time>2026-04-23T09:39:58.158Z</time></trkpt><trkpt lat="46.1169514" lon="9.3384699"><ele>239.4</ele><time>2026-04-23T09:39:59.158Z</time></trkpt><trkpt lat="46.1169625" lon="9.3383047"><ele>240.0</ele><time>2026-04-23T09:40:01.157Z</time></trkpt><trkpt lat="46.1169619" lon="9.3381699"><ele>238.8</ele><time>2026-04-23T09:40:03.158Z</time></trkpt><trkpt lat="46.1169604" lon="9.3380152"><ele>237.6</ele><time>2026-04-23T09:40:05.159Z</time></trkpt><trkpt lat="46.1169734" lon="9.337865"><ele>236.39999999999998</ele><time>2026-04-23T09:40:07.159Z</time></trkpt><trkpt lat="46.1169509" lon="9.3377196"><ele>235.2</ele><time>2026-04-23T09:40:09.159Z</time></trkpt><trkpt lat="46.1169282" lon="9.3375707"><ele>234.0</ele><time>2026-04-23T09:40:11.16Z</time></trkpt><trkpt lat="46.1168989" lon="9.3374285"><ele>234.0</ele><time>2026-04-23T09:40:13.158Z</time></trkpt><trkpt lat="46.1168881" lon="9.3372693"><ele>233.99999999999997</ele><time>2026-04-23T09:40:15.158Z</time></trkpt><trkpt lat="46.1168372" lon="9.3371358"><ele>233.99999999999997</ele><time>2026-04-23T09:40:17.159Z</time></trkpt><trkpt lat="46.1167712" lon="9.3370214"><ele>234.0</ele><time>2026-04-23T09:40:19.158Z</time></trkpt><trkpt lat="46.1167176" lon="9.3368945"><ele>234.0</ele><time>2026-04-23T09:40:21.158Z</time></trkpt><trkpt lat="46.1166857" lon="9.3367916"><ele>232.0</ele><time>2026-04-23T09:40:23.158Z</time></trkpt><trkpt lat="46.1166477" lon="9.3366889"><ele>230.0</ele><time>2026-04-23T09:40:25.159Z</time></trkpt><trkpt lat="46.1166035" lon="9.3365916"><ele>228.0</ele><time>2026-04-23T09:40:27.158Z</time></trkpt><trkpt lat="46.1165611" lon="9.3364884"><ele>226.0</ele><time>2026-04-23T09:40:29.159Z</time></trkpt><trkpt lat="46.1165077" lon="9.3363742"><ele>224.0</ele><time>2026-04-23T09:40:31.158Z</time></trkpt><trkpt lat="46.1164614" lon="9.3362729"><ele>222.0</ele><time>2026-04-23T09:40:33.158Z</time></trkpt><trkpt lat="46.1164124" lon="9.3361674"><ele>228.83333333333334</ele><time>2026-04-23T09:40:35.157Z</time></trkpt><trkpt lat="46.1163702" lon="9.3360672"><ele>235.66666666666669</ele><time>2026-04-23T09:40:37.158Z</time></trkpt><trkpt lat="46.1163308" lon="9.3359634"><ele>242.5</ele><time>2026-04-23T09:40:39.159Z</time></trkpt><trkpt lat="46.1162861" lon="9.3358831"><ele>249.33333333333334</ele><time>2026-04-23T09:40:41.159Z</time></trkpt><trkpt lat="46.1162411" lon="9.3357882"><ele>256.1666666666667</ele><time>2026-04-23T09:40:43.159Z</time></trkpt><trkpt lat="46.1162033" lon="9.335697"><ele>263.0</ele><time>2026-04-23T09:40:45.158Z</time></trkpt><trkpt lat="46.1161531" lon="9.3356298"><ele>259.5</ele><time>2026-04-23T09:40:47.157Z</time></trkpt><trkpt lat="46.1160974" lon="9.3355356"><ele>256.0</ele><time>2026-04-23T09:40:49.159Z</time></trkpt><trkpt lat="46.1160586" lon="9.3354536"><ele>252.5</ele><time>2026-04-23T09:40:51.159Z</time></trkpt><trkpt lat="46.1160127" lon="9.3353746"><ele>249.0</ele><time>2026-04-23T09:40:53.159Z</time></trkpt><trkpt lat="46.1159712" lon="9.335291"><ele>245.50000000000003</ele><time>2026-04-23T09:40:55.158Z</time></trkpt><trkpt lat="46.1159383" lon="9.3352101"><ele>242.0</ele><time>2026-04-23T09:40:57.158Z</time></trkpt><trkpt lat="46.1159007" lon="9.3350868"><ele>242.00000000000003</ele><time>2026-04-23T09:41:00.16Z</time></trkpt><trkpt lat="46.115882" lon="9.3349921"><ele>242.0</ele><time>2026-04-23T09:41:02.16Z</time></trkpt><trkpt lat="46.1158644" lon="9.3348837"><ele>242.0</ele><time>2026-04-23T09:41:04.158Z</time></trkpt><trkpt lat="46.1158595" lon="9.3347587"><ele>242.0</ele><time>2026-04-23T09:41:06.158Z</time></trkpt><trkpt lat="46.1158536" lon="9.3346322"><ele>242.00000000000003</ele><time>2026-04-23T09:41:08.158Z</time></trkpt><trkpt lat="46.1158359" lon="9.3345124"><ele>242.0</ele><time>2026-04-23T09:41:10.159Z</time></trkpt><trkpt lat="46.115805" lon="9.3343978"><ele>242.83333333333334</ele><time>2026-04-23T09:41:12.159Z</time></trkpt><trkpt lat="46.1157685" lon="9.3342886"><ele>243.66666666666669</ele><time>2026-04-23T09:41:14.16Z</time></trkpt><trkpt lat="46.1157261" lon="9.3341941"><ele>244.5</ele><time>2026-04-23T09:41:16.159Z</time></trkpt><trkpt lat="46.1156858" lon="9.3340961"><ele>245.33333333333331</ele><time>2026-04-23T09:41:18.159Z</time></trkpt><trkpt lat="46.1156504" lon="9.3339934"><ele>246.16666666666666</ele><time>2026-04-23T09:41:20.159Z</time></trkpt><trkpt lat="46.1156096" lon="9.3339059"><ele>247.0</ele><time>2026-04-23T09:41:22.158Z</time></trkpt><trkpt lat="46.1155715" lon="9.3338104"><ele>247.0</ele><time>2026-04-23T09:41:24.158Z</time></trkpt><trkpt lat="46.1155363" lon="9.333727"><ele>247.0</ele><time>2026-04-23T09:41:26.159Z</time></trkpt><trkpt lat="46.1155036" lon="9.3336427"><ele>247.0</ele><time>2026-04-23T09:41:28.159Z</time></trkpt><trkpt lat="46.1154624" lon="9.3335575"><ele>247.0</ele><time>2026-04-23T09:41:30.159Z</time></trkpt><trkpt lat="46.1154185" lon="9.3334869"><ele>247.0</ele><time>2026-04-23T09:41:32.157Z</time></trkpt><trkpt lat="46.11537" lon="9.3334239"><ele>247.0</ele><time>2026-04-23T09:41:34.158Z</time></trkpt><trkpt lat="46.1153186" lon="9.3333365"><ele>247.0</ele><time>2026-04-23T09:41:36.158Z</time></trkpt><trkpt lat="46.1152711" lon="9.3332415"><ele>246.99999999999997</ele><time>2026-04-23T09:41:38.158Z</time></trkpt><trkpt lat="46.1152156" lon="9.3331449"><ele>247.0</ele><time>2026-04-23T09:41:40.159Z</time></trkpt><trkpt lat="46.1151599" lon="9.3330479"><ele>247.0</ele><time>2026-04-23T09:41:42.159Z</time></trkpt><trkpt lat="46.1151121" lon="9.3329555"><ele>247.0</ele><time>2026-04-23T09:41:44.158Z</time></trkpt><trkpt lat="46.1150655" lon="9.332866"><ele>246.99999999999997</ele><time>2026-04-23T09:41:46.158Z</time></trkpt><trkpt lat="46.1150246" lon="9.3327655"><ele>247.0</ele><time>2026-04-23T09:41:48.159Z</time></trkpt><trkpt lat="46.1149915" lon="9.332649"><ele>247.83333333333331</ele><time>2026-04-23T09:41:50.159Z</time></trkpt><trkpt lat="46.1149621" lon="9.3325358"><ele>248.66666666666666</ele><time>2026-04-23T09:41:52.158Z</time></trkpt><trkpt lat="46.1149331" lon="9.3324222"><ele>249.5</ele><time>2026-04-23T09:41:54.159Z</time></trkpt><trkpt lat="46.1149011" lon="9.332312"><ele>250.33333333333331</ele><time>2026-04-23T09:41:56.159Z</time></trkpt><trkpt lat="46.1148642" lon="9.3322069"><ele>251.16666666666666</ele><time>2026-04-23T09:41:58.159Z</time></trkpt><trkpt lat="46.1148243" lon="9.3321079"><ele>252.0</ele><time>2026-04-23T09:42:00.159Z</time></trkpt><trkpt lat="46.1147711" lon="9.3320063"><ele>252.0</ele><time>2026-04-23T09:42:02.158Z</time></trkpt><trkpt lat="46.1147178" lon="9.3319101"><ele>252.0</ele><time>2026-04-23T09:42:04.16Z</time></trkpt><trkpt lat="46.1146922" lon="9.3317954"><ele>252.0</ele><time>2026-04-23T09:42:06.16Z</time></trkpt><trkpt lat="46.1146541" lon="9.331668"><ele>252.0</ele><time>2026-04-23T09:42:08.159Z</time></trkpt><trkpt lat="46.1146095" lon="9.3315548"><ele>252.0</ele><time>2026-04-23T09:42:10.159Z</time></trkpt><trkpt lat="46.1145641" lon="9.3314327"><ele>250.83333333333334</ele><time>2026-04-23T09:42:12.159Z</time></trkpt><trkpt lat="46.1145321" lon="9.3313257"><ele>249.66666666666669</ele><time>2026-04-23T09:42:14.16Z</time></trkpt><trkpt lat="46.1145027" lon="9.3312297"><ele>248.5</ele><time>2026-04-23T09:42:16.159Z</time></trkpt><trkpt lat="46.114469" lon="9.3311188"><ele>247.33333333333334</ele><time>2026-04-23T09:42:18.16Z</time></trkpt><trkpt lat="46.1144415" lon="9.3310006"><ele>246.16666666666669</ele><time>2026-04-23T09:42:20.16Z</time></trkpt><trkpt lat="46.1144198" lon="9.3308632"><ele>245.0</ele><time>2026-04-23T09:42:22.158Z</time></trkpt><trkpt lat="46.1143962" lon="9.3307149"><ele>245.00000000000003</ele><time>2026-04-23T09:42:24.159Z</time></trkpt><trkpt lat="46.1143972" lon="9.3306097"><ele>245.0</ele><time>2026-04-23T09:42:26.159Z</time></trkpt><trkpt lat="46.1143917" lon="9.3304628"><ele>245.0</ele><time>2026-04-23T09:42:28.158Z</time></trkpt><trkpt lat="46.1143946" lon="9.3303369"><ele>245.0</ele><time>2026-04-23T09:42:30.158Z</time></trkpt><trkpt lat="46.114385" lon="9.3302166"><ele>245.00000000000003</ele><time>2026-04-23T09:42:32.159Z</time></trkpt><trkpt lat="46.114383" lon="9.3300972"><ele>245.0</ele><time>2026-04-23T09:42:34.158Z</time></trkpt><trkpt lat="46.1143782" lon="9.3299672"><ele>243.66666666666669</ele><time>2026-04-23T09:42:36.159Z</time></trkpt><trkpt lat="46.1143775" lon="9.3298346"><ele>242.33333333333334</ele><time>2026-04-23T09:42:38.159Z</time></trkpt><trkpt lat="46.1143764" lon="9.3297048"><ele>241.0</ele><time>2026-04-23T09:42:40.159Z</time></trkpt><trkpt lat="46.1143733" lon="9.3295765"><ele>239.66666666666669</ele><time>2026-04-23T09:42:42.158Z</time></trkpt><trkpt lat="46.1143638" lon="9.3294528"><ele>238.33333333333334</ele><time>2026-04-23T09:42:44.159Z</time></trkpt><trkpt lat="46.1143562" lon="9.3293298"><ele>237.0</ele><time>2026-04-23T09:42:46.16Z</time></trkpt><trkpt lat="46.1143511" lon="9.3291247"><ele>236.5</ele><time>2026-04-23T09:42:49.159Z</time></trkpt><trkpt lat="46.1143412" lon="9.3289892"><ele>236.0</ele><time>2026-04-23T09:42:51.159Z</time></trkpt><trkpt lat="46.1143231" lon="9.3288704"><ele>235.5</ele><time>2026-04-23T09:42:53.159Z</time></trkpt><trkpt lat="46.114309" lon="9.3287487"><ele>235.0</ele><time>2026-04-23T09:42:55.159Z</time></trkpt><trkpt lat="46.1142929" lon="9.3286294"><ele>234.5</ele><time>2026-04-23T09:42:57.159Z</time></trkpt><trkpt lat="46.1142645" lon="9.3285163"><ele>234.0</ele><time>2026-04-23T09:42:59.158Z</time></trkpt><trkpt lat="46.1142025" lon="9.3284153"><ele>232.6</ele><time>2026-04-23T09:43:01.159Z</time></trkpt><trkpt lat="46.1141391" lon="9.3283106"><ele>231.2</ele><time>2026-04-23T09:43:03.159Z</time></trkpt><trkpt lat="46.1140697" lon="9.3282054"><ele>229.79999999999998</ele><time>2026-04-23T09:43:05.16Z</time></trkpt><trkpt lat="46.1140339" lon="9.3281288"><ele>228.39999999999998</ele><time>2026-04-23T09:43:06.159Z</time></trkpt><trkpt lat="46.1139977" lon="9.328009"><ele>227.0</ele><time>2026-04-23T09:43:08.159Z</time></trkpt><trkpt lat="46.1139932" lon="9.3278545"><ele>238.39999999999998</ele><time>2026-04-23T09:43:10.158Z</time></trkpt><trkpt lat="46.1139725" lon="9.3277185"><ele>249.79999999999998</ele><time>2026-04-23T09:43:12.159Z</time></trkpt><trkpt lat="46.1139681" lon="9.3275713"><ele>261.2</ele><time>2026-04-23T09:43:14.159Z</time></trkpt><trkpt lat="46.1139578" lon="9.3274419"><ele>272.59999999999997</ele><time>2026-04-23T09:43:16.159Z</time></trkpt><trkpt lat="46.1139673" lon="9.3272846"><ele>284.0</ele><time>2026-04-23T09:43:18.158Z</time></trkpt><trkpt lat="46.1139585" lon="9.3271384"><ele>284.4</ele><time>2026-04-23T09:43:20.158Z</time></trkpt><trkpt lat="46.1139601" lon="9.3269884"><ele>284.79999999999995</ele><time>2026-04-23T09:43:22.159Z</time></trkpt><trkpt lat="46.1139583" lon="9.3268631"><ele>285.20000000000005</ele><time>2026-04-23T09:43:24.16Z</time></trkpt><trkpt lat="46.1139689" lon="9.3267169"><ele>285.6</ele><time>2026-04-23T09:43:26.159Z</time></trkpt><trkpt lat="46.113992" lon="9.326568"><ele>286.0</ele><time>2026-04-23T09:43:28.16Z</time></trkpt><trkpt lat="46.1140231" lon="9.3264266"><ele>289.0</ele><time>2026-04-23T09:43:30.159Z</time></trkpt><trkpt lat="46.114048" lon="9.3263026"><ele>292.0</ele><time>2026-04-23T09:43:32.159Z</time></trkpt><trkpt lat="46.1140868" lon="9.3261461"><ele>295.0</ele><time>2026-04-23T09:43:34.158Z</time></trkpt><trkpt lat="46.114125" lon="9.326006"><ele>298.0</ele><time>2026-04-23T09:43:36.158Z</time></trkpt><trkpt lat="46.1141479" lon="9.3259197"><ele>301.0</ele><time>2026-04-23T09:43:37.158Z</time></trkpt><trkpt lat="46.1141825" lon="9.3257796"><ele>291.6</ele><time>2026-04-23T09:43:39.159Z</time></trkpt><trkpt lat="46.1142219" lon="9.3256605"><ele>282.20000000000005</ele><time>2026-04-23T09:43:41.159Z</time></trkpt><trkpt lat="46.1142422" lon="9.3255216"><ele>272.79999999999995</ele><time>2026-04-23T09:43:43.158Z</time></trkpt><trkpt lat="46.1142912" lon="9.3253829"><ele>263.4</ele><time>2026-04-23T09:43:45.16Z</time></trkpt><trkpt lat="46.1143533" lon="9.3252494"><ele>254.0</ele><time>2026-04-23T09:43:47.159Z</time></trkpt><trkpt lat="46.1144186" lon="9.3251503"><ele>254.00000000000003</ele><time>2026-04-23T09:43:49.159Z</time></trkpt><trkpt lat="46.1144751" lon="9.3250639"><ele>254.0</ele><time>2026-04-23T09:43:52.159Z</time></trkpt><trkpt lat="46.1145179" lon="9.3249966"><ele>254.0</ele><time>2026-04-23T09:43:54.159Z</time></trkpt><trkpt lat="46.1145716" lon="9.3248903"><ele>254.0</ele><time>2026-04-23T09:43:57.16Z</time></trkpt><trkpt lat="46.1146145" lon="9.3247755"><ele>254.00000000000003</ele><time>2026-04-23T09:44:00.158Z</time></trkpt><trkpt lat="46.1146426" lon="9.3246695"><ele>254.0</ele><time>2026-04-23T09:44:03.158Z</time></trkpt><trkpt lat="46.1146722" lon="9.3245513"><ele>256.14285714285717</ele><time>2026-04-23T09:44:06.16Z</time></trkpt><trkpt lat="46.1147059" lon="9.3244383"><ele>258.2857142857143</ele><time>2026-04-23T09:44:09.16Z</time></trkpt><trkpt lat="46.1147219" lon="9.324331"><ele>260.42857142857144</ele><time>2026-04-23T09:44:12.16Z</time></trkpt><trkpt lat="46.1147267" lon="9.3242217"><ele>262.57142857142856</ele><time>2026-04-23T09:44:15.16Z</time></trkpt><trkpt lat="46.1147238" lon="9.3241114"><ele>264.7142857142857</ele><time>2026-04-23T09:44:18.159Z</time></trkpt><trkpt lat="46.1147115" lon="9.3240192"><ele>266.8571428571429</ele><time>2026-04-23T09:44:20.159Z</time></trkpt><trkpt lat="46.1147063" lon="9.3239258"><ele>269.0</ele><time>2026-04-23T09:44:23.16Z</time></trkpt><trkpt lat="46.1147058" lon="9.3238287"><ele>269.5</ele><time>2026-04-23T09:44:26.158Z</time></trkpt><trkpt lat="46.1146844" lon="9.3237176"><ele>270.0</ele><time>2026-04-23T09:44:29.159Z</time></trkpt><trkpt lat="46.1146573" lon="9.3236044"><ele>270.5</ele><time>2026-04-23T09:44:32.159Z</time></trkpt><trkpt lat="46.1146251" lon="9.3234835"><ele>271.0</ele><time>2026-04-23T09:44:35.159Z</time></trkpt><trkpt lat="46.1145951" lon="9.3233722"><ele>271.5</ele><time>2026-04-23T09:44:38.16Z</time></trkpt><trkpt lat="46.1145655" lon="9.3232555"><ele>272.0</ele><time>2026-04-23T09:44:41.16Z</time></trkpt><trkpt lat="46.1145369" lon="9.3231327"><ele>271.6666666666667</ele><time>2026-04-23T09:44:44.159Z</time></trkpt><trkpt lat="46.1145336" lon="9.323005"><ele>271.33333333333337</ele><time>2026-04-23T09:44:47.159Z</time></trkpt><trkpt lat="46.114531" lon="9.3229078"><ele>271.0</ele><time>2026-04-23T09:44:49.159Z</time></trkpt><trkpt lat="46.1145341" lon="9.3227944"><ele>270.6666666666667</ele><time>2026-04-23T09:44:52.159Z</time></trkpt><trkpt lat="46.1145217" lon="9.3226821"><ele>270.3333333333333</ele><time>2026-04-23T09:44:55.16Z</time></trkpt><trkpt lat="46.1145075" lon="9.3225635"><ele>270.0</ele><time>2026-04-23T09:44:58.16Z</time></trkpt><trkpt lat="46.1144965" lon="9.3224466"><ele>270.0</ele><time>2026-04-23T09:45:01.159Z</time></trkpt><trkpt lat="46.1144885" lon="9.3223142"><ele>270.0</ele><time>2026-04-23T09:45:04.16Z</time></trkpt><trkpt lat="46.1144735" lon="9.3222247"><ele>270.0</ele><time>2026-04-23T09:45:06.16Z</time></trkpt><trkpt lat="46.1144616" lon="9.3221062"><ele>270.0</ele><time>2026-04-23T09:45:09.159Z</time></trkpt><trkpt lat="46.1144405" lon="9.3220093"><ele>270.0</ele><time>2026-04-23T09:45:12.159Z</time></trkpt><trkpt lat="46.1144421" lon="9.3218912"><ele>270.0</ele><time>2026-04-23T09:45:15.159Z</time></trkpt><trkpt lat="46.114449" lon="9.3217806"><ele>269.8333333333333</ele><time>2026-04-23T09:45:18.158Z</time></trkpt><trkpt lat="46.1144669" lon="9.321656"><ele>269.6666666666667</ele><time>2026-04-23T09:45:21.16Z</time></trkpt><trkpt lat="46.1144691" lon="9.3215333"><ele>269.5</ele><time>2026-04-23T09:45:24.16Z</time></trkpt><trkpt lat="46.1144599" lon="9.3214112"><ele>269.33333333333337</ele><time>2026-04-23T09:45:27.158Z</time></trkpt><trkpt lat="46.1144568" lon="9.32128"><ele>269.1666666666667</ele><time>2026-04-23T09:45:30.16Z</time></trkpt><trkpt lat="46.1144619" lon="9.3211692"><ele>269.0</ele><time>2026-04-23T09:45:33.16Z</time></trkpt><trkpt lat="46.114467" lon="9.3210568"><ele>268.6666666666667</ele><time>2026-04-23T09:45:36.159Z</time></trkpt><trkpt lat="46.1144707" lon="9.3209498"><ele>268.33333333333337</ele><time>2026-04-23T09:45:39.158Z</time></trkpt><trkpt lat="46.1144733" lon="9.3208289"><ele>268.0</ele><time>2026-04-23T09:45:42.16Z</time></trkpt><trkpt lat="46.1144805" lon="9.3207101"><ele>267.6666666666667</ele><time>2026-04-23T09:45:45.159Z</time></trkpt><trkpt lat="46.1144857" lon="9.3205971"><ele>267.3333333333333</ele><time>2026-04-23T09:45:48.16Z</time></trkpt><trkpt lat="46.1144865" lon="9.3204634"><ele>267.0</ele><time>2026-04-23T09:45:51.159Z</time></trkpt><trkpt lat="46.1144979" lon="9.3203705"><ele>266.8333333333333</ele><time>2026-04-23T09:45:53.159Z</time></trkpt><trkpt lat="46.1145079" lon="9.3202586"><ele>266.6666666666667</ele><time>2026-04-23T09:45:56.158Z</time></trkpt><trkpt lat="46.1145065" lon="9.3201402"><ele>266.5</ele><time>2026-04-23T09:45:59.159Z</time></trkpt><trkpt lat="46.1145106" lon="9.3200246"><ele>266.33333333333337</ele><time>2026-04-23T09:46:02.16Z</time></trkpt><trkpt lat="46.1145201" lon="9.3198952"><ele>266.1666666666667</ele><time>2026-04-23T09:46:05.159Z</time></trkpt><trkpt lat="46.1145291" lon="9.3197757"><ele>266.0</ele><time>2026-04-23T09:46:08.159Z</time></trkpt><trkpt lat="46.114534" lon="9.3196666"><ele>266.0</ele><time>2026-04-23T09:46:11.159Z</time></trkpt><trkpt lat="46.1145416" lon="9.319545"><ele>266.0</ele><time>2026-04-23T09:46:14.16Z</time></trkpt><trkpt lat="46.1145481" lon="9.3194309"><ele>266.0</ele><time>2026-04-23T09:46:17.158Z</time></trkpt><trkpt lat="46.1145485" lon="9.3192964"><ele>266.0</ele><time>2026-04-23T09:46:20.16Z</time></trkpt><trkpt lat="46.1145508" lon="9.3191677"><ele>266.0</ele><time>2026-04-23T09:46:23.159Z</time></trkpt><trkpt lat="46.1145596" lon="9.3190459"><ele>266.0</ele><time>2026-04-23T09:46:26.159Z</time></trkpt><trkpt lat="46.1145661" lon="9.3189346"><ele>264.83333333333337</ele><time>2026-04-23T09:46:29.16Z</time></trkpt><trkpt lat="46.1145637" lon="9.318818"><ele>263.6666666666667</ele><time>2026-04-23T09:46:32.159Z</time></trkpt><trkpt lat="46.114559" lon="9.3187001"><ele>262.5</ele><time>2026-04-23T09:46:35.159Z</time></trkpt><trkpt lat="46.1145629" lon="9.3185821"><ele>261.3333333333333</ele><time>2026-04-23T09:46:38.159Z</time></trkpt><trkpt lat="46.1145552" lon="9.3184529"><ele>260.16666666666663</ele><time>2026-04-23T09:46:41.16Z</time></trkpt><trkpt lat="46.1145367" lon="9.3183196"><ele>259.0</ele><time>2026-04-23T09:46:44.159Z</time></trkpt><trkpt lat="46.1145205" lon="9.3182245"><ele>259.0</ele><time>2026-04-23T09:46:46.16Z</time></trkpt><trkpt lat="46.1144944" lon="9.3181291"><ele>259.0</ele><time>2026-04-23T09:46:48.16Z</time></trkpt><trkpt lat="46.1144615" lon="9.3180261"><ele>259.0</ele><time>2026-04-23T09:46:50.159Z</time></trkpt><trkpt lat="46.1144259" lon="9.3179283"><ele>259.0</ele><time>2026-04-23T09:46:52.16Z</time></trkpt><trkpt lat="46.1144026" lon="9.3177892"><ele>259.0</ele><time>2026-04-23T09:46:54.159Z</time></trkpt><trkpt lat="46.1143537" lon="9.3176521"><ele>259.0</ele><time>2026-04-23T09:46:56.159Z</time></trkpt><trkpt lat="46.1142865" lon="9.317507"><ele>259.2857142857143</ele><time>2026-04-23T09:46:58.158Z</time></trkpt><trkpt lat="46.1142437" lon="9.3174313"><ele>259.57142857142856</ele><time>2026-04-23T09:46:59.159Z</time></trkpt><trkpt lat="46.1141996" lon="9.3173595"><ele>259.8571428571429</ele><time>2026-04-23T09:47:00.16Z</time></trkpt><trkpt lat="46.1141395" lon="9.3172913"><ele>260.1428571428571</ele><time>2026-04-23T09:47:01.159Z</time></trkpt><trkpt lat="46.114085" lon="9.3172246"><ele>260.42857142857144</ele><time>2026-04-23T09:47:02.16Z</time></trkpt><trkpt lat="46.1140251" lon="9.3171566"><ele>260.7142857142857</ele><time>2026-04-23T09:47:03.159Z</time></trkpt><trkpt lat="46.1139561" lon="9.3170796"><ele>261.0</ele><time>2026-04-23T09:47:04.16Z</time></trkpt><trkpt lat="46.1138885" lon="9.3170078"><ele>259.8333333333333</ele><time>2026-04-23T09:47:05.159Z</time></trkpt><trkpt lat="46.1138246" lon="9.3169427"><ele>258.6666666666667</ele><time>2026-04-23T09:47:06.159Z</time></trkpt><trkpt lat="46.113756" lon="9.3168633"><ele>257.5</ele><time>2026-04-23T09:47:07.159Z</time></trkpt><trkpt lat="46.1136869" lon="9.3167952"><ele>256.33333333333337</ele><time>2026-04-23T09:47:08.16Z</time></trkpt><trkpt lat="46.1136267" lon="9.3167426"><ele>255.16666666666669</ele><time>2026-04-23T09:47:09.16Z</time></trkpt><trkpt lat="46.1135644" lon="9.3166853"><ele>254.0</ele><time>2026-04-23T09:47:10.16Z</time></trkpt><trkpt lat="46.1134899" lon="9.316632"><ele>254.0</ele><time>2026-04-23T09:47:11.16Z</time></trkpt><trkpt lat="46.1134124" lon="9.316617"><ele>253.99999999999997</ele><time>2026-04-23T09:47:12.158Z</time></trkpt><trkpt lat="46.1133321" lon="9.3165925"><ele>253.99999999999997</ele><time>2026-04-23T09:47:13.159Z</time></trkpt><trkpt lat="46.1132268" lon="9.3166082"><ele>254.0</ele><time>2026-04-23T09:47:14.161Z</time></trkpt><trkpt lat="46.1131266" lon="9.3166314"><ele>254.0</ele><time>2026-04-23T09:47:15.16Z</time></trkpt><trkpt lat="46.1130192" lon="9.3166667"><ele>253.33333333333334</ele><time>2026-04-23T09:47:16.158Z</time></trkpt><trkpt lat="46.1129242" lon="9.3167023"><ele>252.66666666666669</ele><time>2026-04-23T09:47:17.159Z</time></trkpt><trkpt lat="46.1128265" lon="9.3167447"><ele>252.0</ele><time>2026-04-23T09:47:18.159Z</time></trkpt><trkpt lat="46.1127463" lon="9.3167837"><ele>251.33333333333331</ele><time>2026-04-23T09:47:19.16Z</time></trkpt><trkpt lat="46.1126821" lon="9.3168012"><ele>250.66666666666666</ele><time>2026-04-23T09:47:20.159Z</time></trkpt><trkpt lat="46.1125942" lon="9.3168042"><ele>250.0</ele><time>2026-04-23T09:47:21.158Z</time></trkpt><trkpt lat="46.11251" lon="9.3168043"><ele>250.0</ele><time>2026-04-23T09:47:22.159Z</time></trkpt><trkpt lat="46.1124217" lon="9.3168084"><ele>250.0</ele><time>2026-04-23T09:47:23.159Z</time></trkpt><trkpt lat="46.1123111" lon="9.3167756"><ele>250.0</ele><time>2026-04-23T09:47:24.161Z</time></trkpt><trkpt lat="46.1122191" lon="9.3167665"><ele>250.0</ele><time>2026-04-23T09:47:25.159Z</time></trkpt><trkpt lat="46.1121248" lon="9.3167627"><ele>250.0</ele><time>2026-04-23T09:47:26.16Z</time></trkpt><trkpt lat="46.112056" lon="9.3167801"><ele>247.83333333333331</ele><time>2026-04-23T09:47:27.159Z</time></trkpt><trkpt lat="46.1119666" lon="9.3168008"><ele>245.66666666666666</ele><time>2026-04-23T09:47:28.159Z</time></trkpt><trkpt lat="46.1118818" lon="9.3168339"><ele>243.5</ele><time>2026-04-23T09:47:29.16Z</time></trkpt><trkpt lat="46.1118047" lon="9.3168821"><ele>241.33333333333331</ele><time>2026-04-23T09:47:30.159Z</time></trkpt><trkpt lat="46.1117301" lon="9.3169365"><ele>239.16666666666666</ele><time>2026-04-23T09:47:31.159Z</time></trkpt><trkpt lat="46.111664" lon="9.3169889"><ele>237.0</ele><time>2026-04-23T09:47:32.161Z</time></trkpt><trkpt lat="46.1115855" lon="9.3170498"><ele>236.33333333333334</ele><time>2026-04-23T09:47:33.16Z</time></trkpt><trkpt lat="46.1115147" lon="9.317133"><ele>235.66666666666669</ele><time>2026-04-23T09:47:34.16Z</time></trkpt><trkpt lat="46.1114571" lon="9.3172265"><ele>235.0</ele><time>2026-04-23T09:47:35.16Z</time></trkpt><trkpt lat="46.1113897" lon="9.3173109"><ele>234.33333333333334</ele><time>2026-04-23T09:47:36.16Z</time></trkpt><trkpt lat="46.1113206" lon="9.3173961"><ele>233.66666666666669</ele><time>2026-04-23T09:47:37.159Z</time></trkpt><trkpt lat="46.1112633" lon="9.3174759"><ele>233.0</ele><time>2026-04-23T09:47:38.16Z</time></trkpt><trkpt lat="46.1111972" lon="9.3175629"><ele>233.00000000000003</ele><time>2026-04-23T09:47:39.159Z</time></trkpt><trkpt lat="46.1111318" lon="9.3176419"><ele>233.0</ele><time>2026-04-23T09:47:40.159Z</time></trkpt><trkpt lat="46.1110651" lon="9.3177286"><ele>233.0</ele><time>2026-04-23T09:47:41.159Z</time></trkpt><trkpt lat="46.1110011" lon="9.3178134"><ele>233.0</ele><time>2026-04-23T09:47:42.159Z</time></trkpt><trkpt lat="46.1109378" lon="9.3179009"><ele>233.00000000000003</ele><time>2026-04-23T09:47:43.159Z</time></trkpt><trkpt lat="46.1108794" lon="9.3179828"><ele>233.0</ele><time>2026-04-23T09:47:44.158Z</time></trkpt><trkpt lat="46.1108058" lon="9.3180797"><ele>231.33333333333334</ele><time>2026-04-23T09:47:45.159Z</time></trkpt><trkpt lat="46.1107296" lon="9.3181456"><ele>229.66666666666669</ele><time>2026-04-23T09:47:46.159Z</time></trkpt><trkpt lat="46.1106558" lon="9.31821"><ele>228.0</ele><time>2026-04-23T09:47:47.158Z</time></trkpt><trkpt lat="46.1105653" lon="9.3182437"><ele>226.33333333333331</ele><time>2026-04-23T09:47:48.161Z</time></trkpt><trkpt lat="46.1104807" lon="9.3182591"><ele>224.66666666666666</ele><time>2026-04-23T09:47:49.16Z</time></trkpt><trkpt lat="46.1103997" lon="9.3182734"><ele>223.0</ele><time>2026-04-23T09:47:50.159Z</time></trkpt><trkpt lat="46.1103035" lon="9.3182872"><ele>222.99999999999997</ele><time>2026-04-23T09:47:51.16Z</time></trkpt><trkpt lat="46.1102208" lon="9.3183084"><ele>223.0</ele><time>2026-04-23T09:47:52.159Z</time></trkpt><trkpt lat="46.1101276" lon="9.3183467"><ele>223.0</ele><time>2026-04-23T09:47:53.159Z</time></trkpt><trkpt lat="46.1100446" lon="9.3183799"><ele>223.0</ele><time>2026-04-23T09:47:54.159Z</time></trkpt><trkpt lat="46.109974" lon="9.3184512"><ele>222.99999999999997</ele><time>2026-04-23T09:47:55.16Z</time></trkpt><trkpt lat="46.109903" lon="9.3185233"><ele>223.0</ele><time>2026-04-23T09:47:56.159Z</time></trkpt><trkpt lat="46.1098295" lon="9.3186061"><ele>223.8</ele><time>2026-04-23T09:47:57.159Z</time></trkpt><trkpt lat="46.1097563" lon="9.3186984"><ele>224.60000000000002</ele><time>2026-04-23T09:47:58.159Z</time></trkpt><trkpt lat="46.1096866" lon="9.318786"><ele>225.39999999999998</ele><time>2026-04-23T09:47:59.159Z</time></trkpt><trkpt lat="46.1096233" lon="9.318874"><ele>226.2</ele><time>2026-04-23T09:48:00.161Z</time></trkpt><trkpt lat="46.1095547" lon="9.3189566"><ele>227.0</ele><time>2026-04-23T09:48:01.16Z</time></trkpt><trkpt lat="46.1094825" lon="9.3190379"><ele>227.0</ele><time>2026-04-23T09:48:02.159Z</time></trkpt><trkpt lat="46.1094162" lon="9.3191268"><ele>227.0</ele><time>2026-04-23T09:48:03.159Z</time></trkpt><trkpt lat="46.1093513" lon="9.3192146"><ele>227.0</ele><time>2026-04-23T09:48:04.159Z</time></trkpt><trkpt lat="46.1092854" lon="9.3193053"><ele>227.0</ele><time>2026-04-23T09:48:05.161Z</time></trkpt><trkpt lat="46.1092184" lon="9.3193901"><ele>227.0</ele><time>2026-04-23T09:48:06.16Z</time></trkpt><trkpt lat="46.1091444" lon="9.3194698"><ele>224.2</ele><time>2026-04-23T09:48:07.159Z</time></trkpt><trkpt lat="46.1090674" lon="9.3195299"><ele>221.39999999999998</ele><time>2026-04-23T09:48:08.158Z</time></trkpt><trkpt lat="46.1089837" lon="9.3195809"><ele>218.60000000000002</ele><time>2026-04-23T09:48:09.159Z</time></trkpt><trkpt lat="46.1088964" lon="9.3195802"><ele>215.8</ele><time>2026-04-23T09:48:10.16Z</time></trkpt><trkpt lat="46.1088041" lon="9.3196012"><ele>213.0</ele><time>2026-04-23T09:48:11.16Z</time></trkpt><trkpt lat="46.1087077" lon="9.3196018"><ele>213.0</ele><time>2026-04-23T09:48:12.159Z</time></trkpt><trkpt lat="46.1086115" lon="9.319615"><ele>213.0</ele><time>2026-04-23T09:48:13.159Z</time></trkpt><trkpt lat="46.1085181" lon="9.3196289"><ele>213.0</ele><time>2026-04-23T09:48:14.159Z</time></trkpt><trkpt lat="46.1084267" lon="9.3196507"><ele>213.0</ele><time>2026-04-23T09:48:15.159Z</time></trkpt><trkpt lat="46.1083354" lon="9.3196746"><ele>213.0</ele><time>2026-04-23T09:48:16.16Z</time></trkpt><trkpt lat="46.1082476" lon="9.3197055"><ele>210.4</ele><time>2026-04-23T09:48:17.159Z</time></trkpt><trkpt lat="46.108152" lon="9.3197046"><ele>207.8</ele><time>2026-04-23T09:48:18.159Z</time></trkpt><trkpt lat="46.1080606" lon="9.3197364"><ele>205.2</ele><time>2026-04-23T09:48:19.16Z</time></trkpt><trkpt lat="46.10797" lon="9.31977"><ele>202.6</ele><time>2026-04-23T09:48:20.159Z</time></trkpt><trkpt lat="46.1078806" lon="9.3198068"><ele>200.0</ele><time>2026-04-23T09:48:21.161Z</time></trkpt><trkpt lat="46.107802" lon="9.3198393"><ele>202.33333333333334</ele><time>2026-04-23T09:48:22.16Z</time></trkpt><trkpt lat="46.1077135" lon="9.3198669"><ele>204.66666666666669</ele><time>2026-04-23T09:48:23.16Z</time></trkpt><trkpt lat="46.1076251" lon="9.3199118"><ele>207.0</ele><time>2026-04-23T09:48:24.161Z</time></trkpt><trkpt lat="46.1075317" lon="9.3199522"><ele>209.33333333333331</ele><time>2026-04-23T09:48:25.159Z</time></trkpt><trkpt lat="46.1074618" lon="9.319973"><ele>211.66666666666666</ele><time>2026-04-23T09:48:26.158Z</time></trkpt><trkpt lat="46.1073777" lon="9.3199964"><ele>214.0</ele><time>2026-04-23T09:48:27.16Z</time></trkpt><trkpt lat="46.1072945" lon="9.3200096"><ele>213.99999999999997</ele><time>2026-04-23T09:48:28.161Z</time></trkpt><trkpt lat="46.1072223" lon="9.3200375"><ele>214.0</ele><time>2026-04-23T09:48:29.16Z</time></trkpt><trkpt lat="46.1071548" lon="9.3200779"><ele>214.0</ele><time>2026-04-23T09:48:30.159Z</time></trkpt><trkpt lat="46.107078" lon="9.3201171"><ele>214.0</ele><time>2026-04-23T09:48:31.16Z</time></trkpt><trkpt lat="46.10699" lon="9.3201506"><ele>213.99999999999997</ele><time>2026-04-23T09:48:32.16Z</time></trkpt><trkpt lat="46.1069077" lon="9.3202177"><ele>214.0</ele><time>2026-04-23T09:48:33.16Z</time></trkpt><trkpt lat="46.1068358" lon="9.3202813"><ele>213.99999999999997</ele><time>2026-04-23T09:48:34.16Z</time></trkpt><trkpt lat="46.1067605" lon="9.3203461"><ele>214.0</ele><time>2026-04-23T09:48:35.16Z</time></trkpt><trkpt lat="46.1066887" lon="9.3204123"><ele>214.0</ele><time>2026-04-23T09:48:36.159Z</time></trkpt><trkpt lat="46.106617" lon="9.320476"><ele>214.0</ele><time>2026-04-23T09:48:37.159Z</time></trkpt><trkpt lat="46.1065333" lon="9.3205131"><ele>213.99999999999997</ele><time>2026-04-23T09:48:38.16Z</time></trkpt><trkpt lat="46.106453" lon="9.3205706"><ele>214.0</ele><time>2026-04-23T09:48:39.16Z</time></trkpt><trkpt lat="46.1063675" lon="9.3206213"><ele>214.16666666666666</ele><time>2026-04-23T09:48:40.16Z</time></trkpt><trkpt lat="46.1062814" lon="9.3206602"><ele>214.33333333333331</ele><time>2026-04-23T09:48:41.16Z</time></trkpt><trkpt lat="46.106199" lon="9.3206926"><ele>214.5</ele><time>2026-04-23T09:48:42.159Z</time></trkpt><trkpt lat="46.1061152" lon="9.3207254"><ele>214.66666666666669</ele><time>2026-04-23T09:48:43.159Z</time></trkpt><trkpt lat="46.1060339" lon="9.3207525"><ele>214.83333333333334</ele><time>2026-04-23T09:48:44.16Z</time></trkpt><trkpt lat="46.1059546" lon="9.3207916"><ele>215.0</ele><time>2026-04-23T09:48:45.159Z</time></trkpt><trkpt lat="46.1058718" lon="9.3208165"><ele>215.00000000000003</ele><time>2026-04-23T09:48:46.159Z</time></trkpt><trkpt lat="46.1057939" lon="9.3208539"><ele>215.0</ele><time>2026-04-23T09:48:47.159Z</time></trkpt><trkpt lat="46.1057131" lon="9.3208861"><ele>215.0</ele><time>2026-04-23T09:48:48.16Z</time></trkpt><trkpt lat="46.1056412" lon="9.3209231"><ele>215.0</ele><time>2026-04-23T09:48:49.159Z</time></trkpt><trkpt lat="46.105554" lon="9.3209561"><ele>215.00000000000003</ele><time>2026-04-23T09:48:50.159Z</time></trkpt><trkpt lat="46.1054694" lon="9.3209681"><ele>215.0</ele><time>2026-04-23T09:48:51.16Z</time></trkpt><trkpt lat="46.1053821" lon="9.321003"><ele>215.83333333333334</ele><time>2026-04-23T09:48:52.16Z</time></trkpt><trkpt lat="46.1053057" lon="9.3210366"><ele>216.66666666666669</ele><time>2026-04-23T09:48:53.159Z</time></trkpt><trkpt lat="46.1052277" lon="9.3210756"><ele>217.5</ele><time>2026-04-23T09:48:54.16Z</time></trkpt><trkpt lat="46.1051508" lon="9.321108"><ele>218.33333333333331</ele><time>2026-04-23T09:48:55.159Z</time></trkpt><trkpt lat="46.1050745" lon="9.3211322"><ele>219.16666666666666</ele><time>2026-04-23T09:48:56.16Z</time></trkpt><trkpt lat="46.1050051" lon="9.3211633"><ele>220.0</ele><time>2026-04-23T09:48:57.159Z</time></trkpt><trkpt lat="46.1049335" lon="9.3211598"><ele>220.16666666666666</ele><time>2026-04-23T09:48:58.159Z</time></trkpt><trkpt lat="46.1048563" lon="9.3211439"><ele>220.33333333333331</ele><time>2026-04-23T09:48:59.159Z</time></trkpt><trkpt lat="46.1047754" lon="9.3211259"><ele>220.5</ele><time>2026-04-23T09:49:00.159Z</time></trkpt><trkpt lat="46.1046862" lon="9.3210805"><ele>220.66666666666669</ele><time>2026-04-23T09:49:01.161Z</time></trkpt><trkpt lat="46.1046051" lon="9.321046"><ele>220.83333333333334</ele><time>2026-04-23T09:49:02.16Z</time></trkpt><trkpt lat="46.1045241" lon="9.3210029"><ele>221.0</ele><time>2026-04-23T09:49:03.16Z</time></trkpt><trkpt lat="46.1044418" lon="9.3209589"><ele>221.00000000000003</ele><time>2026-04-23T09:49:04.16Z</time></trkpt><trkpt lat="46.1043651" lon="9.3209262"><ele>221.0</ele><time>2026-04-23T09:49:05.16Z</time></trkpt><trkpt lat="46.1042858" lon="9.3208784"><ele>221.0</ele><time>2026-04-23T09:49:06.16Z</time></trkpt><trkpt lat="46.1042075" lon="9.3208263"><ele>221.0</ele><time>2026-04-23T09:49:07.16Z</time></trkpt><trkpt lat="46.1041327" lon="9.3207684"><ele>221.00000000000003</ele><time>2026-04-23T09:49:08.16Z</time></trkpt><trkpt lat="46.1040557" lon="9.3207062"><ele>221.0</ele><time>2026-04-23T09:49:09.16Z</time></trkpt><trkpt lat="46.1039825" lon="9.3206406"><ele>219.66666666666669</ele><time>2026-04-23T09:49:10.159Z</time></trkpt><trkpt lat="46.1039185" lon="9.3205929"><ele>218.33333333333334</ele><time>2026-04-23T09:49:11.161Z</time></trkpt><trkpt lat="46.1038481" lon="9.320527"><ele>217.0</ele><time>2026-04-23T09:49:12.161Z</time></trkpt><trkpt lat="46.1037761" lon="9.3204636"><ele>215.66666666666669</ele><time>2026-04-23T09:49:13.159Z</time></trkpt><trkpt lat="46.1037112" lon="9.3204046"><ele>214.33333333333334</ele><time>2026-04-23T09:49:14.16Z</time></trkpt><trkpt lat="46.103644" lon="9.3203565"><ele>213.0</ele><time>2026-04-23T09:49:15.159Z</time></trkpt><trkpt lat="46.1035798" lon="9.3202978"><ele>212.99999999999997</ele><time>2026-04-23T09:49:16.16Z</time></trkpt><trkpt lat="46.1035194" lon="9.3202481"><ele>213.0</ele><time>2026-04-23T09:49:17.16Z</time></trkpt><trkpt lat="46.1034618" lon="9.3201923"><ele>213.0</ele><time>2026-04-23T09:49:18.16Z</time></trkpt><trkpt lat="46.1034057" lon="9.3201508"><ele>213.0</ele><time>2026-04-23T09:49:19.16Z</time></trkpt><trkpt lat="46.1033443" lon="9.3201043"><ele>213.0</ele><time>2026-04-23T09:49:20.16Z</time></trkpt><trkpt lat="46.103285" lon="9.3200492"><ele>212.99999999999997</ele><time>2026-04-23T09:49:21.159Z</time></trkpt><trkpt lat="46.1032282" lon="9.3199871"><ele>213.0</ele><time>2026-04-23T09:49:22.159Z</time></trkpt><trkpt lat="46.103168" lon="9.3199399"><ele>213.85714285714283</ele><time>2026-04-23T09:49:23.16Z</time></trkpt><trkpt lat="46.1031132" lon="9.3198875"><ele>214.71428571428572</ele><time>2026-04-23T09:49:24.159Z</time></trkpt><trkpt lat="46.1030528" lon="9.3198213"><ele>215.57142857142856</ele><time>2026-04-23T09:49:25.161Z</time></trkpt><trkpt lat="46.1029882" lon="9.31976"><ele>216.42857142857142</ele><time>2026-04-23T09:49:26.16Z</time></trkpt><trkpt lat="46.1029258" lon="9.3197141"><ele>217.28571428571428</ele><time>2026-04-23T09:49:27.159Z</time></trkpt><trkpt lat="46.1028618" lon="9.3196571"><ele>218.14285714285714</ele><time>2026-04-23T09:49:28.159Z</time></trkpt><trkpt lat="46.1027948" lon="9.3195988"><ele>219.0</ele><time>2026-04-23T09:49:29.159Z</time></trkpt><trkpt lat="46.1027174" lon="9.3195291"><ele>219.0</ele><time>2026-04-23T09:49:30.159Z</time></trkpt><trkpt lat="46.1026489" lon="9.3194804"><ele>219.0</ele><time>2026-04-23T09:49:31.159Z</time></trkpt><trkpt lat="46.1025838" lon="9.3194279"><ele>219.0</ele><time>2026-04-23T09:49:32.159Z</time></trkpt><trkpt lat="46.1025167" lon="9.3193735"><ele>219.0</ele><time>2026-04-23T09:49:33.161Z</time></trkpt><trkpt lat="46.1024474" lon="9.3193158"><ele>219.0</ele><time>2026-04-23T09:49:34.161Z</time></trkpt><trkpt lat="46.1023839" lon="9.3192542"><ele>219.0</ele><time>2026-04-23T09:49:35.16Z</time></trkpt><trkpt lat="46.1023346" lon="9.3191898"><ele>219.0</ele><time>2026-04-23T09:49:36.161Z</time></trkpt><trkpt lat="46.1022846" lon="9.3191301"><ele>219.0</ele><time>2026-04-23T09:49:37.159Z</time></trkpt><trkpt lat="46.1022264" lon="9.3190569"><ele>219.0</ele><time>2026-04-23T09:49:38.16Z</time></trkpt><trkpt lat="46.1021752" lon="9.318995"><ele>219.0</ele><time>2026-04-23T09:49:39.159Z</time></trkpt><trkpt lat="46.1021399" lon="9.3189114"><ele>219.0</ele><time>2026-04-23T09:49:40.16Z</time></trkpt><trkpt lat="46.1020908" lon="9.3188434"><ele>219.0</ele><time>2026-04-23T09:49:41.159Z</time></trkpt><trkpt lat="46.102021" lon="9.3187254"><ele>219.0</ele><time>2026-04-23T09:49:43.159Z</time></trkpt><trkpt lat="46.101977" lon="9.3186572"><ele>218.99999999999997</ele><time>2026-04-23T09:49:44.161Z</time></trkpt><trkpt lat="46.1018913" lon="9.3185355"><ele>218.99999999999997</ele><time>2026-04-23T09:49:46.159Z</time></trkpt><trkpt lat="46.1017956" lon="9.3184157"><ele>219.0</ele><time>2026-04-23T09:49:48.161Z</time></trkpt><trkpt lat="46.1016952" lon="9.318321"><ele>219.0</ele><time>2026-04-23T09:49:50.16Z</time></trkpt><trkpt lat="46.1015919" lon="9.3182357"><ele>218.83333333333334</ele><time>2026-04-23T09:49:52.159Z</time></trkpt><trkpt lat="46.1015367" lon="9.3181889"><ele>218.66666666666669</ele><time>2026-04-23T09:49:53.159Z</time></trkpt><trkpt lat="46.1014125" lon="9.3181216"><ele>218.5</ele><time>2026-04-23T09:49:55.161Z</time></trkpt><trkpt lat="46.1013521" lon="9.3180815"><ele>218.33333333333334</ele><time>2026-04-23T09:49:56.159Z</time></trkpt><trkpt lat="46.1012936" lon="9.3180429"><ele>218.16666666666669</ele><time>2026-04-23T09:49:57.159Z</time></trkpt><trkpt lat="46.1011852" lon="9.3179656"><ele>218.0</ele><time>2026-04-23T09:49:59.16Z</time></trkpt><trkpt lat="46.1010796" lon="9.3178913"><ele>218.0</ele><time>2026-04-23T09:50:01.159Z</time></trkpt><trkpt lat="46.100973" lon="9.3178071"><ele>218.0</ele><time>2026-04-23T09:50:03.161Z</time></trkpt><trkpt lat="46.1008772" lon="9.3177413"><ele>218.0</ele><time>2026-04-23T09:50:05.16Z</time></trkpt><trkpt lat="46.1008179" lon="9.3176923"><ele>218.0</ele><time>2026-04-23T09:50:06.161Z</time></trkpt><trkpt lat="46.1007057" lon="9.317617"><ele>218.0</ele><time>2026-04-23T09:50:08.159Z</time></trkpt><trkpt lat="46.1006145" lon="9.3175435"><ele>219.60000000000002</ele><time>2026-04-23T09:50:10.16Z</time></trkpt><trkpt lat="46.1005085" lon="9.3174749"><ele>221.20000000000002</ele><time>2026-04-23T09:50:12.161Z</time></trkpt><trkpt lat="46.1004094" lon="9.3173986"><ele>222.8</ele><time>2026-04-23T09:50:14.159Z</time></trkpt><trkpt lat="46.1003019" lon="9.3173352"><ele>224.4</ele><time>2026-04-23T09:50:16.159Z</time></trkpt><trkpt lat="46.1002419" lon="9.3173076"><ele>226.0</ele><time>2026-04-23T09:50:17.16Z</time></trkpt><trkpt lat="46.1001193" lon="9.3172244"><ele>222.4</ele><time>2026-04-23T09:50:19.162Z</time></trkpt><trkpt lat="46.100055" lon="9.3171919"><ele>218.8</ele><time>2026-04-23T09:50:20.16Z</time></trkpt><trkpt lat="46.0999439" lon="9.317149"><ele>215.20000000000002</ele><time>2026-04-23T09:50:22.16Z</time></trkpt><trkpt lat="46.0998342" lon="9.3171245"><ele>211.60000000000002</ele><time>2026-04-23T09:50:24.16Z</time></trkpt><trkpt lat="46.0997207" lon="9.3170969"><ele>208.0</ele><time>2026-04-23T09:50:26.16Z</time></trkpt><trkpt lat="46.0996097" lon="9.3170858"><ele>208.16666666666666</ele><time>2026-04-23T09:50:28.16Z</time></trkpt><trkpt lat="46.0995438" lon="9.317081"><ele>208.33333333333331</ele><time>2026-04-23T09:50:29.16Z</time></trkpt><trkpt lat="46.0994773" lon="9.3170701"><ele>208.5</ele><time>2026-04-23T09:50:30.159Z</time></trkpt><trkpt lat="46.099411" lon="9.3170618"><ele>208.66666666666669</ele><time>2026-04-23T09:50:31.16Z</time></trkpt><trkpt lat="46.0992973" lon="9.3170642"><ele>208.83333333333334</ele><time>2026-04-23T09:50:33.159Z</time></trkpt><trkpt lat="46.0991743" lon="9.3170602"><ele>209.0</ele><time>2026-04-23T09:50:35.16Z</time></trkpt><trkpt lat="46.0990636" lon="9.3170625"><ele>209.0</ele><time>2026-04-23T09:50:37.159Z</time></trkpt><trkpt lat="46.0989502" lon="9.3170648"><ele>209.0</ele><time>2026-04-23T09:50:39.16Z</time></trkpt><trkpt lat="46.0988279" lon="9.3170693"><ele>209.0</ele><time>2026-04-23T09:50:41.159Z</time></trkpt><trkpt lat="46.0987171" lon="9.3170765"><ele>209.0</ele><time>2026-04-23T09:50:43.16Z</time></trkpt><trkpt lat="46.0986471" lon="9.3170752"><ele>209.0</ele><time>2026-04-23T09:50:44.16Z</time></trkpt><trkpt lat="46.0985261" lon="9.3170772"><ele>209.0</ele><time>2026-04-23T09:50:46.159Z</time></trkpt><trkpt lat="46.0984095" lon="9.3170659"><ele>209.0</ele><time>2026-04-23T09:50:48.16Z</time></trkpt><trkpt lat="46.0983065" lon="9.3170692"><ele>209.0</ele><time>2026-04-23T09:50:50.16Z</time></trkpt><trkpt lat="46.0982064" lon="9.317081"><ele>209.0</ele><time>2026-04-23T09:50:52.159Z</time></trkpt><trkpt lat="46.0981417" lon="9.3170788"><ele>209.0</ele><time>2026-04-23T09:50:53.16Z</time></trkpt><trkpt lat="46.0980197" lon="9.3170734"><ele>210.33333333333334</ele><time>2026-04-23T09:50:55.16Z</time></trkpt><trkpt lat="46.0979083" lon="9.3170448"><ele>211.66666666666669</ele><time>2026-04-23T09:50:57.16Z</time></trkpt><trkpt lat="46.097845" lon="9.3170236"><ele>213.0</ele><time>2026-04-23T09:50:58.16Z</time></trkpt><trkpt lat="46.0977948" lon="9.3169653"><ele>214.33333333333331</ele><time>2026-04-23T09:50:59.16Z</time></trkpt><trkpt lat="46.0976955" lon="9.3168769"><ele>215.66666666666666</ele><time>2026-04-23T09:51:01.159Z</time></trkpt><trkpt lat="46.0976352" lon="9.3168198"><ele>217.0</ele><time>2026-04-23T09:51:02.162Z</time></trkpt><trkpt lat="46.0975286" lon="9.3167466"><ele>217.0</ele><time>2026-04-23T09:51:04.16Z</time></trkpt><trkpt lat="46.0974233" lon="9.3166595"><ele>217.0</ele><time>2026-04-23T09:51:06.16Z</time></trkpt><trkpt lat="46.097364" lon="9.3166274"><ele>217.0</ele><time>2026-04-23T09:51:07.16Z</time></trkpt><trkpt lat="46.0972531" lon="9.3165815"><ele>217.0</ele><time>2026-04-23T09:51:09.16Z</time></trkpt><trkpt lat="46.0971885" lon="9.3165616"><ele>217.0</ele><time>2026-04-23T09:51:10.16Z</time></trkpt><trkpt lat="46.0970707" lon="9.3165273"><ele>218.0</ele><time>2026-04-23T09:51:12.16Z</time></trkpt><trkpt lat="46.0970059" lon="9.3165329"><ele>219.0</ele><time>2026-04-23T09:51:13.16Z</time></trkpt><trkpt lat="46.0968941" lon="9.3165533"><ele>220.0</ele><time>2026-04-23T09:51:15.16Z</time></trkpt><trkpt lat="46.0967862" lon="9.3165776"><ele>221.0</ele><time>2026-04-23T09:51:17.16Z</time></trkpt><trkpt lat="46.0966732" lon="9.3166151"><ele>222.0</ele><time>2026-04-23T09:51:19.16Z</time></trkpt><trkpt lat="46.0965597" lon="9.3166303"><ele>222.39999999999998</ele><time>2026-04-23T09:51:21.16Z</time></trkpt><trkpt lat="46.0964949" lon="9.3166351"><ele>222.79999999999998</ele><time>2026-04-23T09:51:22.16Z</time></trkpt><trkpt lat="46.0963844" lon="9.3166373"><ele>223.2</ele><time>2026-04-23T09:51:24.159Z</time></trkpt><trkpt lat="46.096271" lon="9.3166186"><ele>223.6</ele><time>2026-04-23T09:51:26.161Z</time></trkpt><trkpt lat="46.0961594" lon="9.3165809"><ele>224.0</ele><time>2026-04-23T09:51:28.16Z</time></trkpt><trkpt lat="46.0960403" lon="9.3165449"><ele>224.0</ele><time>2026-04-23T09:51:30.162Z</time></trkpt><trkpt lat="46.0959191" lon="9.3164945"><ele>224.0</ele><time>2026-04-23T09:51:32.161Z</time></trkpt><trkpt lat="46.0958139" lon="9.3164534"><ele>224.0</ele><time>2026-04-23T09:51:34.161Z</time></trkpt><trkpt lat="46.0957078" lon="9.3164148"><ele>224.0</ele><time>2026-04-23T09:51:36.161Z</time></trkpt><trkpt lat="46.095593" lon="9.3163818"><ele>222.79999999999998</ele><time>2026-04-23T09:51:38.16Z</time></trkpt><trkpt lat="46.095487" lon="9.3163493"><ele>221.59999999999997</ele><time>2026-04-23T09:51:40.161Z</time></trkpt><trkpt lat="46.0953826" lon="9.3163086"><ele>220.4</ele><time>2026-04-23T09:51:42.16Z</time></trkpt><trkpt lat="46.0952761" lon="9.3162576"><ele>219.2</ele><time>2026-04-23T09:51:44.16Z</time></trkpt><trkpt lat="46.0951859" lon="9.3161752"><ele>218.0</ele><time>2026-04-23T09:51:46.161Z</time></trkpt><trkpt lat="46.0951297" lon="9.316124"><ele>218.0</ele><time>2026-04-23T09:51:47.159Z</time></trkpt><trkpt lat="46.0950398" lon="9.3160152"><ele>218.0</ele><time>2026-04-23T09:51:49.159Z</time></trkpt><trkpt lat="46.0949554" lon="9.3158966"><ele>218.0</ele><time>2026-04-23T09:51:51.161Z</time></trkpt><trkpt lat="46.0948682" lon="9.3157675"><ele>218.0</ele><time>2026-04-23T09:51:53.162Z</time></trkpt><trkpt lat="46.0948214" lon="9.3157015"><ele>218.0</ele><time>2026-04-23T09:51:54.16Z</time></trkpt><trkpt lat="46.0947785" lon="9.3156328"><ele>219.16666666666669</ele><time>2026-04-23T09:51:55.161Z</time></trkpt><trkpt lat="46.0946897" lon="9.3154888"><ele>220.33333333333334</ele><time>2026-04-23T09:51:57.16Z</time></trkpt><trkpt lat="46.0946468" lon="9.3154182"><ele>221.5</ele><time>2026-04-23T09:51:58.16Z</time></trkpt><trkpt lat="46.0946029" lon="9.3153498"><ele>222.66666666666669</ele><time>2026-04-23T09:51:59.16Z</time></trkpt><trkpt lat="46.0945546" lon="9.3152803"><ele>223.83333333333334</ele><time>2026-04-23T09:52:00.16Z</time></trkpt><trkpt lat="46.094509" lon="9.315212"><ele>225.0</ele><time>2026-04-23T09:52:01.159Z</time></trkpt><trkpt lat="46.0944607" lon="9.3151393"><ele>225.0</ele><time>2026-04-23T09:52:02.159Z</time></trkpt><trkpt lat="46.0944145" lon="9.3150707"><ele>225.0</ele><time>2026-04-23T09:52:03.159Z</time></trkpt><trkpt lat="46.0943715" lon="9.3149975"><ele>225.0</ele><time>2026-04-23T09:52:04.161Z</time></trkpt><trkpt lat="46.0942961" lon="9.3148756"><ele>225.0</ele><time>2026-04-23T09:52:06.16Z</time></trkpt><trkpt lat="46.0942091" lon="9.3147382"><ele>225.0</ele><time>2026-04-23T09:52:08.162Z</time></trkpt><trkpt lat="46.0941625" lon="9.3146723"><ele>225.0</ele><time>2026-04-23T09:52:09.161Z</time></trkpt><trkpt lat="46.0941149" lon="9.3146024"><ele>226.6</ele><time>2026-04-23T09:52:10.162Z</time></trkpt><trkpt lat="46.0940235" lon="9.3144775"><ele>228.2</ele><time>2026-04-23T09:52:12.161Z</time></trkpt><trkpt lat="46.0939731" lon="9.3144193"><ele>229.8</ele><time>2026-04-23T09:52:13.16Z</time></trkpt><trkpt lat="46.0938858" lon="9.3143014"><ele>231.4</ele><time>2026-04-23T09:52:15.161Z</time></trkpt><trkpt lat="46.0938053" lon="9.3141898"><ele>233.0</ele><time>2026-04-23T09:52:17.16Z</time></trkpt><trkpt lat="46.0937163" lon="9.3140984"><ele>233.0</ele><time>2026-04-23T09:52:19.159Z</time></trkpt><trkpt lat="46.0936107" lon="9.3140028"><ele>233.0</ele><time>2026-04-23T09:52:21.161Z</time></trkpt><trkpt lat="46.0935548" lon="9.3139583"><ele>233.0</ele><time>2026-04-23T09:52:22.161Z</time></trkpt><trkpt lat="46.0934718" lon="9.313879"><ele>233.0</ele><time>2026-04-23T09:52:24.16Z</time></trkpt><trkpt lat="46.0933782" lon="9.3138018"><ele>233.0</ele><time>2026-04-23T09:52:26.161Z</time></trkpt><trkpt lat="46.0932881" lon="9.313734"><ele>232.0</ele><time>2026-04-23T09:52:28.161Z</time></trkpt><trkpt lat="46.093188" lon="9.3136533"><ele>231.0</ele><time>2026-04-23T09:52:30.16Z</time></trkpt><trkpt lat="46.0931019" lon="9.3135945"><ele>230.0</ele><time>2026-04-23T09:52:32.161Z</time></trkpt><trkpt lat="46.0930077" lon="9.3135187"><ele>229.0</ele><time>2026-04-23T09:52:34.16Z</time></trkpt><trkpt lat="46.0929162" lon="9.3134317"><ele>228.0</ele><time>2026-04-23T09:52:36.16Z</time></trkpt><trkpt lat="46.0928259" lon="9.3133618"><ele>228.0</ele><time>2026-04-23T09:52:38.16Z</time></trkpt><trkpt lat="46.0927352" lon="9.3132875"><ele>228.0</ele><time>2026-04-23T09:52:40.161Z</time></trkpt><trkpt lat="46.0926573" lon="9.3132281"><ele>228.0</ele><time>2026-04-23T09:52:42.16Z</time></trkpt><trkpt lat="46.0925669" lon="9.313163"><ele>228.0</ele><time>2026-04-23T09:52:44.159Z</time></trkpt><trkpt lat="46.0924756" lon="9.3131014"><ele>228.0</ele><time>2026-04-23T09:52:46.161Z</time></trkpt><trkpt lat="46.0923788" lon="9.3130294"><ele>227.60000000000002</ele><time>2026-04-23T09:52:48.16Z</time></trkpt><trkpt lat="46.09229" lon="9.3129746"><ele>227.20000000000002</ele><time>2026-04-23T09:52:50.161Z</time></trkpt><trkpt lat="46.0922105" lon="9.312897"><ele>226.8</ele><time>2026-04-23T09:52:52.16Z</time></trkpt><trkpt lat="46.0921268" lon="9.31284"><ele>226.4</ele><time>2026-04-23T09:52:54.16Z</time></trkpt><trkpt lat="46.0920485" lon="9.3127796"><ele>226.0</ele><time>2026-04-23T09:52:56.16Z</time></trkpt><trkpt lat="46.0919789" lon="9.3127179"><ele>225.99999999999997</ele><time>2026-04-23T09:52:58.161Z</time></trkpt><trkpt lat="46.0919029" lon="9.3126748"><ele>226.0</ele><time>2026-04-23T09:53:00.158Z</time></trkpt><trkpt lat="46.0918274" lon="9.3126413"><ele>226.0</ele><time>2026-04-23T09:53:02.161Z</time></trkpt><trkpt lat="46.0917471" lon="9.312615"><ele>226.0</ele><time>2026-04-23T09:53:04.16Z</time></trkpt><trkpt lat="46.0916613" lon="9.3125758"><ele>225.99999999999997</ele><time>2026-04-23T09:53:06.161Z</time></trkpt><trkpt lat="46.0915763" lon="9.3125355"><ele>226.0</ele><time>2026-04-23T09:53:08.16Z</time></trkpt><trkpt lat="46.091496" lon="9.3124978"><ele>225.49999999999997</ele><time>2026-04-23T09:53:10.16Z</time></trkpt><trkpt lat="46.091417" lon="9.3124631"><ele>225.0</ele><time>2026-04-23T09:53:12.161Z</time></trkpt><trkpt lat="46.0913364" lon="9.3124134"><ele>224.5</ele><time>2026-04-23T09:53:14.159Z</time></trkpt><trkpt lat="46.09126" lon="9.3123477"><ele>224.0</ele><time>2026-04-23T09:53:16.16Z</time></trkpt><trkpt lat="46.0911891" lon="9.3122777"><ele>223.49999999999997</ele><time>2026-04-23T09:53:18.16Z</time></trkpt><trkpt lat="46.091116" lon="9.3122026"><ele>223.0</ele><time>2026-04-23T09:53:20.161Z</time></trkpt><trkpt lat="46.0910424" lon="9.3121233"><ele>222.99999999999997</ele><time>2026-04-23T09:53:22.16Z</time></trkpt><trkpt lat="46.0909637" lon="9.3120436"><ele>223.0</ele><time>2026-04-23T09:53:24.161Z</time></trkpt><trkpt lat="46.0908817" lon="9.3119716"><ele>223.0</ele><time>2026-04-23T09:53:26.159Z</time></trkpt><trkpt lat="46.0908116" lon="9.3119131"><ele>223.0</ele><time>2026-04-23T09:53:28.162Z</time></trkpt><trkpt lat="46.0907452" lon="9.3118618"><ele>222.99999999999997</ele><time>2026-04-23T09:53:30.159Z</time></trkpt><trkpt lat="46.0906767" lon="9.3118109"><ele>223.0</ele><time>2026-04-23T09:53:32.16Z</time></trkpt><trkpt lat="46.0906019" lon="9.3117651"><ele>226.16666666666666</ele><time>2026-04-23T09:53:34.16Z</time></trkpt><trkpt lat="46.0905283" lon="9.3117336"><ele>229.33333333333331</ele><time>2026-04-23T09:53:36.161Z</time></trkpt><trkpt lat="46.0904566" lon="9.3117033"><ele>232.5</ele><time>2026-04-23T09:53:38.161Z</time></trkpt><trkpt lat="46.0903723" lon="9.3116686"><ele>235.66666666666669</ele><time>2026-04-23T09:53:40.16Z</time></trkpt><trkpt lat="46.0902879" lon="9.311652"><ele>238.83333333333334</ele><time>2026-04-23T09:53:42.161Z</time></trkpt><trkpt lat="46.0902043" lon="9.3116261"><ele>242.0</ele><time>2026-04-23T09:53:44.16Z</time></trkpt><trkpt lat="46.0901144" lon="9.3116003"><ele>242.0</ele><time>2026-04-23T09:53:46.16Z</time></trkpt><trkpt lat="46.0900204" lon="9.311557"><ele>242.0</ele><time>2026-04-23T09:53:48.16Z</time></trkpt><trkpt lat="46.0899381" lon="9.3115161"><ele>242.0</ele><time>2026-04-23T09:53:50.16Z</time></trkpt><trkpt lat="46.0898556" lon="9.311488"><ele>242.0</ele><time>2026-04-23T09:53:52.16Z</time></trkpt><trkpt lat="46.0897696" lon="9.3114506"><ele>242.0</ele><time>2026-04-23T09:53:54.161Z</time></trkpt><trkpt lat="46.0896807" lon="9.3114231"><ele>241.8</ele><time>2026-04-23T09:53:56.161Z</time></trkpt><trkpt lat="46.0895825" lon="9.3114253"><ele>241.6</ele><time>2026-04-23T09:53:58.161Z</time></trkpt><trkpt lat="46.0894949" lon="9.3114162"><ele>241.40000000000003</ele><time>2026-04-23T09:54:00.16Z</time></trkpt><trkpt lat="46.0893579" lon="9.3114194"><ele>241.20000000000002</ele><time>2026-04-23T09:54:03.161Z</time></trkpt><trkpt lat="46.0892525" lon="9.3114255"><ele>241.0</ele><time>2026-04-23T09:54:05.161Z</time></trkpt><trkpt lat="46.0891479" lon="9.3114154"><ele>241.99999999999997</ele><time>2026-04-23T09:54:07.16Z</time></trkpt><trkpt lat="46.0890813" lon="9.3114145"><ele>243.0</ele><time>2026-04-23T09:54:08.161Z</time></trkpt><trkpt lat="46.0889415" lon="9.3113856"><ele>244.0</ele><time>2026-04-23T09:54:10.16Z</time></trkpt><trkpt lat="46.0888724" lon="9.3113553"><ele>245.0</ele><time>2026-04-23T09:54:11.161Z</time></trkpt><trkpt lat="46.0888058" lon="9.3113179"><ele>245.99999999999997</ele><time>2026-04-23T09:54:12.16Z</time></trkpt><trkpt lat="46.088739" lon="9.3112721"><ele>247.0</ele><time>2026-04-23T09:54:13.161Z</time></trkpt><trkpt lat="46.0886261" lon="9.3111588"><ele>245.33333333333331</ele><time>2026-04-23T09:54:15.161Z</time></trkpt><trkpt lat="46.0885678" lon="9.3110886"><ele>243.66666666666666</ele><time>2026-04-23T09:54:16.162Z</time></trkpt><trkpt lat="46.0884884" lon="9.3110374"><ele>242.0</ele><time>2026-04-23T09:54:17.161Z</time></trkpt><trkpt lat="46.0884063" lon="9.3109759"><ele>240.33333333333331</ele><time>2026-04-23T09:54:18.16Z</time></trkpt><trkpt lat="46.0883234" lon="9.3109134"><ele>238.66666666666666</ele><time>2026-04-23T09:54:19.161Z</time></trkpt><trkpt lat="46.08826" lon="9.3108582"><ele>237.0</ele><time>2026-04-23T09:54:20.16Z</time></trkpt><trkpt lat="46.0881833" lon="9.3107973"><ele>237.0</ele><time>2026-04-23T09:54:21.161Z</time></trkpt><trkpt lat="46.0880803" lon="9.3107262"><ele>237.0</ele><time>2026-04-23T09:54:22.162Z</time></trkpt><trkpt lat="46.0880131" lon="9.3106751"><ele>237.0</ele><time>2026-04-23T09:54:23.161Z</time></trkpt><trkpt lat="46.0879151" lon="9.310591"><ele>237.0</ele><time>2026-04-23T09:54:24.16Z</time></trkpt><trkpt lat="46.0878358" lon="9.3105276"><ele>237.0</ele><time>2026-04-23T09:54:25.16Z</time></trkpt><trkpt lat="46.0877628" lon="9.3104702"><ele>233.83333333333334</ele><time>2026-04-23T09:54:26.162Z</time></trkpt><trkpt lat="46.0876836" lon="9.3104067"><ele>230.66666666666669</ele><time>2026-04-23T09:54:27.161Z</time></trkpt><trkpt lat="46.0876172" lon="9.3103466"><ele>227.5</ele><time>2026-04-23T09:54:28.159Z</time></trkpt><trkpt lat="46.0875347" lon="9.3102823"><ele>224.33333333333334</ele><time>2026-04-23T09:54:29.161Z</time></trkpt><trkpt lat="46.0874706" lon="9.3102201"><ele>221.16666666666669</ele><time>2026-04-23T09:54:30.161Z</time></trkpt><trkpt lat="46.087388" lon="9.3101576"><ele>218.0</ele><time>2026-04-23T09:54:31.16Z</time></trkpt><trkpt lat="46.0872988" lon="9.3100849"><ele>218.00000000000003</ele><time>2026-04-23T09:54:32.161Z</time></trkpt><trkpt lat="46.0872171" lon="9.3100323"><ele>218.0</ele><time>2026-04-23T09:54:33.161Z</time></trkpt><trkpt lat="46.0871341" lon="9.3100065"><ele>218.0</ele><time>2026-04-23T09:54:34.161Z</time></trkpt><trkpt lat="46.087043" lon="9.3099995"><ele>218.0</ele><time>2026-04-23T09:54:35.161Z</time></trkpt><trkpt lat="46.0869514" lon="9.3099856"><ele>218.00000000000003</ele><time>2026-04-23T09:54:36.16Z</time></trkpt><trkpt lat="46.0868674" lon="9.3099962"><ele>218.0</ele><time>2026-04-23T09:54:37.16Z</time></trkpt><trkpt lat="46.0867877" lon="9.3100198"><ele>218.00000000000003</ele><time>2026-04-23T09:54:38.16Z</time></trkpt><trkpt lat="46.0867023" lon="9.3100335"><ele>218.0</ele><time>2026-04-23T09:54:39.16Z</time></trkpt><trkpt lat="46.0866113" lon="9.3100639"><ele>218.0</ele><time>2026-04-23T09:54:40.161Z</time></trkpt><trkpt lat="46.0865213" lon="9.3100717"><ele>218.0</ele><time>2026-04-23T09:54:41.16Z</time></trkpt><trkpt lat="46.0864343" lon="9.3100875"><ele>218.00000000000003</ele><time>2026-04-23T09:54:42.161Z</time></trkpt><trkpt lat="46.0863467" lon="9.3100903"><ele>218.0</ele><time>2026-04-23T09:54:43.161Z</time></trkpt><trkpt lat="46.0862692" lon="9.310113"><ele>216.00000000000003</ele><time>2026-04-23T09:54:44.161Z</time></trkpt><trkpt lat="46.0861977" lon="9.3101345"><ele>214.0</ele><time>2026-04-23T09:54:45.161Z</time></trkpt><trkpt lat="46.0861181" lon="9.3101619"><ele>212.0</ele><time>2026-04-23T09:54:46.159Z</time></trkpt><trkpt lat="46.0860286" lon="9.3101946"><ele>210.0</ele><time>2026-04-23T09:54:47.16Z</time></trkpt><trkpt lat="46.0859478" lon="9.3102248"><ele>208.00000000000003</ele><time>2026-04-23T09:54:48.159Z</time></trkpt><trkpt lat="46.0858671" lon="9.3102463"><ele>206.0</ele><time>2026-04-23T09:54:49.161Z</time></trkpt><trkpt lat="46.0857867" lon="9.3102756"><ele>205.4</ele><time>2026-04-23T09:54:50.161Z</time></trkpt><trkpt lat="46.0856917" lon="9.310301"><ele>204.8</ele><time>2026-04-23T09:54:51.162Z</time></trkpt><trkpt lat="46.085589" lon="9.3103488"><ele>204.20000000000002</ele><time>2026-04-23T09:54:52.161Z</time></trkpt><trkpt lat="46.085506" lon="9.3103907"><ele>203.60000000000002</ele><time>2026-04-23T09:54:53.16Z</time></trkpt><trkpt lat="46.0854216" lon="9.3104341"><ele>203.0</ele><time>2026-04-23T09:54:54.161Z</time></trkpt><trkpt lat="46.0853404" lon="9.3104833"><ele>203.00000000000003</ele><time>2026-04-23T09:54:55.16Z</time></trkpt><trkpt lat="46.0852558" lon="9.3105299"><ele>203.0</ele><time>2026-04-23T09:54:56.16Z</time></trkpt><trkpt lat="46.0851734" lon="9.3105788"><ele>203.0</ele><time>2026-04-23T09:54:57.16Z</time></trkpt><trkpt lat="46.0850882" lon="9.3106236"><ele>203.0</ele><time>2026-04-23T09:54:58.161Z</time></trkpt><trkpt lat="46.0850072" lon="9.3106625"><ele>203.00000000000003</ele><time>2026-04-23T09:54:59.162Z</time></trkpt><trkpt lat="46.0849303" lon="9.3107075"><ele>203.0</ele><time>2026-04-23T09:55:00.16Z</time></trkpt><trkpt lat="46.0848477" lon="9.3107416"><ele>205.50000000000003</ele><time>2026-04-23T09:55:01.16Z</time></trkpt><trkpt lat="46.084765" lon="9.310778"><ele>208.0</ele><time>2026-04-23T09:55:02.16Z</time></trkpt><trkpt lat="46.0846844" lon="9.3108042"><ele>210.5</ele><time>2026-04-23T09:55:03.16Z</time></trkpt><trkpt lat="46.0845897" lon="9.3108339"><ele>213.0</ele><time>2026-04-23T09:55:04.16Z</time></trkpt><trkpt lat="46.0845091" lon="9.310862"><ele>215.50000000000003</ele><time>2026-04-23T09:55:05.16Z</time></trkpt><trkpt lat="46.0844421" lon="9.3108873"><ele>218.0</ele><time>2026-04-23T09:55:06.161Z</time></trkpt><trkpt lat="46.0843581" lon="9.3109081"><ele>218.00000000000003</ele><time>2026-04-23T09:55:07.159Z</time></trkpt><trkpt lat="46.0842666" lon="9.3109269"><ele>218.0</ele><time>2026-04-23T09:55:08.16Z</time></trkpt><trkpt lat="46.0841794" lon="9.3109409"><ele>218.0</ele><time>2026-04-23T09:55:09.161Z</time></trkpt><trkpt lat="46.0840922" lon="9.3109612"><ele>218.0</ele><time>2026-04-23T09:55:10.16Z</time></trkpt><trkpt lat="46.0840052" lon="9.3109728"><ele>218.00000000000003</ele><time>2026-04-23T09:55:11.161Z</time></trkpt><trkpt lat="46.0839214" lon="9.3109928"><ele>218.0</ele><time>2026-04-23T09:55:12.159Z</time></trkpt><trkpt lat="46.0838363" lon="9.3110181"><ele>216.83333333333334</ele><time>2026-04-23T09:55:13.161Z</time></trkpt><trkpt lat="46.0837519" lon="9.3110356"><ele>215.66666666666669</ele><time>2026-04-23T09:55:14.161Z</time></trkpt><trkpt lat="46.0836742" lon="9.3110488"><ele>214.5</ele><time>2026-04-23T09:55:15.16Z</time></trkpt><trkpt lat="46.0836004" lon="9.3110791"><ele>213.33333333333331</ele><time>2026-04-23T09:55:16.161Z</time></trkpt><trkpt lat="46.083523" lon="9.3110969"><ele>212.16666666666666</ele><time>2026-04-23T09:55:17.161Z</time></trkpt><trkpt lat="46.0834559" lon="9.3111198"><ele>211.0</ele><time>2026-04-23T09:55:18.161Z</time></trkpt><trkpt lat="46.0833825" lon="9.3111363"><ele>210.99999999999997</ele><time>2026-04-23T09:55:19.161Z</time></trkpt><trkpt lat="46.0833024" lon="9.3111494"><ele>211.0</ele><time>2026-04-23T09:55:20.162Z</time></trkpt><trkpt lat="46.0832289" lon="9.311163"><ele>211.0</ele><time>2026-04-23T09:55:21.16Z</time></trkpt><trkpt lat="46.0831661" lon="9.3111866"><ele>211.0</ele><time>2026-04-23T09:55:22.161Z</time></trkpt><trkpt lat="46.083085" lon="9.3111912"><ele>210.99999999999997</ele><time>2026-04-23T09:55:23.16Z</time></trkpt><trkpt lat="46.0830079" lon="9.3112107"><ele>211.0</ele><time>2026-04-23T09:55:24.161Z</time></trkpt><trkpt lat="46.0829304" lon="9.31122"><ele>210.28571428571428</ele><time>2026-04-23T09:55:25.16Z</time></trkpt><trkpt lat="46.0828645" lon="9.3112404"><ele>209.57142857142858</ele><time>2026-04-23T09:55:26.162Z</time></trkpt><trkpt lat="46.0828007" lon="9.31124"><ele>208.85714285714283</ele><time>2026-04-23T09:55:27.16Z</time></trkpt><trkpt lat="46.0827204" lon="9.3112272"><ele>208.14285714285714</ele><time>2026-04-23T09:55:28.161Z</time></trkpt><trkpt lat="46.0826547" lon="9.3111956"><ele>207.42857142857142</ele><time>2026-04-23T09:55:29.16Z</time></trkpt><trkpt lat="46.0825841" lon="9.3111617"><ele>206.7142857142857</ele><time>2026-04-23T09:55:30.161Z</time></trkpt><trkpt lat="46.0825218" lon="9.3111121"><ele>206.0</ele><time>2026-04-23T09:55:31.161Z</time></trkpt><trkpt lat="46.0824612" lon="9.311069"><ele>207.16666666666669</ele><time>2026-04-23T09:55:32.161Z</time></trkpt><trkpt lat="46.0823877" lon="9.3110235"><ele>208.33333333333334</ele><time>2026-04-23T09:55:33.161Z</time></trkpt><trkpt lat="46.0823161" lon="9.3109912"><ele>209.5</ele><time>2026-04-23T09:55:34.16Z</time></trkpt><trkpt lat="46.0822519" lon="9.3109489"><ele>210.66666666666669</ele><time>2026-04-23T09:55:35.161Z</time></trkpt><trkpt lat="46.082177" lon="9.310918"><ele>211.83333333333334</ele><time>2026-04-23T09:55:36.161Z</time></trkpt><trkpt lat="46.0821029" lon="9.3109047"><ele>213.0</ele><time>2026-04-23T09:55:37.16Z</time></trkpt><trkpt lat="46.0820287" lon="9.3108777"><ele>212.99999999999997</ele><time>2026-04-23T09:55:38.16Z</time></trkpt><trkpt lat="46.0819534" lon="9.3108566"><ele>213.0</ele><time>2026-04-23T09:55:39.16Z</time></trkpt><trkpt lat="46.0818803" lon="9.3108435"><ele>213.0</ele><time>2026-04-23T09:55:40.161Z</time></trkpt><trkpt lat="46.0818091" lon="9.3108304"><ele>213.0</ele><time>2026-04-23T09:55:41.161Z</time></trkpt><trkpt lat="46.0817395" lon="9.3108265"><ele>213.0</ele><time>2026-04-23T09:55:42.16Z</time></trkpt><trkpt lat="46.0816734" lon="9.3108317"><ele>212.99999999999997</ele><time>2026-04-23T09:55:43.16Z</time></trkpt><trkpt lat="46.0816027" lon="9.3108193"><ele>213.0</ele><time>2026-04-23T09:55:44.162Z</time></trkpt><trkpt lat="46.0815327" lon="9.3107913"><ele>212.33333333333334</ele><time>2026-04-23T09:55:45.16Z</time></trkpt><trkpt lat="46.08146" lon="9.3107599"><ele>211.66666666666669</ele><time>2026-04-23T09:55:46.16Z</time></trkpt><trkpt lat="46.0813952" lon="9.3107404"><ele>211.0</ele><time>2026-04-23T09:55:47.16Z</time></trkpt><trkpt lat="46.0813318" lon="9.3107038"><ele>210.33333333333334</ele><time>2026-04-23T09:55:48.16Z</time></trkpt><trkpt lat="46.0812687" lon="9.3106731"><ele>209.66666666666669</ele><time>2026-04-23T09:55:49.161Z</time></trkpt><trkpt lat="46.0811479" lon="9.3106124"><ele>209.0</ele><time>2026-04-23T09:55:51.161Z</time></trkpt><trkpt lat="46.0810829" lon="9.3105688"><ele>209.00000000000003</ele><time>2026-04-23T09:55:52.161Z</time></trkpt><trkpt lat="46.081024" lon="9.3105175"><ele>209.0</ele><time>2026-04-23T09:55:53.16Z</time></trkpt><trkpt lat="46.0809704" lon="9.3104628"><ele>209.0</ele><time>2026-04-23T09:55:54.16Z</time></trkpt><trkpt lat="46.0808741" lon="9.3103578"><ele>209.0</ele><time>2026-04-23T09:55:56.161Z</time></trkpt><trkpt lat="46.0808255" lon="9.3103"><ele>209.00000000000003</ele><time>2026-04-23T09:55:57.16Z</time></trkpt><trkpt lat="46.0807405" lon="9.3101762"><ele>209.0</ele><time>2026-04-23T09:55:59.161Z</time></trkpt><trkpt lat="46.0806966" lon="9.3101071"><ele>210.0</ele><time>2026-04-23T09:56:00.161Z</time></trkpt><trkpt lat="46.0806149" lon="9.30997"><ele>211.0</ele><time>2026-04-23T09:56:02.161Z</time></trkpt><trkpt lat="46.0805745" lon="9.3098979"><ele>211.99999999999997</ele><time>2026-04-23T09:56:03.16Z</time></trkpt><trkpt lat="46.0805355" lon="9.3098249"><ele>213.0</ele><time>2026-04-23T09:56:04.16Z</time></trkpt><trkpt lat="46.080465" lon="9.3096797"><ele>214.0</ele><time>2026-04-23T09:56:06.161Z</time></trkpt><trkpt lat="46.080405" lon="9.3095328"><ele>214.0</ele><time>2026-04-23T09:56:08.16Z</time></trkpt><trkpt lat="46.0803389" lon="9.3093846"><ele>214.0</ele><time>2026-04-23T09:56:10.162Z</time></trkpt><trkpt lat="46.0802715" lon="9.3092349"><ele>214.0</ele><time>2026-04-23T09:56:12.16Z</time></trkpt><trkpt lat="46.0802374" lon="9.3091183"><ele>214.0</ele><time>2026-04-23T09:56:14.161Z</time></trkpt><trkpt lat="46.0801591" lon="9.308969"><ele>213.79999999999998</ele><time>2026-04-23T09:56:16.16Z</time></trkpt><trkpt lat="46.0801218" lon="9.3088899"><ele>213.59999999999997</ele><time>2026-04-23T09:56:17.16Z</time></trkpt><trkpt lat="46.0800892" lon="9.3088118"><ele>213.4</ele><time>2026-04-23T09:56:18.16Z</time></trkpt><trkpt lat="46.0800195" lon="9.3086708"><ele>213.2</ele><time>2026-04-23T09:56:20.16Z</time></trkpt><trkpt lat="46.0799346" lon="9.3085254"><ele>213.0</ele><time>2026-04-23T09:56:22.16Z</time></trkpt><trkpt lat="46.0798658" lon="9.3083848"><ele>212.8</ele><time>2026-04-23T09:56:24.16Z</time></trkpt><trkpt lat="46.0798315" lon="9.3083079"><ele>212.60000000000002</ele><time>2026-04-23T09:56:25.161Z</time></trkpt><trkpt lat="46.0797616" lon="9.3081653"><ele>212.39999999999998</ele><time>2026-04-23T09:56:27.161Z</time></trkpt><trkpt lat="46.0796924" lon="9.3080155"><ele>212.2</ele><time>2026-04-23T09:56:29.162Z</time></trkpt><trkpt lat="46.0796577" lon="9.3079393"><ele>212.0</ele><time>2026-04-23T09:56:30.16Z</time></trkpt><trkpt lat="46.0795864" lon="9.3077928"><ele>212.00000000000003</ele><time>2026-04-23T09:56:32.16Z</time></trkpt><trkpt lat="46.0795464" lon="9.3077213"><ele>212.0</ele><time>2026-04-23T09:56:33.16Z</time></trkpt><trkpt lat="46.0794736" lon="9.3075781"><ele>212.0</ele><time>2026-04-23T09:56:35.16Z</time></trkpt><trkpt lat="46.0794335" lon="9.3075076"><ele>212.0</ele><time>2026-04-23T09:56:36.16Z</time></trkpt><trkpt lat="46.0793972" lon="9.3074329"><ele>212.00000000000003</ele><time>2026-04-23T09:56:37.162Z</time></trkpt><trkpt lat="46.079321" lon="9.3072872"><ele>212.0</ele><time>2026-04-23T09:56:39.16Z</time></trkpt><trkpt lat="46.0792841" lon="9.3072055"><ele>212.0</ele><time>2026-04-23T09:56:40.161Z</time></trkpt><trkpt lat="46.0792347" lon="9.3070773"><ele>212.0</ele><time>2026-04-23T09:56:42.16Z</time></trkpt><trkpt lat="46.0791947" lon="9.307001"><ele>212.0</ele><time>2026-04-23T09:56:43.162Z</time></trkpt><trkpt lat="46.0791674" lon="9.3069084"><ele>212.0</ele><time>2026-04-23T09:56:44.161Z</time></trkpt><trkpt lat="46.0790954" lon="9.3067609"><ele>212.0</ele><time>2026-04-23T09:56:46.162Z</time></trkpt><trkpt lat="46.0790165" lon="9.3066256"><ele>212.2</ele><time>2026-04-23T09:56:48.161Z</time></trkpt><trkpt lat="46.0789467" lon="9.3065205"><ele>212.39999999999998</ele><time>2026-04-23T09:56:50.161Z</time></trkpt><trkpt lat="46.0788779" lon="9.3063885"><ele>212.60000000000002</ele><time>2026-04-23T09:56:52.161Z</time></trkpt><trkpt lat="46.0788204" lon="9.30627"><ele>212.8</ele><time>2026-04-23T09:56:54.16Z</time></trkpt><trkpt lat="46.0787538" lon="9.3061401"><ele>213.0</ele><time>2026-04-23T09:56:56.161Z</time></trkpt><trkpt lat="46.078699" lon="9.3060206"><ele>213.2</ele><time>2026-04-23T09:56:58.161Z</time></trkpt><trkpt lat="46.0786351" lon="9.3059044"><ele>213.4</ele><time>2026-04-23T09:57:00.161Z</time></trkpt><trkpt lat="46.0785596" lon="9.3057979"><ele>213.59999999999997</ele><time>2026-04-23T09:57:02.161Z</time></trkpt><trkpt lat="46.0784832" lon="9.3056837"><ele>213.79999999999998</ele><time>2026-04-23T09:57:04.161Z</time></trkpt><trkpt lat="46.078416" lon="9.3055769"><ele>214.0</ele><time>2026-04-23T09:57:06.162Z</time></trkpt><trkpt lat="46.0783455" lon="9.3054681"><ele>213.99999999999997</ele><time>2026-04-23T09:57:08.16Z</time></trkpt><trkpt lat="46.0783002" lon="9.3053868"><ele>214.0</ele><time>2026-04-23T09:57:10.161Z</time></trkpt><trkpt lat="46.0782247" lon="9.3052982"><ele>214.0</ele><time>2026-04-23T09:57:12.161Z</time></trkpt><trkpt lat="46.0781406" lon="9.3052095"><ele>214.0</ele><time>2026-04-23T09:57:14.162Z</time></trkpt><trkpt lat="46.0780664" lon="9.3051292"><ele>213.99999999999997</ele><time>2026-04-23T09:57:16.162Z</time></trkpt><trkpt lat="46.0780094" lon="9.3050546"><ele>214.0</ele><time>2026-04-23T09:57:18.161Z</time></trkpt><trkpt lat="46.0779109" lon="9.3049889"><ele>213.79999999999998</ele><time>2026-04-23T09:57:20.162Z</time></trkpt><trkpt lat="46.0778165" lon="9.3049151"><ele>213.59999999999997</ele><time>2026-04-23T09:57:22.161Z</time></trkpt><trkpt lat="46.0777142" lon="9.3048368"><ele>213.4</ele><time>2026-04-23T09:57:24.16Z</time></trkpt><trkpt lat="46.0776137" lon="9.3047918"><ele>213.2</ele><time>2026-04-23T09:57:26.161Z</time></trkpt><trkpt lat="46.0775168" lon="9.3047527"><ele>213.0</ele><time>2026-04-23T09:57:28.161Z</time></trkpt><trkpt lat="46.0774128" lon="9.3046875"><ele>212.5</ele><time>2026-04-23T09:57:30.16Z</time></trkpt><trkpt lat="46.0773248" lon="9.3046547"><ele>212.0</ele><time>2026-04-23T09:57:32.161Z</time></trkpt><trkpt lat="46.0772214" lon="9.3046186"><ele>211.5</ele><time>2026-04-23T09:57:34.161Z</time></trkpt><trkpt lat="46.0771418" lon="9.304598"><ele>211.0</ele><time>2026-04-23T09:57:36.16Z</time></trkpt><trkpt lat="46.0770631" lon="9.3045831"><ele>210.5</ele><time>2026-04-23T09:57:38.161Z</time></trkpt><trkpt lat="46.0769949" lon="9.3045634"><ele>210.0</ele><time>2026-04-23T09:57:40.161Z</time></trkpt><trkpt lat="46.0769181" lon="9.3045582"><ele>210.0</ele><time>2026-04-23T09:57:42.162Z</time></trkpt><trkpt lat="46.0768455" lon="9.3045244"><ele>210.0</ele><time>2026-04-23T09:57:45.161Z</time></trkpt><trkpt lat="46.0767821" lon="9.3044934"><ele>210.0</ele><time>2026-04-23T09:58:12.161Z</time></trkpt><trkpt lat="46.0767135" lon="9.3044452"><ele>210.0</ele><time>2026-04-23T09:58:16.161Z</time></trkpt><trkpt lat="46.0766469" lon="9.3043759"><ele>210.0</ele><time>2026-04-23T09:58:19.16Z</time></trkpt><trkpt lat="46.0765687" lon="9.3044013"><ele>210.0</ele><time>2026-04-23T09:58:22.161Z</time></trkpt><trkpt lat="46.0764851" lon="9.3044139"><ele>210.16666666666666</ele><time>2026-04-23T09:58:25.161Z</time></trkpt><trkpt lat="46.0764051" lon="9.3043994"><ele>210.33333333333331</ele><time>2026-04-23T09:58:28.16Z</time></trkpt><trkpt lat="46.0763395" lon="9.3043892"><ele>210.5</ele><time>2026-04-23T09:58:30.161Z</time></trkpt><trkpt lat="46.0762595" lon="9.3043704"><ele>210.66666666666666</ele><time>2026-04-23T09:58:32.162Z</time></trkpt><trkpt lat="46.0761817" lon="9.3043668"><ele>210.83333333333331</ele><time>2026-04-23T09:58:34.162Z</time></trkpt><trkpt lat="46.0761011" lon="9.3043631"><ele>211.0</ele><time>2026-04-23T09:58:36.161Z</time></trkpt><trkpt lat="46.0760096" lon="9.3043716"><ele>211.0</ele><time>2026-04-23T09:58:38.161Z</time></trkpt><trkpt lat="46.075922" lon="9.3044014"><ele>211.0</ele><time>2026-04-23T09:58:40.16Z</time></trkpt><trkpt lat="46.0758279" lon="9.3043588"><ele>211.0</ele><time>2026-04-23T09:58:42.161Z</time></trkpt><trkpt lat="46.075731" lon="9.304363"><ele>211.0</ele><time>2026-04-23T09:58:44.162Z</time></trkpt><trkpt lat="46.0756364" lon="9.3043621"><ele>211.0</ele><time>2026-04-23T09:58:46.161Z</time></trkpt><trkpt lat="46.0755404" lon="9.3043761"><ele>210.60000000000002</ele><time>2026-04-23T09:58:48.16Z</time></trkpt><trkpt lat="46.0754434" lon="9.3043835"><ele>210.2</ele><time>2026-04-23T09:58:50.161Z</time></trkpt><trkpt lat="46.0753387" lon="9.3043871"><ele>209.8</ele><time>2026-04-23T09:58:52.161Z</time></trkpt><trkpt lat="46.0752263" lon="9.3043915"><ele>209.39999999999998</ele><time>2026-04-23T09:58:54.16Z</time></trkpt><trkpt lat="46.0751193" lon="9.3044314"><ele>209.0</ele><time>2026-04-23T09:58:56.161Z</time></trkpt><trkpt lat="46.075026" lon="9.3044721"><ele>208.79999999999998</ele><time>2026-04-23T09:58:58.162Z</time></trkpt><trkpt lat="46.074934" lon="9.3045049"><ele>208.6</ele><time>2026-04-23T09:59:00.162Z</time></trkpt><trkpt lat="46.0748348" lon="9.3045339"><ele>208.4</ele><time>2026-04-23T09:59:02.161Z</time></trkpt><trkpt lat="46.0747385" lon="9.3045542"><ele>208.2</ele><time>2026-04-23T09:59:04.16Z</time></trkpt><trkpt lat="46.0746391" lon="9.3045911"><ele>208.0</ele><time>2026-04-23T09:59:06.162Z</time></trkpt><trkpt lat="46.0745471" lon="9.3046398"><ele>208.0</ele><time>2026-04-23T09:59:08.161Z</time></trkpt><trkpt lat="46.0744519" lon="9.3046778"><ele>208.0</ele><time>2026-04-23T09:59:10.16Z</time></trkpt><trkpt lat="46.0743627" lon="9.304728"><ele>208.0</ele><time>2026-04-23T09:59:12.161Z</time></trkpt><trkpt lat="46.0742748" lon="9.3047699"><ele>208.0</ele><time>2026-04-23T09:59:14.162Z</time></trkpt><trkpt lat="46.074182" lon="9.30475"><ele>208.0</ele><time>2026-04-23T09:59:16.16Z</time></trkpt><trkpt lat="46.0740986" lon="9.3046442"><ele>208.16666666666666</ele><time>2026-04-23T09:59:18.161Z</time></trkpt><trkpt lat="46.0740029" lon="9.3045564"><ele>208.33333333333331</ele><time>2026-04-23T09:59:20.161Z</time></trkpt><trkpt lat="46.07393" lon="9.3044112"><ele>208.5</ele><time>2026-04-23T09:59:22.16Z</time></trkpt><trkpt lat="46.0738832" lon="9.3043432"><ele>208.66666666666669</ele><time>2026-04-23T09:59:23.161Z</time></trkpt><trkpt lat="46.0738353" lon="9.3042699"><ele>208.83333333333334</ele><time>2026-04-23T09:59:24.161Z</time></trkpt><trkpt lat="46.0737791" lon="9.3041992"><ele>209.0</ele><time>2026-04-23T09:59:25.161Z</time></trkpt><trkpt lat="46.0737311" lon="9.3041284"><ele>209.00000000000003</ele><time>2026-04-23T09:59:26.161Z</time></trkpt><trkpt lat="46.0736827" lon="9.3040684"><ele>209.0</ele><time>2026-04-23T09:59:27.162Z</time></trkpt><trkpt lat="46.0736372" lon="9.3039978"><ele>209.0</ele><time>2026-04-23T09:59:28.162Z</time></trkpt><trkpt lat="46.073597" lon="9.3039242"><ele>209.0</ele><time>2026-04-23T09:59:29.162Z</time></trkpt><trkpt lat="46.0735155" lon="9.3037766"><ele>209.00000000000003</ele><time>2026-04-23T09:59:31.162Z</time></trkpt><trkpt lat="46.0734783" lon="9.3036926"><ele>209.0</ele><time>2026-04-23T09:59:32.162Z</time></trkpt><trkpt lat="46.0734488" lon="9.3036087"><ele>208.6</ele><time>2026-04-23T09:59:33.162Z</time></trkpt><trkpt lat="46.0734283" lon="9.3035014"><ele>208.2</ele><time>2026-04-23T09:59:34.162Z</time></trkpt><trkpt lat="46.073396" lon="9.3033117"><ele>207.79999999999998</ele><time>2026-04-23T09:59:36.16Z</time></trkpt><trkpt lat="46.0733474" lon="9.3032531"><ele>207.39999999999998</ele><time>2026-04-23T09:59:37.161Z</time></trkpt><trkpt lat="46.0732762" lon="9.3031294"><ele>207.0</ele><time>2026-04-23T09:59:39.16Z</time></trkpt><trkpt lat="46.0731871" lon="9.3030218"><ele>207.0</ele><time>2026-04-23T09:59:41.162Z</time></trkpt><trkpt lat="46.0731127" lon="9.3029016"><ele>207.0</ele><time>2026-04-23T09:59:43.162Z</time></trkpt><trkpt lat="46.073006" lon="9.3028751"><ele>207.0</ele><time>2026-04-23T09:59:46.161Z</time></trkpt><trkpt lat="46.0729453" lon="9.3029816"><ele>207.0</ele><time>2026-04-23T09:59:48.162Z</time></trkpt><trkpt lat="46.0729569" lon="9.303114"><ele>207.0</ele><time>2026-04-23T09:59:50.161Z</time></trkpt><trkpt lat="46.0729566" lon="9.3032618"><ele>207.0</ele><time>2026-04-23T09:59:52.161Z</time></trkpt><trkpt lat="46.072918" lon="9.3033348"><ele>207.0</ele><time>2026-04-23T09:59:53.161Z</time></trkpt><trkpt lat="46.0729075" lon="9.3034713"><ele>207.0</ele><time>2026-04-23T09:59:55.161Z</time></trkpt><trkpt lat="46.0728948" lon="9.303598"><ele>207.0</ele><time>2026-04-23T09:59:57.162Z</time></trkpt><trkpt lat="46.0728794" lon="9.3036962"><ele>207.0</ele><time>2026-04-23T09:59:59.16Z</time></trkpt><trkpt lat="46.0729203" lon="9.3037991"><ele>207.0</ele><time>2026-04-23T10:00:03.162Z</time></trkpt><trkpt lat="46.0729423" lon="9.3038953"><ele>207.0</ele><time>2026-04-23T10:00:08.161Z</time></trkpt><trkpt lat="46.072954" lon="9.304006"><ele>207.0</ele><time>2026-04-23T10:00:12.161Z</time></trkpt><trkpt lat="46.0729676" lon="9.3041523"><ele>207.0</ele><time>2026-04-23T10:00:16.163Z</time></trkpt><trkpt lat="46.0729812" lon="9.304244"><ele>207.0</ele><time>2026-04-23T10:00:18.16Z</time></trkpt><trkpt lat="46.0729176" lon="9.3042105"><ele>207.0</ele><time>2026-04-23T10:00:26.162Z</time></trkpt><trkpt lat="46.0728778" lon="9.3041325"><ele>207.0</ele><time>2026-04-23T10:00:35.162Z</time></trkpt><trkpt lat="46.0729464" lon="9.3040857"><ele>207.0</ele><time>2026-04-23T10:08:36.991Z</time></trkpt><trkpt lat="46.0729464" lon="9.3040857"><ele>207.0</ele><time>2026-04-23T10:08:36.991Z</time></trkpt><trkpt lat="46.0729464" lon="9.3040857"><ele>207.0</ele><time>2026-04-23T10:08:36.991Z</time></trkpt></trkseg></trk></gpx>